<?xml version="1.0" encoding="UTF-8" standalone="no" ?>
<gpx xmlns="http://www.topografix.com/GPX/1/1" xmlns:xsi="http://www.w3.org/2001/XMLSchema-instance" xsi:schemaLocation="http://www.topografix.com/GPX/1/1 http://www.topografix.com/GPX/1/1/gpx.xsd" version="1.1" creator="VisuGPX - https://www.visugpx.com">
  <metadata>
    <name>Tour dans les Alpes du Sud J1 2018-08-25</name>
    <desc><![CDATA[Magnifique Weekend dans les Alpes du sud 
- Col de la Bonnette par les pistes (autorisées)]]></desc>
  </metadata>
  <wpt lat="45.20113" lon="5.71776">
    <ele>246.05</ele>
    <name><![CDATA[0000228]]></name>
    <type><![CDATA[Point de départ]]></type>
  </wpt>
  <wpt lat="44.09081" lon="6.96732">
    <ele>1555.56</ele>
    <name><![CDATA[0000229]]></name>
    <desc><![CDATA[<p><br /><h3>Nom: Segment: 1</h3><br />Heure de départ: 08/25/2018 07:29<br/>Heure d'arrivée: 08/26/2018 09:07<br/>Distance: 349,5km (25:37)<br/>Temps déplacement: 07:02<br/>Vitesse moyenne: 13,64 km/h<br/>Vitesse moyenne mouv.: 49,28 km/h<br/>Vitesse Max.: 116,35 km/h<br/>Altitude minimale: 210 m<br/>Altitude maximale: 2803 m<br/>Vitesse de montée: 1417,7 m/h<br/>Vitesse de descente: -1809,3 m/h<br/>Gain d'altitude: 8185 m<br/>Perte d'altitude: -6890 m<br/>Temps de montée: 05:46<br/>Temps de descente: 03:48<br/></p>]]></desc>
    <type><![CDATA[Point d'arrivée]]></type>
  </wpt>
  <trk>
    <name><![CDATA[2018-08-25 07:29]]></name>
    <desc><![CDATA[<p>Heure de départ: 08/25/2018 07:29<br/>Heure d'arrivée: 08/26/2018 09:07<br/>Distance: 349,5 km (25:37)<br/>Temps déplacement: 07:02<br/>Vitesse moyenne: 13,64 km/h<br/>Vitesse moyenne mouv.: 49,61 km/h<br/>Vitesse Max.: 116,35 km/h<br/>Altitude minimale: 210 m<br/>Altitude maximale: 2803 m<br/>Vitesse de montée: 356,4 m/h<br/>Vitesse de descente: -2240,9 m/h<br/>Gain d'altitude: 7928 m<br/>Perte d'altitude: -6610 m<br/>Temps de montée: 22:14<br/>Temps de descente: 02:56<br/></p><hr align="center" width="480" style="height: 2px; width: 517px"/>]]></desc>
    <trkseg>
      <trkpt lat="45.20113" lon="5.71776">
        <ele>246.05</ele>
        <time>2018-08-25T05:29:56Z</time>
      </trkpt>
      <trkpt lat="45.20093" lon="5.71789">
        <ele>237.96</ele>
        <time>2018-08-25T05:31:39Z</time>
      </trkpt>
      <trkpt lat="45.20071" lon="5.71797">
        <ele>238.07</ele>
        <time>2018-08-25T05:31:43Z</time>
      </trkpt>
      <trkpt lat="45.20073" lon="5.71767">
        <ele>234.28</ele>
        <time>2018-08-25T05:31:46Z</time>
      </trkpt>
      <trkpt lat="45.20091" lon="5.71753">
        <ele>227.85</ele>
        <time>2018-08-25T05:31:49Z</time>
      </trkpt>
      <trkpt lat="45.20104" lon="5.71735">
        <ele>225.94</ele>
        <time>2018-08-25T05:31:52Z</time>
      </trkpt>
      <trkpt lat="45.20086" lon="5.71735">
        <ele>220.76</ele>
        <time>2018-08-25T05:32:00Z</time>
      </trkpt>
      <trkpt lat="45.20066" lon="5.71749">
        <ele>221.02</ele>
        <time>2018-08-25T05:32:02Z</time>
      </trkpt>
      <trkpt lat="45.20047" lon="5.7176">
        <ele>221.96</ele>
        <time>2018-08-25T05:32:04Z</time>
      </trkpt>
      <trkpt lat="45.20025" lon="5.71765">
        <ele>222.04</ele>
        <time>2018-08-25T05:32:06Z</time>
      </trkpt>
      <trkpt lat="45.20003" lon="5.71772">
        <ele>221.35</ele>
        <time>2018-08-25T05:32:08Z</time>
      </trkpt>
      <trkpt lat="45.19982" lon="5.71778">
        <ele>221.08</ele>
        <time>2018-08-25T05:32:10Z</time>
      </trkpt>
      <trkpt lat="45.19962" lon="5.71784">
        <ele>221.05</ele>
        <time>2018-08-25T05:32:12Z</time>
      </trkpt>
      <trkpt lat="45.19942" lon="5.71789">
        <ele>221.05</ele>
        <time>2018-08-25T05:32:14Z</time>
      </trkpt>
      <trkpt lat="45.19922" lon="5.71793">
        <ele>221.96</ele>
        <time>2018-08-25T05:32:16Z</time>
      </trkpt>
      <trkpt lat="45.19902" lon="5.71798">
        <ele>221.13</ele>
        <time>2018-08-25T05:32:18Z</time>
      </trkpt>
      <trkpt lat="45.19883" lon="5.71801">
        <ele>219.03</ele>
        <time>2018-08-25T05:32:20Z</time>
      </trkpt>
      <trkpt lat="45.19861" lon="5.71808">
        <ele>218.84</ele>
        <time>2018-08-25T05:32:22Z</time>
      </trkpt>
      <trkpt lat="45.19839" lon="5.71809">
        <ele>219.94</ele>
        <time>2018-08-25T05:32:24Z</time>
      </trkpt>
      <trkpt lat="45.19817" lon="5.7181">
        <ele>219.34</ele>
        <time>2018-08-25T05:32:26Z</time>
      </trkpt>
      <trkpt lat="45.19796" lon="5.7182">
        <ele>217.47</ele>
        <time>2018-08-25T05:32:28Z</time>
      </trkpt>
      <trkpt lat="45.19776" lon="5.71831">
        <ele>217.09</ele>
        <time>2018-08-25T05:32:30Z</time>
      </trkpt>
      <trkpt lat="45.19754" lon="5.7184">
        <ele>216.35</ele>
        <time>2018-08-25T05:32:32Z</time>
      </trkpt>
      <trkpt lat="45.19732" lon="5.71848">
        <ele>216.99</ele>
        <time>2018-08-25T05:32:34Z</time>
      </trkpt>
      <trkpt lat="45.19711" lon="5.71856">
        <ele>217.74</ele>
        <time>2018-08-25T05:32:36Z</time>
      </trkpt>
      <trkpt lat="45.19691" lon="5.71863">
        <ele>217.32</ele>
        <time>2018-08-25T05:32:38Z</time>
      </trkpt>
      <trkpt lat="45.19672" lon="5.71869">
        <ele>217.98</ele>
        <time>2018-08-25T05:32:40Z</time>
      </trkpt>
      <trkpt lat="45.19653" lon="5.71876">
        <ele>218.95</ele>
        <time>2018-08-25T05:32:42Z</time>
      </trkpt>
      <trkpt lat="45.19632" lon="5.71879">
        <ele>219.75</ele>
        <time>2018-08-25T05:32:45Z</time>
      </trkpt>
      <trkpt lat="45.19608" lon="5.71885">
        <ele>218.92</ele>
        <time>2018-08-25T05:32:48Z</time>
      </trkpt>
      <trkpt lat="45.19583" lon="5.71895">
        <ele>219.81</ele>
        <time>2018-08-25T05:32:51Z</time>
      </trkpt>
      <trkpt lat="45.19557" lon="5.71902">
        <ele>221.72</ele>
        <time>2018-08-25T05:32:54Z</time>
      </trkpt>
      <trkpt lat="45.19536" lon="5.71903">
        <ele>222.02</ele>
        <time>2018-08-25T05:32:56Z</time>
      </trkpt>
      <trkpt lat="45.19516" lon="5.71905">
        <ele>222.05</ele>
        <time>2018-08-25T05:32:58Z</time>
      </trkpt>
      <trkpt lat="45.19496" lon="5.71907">
        <ele>222.05</ele>
        <time>2018-08-25T05:33:00Z</time>
      </trkpt>
      <trkpt lat="45.19472" lon="5.71905">
        <ele>220.93</ele>
        <time>2018-08-25T05:33:03Z</time>
      </trkpt>
      <trkpt lat="45.19453" lon="5.71907">
        <ele>220.34</ele>
        <time>2018-08-25T05:33:05Z</time>
      </trkpt>
      <trkpt lat="45.19431" lon="5.71902">
        <ele>219.63</ele>
        <time>2018-08-25T05:33:08Z</time>
      </trkpt>
      <trkpt lat="45.19418" lon="5.71883">
        <ele>216.54</ele>
        <time>2018-08-25T05:33:11Z</time>
      </trkpt>
      <trkpt lat="45.19407" lon="5.71859">
        <ele>212.05</ele>
        <time>2018-08-25T05:33:34Z</time>
      </trkpt>
      <trkpt lat="45.19393" lon="5.71837">
        <ele>213.02</ele>
        <time>2018-08-25T05:33:37Z</time>
      </trkpt>
      <trkpt lat="45.19371" lon="5.71844">
        <ele>213.75</ele>
        <time>2018-08-25T05:33:40Z</time>
      </trkpt>
      <trkpt lat="45.1936" lon="5.7187">
        <ele>214.93</ele>
        <time>2018-08-25T05:33:42Z</time>
      </trkpt>
      <trkpt lat="45.19352" lon="5.71905">
        <ele>216.65</ele>
        <time>2018-08-25T05:33:44Z</time>
      </trkpt>
      <trkpt lat="45.19343" lon="5.71937">
        <ele>216.1</ele>
        <time>2018-08-25T05:33:46Z</time>
      </trkpt>
      <trkpt lat="45.19332" lon="5.71966">
        <ele>216.05</ele>
        <time>2018-08-25T05:33:48Z</time>
      </trkpt>
      <trkpt lat="45.19315" lon="5.71982">
        <ele>215.84</ele>
        <time>2018-08-25T05:33:50Z</time>
      </trkpt>
      <trkpt lat="45.19297" lon="5.71993">
        <ele>216.94</ele>
        <time>2018-08-25T05:33:52Z</time>
      </trkpt>
      <trkpt lat="45.19275" lon="5.72007">
        <ele>216.14</ele>
        <time>2018-08-25T05:33:55Z</time>
      </trkpt>
      <trkpt lat="45.19255" lon="5.7202">
        <ele>216.05</ele>
        <time>2018-08-25T05:33:58Z</time>
      </trkpt>
      <trkpt lat="45.19236" lon="5.72029">
        <ele>217.65</ele>
        <time>2018-08-25T05:34:27Z</time>
      </trkpt>
      <trkpt lat="45.19237" lon="5.71993">
        <ele>217.05</ele>
        <time>2018-08-25T05:34:31Z</time>
      </trkpt>
      <trkpt lat="45.1924" lon="5.71966">
        <ele>217.05</ele>
        <time>2018-08-25T05:34:33Z</time>
      </trkpt>
      <trkpt lat="45.19245" lon="5.71934">
        <ele>217.05</ele>
        <time>2018-08-25T05:34:35Z</time>
      </trkpt>
      <trkpt lat="45.19252" lon="5.719">
        <ele>216.35</ele>
        <time>2018-08-25T05:34:37Z</time>
      </trkpt>
      <trkpt lat="45.1926" lon="5.71867">
        <ele>216.29</ele>
        <time>2018-08-25T05:34:39Z</time>
      </trkpt>
      <trkpt lat="45.19268" lon="5.71833">
        <ele>216.77</ele>
        <time>2018-08-25T05:34:41Z</time>
      </trkpt>
      <trkpt lat="45.19278" lon="5.71799">
        <ele>216.81</ele>
        <time>2018-08-25T05:34:43Z</time>
      </trkpt>
      <trkpt lat="45.19289" lon="5.71765">
        <ele>217.03</ele>
        <time>2018-08-25T05:34:45Z</time>
      </trkpt>
      <trkpt lat="45.19301" lon="5.71733">
        <ele>216.35</ele>
        <time>2018-08-25T05:34:47Z</time>
      </trkpt>
      <trkpt lat="45.19313" lon="5.71701">
        <ele>216.99</ele>
        <time>2018-08-25T05:34:49Z</time>
      </trkpt>
      <trkpt lat="45.19327" lon="5.7167">
        <ele>216.34</ele>
        <time>2018-08-25T05:34:51Z</time>
      </trkpt>
      <trkpt lat="45.19343" lon="5.71641">
        <ele>216.78</ele>
        <time>2018-08-25T05:34:53Z</time>
      </trkpt>
      <trkpt lat="45.1936" lon="5.71613">
        <ele>216.32</ele>
        <time>2018-08-25T05:34:55Z</time>
      </trkpt>
      <trkpt lat="45.19377" lon="5.71586">
        <ele>216.07</ele>
        <time>2018-08-25T05:34:57Z</time>
      </trkpt>
      <trkpt lat="45.19397" lon="5.7156">
        <ele>216.05</ele>
        <time>2018-08-25T05:34:59Z</time>
      </trkpt>
      <trkpt lat="45.19417" lon="5.71535">
        <ele>216.05</ele>
        <time>2018-08-25T05:35:01Z</time>
      </trkpt>
      <trkpt lat="45.1944" lon="5.71511">
        <ele>215.35</ele>
        <time>2018-08-25T05:35:03Z</time>
      </trkpt>
      <trkpt lat="45.19465" lon="5.71491">
        <ele>215.99</ele>
        <time>2018-08-25T05:35:05Z</time>
      </trkpt>
      <trkpt lat="45.19492" lon="5.71474">
        <ele>215.13</ele>
        <time>2018-08-25T05:35:07Z</time>
      </trkpt>
      <trkpt lat="45.1952" lon="5.7146">
        <ele>215.97</ele>
        <time>2018-08-25T05:35:09Z</time>
      </trkpt>
      <trkpt lat="45.19548" lon="5.7145">
        <ele>215.83</ele>
        <time>2018-08-25T05:35:11Z</time>
      </trkpt>
      <trkpt lat="45.19577" lon="5.71441">
        <ele>214.42</ele>
        <time>2018-08-25T05:35:13Z</time>
      </trkpt>
      <trkpt lat="45.19606" lon="5.71437">
        <ele>214.99</ele>
        <time>2018-08-25T05:35:15Z</time>
      </trkpt>
      <trkpt lat="45.19635" lon="5.71436">
        <ele>215.04</ele>
        <time>2018-08-25T05:35:17Z</time>
      </trkpt>
      <trkpt lat="45.19664" lon="5.71437">
        <ele>214.35</ele>
        <time>2018-08-25T05:35:19Z</time>
      </trkpt>
      <trkpt lat="45.1969" lon="5.71441">
        <ele>212.47</ele>
        <time>2018-08-25T05:35:21Z</time>
      </trkpt>
      <trkpt lat="45.19718" lon="5.71442">
        <ele>211.18</ele>
        <time>2018-08-25T05:35:23Z</time>
      </trkpt>
      <trkpt lat="45.19747" lon="5.71443">
        <ele>211.06</ele>
        <time>2018-08-25T05:35:25Z</time>
      </trkpt>
      <trkpt lat="45.19774" lon="5.71441">
        <ele>212.66</ele>
        <time>2018-08-25T05:35:27Z</time>
      </trkpt>
      <trkpt lat="45.19801" lon="5.7144">
        <ele>213.01</ele>
        <time>2018-08-25T05:35:29Z</time>
      </trkpt>
      <trkpt lat="45.1983" lon="5.71438">
        <ele>213.05</ele>
        <time>2018-08-25T05:35:31Z</time>
      </trkpt>
      <trkpt lat="45.19858" lon="5.71435">
        <ele>213.05</ele>
        <time>2018-08-25T05:35:33Z</time>
      </trkpt>
      <trkpt lat="45.19885" lon="5.71433">
        <ele>216.97</ele>
        <time>2018-08-25T05:35:35Z</time>
      </trkpt>
      <trkpt lat="45.19907" lon="5.7143">
        <ele>216.13</ele>
        <time>2018-08-25T05:35:37Z</time>
      </trkpt>
      <trkpt lat="45.1993" lon="5.71423">
        <ele>216.06</ele>
        <time>2018-08-25T05:35:39Z</time>
      </trkpt>
      <trkpt lat="45.1995" lon="5.71416">
        <ele>215.56</ele>
        <time>2018-08-25T05:35:41Z</time>
      </trkpt>
      <trkpt lat="45.19958" lon="5.71387">
        <ele>215</ele>
        <time>2018-08-25T05:35:44Z</time>
      </trkpt>
      <trkpt lat="45.19951" lon="5.71351">
        <ele>216.02</ele>
        <time>2018-08-25T05:35:47Z</time>
      </trkpt>
      <trkpt lat="45.19944" lon="5.7132">
        <ele>216.05</ele>
        <time>2018-08-25T05:35:49Z</time>
      </trkpt>
      <trkpt lat="45.19937" lon="5.71287">
        <ele>216.75</ele>
        <time>2018-08-25T05:35:51Z</time>
      </trkpt>
      <trkpt lat="45.1993" lon="5.71252">
        <ele>217.02</ele>
        <time>2018-08-25T05:35:53Z</time>
      </trkpt>
      <trkpt lat="45.19922" lon="5.71216">
        <ele>216.35</ele>
        <time>2018-08-25T05:35:55Z</time>
      </trkpt>
      <trkpt lat="45.19914" lon="5.71178">
        <ele>218.6</ele>
        <time>2018-08-25T05:35:57Z</time>
      </trkpt>
      <trkpt lat="45.19905" lon="5.7114">
        <ele>218.31</ele>
        <time>2018-08-25T05:35:59Z</time>
      </trkpt>
      <trkpt lat="45.19896" lon="5.711">
        <ele>218.28</ele>
        <time>2018-08-25T05:36:01Z</time>
      </trkpt>
      <trkpt lat="45.19887" lon="5.71065">
        <ele>220.59</ele>
        <time>2018-08-25T05:36:03Z</time>
      </trkpt>
      <trkpt lat="45.19881" lon="5.71035">
        <ele>220.1</ele>
        <time>2018-08-25T05:36:05Z</time>
      </trkpt>
      <trkpt lat="45.19876" lon="5.71009">
        <ele>220.05</ele>
        <time>2018-08-25T05:36:07Z</time>
      </trkpt>
      <trkpt lat="45.19873" lon="5.7098">
        <ele>218.93</ele>
        <time>2018-08-25T05:36:10Z</time>
      </trkpt>
      <trkpt lat="45.19867" lon="5.70946">
        <ele>212.87</ele>
        <time>2018-08-25T05:36:20Z</time>
      </trkpt>
      <trkpt lat="45.19852" lon="5.70924">
        <ele>213.04</ele>
        <time>2018-08-25T05:36:23Z</time>
      </trkpt>
      <trkpt lat="45.19834" lon="5.70924">
        <ele>214.66</ele>
        <time>2018-08-25T05:36:25Z</time>
      </trkpt>
      <trkpt lat="45.19813" lon="5.7094">
        <ele>215.71</ele>
        <time>2018-08-25T05:36:27Z</time>
      </trkpt>
      <trkpt lat="45.19793" lon="5.7096">
        <ele>214.41</ele>
        <time>2018-08-25T05:36:29Z</time>
      </trkpt>
      <trkpt lat="45.1977" lon="5.70976">
        <ele>214.08</ele>
        <time>2018-08-25T05:36:31Z</time>
      </trkpt>
      <trkpt lat="45.19745" lon="5.70986">
        <ele>214.75</ele>
        <time>2018-08-25T05:36:33Z</time>
      </trkpt>
      <trkpt lat="45.1972" lon="5.70999">
        <ele>213.41</ele>
        <time>2018-08-25T05:36:35Z</time>
      </trkpt>
      <trkpt lat="45.19695" lon="5.71012">
        <ele>213.08</ele>
        <time>2018-08-25T05:36:37Z</time>
      </trkpt>
      <trkpt lat="45.19669" lon="5.71024">
        <ele>213.05</ele>
        <time>2018-08-25T05:36:39Z</time>
      </trkpt>
      <trkpt lat="45.19641" lon="5.71037">
        <ele>213.26</ele>
        <time>2018-08-25T05:36:41Z</time>
      </trkpt>
      <trkpt lat="45.19615" lon="5.71049">
        <ele>213.98</ele>
        <time>2018-08-25T05:36:43Z</time>
      </trkpt>
      <trkpt lat="45.19592" lon="5.7106">
        <ele>214.25</ele>
        <time>2018-08-25T05:36:45Z</time>
      </trkpt>
      <trkpt lat="45.19571" lon="5.7107">
        <ele>213.37</ele>
        <time>2018-08-25T05:36:47Z</time>
      </trkpt>
      <trkpt lat="45.19552" lon="5.71074">
        <ele>213.08</ele>
        <time>2018-08-25T05:36:49Z</time>
      </trkpt>
      <trkpt lat="45.19528" lon="5.71068">
        <ele>212.14</ele>
        <time>2018-08-25T05:36:52Z</time>
      </trkpt>
      <trkpt lat="45.19506" lon="5.71063">
        <ele>213.87</ele>
        <time>2018-08-25T05:36:55Z</time>
      </trkpt>
      <trkpt lat="45.19485" lon="5.71059">
        <ele>214.04</ele>
        <time>2018-08-25T05:36:58Z</time>
      </trkpt>
      <trkpt lat="45.19465" lon="5.71051">
        <ele>214.96</ele>
        <time>2018-08-25T05:37:01Z</time>
      </trkpt>
      <trkpt lat="45.19446" lon="5.71036">
        <ele>215.05</ele>
        <time>2018-08-25T05:37:04Z</time>
      </trkpt>
      <trkpt lat="45.1943" lon="5.71016">
        <ele>214.08</ele>
        <time>2018-08-25T05:37:07Z</time>
      </trkpt>
      <trkpt lat="45.19414" lon="5.70995">
        <ele>213.08</ele>
        <time>2018-08-25T05:37:10Z</time>
      </trkpt>
      <trkpt lat="45.19398" lon="5.70975">
        <ele>213.05</ele>
        <time>2018-08-25T05:37:13Z</time>
      </trkpt>
      <trkpt lat="45.19382" lon="5.70954">
        <ele>213.05</ele>
        <time>2018-08-25T05:37:16Z</time>
      </trkpt>
      <trkpt lat="45.19366" lon="5.70933">
        <ele>212.35</ele>
        <time>2018-08-25T05:37:19Z</time>
      </trkpt>
      <trkpt lat="45.1935" lon="5.70913">
        <ele>212.06</ele>
        <time>2018-08-25T05:37:22Z</time>
      </trkpt>
      <trkpt lat="45.19334" lon="5.70892">
        <ele>211.84</ele>
        <time>2018-08-25T05:37:25Z</time>
      </trkpt>
      <trkpt lat="45.19317" lon="5.70871">
        <ele>212.04</ele>
        <time>2018-08-25T05:37:28Z</time>
      </trkpt>
      <trkpt lat="45.19304" lon="5.70848">
        <ele>211.35</ele>
        <time>2018-08-25T05:37:31Z</time>
      </trkpt>
      <trkpt lat="45.19287" lon="5.70828">
        <ele>211.12</ele>
        <time>2018-08-25T05:37:34Z</time>
      </trkpt>
      <trkpt lat="45.19271" lon="5.70808">
        <ele>210.84</ele>
        <time>2018-08-25T05:37:37Z</time>
      </trkpt>
      <trkpt lat="45.19255" lon="5.70788">
        <ele>212.93</ele>
        <time>2018-08-25T05:37:40Z</time>
      </trkpt>
      <trkpt lat="45.19242" lon="5.70766">
        <ele>214.66</ele>
        <time>2018-08-25T05:37:43Z</time>
      </trkpt>
      <trkpt lat="45.1923" lon="5.70742">
        <ele>215.04</ele>
        <time>2018-08-25T05:37:46Z</time>
      </trkpt>
      <trkpt lat="45.19214" lon="5.70719">
        <ele>213.65</ele>
        <time>2018-08-25T05:37:49Z</time>
      </trkpt>
      <trkpt lat="45.192" lon="5.70696">
        <ele>215.65</ele>
        <time>2018-08-25T05:37:52Z</time>
      </trkpt>
      <trkpt lat="45.19189" lon="5.70676">
        <ele>216.04</ele>
        <time>2018-08-25T05:37:55Z</time>
      </trkpt>
      <trkpt lat="45.19177" lon="5.70656">
        <ele>216.88</ele>
        <time>2018-08-25T05:38:57Z</time>
      </trkpt>
      <trkpt lat="45.19161" lon="5.70638">
        <ele>221.38</ele>
        <time>2018-08-25T05:39:00Z</time>
      </trkpt>
      <trkpt lat="45.19152" lon="5.70613">
        <ele>219.81</ele>
        <time>2018-08-25T05:39:03Z</time>
      </trkpt>
      <trkpt lat="45.19158" lon="5.70584">
        <ele>218.43</ele>
        <time>2018-08-25T05:39:06Z</time>
      </trkpt>
      <trkpt lat="45.19173" lon="5.70553">
        <ele>220.01</ele>
        <time>2018-08-25T05:39:09Z</time>
      </trkpt>
      <trkpt lat="45.19184" lon="5.70526">
        <ele>218.93</ele>
        <time>2018-08-25T05:39:11Z</time>
      </trkpt>
      <trkpt lat="45.19197" lon="5.70502">
        <ele>219.74</ele>
        <time>2018-08-25T05:39:13Z</time>
      </trkpt>
      <trkpt lat="45.1921" lon="5.70477">
        <ele>218.41</ele>
        <time>2018-08-25T05:39:15Z</time>
      </trkpt>
      <trkpt lat="45.19221" lon="5.70451">
        <ele>216.26</ele>
        <time>2018-08-25T05:39:17Z</time>
      </trkpt>
      <trkpt lat="45.19232" lon="5.70421">
        <ele>216.98</ele>
        <time>2018-08-25T05:39:19Z</time>
      </trkpt>
      <trkpt lat="45.19239" lon="5.70389">
        <ele>217.74</ele>
        <time>2018-08-25T05:39:21Z</time>
      </trkpt>
      <trkpt lat="45.19242" lon="5.70358">
        <ele>218.72</ele>
        <time>2018-08-25T05:39:23Z</time>
      </trkpt>
      <trkpt lat="45.19244" lon="5.70327">
        <ele>221.33</ele>
        <time>2018-08-25T05:39:25Z</time>
      </trkpt>
      <trkpt lat="45.19244" lon="5.70297">
        <ele>223.8</ele>
        <time>2018-08-25T05:39:27Z</time>
      </trkpt>
      <trkpt lat="45.19236" lon="5.70264">
        <ele>224.25</ele>
        <time>2018-08-25T05:39:30Z</time>
      </trkpt>
      <trkpt lat="45.19216" lon="5.70248">
        <ele>223.56</ele>
        <time>2018-08-25T05:39:33Z</time>
      </trkpt>
      <trkpt lat="45.19192" lon="5.70247">
        <ele>223.8</ele>
        <time>2018-08-25T05:39:35Z</time>
      </trkpt>
      <trkpt lat="45.19163" lon="5.70248">
        <ele>223.33</ele>
        <time>2018-08-25T05:39:37Z</time>
      </trkpt>
      <trkpt lat="45.19144" lon="5.70249">
        <ele>223.13</ele>
        <time>2018-08-25T05:39:38Z</time>
      </trkpt>
      <trkpt lat="45.19125" lon="5.70252">
        <ele>222.37</ele>
        <time>2018-08-25T05:39:39Z</time>
      </trkpt>
      <trkpt lat="45.19105" lon="5.70254">
        <ele>222.15</ele>
        <time>2018-08-25T05:39:40Z</time>
      </trkpt>
      <trkpt lat="45.19085" lon="5.70256">
        <ele>222.78</ele>
        <time>2018-08-25T05:39:41Z</time>
      </trkpt>
      <trkpt lat="45.19064" lon="5.7026">
        <ele>222.27</ele>
        <time>2018-08-25T05:39:42Z</time>
      </trkpt>
      <trkpt lat="45.19046" lon="5.70259">
        <ele>221.41</ele>
        <time>2018-08-25T05:39:43Z</time>
      </trkpt>
      <trkpt lat="45.19024" lon="5.7026">
        <ele>220.46</ele>
        <time>2018-08-25T05:39:44Z</time>
      </trkpt>
      <trkpt lat="45.19002" lon="5.70259">
        <ele>220.87</ele>
        <time>2018-08-25T05:39:45Z</time>
      </trkpt>
      <trkpt lat="45.18981" lon="5.7026">
        <ele>221.7</ele>
        <time>2018-08-25T05:39:46Z</time>
      </trkpt>
      <trkpt lat="45.18959" lon="5.70258">
        <ele>221.94</ele>
        <time>2018-08-25T05:39:47Z</time>
      </trkpt>
      <trkpt lat="45.18937" lon="5.70258">
        <ele>223.42</ele>
        <time>2018-08-25T05:39:48Z</time>
      </trkpt>
      <trkpt lat="45.18916" lon="5.70257">
        <ele>223.86</ele>
        <time>2018-08-25T05:39:49Z</time>
      </trkpt>
      <trkpt lat="45.18895" lon="5.70256">
        <ele>223.99</ele>
        <time>2018-08-25T05:39:50Z</time>
      </trkpt>
      <trkpt lat="45.18875" lon="5.70255">
        <ele>224.03</ele>
        <time>2018-08-25T05:39:51Z</time>
      </trkpt>
      <trkpt lat="45.18853" lon="5.70256">
        <ele>224.04</ele>
        <time>2018-08-25T05:39:52Z</time>
      </trkpt>
      <trkpt lat="45.18834" lon="5.70255">
        <ele>224.05</ele>
        <time>2018-08-25T05:39:53Z</time>
      </trkpt>
      <trkpt lat="45.18815" lon="5.70255">
        <ele>224.05</ele>
        <time>2018-08-25T05:39:54Z</time>
      </trkpt>
      <trkpt lat="45.18795" lon="5.70254">
        <ele>224.75</ele>
        <time>2018-08-25T05:39:55Z</time>
      </trkpt>
      <trkpt lat="45.18777" lon="5.70252">
        <ele>224.96</ele>
        <time>2018-08-25T05:39:56Z</time>
      </trkpt>
      <trkpt lat="45.18759" lon="5.7025">
        <ele>225.02</ele>
        <time>2018-08-25T05:39:57Z</time>
      </trkpt>
      <trkpt lat="45.18724" lon="5.70249">
        <ele>224.56</ele>
        <time>2018-08-25T05:39:59Z</time>
      </trkpt>
      <trkpt lat="45.18705" lon="5.70247">
        <ele>222.8</ele>
        <time>2018-08-25T05:40:00Z</time>
      </trkpt>
      <trkpt lat="45.18686" lon="5.70245">
        <ele>222.97</ele>
        <time>2018-08-25T05:40:01Z</time>
      </trkpt>
      <trkpt lat="45.18652" lon="5.70245">
        <ele>223.04</ele>
        <time>2018-08-25T05:40:03Z</time>
      </trkpt>
      <trkpt lat="45.18633" lon="5.70245">
        <ele>223.05</ele>
        <time>2018-08-25T05:40:04Z</time>
      </trkpt>
      <trkpt lat="45.18615" lon="5.70244">
        <ele>223.05</ele>
        <time>2018-08-25T05:40:05Z</time>
      </trkpt>
      <trkpt lat="45.18596" lon="5.70244">
        <ele>224.45</ele>
        <time>2018-08-25T05:40:06Z</time>
      </trkpt>
      <trkpt lat="45.18577" lon="5.70243">
        <ele>225.57</ele>
        <time>2018-08-25T05:40:07Z</time>
      </trkpt>
      <trkpt lat="45.18558" lon="5.70244">
        <ele>225.9</ele>
        <time>2018-08-25T05:40:08Z</time>
      </trkpt>
      <trkpt lat="45.18521" lon="5.70243">
        <ele>227.65</ele>
        <time>2018-08-25T05:40:10Z</time>
      </trkpt>
      <trkpt lat="45.18502" lon="5.70241">
        <ele>227.93</ele>
        <time>2018-08-25T05:40:11Z</time>
      </trkpt>
      <trkpt lat="45.18484" lon="5.70241">
        <ele>228.71</ele>
        <time>2018-08-25T05:40:12Z</time>
      </trkpt>
      <trkpt lat="45.18464" lon="5.70242">
        <ele>228.95</ele>
        <time>2018-08-25T05:40:13Z</time>
      </trkpt>
      <trkpt lat="45.18445" lon="5.70242">
        <ele>228.32</ele>
        <time>2018-08-25T05:40:14Z</time>
      </trkpt>
      <trkpt lat="45.18409" lon="5.7024">
        <ele>227.37</ele>
        <time>2018-08-25T05:40:16Z</time>
      </trkpt>
      <trkpt lat="45.18391" lon="5.7024">
        <ele>226.45</ele>
        <time>2018-08-25T05:40:17Z</time>
      </trkpt>
      <trkpt lat="45.18373" lon="5.70239">
        <ele>226.17</ele>
        <time>2018-08-25T05:40:18Z</time>
      </trkpt>
      <trkpt lat="45.18337" lon="5.70238">
        <ele>225.15</ele>
        <time>2018-08-25T05:40:20Z</time>
      </trkpt>
      <trkpt lat="45.18319" lon="5.70236">
        <ele>222.98</ele>
        <time>2018-08-25T05:40:21Z</time>
      </trkpt>
      <trkpt lat="45.183" lon="5.70236">
        <ele>222.33</ele>
        <time>2018-08-25T05:40:22Z</time>
      </trkpt>
      <trkpt lat="45.18265" lon="5.70235">
        <ele>223.47</ele>
        <time>2018-08-25T05:40:24Z</time>
      </trkpt>
      <trkpt lat="45.18247" lon="5.70235">
        <ele>223.88</ele>
        <time>2018-08-25T05:40:25Z</time>
      </trkpt>
      <trkpt lat="45.1821" lon="5.70237">
        <ele>223.12</ele>
        <time>2018-08-25T05:40:27Z</time>
      </trkpt>
      <trkpt lat="45.18192" lon="5.70236">
        <ele>224.47</ele>
        <time>2018-08-25T05:40:28Z</time>
      </trkpt>
      <trkpt lat="45.18156" lon="5.70235">
        <ele>225.7</ele>
        <time>2018-08-25T05:40:30Z</time>
      </trkpt>
      <trkpt lat="45.1812" lon="5.70233">
        <ele>226.23</ele>
        <time>2018-08-25T05:40:32Z</time>
      </trkpt>
      <trkpt lat="45.18102" lon="5.70233">
        <ele>226.8</ele>
        <time>2018-08-25T05:40:33Z</time>
      </trkpt>
      <trkpt lat="45.18084" lon="5.70233">
        <ele>226.28</ele>
        <time>2018-08-25T05:40:34Z</time>
      </trkpt>
      <trkpt lat="45.18065" lon="5.70231">
        <ele>225.42</ele>
        <time>2018-08-25T05:40:35Z</time>
      </trkpt>
      <trkpt lat="45.18046" lon="5.7023">
        <ele>224.46</ele>
        <time>2018-08-25T05:40:36Z</time>
      </trkpt>
      <trkpt lat="45.18027" lon="5.70229">
        <ele>223.47</ele>
        <time>2018-08-25T05:40:37Z</time>
      </trkpt>
      <trkpt lat="45.18008" lon="5.70229">
        <ele>223.18</ele>
        <time>2018-08-25T05:40:38Z</time>
      </trkpt>
      <trkpt lat="45.1799" lon="5.7023">
        <ele>221.69</ele>
        <time>2018-08-25T05:40:39Z</time>
      </trkpt>
      <trkpt lat="45.17971" lon="5.7023">
        <ele>221.24</ele>
        <time>2018-08-25T05:40:40Z</time>
      </trkpt>
      <trkpt lat="45.17936" lon="5.70229">
        <ele>221.77</ele>
        <time>2018-08-25T05:40:42Z</time>
      </trkpt>
      <trkpt lat="45.17917" lon="5.70229">
        <ele>221.96</ele>
        <time>2018-08-25T05:40:43Z</time>
      </trkpt>
      <trkpt lat="45.17881" lon="5.70226">
        <ele>220.43</ele>
        <time>2018-08-25T05:40:45Z</time>
      </trkpt>
      <trkpt lat="45.17846" lon="5.70227">
        <ele>221.9</ele>
        <time>2018-08-25T05:40:47Z</time>
      </trkpt>
      <trkpt lat="45.17828" lon="5.70226">
        <ele>222.71</ele>
        <time>2018-08-25T05:40:48Z</time>
      </trkpt>
      <trkpt lat="45.17794" lon="5.70221">
        <ele>221.62</ele>
        <time>2018-08-25T05:40:50Z</time>
      </trkpt>
      <trkpt lat="45.17776" lon="5.70221">
        <ele>221.92</ele>
        <time>2018-08-25T05:40:51Z</time>
      </trkpt>
      <trkpt lat="45.17742" lon="5.70219">
        <ele>220.92</ele>
        <time>2018-08-25T05:40:53Z</time>
      </trkpt>
      <trkpt lat="45.17707" lon="5.70216">
        <ele>221.74</ele>
        <time>2018-08-25T05:40:55Z</time>
      </trkpt>
      <trkpt lat="45.17688" lon="5.70215">
        <ele>223.36</ele>
        <time>2018-08-25T05:40:56Z</time>
      </trkpt>
      <trkpt lat="45.1767" lon="5.70213">
        <ele>223.84</ele>
        <time>2018-08-25T05:40:57Z</time>
      </trkpt>
      <trkpt lat="45.17651" lon="5.70211">
        <ele>224.69</ele>
        <time>2018-08-25T05:40:58Z</time>
      </trkpt>
      <trkpt lat="45.17615" lon="5.7021">
        <ele>224.81</ele>
        <time>2018-08-25T05:41:00Z</time>
      </trkpt>
      <trkpt lat="45.17595" lon="5.70211">
        <ele>226.38</ele>
        <time>2018-08-25T05:41:01Z</time>
      </trkpt>
      <trkpt lat="45.17577" lon="5.70209">
        <ele>226.85</ele>
        <time>2018-08-25T05:41:02Z</time>
      </trkpt>
      <trkpt lat="45.17559" lon="5.70207">
        <ele>226.99</ele>
        <time>2018-08-25T05:41:03Z</time>
      </trkpt>
      <trkpt lat="45.17524" lon="5.70206">
        <ele>226.13</ele>
        <time>2018-08-25T05:41:05Z</time>
      </trkpt>
      <trkpt lat="45.17505" lon="5.70205">
        <ele>226.07</ele>
        <time>2018-08-25T05:41:06Z</time>
      </trkpt>
      <trkpt lat="45.1747" lon="5.70204">
        <ele>226.26</ele>
        <time>2018-08-25T05:41:08Z</time>
      </trkpt>
      <trkpt lat="45.17451" lon="5.70203">
        <ele>225.41</ele>
        <time>2018-08-25T05:41:09Z</time>
      </trkpt>
      <trkpt lat="45.17416" lon="5.70202">
        <ele>226.9</ele>
        <time>2018-08-25T05:41:11Z</time>
      </trkpt>
      <trkpt lat="45.17397" lon="5.70203">
        <ele>227</ele>
        <time>2018-08-25T05:41:12Z</time>
      </trkpt>
      <trkpt lat="45.17362" lon="5.70202">
        <ele>227.75</ele>
        <time>2018-08-25T05:41:14Z</time>
      </trkpt>
      <trkpt lat="45.17327" lon="5.70198">
        <ele>227.32</ele>
        <time>2018-08-25T05:41:16Z</time>
      </trkpt>
      <trkpt lat="45.17292" lon="5.70196">
        <ele>227.07</ele>
        <time>2018-08-25T05:41:18Z</time>
      </trkpt>
      <trkpt lat="45.17274" lon="5.70195">
        <ele>227.76</ele>
        <time>2018-08-25T05:41:19Z</time>
      </trkpt>
      <trkpt lat="45.17239" lon="5.70194">
        <ele>228.02</ele>
        <time>2018-08-25T05:41:21Z</time>
      </trkpt>
      <trkpt lat="45.17203" lon="5.70193">
        <ele>228.05</ele>
        <time>2018-08-25T05:41:23Z</time>
      </trkpt>
      <trkpt lat="45.17168" lon="5.70192">
        <ele>229.87</ele>
        <time>2018-08-25T05:41:25Z</time>
      </trkpt>
      <trkpt lat="45.17133" lon="5.70191">
        <ele>230.24</ele>
        <time>2018-08-25T05:41:27Z</time>
      </trkpt>
      <trkpt lat="45.17097" lon="5.70189">
        <ele>230.98</ele>
        <time>2018-08-25T05:41:29Z</time>
      </trkpt>
      <trkpt lat="45.17062" lon="5.70186">
        <ele>230.34</ele>
        <time>2018-08-25T05:41:31Z</time>
      </trkpt>
      <trkpt lat="45.17027" lon="5.70184">
        <ele>230.08</ele>
        <time>2018-08-25T05:41:33Z</time>
      </trkpt>
      <trkpt lat="45.16993" lon="5.70182">
        <ele>230.05</ele>
        <time>2018-08-25T05:41:35Z</time>
      </trkpt>
      <trkpt lat="45.16957" lon="5.70181">
        <ele>231.66</ele>
        <time>2018-08-25T05:41:37Z</time>
      </trkpt>
      <trkpt lat="45.16922" lon="5.70179">
        <ele>232.71</ele>
        <time>2018-08-25T05:41:39Z</time>
      </trkpt>
      <trkpt lat="45.16904" lon="5.70178">
        <ele>232.95</ele>
        <time>2018-08-25T05:41:40Z</time>
      </trkpt>
      <trkpt lat="45.16885" lon="5.70177">
        <ele>232.32</ele>
        <time>2018-08-25T05:41:41Z</time>
      </trkpt>
      <trkpt lat="45.16865" lon="5.70177">
        <ele>232.13</ele>
        <time>2018-08-25T05:41:42Z</time>
      </trkpt>
      <trkpt lat="45.16845" lon="5.70176">
        <ele>232.77</ele>
        <time>2018-08-25T05:41:43Z</time>
      </trkpt>
      <trkpt lat="45.16824" lon="5.70175">
        <ele>232.27</ele>
        <time>2018-08-25T05:41:44Z</time>
      </trkpt>
      <trkpt lat="45.16803" lon="5.70174">
        <ele>232.11</ele>
        <time>2018-08-25T05:41:45Z</time>
      </trkpt>
      <trkpt lat="45.16783" lon="5.70173">
        <ele>232.07</ele>
        <time>2018-08-25T05:41:46Z</time>
      </trkpt>
      <trkpt lat="45.1676" lon="5.70173">
        <ele>231.35</ele>
        <time>2018-08-25T05:41:47Z</time>
      </trkpt>
      <trkpt lat="45.16737" lon="5.70173">
        <ele>232.54</ele>
        <time>2018-08-25T05:41:48Z</time>
      </trkpt>
      <trkpt lat="45.16714" lon="5.70174">
        <ele>232.9</ele>
        <time>2018-08-25T05:41:49Z</time>
      </trkpt>
      <trkpt lat="45.1669" lon="5.70172">
        <ele>232.3</ele>
        <time>2018-08-25T05:41:50Z</time>
      </trkpt>
      <trkpt lat="45.16666" lon="5.70172">
        <ele>232.83</ele>
        <time>2018-08-25T05:41:51Z</time>
      </trkpt>
      <trkpt lat="45.16642" lon="5.7017">
        <ele>232.98</ele>
        <time>2018-08-25T05:41:52Z</time>
      </trkpt>
      <trkpt lat="45.1662" lon="5.70168">
        <ele>233.03</ele>
        <time>2018-08-25T05:41:53Z</time>
      </trkpt>
      <trkpt lat="45.16596" lon="5.70167">
        <ele>233.74</ele>
        <time>2018-08-25T05:41:54Z</time>
      </trkpt>
      <trkpt lat="45.16572" lon="5.70168">
        <ele>233.26</ele>
        <time>2018-08-25T05:41:55Z</time>
      </trkpt>
      <trkpt lat="45.16547" lon="5.70166">
        <ele>233.11</ele>
        <time>2018-08-25T05:41:56Z</time>
      </trkpt>
      <trkpt lat="45.16523" lon="5.70165">
        <ele>232.37</ele>
        <time>2018-08-25T05:41:57Z</time>
      </trkpt>
      <trkpt lat="45.16498" lon="5.70166">
        <ele>232.14</ele>
        <time>2018-08-25T05:41:58Z</time>
      </trkpt>
      <trkpt lat="45.16474" lon="5.70165">
        <ele>232.78</ele>
        <time>2018-08-25T05:41:59Z</time>
      </trkpt>
      <trkpt lat="45.16451" lon="5.70163">
        <ele>233.67</ele>
        <time>2018-08-25T05:42:00Z</time>
      </trkpt>
      <trkpt lat="45.16428" lon="5.70161">
        <ele>233.93</ele>
        <time>2018-08-25T05:42:01Z</time>
      </trkpt>
      <trkpt lat="45.16406" lon="5.7016">
        <ele>234.01</ele>
        <time>2018-08-25T05:42:02Z</time>
      </trkpt>
      <trkpt lat="45.16382" lon="5.70158">
        <ele>234.04</ele>
        <time>2018-08-25T05:42:03Z</time>
      </trkpt>
      <trkpt lat="45.16359" lon="5.70157">
        <ele>234.05</ele>
        <time>2018-08-25T05:42:04Z</time>
      </trkpt>
      <trkpt lat="45.16335" lon="5.70156">
        <ele>234.05</ele>
        <time>2018-08-25T05:42:05Z</time>
      </trkpt>
      <trkpt lat="45.16312" lon="5.70154">
        <ele>234.75</ele>
        <time>2018-08-25T05:42:06Z</time>
      </trkpt>
      <trkpt lat="45.16289" lon="5.70154">
        <ele>234.96</ele>
        <time>2018-08-25T05:42:07Z</time>
      </trkpt>
      <trkpt lat="45.16264" lon="5.70154">
        <ele>235.02</ele>
        <time>2018-08-25T05:42:08Z</time>
      </trkpt>
      <trkpt lat="45.16241" lon="5.70152">
        <ele>235.04</ele>
        <time>2018-08-25T05:42:09Z</time>
      </trkpt>
      <trkpt lat="45.16216" lon="5.70151">
        <ele>234.35</ele>
        <time>2018-08-25T05:42:10Z</time>
      </trkpt>
      <trkpt lat="45.16192" lon="5.70152">
        <ele>234.14</ele>
        <time>2018-08-25T05:42:11Z</time>
      </trkpt>
      <trkpt lat="45.16167" lon="5.70152">
        <ele>234.08</ele>
        <time>2018-08-25T05:42:12Z</time>
      </trkpt>
      <trkpt lat="45.16144" lon="5.7015">
        <ele>234.06</ele>
        <time>2018-08-25T05:42:13Z</time>
      </trkpt>
      <trkpt lat="45.16119" lon="5.70149">
        <ele>233.35</ele>
        <time>2018-08-25T05:42:14Z</time>
      </trkpt>
      <trkpt lat="45.16095" lon="5.70148">
        <ele>234.54</ele>
        <time>2018-08-25T05:42:15Z</time>
      </trkpt>
      <trkpt lat="45.16072" lon="5.70146">
        <ele>233.5</ele>
        <time>2018-08-25T05:42:16Z</time>
      </trkpt>
      <trkpt lat="45.16049" lon="5.70145">
        <ele>233.88</ele>
        <time>2018-08-25T05:42:17Z</time>
      </trkpt>
      <trkpt lat="45.16025" lon="5.70142">
        <ele>232.6</ele>
        <time>2018-08-25T05:42:18Z</time>
      </trkpt>
      <trkpt lat="45.16001" lon="5.70141">
        <ele>231.51</ele>
        <time>2018-08-25T05:42:19Z</time>
      </trkpt>
      <trkpt lat="45.15977" lon="5.7014">
        <ele>230.49</ele>
        <time>2018-08-25T05:42:20Z</time>
      </trkpt>
      <trkpt lat="45.15954" lon="5.70138">
        <ele>230.18</ele>
        <time>2018-08-25T05:42:21Z</time>
      </trkpt>
      <trkpt lat="45.1593" lon="5.70134">
        <ele>230.09</ele>
        <time>2018-08-25T05:42:22Z</time>
      </trkpt>
      <trkpt lat="45.15909" lon="5.70127">
        <ele>228.66</ele>
        <time>2018-08-25T05:42:23Z</time>
      </trkpt>
      <trkpt lat="45.15885" lon="5.70119">
        <ele>228.23</ele>
        <time>2018-08-25T05:42:24Z</time>
      </trkpt>
      <trkpt lat="45.15862" lon="5.70112">
        <ele>227.4</ele>
        <time>2018-08-25T05:42:25Z</time>
      </trkpt>
      <trkpt lat="45.1584" lon="5.70103">
        <ele>227.16</ele>
        <time>2018-08-25T05:42:26Z</time>
      </trkpt>
      <trkpt lat="45.15819" lon="5.70086">
        <ele>229.18</ele>
        <time>2018-08-25T05:42:27Z</time>
      </trkpt>
      <trkpt lat="45.15798" lon="5.70074">
        <ele>230.49</ele>
        <time>2018-08-25T05:42:28Z</time>
      </trkpt>
      <trkpt lat="45.15778" lon="5.7006">
        <ele>231.58</ele>
        <time>2018-08-25T05:42:29Z</time>
      </trkpt>
      <trkpt lat="45.15756" lon="5.70045">
        <ele>232.61</ele>
        <time>2018-08-25T05:42:30Z</time>
      </trkpt>
      <trkpt lat="45.15737" lon="5.70031">
        <ele>233.62</ele>
        <time>2018-08-25T05:42:31Z</time>
      </trkpt>
      <trkpt lat="45.15717" lon="5.70015">
        <ele>234.62</ele>
        <time>2018-08-25T05:42:32Z</time>
      </trkpt>
      <trkpt lat="45.15696" lon="5.69999">
        <ele>235.62</ele>
        <time>2018-08-25T05:42:33Z</time>
      </trkpt>
      <trkpt lat="45.15676" lon="5.69984">
        <ele>235.92</ele>
        <time>2018-08-25T05:42:34Z</time>
      </trkpt>
      <trkpt lat="45.15657" lon="5.69969">
        <ele>236.01</ele>
        <time>2018-08-25T05:42:35Z</time>
      </trkpt>
      <trkpt lat="45.15637" lon="5.69955">
        <ele>236.04</ele>
        <time>2018-08-25T05:42:36Z</time>
      </trkpt>
      <trkpt lat="45.15618" lon="5.6994">
        <ele>235.35</ele>
        <time>2018-08-25T05:42:37Z</time>
      </trkpt>
      <trkpt lat="45.15599" lon="5.69927">
        <ele>235.14</ele>
        <time>2018-08-25T05:42:38Z</time>
      </trkpt>
      <trkpt lat="45.15576" lon="5.69917">
        <ele>235.08</ele>
        <time>2018-08-25T05:42:39Z</time>
      </trkpt>
      <trkpt lat="45.15554" lon="5.69907">
        <ele>235.06</ele>
        <time>2018-08-25T05:42:40Z</time>
      </trkpt>
      <trkpt lat="45.15533" lon="5.69896">
        <ele>234.35</ele>
        <time>2018-08-25T05:42:41Z</time>
      </trkpt>
      <trkpt lat="45.15512" lon="5.69886">
        <ele>234.14</ele>
        <time>2018-08-25T05:42:42Z</time>
      </trkpt>
      <trkpt lat="45.15491" lon="5.69875">
        <ele>234.08</ele>
        <time>2018-08-25T05:42:43Z</time>
      </trkpt>
      <trkpt lat="45.15471" lon="5.69865">
        <ele>234.06</ele>
        <time>2018-08-25T05:42:44Z</time>
      </trkpt>
      <trkpt lat="45.15447" lon="5.69856">
        <ele>234.05</ele>
        <time>2018-08-25T05:42:45Z</time>
      </trkpt>
      <trkpt lat="45.15425" lon="5.69847">
        <ele>234.05</ele>
        <time>2018-08-25T05:42:46Z</time>
      </trkpt>
      <trkpt lat="45.15402" lon="5.69836">
        <ele>234.75</ele>
        <time>2018-08-25T05:42:47Z</time>
      </trkpt>
      <trkpt lat="45.15379" lon="5.69826">
        <ele>234.96</ele>
        <time>2018-08-25T05:42:48Z</time>
      </trkpt>
      <trkpt lat="45.15357" lon="5.69815">
        <ele>235.02</ele>
        <time>2018-08-25T05:42:49Z</time>
      </trkpt>
      <trkpt lat="45.15336" lon="5.69805">
        <ele>235.04</ele>
        <time>2018-08-25T05:42:50Z</time>
      </trkpt>
      <trkpt lat="45.15314" lon="5.69795">
        <ele>234.35</ele>
        <time>2018-08-25T05:42:51Z</time>
      </trkpt>
      <trkpt lat="45.15292" lon="5.69786">
        <ele>234.14</ele>
        <time>2018-08-25T05:42:52Z</time>
      </trkpt>
      <trkpt lat="45.15269" lon="5.69775">
        <ele>234.08</ele>
        <time>2018-08-25T05:42:53Z</time>
      </trkpt>
      <trkpt lat="45.15247" lon="5.69764">
        <ele>234.76</ele>
        <time>2018-08-25T05:42:54Z</time>
      </trkpt>
      <trkpt lat="45.15226" lon="5.69752">
        <ele>234.96</ele>
        <time>2018-08-25T05:42:55Z</time>
      </trkpt>
      <trkpt lat="45.15203" lon="5.69742">
        <ele>235.02</ele>
        <time>2018-08-25T05:42:56Z</time>
      </trkpt>
      <trkpt lat="45.1518" lon="5.69731">
        <ele>235.04</ele>
        <time>2018-08-25T05:42:57Z</time>
      </trkpt>
      <trkpt lat="45.15156" lon="5.6972">
        <ele>235.05</ele>
        <time>2018-08-25T05:42:58Z</time>
      </trkpt>
      <trkpt lat="45.15134" lon="5.69708">
        <ele>235.05</ele>
        <time>2018-08-25T05:42:59Z</time>
      </trkpt>
      <trkpt lat="45.15109" lon="5.69698">
        <ele>235.05</ele>
        <time>2018-08-25T05:43:00Z</time>
      </trkpt>
      <trkpt lat="45.15085" lon="5.69687">
        <ele>235.05</ele>
        <time>2018-08-25T05:43:01Z</time>
      </trkpt>
      <trkpt lat="45.15061" lon="5.69676">
        <ele>235.05</ele>
        <time>2018-08-25T05:43:02Z</time>
      </trkpt>
      <trkpt lat="45.15037" lon="5.69665">
        <ele>236.45</ele>
        <time>2018-08-25T05:43:03Z</time>
      </trkpt>
      <trkpt lat="45.15012" lon="5.69654">
        <ele>237.57</ele>
        <time>2018-08-25T05:43:04Z</time>
      </trkpt>
      <trkpt lat="45.14987" lon="5.69643">
        <ele>238.6</ele>
        <time>2018-08-25T05:43:05Z</time>
      </trkpt>
      <trkpt lat="45.1496" lon="5.69631">
        <ele>239.62</ele>
        <time>2018-08-25T05:43:06Z</time>
      </trkpt>
      <trkpt lat="45.14934" lon="5.6962">
        <ele>239.92</ele>
        <time>2018-08-25T05:43:07Z</time>
      </trkpt>
      <trkpt lat="45.14907" lon="5.69608">
        <ele>240.01</ele>
        <time>2018-08-25T05:43:08Z</time>
      </trkpt>
      <trkpt lat="45.1488" lon="5.69596">
        <ele>240.04</ele>
        <time>2018-08-25T05:43:09Z</time>
      </trkpt>
      <trkpt lat="45.14854" lon="5.69582">
        <ele>239.35</ele>
        <time>2018-08-25T05:43:10Z</time>
      </trkpt>
      <trkpt lat="45.14828" lon="5.69568">
        <ele>239.14</ele>
        <time>2018-08-25T05:43:11Z</time>
      </trkpt>
      <trkpt lat="45.14802" lon="5.69554">
        <ele>238.38</ele>
        <time>2018-08-25T05:43:12Z</time>
      </trkpt>
      <trkpt lat="45.14777" lon="5.69542">
        <ele>238.85</ele>
        <time>2018-08-25T05:43:13Z</time>
      </trkpt>
      <trkpt lat="45.1475" lon="5.6953">
        <ele>238.99</ele>
        <time>2018-08-25T05:43:14Z</time>
      </trkpt>
      <trkpt lat="45.14724" lon="5.69519">
        <ele>238.33</ele>
        <time>2018-08-25T05:43:15Z</time>
      </trkpt>
      <trkpt lat="45.14699" lon="5.69507">
        <ele>238.13</ele>
        <time>2018-08-25T05:43:16Z</time>
      </trkpt>
      <trkpt lat="45.14674" lon="5.69494">
        <ele>238.77</ele>
        <time>2018-08-25T05:43:17Z</time>
      </trkpt>
      <trkpt lat="45.14649" lon="5.69481">
        <ele>239.67</ele>
        <time>2018-08-25T05:43:18Z</time>
      </trkpt>
      <trkpt lat="45.14623" lon="5.69469">
        <ele>239.23</ele>
        <time>2018-08-25T05:43:19Z</time>
      </trkpt>
      <trkpt lat="45.14597" lon="5.69456">
        <ele>239.8</ele>
        <time>2018-08-25T05:43:20Z</time>
      </trkpt>
      <trkpt lat="45.14571" lon="5.69444">
        <ele>240.68</ele>
        <time>2018-08-25T05:43:21Z</time>
      </trkpt>
      <trkpt lat="45.14546" lon="5.6943">
        <ele>240.94</ele>
        <time>2018-08-25T05:43:22Z</time>
      </trkpt>
      <trkpt lat="45.14519" lon="5.69416">
        <ele>239.62</ele>
        <time>2018-08-25T05:43:23Z</time>
      </trkpt>
      <trkpt lat="45.14492" lon="5.69404">
        <ele>239.22</ele>
        <time>2018-08-25T05:43:24Z</time>
      </trkpt>
      <trkpt lat="45.14465" lon="5.69392">
        <ele>239.1</ele>
        <time>2018-08-25T05:43:25Z</time>
      </trkpt>
      <trkpt lat="45.14437" lon="5.69379">
        <ele>239.76</ele>
        <time>2018-08-25T05:43:26Z</time>
      </trkpt>
      <trkpt lat="45.14411" lon="5.69366">
        <ele>240.66</ele>
        <time>2018-08-25T05:43:27Z</time>
      </trkpt>
      <trkpt lat="45.14383" lon="5.69354">
        <ele>241.63</ele>
        <time>2018-08-25T05:43:28Z</time>
      </trkpt>
      <trkpt lat="45.14356" lon="5.69341">
        <ele>241.92</ele>
        <time>2018-08-25T05:43:29Z</time>
      </trkpt>
      <trkpt lat="45.14329" lon="5.69326">
        <ele>241.31</ele>
        <time>2018-08-25T05:43:30Z</time>
      </trkpt>
      <trkpt lat="45.14302" lon="5.69315">
        <ele>241.13</ele>
        <time>2018-08-25T05:43:31Z</time>
      </trkpt>
      <trkpt lat="45.14276" lon="5.69302">
        <ele>241.07</ele>
        <time>2018-08-25T05:43:32Z</time>
      </trkpt>
      <trkpt lat="45.14249" lon="5.69289">
        <ele>242.46</ele>
        <time>2018-08-25T05:43:33Z</time>
      </trkpt>
      <trkpt lat="45.14222" lon="5.69277">
        <ele>242.87</ele>
        <time>2018-08-25T05:43:34Z</time>
      </trkpt>
      <trkpt lat="45.14195" lon="5.69264">
        <ele>243.7</ele>
        <time>2018-08-25T05:43:35Z</time>
      </trkpt>
      <trkpt lat="45.14168" lon="5.69252">
        <ele>243.94</ele>
        <time>2018-08-25T05:43:36Z</time>
      </trkpt>
      <trkpt lat="45.14141" lon="5.6924">
        <ele>244.02</ele>
        <time>2018-08-25T05:43:37Z</time>
      </trkpt>
      <trkpt lat="45.14115" lon="5.69228">
        <ele>244.04</ele>
        <time>2018-08-25T05:43:38Z</time>
      </trkpt>
      <trkpt lat="45.14088" lon="5.69216">
        <ele>243.35</ele>
        <time>2018-08-25T05:43:39Z</time>
      </trkpt>
      <trkpt lat="45.14062" lon="5.69201">
        <ele>243.14</ele>
        <time>2018-08-25T05:43:40Z</time>
      </trkpt>
      <trkpt lat="45.14035" lon="5.69188">
        <ele>243.78</ele>
        <time>2018-08-25T05:43:41Z</time>
      </trkpt>
      <trkpt lat="45.14008" lon="5.69176">
        <ele>243.97</ele>
        <time>2018-08-25T05:43:42Z</time>
      </trkpt>
      <trkpt lat="45.13982" lon="5.69164">
        <ele>244.02</ele>
        <time>2018-08-25T05:43:43Z</time>
      </trkpt>
      <trkpt lat="45.13956" lon="5.69153">
        <ele>244.04</ele>
        <time>2018-08-25T05:43:44Z</time>
      </trkpt>
      <trkpt lat="45.1393" lon="5.6914">
        <ele>243.35</ele>
        <time>2018-08-25T05:43:45Z</time>
      </trkpt>
      <trkpt lat="45.13903" lon="5.69128">
        <ele>242.44</ele>
        <time>2018-08-25T05:43:46Z</time>
      </trkpt>
      <trkpt lat="45.13875" lon="5.69117">
        <ele>242.87</ele>
        <time>2018-08-25T05:43:47Z</time>
      </trkpt>
      <trkpt lat="45.13847" lon="5.69106">
        <ele>243.69</ele>
        <time>2018-08-25T05:43:48Z</time>
      </trkpt>
      <trkpt lat="45.13821" lon="5.69095">
        <ele>244.64</ele>
        <time>2018-08-25T05:43:49Z</time>
      </trkpt>
      <trkpt lat="45.13794" lon="5.69084">
        <ele>244.93</ele>
        <time>2018-08-25T05:43:50Z</time>
      </trkpt>
      <trkpt lat="45.13766" lon="5.69074">
        <ele>244.31</ele>
        <time>2018-08-25T05:43:51Z</time>
      </trkpt>
      <trkpt lat="45.13739" lon="5.69065">
        <ele>244.13</ele>
        <time>2018-08-25T05:43:52Z</time>
      </trkpt>
      <trkpt lat="45.13711" lon="5.69057">
        <ele>244.07</ele>
        <time>2018-08-25T05:43:53Z</time>
      </trkpt>
      <trkpt lat="45.13683" lon="5.69051">
        <ele>244.06</ele>
        <time>2018-08-25T05:43:54Z</time>
      </trkpt>
      <trkpt lat="45.13655" lon="5.69045">
        <ele>244.05</ele>
        <time>2018-08-25T05:43:55Z</time>
      </trkpt>
      <trkpt lat="45.13627" lon="5.6904">
        <ele>243.35</ele>
        <time>2018-08-25T05:43:56Z</time>
      </trkpt>
      <trkpt lat="45.13599" lon="5.69035">
        <ele>243.14</ele>
        <time>2018-08-25T05:43:57Z</time>
      </trkpt>
      <trkpt lat="45.13572" lon="5.6903">
        <ele>242.38</ele>
        <time>2018-08-25T05:43:58Z</time>
      </trkpt>
      <trkpt lat="45.13543" lon="5.69026">
        <ele>242.85</ele>
        <time>2018-08-25T05:43:59Z</time>
      </trkpt>
      <trkpt lat="45.13515" lon="5.69021">
        <ele>242.99</ele>
        <time>2018-08-25T05:44:00Z</time>
      </trkpt>
      <trkpt lat="45.13485" lon="5.69016">
        <ele>243.03</ele>
        <time>2018-08-25T05:44:01Z</time>
      </trkpt>
      <trkpt lat="45.13456" lon="5.69011">
        <ele>243.04</ele>
        <time>2018-08-25T05:44:02Z</time>
      </trkpt>
      <trkpt lat="45.13429" lon="5.69007">
        <ele>243.05</ele>
        <time>2018-08-25T05:44:03Z</time>
      </trkpt>
      <trkpt lat="45.13401" lon="5.69003">
        <ele>243.05</ele>
        <time>2018-08-25T05:44:04Z</time>
      </trkpt>
      <trkpt lat="45.13373" lon="5.68999">
        <ele>243.05</ele>
        <time>2018-08-25T05:44:05Z</time>
      </trkpt>
      <trkpt lat="45.13345" lon="5.68997">
        <ele>243.75</ele>
        <time>2018-08-25T05:44:06Z</time>
      </trkpt>
      <trkpt lat="45.13318" lon="5.68996">
        <ele>243.96</ele>
        <time>2018-08-25T05:44:07Z</time>
      </trkpt>
      <trkpt lat="45.1329" lon="5.68996">
        <ele>244.02</ele>
        <time>2018-08-25T05:44:08Z</time>
      </trkpt>
      <trkpt lat="45.13262" lon="5.68998">
        <ele>244.74</ele>
        <time>2018-08-25T05:44:09Z</time>
      </trkpt>
      <trkpt lat="45.13233" lon="5.68999">
        <ele>244.96</ele>
        <time>2018-08-25T05:44:10Z</time>
      </trkpt>
      <trkpt lat="45.13204" lon="5.69002">
        <ele>245.02</ele>
        <time>2018-08-25T05:44:11Z</time>
      </trkpt>
      <trkpt lat="45.13176" lon="5.69005">
        <ele>245.04</ele>
        <time>2018-08-25T05:44:12Z</time>
      </trkpt>
      <trkpt lat="45.13149" lon="5.69009">
        <ele>244.35</ele>
        <time>2018-08-25T05:44:13Z</time>
      </trkpt>
      <trkpt lat="45.13123" lon="5.69015">
        <ele>244.14</ele>
        <time>2018-08-25T05:44:14Z</time>
      </trkpt>
      <trkpt lat="45.13095" lon="5.69021">
        <ele>243.38</ele>
        <time>2018-08-25T05:44:15Z</time>
      </trkpt>
      <trkpt lat="45.13069" lon="5.69029">
        <ele>243.85</ele>
        <time>2018-08-25T05:44:16Z</time>
      </trkpt>
      <trkpt lat="45.13046" lon="5.69038">
        <ele>246.09</ele>
        <time>2018-08-25T05:44:17Z</time>
      </trkpt>
      <trkpt lat="45.13023" lon="5.69046">
        <ele>246.06</ele>
        <time>2018-08-25T05:44:18Z</time>
      </trkpt>
      <trkpt lat="45.12999" lon="5.69052">
        <ele>246.05</ele>
        <time>2018-08-25T05:44:19Z</time>
      </trkpt>
      <trkpt lat="45.12977" lon="5.69058">
        <ele>246.75</ele>
        <time>2018-08-25T05:44:20Z</time>
      </trkpt>
      <trkpt lat="45.12954" lon="5.69061">
        <ele>246.26</ele>
        <time>2018-08-25T05:44:21Z</time>
      </trkpt>
      <trkpt lat="45.12932" lon="5.69065">
        <ele>245.41</ele>
        <time>2018-08-25T05:44:22Z</time>
      </trkpt>
      <trkpt lat="45.1291" lon="5.69067">
        <ele>245.16</ele>
        <time>2018-08-25T05:44:23Z</time>
      </trkpt>
      <trkpt lat="45.12888" lon="5.69065">
        <ele>244.38</ele>
        <time>2018-08-25T05:44:24Z</time>
      </trkpt>
      <trkpt lat="45.12866" lon="5.69063">
        <ele>243.45</ele>
        <time>2018-08-25T05:44:25Z</time>
      </trkpt>
      <trkpt lat="45.12845" lon="5.69059">
        <ele>242.47</ele>
        <time>2018-08-25T05:44:26Z</time>
      </trkpt>
      <trkpt lat="45.12825" lon="5.69051">
        <ele>240.77</ele>
        <time>2018-08-25T05:44:27Z</time>
      </trkpt>
      <trkpt lat="45.12805" lon="5.69046">
        <ele>239.57</ele>
        <time>2018-08-25T05:44:28Z</time>
      </trkpt>
      <trkpt lat="45.12786" lon="5.69042">
        <ele>240.6</ele>
        <time>2018-08-25T05:44:29Z</time>
      </trkpt>
      <trkpt lat="45.12765" lon="5.69037">
        <ele>240.22</ele>
        <time>2018-08-25T05:44:30Z</time>
      </trkpt>
      <trkpt lat="45.12744" lon="5.69034">
        <ele>239.4</ele>
        <time>2018-08-25T05:44:31Z</time>
      </trkpt>
      <trkpt lat="45.12724" lon="5.69034">
        <ele>239.15</ele>
        <time>2018-08-25T05:44:32Z</time>
      </trkpt>
      <trkpt lat="45.12703" lon="5.69038">
        <ele>239.08</ele>
        <time>2018-08-25T05:44:33Z</time>
      </trkpt>
      <trkpt lat="45.12683" lon="5.69043">
        <ele>239.06</ele>
        <time>2018-08-25T05:44:34Z</time>
      </trkpt>
      <trkpt lat="45.12665" lon="5.69052">
        <ele>238.35</ele>
        <time>2018-08-25T05:44:35Z</time>
      </trkpt>
      <trkpt lat="45.12645" lon="5.6906">
        <ele>238.14</ele>
        <time>2018-08-25T05:44:36Z</time>
      </trkpt>
      <trkpt lat="45.12626" lon="5.69067">
        <ele>238.08</ele>
        <time>2018-08-25T05:44:37Z</time>
      </trkpt>
      <trkpt lat="45.1261" lon="5.69086">
        <ele>238.76</ele>
        <time>2018-08-25T05:44:38Z</time>
      </trkpt>
      <trkpt lat="45.12583" lon="5.69122">
        <ele>241.33</ele>
        <time>2018-08-25T05:44:40Z</time>
      </trkpt>
      <trkpt lat="45.12568" lon="5.69139">
        <ele>241.13</ele>
        <time>2018-08-25T05:44:41Z</time>
      </trkpt>
      <trkpt lat="45.12553" lon="5.69157">
        <ele>241.07</ele>
        <time>2018-08-25T05:44:42Z</time>
      </trkpt>
      <trkpt lat="45.12539" lon="5.69175">
        <ele>240.36</ele>
        <time>2018-08-25T05:44:43Z</time>
      </trkpt>
      <trkpt lat="45.12525" lon="5.69191">
        <ele>238.74</ele>
        <time>2018-08-25T05:44:44Z</time>
      </trkpt>
      <trkpt lat="45.12512" lon="5.6921">
        <ele>238.96</ele>
        <time>2018-08-25T05:44:45Z</time>
      </trkpt>
      <trkpt lat="45.12499" lon="5.69229">
        <ele>239.02</ele>
        <time>2018-08-25T05:44:46Z</time>
      </trkpt>
      <trkpt lat="45.12486" lon="5.69247">
        <ele>240.44</ele>
        <time>2018-08-25T05:44:47Z</time>
      </trkpt>
      <trkpt lat="45.12471" lon="5.69264">
        <ele>241.57</ele>
        <time>2018-08-25T05:44:48Z</time>
      </trkpt>
      <trkpt lat="45.12456" lon="5.69283">
        <ele>242.6</ele>
        <time>2018-08-25T05:44:49Z</time>
      </trkpt>
      <trkpt lat="45.12442" lon="5.69301">
        <ele>243.62</ele>
        <time>2018-08-25T05:44:50Z</time>
      </trkpt>
      <trkpt lat="45.12427" lon="5.69319">
        <ele>243.92</ele>
        <time>2018-08-25T05:44:51Z</time>
      </trkpt>
      <trkpt lat="45.12413" lon="5.69337">
        <ele>244.71</ele>
        <time>2018-08-25T05:44:52Z</time>
      </trkpt>
      <trkpt lat="45.12399" lon="5.69355">
        <ele>244.95</ele>
        <time>2018-08-25T05:44:53Z</time>
      </trkpt>
      <trkpt lat="45.12385" lon="5.69372">
        <ele>245.72</ele>
        <time>2018-08-25T05:44:54Z</time>
      </trkpt>
      <trkpt lat="45.12371" lon="5.6939">
        <ele>245.25</ele>
        <time>2018-08-25T05:44:55Z</time>
      </trkpt>
      <trkpt lat="45.12356" lon="5.69408">
        <ele>245.81</ele>
        <time>2018-08-25T05:44:56Z</time>
      </trkpt>
      <trkpt lat="45.12329" lon="5.69442">
        <ele>246.94</ele>
        <time>2018-08-25T05:44:58Z</time>
      </trkpt>
      <trkpt lat="45.12315" lon="5.6946">
        <ele>247.72</ele>
        <time>2018-08-25T05:44:59Z</time>
      </trkpt>
      <trkpt lat="45.12298" lon="5.69477">
        <ele>247.95</ele>
        <time>2018-08-25T05:45:00Z</time>
      </trkpt>
      <trkpt lat="45.12284" lon="5.69494">
        <ele>248.02</ele>
        <time>2018-08-25T05:45:01Z</time>
      </trkpt>
      <trkpt lat="45.1227" lon="5.69513">
        <ele>247.34</ele>
        <time>2018-08-25T05:45:02Z</time>
      </trkpt>
      <trkpt lat="45.12254" lon="5.6953">
        <ele>247.84</ele>
        <time>2018-08-25T05:45:03Z</time>
      </trkpt>
      <trkpt lat="45.12239" lon="5.69548">
        <ele>248.69</ele>
        <time>2018-08-25T05:45:04Z</time>
      </trkpt>
      <trkpt lat="45.12212" lon="5.69582">
        <ele>248.11</ele>
        <time>2018-08-25T05:45:06Z</time>
      </trkpt>
      <trkpt lat="45.12198" lon="5.69599">
        <ele>246.67</ele>
        <time>2018-08-25T05:45:07Z</time>
      </trkpt>
      <trkpt lat="45.12183" lon="5.69616">
        <ele>246.23</ele>
        <time>2018-08-25T05:45:08Z</time>
      </trkpt>
      <trkpt lat="45.12169" lon="5.69633">
        <ele>246.8</ele>
        <time>2018-08-25T05:45:09Z</time>
      </trkpt>
      <trkpt lat="45.12154" lon="5.69649">
        <ele>246.98</ele>
        <time>2018-08-25T05:45:10Z</time>
      </trkpt>
      <trkpt lat="45.12139" lon="5.69664">
        <ele>247.03</ele>
        <time>2018-08-25T05:45:11Z</time>
      </trkpt>
      <trkpt lat="45.12124" lon="5.69678">
        <ele>247.04</ele>
        <time>2018-08-25T05:45:12Z</time>
      </trkpt>
      <trkpt lat="45.12107" lon="5.69693">
        <ele>246.35</ele>
        <time>2018-08-25T05:45:13Z</time>
      </trkpt>
      <trkpt lat="45.12006" lon="5.69746">
        <ele>246.84</ele>
        <time>2018-08-25T05:45:19Z</time>
      </trkpt>
      <trkpt lat="45.11988" lon="5.69752">
        <ele>247.69</ele>
        <time>2018-08-25T05:45:20Z</time>
      </trkpt>
      <trkpt lat="45.1197" lon="5.69759">
        <ele>248.64</ele>
        <time>2018-08-25T05:45:21Z</time>
      </trkpt>
      <trkpt lat="45.11951" lon="5.69763">
        <ele>248.93</ele>
        <time>2018-08-25T05:45:22Z</time>
      </trkpt>
      <trkpt lat="45.11933" lon="5.69769">
        <ele>249.01</ele>
        <time>2018-08-25T05:45:23Z</time>
      </trkpt>
      <trkpt lat="45.11915" lon="5.69775">
        <ele>250.44</ele>
        <time>2018-08-25T05:45:24Z</time>
      </trkpt>
      <trkpt lat="45.11895" lon="5.6978">
        <ele>250.87</ele>
        <time>2018-08-25T05:45:25Z</time>
      </trkpt>
      <trkpt lat="45.11876" lon="5.69787">
        <ele>250.29</ele>
        <time>2018-08-25T05:45:26Z</time>
      </trkpt>
      <trkpt lat="45.11857" lon="5.69793">
        <ele>250.82</ele>
        <time>2018-08-25T05:45:27Z</time>
      </trkpt>
      <trkpt lat="45.11837" lon="5.69798">
        <ele>250.98</ele>
        <time>2018-08-25T05:45:28Z</time>
      </trkpt>
      <trkpt lat="45.11816" lon="5.69803">
        <ele>251.03</ele>
        <time>2018-08-25T05:45:29Z</time>
      </trkpt>
      <trkpt lat="45.11796" lon="5.69809">
        <ele>251.04</ele>
        <time>2018-08-25T05:45:30Z</time>
      </trkpt>
      <trkpt lat="45.11776" lon="5.69815">
        <ele>249.65</ele>
        <time>2018-08-25T05:45:31Z</time>
      </trkpt>
      <trkpt lat="45.11757" lon="5.69822">
        <ele>250.63</ele>
        <time>2018-08-25T05:45:32Z</time>
      </trkpt>
      <trkpt lat="45.11738" lon="5.69829">
        <ele>250.92</ele>
        <time>2018-08-25T05:45:33Z</time>
      </trkpt>
      <trkpt lat="45.11719" lon="5.69835">
        <ele>251.01</ele>
        <time>2018-08-25T05:45:34Z</time>
      </trkpt>
      <trkpt lat="45.11701" lon="5.69841">
        <ele>251.04</ele>
        <time>2018-08-25T05:45:35Z</time>
      </trkpt>
      <trkpt lat="45.11682" lon="5.69847">
        <ele>251.75</ele>
        <time>2018-08-25T05:45:36Z</time>
      </trkpt>
      <trkpt lat="45.11663" lon="5.69853">
        <ele>251.96</ele>
        <time>2018-08-25T05:45:37Z</time>
      </trkpt>
      <trkpt lat="45.11644" lon="5.6986">
        <ele>252.02</ele>
        <time>2018-08-25T05:45:38Z</time>
      </trkpt>
      <trkpt lat="45.11626" lon="5.69865">
        <ele>252.04</ele>
        <time>2018-08-25T05:45:39Z</time>
      </trkpt>
      <trkpt lat="45.11608" lon="5.69871">
        <ele>252.75</ele>
        <time>2018-08-25T05:45:40Z</time>
      </trkpt>
      <trkpt lat="45.11589" lon="5.69876">
        <ele>252.96</ele>
        <time>2018-08-25T05:45:41Z</time>
      </trkpt>
      <trkpt lat="45.11569" lon="5.69881">
        <ele>253.02</ele>
        <time>2018-08-25T05:45:42Z</time>
      </trkpt>
      <trkpt lat="45.11549" lon="5.69885">
        <ele>252.34</ele>
        <time>2018-08-25T05:45:43Z</time>
      </trkpt>
      <trkpt lat="45.1153" lon="5.69889">
        <ele>252.14</ele>
        <time>2018-08-25T05:45:44Z</time>
      </trkpt>
      <trkpt lat="45.1151" lon="5.69893">
        <ele>252.08</ele>
        <time>2018-08-25T05:45:45Z</time>
      </trkpt>
      <trkpt lat="45.11492" lon="5.69896">
        <ele>251.36</ele>
        <time>2018-08-25T05:45:46Z</time>
      </trkpt>
      <trkpt lat="45.11454" lon="5.69903">
        <ele>247.65</ele>
        <time>2018-08-25T05:45:48Z</time>
      </trkpt>
      <trkpt lat="45.11434" lon="5.69904">
        <ele>248.63</ele>
        <time>2018-08-25T05:45:49Z</time>
      </trkpt>
      <trkpt lat="45.11414" lon="5.69905">
        <ele>248.92</ele>
        <time>2018-08-25T05:45:50Z</time>
      </trkpt>
      <trkpt lat="45.11394" lon="5.69907">
        <ele>249.01</ele>
        <time>2018-08-25T05:45:51Z</time>
      </trkpt>
      <trkpt lat="45.11375" lon="5.69907">
        <ele>248.34</ele>
        <time>2018-08-25T05:45:52Z</time>
      </trkpt>
      <trkpt lat="45.11355" lon="5.69908">
        <ele>247.44</ele>
        <time>2018-08-25T05:45:53Z</time>
      </trkpt>
      <trkpt lat="45.11335" lon="5.69907">
        <ele>248.56</ele>
        <time>2018-08-25T05:45:54Z</time>
      </trkpt>
      <trkpt lat="45.11315" lon="5.69908">
        <ele>248.9</ele>
        <time>2018-08-25T05:45:55Z</time>
      </trkpt>
      <trkpt lat="45.11295" lon="5.69908">
        <ele>249.01</ele>
        <time>2018-08-25T05:45:56Z</time>
      </trkpt>
      <trkpt lat="45.11276" lon="5.69909">
        <ele>248.34</ele>
        <time>2018-08-25T05:45:57Z</time>
      </trkpt>
      <trkpt lat="45.11256" lon="5.6991">
        <ele>248.14</ele>
        <time>2018-08-25T05:45:58Z</time>
      </trkpt>
      <trkpt lat="45.11236" lon="5.69912">
        <ele>248.07</ele>
        <time>2018-08-25T05:45:59Z</time>
      </trkpt>
      <trkpt lat="45.11216" lon="5.69912">
        <ele>248.76</ele>
        <time>2018-08-25T05:46:00Z</time>
      </trkpt>
      <trkpt lat="45.11197" lon="5.69913">
        <ele>248.26</ele>
        <time>2018-08-25T05:46:01Z</time>
      </trkpt>
      <trkpt lat="45.11177" lon="5.69912">
        <ele>247.41</ele>
        <time>2018-08-25T05:46:02Z</time>
      </trkpt>
      <trkpt lat="45.11158" lon="5.69912">
        <ele>247.16</ele>
        <time>2018-08-25T05:46:03Z</time>
      </trkpt>
      <trkpt lat="45.11139" lon="5.69911">
        <ele>246.38</ele>
        <time>2018-08-25T05:46:04Z</time>
      </trkpt>
      <trkpt lat="45.11119" lon="5.69913">
        <ele>246.85</ele>
        <time>2018-08-25T05:46:05Z</time>
      </trkpt>
      <trkpt lat="45.11099" lon="5.69913">
        <ele>246.29</ele>
        <time>2018-08-25T05:46:06Z</time>
      </trkpt>
      <trkpt lat="45.11079" lon="5.69914">
        <ele>246.12</ele>
        <time>2018-08-25T05:46:07Z</time>
      </trkpt>
      <trkpt lat="45.11059" lon="5.69914">
        <ele>246.77</ele>
        <time>2018-08-25T05:46:08Z</time>
      </trkpt>
      <trkpt lat="45.11039" lon="5.69915">
        <ele>246.97</ele>
        <time>2018-08-25T05:46:09Z</time>
      </trkpt>
      <trkpt lat="45.1102" lon="5.69917">
        <ele>247.72</ele>
        <time>2018-08-25T05:46:10Z</time>
      </trkpt>
      <trkpt lat="45.11" lon="5.69921">
        <ele>248.65</ele>
        <time>2018-08-25T05:46:11Z</time>
      </trkpt>
      <trkpt lat="45.10981" lon="5.69926">
        <ele>248.93</ele>
        <time>2018-08-25T05:46:12Z</time>
      </trkpt>
      <trkpt lat="45.10962" lon="5.69933">
        <ele>249.01</ele>
        <time>2018-08-25T05:46:13Z</time>
      </trkpt>
      <trkpt lat="45.10943" lon="5.69941">
        <ele>249.04</ele>
        <time>2018-08-25T05:46:14Z</time>
      </trkpt>
      <trkpt lat="45.10924" lon="5.6995">
        <ele>249.75</ele>
        <time>2018-08-25T05:46:15Z</time>
      </trkpt>
      <trkpt lat="45.10906" lon="5.69961">
        <ele>249.96</ele>
        <time>2018-08-25T05:46:16Z</time>
      </trkpt>
      <trkpt lat="45.10888" lon="5.69972">
        <ele>250.72</ele>
        <time>2018-08-25T05:46:17Z</time>
      </trkpt>
      <trkpt lat="45.10872" lon="5.69984">
        <ele>249.55</ele>
        <time>2018-08-25T05:46:18Z</time>
      </trkpt>
      <trkpt lat="45.10854" lon="5.69996">
        <ele>249.2</ele>
        <time>2018-08-25T05:46:19Z</time>
      </trkpt>
      <trkpt lat="45.10837" lon="5.7001">
        <ele>248.39</ele>
        <time>2018-08-25T05:46:20Z</time>
      </trkpt>
      <trkpt lat="45.10819" lon="5.70026">
        <ele>248.85</ele>
        <time>2018-08-25T05:46:21Z</time>
      </trkpt>
      <trkpt lat="45.10804" lon="5.70043">
        <ele>248.99</ele>
        <time>2018-08-25T05:46:22Z</time>
      </trkpt>
      <trkpt lat="45.10789" lon="5.70062">
        <ele>248.33</ele>
        <time>2018-08-25T05:46:23Z</time>
      </trkpt>
      <trkpt lat="45.10774" lon="5.70082">
        <ele>248.83</ele>
        <time>2018-08-25T05:46:24Z</time>
      </trkpt>
      <trkpt lat="45.10761" lon="5.70102">
        <ele>248.98</ele>
        <time>2018-08-25T05:46:25Z</time>
      </trkpt>
      <trkpt lat="45.10748" lon="5.70122">
        <ele>249.03</ele>
        <time>2018-08-25T05:46:26Z</time>
      </trkpt>
      <trkpt lat="45.10736" lon="5.70142">
        <ele>249.04</ele>
        <time>2018-08-25T05:46:27Z</time>
      </trkpt>
      <trkpt lat="45.10722" lon="5.70161">
        <ele>249.05</ele>
        <time>2018-08-25T05:46:28Z</time>
      </trkpt>
      <trkpt lat="45.10708" lon="5.70181">
        <ele>249.05</ele>
        <time>2018-08-25T05:46:29Z</time>
      </trkpt>
      <trkpt lat="45.10696" lon="5.70201">
        <ele>249.75</ele>
        <time>2018-08-25T05:46:30Z</time>
      </trkpt>
      <trkpt lat="45.10682" lon="5.70221">
        <ele>249.96</ele>
        <time>2018-08-25T05:46:31Z</time>
      </trkpt>
      <trkpt lat="45.10669" lon="5.70241">
        <ele>249.32</ele>
        <time>2018-08-25T05:46:32Z</time>
      </trkpt>
      <trkpt lat="45.10657" lon="5.70261">
        <ele>248.43</ele>
        <time>2018-08-25T05:46:33Z</time>
      </trkpt>
      <trkpt lat="45.10643" lon="5.70282">
        <ele>248.16</ele>
        <time>2018-08-25T05:46:34Z</time>
      </trkpt>
      <trkpt lat="45.1063" lon="5.70301">
        <ele>248.08</ele>
        <time>2018-08-25T05:46:35Z</time>
      </trkpt>
      <trkpt lat="45.10617" lon="5.70321">
        <ele>248.06</ele>
        <time>2018-08-25T05:46:36Z</time>
      </trkpt>
      <trkpt lat="45.10604" lon="5.70342">
        <ele>248.75</ele>
        <time>2018-08-25T05:46:37Z</time>
      </trkpt>
      <trkpt lat="45.10589" lon="5.70361">
        <ele>248.96</ele>
        <time>2018-08-25T05:46:38Z</time>
      </trkpt>
      <trkpt lat="45.10577" lon="5.70381">
        <ele>249.02</ele>
        <time>2018-08-25T05:46:39Z</time>
      </trkpt>
      <trkpt lat="45.10562" lon="5.70401">
        <ele>249.04</ele>
        <time>2018-08-25T05:46:40Z</time>
      </trkpt>
      <trkpt lat="45.10547" lon="5.70421">
        <ele>250.45</ele>
        <time>2018-08-25T05:46:41Z</time>
      </trkpt>
      <trkpt lat="45.10533" lon="5.7044">
        <ele>250.87</ele>
        <time>2018-08-25T05:46:42Z</time>
      </trkpt>
      <trkpt lat="45.10518" lon="5.70459">
        <ele>250.99</ele>
        <time>2018-08-25T05:46:43Z</time>
      </trkpt>
      <trkpt lat="45.10504" lon="5.70478">
        <ele>251.03</ele>
        <time>2018-08-25T05:46:44Z</time>
      </trkpt>
      <trkpt lat="45.10489" lon="5.70497">
        <ele>252.44</ele>
        <time>2018-08-25T05:46:45Z</time>
      </trkpt>
      <trkpt lat="45.10475" lon="5.70516">
        <ele>252.87</ele>
        <time>2018-08-25T05:46:46Z</time>
      </trkpt>
      <trkpt lat="45.10462" lon="5.70535">
        <ele>253.69</ele>
        <time>2018-08-25T05:46:47Z</time>
      </trkpt>
      <trkpt lat="45.10448" lon="5.70555">
        <ele>253.94</ele>
        <time>2018-08-25T05:46:48Z</time>
      </trkpt>
      <trkpt lat="45.10435" lon="5.70575">
        <ele>254.02</ele>
        <time>2018-08-25T05:46:49Z</time>
      </trkpt>
      <trkpt lat="45.10422" lon="5.70595">
        <ele>254.74</ele>
        <time>2018-08-25T05:46:50Z</time>
      </trkpt>
      <trkpt lat="45.10409" lon="5.70614">
        <ele>254.96</ele>
        <time>2018-08-25T05:46:51Z</time>
      </trkpt>
      <trkpt lat="45.10396" lon="5.70635">
        <ele>255.02</ele>
        <time>2018-08-25T05:46:52Z</time>
      </trkpt>
      <trkpt lat="45.10385" lon="5.70657">
        <ele>255.74</ele>
        <time>2018-08-25T05:46:53Z</time>
      </trkpt>
      <trkpt lat="45.10373" lon="5.7068">
        <ele>255.96</ele>
        <time>2018-08-25T05:46:54Z</time>
      </trkpt>
      <trkpt lat="45.10363" lon="5.70703">
        <ele>256.02</ele>
        <time>2018-08-25T05:46:55Z</time>
      </trkpt>
      <trkpt lat="45.10354" lon="5.70727">
        <ele>256.04</ele>
        <time>2018-08-25T05:46:56Z</time>
      </trkpt>
      <trkpt lat="45.10344" lon="5.70751">
        <ele>256.05</ele>
        <time>2018-08-25T05:46:57Z</time>
      </trkpt>
      <trkpt lat="45.10337" lon="5.70777">
        <ele>256.05</ele>
        <time>2018-08-25T05:46:58Z</time>
      </trkpt>
      <trkpt lat="45.1033" lon="5.70802">
        <ele>255.35</ele>
        <time>2018-08-25T05:46:59Z</time>
      </trkpt>
      <trkpt lat="45.10325" lon="5.70828">
        <ele>255.14</ele>
        <time>2018-08-25T05:47:00Z</time>
      </trkpt>
      <trkpt lat="45.10319" lon="5.70855">
        <ele>255.08</ele>
        <time>2018-08-25T05:47:01Z</time>
      </trkpt>
      <trkpt lat="45.10314" lon="5.70882">
        <ele>255.76</ele>
        <time>2018-08-25T05:47:02Z</time>
      </trkpt>
      <trkpt lat="45.10311" lon="5.70911">
        <ele>256.66</ele>
        <time>2018-08-25T05:47:03Z</time>
      </trkpt>
      <trkpt lat="45.10309" lon="5.70939">
        <ele>256.23</ele>
        <time>2018-08-25T05:47:04Z</time>
      </trkpt>
      <trkpt lat="45.10307" lon="5.70968">
        <ele>256.8</ele>
        <time>2018-08-25T05:47:05Z</time>
      </trkpt>
      <trkpt lat="45.10307" lon="5.70997">
        <ele>256.98</ele>
        <time>2018-08-25T05:47:06Z</time>
      </trkpt>
      <trkpt lat="45.10308" lon="5.71026">
        <ele>257.03</ele>
        <time>2018-08-25T05:47:07Z</time>
      </trkpt>
      <trkpt lat="45.10307" lon="5.71054">
        <ele>257.74</ele>
        <time>2018-08-25T05:47:08Z</time>
      </trkpt>
      <trkpt lat="45.10306" lon="5.7108">
        <ele>256.56</ele>
        <time>2018-08-25T05:47:09Z</time>
      </trkpt>
      <trkpt lat="45.10303" lon="5.71107">
        <ele>255.5</ele>
        <time>2018-08-25T05:47:10Z</time>
      </trkpt>
      <trkpt lat="45.10298" lon="5.71133">
        <ele>256.58</ele>
        <time>2018-08-25T05:47:11Z</time>
      </trkpt>
      <trkpt lat="45.10293" lon="5.71159">
        <ele>256.91</ele>
        <time>2018-08-25T05:47:12Z</time>
      </trkpt>
      <trkpt lat="45.10285" lon="5.71185">
        <ele>257.71</ele>
        <time>2018-08-25T05:47:13Z</time>
      </trkpt>
      <trkpt lat="45.10279" lon="5.71212">
        <ele>257.95</ele>
        <time>2018-08-25T05:47:14Z</time>
      </trkpt>
      <trkpt lat="45.10274" lon="5.71237">
        <ele>257.32</ele>
        <time>2018-08-25T05:47:15Z</time>
      </trkpt>
      <trkpt lat="45.10262" lon="5.71283">
        <ele>256.16</ele>
        <time>2018-08-25T05:47:17Z</time>
      </trkpt>
      <trkpt lat="45.10249" lon="5.71317">
        <ele>256.06</ele>
        <time>2018-08-25T05:47:19Z</time>
      </trkpt>
      <trkpt lat="45.10234" lon="5.71346">
        <ele>256.05</ele>
        <time>2018-08-25T05:47:21Z</time>
      </trkpt>
      <trkpt lat="45.1023" lon="5.71388">
        <ele>255.84</ele>
        <time>2018-08-25T05:47:23Z</time>
      </trkpt>
      <trkpt lat="45.10232" lon="5.71433">
        <ele>254.21</ele>
        <time>2018-08-25T05:47:25Z</time>
      </trkpt>
      <trkpt lat="45.10216" lon="5.71477">
        <ele>255.46</ele>
        <time>2018-08-25T05:47:27Z</time>
      </trkpt>
      <trkpt lat="45.10193" lon="5.71515">
        <ele>255.3</ele>
        <time>2018-08-25T05:47:29Z</time>
      </trkpt>
      <trkpt lat="45.10177" lon="5.71533">
        <ele>255.12</ele>
        <time>2018-08-25T05:47:30Z</time>
      </trkpt>
      <trkpt lat="45.1016" lon="5.71547">
        <ele>255.07</ele>
        <time>2018-08-25T05:47:31Z</time>
      </trkpt>
      <trkpt lat="45.10142" lon="5.71562">
        <ele>255.06</ele>
        <time>2018-08-25T05:47:32Z</time>
      </trkpt>
      <trkpt lat="45.10125" lon="5.71579">
        <ele>253.65</ele>
        <time>2018-08-25T05:47:33Z</time>
      </trkpt>
      <trkpt lat="45.10108" lon="5.71594">
        <ele>253.23</ele>
        <time>2018-08-25T05:47:34Z</time>
      </trkpt>
      <trkpt lat="45.1009" lon="5.71611">
        <ele>252.4</ele>
        <time>2018-08-25T05:47:35Z</time>
      </trkpt>
      <trkpt lat="45.10073" lon="5.71628">
        <ele>254.26</ele>
        <time>2018-08-25T05:47:36Z</time>
      </trkpt>
      <trkpt lat="45.10057" lon="5.71646">
        <ele>255.51</ele>
        <time>2018-08-25T05:47:37Z</time>
      </trkpt>
      <trkpt lat="45.1004" lon="5.71663">
        <ele>255.89</ele>
        <time>2018-08-25T05:47:38Z</time>
      </trkpt>
      <trkpt lat="45.10022" lon="5.71681">
        <ele>256</ele>
        <time>2018-08-25T05:47:39Z</time>
      </trkpt>
      <trkpt lat="45.10006" lon="5.71697">
        <ele>256.73</ele>
        <time>2018-08-25T05:47:40Z</time>
      </trkpt>
      <trkpt lat="45.09989" lon="5.71713">
        <ele>256.95</ele>
        <time>2018-08-25T05:47:41Z</time>
      </trkpt>
      <trkpt lat="45.09972" lon="5.71728">
        <ele>257.02</ele>
        <time>2018-08-25T05:47:42Z</time>
      </trkpt>
      <trkpt lat="45.09957" lon="5.71742">
        <ele>256.34</ele>
        <time>2018-08-25T05:47:43Z</time>
      </trkpt>
      <trkpt lat="45.09938" lon="5.71755">
        <ele>255.44</ele>
        <time>2018-08-25T05:47:44Z</time>
      </trkpt>
      <trkpt lat="45.09921" lon="5.71768">
        <ele>255.17</ele>
        <time>2018-08-25T05:47:45Z</time>
      </trkpt>
      <trkpt lat="45.09904" lon="5.71782">
        <ele>255.08</ele>
        <time>2018-08-25T05:47:46Z</time>
      </trkpt>
      <trkpt lat="45.09887" lon="5.71797">
        <ele>255.06</ele>
        <time>2018-08-25T05:47:47Z</time>
      </trkpt>
      <trkpt lat="45.0987" lon="5.71811">
        <ele>255.05</ele>
        <time>2018-08-25T05:47:48Z</time>
      </trkpt>
      <trkpt lat="45.09851" lon="5.71826">
        <ele>255.75</ele>
        <time>2018-08-25T05:47:49Z</time>
      </trkpt>
      <trkpt lat="45.09834" lon="5.7184">
        <ele>255.96</ele>
        <time>2018-08-25T05:47:50Z</time>
      </trkpt>
      <trkpt lat="45.09816" lon="5.71853">
        <ele>256.02</ele>
        <time>2018-08-25T05:47:51Z</time>
      </trkpt>
      <trkpt lat="45.09797" lon="5.71867">
        <ele>256.04</ele>
        <time>2018-08-25T05:47:52Z</time>
      </trkpt>
      <trkpt lat="45.09779" lon="5.71881">
        <ele>256.75</ele>
        <time>2018-08-25T05:47:53Z</time>
      </trkpt>
      <trkpt lat="45.09761" lon="5.71895">
        <ele>256.96</ele>
        <time>2018-08-25T05:47:54Z</time>
      </trkpt>
      <trkpt lat="45.09744" lon="5.71909">
        <ele>257.02</ele>
        <time>2018-08-25T05:47:55Z</time>
      </trkpt>
      <trkpt lat="45.09727" lon="5.71923">
        <ele>257.04</ele>
        <time>2018-08-25T05:47:56Z</time>
      </trkpt>
      <trkpt lat="45.09708" lon="5.71937">
        <ele>257.05</ele>
        <time>2018-08-25T05:47:57Z</time>
      </trkpt>
      <trkpt lat="45.0969" lon="5.7195">
        <ele>257.75</ele>
        <time>2018-08-25T05:47:58Z</time>
      </trkpt>
      <trkpt lat="45.09672" lon="5.71962">
        <ele>259.36</ele>
        <time>2018-08-25T05:47:59Z</time>
      </trkpt>
      <trkpt lat="45.09653" lon="5.71975">
        <ele>261.24</ele>
        <time>2018-08-25T05:48:00Z</time>
      </trkpt>
      <trkpt lat="45.09635" lon="5.71989">
        <ele>261.81</ele>
        <time>2018-08-25T05:48:01Z</time>
      </trkpt>
      <trkpt lat="45.09619" lon="5.72004">
        <ele>261.98</ele>
        <time>2018-08-25T05:48:02Z</time>
      </trkpt>
      <trkpt lat="45.09602" lon="5.72017">
        <ele>262.73</ele>
        <time>2018-08-25T05:48:03Z</time>
      </trkpt>
      <trkpt lat="45.09585" lon="5.72031">
        <ele>262.95</ele>
        <time>2018-08-25T05:48:04Z</time>
      </trkpt>
      <trkpt lat="45.09567" lon="5.72045">
        <ele>263.02</ele>
        <time>2018-08-25T05:48:05Z</time>
      </trkpt>
      <trkpt lat="45.09549" lon="5.72058">
        <ele>263.04</ele>
        <time>2018-08-25T05:48:06Z</time>
      </trkpt>
      <trkpt lat="45.09532" lon="5.72072">
        <ele>263.05</ele>
        <time>2018-08-25T05:48:07Z</time>
      </trkpt>
      <trkpt lat="45.09515" lon="5.72085">
        <ele>263.05</ele>
        <time>2018-08-25T05:48:08Z</time>
      </trkpt>
      <trkpt lat="45.09498" lon="5.72099">
        <ele>263.05</ele>
        <time>2018-08-25T05:48:09Z</time>
      </trkpt>
      <trkpt lat="45.0948" lon="5.72115">
        <ele>263.05</ele>
        <time>2018-08-25T05:48:10Z</time>
      </trkpt>
      <trkpt lat="45.09461" lon="5.72129">
        <ele>263.75</ele>
        <time>2018-08-25T05:48:11Z</time>
      </trkpt>
      <trkpt lat="45.09444" lon="5.72145">
        <ele>263.26</ele>
        <time>2018-08-25T05:48:12Z</time>
      </trkpt>
      <trkpt lat="45.09427" lon="5.7216">
        <ele>262.41</ele>
        <time>2018-08-25T05:48:13Z</time>
      </trkpt>
      <trkpt lat="45.09409" lon="5.72174">
        <ele>261.46</ele>
        <time>2018-08-25T05:48:14Z</time>
      </trkpt>
      <trkpt lat="45.09392" lon="5.72187">
        <ele>262.57</ele>
        <time>2018-08-25T05:48:15Z</time>
      </trkpt>
      <trkpt lat="45.09374" lon="5.72202">
        <ele>263.61</ele>
        <time>2018-08-25T05:48:16Z</time>
      </trkpt>
      <trkpt lat="45.09358" lon="5.72217">
        <ele>263.92</ele>
        <time>2018-08-25T05:48:17Z</time>
      </trkpt>
      <trkpt lat="45.09341" lon="5.72231">
        <ele>264.71</ele>
        <time>2018-08-25T05:48:18Z</time>
      </trkpt>
      <trkpt lat="45.09323" lon="5.72244">
        <ele>264.95</ele>
        <time>2018-08-25T05:48:19Z</time>
      </trkpt>
      <trkpt lat="45.09307" lon="5.72258">
        <ele>264.32</ele>
        <time>2018-08-25T05:48:20Z</time>
      </trkpt>
      <trkpt lat="45.0929" lon="5.72272">
        <ele>263.43</ele>
        <time>2018-08-25T05:48:21Z</time>
      </trkpt>
      <trkpt lat="45.09274" lon="5.72288">
        <ele>263.16</ele>
        <time>2018-08-25T05:48:22Z</time>
      </trkpt>
      <trkpt lat="45.09258" lon="5.72304">
        <ele>263.08</ele>
        <time>2018-08-25T05:48:23Z</time>
      </trkpt>
      <trkpt lat="45.0924" lon="5.72319">
        <ele>263.06</ele>
        <time>2018-08-25T05:48:24Z</time>
      </trkpt>
      <trkpt lat="45.09224" lon="5.72333">
        <ele>262.35</ele>
        <time>2018-08-25T05:48:25Z</time>
      </trkpt>
      <trkpt lat="45.09208" lon="5.72349">
        <ele>262.84</ele>
        <time>2018-08-25T05:48:26Z</time>
      </trkpt>
      <trkpt lat="45.09191" lon="5.72366">
        <ele>261.59</ele>
        <time>2018-08-25T05:48:27Z</time>
      </trkpt>
      <trkpt lat="45.09175" lon="5.72382">
        <ele>262.61</ele>
        <time>2018-08-25T05:48:28Z</time>
      </trkpt>
      <trkpt lat="45.09158" lon="5.72398">
        <ele>262.22</ele>
        <time>2018-08-25T05:48:29Z</time>
      </trkpt>
      <trkpt lat="45.09142" lon="5.72416">
        <ele>262.1</ele>
        <time>2018-08-25T05:48:30Z</time>
      </trkpt>
      <trkpt lat="45.09127" lon="5.72436">
        <ele>262.06</ele>
        <time>2018-08-25T05:48:31Z</time>
      </trkpt>
      <trkpt lat="45.09113" lon="5.72458">
        <ele>262.75</ele>
        <time>2018-08-25T05:48:32Z</time>
      </trkpt>
      <trkpt lat="45.09101" lon="5.72481">
        <ele>263.66</ele>
        <time>2018-08-25T05:48:33Z</time>
      </trkpt>
      <trkpt lat="45.09088" lon="5.72505">
        <ele>264.63</ele>
        <time>2018-08-25T05:48:34Z</time>
      </trkpt>
      <trkpt lat="45.09076" lon="5.7253">
        <ele>265.62</ele>
        <time>2018-08-25T05:48:35Z</time>
      </trkpt>
      <trkpt lat="45.09065" lon="5.72555">
        <ele>265.92</ele>
        <time>2018-08-25T05:48:36Z</time>
      </trkpt>
      <trkpt lat="45.09052" lon="5.72578">
        <ele>266.01</ele>
        <time>2018-08-25T05:48:37Z</time>
      </trkpt>
      <trkpt lat="45.09041" lon="5.72604">
        <ele>266.04</ele>
        <time>2018-08-25T05:48:38Z</time>
      </trkpt>
      <trkpt lat="45.09028" lon="5.72628">
        <ele>265.35</ele>
        <time>2018-08-25T05:48:39Z</time>
      </trkpt>
      <trkpt lat="45.09017" lon="5.72652">
        <ele>264.44</ele>
        <time>2018-08-25T05:48:40Z</time>
      </trkpt>
      <trkpt lat="45.09006" lon="5.72676">
        <ele>264.87</ele>
        <time>2018-08-25T05:48:41Z</time>
      </trkpt>
      <trkpt lat="45.08996" lon="5.727">
        <ele>265.69</ele>
        <time>2018-08-25T05:48:42Z</time>
      </trkpt>
      <trkpt lat="45.08987" lon="5.72724">
        <ele>265.94</ele>
        <time>2018-08-25T05:48:43Z</time>
      </trkpt>
      <trkpt lat="45.08977" lon="5.72747">
        <ele>266.72</ele>
        <time>2018-08-25T05:48:44Z</time>
      </trkpt>
      <trkpt lat="45.08968" lon="5.72769">
        <ele>266.95</ele>
        <time>2018-08-25T05:48:45Z</time>
      </trkpt>
      <trkpt lat="45.08959" lon="5.72793">
        <ele>267.72</ele>
        <time>2018-08-25T05:48:46Z</time>
      </trkpt>
      <trkpt lat="45.08951" lon="5.72816">
        <ele>269.35</ele>
        <time>2018-08-25T05:48:47Z</time>
      </trkpt>
      <trkpt lat="45.0893" lon="5.7286">
        <ele>269.29</ele>
        <time>2018-08-25T05:48:49Z</time>
      </trkpt>
      <trkpt lat="45.0892" lon="5.72883">
        <ele>269.12</ele>
        <time>2018-08-25T05:48:50Z</time>
      </trkpt>
      <trkpt lat="45.0891" lon="5.72906">
        <ele>271.17</ele>
        <time>2018-08-25T05:48:51Z</time>
      </trkpt>
      <trkpt lat="45.089" lon="5.7293">
        <ele>271.79</ele>
        <time>2018-08-25T05:48:52Z</time>
      </trkpt>
      <trkpt lat="45.08889" lon="5.72954">
        <ele>271.97</ele>
        <time>2018-08-25T05:48:53Z</time>
      </trkpt>
      <trkpt lat="45.0888" lon="5.72977">
        <ele>271.33</ele>
        <time>2018-08-25T05:48:54Z</time>
      </trkpt>
      <trkpt lat="45.08871" lon="5.73001">
        <ele>271.83</ele>
        <time>2018-08-25T05:48:55Z</time>
      </trkpt>
      <trkpt lat="45.08862" lon="5.73024">
        <ele>272.68</ele>
        <time>2018-08-25T05:48:56Z</time>
      </trkpt>
      <trkpt lat="45.08853" lon="5.73048">
        <ele>272.94</ele>
        <time>2018-08-25T05:48:57Z</time>
      </trkpt>
      <trkpt lat="45.08845" lon="5.73072">
        <ele>273.02</ele>
        <time>2018-08-25T05:48:58Z</time>
      </trkpt>
      <trkpt lat="45.08837" lon="5.73097">
        <ele>273.04</ele>
        <time>2018-08-25T05:48:59Z</time>
      </trkpt>
      <trkpt lat="45.08828" lon="5.73121">
        <ele>273.75</ele>
        <time>2018-08-25T05:49:00Z</time>
      </trkpt>
      <trkpt lat="45.08819" lon="5.73146">
        <ele>274.66</ele>
        <time>2018-08-25T05:49:01Z</time>
      </trkpt>
      <trkpt lat="45.08809" lon="5.73169">
        <ele>275.63</ele>
        <time>2018-08-25T05:49:02Z</time>
      </trkpt>
      <trkpt lat="45.088" lon="5.73192">
        <ele>275.22</ele>
        <time>2018-08-25T05:49:03Z</time>
      </trkpt>
      <trkpt lat="45.08791" lon="5.73214">
        <ele>274.4</ele>
        <time>2018-08-25T05:49:04Z</time>
      </trkpt>
      <trkpt lat="45.0878" lon="5.73238">
        <ele>274.15</ele>
        <time>2018-08-25T05:49:05Z</time>
      </trkpt>
      <trkpt lat="45.0877" lon="5.73263">
        <ele>273.38</ele>
        <time>2018-08-25T05:49:06Z</time>
      </trkpt>
      <trkpt lat="45.08759" lon="5.73287">
        <ele>274.55</ele>
        <time>2018-08-25T05:49:07Z</time>
      </trkpt>
      <trkpt lat="45.08748" lon="5.73312">
        <ele>274.2</ele>
        <time>2018-08-25T05:49:08Z</time>
      </trkpt>
      <trkpt lat="45.08738" lon="5.73338">
        <ele>274.09</ele>
        <time>2018-08-25T05:49:09Z</time>
      </trkpt>
      <trkpt lat="45.08727" lon="5.73363">
        <ele>274.76</ele>
        <time>2018-08-25T05:49:10Z</time>
      </trkpt>
      <trkpt lat="45.08717" lon="5.73388">
        <ele>275.66</ele>
        <time>2018-08-25T05:49:11Z</time>
      </trkpt>
      <trkpt lat="45.08708" lon="5.73413">
        <ele>275.23</ele>
        <time>2018-08-25T05:49:12Z</time>
      </trkpt>
      <trkpt lat="45.08699" lon="5.73437">
        <ele>273.7</ele>
        <time>2018-08-25T05:49:13Z</time>
      </trkpt>
      <trkpt lat="45.0869" lon="5.73461">
        <ele>272.55</ele>
        <time>2018-08-25T05:49:14Z</time>
      </trkpt>
      <trkpt lat="45.08682" lon="5.73484">
        <ele>270.8</ele>
        <time>2018-08-25T05:49:15Z</time>
      </trkpt>
      <trkpt lat="45.08672" lon="5.73508">
        <ele>269.57</ele>
        <time>2018-08-25T05:49:16Z</time>
      </trkpt>
      <trkpt lat="45.08664" lon="5.73532">
        <ele>268.51</ele>
        <time>2018-08-25T05:49:17Z</time>
      </trkpt>
      <trkpt lat="45.08653" lon="5.73553">
        <ele>266.79</ele>
        <time>2018-08-25T05:49:18Z</time>
      </trkpt>
      <trkpt lat="45.08643" lon="5.73576">
        <ele>266.27</ele>
        <time>2018-08-25T05:49:19Z</time>
      </trkpt>
      <trkpt lat="45.08633" lon="5.73598">
        <ele>267.52</ele>
        <time>2018-08-25T05:49:20Z</time>
      </trkpt>
      <trkpt lat="45.08624" lon="5.7362">
        <ele>268.59</ele>
        <time>2018-08-25T05:49:21Z</time>
      </trkpt>
      <trkpt lat="45.08605" lon="5.73662">
        <ele>271.32</ele>
        <time>2018-08-25T05:49:23Z</time>
      </trkpt>
      <trkpt lat="45.08586" lon="5.73702">
        <ele>273.1</ele>
        <time>2018-08-25T05:49:25Z</time>
      </trkpt>
      <trkpt lat="45.08565" lon="5.73743">
        <ele>274.87</ele>
        <time>2018-08-25T05:49:27Z</time>
      </trkpt>
      <trkpt lat="45.08542" lon="5.73781">
        <ele>275.94</ele>
        <time>2018-08-25T05:49:29Z</time>
      </trkpt>
      <trkpt lat="45.08515" lon="5.73814">
        <ele>276.04</ele>
        <time>2018-08-25T05:49:31Z</time>
      </trkpt>
      <trkpt lat="45.08488" lon="5.73842">
        <ele>276.96</ele>
        <time>2018-08-25T05:49:33Z</time>
      </trkpt>
      <trkpt lat="45.08455" lon="5.73868">
        <ele>278.65</ele>
        <time>2018-08-25T05:49:35Z</time>
      </trkpt>
      <trkpt lat="45.08424" lon="5.73891">
        <ele>279.71</ele>
        <time>2018-08-25T05:49:37Z</time>
      </trkpt>
      <trkpt lat="45.08408" lon="5.73903">
        <ele>279.95</ele>
        <time>2018-08-25T05:49:38Z</time>
      </trkpt>
      <trkpt lat="45.08376" lon="5.73928">
        <ele>280.04</ele>
        <time>2018-08-25T05:49:40Z</time>
      </trkpt>
      <trkpt lat="45.0836" lon="5.73941">
        <ele>280.75</ele>
        <time>2018-08-25T05:49:41Z</time>
      </trkpt>
      <trkpt lat="45.08344" lon="5.73953">
        <ele>281.66</ele>
        <time>2018-08-25T05:49:42Z</time>
      </trkpt>
      <trkpt lat="45.08313" lon="5.7398">
        <ele>281.8</ele>
        <time>2018-08-25T05:49:44Z</time>
      </trkpt>
      <trkpt lat="45.08299" lon="5.73997">
        <ele>282.68</ele>
        <time>2018-08-25T05:49:45Z</time>
      </trkpt>
      <trkpt lat="45.08284" lon="5.74014">
        <ele>283.64</ele>
        <time>2018-08-25T05:49:46Z</time>
      </trkpt>
      <trkpt lat="45.08272" lon="5.74032">
        <ele>283.93</ele>
        <time>2018-08-25T05:49:47Z</time>
      </trkpt>
      <trkpt lat="45.08249" lon="5.74073">
        <ele>284.74</ele>
        <time>2018-08-25T05:49:49Z</time>
      </trkpt>
      <trkpt lat="45.08237" lon="5.74092">
        <ele>284.26</ele>
        <time>2018-08-25T05:49:50Z</time>
      </trkpt>
      <trkpt lat="45.08225" lon="5.74136">
        <ele>282.95</ele>
        <time>2018-08-25T05:49:52Z</time>
      </trkpt>
      <trkpt lat="45.08215" lon="5.7418">
        <ele>282.83</ele>
        <time>2018-08-25T05:49:54Z</time>
      </trkpt>
      <trkpt lat="45.0821" lon="5.74228">
        <ele>282.12</ele>
        <time>2018-08-25T05:49:56Z</time>
      </trkpt>
      <trkpt lat="45.0821" lon="5.74275">
        <ele>282.06</ele>
        <time>2018-08-25T05:49:58Z</time>
      </trkpt>
      <trkpt lat="45.08215" lon="5.74324">
        <ele>282.75</ele>
        <time>2018-08-25T05:50:00Z</time>
      </trkpt>
      <trkpt lat="45.08224" lon="5.74372">
        <ele>283.93</ele>
        <time>2018-08-25T05:50:02Z</time>
      </trkpt>
      <trkpt lat="45.08231" lon="5.74396">
        <ele>284.01</ele>
        <time>2018-08-25T05:50:03Z</time>
      </trkpt>
      <trkpt lat="45.08239" lon="5.7442">
        <ele>284.04</ele>
        <time>2018-08-25T05:50:04Z</time>
      </trkpt>
      <trkpt lat="45.08248" lon="5.74444">
        <ele>284.05</ele>
        <time>2018-08-25T05:50:05Z</time>
      </trkpt>
      <trkpt lat="45.08257" lon="5.74466">
        <ele>284.05</ele>
        <time>2018-08-25T05:50:06Z</time>
      </trkpt>
      <trkpt lat="45.08268" lon="5.74488">
        <ele>283.35</ele>
        <time>2018-08-25T05:50:07Z</time>
      </trkpt>
      <trkpt lat="45.08278" lon="5.74509">
        <ele>283.14</ele>
        <time>2018-08-25T05:50:08Z</time>
      </trkpt>
      <trkpt lat="45.0829" lon="5.74531">
        <ele>282.38</ele>
        <time>2018-08-25T05:50:09Z</time>
      </trkpt>
      <trkpt lat="45.08301" lon="5.74552">
        <ele>282.15</ele>
        <time>2018-08-25T05:50:10Z</time>
      </trkpt>
      <trkpt lat="45.08312" lon="5.74574">
        <ele>282.08</ele>
        <time>2018-08-25T05:50:11Z</time>
      </trkpt>
      <trkpt lat="45.08322" lon="5.74597">
        <ele>281.36</ele>
        <time>2018-08-25T05:50:12Z</time>
      </trkpt>
      <trkpt lat="45.08331" lon="5.74621">
        <ele>281.14</ele>
        <time>2018-08-25T05:50:13Z</time>
      </trkpt>
      <trkpt lat="45.08339" lon="5.74645">
        <ele>280.38</ele>
        <time>2018-08-25T05:50:14Z</time>
      </trkpt>
      <trkpt lat="45.08346" lon="5.74671">
        <ele>280.15</ele>
        <time>2018-08-25T05:50:15Z</time>
      </trkpt>
      <trkpt lat="45.08353" lon="5.74696">
        <ele>279.38</ele>
        <time>2018-08-25T05:50:16Z</time>
      </trkpt>
      <trkpt lat="45.08361" lon="5.74721">
        <ele>279.15</ele>
        <time>2018-08-25T05:50:17Z</time>
      </trkpt>
      <trkpt lat="45.08362" lon="5.7475">
        <ele>278.38</ele>
        <time>2018-08-25T05:50:18Z</time>
      </trkpt>
      <trkpt lat="45.08367" lon="5.74776">
        <ele>276.75</ele>
        <time>2018-08-25T05:50:19Z</time>
      </trkpt>
      <trkpt lat="45.0837" lon="5.74803">
        <ele>276.26</ele>
        <time>2018-08-25T05:50:20Z</time>
      </trkpt>
      <trkpt lat="45.08375" lon="5.7483">
        <ele>276.81</ele>
        <time>2018-08-25T05:50:21Z</time>
      </trkpt>
      <trkpt lat="45.08379" lon="5.74855">
        <ele>276.98</ele>
        <time>2018-08-25T05:50:22Z</time>
      </trkpt>
      <trkpt lat="45.08383" lon="5.74881">
        <ele>277.03</ele>
        <time>2018-08-25T05:50:23Z</time>
      </trkpt>
      <trkpt lat="45.08389" lon="5.74908">
        <ele>276.34</ele>
        <time>2018-08-25T05:50:24Z</time>
      </trkpt>
      <trkpt lat="45.08393" lon="5.74934">
        <ele>275.44</ele>
        <time>2018-08-25T05:50:25Z</time>
      </trkpt>
      <trkpt lat="45.08399" lon="5.74961">
        <ele>275.87</ele>
        <time>2018-08-25T05:50:26Z</time>
      </trkpt>
      <trkpt lat="45.08406" lon="5.74986">
        <ele>275.99</ele>
        <time>2018-08-25T05:50:27Z</time>
      </trkpt>
      <trkpt lat="45.08416" lon="5.75037">
        <ele>275.55</ele>
        <time>2018-08-25T05:50:29Z</time>
      </trkpt>
      <trkpt lat="45.08423" lon="5.75063">
        <ele>275.68</ele>
        <time>2018-08-25T05:50:30Z</time>
      </trkpt>
      <trkpt lat="45.08429" lon="5.75088">
        <ele>276.42</ele>
        <time>2018-08-25T05:50:31Z</time>
      </trkpt>
      <trkpt lat="45.08436" lon="5.75113">
        <ele>276.65</ele>
        <time>2018-08-25T05:50:32Z</time>
      </trkpt>
      <trkpt lat="45.08442" lon="5.75141">
        <ele>276.71</ele>
        <time>2018-08-25T05:50:33Z</time>
      </trkpt>
      <trkpt lat="45.08447" lon="5.75168">
        <ele>276.03</ele>
        <time>2018-08-25T05:50:34Z</time>
      </trkpt>
      <trkpt lat="45.08453" lon="5.75196">
        <ele>275.83</ele>
        <time>2018-08-25T05:50:35Z</time>
      </trkpt>
      <trkpt lat="45.08458" lon="5.75222">
        <ele>275.77</ele>
        <time>2018-08-25T05:50:36Z</time>
      </trkpt>
      <trkpt lat="45.08464" lon="5.75249">
        <ele>275.05</ele>
        <time>2018-08-25T05:50:37Z</time>
      </trkpt>
      <trkpt lat="45.08469" lon="5.75277">
        <ele>274.83</ele>
        <time>2018-08-25T05:50:38Z</time>
      </trkpt>
      <trkpt lat="45.08474" lon="5.75304">
        <ele>275.47</ele>
        <time>2018-08-25T05:50:39Z</time>
      </trkpt>
      <trkpt lat="45.08479" lon="5.75331">
        <ele>276.36</ele>
        <time>2018-08-25T05:50:40Z</time>
      </trkpt>
      <trkpt lat="45.08485" lon="5.75356">
        <ele>277.33</ele>
        <time>2018-08-25T05:50:41Z</time>
      </trkpt>
      <trkpt lat="45.08489" lon="5.75382">
        <ele>277.62</ele>
        <time>2018-08-25T05:50:42Z</time>
      </trkpt>
      <trkpt lat="45.08494" lon="5.75408">
        <ele>277.7</ele>
        <time>2018-08-25T05:50:43Z</time>
      </trkpt>
      <trkpt lat="45.08499" lon="5.75434">
        <ele>277.03</ele>
        <time>2018-08-25T05:50:44Z</time>
      </trkpt>
      <trkpt lat="45.08505" lon="5.75459">
        <ele>276.83</ele>
        <time>2018-08-25T05:50:45Z</time>
      </trkpt>
      <trkpt lat="45.0851" lon="5.75486">
        <ele>276.77</ele>
        <time>2018-08-25T05:50:46Z</time>
      </trkpt>
      <trkpt lat="45.08514" lon="5.75511">
        <ele>277.45</ele>
        <time>2018-08-25T05:50:47Z</time>
      </trkpt>
      <trkpt lat="45.08519" lon="5.75537">
        <ele>277.65</ele>
        <time>2018-08-25T05:50:48Z</time>
      </trkpt>
      <trkpt lat="45.08523" lon="5.75563">
        <ele>279.11</ele>
        <time>2018-08-25T05:50:49Z</time>
      </trkpt>
      <trkpt lat="45.08526" lon="5.75588">
        <ele>279.55</ele>
        <time>2018-08-25T05:50:50Z</time>
      </trkpt>
      <trkpt lat="45.08524" lon="5.75615">
        <ele>279.68</ele>
        <time>2018-08-25T05:50:51Z</time>
      </trkpt>
      <trkpt lat="45.08519" lon="5.75642">
        <ele>279.02</ele>
        <time>2018-08-25T05:50:52Z</time>
      </trkpt>
      <trkpt lat="45.08513" lon="5.75668">
        <ele>278.83</ele>
        <time>2018-08-25T05:50:53Z</time>
      </trkpt>
      <trkpt lat="45.08506" lon="5.75692">
        <ele>279.47</ele>
        <time>2018-08-25T05:50:54Z</time>
      </trkpt>
      <trkpt lat="45.08495" lon="5.75714">
        <ele>279.66</ele>
        <time>2018-08-25T05:50:55Z</time>
      </trkpt>
      <trkpt lat="45.08483" lon="5.75735">
        <ele>280.42</ele>
        <time>2018-08-25T05:50:56Z</time>
      </trkpt>
      <trkpt lat="45.08471" lon="5.75757">
        <ele>279.24</ele>
        <time>2018-08-25T05:50:57Z</time>
      </trkpt>
      <trkpt lat="45.08458" lon="5.75779">
        <ele>278.89</ele>
        <time>2018-08-25T05:50:58Z</time>
      </trkpt>
      <trkpt lat="45.0845" lon="5.75804">
        <ele>278.79</ele>
        <time>2018-08-25T05:50:59Z</time>
      </trkpt>
      <trkpt lat="45.08441" lon="5.75829">
        <ele>279.45</ele>
        <time>2018-08-25T05:51:00Z</time>
      </trkpt>
      <trkpt lat="45.08436" lon="5.75855">
        <ele>279.66</ele>
        <time>2018-08-25T05:51:01Z</time>
      </trkpt>
      <trkpt lat="45.0843" lon="5.75882">
        <ele>279.72</ele>
        <time>2018-08-25T05:51:02Z</time>
      </trkpt>
      <trkpt lat="45.08425" lon="5.75908">
        <ele>279.03</ele>
        <time>2018-08-25T05:51:03Z</time>
      </trkpt>
      <trkpt lat="45.08419" lon="5.75933">
        <ele>279.53</ele>
        <time>2018-08-25T05:51:04Z</time>
      </trkpt>
      <trkpt lat="45.08413" lon="5.75959">
        <ele>279.68</ele>
        <time>2018-08-25T05:51:05Z</time>
      </trkpt>
      <trkpt lat="45.08407" lon="5.75984">
        <ele>279.72</ele>
        <time>2018-08-25T05:51:06Z</time>
      </trkpt>
      <trkpt lat="45.08394" lon="5.76032">
        <ele>279.04</ele>
        <time>2018-08-25T05:51:08Z</time>
      </trkpt>
      <trkpt lat="45.08384" lon="5.76077">
        <ele>280.59</ele>
        <time>2018-08-25T05:51:10Z</time>
      </trkpt>
      <trkpt lat="45.08373" lon="5.76123">
        <ele>282.13</ele>
        <time>2018-08-25T05:51:12Z</time>
      </trkpt>
      <trkpt lat="45.08363" lon="5.76166">
        <ele>281.78</ele>
        <time>2018-08-25T05:51:14Z</time>
      </trkpt>
      <trkpt lat="45.08351" lon="5.76213">
        <ele>281.95</ele>
        <time>2018-08-25T05:51:16Z</time>
      </trkpt>
      <trkpt lat="45.08343" lon="5.76258">
        <ele>282.67</ele>
        <time>2018-08-25T05:51:18Z</time>
      </trkpt>
      <trkpt lat="45.08332" lon="5.76305">
        <ele>282.73</ele>
        <time>2018-08-25T05:51:20Z</time>
      </trkpt>
      <trkpt lat="45.08323" lon="5.76346">
        <ele>282.95</ele>
        <time>2018-08-25T05:51:22Z</time>
      </trkpt>
      <trkpt lat="45.08313" lon="5.76386">
        <ele>283.67</ele>
        <time>2018-08-25T05:51:24Z</time>
      </trkpt>
      <trkpt lat="45.08304" lon="5.76425">
        <ele>283.03</ele>
        <time>2018-08-25T05:51:26Z</time>
      </trkpt>
      <trkpt lat="45.08295" lon="5.7646">
        <ele>282.13</ele>
        <time>2018-08-25T05:51:28Z</time>
      </trkpt>
      <trkpt lat="45.08287" lon="5.76491">
        <ele>281.78</ele>
        <time>2018-08-25T05:51:30Z</time>
      </trkpt>
      <trkpt lat="45.08278" lon="5.7652">
        <ele>282.44</ele>
        <time>2018-08-25T05:51:32Z</time>
      </trkpt>
      <trkpt lat="45.08267" lon="5.76545">
        <ele>282.01</ele>
        <time>2018-08-25T05:51:34Z</time>
      </trkpt>
      <trkpt lat="45.08253" lon="5.76562">
        <ele>282.47</ele>
        <time>2018-08-25T05:51:36Z</time>
      </trkpt>
      <trkpt lat="45.08241" lon="5.76589">
        <ele>283.64</ele>
        <time>2018-08-25T05:51:39Z</time>
      </trkpt>
      <trkpt lat="45.08258" lon="5.76609">
        <ele>282.07</ele>
        <time>2018-08-25T05:51:42Z</time>
      </trkpt>
      <trkpt lat="45.08274" lon="5.76575">
        <ele>280.05</ele>
        <time>2018-08-25T05:51:47Z</time>
      </trkpt>
      <trkpt lat="45.08277" lon="5.76544">
        <ele>279.75</ele>
        <time>2018-08-25T05:51:50Z</time>
      </trkpt>
      <trkpt lat="45.08293" lon="5.7653">
        <ele>279.67</ele>
        <time>2018-08-25T05:51:55Z</time>
      </trkpt>
      <trkpt lat="45.08301" lon="5.76553">
        <ele>259.74</ele>
        <time>2018-08-25T05:56:02Z</time>
      </trkpt>
      <trkpt lat="45.0832" lon="5.76556">
        <ele>273.34</ele>
        <time>2018-08-25T05:56:59Z</time>
      </trkpt>
      <trkpt lat="45.08333" lon="5.76576">
        <ele>277.74</ele>
        <time>2018-08-25T06:00:56Z</time>
      </trkpt>
      <trkpt lat="45.08341" lon="5.766">
        <ele>277.74</ele>
        <time>2018-08-25T06:01:03Z</time>
      </trkpt>
      <trkpt lat="45.08335" lon="5.76628">
        <ele>279.71</ele>
        <time>2018-08-25T06:01:09Z</time>
      </trkpt>
      <trkpt lat="45.08314" lon="5.7663">
        <ele>280.99</ele>
        <time>2018-08-25T06:01:16Z</time>
      </trkpt>
      <trkpt lat="45.08296" lon="5.76624">
        <ele>281.45</ele>
        <time>2018-08-25T06:01:19Z</time>
      </trkpt>
      <trkpt lat="45.08279" lon="5.76606">
        <ele>281.72</ele>
        <time>2018-08-25T06:01:23Z</time>
      </trkpt>
      <trkpt lat="45.0827" lon="5.76579">
        <ele>281.8</ele>
        <time>2018-08-25T06:01:26Z</time>
      </trkpt>
      <trkpt lat="45.08251" lon="5.76566">
        <ele>282.72</ele>
        <time>2018-08-25T06:01:29Z</time>
      </trkpt>
      <trkpt lat="45.08226" lon="5.76577">
        <ele>282.74</ele>
        <time>2018-08-25T06:01:32Z</time>
      </trkpt>
      <trkpt lat="45.08206" lon="5.76583">
        <ele>282.74</ele>
        <time>2018-08-25T06:01:34Z</time>
      </trkpt>
      <trkpt lat="45.08181" lon="5.76587">
        <ele>281.83</ele>
        <time>2018-08-25T06:01:36Z</time>
      </trkpt>
      <trkpt lat="45.08154" lon="5.76592">
        <ele>281.75</ele>
        <time>2018-08-25T06:01:38Z</time>
      </trkpt>
      <trkpt lat="45.08126" lon="5.76601">
        <ele>282.65</ele>
        <time>2018-08-25T06:01:40Z</time>
      </trkpt>
      <trkpt lat="45.08096" lon="5.76612">
        <ele>282.03</ele>
        <time>2018-08-25T06:01:42Z</time>
      </trkpt>
      <trkpt lat="45.08066" lon="5.76624">
        <ele>281.77</ele>
        <time>2018-08-25T06:01:44Z</time>
      </trkpt>
      <trkpt lat="45.08034" lon="5.76637">
        <ele>283.56</ele>
        <time>2018-08-25T06:01:46Z</time>
      </trkpt>
      <trkpt lat="45.08001" lon="5.7665">
        <ele>283.03</ele>
        <time>2018-08-25T06:01:48Z</time>
      </trkpt>
      <trkpt lat="45.07965" lon="5.76661">
        <ele>282.07</ele>
        <time>2018-08-25T06:01:50Z</time>
      </trkpt>
      <trkpt lat="45.07946" lon="5.76665">
        <ele>281.84</ele>
        <time>2018-08-25T06:01:51Z</time>
      </trkpt>
      <trkpt lat="45.07928" lon="5.76669">
        <ele>281.07</ele>
        <time>2018-08-25T06:01:52Z</time>
      </trkpt>
      <trkpt lat="45.07909" lon="5.7667">
        <ele>280.84</ele>
        <time>2018-08-25T06:01:53Z</time>
      </trkpt>
      <trkpt lat="45.0789" lon="5.76671">
        <ele>280.77</ele>
        <time>2018-08-25T06:01:54Z</time>
      </trkpt>
      <trkpt lat="45.0787" lon="5.76672">
        <ele>280.75</ele>
        <time>2018-08-25T06:01:55Z</time>
      </trkpt>
      <trkpt lat="45.07849" lon="5.76671">
        <ele>280.04</ele>
        <time>2018-08-25T06:01:56Z</time>
      </trkpt>
      <trkpt lat="45.07827" lon="5.76671">
        <ele>279.83</ele>
        <time>2018-08-25T06:01:57Z</time>
      </trkpt>
      <trkpt lat="45.07805" lon="5.7667">
        <ele>279.77</ele>
        <time>2018-08-25T06:01:58Z</time>
      </trkpt>
      <trkpt lat="45.07782" lon="5.7667">
        <ele>279.75</ele>
        <time>2018-08-25T06:01:59Z</time>
      </trkpt>
      <trkpt lat="45.07759" lon="5.7667">
        <ele>279.74</ele>
        <time>2018-08-25T06:02:00Z</time>
      </trkpt>
      <trkpt lat="45.07736" lon="5.7667">
        <ele>279.74</ele>
        <time>2018-08-25T06:02:01Z</time>
      </trkpt>
      <trkpt lat="45.07713" lon="5.7667">
        <ele>280.44</ele>
        <time>2018-08-25T06:02:02Z</time>
      </trkpt>
      <trkpt lat="45.0769" lon="5.76669">
        <ele>280.65</ele>
        <time>2018-08-25T06:02:03Z</time>
      </trkpt>
      <trkpt lat="45.07668" lon="5.76667">
        <ele>281.41</ele>
        <time>2018-08-25T06:02:04Z</time>
      </trkpt>
      <trkpt lat="45.07645" lon="5.76665">
        <ele>282.34</ele>
        <time>2018-08-25T06:02:05Z</time>
      </trkpt>
      <trkpt lat="45.07623" lon="5.76658">
        <ele>281.92</ele>
        <time>2018-08-25T06:02:06Z</time>
      </trkpt>
      <trkpt lat="45.07601" lon="5.76651">
        <ele>282.5</ele>
        <time>2018-08-25T06:02:07Z</time>
      </trkpt>
      <trkpt lat="45.0758" lon="5.76642">
        <ele>282.67</ele>
        <time>2018-08-25T06:02:08Z</time>
      </trkpt>
      <trkpt lat="45.07558" lon="5.76632">
        <ele>283.42</ele>
        <time>2018-08-25T06:02:09Z</time>
      </trkpt>
      <trkpt lat="45.07538" lon="5.76622">
        <ele>282.94</ele>
        <time>2018-08-25T06:02:10Z</time>
      </trkpt>
      <trkpt lat="45.07517" lon="5.76609">
        <ele>283.5</ele>
        <time>2018-08-25T06:02:11Z</time>
      </trkpt>
      <trkpt lat="45.07496" lon="5.76597">
        <ele>283.67</ele>
        <time>2018-08-25T06:02:12Z</time>
      </trkpt>
      <trkpt lat="45.07476" lon="5.76584">
        <ele>283.72</ele>
        <time>2018-08-25T06:02:13Z</time>
      </trkpt>
      <trkpt lat="45.07457" lon="5.76571">
        <ele>283.73</ele>
        <time>2018-08-25T06:02:14Z</time>
      </trkpt>
      <trkpt lat="45.07437" lon="5.76559">
        <ele>283.74</ele>
        <time>2018-08-25T06:02:15Z</time>
      </trkpt>
      <trkpt lat="45.0742" lon="5.76547">
        <ele>283.74</ele>
        <time>2018-08-25T06:02:16Z</time>
      </trkpt>
      <trkpt lat="45.07402" lon="5.76535">
        <ele>283.74</ele>
        <time>2018-08-25T06:02:17Z</time>
      </trkpt>
      <trkpt lat="45.07384" lon="5.76523">
        <ele>283.74</ele>
        <time>2018-08-25T06:02:18Z</time>
      </trkpt>
      <trkpt lat="45.07367" lon="5.7651">
        <ele>283.74</ele>
        <time>2018-08-25T06:02:19Z</time>
      </trkpt>
      <trkpt lat="45.07349" lon="5.76497">
        <ele>283.74</ele>
        <time>2018-08-25T06:02:20Z</time>
      </trkpt>
      <trkpt lat="45.07331" lon="5.76485">
        <ele>283.74</ele>
        <time>2018-08-25T06:02:21Z</time>
      </trkpt>
      <trkpt lat="45.07313" lon="5.76472">
        <ele>284.44</ele>
        <time>2018-08-25T06:02:22Z</time>
      </trkpt>
      <trkpt lat="45.07296" lon="5.76459">
        <ele>284.65</ele>
        <time>2018-08-25T06:02:23Z</time>
      </trkpt>
      <trkpt lat="45.07277" lon="5.76447">
        <ele>284.71</ele>
        <time>2018-08-25T06:02:24Z</time>
      </trkpt>
      <trkpt lat="45.0726" lon="5.76434">
        <ele>284.73</ele>
        <time>2018-08-25T06:02:25Z</time>
      </trkpt>
      <trkpt lat="45.07242" lon="5.76422">
        <ele>284.74</ele>
        <time>2018-08-25T06:02:26Z</time>
      </trkpt>
      <trkpt lat="45.07224" lon="5.7641">
        <ele>284.74</ele>
        <time>2018-08-25T06:02:27Z</time>
      </trkpt>
      <trkpt lat="45.07206" lon="5.76398">
        <ele>284.74</ele>
        <time>2018-08-25T06:02:28Z</time>
      </trkpt>
      <trkpt lat="45.07188" lon="5.76385">
        <ele>284.74</ele>
        <time>2018-08-25T06:02:29Z</time>
      </trkpt>
      <trkpt lat="45.0717" lon="5.76373">
        <ele>284.74</ele>
        <time>2018-08-25T06:02:30Z</time>
      </trkpt>
      <trkpt lat="45.07153" lon="5.7636">
        <ele>284.04</ele>
        <time>2018-08-25T06:02:31Z</time>
      </trkpt>
      <trkpt lat="45.07135" lon="5.76348">
        <ele>283.83</ele>
        <time>2018-08-25T06:02:32Z</time>
      </trkpt>
      <trkpt lat="45.07117" lon="5.76336">
        <ele>283.77</ele>
        <time>2018-08-25T06:02:33Z</time>
      </trkpt>
      <trkpt lat="45.07099" lon="5.76324">
        <ele>283.75</ele>
        <time>2018-08-25T06:02:34Z</time>
      </trkpt>
      <trkpt lat="45.0708" lon="5.76313">
        <ele>283.04</ele>
        <time>2018-08-25T06:02:35Z</time>
      </trkpt>
      <trkpt lat="45.07061" lon="5.76302">
        <ele>282.83</ele>
        <time>2018-08-25T06:02:36Z</time>
      </trkpt>
      <trkpt lat="45.07043" lon="5.76291">
        <ele>282.77</ele>
        <time>2018-08-25T06:02:37Z</time>
      </trkpt>
      <trkpt lat="45.07024" lon="5.76282">
        <ele>283.45</ele>
        <time>2018-08-25T06:02:38Z</time>
      </trkpt>
      <trkpt lat="45.07005" lon="5.76273">
        <ele>283.65</ele>
        <time>2018-08-25T06:02:39Z</time>
      </trkpt>
      <trkpt lat="45.06985" lon="5.76265">
        <ele>283.71</ele>
        <time>2018-08-25T06:02:40Z</time>
      </trkpt>
      <trkpt lat="45.06966" lon="5.76256">
        <ele>283.73</ele>
        <time>2018-08-25T06:02:41Z</time>
      </trkpt>
      <trkpt lat="45.06947" lon="5.76249">
        <ele>284.44</ele>
        <time>2018-08-25T06:02:42Z</time>
      </trkpt>
      <trkpt lat="45.06927" lon="5.76242">
        <ele>284.65</ele>
        <time>2018-08-25T06:02:43Z</time>
      </trkpt>
      <trkpt lat="45.06907" lon="5.76236">
        <ele>284.71</ele>
        <time>2018-08-25T06:02:44Z</time>
      </trkpt>
      <trkpt lat="45.06887" lon="5.7623">
        <ele>284.73</ele>
        <time>2018-08-25T06:02:45Z</time>
      </trkpt>
      <trkpt lat="45.06868" lon="5.76225">
        <ele>284.74</ele>
        <time>2018-08-25T06:02:46Z</time>
      </trkpt>
      <trkpt lat="45.06848" lon="5.7622">
        <ele>284.74</ele>
        <time>2018-08-25T06:02:47Z</time>
      </trkpt>
      <trkpt lat="45.06827" lon="5.76217">
        <ele>284.74</ele>
        <time>2018-08-25T06:02:48Z</time>
      </trkpt>
      <trkpt lat="45.06807" lon="5.76214">
        <ele>285.44</ele>
        <time>2018-08-25T06:02:49Z</time>
      </trkpt>
      <trkpt lat="45.06787" lon="5.76212">
        <ele>286.35</ele>
        <time>2018-08-25T06:02:50Z</time>
      </trkpt>
      <trkpt lat="45.06767" lon="5.7621">
        <ele>286.62</ele>
        <time>2018-08-25T06:02:51Z</time>
      </trkpt>
      <trkpt lat="45.06748" lon="5.76209">
        <ele>286.71</ele>
        <time>2018-08-25T06:02:52Z</time>
      </trkpt>
      <trkpt lat="45.06727" lon="5.76208">
        <ele>286.73</ele>
        <time>2018-08-25T06:02:53Z</time>
      </trkpt>
      <trkpt lat="45.06707" lon="5.76207">
        <ele>286.74</ele>
        <time>2018-08-25T06:02:54Z</time>
      </trkpt>
      <trkpt lat="45.06687" lon="5.76207">
        <ele>286.74</ele>
        <time>2018-08-25T06:02:55Z</time>
      </trkpt>
      <trkpt lat="45.06667" lon="5.76207">
        <ele>286.74</ele>
        <time>2018-08-25T06:02:56Z</time>
      </trkpt>
      <trkpt lat="45.06647" lon="5.76207">
        <ele>287.44</ele>
        <time>2018-08-25T06:02:57Z</time>
      </trkpt>
      <trkpt lat="45.06626" lon="5.76207">
        <ele>287.65</ele>
        <time>2018-08-25T06:02:58Z</time>
      </trkpt>
      <trkpt lat="45.06606" lon="5.76207">
        <ele>288.41</ele>
        <time>2018-08-25T06:02:59Z</time>
      </trkpt>
      <trkpt lat="45.06585" lon="5.76209">
        <ele>287.94</ele>
        <time>2018-08-25T06:03:00Z</time>
      </trkpt>
      <trkpt lat="45.06566" lon="5.76211">
        <ele>288.5</ele>
        <time>2018-08-25T06:03:01Z</time>
      </trkpt>
      <trkpt lat="45.06545" lon="5.76214">
        <ele>288.67</ele>
        <time>2018-08-25T06:03:02Z</time>
      </trkpt>
      <trkpt lat="45.06525" lon="5.76216">
        <ele>288.72</ele>
        <time>2018-08-25T06:03:03Z</time>
      </trkpt>
      <trkpt lat="45.06506" lon="5.7622">
        <ele>288.73</ele>
        <time>2018-08-25T06:03:04Z</time>
      </trkpt>
      <trkpt lat="45.06486" lon="5.76225">
        <ele>288.74</ele>
        <time>2018-08-25T06:03:05Z</time>
      </trkpt>
      <trkpt lat="45.06467" lon="5.7623">
        <ele>288.74</ele>
        <time>2018-08-25T06:03:06Z</time>
      </trkpt>
      <trkpt lat="45.06447" lon="5.76237">
        <ele>289.44</ele>
        <time>2018-08-25T06:03:07Z</time>
      </trkpt>
      <trkpt lat="45.06427" lon="5.76244">
        <ele>289.65</ele>
        <time>2018-08-25T06:03:08Z</time>
      </trkpt>
      <trkpt lat="45.06407" lon="5.76252">
        <ele>289.01</ele>
        <time>2018-08-25T06:03:09Z</time>
      </trkpt>
      <trkpt lat="45.06388" lon="5.7626">
        <ele>288.82</ele>
        <time>2018-08-25T06:03:10Z</time>
      </trkpt>
      <trkpt lat="45.06369" lon="5.76269">
        <ele>288.77</ele>
        <time>2018-08-25T06:03:11Z</time>
      </trkpt>
      <trkpt lat="45.06349" lon="5.76279">
        <ele>288.75</ele>
        <time>2018-08-25T06:03:12Z</time>
      </trkpt>
      <trkpt lat="45.0633" lon="5.7629">
        <ele>288.74</ele>
        <time>2018-08-25T06:03:13Z</time>
      </trkpt>
      <trkpt lat="45.06312" lon="5.76302">
        <ele>288.74</ele>
        <time>2018-08-25T06:03:14Z</time>
      </trkpt>
      <trkpt lat="45.06292" lon="5.76315">
        <ele>288.74</ele>
        <time>2018-08-25T06:03:15Z</time>
      </trkpt>
      <trkpt lat="45.06275" lon="5.76328">
        <ele>288.74</ele>
        <time>2018-08-25T06:03:16Z</time>
      </trkpt>
      <trkpt lat="45.06256" lon="5.76343">
        <ele>289.44</ele>
        <time>2018-08-25T06:03:17Z</time>
      </trkpt>
      <trkpt lat="45.06239" lon="5.76358">
        <ele>289.65</ele>
        <time>2018-08-25T06:03:18Z</time>
      </trkpt>
      <trkpt lat="45.06221" lon="5.76373">
        <ele>290.41</ele>
        <time>2018-08-25T06:03:19Z</time>
      </trkpt>
      <trkpt lat="45.06205" lon="5.76388">
        <ele>291.34</ele>
        <time>2018-08-25T06:03:20Z</time>
      </trkpt>
      <trkpt lat="45.06189" lon="5.76405">
        <ele>291.62</ele>
        <time>2018-08-25T06:03:21Z</time>
      </trkpt>
      <trkpt lat="45.06173" lon="5.76423">
        <ele>291.71</ele>
        <time>2018-08-25T06:03:22Z</time>
      </trkpt>
      <trkpt lat="45.06158" lon="5.76441">
        <ele>291.73</ele>
        <time>2018-08-25T06:03:23Z</time>
      </trkpt>
      <trkpt lat="45.06142" lon="5.76459">
        <ele>291.74</ele>
        <time>2018-08-25T06:03:24Z</time>
      </trkpt>
      <trkpt lat="45.06127" lon="5.76478">
        <ele>291.74</ele>
        <time>2018-08-25T06:03:25Z</time>
      </trkpt>
      <trkpt lat="45.06113" lon="5.76497">
        <ele>292.44</ele>
        <time>2018-08-25T06:03:26Z</time>
      </trkpt>
      <trkpt lat="45.06099" lon="5.76517">
        <ele>292.65</ele>
        <time>2018-08-25T06:03:27Z</time>
      </trkpt>
      <trkpt lat="45.06084" lon="5.76537">
        <ele>292.71</ele>
        <time>2018-08-25T06:03:28Z</time>
      </trkpt>
      <trkpt lat="45.0607" lon="5.76558">
        <ele>292.73</ele>
        <time>2018-08-25T06:03:29Z</time>
      </trkpt>
      <trkpt lat="45.06057" lon="5.7658">
        <ele>293.44</ele>
        <time>2018-08-25T06:03:30Z</time>
      </trkpt>
      <trkpt lat="45.06044" lon="5.76601">
        <ele>293.65</ele>
        <time>2018-08-25T06:03:31Z</time>
      </trkpt>
      <trkpt lat="45.06031" lon="5.76622">
        <ele>293.71</ele>
        <time>2018-08-25T06:03:32Z</time>
      </trkpt>
      <trkpt lat="45.06017" lon="5.76644">
        <ele>294.43</ele>
        <time>2018-08-25T06:03:33Z</time>
      </trkpt>
      <trkpt lat="45.06004" lon="5.76666">
        <ele>294.65</ele>
        <time>2018-08-25T06:03:34Z</time>
      </trkpt>
      <trkpt lat="45.05991" lon="5.76688">
        <ele>295.41</ele>
        <time>2018-08-25T06:03:35Z</time>
      </trkpt>
      <trkpt lat="45.05978" lon="5.76708">
        <ele>295.64</ele>
        <time>2018-08-25T06:03:36Z</time>
      </trkpt>
      <trkpt lat="45.05956" lon="5.76746">
        <ele>296.64</ele>
        <time>2018-08-25T06:03:38Z</time>
      </trkpt>
      <trkpt lat="45.05935" lon="5.76779">
        <ele>296.73</ele>
        <time>2018-08-25T06:03:40Z</time>
      </trkpt>
      <trkpt lat="45.05916" lon="5.76811">
        <ele>296.74</ele>
        <time>2018-08-25T06:03:42Z</time>
      </trkpt>
      <trkpt lat="45.05896" lon="5.76842">
        <ele>297.44</ele>
        <time>2018-08-25T06:03:44Z</time>
      </trkpt>
      <trkpt lat="45.05877" lon="5.76873">
        <ele>297.71</ele>
        <time>2018-08-25T06:03:46Z</time>
      </trkpt>
      <trkpt lat="45.05857" lon="5.76905">
        <ele>298.44</ele>
        <time>2018-08-25T06:03:48Z</time>
      </trkpt>
      <trkpt lat="45.05838" lon="5.76937">
        <ele>297.8</ele>
        <time>2018-08-25T06:03:50Z</time>
      </trkpt>
      <trkpt lat="45.0582" lon="5.76969">
        <ele>298.66</ele>
        <time>2018-08-25T06:03:52Z</time>
      </trkpt>
      <trkpt lat="45.05801" lon="5.77">
        <ele>299.43</ele>
        <time>2018-08-25T06:03:54Z</time>
      </trkpt>
      <trkpt lat="45.05782" lon="5.77031">
        <ele>299.71</ele>
        <time>2018-08-25T06:03:56Z</time>
      </trkpt>
      <trkpt lat="45.05762" lon="5.77061">
        <ele>299.74</ele>
        <time>2018-08-25T06:03:58Z</time>
      </trkpt>
      <trkpt lat="45.05742" lon="5.77091">
        <ele>299.74</ele>
        <time>2018-08-25T06:04:00Z</time>
      </trkpt>
      <trkpt lat="45.05723" lon="5.77121">
        <ele>300.44</ele>
        <time>2018-08-25T06:04:02Z</time>
      </trkpt>
      <trkpt lat="45.05703" lon="5.77151">
        <ele>301.41</ele>
        <time>2018-08-25T06:04:04Z</time>
      </trkpt>
      <trkpt lat="45.05683" lon="5.77181">
        <ele>301.71</ele>
        <time>2018-08-25T06:04:06Z</time>
      </trkpt>
      <trkpt lat="45.05665" lon="5.77212">
        <ele>301.95</ele>
        <time>2018-08-25T06:04:08Z</time>
      </trkpt>
      <trkpt lat="45.05646" lon="5.77244">
        <ele>301.76</ele>
        <time>2018-08-25T06:04:10Z</time>
      </trkpt>
      <trkpt lat="45.05627" lon="5.77275">
        <ele>302.65</ele>
        <time>2018-08-25T06:04:12Z</time>
      </trkpt>
      <trkpt lat="45.05608" lon="5.77306">
        <ele>303.43</ele>
        <time>2018-08-25T06:04:14Z</time>
      </trkpt>
      <trkpt lat="45.05589" lon="5.77338">
        <ele>303.71</ele>
        <time>2018-08-25T06:04:16Z</time>
      </trkpt>
      <trkpt lat="45.0557" lon="5.7737">
        <ele>305.35</ele>
        <time>2018-08-25T06:04:18Z</time>
      </trkpt>
      <trkpt lat="45.0555" lon="5.77401">
        <ele>305.71</ele>
        <time>2018-08-25T06:04:20Z</time>
      </trkpt>
      <trkpt lat="45.05531" lon="5.77434">
        <ele>306.44</ele>
        <time>2018-08-25T06:04:22Z</time>
      </trkpt>
      <trkpt lat="45.05511" lon="5.77467">
        <ele>307.62</ele>
        <time>2018-08-25T06:04:24Z</time>
      </trkpt>
      <trkpt lat="45.05492" lon="5.775">
        <ele>307.73</ele>
        <time>2018-08-25T06:04:26Z</time>
      </trkpt>
      <trkpt lat="45.05473" lon="5.77533">
        <ele>308.65</ele>
        <time>2018-08-25T06:04:28Z</time>
      </trkpt>
      <trkpt lat="45.05453" lon="5.77567">
        <ele>308.73</ele>
        <time>2018-08-25T06:04:30Z</time>
      </trkpt>
      <trkpt lat="45.05432" lon="5.77599">
        <ele>308.74</ele>
        <time>2018-08-25T06:04:32Z</time>
      </trkpt>
      <trkpt lat="45.05413" lon="5.77632">
        <ele>308.74</ele>
        <time>2018-08-25T06:04:34Z</time>
      </trkpt>
      <trkpt lat="45.05394" lon="5.77665">
        <ele>309.44</ele>
        <time>2018-08-25T06:04:36Z</time>
      </trkpt>
      <trkpt lat="45.05374" lon="5.77697">
        <ele>309.71</ele>
        <time>2018-08-25T06:04:38Z</time>
      </trkpt>
      <trkpt lat="45.05355" lon="5.77729">
        <ele>308.83</ele>
        <time>2018-08-25T06:04:40Z</time>
      </trkpt>
      <trkpt lat="45.05335" lon="5.77762">
        <ele>308.75</ele>
        <time>2018-08-25T06:04:42Z</time>
      </trkpt>
      <trkpt lat="45.05316" lon="5.77795">
        <ele>308.74</ele>
        <time>2018-08-25T06:04:44Z</time>
      </trkpt>
      <trkpt lat="45.05296" lon="5.7783">
        <ele>308.74</ele>
        <time>2018-08-25T06:04:46Z</time>
      </trkpt>
      <trkpt lat="45.05277" lon="5.77863">
        <ele>308.04</ele>
        <time>2018-08-25T06:04:48Z</time>
      </trkpt>
      <trkpt lat="45.05258" lon="5.77897">
        <ele>308.68</ele>
        <time>2018-08-25T06:04:50Z</time>
      </trkpt>
      <trkpt lat="45.05238" lon="5.77932">
        <ele>308.74</ele>
        <time>2018-08-25T06:04:52Z</time>
      </trkpt>
      <trkpt lat="45.05216" lon="5.77969">
        <ele>308.74</ele>
        <time>2018-08-25T06:04:54Z</time>
      </trkpt>
      <trkpt lat="45.05202" lon="5.77991">
        <ele>308.74</ele>
        <time>2018-08-25T06:04:55Z</time>
      </trkpt>
      <trkpt lat="45.05188" lon="5.78014">
        <ele>309.44</ele>
        <time>2018-08-25T06:04:56Z</time>
      </trkpt>
      <trkpt lat="45.05174" lon="5.7804">
        <ele>309.65</ele>
        <time>2018-08-25T06:04:57Z</time>
      </trkpt>
      <trkpt lat="45.05158" lon="5.78066">
        <ele>309.71</ele>
        <time>2018-08-25T06:04:58Z</time>
      </trkpt>
      <trkpt lat="45.05141" lon="5.78092">
        <ele>309.73</ele>
        <time>2018-08-25T06:04:59Z</time>
      </trkpt>
      <trkpt lat="45.05125" lon="5.78118">
        <ele>310.44</ele>
        <time>2018-08-25T06:05:00Z</time>
      </trkpt>
      <trkpt lat="45.05109" lon="5.78142">
        <ele>310.65</ele>
        <time>2018-08-25T06:05:01Z</time>
      </trkpt>
      <trkpt lat="45.05094" lon="5.78165">
        <ele>310.71</ele>
        <time>2018-08-25T06:05:02Z</time>
      </trkpt>
      <trkpt lat="45.0508" lon="5.78189">
        <ele>310.73</ele>
        <time>2018-08-25T06:05:03Z</time>
      </trkpt>
      <trkpt lat="45.05066" lon="5.78212">
        <ele>310.04</ele>
        <time>2018-08-25T06:05:04Z</time>
      </trkpt>
      <trkpt lat="45.05053" lon="5.78235">
        <ele>309.83</ele>
        <time>2018-08-25T06:05:05Z</time>
      </trkpt>
      <trkpt lat="45.05041" lon="5.7826">
        <ele>310.47</ele>
        <time>2018-08-25T06:05:06Z</time>
      </trkpt>
      <trkpt lat="45.05029" lon="5.78285">
        <ele>310.66</ele>
        <time>2018-08-25T06:05:07Z</time>
      </trkpt>
      <trkpt lat="45.0502" lon="5.7831">
        <ele>310.72</ele>
        <time>2018-08-25T06:05:08Z</time>
      </trkpt>
      <trkpt lat="45.05012" lon="5.78336">
        <ele>310.73</ele>
        <time>2018-08-25T06:05:09Z</time>
      </trkpt>
      <trkpt lat="45.05007" lon="5.78362">
        <ele>311.44</ele>
        <time>2018-08-25T06:05:10Z</time>
      </trkpt>
      <trkpt lat="45.05" lon="5.7839">
        <ele>311.65</ele>
        <time>2018-08-25T06:05:11Z</time>
      </trkpt>
      <trkpt lat="45.04995" lon="5.78418">
        <ele>311.71</ele>
        <time>2018-08-25T06:05:12Z</time>
      </trkpt>
      <trkpt lat="45.04991" lon="5.78446">
        <ele>311.73</ele>
        <time>2018-08-25T06:05:13Z</time>
      </trkpt>
      <trkpt lat="45.04987" lon="5.78474">
        <ele>312.44</ele>
        <time>2018-08-25T06:05:14Z</time>
      </trkpt>
      <trkpt lat="45.04984" lon="5.78501">
        <ele>312.65</ele>
        <time>2018-08-25T06:05:15Z</time>
      </trkpt>
      <trkpt lat="45.04982" lon="5.78529">
        <ele>312.71</ele>
        <time>2018-08-25T06:05:16Z</time>
      </trkpt>
      <trkpt lat="45.0498" lon="5.78556">
        <ele>312.73</ele>
        <time>2018-08-25T06:05:17Z</time>
      </trkpt>
      <trkpt lat="45.04978" lon="5.78584">
        <ele>312.74</ele>
        <time>2018-08-25T06:05:18Z</time>
      </trkpt>
      <trkpt lat="45.04977" lon="5.78611">
        <ele>312.04</ele>
        <time>2018-08-25T06:05:19Z</time>
      </trkpt>
      <trkpt lat="45.04975" lon="5.78639">
        <ele>311.83</ele>
        <time>2018-08-25T06:05:20Z</time>
      </trkpt>
      <trkpt lat="45.04975" lon="5.78667">
        <ele>311.77</ele>
        <time>2018-08-25T06:05:21Z</time>
      </trkpt>
      <trkpt lat="45.04976" lon="5.78695">
        <ele>312.45</ele>
        <time>2018-08-25T06:05:22Z</time>
      </trkpt>
      <trkpt lat="45.04979" lon="5.78724">
        <ele>312.65</ele>
        <time>2018-08-25T06:05:23Z</time>
      </trkpt>
      <trkpt lat="45.04982" lon="5.78752">
        <ele>313.41</ele>
        <time>2018-08-25T06:05:24Z</time>
      </trkpt>
      <trkpt lat="45.04985" lon="5.7878">
        <ele>313.64</ele>
        <time>2018-08-25T06:05:25Z</time>
      </trkpt>
      <trkpt lat="45.04988" lon="5.78808">
        <ele>314.41</ele>
        <time>2018-08-25T06:05:26Z</time>
      </trkpt>
      <trkpt lat="45.04989" lon="5.78835">
        <ele>314.64</ele>
        <time>2018-08-25T06:05:27Z</time>
      </trkpt>
      <trkpt lat="45.04992" lon="5.78861">
        <ele>314.71</ele>
        <time>2018-08-25T06:05:28Z</time>
      </trkpt>
      <trkpt lat="45.04997" lon="5.78886">
        <ele>314.73</ele>
        <time>2018-08-25T06:05:29Z</time>
      </trkpt>
      <trkpt lat="45.05004" lon="5.78911">
        <ele>315.44</ele>
        <time>2018-08-25T06:05:30Z</time>
      </trkpt>
      <trkpt lat="45.05012" lon="5.78935">
        <ele>316.35</ele>
        <time>2018-08-25T06:05:31Z</time>
      </trkpt>
      <trkpt lat="45.05023" lon="5.78958">
        <ele>317.32</ele>
        <time>2018-08-25T06:05:32Z</time>
      </trkpt>
      <trkpt lat="45.05033" lon="5.7898">
        <ele>317.62</ele>
        <time>2018-08-25T06:05:33Z</time>
      </trkpt>
      <trkpt lat="45.05043" lon="5.79002">
        <ele>317.7</ele>
        <time>2018-08-25T06:05:34Z</time>
      </trkpt>
      <trkpt lat="45.05053" lon="5.79026">
        <ele>317.73</ele>
        <time>2018-08-25T06:05:35Z</time>
      </trkpt>
      <trkpt lat="45.05064" lon="5.79051">
        <ele>318.44</ele>
        <time>2018-08-25T06:05:36Z</time>
      </trkpt>
      <trkpt lat="45.05075" lon="5.79076">
        <ele>318.65</ele>
        <time>2018-08-25T06:05:37Z</time>
      </trkpt>
      <trkpt lat="45.05086" lon="5.791">
        <ele>319.41</ele>
        <time>2018-08-25T06:05:38Z</time>
      </trkpt>
      <trkpt lat="45.05097" lon="5.79125">
        <ele>319.64</ele>
        <time>2018-08-25T06:05:39Z</time>
      </trkpt>
      <trkpt lat="45.0511" lon="5.79149">
        <ele>320.41</ele>
        <time>2018-08-25T06:05:40Z</time>
      </trkpt>
      <trkpt lat="45.05123" lon="5.79172">
        <ele>320.64</ele>
        <time>2018-08-25T06:05:41Z</time>
      </trkpt>
      <trkpt lat="45.05136" lon="5.79195">
        <ele>320.71</ele>
        <time>2018-08-25T06:05:42Z</time>
      </trkpt>
      <trkpt lat="45.05148" lon="5.79219">
        <ele>320.73</ele>
        <time>2018-08-25T06:05:43Z</time>
      </trkpt>
      <trkpt lat="45.05162" lon="5.79242">
        <ele>320.74</ele>
        <time>2018-08-25T06:05:44Z</time>
      </trkpt>
      <trkpt lat="45.05174" lon="5.79265">
        <ele>321.44</ele>
        <time>2018-08-25T06:05:45Z</time>
      </trkpt>
      <trkpt lat="45.05188" lon="5.79288">
        <ele>321.65</ele>
        <time>2018-08-25T06:05:46Z</time>
      </trkpt>
      <trkpt lat="45.052" lon="5.79312">
        <ele>321.71</ele>
        <time>2018-08-25T06:05:47Z</time>
      </trkpt>
      <trkpt lat="45.05213" lon="5.79336">
        <ele>322.43</ele>
        <time>2018-08-25T06:05:48Z</time>
      </trkpt>
      <trkpt lat="45.05226" lon="5.79359">
        <ele>321.95</ele>
        <time>2018-08-25T06:05:49Z</time>
      </trkpt>
      <trkpt lat="45.05239" lon="5.79381">
        <ele>322.5</ele>
        <time>2018-08-25T06:05:50Z</time>
      </trkpt>
      <trkpt lat="45.05252" lon="5.79403">
        <ele>322.67</ele>
        <time>2018-08-25T06:05:51Z</time>
      </trkpt>
      <trkpt lat="45.05265" lon="5.79425">
        <ele>322.72</ele>
        <time>2018-08-25T06:05:52Z</time>
      </trkpt>
      <trkpt lat="45.05278" lon="5.79447">
        <ele>322.73</ele>
        <time>2018-08-25T06:05:53Z</time>
      </trkpt>
      <trkpt lat="45.05291" lon="5.7947">
        <ele>322.74</ele>
        <time>2018-08-25T06:05:54Z</time>
      </trkpt>
      <trkpt lat="45.05304" lon="5.79493">
        <ele>323.44</ele>
        <time>2018-08-25T06:05:55Z</time>
      </trkpt>
      <trkpt lat="45.05317" lon="5.79516">
        <ele>323.65</ele>
        <time>2018-08-25T06:05:56Z</time>
      </trkpt>
      <trkpt lat="45.05329" lon="5.7954">
        <ele>323.71</ele>
        <time>2018-08-25T06:05:57Z</time>
      </trkpt>
      <trkpt lat="45.0534" lon="5.79564">
        <ele>324.43</ele>
        <time>2018-08-25T06:05:58Z</time>
      </trkpt>
      <trkpt lat="45.05351" lon="5.79589">
        <ele>324.65</ele>
        <time>2018-08-25T06:05:59Z</time>
      </trkpt>
      <trkpt lat="45.05361" lon="5.79613">
        <ele>325.41</ele>
        <time>2018-08-25T06:06:00Z</time>
      </trkpt>
      <trkpt lat="45.05371" lon="5.79637">
        <ele>325.64</ele>
        <time>2018-08-25T06:06:01Z</time>
      </trkpt>
      <trkpt lat="45.05381" lon="5.79662">
        <ele>325.01</ele>
        <time>2018-08-25T06:06:02Z</time>
      </trkpt>
      <trkpt lat="45.05393" lon="5.79689">
        <ele>325.52</ele>
        <time>2018-08-25T06:06:03Z</time>
      </trkpt>
      <trkpt lat="45.05404" lon="5.79713">
        <ele>326.38</ele>
        <time>2018-08-25T06:06:04Z</time>
      </trkpt>
      <trkpt lat="45.05413" lon="5.7974">
        <ele>327.33</ele>
        <time>2018-08-25T06:06:05Z</time>
      </trkpt>
      <trkpt lat="45.05421" lon="5.79766">
        <ele>328.32</ele>
        <time>2018-08-25T06:06:06Z</time>
      </trkpt>
      <trkpt lat="45.05429" lon="5.79792">
        <ele>328.61</ele>
        <time>2018-08-25T06:06:07Z</time>
      </trkpt>
      <trkpt lat="45.05435" lon="5.79817">
        <ele>328.7</ele>
        <time>2018-08-25T06:06:08Z</time>
      </trkpt>
      <trkpt lat="45.05437" lon="5.79869">
        <ele>328.53</ele>
        <time>2018-08-25T06:06:10Z</time>
      </trkpt>
      <trkpt lat="45.05433" lon="5.79895">
        <ele>328.68</ele>
        <time>2018-08-25T06:06:11Z</time>
      </trkpt>
      <trkpt lat="45.05425" lon="5.79922">
        <ele>328.72</ele>
        <time>2018-08-25T06:06:12Z</time>
      </trkpt>
      <trkpt lat="45.05417" lon="5.79951">
        <ele>328.74</ele>
        <time>2018-08-25T06:06:13Z</time>
      </trkpt>
      <trkpt lat="45.0541" lon="5.79981">
        <ele>328.74</ele>
        <time>2018-08-25T06:06:14Z</time>
      </trkpt>
      <trkpt lat="45.05402" lon="5.80014">
        <ele>328.74</ele>
        <time>2018-08-25T06:06:15Z</time>
      </trkpt>
      <trkpt lat="45.05394" lon="5.80046">
        <ele>328.74</ele>
        <time>2018-08-25T06:06:16Z</time>
      </trkpt>
      <trkpt lat="45.05387" lon="5.80079">
        <ele>329.44</ele>
        <time>2018-08-25T06:06:17Z</time>
      </trkpt>
      <trkpt lat="45.05379" lon="5.80111">
        <ele>330.35</ele>
        <time>2018-08-25T06:06:18Z</time>
      </trkpt>
      <trkpt lat="45.05371" lon="5.80142">
        <ele>331.32</ele>
        <time>2018-08-25T06:06:19Z</time>
      </trkpt>
      <trkpt lat="45.05365" lon="5.80174">
        <ele>331.62</ele>
        <time>2018-08-25T06:06:20Z</time>
      </trkpt>
      <trkpt lat="45.05358" lon="5.80204">
        <ele>331.7</ele>
        <time>2018-08-25T06:06:21Z</time>
      </trkpt>
      <trkpt lat="45.05352" lon="5.80235">
        <ele>332.43</ele>
        <time>2018-08-25T06:06:22Z</time>
      </trkpt>
      <trkpt lat="45.05346" lon="5.80265">
        <ele>332.65</ele>
        <time>2018-08-25T06:06:23Z</time>
      </trkpt>
      <trkpt lat="45.0534" lon="5.80296">
        <ele>333.41</ele>
        <time>2018-08-25T06:06:24Z</time>
      </trkpt>
      <trkpt lat="45.05335" lon="5.80328">
        <ele>333.64</ele>
        <time>2018-08-25T06:06:25Z</time>
      </trkpt>
      <trkpt lat="45.05331" lon="5.8036">
        <ele>334.41</ele>
        <time>2018-08-25T06:06:26Z</time>
      </trkpt>
      <trkpt lat="45.0533" lon="5.80393">
        <ele>334.64</ele>
        <time>2018-08-25T06:06:27Z</time>
      </trkpt>
      <trkpt lat="45.0533" lon="5.80426">
        <ele>335.41</ele>
        <time>2018-08-25T06:06:28Z</time>
      </trkpt>
      <trkpt lat="45.05332" lon="5.80459">
        <ele>337.04</ele>
        <time>2018-08-25T06:06:29Z</time>
      </trkpt>
      <trkpt lat="45.05336" lon="5.80492">
        <ele>338.93</ele>
        <time>2018-08-25T06:06:30Z</time>
      </trkpt>
      <trkpt lat="45.05341" lon="5.80524">
        <ele>339.5</ele>
        <time>2018-08-25T06:06:31Z</time>
      </trkpt>
      <trkpt lat="45.05349" lon="5.80555">
        <ele>340.37</ele>
        <time>2018-08-25T06:06:32Z</time>
      </trkpt>
      <trkpt lat="45.05357" lon="5.80586">
        <ele>341.33</ele>
        <time>2018-08-25T06:06:33Z</time>
      </trkpt>
      <trkpt lat="45.05365" lon="5.80617">
        <ele>343.02</ele>
        <time>2018-08-25T06:06:34Z</time>
      </trkpt>
      <trkpt lat="45.05373" lon="5.80647">
        <ele>344.22</ele>
        <time>2018-08-25T06:06:35Z</time>
      </trkpt>
      <trkpt lat="45.05381" lon="5.80678">
        <ele>345.29</ele>
        <time>2018-08-25T06:06:36Z</time>
      </trkpt>
      <trkpt lat="45.05388" lon="5.80708">
        <ele>346.3</ele>
        <time>2018-08-25T06:06:37Z</time>
      </trkpt>
      <trkpt lat="45.05396" lon="5.80737">
        <ele>347.31</ele>
        <time>2018-08-25T06:06:38Z</time>
      </trkpt>
      <trkpt lat="45.05404" lon="5.80767">
        <ele>349.01</ele>
        <time>2018-08-25T06:06:39Z</time>
      </trkpt>
      <trkpt lat="45.05411" lon="5.80796">
        <ele>350.22</ele>
        <time>2018-08-25T06:06:40Z</time>
      </trkpt>
      <trkpt lat="45.05419" lon="5.80826">
        <ele>351.29</ele>
        <time>2018-08-25T06:06:41Z</time>
      </trkpt>
      <trkpt lat="45.05427" lon="5.80856">
        <ele>352.3</ele>
        <time>2018-08-25T06:06:42Z</time>
      </trkpt>
      <trkpt lat="45.05435" lon="5.80885">
        <ele>354.01</ele>
        <time>2018-08-25T06:06:43Z</time>
      </trkpt>
      <trkpt lat="45.05442" lon="5.80914">
        <ele>355.22</ele>
        <time>2018-08-25T06:06:44Z</time>
      </trkpt>
      <trkpt lat="45.05449" lon="5.80943">
        <ele>355.59</ele>
        <time>2018-08-25T06:06:45Z</time>
      </trkpt>
      <trkpt lat="45.05455" lon="5.80972">
        <ele>355.69</ele>
        <time>2018-08-25T06:06:46Z</time>
      </trkpt>
      <trkpt lat="45.0546" lon="5.81002">
        <ele>355.73</ele>
        <time>2018-08-25T06:06:47Z</time>
      </trkpt>
      <trkpt lat="45.05462" lon="5.81033">
        <ele>355.74</ele>
        <time>2018-08-25T06:06:48Z</time>
      </trkpt>
      <trkpt lat="45.05466" lon="5.81063">
        <ele>356.44</ele>
        <time>2018-08-25T06:06:49Z</time>
      </trkpt>
      <trkpt lat="45.0546" lon="5.81093">
        <ele>355.95</ele>
        <time>2018-08-25T06:06:50Z</time>
      </trkpt>
      <trkpt lat="45.05458" lon="5.81124">
        <ele>355.8</ele>
        <time>2018-08-25T06:06:51Z</time>
      </trkpt>
      <trkpt lat="45.05449" lon="5.81154">
        <ele>355.76</ele>
        <time>2018-08-25T06:06:52Z</time>
      </trkpt>
      <trkpt lat="45.05444" lon="5.81182">
        <ele>355.75</ele>
        <time>2018-08-25T06:06:53Z</time>
      </trkpt>
      <trkpt lat="45.05439" lon="5.8121">
        <ele>355.74</ele>
        <time>2018-08-25T06:06:54Z</time>
      </trkpt>
      <trkpt lat="45.05434" lon="5.81239">
        <ele>354.34</ele>
        <time>2018-08-25T06:06:55Z</time>
      </trkpt>
      <trkpt lat="45.05431" lon="5.81267">
        <ele>353.22</ele>
        <time>2018-08-25T06:06:56Z</time>
      </trkpt>
      <trkpt lat="45.05428" lon="5.81295">
        <ele>352.19</ele>
        <time>2018-08-25T06:06:57Z</time>
      </trkpt>
      <trkpt lat="45.05425" lon="5.81324">
        <ele>351.87</ele>
        <time>2018-08-25T06:06:58Z</time>
      </trkpt>
      <trkpt lat="45.05424" lon="5.8135">
        <ele>351.08</ele>
        <time>2018-08-25T06:06:59Z</time>
      </trkpt>
      <trkpt lat="45.05425" lon="5.81378">
        <ele>349.44</ele>
        <time>2018-08-25T06:07:00Z</time>
      </trkpt>
      <trkpt lat="45.05425" lon="5.81406">
        <ele>348.25</ele>
        <time>2018-08-25T06:07:01Z</time>
      </trkpt>
      <trkpt lat="45.05425" lon="5.81434">
        <ele>347.19</ele>
        <time>2018-08-25T06:07:02Z</time>
      </trkpt>
      <trkpt lat="45.05424" lon="5.81462">
        <ele>346.88</ele>
        <time>2018-08-25T06:07:03Z</time>
      </trkpt>
      <trkpt lat="45.05423" lon="5.81491">
        <ele>346.08</ele>
        <time>2018-08-25T06:07:04Z</time>
      </trkpt>
      <trkpt lat="45.05422" lon="5.81519">
        <ele>345.14</ele>
        <time>2018-08-25T06:07:05Z</time>
      </trkpt>
      <trkpt lat="45.0542" lon="5.81548">
        <ele>344.86</ele>
        <time>2018-08-25T06:07:06Z</time>
      </trkpt>
      <trkpt lat="45.05417" lon="5.81576">
        <ele>344.08</ele>
        <time>2018-08-25T06:07:07Z</time>
      </trkpt>
      <trkpt lat="45.05415" lon="5.81604">
        <ele>344.54</ele>
        <time>2018-08-25T06:07:08Z</time>
      </trkpt>
      <trkpt lat="45.05412" lon="5.81632">
        <ele>343.98</ele>
        <time>2018-08-25T06:07:09Z</time>
      </trkpt>
      <trkpt lat="45.05409" lon="5.81659">
        <ele>343.81</ele>
        <time>2018-08-25T06:07:10Z</time>
      </trkpt>
      <trkpt lat="45.05406" lon="5.81687">
        <ele>343.06</ele>
        <time>2018-08-25T06:07:11Z</time>
      </trkpt>
      <trkpt lat="45.05402" lon="5.81715">
        <ele>342.84</ele>
        <time>2018-08-25T06:07:12Z</time>
      </trkpt>
      <trkpt lat="45.05399" lon="5.81743">
        <ele>342.77</ele>
        <time>2018-08-25T06:07:13Z</time>
      </trkpt>
      <trkpt lat="45.05396" lon="5.81771">
        <ele>343.45</ele>
        <time>2018-08-25T06:07:14Z</time>
      </trkpt>
      <trkpt lat="45.05392" lon="5.818">
        <ele>343.65</ele>
        <time>2018-08-25T06:07:15Z</time>
      </trkpt>
      <trkpt lat="45.05389" lon="5.81828">
        <ele>343.71</ele>
        <time>2018-08-25T06:07:16Z</time>
      </trkpt>
      <trkpt lat="45.05386" lon="5.81857">
        <ele>343.03</ele>
        <time>2018-08-25T06:07:17Z</time>
      </trkpt>
      <trkpt lat="45.05383" lon="5.81886">
        <ele>343.53</ele>
        <time>2018-08-25T06:07:18Z</time>
      </trkpt>
      <trkpt lat="45.05379" lon="5.81916">
        <ele>343.68</ele>
        <time>2018-08-25T06:07:19Z</time>
      </trkpt>
      <trkpt lat="45.05376" lon="5.81946">
        <ele>344.42</ele>
        <time>2018-08-25T06:07:20Z</time>
      </trkpt>
      <trkpt lat="45.05372" lon="5.81976">
        <ele>344.65</ele>
        <time>2018-08-25T06:07:21Z</time>
      </trkpt>
      <trkpt lat="45.05369" lon="5.82005">
        <ele>345.41</ele>
        <time>2018-08-25T06:07:22Z</time>
      </trkpt>
      <trkpt lat="45.05366" lon="5.82033">
        <ele>345.64</ele>
        <time>2018-08-25T06:07:23Z</time>
      </trkpt>
      <trkpt lat="45.05362" lon="5.82062">
        <ele>345.71</ele>
        <time>2018-08-25T06:07:24Z</time>
      </trkpt>
      <trkpt lat="45.05359" lon="5.8209">
        <ele>346.43</ele>
        <time>2018-08-25T06:07:25Z</time>
      </trkpt>
      <trkpt lat="45.05356" lon="5.82118">
        <ele>346.65</ele>
        <time>2018-08-25T06:07:26Z</time>
      </trkpt>
      <trkpt lat="45.05352" lon="5.82146">
        <ele>346.71</ele>
        <time>2018-08-25T06:07:27Z</time>
      </trkpt>
      <trkpt lat="45.05349" lon="5.82175">
        <ele>346.73</ele>
        <time>2018-08-25T06:07:28Z</time>
      </trkpt>
      <trkpt lat="45.05345" lon="5.82202">
        <ele>346.74</ele>
        <time>2018-08-25T06:07:29Z</time>
      </trkpt>
      <trkpt lat="45.05341" lon="5.82231">
        <ele>347.44</ele>
        <time>2018-08-25T06:07:30Z</time>
      </trkpt>
      <trkpt lat="45.05339" lon="5.8226">
        <ele>347.65</ele>
        <time>2018-08-25T06:07:31Z</time>
      </trkpt>
      <trkpt lat="45.05336" lon="5.82289">
        <ele>347.71</ele>
        <time>2018-08-25T06:07:32Z</time>
      </trkpt>
      <trkpt lat="45.05334" lon="5.82317">
        <ele>347.73</ele>
        <time>2018-08-25T06:07:33Z</time>
      </trkpt>
      <trkpt lat="45.0533" lon="5.82346">
        <ele>348.44</ele>
        <time>2018-08-25T06:07:34Z</time>
      </trkpt>
      <trkpt lat="45.05327" lon="5.82375">
        <ele>348.65</ele>
        <time>2018-08-25T06:07:35Z</time>
      </trkpt>
      <trkpt lat="45.05323" lon="5.82404">
        <ele>348.71</ele>
        <time>2018-08-25T06:07:36Z</time>
      </trkpt>
      <trkpt lat="45.0532" lon="5.82434">
        <ele>349.43</ele>
        <time>2018-08-25T06:07:37Z</time>
      </trkpt>
      <trkpt lat="45.05317" lon="5.82464">
        <ele>349.65</ele>
        <time>2018-08-25T06:07:38Z</time>
      </trkpt>
      <trkpt lat="45.05313" lon="5.82494">
        <ele>350.41</ele>
        <time>2018-08-25T06:07:39Z</time>
      </trkpt>
      <trkpt lat="45.05309" lon="5.82524">
        <ele>350.64</ele>
        <time>2018-08-25T06:07:40Z</time>
      </trkpt>
      <trkpt lat="45.05306" lon="5.82554">
        <ele>350.71</ele>
        <time>2018-08-25T06:07:41Z</time>
      </trkpt>
      <trkpt lat="45.05303" lon="5.82584">
        <ele>350.73</ele>
        <time>2018-08-25T06:07:42Z</time>
      </trkpt>
      <trkpt lat="45.053" lon="5.82614">
        <ele>351.44</ele>
        <time>2018-08-25T06:07:43Z</time>
      </trkpt>
      <trkpt lat="45.05297" lon="5.82643">
        <ele>351.65</ele>
        <time>2018-08-25T06:07:44Z</time>
      </trkpt>
      <trkpt lat="45.05294" lon="5.82672">
        <ele>352.41</ele>
        <time>2018-08-25T06:07:45Z</time>
      </trkpt>
      <trkpt lat="45.05292" lon="5.82701">
        <ele>352.64</ele>
        <time>2018-08-25T06:07:46Z</time>
      </trkpt>
      <trkpt lat="45.05289" lon="5.8273">
        <ele>353.41</ele>
        <time>2018-08-25T06:07:47Z</time>
      </trkpt>
      <trkpt lat="45.05286" lon="5.82759">
        <ele>353.64</ele>
        <time>2018-08-25T06:07:48Z</time>
      </trkpt>
      <trkpt lat="45.05283" lon="5.82788">
        <ele>354.41</ele>
        <time>2018-08-25T06:07:49Z</time>
      </trkpt>
      <trkpt lat="45.05279" lon="5.82817">
        <ele>354.64</ele>
        <time>2018-08-25T06:07:50Z</time>
      </trkpt>
      <trkpt lat="45.05276" lon="5.82847">
        <ele>354.71</ele>
        <time>2018-08-25T06:07:51Z</time>
      </trkpt>
      <trkpt lat="45.05272" lon="5.82876">
        <ele>355.43</ele>
        <time>2018-08-25T06:07:52Z</time>
      </trkpt>
      <trkpt lat="45.05269" lon="5.82905">
        <ele>355.65</ele>
        <time>2018-08-25T06:07:53Z</time>
      </trkpt>
      <trkpt lat="45.05265" lon="5.82935">
        <ele>355.71</ele>
        <time>2018-08-25T06:07:54Z</time>
      </trkpt>
      <trkpt lat="45.05261" lon="5.82963">
        <ele>356.43</ele>
        <time>2018-08-25T06:07:55Z</time>
      </trkpt>
      <trkpt lat="45.05258" lon="5.82993">
        <ele>356.65</ele>
        <time>2018-08-25T06:07:56Z</time>
      </trkpt>
      <trkpt lat="45.05254" lon="5.83021">
        <ele>356.71</ele>
        <time>2018-08-25T06:07:57Z</time>
      </trkpt>
      <trkpt lat="45.05249" lon="5.83049">
        <ele>356.73</ele>
        <time>2018-08-25T06:07:58Z</time>
      </trkpt>
      <trkpt lat="45.05242" lon="5.83077">
        <ele>357.44</ele>
        <time>2018-08-25T06:07:59Z</time>
      </trkpt>
      <trkpt lat="45.05235" lon="5.83104">
        <ele>358.35</ele>
        <time>2018-08-25T06:08:00Z</time>
      </trkpt>
      <trkpt lat="45.05226" lon="5.83131">
        <ele>358.62</ele>
        <time>2018-08-25T06:08:01Z</time>
      </trkpt>
      <trkpt lat="45.05217" lon="5.83156">
        <ele>358.71</ele>
        <time>2018-08-25T06:08:02Z</time>
      </trkpt>
      <trkpt lat="45.05207" lon="5.83182">
        <ele>358.73</ele>
        <time>2018-08-25T06:08:03Z</time>
      </trkpt>
      <trkpt lat="45.05197" lon="5.83207">
        <ele>359.44</ele>
        <time>2018-08-25T06:08:04Z</time>
      </trkpt>
      <trkpt lat="45.05187" lon="5.83233">
        <ele>359.65</ele>
        <time>2018-08-25T06:08:05Z</time>
      </trkpt>
      <trkpt lat="45.05179" lon="5.8326">
        <ele>360.41</ele>
        <time>2018-08-25T06:08:06Z</time>
      </trkpt>
      <trkpt lat="45.05172" lon="5.83286">
        <ele>360.64</ele>
        <time>2018-08-25T06:08:07Z</time>
      </trkpt>
      <trkpt lat="45.05165" lon="5.83314">
        <ele>361.41</ele>
        <time>2018-08-25T06:08:08Z</time>
      </trkpt>
      <trkpt lat="45.0516" lon="5.83342">
        <ele>361.64</ele>
        <time>2018-08-25T06:08:09Z</time>
      </trkpt>
      <trkpt lat="45.05157" lon="5.83371">
        <ele>361.71</ele>
        <time>2018-08-25T06:08:10Z</time>
      </trkpt>
      <trkpt lat="45.05155" lon="5.83399">
        <ele>361.73</ele>
        <time>2018-08-25T06:08:11Z</time>
      </trkpt>
      <trkpt lat="45.05156" lon="5.83428">
        <ele>361.74</ele>
        <time>2018-08-25T06:08:12Z</time>
      </trkpt>
      <trkpt lat="45.05158" lon="5.83457">
        <ele>362.44</ele>
        <time>2018-08-25T06:08:13Z</time>
      </trkpt>
      <trkpt lat="45.0516" lon="5.83486">
        <ele>362.65</ele>
        <time>2018-08-25T06:08:14Z</time>
      </trkpt>
      <trkpt lat="45.05165" lon="5.83515">
        <ele>362.71</ele>
        <time>2018-08-25T06:08:15Z</time>
      </trkpt>
      <trkpt lat="45.05173" lon="5.83544">
        <ele>363.43</ele>
        <time>2018-08-25T06:08:16Z</time>
      </trkpt>
      <trkpt lat="45.05181" lon="5.83571">
        <ele>363.65</ele>
        <time>2018-08-25T06:08:17Z</time>
      </trkpt>
      <trkpt lat="45.05191" lon="5.83598">
        <ele>364.41</ele>
        <time>2018-08-25T06:08:18Z</time>
      </trkpt>
      <trkpt lat="45.05201" lon="5.83624">
        <ele>364.64</ele>
        <time>2018-08-25T06:08:19Z</time>
      </trkpt>
      <trkpt lat="45.05213" lon="5.83649">
        <ele>365.41</ele>
        <time>2018-08-25T06:08:20Z</time>
      </trkpt>
      <trkpt lat="45.05226" lon="5.83672">
        <ele>364.94</ele>
        <time>2018-08-25T06:08:21Z</time>
      </trkpt>
      <trkpt lat="45.05241" lon="5.83694">
        <ele>365.5</ele>
        <time>2018-08-25T06:08:22Z</time>
      </trkpt>
      <trkpt lat="45.05256" lon="5.83714">
        <ele>365.67</ele>
        <time>2018-08-25T06:08:23Z</time>
      </trkpt>
      <trkpt lat="45.05272" lon="5.83735">
        <ele>366.42</ele>
        <time>2018-08-25T06:08:24Z</time>
      </trkpt>
      <trkpt lat="45.05287" lon="5.83755">
        <ele>367.34</ele>
        <time>2018-08-25T06:08:25Z</time>
      </trkpt>
      <trkpt lat="45.05303" lon="5.83774">
        <ele>367.62</ele>
        <time>2018-08-25T06:08:26Z</time>
      </trkpt>
      <trkpt lat="45.05317" lon="5.83794">
        <ele>368.41</ele>
        <time>2018-08-25T06:08:27Z</time>
      </trkpt>
      <trkpt lat="45.05333" lon="5.83814">
        <ele>368.64</ele>
        <time>2018-08-25T06:08:28Z</time>
      </trkpt>
      <trkpt lat="45.05347" lon="5.83834">
        <ele>369.41</ele>
        <time>2018-08-25T06:08:29Z</time>
      </trkpt>
      <trkpt lat="45.05361" lon="5.83855">
        <ele>369.64</ele>
        <time>2018-08-25T06:08:30Z</time>
      </trkpt>
      <trkpt lat="45.05371" lon="5.83878">
        <ele>370.41</ele>
        <time>2018-08-25T06:08:31Z</time>
      </trkpt>
      <trkpt lat="45.05383" lon="5.83902">
        <ele>371.34</ele>
        <time>2018-08-25T06:08:32Z</time>
      </trkpt>
      <trkpt lat="45.0539" lon="5.83927">
        <ele>371.62</ele>
        <time>2018-08-25T06:08:33Z</time>
      </trkpt>
      <trkpt lat="45.05399" lon="5.83955">
        <ele>371.01</ele>
        <time>2018-08-25T06:08:34Z</time>
      </trkpt>
      <trkpt lat="45.05398" lon="5.83983">
        <ele>371.52</ele>
        <time>2018-08-25T06:08:35Z</time>
      </trkpt>
      <trkpt lat="45.05398" lon="5.8401">
        <ele>372.37</ele>
        <time>2018-08-25T06:08:36Z</time>
      </trkpt>
      <trkpt lat="45.05401" lon="5.84036">
        <ele>372.63</ele>
        <time>2018-08-25T06:08:37Z</time>
      </trkpt>
      <trkpt lat="45.05406" lon="5.84063">
        <ele>373.41</ele>
        <time>2018-08-25T06:08:38Z</time>
      </trkpt>
      <trkpt lat="45.05412" lon="5.8409">
        <ele>374.34</ele>
        <time>2018-08-25T06:08:39Z</time>
      </trkpt>
      <trkpt lat="45.0542" lon="5.84118">
        <ele>375.32</ele>
        <time>2018-08-25T06:08:40Z</time>
      </trkpt>
      <trkpt lat="45.05425" lon="5.84147">
        <ele>375.62</ele>
        <time>2018-08-25T06:08:41Z</time>
      </trkpt>
      <trkpt lat="45.0543" lon="5.84176">
        <ele>375.7</ele>
        <time>2018-08-25T06:08:42Z</time>
      </trkpt>
      <trkpt lat="45.05433" lon="5.84205">
        <ele>376.43</ele>
        <time>2018-08-25T06:08:43Z</time>
      </trkpt>
      <trkpt lat="45.05438" lon="5.84234">
        <ele>376.65</ele>
        <time>2018-08-25T06:08:44Z</time>
      </trkpt>
      <trkpt lat="45.05443" lon="5.84262">
        <ele>376.71</ele>
        <time>2018-08-25T06:08:45Z</time>
      </trkpt>
      <trkpt lat="45.05448" lon="5.84291">
        <ele>376.73</ele>
        <time>2018-08-25T06:08:46Z</time>
      </trkpt>
      <trkpt lat="45.05451" lon="5.8432">
        <ele>377.44</ele>
        <time>2018-08-25T06:08:47Z</time>
      </trkpt>
      <trkpt lat="45.05456" lon="5.84349">
        <ele>377.65</ele>
        <time>2018-08-25T06:08:48Z</time>
      </trkpt>
      <trkpt lat="45.0546" lon="5.84378">
        <ele>378.41</ele>
        <time>2018-08-25T06:08:49Z</time>
      </trkpt>
      <trkpt lat="45.05464" lon="5.84408">
        <ele>378.64</ele>
        <time>2018-08-25T06:08:50Z</time>
      </trkpt>
      <trkpt lat="45.05469" lon="5.84438">
        <ele>378.71</ele>
        <time>2018-08-25T06:08:51Z</time>
      </trkpt>
      <trkpt lat="45.0547" lon="5.84468">
        <ele>379.43</ele>
        <time>2018-08-25T06:08:52Z</time>
      </trkpt>
      <trkpt lat="45.0547" lon="5.84498">
        <ele>379.65</ele>
        <time>2018-08-25T06:08:53Z</time>
      </trkpt>
      <trkpt lat="45.0547" lon="5.84528">
        <ele>379.71</ele>
        <time>2018-08-25T06:08:54Z</time>
      </trkpt>
      <trkpt lat="45.0547" lon="5.84557">
        <ele>379.73</ele>
        <time>2018-08-25T06:08:55Z</time>
      </trkpt>
      <trkpt lat="45.05469" lon="5.84587">
        <ele>379.74</ele>
        <time>2018-08-25T06:08:56Z</time>
      </trkpt>
      <trkpt lat="45.05469" lon="5.84617">
        <ele>379.74</ele>
        <time>2018-08-25T06:08:57Z</time>
      </trkpt>
      <trkpt lat="45.05467" lon="5.84646">
        <ele>379.74</ele>
        <time>2018-08-25T06:08:58Z</time>
      </trkpt>
      <trkpt lat="45.05465" lon="5.84676">
        <ele>379.74</ele>
        <time>2018-08-25T06:08:59Z</time>
      </trkpt>
      <trkpt lat="45.05466" lon="5.84706">
        <ele>379.74</ele>
        <time>2018-08-25T06:09:00Z</time>
      </trkpt>
      <trkpt lat="45.05464" lon="5.84736">
        <ele>379.74</ele>
        <time>2018-08-25T06:09:01Z</time>
      </trkpt>
      <trkpt lat="45.05465" lon="5.84766">
        <ele>379.74</ele>
        <time>2018-08-25T06:09:02Z</time>
      </trkpt>
      <trkpt lat="45.05465" lon="5.84796">
        <ele>380.44</ele>
        <time>2018-08-25T06:09:03Z</time>
      </trkpt>
      <trkpt lat="45.05466" lon="5.84826">
        <ele>380.65</ele>
        <time>2018-08-25T06:09:04Z</time>
      </trkpt>
      <trkpt lat="45.05466" lon="5.84856">
        <ele>381.41</ele>
        <time>2018-08-25T06:09:05Z</time>
      </trkpt>
      <trkpt lat="45.05467" lon="5.84886">
        <ele>382.34</ele>
        <time>2018-08-25T06:09:06Z</time>
      </trkpt>
      <trkpt lat="45.05466" lon="5.84914">
        <ele>382.62</ele>
        <time>2018-08-25T06:09:07Z</time>
      </trkpt>
      <trkpt lat="45.05463" lon="5.84943">
        <ele>383.41</ele>
        <time>2018-08-25T06:09:08Z</time>
      </trkpt>
      <trkpt lat="45.0546" lon="5.84971">
        <ele>384.34</ele>
        <time>2018-08-25T06:09:09Z</time>
      </trkpt>
      <trkpt lat="45.05454" lon="5.84997">
        <ele>384.62</ele>
        <time>2018-08-25T06:09:10Z</time>
      </trkpt>
      <trkpt lat="45.05445" lon="5.85019">
        <ele>384.7</ele>
        <time>2018-08-25T06:09:11Z</time>
      </trkpt>
      <trkpt lat="45.05416" lon="5.85053">
        <ele>386.35</ele>
        <time>2018-08-25T06:09:13Z</time>
      </trkpt>
      <trkpt lat="45.05389" lon="5.85064">
        <ele>387.32</ele>
        <time>2018-08-25T06:09:14Z</time>
      </trkpt>
      <trkpt lat="45.05372" lon="5.85081">
        <ele>389.02</ele>
        <time>2018-08-25T06:09:15Z</time>
      </trkpt>
      <trkpt lat="45.05359" lon="5.85102">
        <ele>390.92</ele>
        <time>2018-08-25T06:09:16Z</time>
      </trkpt>
      <trkpt lat="45.05349" lon="5.85126">
        <ele>391.5</ele>
        <time>2018-08-25T06:09:17Z</time>
      </trkpt>
      <trkpt lat="45.05343" lon="5.85153">
        <ele>391.67</ele>
        <time>2018-08-25T06:09:18Z</time>
      </trkpt>
      <trkpt lat="45.05338" lon="5.8518">
        <ele>391.72</ele>
        <time>2018-08-25T06:09:19Z</time>
      </trkpt>
      <trkpt lat="45.05333" lon="5.85207">
        <ele>391.73</ele>
        <time>2018-08-25T06:09:20Z</time>
      </trkpt>
      <trkpt lat="45.0533" lon="5.85232">
        <ele>391.74</ele>
        <time>2018-08-25T06:09:21Z</time>
      </trkpt>
      <trkpt lat="45.0533" lon="5.85258">
        <ele>392.44</ele>
        <time>2018-08-25T06:09:22Z</time>
      </trkpt>
      <trkpt lat="45.05348" lon="5.8529">
        <ele>393.35</ele>
        <time>2018-08-25T06:09:23Z</time>
      </trkpt>
      <trkpt lat="45.05362" lon="5.85321">
        <ele>394.32</ele>
        <time>2018-08-25T06:09:24Z</time>
      </trkpt>
      <trkpt lat="45.05371" lon="5.85352">
        <ele>395.32</ele>
        <time>2018-08-25T06:09:25Z</time>
      </trkpt>
      <trkpt lat="45.05382" lon="5.85385">
        <ele>395.61</ele>
        <time>2018-08-25T06:09:26Z</time>
      </trkpt>
      <trkpt lat="45.0539" lon="5.85417">
        <ele>395.7</ele>
        <time>2018-08-25T06:09:27Z</time>
      </trkpt>
      <trkpt lat="45.05397" lon="5.8545">
        <ele>395.73</ele>
        <time>2018-08-25T06:09:28Z</time>
      </trkpt>
      <trkpt lat="45.05404" lon="5.85484">
        <ele>395.74</ele>
        <time>2018-08-25T06:09:29Z</time>
      </trkpt>
      <trkpt lat="45.0541" lon="5.85517">
        <ele>396.44</ele>
        <time>2018-08-25T06:09:30Z</time>
      </trkpt>
      <trkpt lat="45.05416" lon="5.8555">
        <ele>397.35</ele>
        <time>2018-08-25T06:09:31Z</time>
      </trkpt>
      <trkpt lat="45.05423" lon="5.85582">
        <ele>397.62</ele>
        <time>2018-08-25T06:09:32Z</time>
      </trkpt>
      <trkpt lat="45.0543" lon="5.85615">
        <ele>398.41</ele>
        <time>2018-08-25T06:09:33Z</time>
      </trkpt>
      <trkpt lat="45.05437" lon="5.85647">
        <ele>399.34</ele>
        <time>2018-08-25T06:09:34Z</time>
      </trkpt>
      <trkpt lat="45.05444" lon="5.85679">
        <ele>400.32</ele>
        <time>2018-08-25T06:09:35Z</time>
      </trkpt>
      <trkpt lat="45.05453" lon="5.85711">
        <ele>401.31</ele>
        <time>2018-08-25T06:09:36Z</time>
      </trkpt>
      <trkpt lat="45.05462" lon="5.85742">
        <ele>402.31</ele>
        <time>2018-08-25T06:09:37Z</time>
      </trkpt>
      <trkpt lat="45.05473" lon="5.8577">
        <ele>402.61</ele>
        <time>2018-08-25T06:09:38Z</time>
      </trkpt>
      <trkpt lat="45.05486" lon="5.85797">
        <ele>403.4</ele>
        <time>2018-08-25T06:09:39Z</time>
      </trkpt>
      <trkpt lat="45.05501" lon="5.85822">
        <ele>404.34</ele>
        <time>2018-08-25T06:09:40Z</time>
      </trkpt>
      <trkpt lat="45.05516" lon="5.85845">
        <ele>404.62</ele>
        <time>2018-08-25T06:09:41Z</time>
      </trkpt>
      <trkpt lat="45.05534" lon="5.85866">
        <ele>404.7</ele>
        <time>2018-08-25T06:09:42Z</time>
      </trkpt>
      <trkpt lat="45.05554" lon="5.85885">
        <ele>404.73</ele>
        <time>2018-08-25T06:09:43Z</time>
      </trkpt>
      <trkpt lat="45.05573" lon="5.85905">
        <ele>405.44</ele>
        <time>2018-08-25T06:09:44Z</time>
      </trkpt>
      <trkpt lat="45.05593" lon="5.85924">
        <ele>406.35</ele>
        <time>2018-08-25T06:09:45Z</time>
      </trkpt>
      <trkpt lat="45.05613" lon="5.85945">
        <ele>407.32</ele>
        <time>2018-08-25T06:09:46Z</time>
      </trkpt>
      <trkpt lat="45.05634" lon="5.85965">
        <ele>408.32</ele>
        <time>2018-08-25T06:09:47Z</time>
      </trkpt>
      <trkpt lat="45.05654" lon="5.85985">
        <ele>408.61</ele>
        <time>2018-08-25T06:09:48Z</time>
      </trkpt>
      <trkpt lat="45.05673" lon="5.86006">
        <ele>409.4</ele>
        <time>2018-08-25T06:09:49Z</time>
      </trkpt>
      <trkpt lat="45.05693" lon="5.86026">
        <ele>409.64</ele>
        <time>2018-08-25T06:09:50Z</time>
      </trkpt>
      <trkpt lat="45.05713" lon="5.86046">
        <ele>410.41</ele>
        <time>2018-08-25T06:09:51Z</time>
      </trkpt>
      <trkpt lat="45.05733" lon="5.86066">
        <ele>410.64</ele>
        <time>2018-08-25T06:09:52Z</time>
      </trkpt>
      <trkpt lat="45.05751" lon="5.86086">
        <ele>410.71</ele>
        <time>2018-08-25T06:09:53Z</time>
      </trkpt>
      <trkpt lat="45.05771" lon="5.86106">
        <ele>410.73</ele>
        <time>2018-08-25T06:09:54Z</time>
      </trkpt>
      <trkpt lat="45.05791" lon="5.86126">
        <ele>411.44</ele>
        <time>2018-08-25T06:09:55Z</time>
      </trkpt>
      <trkpt lat="45.0581" lon="5.86146">
        <ele>412.35</ele>
        <time>2018-08-25T06:09:56Z</time>
      </trkpt>
      <trkpt lat="45.0583" lon="5.86165">
        <ele>413.32</ele>
        <time>2018-08-25T06:09:57Z</time>
      </trkpt>
      <trkpt lat="45.05849" lon="5.86185">
        <ele>413.62</ele>
        <time>2018-08-25T06:09:58Z</time>
      </trkpt>
      <trkpt lat="45.05868" lon="5.86205">
        <ele>413.7</ele>
        <time>2018-08-25T06:09:59Z</time>
      </trkpt>
      <trkpt lat="45.05887" lon="5.86224">
        <ele>414.43</ele>
        <time>2018-08-25T06:10:00Z</time>
      </trkpt>
      <trkpt lat="45.05906" lon="5.86244">
        <ele>414.65</ele>
        <time>2018-08-25T06:10:01Z</time>
      </trkpt>
      <trkpt lat="45.05924" lon="5.86264">
        <ele>414.71</ele>
        <time>2018-08-25T06:10:02Z</time>
      </trkpt>
      <trkpt lat="45.05942" lon="5.86283">
        <ele>415.43</ele>
        <time>2018-08-25T06:10:03Z</time>
      </trkpt>
      <trkpt lat="45.0596" lon="5.86302">
        <ele>416.35</ele>
        <time>2018-08-25T06:10:04Z</time>
      </trkpt>
      <trkpt lat="45.05978" lon="5.86322">
        <ele>416.62</ele>
        <time>2018-08-25T06:10:05Z</time>
      </trkpt>
      <trkpt lat="45.05996" lon="5.8634">
        <ele>416.71</ele>
        <time>2018-08-25T06:10:06Z</time>
      </trkpt>
      <trkpt lat="45.06015" lon="5.86359">
        <ele>417.43</ele>
        <time>2018-08-25T06:10:07Z</time>
      </trkpt>
      <trkpt lat="45.06033" lon="5.86378">
        <ele>417.65</ele>
        <time>2018-08-25T06:10:08Z</time>
      </trkpt>
      <trkpt lat="45.06051" lon="5.86398">
        <ele>418.41</ele>
        <time>2018-08-25T06:10:09Z</time>
      </trkpt>
      <trkpt lat="45.0607" lon="5.86417">
        <ele>419.34</ele>
        <time>2018-08-25T06:10:10Z</time>
      </trkpt>
      <trkpt lat="45.06089" lon="5.86436">
        <ele>419.62</ele>
        <time>2018-08-25T06:10:11Z</time>
      </trkpt>
      <trkpt lat="45.06109" lon="5.86455">
        <ele>419.71</ele>
        <time>2018-08-25T06:10:12Z</time>
      </trkpt>
      <trkpt lat="45.06127" lon="5.86475">
        <ele>420.43</ele>
        <time>2018-08-25T06:10:13Z</time>
      </trkpt>
      <trkpt lat="45.06145" lon="5.86495">
        <ele>420.65</ele>
        <time>2018-08-25T06:10:14Z</time>
      </trkpt>
      <trkpt lat="45.06164" lon="5.86514">
        <ele>421.41</ele>
        <time>2018-08-25T06:10:15Z</time>
      </trkpt>
      <trkpt lat="45.06183" lon="5.86532">
        <ele>421.64</ele>
        <time>2018-08-25T06:10:16Z</time>
      </trkpt>
      <trkpt lat="45.06203" lon="5.8655">
        <ele>422.41</ele>
        <time>2018-08-25T06:10:17Z</time>
      </trkpt>
      <trkpt lat="45.06224" lon="5.86567">
        <ele>422.64</ele>
        <time>2018-08-25T06:10:18Z</time>
      </trkpt>
      <trkpt lat="45.06245" lon="5.86584">
        <ele>423.41</ele>
        <time>2018-08-25T06:10:19Z</time>
      </trkpt>
      <trkpt lat="45.06265" lon="5.866">
        <ele>424.34</ele>
        <time>2018-08-25T06:10:20Z</time>
      </trkpt>
      <trkpt lat="45.06285" lon="5.86617">
        <ele>425.32</ele>
        <time>2018-08-25T06:10:21Z</time>
      </trkpt>
      <trkpt lat="45.06305" lon="5.86633">
        <ele>426.32</ele>
        <time>2018-08-25T06:10:22Z</time>
      </trkpt>
      <trkpt lat="45.06325" lon="5.8665">
        <ele>426.61</ele>
        <time>2018-08-25T06:10:23Z</time>
      </trkpt>
      <trkpt lat="45.06344" lon="5.86665">
        <ele>427.4</ele>
        <time>2018-08-25T06:10:24Z</time>
      </trkpt>
      <trkpt lat="45.06363" lon="5.8668">
        <ele>428.34</ele>
        <time>2018-08-25T06:10:25Z</time>
      </trkpt>
      <trkpt lat="45.06382" lon="5.86694">
        <ele>428.62</ele>
        <time>2018-08-25T06:10:26Z</time>
      </trkpt>
      <trkpt lat="45.06401" lon="5.86708">
        <ele>429.4</ele>
        <time>2018-08-25T06:10:27Z</time>
      </trkpt>
      <trkpt lat="45.0642" lon="5.86722">
        <ele>429.64</ele>
        <time>2018-08-25T06:10:28Z</time>
      </trkpt>
      <trkpt lat="45.06438" lon="5.86736">
        <ele>429.71</ele>
        <time>2018-08-25T06:10:29Z</time>
      </trkpt>
      <trkpt lat="45.06457" lon="5.86749">
        <ele>430.43</ele>
        <time>2018-08-25T06:10:30Z</time>
      </trkpt>
      <trkpt lat="45.06476" lon="5.86764">
        <ele>431.35</ele>
        <time>2018-08-25T06:10:31Z</time>
      </trkpt>
      <trkpt lat="45.06493" lon="5.86778">
        <ele>432.32</ele>
        <time>2018-08-25T06:10:32Z</time>
      </trkpt>
      <trkpt lat="45.06511" lon="5.86792">
        <ele>433.32</ele>
        <time>2018-08-25T06:10:33Z</time>
      </trkpt>
      <trkpt lat="45.0653" lon="5.86804">
        <ele>433.61</ele>
        <time>2018-08-25T06:10:34Z</time>
      </trkpt>
      <trkpt lat="45.06549" lon="5.86816">
        <ele>433.7</ele>
        <time>2018-08-25T06:10:35Z</time>
      </trkpt>
      <trkpt lat="45.06569" lon="5.86825">
        <ele>433.73</ele>
        <time>2018-08-25T06:10:36Z</time>
      </trkpt>
      <trkpt lat="45.06588" lon="5.86832">
        <ele>433.74</ele>
        <time>2018-08-25T06:10:37Z</time>
      </trkpt>
      <trkpt lat="45.06608" lon="5.86837">
        <ele>433.74</ele>
        <time>2018-08-25T06:10:38Z</time>
      </trkpt>
      <trkpt lat="45.06629" lon="5.86841">
        <ele>433.04</ele>
        <time>2018-08-25T06:10:39Z</time>
      </trkpt>
      <trkpt lat="45.06651" lon="5.86845">
        <ele>432.83</ele>
        <time>2018-08-25T06:10:40Z</time>
      </trkpt>
      <trkpt lat="45.06672" lon="5.8685">
        <ele>432.77</ele>
        <time>2018-08-25T06:10:41Z</time>
      </trkpt>
      <trkpt lat="45.06693" lon="5.86856">
        <ele>432.75</ele>
        <time>2018-08-25T06:10:42Z</time>
      </trkpt>
      <trkpt lat="45.06714" lon="5.86863">
        <ele>432.74</ele>
        <time>2018-08-25T06:10:43Z</time>
      </trkpt>
      <trkpt lat="45.06735" lon="5.86872">
        <ele>432.74</ele>
        <time>2018-08-25T06:10:44Z</time>
      </trkpt>
      <trkpt lat="45.06755" lon="5.86882">
        <ele>432.74</ele>
        <time>2018-08-25T06:10:45Z</time>
      </trkpt>
      <trkpt lat="45.06774" lon="5.86895">
        <ele>432.74</ele>
        <time>2018-08-25T06:10:46Z</time>
      </trkpt>
      <trkpt lat="45.06792" lon="5.86908">
        <ele>432.04</ele>
        <time>2018-08-25T06:10:47Z</time>
      </trkpt>
      <trkpt lat="45.06811" lon="5.86921">
        <ele>432.53</ele>
        <time>2018-08-25T06:10:48Z</time>
      </trkpt>
      <trkpt lat="45.06829" lon="5.86934">
        <ele>432.68</ele>
        <time>2018-08-25T06:10:49Z</time>
      </trkpt>
      <trkpt lat="45.06848" lon="5.86947">
        <ele>432.72</ele>
        <time>2018-08-25T06:10:50Z</time>
      </trkpt>
      <trkpt lat="45.06866" lon="5.86961">
        <ele>432.74</ele>
        <time>2018-08-25T06:10:51Z</time>
      </trkpt>
      <trkpt lat="45.06884" lon="5.86974">
        <ele>433.44</ele>
        <time>2018-08-25T06:10:52Z</time>
      </trkpt>
      <trkpt lat="45.06903" lon="5.86988">
        <ele>434.35</ele>
        <time>2018-08-25T06:10:53Z</time>
      </trkpt>
      <trkpt lat="45.06922" lon="5.87002">
        <ele>435.32</ele>
        <time>2018-08-25T06:10:54Z</time>
      </trkpt>
      <trkpt lat="45.06939" lon="5.87018">
        <ele>436.32</ele>
        <time>2018-08-25T06:10:55Z</time>
      </trkpt>
      <trkpt lat="45.06957" lon="5.87033">
        <ele>438.01</ele>
        <time>2018-08-25T06:10:56Z</time>
      </trkpt>
      <trkpt lat="45.06973" lon="5.8705">
        <ele>439.92</ele>
        <time>2018-08-25T06:10:57Z</time>
      </trkpt>
      <trkpt lat="45.0699" lon="5.87067">
        <ele>441.9</ele>
        <time>2018-08-25T06:10:58Z</time>
      </trkpt>
      <trkpt lat="45.07006" lon="5.87085">
        <ele>443.19</ele>
        <time>2018-08-25T06:10:59Z</time>
      </trkpt>
      <trkpt lat="45.07022" lon="5.87103">
        <ele>444.27</ele>
        <time>2018-08-25T06:11:00Z</time>
      </trkpt>
      <trkpt lat="45.07039" lon="5.8712">
        <ele>445.3</ele>
        <time>2018-08-25T06:11:01Z</time>
      </trkpt>
      <trkpt lat="45.07055" lon="5.87138">
        <ele>446.31</ele>
        <time>2018-08-25T06:11:02Z</time>
      </trkpt>
      <trkpt lat="45.07071" lon="5.87156">
        <ele>448.01</ele>
        <time>2018-08-25T06:11:03Z</time>
      </trkpt>
      <trkpt lat="45.07086" lon="5.87173">
        <ele>448.52</ele>
        <time>2018-08-25T06:11:04Z</time>
      </trkpt>
      <trkpt lat="45.07102" lon="5.8719">
        <ele>450.08</ele>
        <time>2018-08-25T06:11:05Z</time>
      </trkpt>
      <trkpt lat="45.07117" lon="5.87209">
        <ele>451.24</ele>
        <time>2018-08-25T06:11:06Z</time>
      </trkpt>
      <trkpt lat="45.0713" lon="5.87229">
        <ele>452.99</ele>
        <time>2018-08-25T06:11:07Z</time>
      </trkpt>
      <trkpt lat="45.07142" lon="5.87251">
        <ele>454.22</ele>
        <time>2018-08-25T06:11:08Z</time>
      </trkpt>
      <trkpt lat="45.07153" lon="5.87275">
        <ele>455.98</ele>
        <time>2018-08-25T06:11:09Z</time>
      </trkpt>
      <trkpt lat="45.07162" lon="5.873">
        <ele>457.21</ele>
        <time>2018-08-25T06:11:10Z</time>
      </trkpt>
      <trkpt lat="45.07169" lon="5.87327">
        <ele>457.58</ele>
        <time>2018-08-25T06:11:11Z</time>
      </trkpt>
      <trkpt lat="45.07175" lon="5.87354">
        <ele>458.39</ele>
        <time>2018-08-25T06:11:12Z</time>
      </trkpt>
      <trkpt lat="45.07179" lon="5.87381">
        <ele>459.34</ele>
        <time>2018-08-25T06:11:13Z</time>
      </trkpt>
      <trkpt lat="45.07181" lon="5.87408">
        <ele>460.32</ele>
        <time>2018-08-25T06:11:14Z</time>
      </trkpt>
      <trkpt lat="45.07182" lon="5.87433">
        <ele>461.31</ele>
        <time>2018-08-25T06:11:15Z</time>
      </trkpt>
      <trkpt lat="45.07181" lon="5.87476">
        <ele>461.7</ele>
        <time>2018-08-25T06:11:17Z</time>
      </trkpt>
      <trkpt lat="45.07176" lon="5.87505">
        <ele>461.74</ele>
        <time>2018-08-25T06:11:19Z</time>
      </trkpt>
      <trkpt lat="45.07179" lon="5.87536">
        <ele>461.95</ele>
        <time>2018-08-25T06:11:22Z</time>
      </trkpt>
      <trkpt lat="45.07206" lon="5.87547">
        <ele>462.66</ele>
        <time>2018-08-25T06:11:25Z</time>
      </trkpt>
      <trkpt lat="45.07233" lon="5.87559">
        <ele>463.64</ele>
        <time>2018-08-25T06:11:27Z</time>
      </trkpt>
      <trkpt lat="45.07261" lon="5.87577">
        <ele>464.64</ele>
        <time>2018-08-25T06:11:29Z</time>
      </trkpt>
      <trkpt lat="45.07289" lon="5.87602">
        <ele>464.73</ele>
        <time>2018-08-25T06:11:31Z</time>
      </trkpt>
      <trkpt lat="45.07305" lon="5.87615">
        <ele>465.44</ele>
        <time>2018-08-25T06:11:32Z</time>
      </trkpt>
      <trkpt lat="45.07321" lon="5.87628">
        <ele>466.35</ele>
        <time>2018-08-25T06:11:33Z</time>
      </trkpt>
      <trkpt lat="45.07337" lon="5.87642">
        <ele>467.32</ele>
        <time>2018-08-25T06:11:34Z</time>
      </trkpt>
      <trkpt lat="45.07354" lon="5.87657">
        <ele>468.32</ele>
        <time>2018-08-25T06:11:35Z</time>
      </trkpt>
      <trkpt lat="45.0737" lon="5.87672">
        <ele>468.61</ele>
        <time>2018-08-25T06:11:36Z</time>
      </trkpt>
      <trkpt lat="45.07386" lon="5.87688">
        <ele>468.7</ele>
        <time>2018-08-25T06:11:37Z</time>
      </trkpt>
      <trkpt lat="45.07402" lon="5.87702">
        <ele>469.43</ele>
        <time>2018-08-25T06:11:38Z</time>
      </trkpt>
      <trkpt lat="45.07418" lon="5.87717">
        <ele>469.65</ele>
        <time>2018-08-25T06:11:39Z</time>
      </trkpt>
      <trkpt lat="45.07434" lon="5.87732">
        <ele>470.41</ele>
        <time>2018-08-25T06:11:40Z</time>
      </trkpt>
      <trkpt lat="45.0745" lon="5.87746">
        <ele>470.64</ele>
        <time>2018-08-25T06:11:41Z</time>
      </trkpt>
      <trkpt lat="45.07467" lon="5.87761">
        <ele>471.41</ele>
        <time>2018-08-25T06:11:42Z</time>
      </trkpt>
      <trkpt lat="45.07482" lon="5.87777">
        <ele>471.64</ele>
        <time>2018-08-25T06:11:43Z</time>
      </trkpt>
      <trkpt lat="45.07498" lon="5.87793">
        <ele>473.11</ele>
        <time>2018-08-25T06:11:44Z</time>
      </trkpt>
      <trkpt lat="45.07512" lon="5.87813">
        <ele>473.55</ele>
        <time>2018-08-25T06:11:45Z</time>
      </trkpt>
      <trkpt lat="45.07524" lon="5.87835">
        <ele>474.38</ele>
        <time>2018-08-25T06:11:46Z</time>
      </trkpt>
      <trkpt lat="45.07534" lon="5.87859">
        <ele>476.03</ele>
        <time>2018-08-25T06:11:47Z</time>
      </trkpt>
      <trkpt lat="45.07543" lon="5.87885">
        <ele>476.53</ele>
        <time>2018-08-25T06:11:48Z</time>
      </trkpt>
      <trkpt lat="45.07549" lon="5.87913">
        <ele>477.38</ele>
        <time>2018-08-25T06:11:49Z</time>
      </trkpt>
      <trkpt lat="45.07554" lon="5.8794">
        <ele>478.33</ele>
        <time>2018-08-25T06:11:50Z</time>
      </trkpt>
      <trkpt lat="45.07558" lon="5.87969">
        <ele>479.32</ele>
        <time>2018-08-25T06:11:51Z</time>
      </trkpt>
      <trkpt lat="45.07563" lon="5.87997">
        <ele>479.61</ele>
        <time>2018-08-25T06:11:52Z</time>
      </trkpt>
      <trkpt lat="45.07568" lon="5.88025">
        <ele>480.4</ele>
        <time>2018-08-25T06:11:53Z</time>
      </trkpt>
      <trkpt lat="45.07573" lon="5.88053">
        <ele>481.34</ele>
        <time>2018-08-25T06:11:54Z</time>
      </trkpt>
      <trkpt lat="45.07577" lon="5.88081">
        <ele>481.62</ele>
        <time>2018-08-25T06:11:55Z</time>
      </trkpt>
      <trkpt lat="45.07581" lon="5.88108">
        <ele>482.4</ele>
        <time>2018-08-25T06:11:56Z</time>
      </trkpt>
      <trkpt lat="45.07583" lon="5.88136">
        <ele>482.64</ele>
        <time>2018-08-25T06:11:57Z</time>
      </trkpt>
      <trkpt lat="45.07583" lon="5.88165">
        <ele>483.41</ele>
        <time>2018-08-25T06:11:58Z</time>
      </trkpt>
      <trkpt lat="45.07583" lon="5.88193">
        <ele>483.64</ele>
        <time>2018-08-25T06:11:59Z</time>
      </trkpt>
      <trkpt lat="45.07583" lon="5.88221">
        <ele>484.41</ele>
        <time>2018-08-25T06:12:00Z</time>
      </trkpt>
      <trkpt lat="45.07583" lon="5.8825">
        <ele>486.04</ele>
        <time>2018-08-25T06:12:01Z</time>
      </trkpt>
      <trkpt lat="45.07587" lon="5.88277">
        <ele>487.93</ele>
        <time>2018-08-25T06:12:02Z</time>
      </trkpt>
      <trkpt lat="45.07591" lon="5.88305">
        <ele>489.9</ele>
        <time>2018-08-25T06:12:03Z</time>
      </trkpt>
      <trkpt lat="45.07597" lon="5.88333">
        <ele>491.89</ele>
        <time>2018-08-25T06:12:04Z</time>
      </trkpt>
      <trkpt lat="45.07602" lon="5.88359">
        <ele>493.19</ele>
        <time>2018-08-25T06:12:05Z</time>
      </trkpt>
      <trkpt lat="45.07608" lon="5.88384">
        <ele>492.17</ele>
        <time>2018-08-25T06:12:06Z</time>
      </trkpt>
      <trkpt lat="45.07617" lon="5.88409">
        <ele>491.17</ele>
        <time>2018-08-25T06:12:07Z</time>
      </trkpt>
      <trkpt lat="45.07629" lon="5.88433">
        <ele>491.57</ele>
        <time>2018-08-25T06:12:08Z</time>
      </trkpt>
      <trkpt lat="45.0764" lon="5.88456">
        <ele>492.39</ele>
        <time>2018-08-25T06:12:09Z</time>
      </trkpt>
      <trkpt lat="45.07654" lon="5.88478">
        <ele>493.34</ele>
        <time>2018-08-25T06:12:10Z</time>
      </trkpt>
      <trkpt lat="45.07667" lon="5.885">
        <ele>494.32</ele>
        <time>2018-08-25T06:12:11Z</time>
      </trkpt>
      <trkpt lat="45.07682" lon="5.88523">
        <ele>495.31</ele>
        <time>2018-08-25T06:12:12Z</time>
      </trkpt>
      <trkpt lat="45.07697" lon="5.88546">
        <ele>496.31</ele>
        <time>2018-08-25T06:12:13Z</time>
      </trkpt>
      <trkpt lat="45.07711" lon="5.88569">
        <ele>497.31</ele>
        <time>2018-08-25T06:12:14Z</time>
      </trkpt>
      <trkpt lat="45.07726" lon="5.88592">
        <ele>498.31</ele>
        <time>2018-08-25T06:12:15Z</time>
      </trkpt>
      <trkpt lat="45.07741" lon="5.88616">
        <ele>499.31</ele>
        <time>2018-08-25T06:12:16Z</time>
      </trkpt>
      <trkpt lat="45.07755" lon="5.88639">
        <ele>500.31</ele>
        <time>2018-08-25T06:12:17Z</time>
      </trkpt>
      <trkpt lat="45.0777" lon="5.88663">
        <ele>501.31</ele>
        <time>2018-08-25T06:12:18Z</time>
      </trkpt>
      <trkpt lat="45.07785" lon="5.88686">
        <ele>502.31</ele>
        <time>2018-08-25T06:12:19Z</time>
      </trkpt>
      <trkpt lat="45.07799" lon="5.88711">
        <ele>503.31</ele>
        <time>2018-08-25T06:12:20Z</time>
      </trkpt>
      <trkpt lat="45.07813" lon="5.88736">
        <ele>504.31</ele>
        <time>2018-08-25T06:12:21Z</time>
      </trkpt>
      <trkpt lat="45.07826" lon="5.88762">
        <ele>505.31</ele>
        <time>2018-08-25T06:12:22Z</time>
      </trkpt>
      <trkpt lat="45.07838" lon="5.88788">
        <ele>506.31</ele>
        <time>2018-08-25T06:12:23Z</time>
      </trkpt>
      <trkpt lat="45.0785" lon="5.88815">
        <ele>507.31</ele>
        <time>2018-08-25T06:12:24Z</time>
      </trkpt>
      <trkpt lat="45.07861" lon="5.88844">
        <ele>508.31</ele>
        <time>2018-08-25T06:12:25Z</time>
      </trkpt>
      <trkpt lat="45.07872" lon="5.88872">
        <ele>509.31</ele>
        <time>2018-08-25T06:12:26Z</time>
      </trkpt>
      <trkpt lat="45.07883" lon="5.88901">
        <ele>510.31</ele>
        <time>2018-08-25T06:12:27Z</time>
      </trkpt>
      <trkpt lat="45.07893" lon="5.8893">
        <ele>510.61</ele>
        <time>2018-08-25T06:12:28Z</time>
      </trkpt>
      <trkpt lat="45.07902" lon="5.88958">
        <ele>510.7</ele>
        <time>2018-08-25T06:12:29Z</time>
      </trkpt>
      <trkpt lat="45.07913" lon="5.88986">
        <ele>511.43</ele>
        <time>2018-08-25T06:12:30Z</time>
      </trkpt>
      <trkpt lat="45.07924" lon="5.89012">
        <ele>511.65</ele>
        <time>2018-08-25T06:12:31Z</time>
      </trkpt>
      <trkpt lat="45.07935" lon="5.89038">
        <ele>513.11</ele>
        <time>2018-08-25T06:12:32Z</time>
      </trkpt>
      <trkpt lat="45.07949" lon="5.89062">
        <ele>514.25</ele>
        <time>2018-08-25T06:12:33Z</time>
      </trkpt>
      <trkpt lat="45.07962" lon="5.89085">
        <ele>515.99</ele>
        <time>2018-08-25T06:12:34Z</time>
      </trkpt>
      <trkpt lat="45.07976" lon="5.8911">
        <ele>516.52</ele>
        <time>2018-08-25T06:12:35Z</time>
      </trkpt>
      <trkpt lat="45.07989" lon="5.89135">
        <ele>517.37</ele>
        <time>2018-08-25T06:12:36Z</time>
      </trkpt>
      <trkpt lat="45.08003" lon="5.89159">
        <ele>518.33</ele>
        <time>2018-08-25T06:12:37Z</time>
      </trkpt>
      <trkpt lat="45.08016" lon="5.89183">
        <ele>519.32</ele>
        <time>2018-08-25T06:12:38Z</time>
      </trkpt>
      <trkpt lat="45.0803" lon="5.89206">
        <ele>521.01</ele>
        <time>2018-08-25T06:12:39Z</time>
      </trkpt>
      <trkpt lat="45.08044" lon="5.89229">
        <ele>522.22</ele>
        <time>2018-08-25T06:12:40Z</time>
      </trkpt>
      <trkpt lat="45.08057" lon="5.89252">
        <ele>522.59</ele>
        <time>2018-08-25T06:12:41Z</time>
      </trkpt>
      <trkpt lat="45.08072" lon="5.89274">
        <ele>523.39</ele>
        <time>2018-08-25T06:12:42Z</time>
      </trkpt>
      <trkpt lat="45.08087" lon="5.89296">
        <ele>525.04</ele>
        <time>2018-08-25T06:12:43Z</time>
      </trkpt>
      <trkpt lat="45.08101" lon="5.89317">
        <ele>524.83</ele>
        <time>2018-08-25T06:12:44Z</time>
      </trkpt>
      <trkpt lat="45.08117" lon="5.89337">
        <ele>525.47</ele>
        <time>2018-08-25T06:12:45Z</time>
      </trkpt>
      <trkpt lat="45.08133" lon="5.89356">
        <ele>526.36</ele>
        <time>2018-08-25T06:12:46Z</time>
      </trkpt>
      <trkpt lat="45.08149" lon="5.89376">
        <ele>526.63</ele>
        <time>2018-08-25T06:12:47Z</time>
      </trkpt>
      <trkpt lat="45.08165" lon="5.89395">
        <ele>527.41</ele>
        <time>2018-08-25T06:12:48Z</time>
      </trkpt>
      <trkpt lat="45.0818" lon="5.89415">
        <ele>528.34</ele>
        <time>2018-08-25T06:12:49Z</time>
      </trkpt>
      <trkpt lat="45.08195" lon="5.89436">
        <ele>529.32</ele>
        <time>2018-08-25T06:12:50Z</time>
      </trkpt>
      <trkpt lat="45.08208" lon="5.89459">
        <ele>530.31</ele>
        <time>2018-08-25T06:12:51Z</time>
      </trkpt>
      <trkpt lat="45.08219" lon="5.89483">
        <ele>531.31</ele>
        <time>2018-08-25T06:12:52Z</time>
      </trkpt>
      <trkpt lat="45.08228" lon="5.89508">
        <ele>532.31</ele>
        <time>2018-08-25T06:12:53Z</time>
      </trkpt>
      <trkpt lat="45.08237" lon="5.89531">
        <ele>532.61</ele>
        <time>2018-08-25T06:12:54Z</time>
      </trkpt>
      <trkpt lat="45.08235" lon="5.89558">
        <ele>533.4</ele>
        <time>2018-08-25T06:12:55Z</time>
      </trkpt>
      <trkpt lat="45.08236" lon="5.89586">
        <ele>534.34</ele>
        <time>2018-08-25T06:12:56Z</time>
      </trkpt>
      <trkpt lat="45.0823" lon="5.89612">
        <ele>534.62</ele>
        <time>2018-08-25T06:12:57Z</time>
      </trkpt>
      <trkpt lat="45.08229" lon="5.8964">
        <ele>535.4</ele>
        <time>2018-08-25T06:12:58Z</time>
      </trkpt>
      <trkpt lat="45.08233" lon="5.89666">
        <ele>535.64</ele>
        <time>2018-08-25T06:12:59Z</time>
      </trkpt>
      <trkpt lat="45.08242" lon="5.89691">
        <ele>537.11</ele>
        <time>2018-08-25T06:13:00Z</time>
      </trkpt>
      <trkpt lat="45.08254" lon="5.89716">
        <ele>537.55</ele>
        <time>2018-08-25T06:13:01Z</time>
      </trkpt>
      <trkpt lat="45.08263" lon="5.89741">
        <ele>537.68</ele>
        <time>2018-08-25T06:13:02Z</time>
      </trkpt>
      <trkpt lat="45.08274" lon="5.89766">
        <ele>537.72</ele>
        <time>2018-08-25T06:13:03Z</time>
      </trkpt>
      <trkpt lat="45.08285" lon="5.89788">
        <ele>538.44</ele>
        <time>2018-08-25T06:13:04Z</time>
      </trkpt>
      <trkpt lat="45.083" lon="5.89808">
        <ele>538.65</ele>
        <time>2018-08-25T06:13:05Z</time>
      </trkpt>
      <trkpt lat="45.08316" lon="5.89827">
        <ele>538.71</ele>
        <time>2018-08-25T06:13:06Z</time>
      </trkpt>
      <trkpt lat="45.08331" lon="5.89846">
        <ele>538.73</ele>
        <time>2018-08-25T06:13:07Z</time>
      </trkpt>
      <trkpt lat="45.08348" lon="5.89865">
        <ele>538.74</ele>
        <time>2018-08-25T06:13:08Z</time>
      </trkpt>
      <trkpt lat="45.08365" lon="5.89885">
        <ele>538.74</ele>
        <time>2018-08-25T06:13:09Z</time>
      </trkpt>
      <trkpt lat="45.08382" lon="5.89904">
        <ele>539.44</ele>
        <time>2018-08-25T06:13:10Z</time>
      </trkpt>
      <trkpt lat="45.084" lon="5.89923">
        <ele>539.65</ele>
        <time>2018-08-25T06:13:11Z</time>
      </trkpt>
      <trkpt lat="45.08418" lon="5.8994">
        <ele>540.41</ele>
        <time>2018-08-25T06:13:12Z</time>
      </trkpt>
      <trkpt lat="45.08434" lon="5.89957">
        <ele>540.64</ele>
        <time>2018-08-25T06:13:13Z</time>
      </trkpt>
      <trkpt lat="45.08452" lon="5.89973">
        <ele>540.71</ele>
        <time>2018-08-25T06:13:14Z</time>
      </trkpt>
      <trkpt lat="45.08469" lon="5.8999">
        <ele>541.43</ele>
        <time>2018-08-25T06:13:15Z</time>
      </trkpt>
      <trkpt lat="45.08486" lon="5.90006">
        <ele>541.65</ele>
        <time>2018-08-25T06:13:16Z</time>
      </trkpt>
      <trkpt lat="45.08503" lon="5.90022">
        <ele>542.41</ele>
        <time>2018-08-25T06:13:17Z</time>
      </trkpt>
      <trkpt lat="45.08521" lon="5.90034">
        <ele>543.34</ele>
        <time>2018-08-25T06:13:18Z</time>
      </trkpt>
      <trkpt lat="45.08537" lon="5.90045">
        <ele>544.32</ele>
        <time>2018-08-25T06:13:19Z</time>
      </trkpt>
      <trkpt lat="45.08554" lon="5.90054">
        <ele>544.62</ele>
        <time>2018-08-25T06:13:20Z</time>
      </trkpt>
      <trkpt lat="45.08587" lon="5.90067">
        <ele>545.43</ele>
        <time>2018-08-25T06:13:22Z</time>
      </trkpt>
      <trkpt lat="45.08618" lon="5.9008">
        <ele>545.71</ele>
        <time>2018-08-25T06:13:24Z</time>
      </trkpt>
      <trkpt lat="45.08647" lon="5.90092">
        <ele>546.65</ele>
        <time>2018-08-25T06:13:26Z</time>
      </trkpt>
      <trkpt lat="45.08675" lon="5.90103">
        <ele>546.73</ele>
        <time>2018-08-25T06:13:28Z</time>
      </trkpt>
      <trkpt lat="45.08702" lon="5.90113">
        <ele>547.65</ele>
        <time>2018-08-25T06:13:30Z</time>
      </trkpt>
      <trkpt lat="45.08729" lon="5.90123">
        <ele>547.03</ele>
        <time>2018-08-25T06:13:32Z</time>
      </trkpt>
      <trkpt lat="45.08755" lon="5.90134">
        <ele>548.38</ele>
        <time>2018-08-25T06:13:34Z</time>
      </trkpt>
      <trkpt lat="45.08779" lon="5.90144">
        <ele>549.41</ele>
        <time>2018-08-25T06:13:36Z</time>
      </trkpt>
      <trkpt lat="45.08803" lon="5.9015">
        <ele>549.71</ele>
        <time>2018-08-25T06:13:38Z</time>
      </trkpt>
      <trkpt lat="45.08826" lon="5.90156">
        <ele>549.74</ele>
        <time>2018-08-25T06:13:40Z</time>
      </trkpt>
      <trkpt lat="45.08848" lon="5.90161">
        <ele>550.44</ele>
        <time>2018-08-25T06:13:42Z</time>
      </trkpt>
      <trkpt lat="45.08868" lon="5.90166">
        <ele>550.5</ele>
        <time>2018-08-25T06:13:44Z</time>
      </trkpt>
      <trkpt lat="45.08889" lon="5.9017">
        <ele>550.93</ele>
        <time>2018-08-25T06:13:46Z</time>
      </trkpt>
      <trkpt lat="45.08911" lon="5.90174">
        <ele>551.67</ele>
        <time>2018-08-25T06:13:48Z</time>
      </trkpt>
      <trkpt lat="45.08936" lon="5.9018">
        <ele>553.34</ele>
        <time>2018-08-25T06:13:50Z</time>
      </trkpt>
      <trkpt lat="45.08961" lon="5.90186">
        <ele>553.71</ele>
        <time>2018-08-25T06:13:52Z</time>
      </trkpt>
      <trkpt lat="45.08983" lon="5.90191">
        <ele>554.65</ele>
        <time>2018-08-25T06:13:54Z</time>
      </trkpt>
      <trkpt lat="45.09003" lon="5.90196">
        <ele>554.73</ele>
        <time>2018-08-25T06:13:56Z</time>
      </trkpt>
      <trkpt lat="45.09021" lon="5.90201">
        <ele>554.53</ele>
        <time>2018-08-25T06:13:58Z</time>
      </trkpt>
      <trkpt lat="45.09042" lon="5.90215">
        <ele>554.04</ele>
        <time>2018-08-25T06:14:01Z</time>
      </trkpt>
      <trkpt lat="45.09065" lon="5.90234">
        <ele>555.42</ele>
        <time>2018-08-25T06:14:04Z</time>
      </trkpt>
      <trkpt lat="45.09082" lon="5.90248">
        <ele>556.62</ele>
        <time>2018-08-25T06:14:06Z</time>
      </trkpt>
      <trkpt lat="45.091" lon="5.90263">
        <ele>557.64</ele>
        <time>2018-08-25T06:14:08Z</time>
      </trkpt>
      <trkpt lat="45.09119" lon="5.90277">
        <ele>558.64</ele>
        <time>2018-08-25T06:14:10Z</time>
      </trkpt>
      <trkpt lat="45.09139" lon="5.90293">
        <ele>559.64</ele>
        <time>2018-08-25T06:14:12Z</time>
      </trkpt>
      <trkpt lat="45.09161" lon="5.90311">
        <ele>560.64</ele>
        <time>2018-08-25T06:14:14Z</time>
      </trkpt>
      <trkpt lat="45.09183" lon="5.90328">
        <ele>561.64</ele>
        <time>2018-08-25T06:14:16Z</time>
      </trkpt>
      <trkpt lat="45.09205" lon="5.90346">
        <ele>562.43</ele>
        <time>2018-08-25T06:14:18Z</time>
      </trkpt>
      <trkpt lat="45.09228" lon="5.90366">
        <ele>563.41</ele>
        <time>2018-08-25T06:14:20Z</time>
      </trkpt>
      <trkpt lat="45.09251" lon="5.90385">
        <ele>564.62</ele>
        <time>2018-08-25T06:14:22Z</time>
      </trkpt>
      <trkpt lat="45.09273" lon="5.90402">
        <ele>565.64</ele>
        <time>2018-08-25T06:14:24Z</time>
      </trkpt>
      <trkpt lat="45.09296" lon="5.9042">
        <ele>566.43</ele>
        <time>2018-08-25T06:14:26Z</time>
      </trkpt>
      <trkpt lat="45.09319" lon="5.90438">
        <ele>567.62</ele>
        <time>2018-08-25T06:14:28Z</time>
      </trkpt>
      <trkpt lat="45.09342" lon="5.90457">
        <ele>568.64</ele>
        <time>2018-08-25T06:14:30Z</time>
      </trkpt>
      <trkpt lat="45.09365" lon="5.90475">
        <ele>569.43</ele>
        <time>2018-08-25T06:14:32Z</time>
      </trkpt>
      <trkpt lat="45.09388" lon="5.90493">
        <ele>570.41</ele>
        <time>2018-08-25T06:14:34Z</time>
      </trkpt>
      <trkpt lat="45.09411" lon="5.90511">
        <ele>570.71</ele>
        <time>2018-08-25T06:14:36Z</time>
      </trkpt>
      <trkpt lat="45.09437" lon="5.9053">
        <ele>571.44</ele>
        <time>2018-08-25T06:14:38Z</time>
      </trkpt>
      <trkpt lat="45.09464" lon="5.90552">
        <ele>572.62</ele>
        <time>2018-08-25T06:14:40Z</time>
      </trkpt>
      <trkpt lat="45.09493" lon="5.90575">
        <ele>574.34</ele>
        <time>2018-08-25T06:14:42Z</time>
      </trkpt>
      <trkpt lat="45.0952" lon="5.90607">
        <ele>575.4</ele>
        <time>2018-08-25T06:14:44Z</time>
      </trkpt>
      <trkpt lat="45.09531" lon="5.90627">
        <ele>576.34</ele>
        <time>2018-08-25T06:14:45Z</time>
      </trkpt>
      <trkpt lat="45.09541" lon="5.90649">
        <ele>576.62</ele>
        <time>2018-08-25T06:14:46Z</time>
      </trkpt>
      <trkpt lat="45.09551" lon="5.90672">
        <ele>577.4</ele>
        <time>2018-08-25T06:14:47Z</time>
      </trkpt>
      <trkpt lat="45.09561" lon="5.90694">
        <ele>577.64</ele>
        <time>2018-08-25T06:14:48Z</time>
      </trkpt>
      <trkpt lat="45.09569" lon="5.90718">
        <ele>577.71</ele>
        <time>2018-08-25T06:14:49Z</time>
      </trkpt>
      <trkpt lat="45.09578" lon="5.90741">
        <ele>577.73</ele>
        <time>2018-08-25T06:14:50Z</time>
      </trkpt>
      <trkpt lat="45.09594" lon="5.90786">
        <ele>578.65</ele>
        <time>2018-08-25T06:14:52Z</time>
      </trkpt>
      <trkpt lat="45.09603" lon="5.90808">
        <ele>578.71</ele>
        <time>2018-08-25T06:14:53Z</time>
      </trkpt>
      <trkpt lat="45.09621" lon="5.90851">
        <ele>578.74</ele>
        <time>2018-08-25T06:14:55Z</time>
      </trkpt>
      <trkpt lat="45.09639" lon="5.90893">
        <ele>579.44</ele>
        <time>2018-08-25T06:14:57Z</time>
      </trkpt>
      <trkpt lat="45.09652" lon="5.90937">
        <ele>580.41</ele>
        <time>2018-08-25T06:14:59Z</time>
      </trkpt>
      <trkpt lat="45.09659" lon="5.90988">
        <ele>581.41</ele>
        <time>2018-08-25T06:15:01Z</time>
      </trkpt>
      <trkpt lat="45.09665" lon="5.9102">
        <ele>581.64</ele>
        <time>2018-08-25T06:15:02Z</time>
      </trkpt>
      <trkpt lat="45.09669" lon="5.91053">
        <ele>581.71</ele>
        <time>2018-08-25T06:15:03Z</time>
      </trkpt>
      <trkpt lat="45.09672" lon="5.91087">
        <ele>581.73</ele>
        <time>2018-08-25T06:15:04Z</time>
      </trkpt>
      <trkpt lat="45.09676" lon="5.91121">
        <ele>582.44</ele>
        <time>2018-08-25T06:15:05Z</time>
      </trkpt>
      <trkpt lat="45.09681" lon="5.91155">
        <ele>581.95</ele>
        <time>2018-08-25T06:15:06Z</time>
      </trkpt>
      <trkpt lat="45.09686" lon="5.91191">
        <ele>582.5</ele>
        <time>2018-08-25T06:15:07Z</time>
      </trkpt>
      <trkpt lat="45.09691" lon="5.91225">
        <ele>582.67</ele>
        <time>2018-08-25T06:15:08Z</time>
      </trkpt>
      <trkpt lat="45.09699" lon="5.91258">
        <ele>582.72</ele>
        <time>2018-08-25T06:15:09Z</time>
      </trkpt>
      <trkpt lat="45.09707" lon="5.9129">
        <ele>582.73</ele>
        <time>2018-08-25T06:15:10Z</time>
      </trkpt>
      <trkpt lat="45.09721" lon="5.91321">
        <ele>584.14</ele>
        <time>2018-08-25T06:15:11Z</time>
      </trkpt>
      <trkpt lat="45.09733" lon="5.9135">
        <ele>584.56</ele>
        <time>2018-08-25T06:15:12Z</time>
      </trkpt>
      <trkpt lat="45.09745" lon="5.91379">
        <ele>584.69</ele>
        <time>2018-08-25T06:15:13Z</time>
      </trkpt>
      <trkpt lat="45.09757" lon="5.91407">
        <ele>584.72</ele>
        <time>2018-08-25T06:15:14Z</time>
      </trkpt>
      <trkpt lat="45.09769" lon="5.91435">
        <ele>585.44</ele>
        <time>2018-08-25T06:15:15Z</time>
      </trkpt>
      <trkpt lat="45.09781" lon="5.91463">
        <ele>586.35</ele>
        <time>2018-08-25T06:15:16Z</time>
      </trkpt>
      <trkpt lat="45.09793" lon="5.9149">
        <ele>587.32</ele>
        <time>2018-08-25T06:15:17Z</time>
      </trkpt>
      <trkpt lat="45.09804" lon="5.91515">
        <ele>588.32</ele>
        <time>2018-08-25T06:15:18Z</time>
      </trkpt>
      <trkpt lat="45.09816" lon="5.9154">
        <ele>588.61</ele>
        <time>2018-08-25T06:15:19Z</time>
      </trkpt>
      <trkpt lat="45.0983" lon="5.91562">
        <ele>589.4</ele>
        <time>2018-08-25T06:15:20Z</time>
      </trkpt>
      <trkpt lat="45.09844" lon="5.91582">
        <ele>589.64</ele>
        <time>2018-08-25T06:15:21Z</time>
      </trkpt>
      <trkpt lat="45.09861" lon="5.91599">
        <ele>590.41</ele>
        <time>2018-08-25T06:15:22Z</time>
      </trkpt>
      <trkpt lat="45.09878" lon="5.91615">
        <ele>590.64</ele>
        <time>2018-08-25T06:15:23Z</time>
      </trkpt>
      <trkpt lat="45.09896" lon="5.9163">
        <ele>590.71</ele>
        <time>2018-08-25T06:15:24Z</time>
      </trkpt>
      <trkpt lat="45.09916" lon="5.91646">
        <ele>590.73</ele>
        <time>2018-08-25T06:15:25Z</time>
      </trkpt>
      <trkpt lat="45.09935" lon="5.91662">
        <ele>591.44</ele>
        <time>2018-08-25T06:15:26Z</time>
      </trkpt>
      <trkpt lat="45.09954" lon="5.91677">
        <ele>593.05</ele>
        <time>2018-08-25T06:15:27Z</time>
      </trkpt>
      <trkpt lat="45.09972" lon="5.91692">
        <ele>594.93</ele>
        <time>2018-08-25T06:15:28Z</time>
      </trkpt>
      <trkpt lat="45.0999" lon="5.91708">
        <ele>596.2</ele>
        <time>2018-08-25T06:15:29Z</time>
      </trkpt>
      <trkpt lat="45.10009" lon="5.91724">
        <ele>597.28</ele>
        <time>2018-08-25T06:15:30Z</time>
      </trkpt>
      <trkpt lat="45.10026" lon="5.9174">
        <ele>599.7</ele>
        <time>2018-08-25T06:15:31Z</time>
      </trkpt>
      <trkpt lat="45.10042" lon="5.91754">
        <ele>601.13</ele>
        <time>2018-08-25T06:15:32Z</time>
      </trkpt>
      <trkpt lat="45.10059" lon="5.91767">
        <ele>602.26</ele>
        <time>2018-08-25T06:15:33Z</time>
      </trkpt>
      <trkpt lat="45.10075" lon="5.91781">
        <ele>602.6</ele>
        <time>2018-08-25T06:15:34Z</time>
      </trkpt>
      <trkpt lat="45.10104" lon="5.91806">
        <ele>603.64</ele>
        <time>2018-08-25T06:15:36Z</time>
      </trkpt>
      <trkpt lat="45.10131" lon="5.9183">
        <ele>606.25</ele>
        <time>2018-08-25T06:15:38Z</time>
      </trkpt>
      <trkpt lat="45.1016" lon="5.91853">
        <ele>607.4</ele>
        <time>2018-08-25T06:15:40Z</time>
      </trkpt>
      <trkpt lat="45.10191" lon="5.91876">
        <ele>608.41</ele>
        <time>2018-08-25T06:15:42Z</time>
      </trkpt>
      <trkpt lat="45.1021" lon="5.91891">
        <ele>608.64</ele>
        <time>2018-08-25T06:15:43Z</time>
      </trkpt>
      <trkpt lat="45.10229" lon="5.91905">
        <ele>609.41</ele>
        <time>2018-08-25T06:15:44Z</time>
      </trkpt>
      <trkpt lat="45.10248" lon="5.91921">
        <ele>611.74</ele>
        <time>2018-08-25T06:15:45Z</time>
      </trkpt>
      <trkpt lat="45.10266" lon="5.91938">
        <ele>613.84</ele>
        <time>2018-08-25T06:15:46Z</time>
      </trkpt>
      <trkpt lat="45.10285" lon="5.91957">
        <ele>615.17</ele>
        <time>2018-08-25T06:15:47Z</time>
      </trkpt>
      <trkpt lat="45.10301" lon="5.91978">
        <ele>616.27</ele>
        <time>2018-08-25T06:15:48Z</time>
      </trkpt>
      <trkpt lat="45.10317" lon="5.92002">
        <ele>617.3</ele>
        <time>2018-08-25T06:15:49Z</time>
      </trkpt>
      <trkpt lat="45.10331" lon="5.92028">
        <ele>618.31</ele>
        <time>2018-08-25T06:15:50Z</time>
      </trkpt>
      <trkpt lat="45.10341" lon="5.92054">
        <ele>618.61</ele>
        <time>2018-08-25T06:15:51Z</time>
      </trkpt>
      <trkpt lat="45.10351" lon="5.92082">
        <ele>619.4</ele>
        <time>2018-08-25T06:15:52Z</time>
      </trkpt>
      <trkpt lat="45.10358" lon="5.92108">
        <ele>618.94</ele>
        <time>2018-08-25T06:15:53Z</time>
      </trkpt>
      <trkpt lat="45.10366" lon="5.92134">
        <ele>619.5</ele>
        <time>2018-08-25T06:15:54Z</time>
      </trkpt>
      <trkpt lat="45.10374" lon="5.9216">
        <ele>619.67</ele>
        <time>2018-08-25T06:15:55Z</time>
      </trkpt>
      <trkpt lat="45.10382" lon="5.92186">
        <ele>620.42</ele>
        <time>2018-08-25T06:15:56Z</time>
      </trkpt>
      <trkpt lat="45.10391" lon="5.92213">
        <ele>620.64</ele>
        <time>2018-08-25T06:15:57Z</time>
      </trkpt>
      <trkpt lat="45.104" lon="5.9224">
        <ele>620.71</ele>
        <time>2018-08-25T06:15:58Z</time>
      </trkpt>
      <trkpt lat="45.10408" lon="5.92266">
        <ele>621.43</ele>
        <time>2018-08-25T06:15:59Z</time>
      </trkpt>
      <trkpt lat="45.10415" lon="5.92293">
        <ele>623.75</ele>
        <time>2018-08-25T06:16:00Z</time>
      </trkpt>
      <trkpt lat="45.10424" lon="5.9232">
        <ele>624.44</ele>
        <time>2018-08-25T06:16:01Z</time>
      </trkpt>
      <trkpt lat="45.10431" lon="5.92347">
        <ele>625.35</ele>
        <time>2018-08-25T06:16:02Z</time>
      </trkpt>
      <trkpt lat="45.10439" lon="5.92373">
        <ele>625.62</ele>
        <time>2018-08-25T06:16:03Z</time>
      </trkpt>
      <trkpt lat="45.10447" lon="5.924">
        <ele>625.71</ele>
        <time>2018-08-25T06:16:04Z</time>
      </trkpt>
      <trkpt lat="45.10451" lon="5.92427">
        <ele>626.43</ele>
        <time>2018-08-25T06:16:05Z</time>
      </trkpt>
      <trkpt lat="45.10453" lon="5.92455">
        <ele>628.05</ele>
        <time>2018-08-25T06:16:06Z</time>
      </trkpt>
      <trkpt lat="45.10456" lon="5.92482">
        <ele>629.23</ele>
        <time>2018-08-25T06:16:07Z</time>
      </trkpt>
      <trkpt lat="45.10457" lon="5.9251">
        <ele>630.29</ele>
        <time>2018-08-25T06:16:08Z</time>
      </trkpt>
      <trkpt lat="45.10457" lon="5.92538">
        <ele>631.31</ele>
        <time>2018-08-25T06:16:09Z</time>
      </trkpt>
      <trkpt lat="45.10458" lon="5.92565">
        <ele>632.31</ele>
        <time>2018-08-25T06:16:10Z</time>
      </trkpt>
      <trkpt lat="45.10459" lon="5.92591">
        <ele>634.71</ele>
        <time>2018-08-25T06:16:11Z</time>
      </trkpt>
      <trkpt lat="45.10461" lon="5.92618">
        <ele>636.13</ele>
        <time>2018-08-25T06:16:12Z</time>
      </trkpt>
      <trkpt lat="45.10461" lon="5.92645">
        <ele>637.96</ele>
        <time>2018-08-25T06:16:13Z</time>
      </trkpt>
      <trkpt lat="45.10463" lon="5.92671">
        <ele>639.91</ele>
        <time>2018-08-25T06:16:14Z</time>
      </trkpt>
      <trkpt lat="45.10466" lon="5.92697">
        <ele>641.19</ele>
        <time>2018-08-25T06:16:15Z</time>
      </trkpt>
      <trkpt lat="45.1047" lon="5.92723">
        <ele>642.28</ele>
        <time>2018-08-25T06:16:16Z</time>
      </trkpt>
      <trkpt lat="45.10475" lon="5.92748">
        <ele>644</ele>
        <time>2018-08-25T06:16:17Z</time>
      </trkpt>
      <trkpt lat="45.10482" lon="5.92773">
        <ele>645.22</ele>
        <time>2018-08-25T06:16:18Z</time>
      </trkpt>
      <trkpt lat="45.1049" lon="5.92797">
        <ele>646.98</ele>
        <time>2018-08-25T06:16:19Z</time>
      </trkpt>
      <trkpt lat="45.10499" lon="5.92821">
        <ele>647.51</ele>
        <time>2018-08-25T06:16:20Z</time>
      </trkpt>
      <trkpt lat="45.10509" lon="5.92845">
        <ele>647.67</ele>
        <time>2018-08-25T06:16:21Z</time>
      </trkpt>
      <trkpt lat="45.1052" lon="5.92869">
        <ele>647.72</ele>
        <time>2018-08-25T06:16:22Z</time>
      </trkpt>
      <trkpt lat="45.10532" lon="5.92892">
        <ele>648.43</ele>
        <time>2018-08-25T06:16:23Z</time>
      </trkpt>
      <trkpt lat="45.10543" lon="5.92915">
        <ele>648.65</ele>
        <time>2018-08-25T06:16:24Z</time>
      </trkpt>
      <trkpt lat="45.10555" lon="5.92939">
        <ele>648.71</ele>
        <time>2018-08-25T06:16:25Z</time>
      </trkpt>
      <trkpt lat="45.10566" lon="5.92962">
        <ele>648.73</ele>
        <time>2018-08-25T06:16:26Z</time>
      </trkpt>
      <trkpt lat="45.10578" lon="5.92986">
        <ele>648.74</ele>
        <time>2018-08-25T06:16:27Z</time>
      </trkpt>
      <trkpt lat="45.10589" lon="5.93009">
        <ele>649.44</ele>
        <time>2018-08-25T06:16:28Z</time>
      </trkpt>
      <trkpt lat="45.106" lon="5.93032">
        <ele>649.65</ele>
        <time>2018-08-25T06:16:29Z</time>
      </trkpt>
      <trkpt lat="45.10611" lon="5.93056">
        <ele>649.71</ele>
        <time>2018-08-25T06:16:30Z</time>
      </trkpt>
      <trkpt lat="45.10621" lon="5.93079">
        <ele>649.73</ele>
        <time>2018-08-25T06:16:31Z</time>
      </trkpt>
      <trkpt lat="45.1063" lon="5.93103">
        <ele>649.74</ele>
        <time>2018-08-25T06:16:32Z</time>
      </trkpt>
      <trkpt lat="45.10638" lon="5.93128">
        <ele>649.74</ele>
        <time>2018-08-25T06:16:33Z</time>
      </trkpt>
      <trkpt lat="45.10644" lon="5.93154">
        <ele>650.44</ele>
        <time>2018-08-25T06:16:34Z</time>
      </trkpt>
      <trkpt lat="45.10648" lon="5.93181">
        <ele>650.65</ele>
        <time>2018-08-25T06:16:35Z</time>
      </trkpt>
      <trkpt lat="45.1065" lon="5.93209">
        <ele>651.41</ele>
        <time>2018-08-25T06:16:36Z</time>
      </trkpt>
      <trkpt lat="45.10651" lon="5.93237">
        <ele>651.64</ele>
        <time>2018-08-25T06:16:37Z</time>
      </trkpt>
      <trkpt lat="45.10652" lon="5.93265">
        <ele>651.71</ele>
        <time>2018-08-25T06:16:38Z</time>
      </trkpt>
      <trkpt lat="45.10653" lon="5.93292">
        <ele>652.43</ele>
        <time>2018-08-25T06:16:39Z</time>
      </trkpt>
      <trkpt lat="45.10654" lon="5.9332">
        <ele>652.65</ele>
        <time>2018-08-25T06:16:40Z</time>
      </trkpt>
      <trkpt lat="45.10654" lon="5.93347">
        <ele>652.71</ele>
        <time>2018-08-25T06:16:41Z</time>
      </trkpt>
      <trkpt lat="45.10657" lon="5.93375">
        <ele>652.73</ele>
        <time>2018-08-25T06:16:42Z</time>
      </trkpt>
      <trkpt lat="45.10662" lon="5.93402">
        <ele>653.44</ele>
        <time>2018-08-25T06:16:43Z</time>
      </trkpt>
      <trkpt lat="45.10668" lon="5.93429">
        <ele>652.95</ele>
        <time>2018-08-25T06:16:44Z</time>
      </trkpt>
      <trkpt lat="45.10676" lon="5.93454">
        <ele>652.8</ele>
        <time>2018-08-25T06:16:45Z</time>
      </trkpt>
      <trkpt lat="45.10686" lon="5.93478">
        <ele>653.46</ele>
        <time>2018-08-25T06:16:46Z</time>
      </trkpt>
      <trkpt lat="45.10699" lon="5.935">
        <ele>654.36</ele>
        <time>2018-08-25T06:16:47Z</time>
      </trkpt>
      <trkpt lat="45.1071" lon="5.93521">
        <ele>654.63</ele>
        <time>2018-08-25T06:16:48Z</time>
      </trkpt>
      <trkpt lat="45.10722" lon="5.93541">
        <ele>655.41</ele>
        <time>2018-08-25T06:16:49Z</time>
      </trkpt>
      <trkpt lat="45.10736" lon="5.93561">
        <ele>655.64</ele>
        <time>2018-08-25T06:16:50Z</time>
      </trkpt>
      <trkpt lat="45.10747" lon="5.93582">
        <ele>656.41</ele>
        <time>2018-08-25T06:16:51Z</time>
      </trkpt>
      <trkpt lat="45.10758" lon="5.93604">
        <ele>656.64</ele>
        <time>2018-08-25T06:16:52Z</time>
      </trkpt>
      <trkpt lat="45.10769" lon="5.93627">
        <ele>657.41</ele>
        <time>2018-08-25T06:16:53Z</time>
      </trkpt>
      <trkpt lat="45.10779" lon="5.9365">
        <ele>657.64</ele>
        <time>2018-08-25T06:16:54Z</time>
      </trkpt>
      <trkpt lat="45.10787" lon="5.93674">
        <ele>659.11</ele>
        <time>2018-08-25T06:16:55Z</time>
      </trkpt>
      <trkpt lat="45.10796" lon="5.93699">
        <ele>659.55</ele>
        <time>2018-08-25T06:16:56Z</time>
      </trkpt>
      <trkpt lat="45.10805" lon="5.93724">
        <ele>660.38</ele>
        <time>2018-08-25T06:16:57Z</time>
      </trkpt>
      <trkpt lat="45.10814" lon="5.93749">
        <ele>659.93</ele>
        <time>2018-08-25T06:16:58Z</time>
      </trkpt>
      <trkpt lat="45.10823" lon="5.93775">
        <ele>659.8</ele>
        <time>2018-08-25T06:16:59Z</time>
      </trkpt>
      <trkpt lat="45.10832" lon="5.938">
        <ele>659.76</ele>
        <time>2018-08-25T06:17:00Z</time>
      </trkpt>
      <trkpt lat="45.1084" lon="5.93826">
        <ele>660.45</ele>
        <time>2018-08-25T06:17:01Z</time>
      </trkpt>
      <trkpt lat="45.10848" lon="5.93851">
        <ele>662.05</ele>
        <time>2018-08-25T06:17:02Z</time>
      </trkpt>
      <trkpt lat="45.10858" lon="5.93876">
        <ele>662.53</ele>
        <time>2018-08-25T06:17:03Z</time>
      </trkpt>
      <trkpt lat="45.10867" lon="5.93902">
        <ele>663.38</ele>
        <time>2018-08-25T06:17:04Z</time>
      </trkpt>
      <trkpt lat="45.10875" lon="5.93926">
        <ele>664.33</ele>
        <time>2018-08-25T06:17:05Z</time>
      </trkpt>
      <trkpt lat="45.10885" lon="5.93952">
        <ele>665.32</ele>
        <time>2018-08-25T06:17:06Z</time>
      </trkpt>
      <trkpt lat="45.10894" lon="5.93978">
        <ele>665.61</ele>
        <time>2018-08-25T06:17:07Z</time>
      </trkpt>
      <trkpt lat="45.10902" lon="5.94005">
        <ele>666.4</ele>
        <time>2018-08-25T06:17:08Z</time>
      </trkpt>
      <trkpt lat="45.10911" lon="5.94034">
        <ele>666.64</ele>
        <time>2018-08-25T06:17:09Z</time>
      </trkpt>
      <trkpt lat="45.10921" lon="5.94066">
        <ele>667.41</ele>
        <time>2018-08-25T06:17:10Z</time>
      </trkpt>
      <trkpt lat="45.1093" lon="5.94098">
        <ele>668.34</ele>
        <time>2018-08-25T06:17:11Z</time>
      </trkpt>
      <trkpt lat="45.1094" lon="5.94129">
        <ele>669.32</ele>
        <time>2018-08-25T06:17:12Z</time>
      </trkpt>
      <trkpt lat="45.10949" lon="5.9416">
        <ele>670.32</ele>
        <time>2018-08-25T06:17:13Z</time>
      </trkpt>
      <trkpt lat="45.10959" lon="5.94191">
        <ele>671.31</ele>
        <time>2018-08-25T06:17:14Z</time>
      </trkpt>
      <trkpt lat="45.10968" lon="5.94222">
        <ele>671.61</ele>
        <time>2018-08-25T06:17:15Z</time>
      </trkpt>
      <trkpt lat="45.10976" lon="5.94253">
        <ele>672.4</ele>
        <time>2018-08-25T06:17:16Z</time>
      </trkpt>
      <trkpt lat="45.10984" lon="5.94284">
        <ele>674.04</ele>
        <time>2018-08-25T06:17:17Z</time>
      </trkpt>
      <trkpt lat="45.10992" lon="5.94316">
        <ele>675.23</ele>
        <time>2018-08-25T06:17:18Z</time>
      </trkpt>
      <trkpt lat="45.11001" lon="5.94348">
        <ele>676.99</ele>
        <time>2018-08-25T06:17:19Z</time>
      </trkpt>
      <trkpt lat="45.11009" lon="5.94379">
        <ele>677.52</ele>
        <time>2018-08-25T06:17:20Z</time>
      </trkpt>
      <trkpt lat="45.11019" lon="5.94411">
        <ele>677.67</ele>
        <time>2018-08-25T06:17:21Z</time>
      </trkpt>
      <trkpt lat="45.1103" lon="5.94441">
        <ele>678.42</ele>
        <time>2018-08-25T06:17:22Z</time>
      </trkpt>
      <trkpt lat="45.11042" lon="5.9447">
        <ele>679.34</ele>
        <time>2018-08-25T06:17:23Z</time>
      </trkpt>
      <trkpt lat="45.11056" lon="5.94498">
        <ele>680.32</ele>
        <time>2018-08-25T06:17:24Z</time>
      </trkpt>
      <trkpt lat="45.11072" lon="5.94523">
        <ele>680.62</ele>
        <time>2018-08-25T06:17:25Z</time>
      </trkpt>
      <trkpt lat="45.11087" lon="5.94548">
        <ele>681.4</ele>
        <time>2018-08-25T06:17:26Z</time>
      </trkpt>
      <trkpt lat="45.11102" lon="5.94573">
        <ele>681.64</ele>
        <time>2018-08-25T06:17:27Z</time>
      </trkpt>
      <trkpt lat="45.11118" lon="5.94598">
        <ele>682.41</ele>
        <time>2018-08-25T06:17:28Z</time>
      </trkpt>
      <trkpt lat="45.11134" lon="5.94623">
        <ele>682.64</ele>
        <time>2018-08-25T06:17:29Z</time>
      </trkpt>
      <trkpt lat="45.1115" lon="5.94648">
        <ele>684.11</ele>
        <time>2018-08-25T06:17:30Z</time>
      </trkpt>
      <trkpt lat="45.11166" lon="5.94673">
        <ele>685.25</ele>
        <time>2018-08-25T06:17:31Z</time>
      </trkpt>
      <trkpt lat="45.11182" lon="5.94698">
        <ele>685.59</ele>
        <time>2018-08-25T06:17:32Z</time>
      </trkpt>
      <trkpt lat="45.11197" lon="5.94723">
        <ele>686.4</ele>
        <time>2018-08-25T06:17:33Z</time>
      </trkpt>
      <trkpt lat="45.11213" lon="5.9475">
        <ele>688.04</ele>
        <time>2018-08-25T06:17:34Z</time>
      </trkpt>
      <trkpt lat="45.11227" lon="5.94776">
        <ele>689.23</ele>
        <time>2018-08-25T06:17:35Z</time>
      </trkpt>
      <trkpt lat="45.11239" lon="5.94803">
        <ele>689.59</ele>
        <time>2018-08-25T06:17:36Z</time>
      </trkpt>
      <trkpt lat="45.11253" lon="5.94831">
        <ele>690.4</ele>
        <time>2018-08-25T06:17:37Z</time>
      </trkpt>
      <trkpt lat="45.11264" lon="5.9486">
        <ele>692.04</ele>
        <time>2018-08-25T06:17:38Z</time>
      </trkpt>
      <trkpt lat="45.11275" lon="5.94889">
        <ele>693.23</ele>
        <time>2018-08-25T06:17:39Z</time>
      </trkpt>
      <trkpt lat="45.11285" lon="5.94919">
        <ele>694.29</ele>
        <time>2018-08-25T06:17:40Z</time>
      </trkpt>
      <trkpt lat="45.11295" lon="5.9495">
        <ele>695.3</ele>
        <time>2018-08-25T06:17:41Z</time>
      </trkpt>
      <trkpt lat="45.11302" lon="5.9498">
        <ele>695.61</ele>
        <time>2018-08-25T06:17:42Z</time>
      </trkpt>
      <trkpt lat="45.11308" lon="5.95012">
        <ele>696.4</ele>
        <time>2018-08-25T06:17:43Z</time>
      </trkpt>
      <trkpt lat="45.11313" lon="5.95043">
        <ele>698.04</ele>
        <time>2018-08-25T06:17:44Z</time>
      </trkpt>
      <trkpt lat="45.11317" lon="5.95075">
        <ele>699.23</ele>
        <time>2018-08-25T06:17:45Z</time>
      </trkpt>
      <trkpt lat="45.11322" lon="5.95107">
        <ele>700.99</ele>
        <time>2018-08-25T06:17:46Z</time>
      </trkpt>
      <trkpt lat="45.11325" lon="5.95139">
        <ele>702.22</ele>
        <time>2018-08-25T06:17:47Z</time>
      </trkpt>
      <trkpt lat="45.11328" lon="5.95171">
        <ele>703.28</ele>
        <time>2018-08-25T06:17:48Z</time>
      </trkpt>
      <trkpt lat="45.11329" lon="5.95203">
        <ele>704.3</ele>
        <time>2018-08-25T06:17:49Z</time>
      </trkpt>
      <trkpt lat="45.11331" lon="5.95235">
        <ele>704.61</ele>
        <time>2018-08-25T06:17:50Z</time>
      </trkpt>
      <trkpt lat="45.11334" lon="5.95266">
        <ele>705.4</ele>
        <time>2018-08-25T06:17:51Z</time>
      </trkpt>
      <trkpt lat="45.11336" lon="5.95298">
        <ele>706.34</ele>
        <time>2018-08-25T06:17:52Z</time>
      </trkpt>
      <trkpt lat="45.11339" lon="5.95328">
        <ele>708.02</ele>
        <time>2018-08-25T06:17:53Z</time>
      </trkpt>
      <trkpt lat="45.11341" lon="5.95358">
        <ele>708.52</ele>
        <time>2018-08-25T06:17:54Z</time>
      </trkpt>
      <trkpt lat="45.11344" lon="5.95388">
        <ele>710.78</ele>
        <time>2018-08-25T06:17:55Z</time>
      </trkpt>
      <trkpt lat="45.11347" lon="5.95418">
        <ele>712.15</ele>
        <time>2018-08-25T06:17:56Z</time>
      </trkpt>
      <trkpt lat="45.11348" lon="5.95448">
        <ele>713.96</ele>
        <time>2018-08-25T06:17:57Z</time>
      </trkpt>
      <trkpt lat="45.11351" lon="5.95478">
        <ele>715.21</ele>
        <time>2018-08-25T06:17:58Z</time>
      </trkpt>
      <trkpt lat="45.11353" lon="5.95507">
        <ele>714.88</ele>
        <time>2018-08-25T06:17:59Z</time>
      </trkpt>
      <trkpt lat="45.11355" lon="5.95537">
        <ele>715.48</ele>
        <time>2018-08-25T06:18:00Z</time>
      </trkpt>
      <trkpt lat="45.11357" lon="5.95566">
        <ele>716.36</ele>
        <time>2018-08-25T06:18:01Z</time>
      </trkpt>
      <trkpt lat="45.1136" lon="5.95595">
        <ele>717.33</ele>
        <time>2018-08-25T06:18:02Z</time>
      </trkpt>
      <trkpt lat="45.11363" lon="5.95624">
        <ele>718.32</ele>
        <time>2018-08-25T06:18:03Z</time>
      </trkpt>
      <trkpt lat="45.11369" lon="5.9565">
        <ele>717.91</ele>
        <time>2018-08-25T06:18:04Z</time>
      </trkpt>
      <trkpt lat="45.11376" lon="5.95674">
        <ele>717.79</ele>
        <time>2018-08-25T06:18:05Z</time>
      </trkpt>
      <trkpt lat="45.11398" lon="5.95714">
        <ele>718.66</ele>
        <time>2018-08-25T06:18:07Z</time>
      </trkpt>
      <trkpt lat="45.11415" lon="5.9575">
        <ele>718.03</ele>
        <time>2018-08-25T06:18:09Z</time>
      </trkpt>
      <trkpt lat="45.1142" lon="5.9579">
        <ele>717.77</ele>
        <time>2018-08-25T06:18:11Z</time>
      </trkpt>
      <trkpt lat="45.1142" lon="5.95831">
        <ele>716.83</ele>
        <time>2018-08-25T06:18:13Z</time>
      </trkpt>
      <trkpt lat="45.11397" lon="5.9584">
        <ele>717.47</ele>
        <time>2018-08-25T06:18:14Z</time>
      </trkpt>
      <trkpt lat="45.11381" lon="5.95877">
        <ele>718.63</ele>
        <time>2018-08-25T06:18:16Z</time>
      </trkpt>
      <trkpt lat="45.11374" lon="5.95914">
        <ele>718.94</ele>
        <time>2018-08-25T06:18:18Z</time>
      </trkpt>
      <trkpt lat="45.11386" lon="5.95949">
        <ele>717.64</ele>
        <time>2018-08-25T06:18:20Z</time>
      </trkpt>
      <trkpt lat="45.11413" lon="5.95991">
        <ele>720.04</ele>
        <time>2018-08-25T06:18:22Z</time>
      </trkpt>
      <trkpt lat="45.11435" lon="5.96014">
        <ele>721.23</ele>
        <time>2018-08-25T06:18:23Z</time>
      </trkpt>
      <trkpt lat="45.11461" lon="5.96037">
        <ele>721.59</ele>
        <time>2018-08-25T06:18:24Z</time>
      </trkpt>
      <trkpt lat="45.11481" lon="5.96058">
        <ele>722.4</ele>
        <time>2018-08-25T06:18:25Z</time>
      </trkpt>
      <trkpt lat="45.11501" lon="5.9608">
        <ele>722.64</ele>
        <time>2018-08-25T06:18:26Z</time>
      </trkpt>
      <trkpt lat="45.1152" lon="5.96101">
        <ele>722.01</ele>
        <time>2018-08-25T06:18:27Z</time>
      </trkpt>
      <trkpt lat="45.11537" lon="5.96123">
        <ele>721.82</ele>
        <time>2018-08-25T06:18:28Z</time>
      </trkpt>
      <trkpt lat="45.11554" lon="5.96144">
        <ele>721.07</ele>
        <time>2018-08-25T06:18:29Z</time>
      </trkpt>
      <trkpt lat="45.11571" lon="5.96166">
        <ele>720.14</ele>
        <time>2018-08-25T06:18:30Z</time>
      </trkpt>
      <trkpt lat="45.11585" lon="5.96187">
        <ele>719.86</ele>
        <time>2018-08-25T06:18:31Z</time>
      </trkpt>
      <trkpt lat="45.11602" lon="5.96208">
        <ele>719.78</ele>
        <time>2018-08-25T06:18:32Z</time>
      </trkpt>
      <trkpt lat="45.11617" lon="5.96229">
        <ele>719.05</ele>
        <time>2018-08-25T06:18:33Z</time>
      </trkpt>
      <trkpt lat="45.11629" lon="5.96253">
        <ele>718.83</ele>
        <time>2018-08-25T06:18:34Z</time>
      </trkpt>
      <trkpt lat="45.11639" lon="5.96278">
        <ele>718.77</ele>
        <time>2018-08-25T06:18:35Z</time>
      </trkpt>
      <trkpt lat="45.11649" lon="5.96304">
        <ele>717.35</ele>
        <time>2018-08-25T06:18:36Z</time>
      </trkpt>
      <trkpt lat="45.11657" lon="5.96335">
        <ele>717.62</ele>
        <time>2018-08-25T06:18:37Z</time>
      </trkpt>
      <trkpt lat="45.11661" lon="5.96366">
        <ele>717.71</ele>
        <time>2018-08-25T06:18:38Z</time>
      </trkpt>
      <trkpt lat="45.1166" lon="5.96396">
        <ele>717.73</ele>
        <time>2018-08-25T06:18:39Z</time>
      </trkpt>
      <trkpt lat="45.11656" lon="5.96426">
        <ele>717.74</ele>
        <time>2018-08-25T06:18:40Z</time>
      </trkpt>
      <trkpt lat="45.11657" lon="5.96455">
        <ele>717.74</ele>
        <time>2018-08-25T06:18:41Z</time>
      </trkpt>
      <trkpt lat="45.11655" lon="5.96484">
        <ele>717.74</ele>
        <time>2018-08-25T06:18:42Z</time>
      </trkpt>
      <trkpt lat="45.11655" lon="5.96512">
        <ele>717.74</ele>
        <time>2018-08-25T06:18:43Z</time>
      </trkpt>
      <trkpt lat="45.11655" lon="5.96541">
        <ele>717.74</ele>
        <time>2018-08-25T06:18:44Z</time>
      </trkpt>
      <trkpt lat="45.11653" lon="5.96569">
        <ele>717.74</ele>
        <time>2018-08-25T06:18:45Z</time>
      </trkpt>
      <trkpt lat="45.11652" lon="5.96598">
        <ele>717.04</ele>
        <time>2018-08-25T06:18:46Z</time>
      </trkpt>
      <trkpt lat="45.11651" lon="5.96626">
        <ele>716.83</ele>
        <time>2018-08-25T06:18:47Z</time>
      </trkpt>
      <trkpt lat="45.11651" lon="5.96654">
        <ele>716.77</ele>
        <time>2018-08-25T06:18:48Z</time>
      </trkpt>
      <trkpt lat="45.11651" lon="5.96682">
        <ele>716.75</ele>
        <time>2018-08-25T06:18:49Z</time>
      </trkpt>
      <trkpt lat="45.1165" lon="5.9671">
        <ele>716.74</ele>
        <time>2018-08-25T06:18:50Z</time>
      </trkpt>
      <trkpt lat="45.11648" lon="5.96736">
        <ele>716.74</ele>
        <time>2018-08-25T06:18:51Z</time>
      </trkpt>
      <trkpt lat="45.11647" lon="5.96762">
        <ele>716.74</ele>
        <time>2018-08-25T06:18:52Z</time>
      </trkpt>
      <trkpt lat="45.11649" lon="5.96811">
        <ele>716.74</ele>
        <time>2018-08-25T06:18:54Z</time>
      </trkpt>
      <trkpt lat="45.1166" lon="5.96861">
        <ele>717.65</ele>
        <time>2018-08-25T06:18:56Z</time>
      </trkpt>
      <trkpt lat="45.11668" lon="5.96885">
        <ele>717.71</ele>
        <time>2018-08-25T06:18:57Z</time>
      </trkpt>
      <trkpt lat="45.11685" lon="5.96903">
        <ele>718.43</ele>
        <time>2018-08-25T06:18:58Z</time>
      </trkpt>
      <trkpt lat="45.11707" lon="5.96945">
        <ele>715.91</ele>
        <time>2018-08-25T06:19:00Z</time>
      </trkpt>
      <trkpt lat="45.1172" lon="5.9697">
        <ele>715.79</ele>
        <time>2018-08-25T06:19:01Z</time>
      </trkpt>
      <trkpt lat="45.11734" lon="5.96996">
        <ele>716.46</ele>
        <time>2018-08-25T06:19:02Z</time>
      </trkpt>
      <trkpt lat="45.11748" lon="5.97022">
        <ele>715.96</ele>
        <time>2018-08-25T06:19:03Z</time>
      </trkpt>
      <trkpt lat="45.11762" lon="5.97048">
        <ele>716.51</ele>
        <time>2018-08-25T06:19:04Z</time>
      </trkpt>
      <trkpt lat="45.11775" lon="5.97074">
        <ele>716.67</ele>
        <time>2018-08-25T06:19:05Z</time>
      </trkpt>
      <trkpt lat="45.11786" lon="5.97101">
        <ele>716.72</ele>
        <time>2018-08-25T06:19:06Z</time>
      </trkpt>
      <trkpt lat="45.11796" lon="5.97129">
        <ele>716.03</ele>
        <time>2018-08-25T06:19:07Z</time>
      </trkpt>
      <trkpt lat="45.11804" lon="5.97157">
        <ele>715.83</ele>
        <time>2018-08-25T06:19:08Z</time>
      </trkpt>
      <trkpt lat="45.11812" lon="5.97186">
        <ele>715.77</ele>
        <time>2018-08-25T06:19:09Z</time>
      </trkpt>
      <trkpt lat="45.11819" lon="5.97215">
        <ele>715.75</ele>
        <time>2018-08-25T06:19:10Z</time>
      </trkpt>
      <trkpt lat="45.11824" lon="5.97247">
        <ele>715.74</ele>
        <time>2018-08-25T06:19:11Z</time>
      </trkpt>
      <trkpt lat="45.11828" lon="5.97278">
        <ele>715.74</ele>
        <time>2018-08-25T06:19:12Z</time>
      </trkpt>
      <trkpt lat="45.11828" lon="5.97309">
        <ele>715.04</ele>
        <time>2018-08-25T06:19:13Z</time>
      </trkpt>
      <trkpt lat="45.11817" lon="5.97339">
        <ele>715.53</ele>
        <time>2018-08-25T06:19:14Z</time>
      </trkpt>
      <trkpt lat="45.11812" lon="5.9737">
        <ele>715.68</ele>
        <time>2018-08-25T06:19:15Z</time>
      </trkpt>
      <trkpt lat="45.11807" lon="5.97401">
        <ele>715.72</ele>
        <time>2018-08-25T06:19:16Z</time>
      </trkpt>
      <trkpt lat="45.11803" lon="5.97432">
        <ele>715.74</ele>
        <time>2018-08-25T06:19:17Z</time>
      </trkpt>
      <trkpt lat="45.118" lon="5.97462">
        <ele>715.04</ele>
        <time>2018-08-25T06:19:18Z</time>
      </trkpt>
      <trkpt lat="45.11796" lon="5.97492">
        <ele>714.83</ele>
        <time>2018-08-25T06:19:19Z</time>
      </trkpt>
      <trkpt lat="45.11792" lon="5.97522">
        <ele>715.47</ele>
        <time>2018-08-25T06:19:20Z</time>
      </trkpt>
      <trkpt lat="45.11788" lon="5.97552">
        <ele>715.66</ele>
        <time>2018-08-25T06:19:21Z</time>
      </trkpt>
      <trkpt lat="45.11785" lon="5.97581">
        <ele>715.72</ele>
        <time>2018-08-25T06:19:22Z</time>
      </trkpt>
      <trkpt lat="45.11782" lon="5.97609">
        <ele>715.73</ele>
        <time>2018-08-25T06:19:23Z</time>
      </trkpt>
      <trkpt lat="45.11779" lon="5.97638">
        <ele>715.74</ele>
        <time>2018-08-25T06:19:24Z</time>
      </trkpt>
      <trkpt lat="45.11775" lon="5.97667">
        <ele>715.74</ele>
        <time>2018-08-25T06:19:25Z</time>
      </trkpt>
      <trkpt lat="45.11771" lon="5.97695">
        <ele>715.74</ele>
        <time>2018-08-25T06:19:26Z</time>
      </trkpt>
      <trkpt lat="45.11768" lon="5.97724">
        <ele>715.74</ele>
        <time>2018-08-25T06:19:27Z</time>
      </trkpt>
      <trkpt lat="45.11765" lon="5.97752">
        <ele>715.74</ele>
        <time>2018-08-25T06:19:28Z</time>
      </trkpt>
      <trkpt lat="45.11761" lon="5.97781">
        <ele>715.74</ele>
        <time>2018-08-25T06:19:29Z</time>
      </trkpt>
      <trkpt lat="45.11758" lon="5.9781">
        <ele>715.74</ele>
        <time>2018-08-25T06:19:30Z</time>
      </trkpt>
      <trkpt lat="45.11755" lon="5.97839">
        <ele>716.44</ele>
        <time>2018-08-25T06:19:31Z</time>
      </trkpt>
      <trkpt lat="45.11751" lon="5.97869">
        <ele>716.65</ele>
        <time>2018-08-25T06:19:32Z</time>
      </trkpt>
      <trkpt lat="45.11748" lon="5.97898">
        <ele>717.41</ele>
        <time>2018-08-25T06:19:33Z</time>
      </trkpt>
      <trkpt lat="45.11744" lon="5.97928">
        <ele>716.94</ele>
        <time>2018-08-25T06:19:34Z</time>
      </trkpt>
      <trkpt lat="45.1174" lon="5.97957">
        <ele>716.8</ele>
        <time>2018-08-25T06:19:35Z</time>
      </trkpt>
      <trkpt lat="45.11737" lon="5.97987">
        <ele>716.76</ele>
        <time>2018-08-25T06:19:36Z</time>
      </trkpt>
      <trkpt lat="45.11733" lon="5.98016">
        <ele>716.75</ele>
        <time>2018-08-25T06:19:37Z</time>
      </trkpt>
      <trkpt lat="45.1173" lon="5.98045">
        <ele>716.04</ele>
        <time>2018-08-25T06:19:38Z</time>
      </trkpt>
      <trkpt lat="45.11727" lon="5.98075">
        <ele>715.83</ele>
        <time>2018-08-25T06:19:39Z</time>
      </trkpt>
      <trkpt lat="45.11724" lon="5.98104">
        <ele>715.77</ele>
        <time>2018-08-25T06:19:40Z</time>
      </trkpt>
      <trkpt lat="45.1172" lon="5.98134">
        <ele>715.75</ele>
        <time>2018-08-25T06:19:41Z</time>
      </trkpt>
      <trkpt lat="45.11717" lon="5.98163">
        <ele>715.74</ele>
        <time>2018-08-25T06:19:42Z</time>
      </trkpt>
      <trkpt lat="45.11714" lon="5.98192">
        <ele>715.74</ele>
        <time>2018-08-25T06:19:43Z</time>
      </trkpt>
      <trkpt lat="45.1171" lon="5.98221">
        <ele>715.74</ele>
        <time>2018-08-25T06:19:44Z</time>
      </trkpt>
      <trkpt lat="45.11707" lon="5.9825">
        <ele>715.74</ele>
        <time>2018-08-25T06:19:45Z</time>
      </trkpt>
      <trkpt lat="45.11704" lon="5.9828">
        <ele>715.74</ele>
        <time>2018-08-25T06:19:46Z</time>
      </trkpt>
      <trkpt lat="45.117" lon="5.98309">
        <ele>715.74</ele>
        <time>2018-08-25T06:19:47Z</time>
      </trkpt>
      <trkpt lat="45.11696" lon="5.98338">
        <ele>715.74</ele>
        <time>2018-08-25T06:19:48Z</time>
      </trkpt>
      <trkpt lat="45.11694" lon="5.98368">
        <ele>715.74</ele>
        <time>2018-08-25T06:19:49Z</time>
      </trkpt>
      <trkpt lat="45.1169" lon="5.98398">
        <ele>715.74</ele>
        <time>2018-08-25T06:19:50Z</time>
      </trkpt>
      <trkpt lat="45.11687" lon="5.98427">
        <ele>715.74</ele>
        <time>2018-08-25T06:19:51Z</time>
      </trkpt>
      <trkpt lat="45.11684" lon="5.98456">
        <ele>715.74</ele>
        <time>2018-08-25T06:19:52Z</time>
      </trkpt>
      <trkpt lat="45.1168" lon="5.98485">
        <ele>715.74</ele>
        <time>2018-08-25T06:19:53Z</time>
      </trkpt>
      <trkpt lat="45.11677" lon="5.98515">
        <ele>715.04</ele>
        <time>2018-08-25T06:19:54Z</time>
      </trkpt>
      <trkpt lat="45.11674" lon="5.98544">
        <ele>714.83</ele>
        <time>2018-08-25T06:19:55Z</time>
      </trkpt>
      <trkpt lat="45.1167" lon="5.98573">
        <ele>714.77</ele>
        <time>2018-08-25T06:19:56Z</time>
      </trkpt>
      <trkpt lat="45.11667" lon="5.98604">
        <ele>714.75</ele>
        <time>2018-08-25T06:19:57Z</time>
      </trkpt>
      <trkpt lat="45.11663" lon="5.98633">
        <ele>714.04</ele>
        <time>2018-08-25T06:19:58Z</time>
      </trkpt>
      <trkpt lat="45.1166" lon="5.98662">
        <ele>713.83</ele>
        <time>2018-08-25T06:19:59Z</time>
      </trkpt>
      <trkpt lat="45.11656" lon="5.98692">
        <ele>713.77</ele>
        <time>2018-08-25T06:20:00Z</time>
      </trkpt>
      <trkpt lat="45.11652" lon="5.98721">
        <ele>713.75</ele>
        <time>2018-08-25T06:20:01Z</time>
      </trkpt>
      <trkpt lat="45.11649" lon="5.98751">
        <ele>713.74</ele>
        <time>2018-08-25T06:20:02Z</time>
      </trkpt>
      <trkpt lat="45.11647" lon="5.9878">
        <ele>713.74</ele>
        <time>2018-08-25T06:20:03Z</time>
      </trkpt>
      <trkpt lat="45.11644" lon="5.9881">
        <ele>713.74</ele>
        <time>2018-08-25T06:20:04Z</time>
      </trkpt>
      <trkpt lat="45.1164" lon="5.98839">
        <ele>713.74</ele>
        <time>2018-08-25T06:20:05Z</time>
      </trkpt>
      <trkpt lat="45.11637" lon="5.98868">
        <ele>713.74</ele>
        <time>2018-08-25T06:20:06Z</time>
      </trkpt>
      <trkpt lat="45.11633" lon="5.98898">
        <ele>713.74</ele>
        <time>2018-08-25T06:20:07Z</time>
      </trkpt>
      <trkpt lat="45.1163" lon="5.98928">
        <ele>713.74</ele>
        <time>2018-08-25T06:20:08Z</time>
      </trkpt>
      <trkpt lat="45.11626" lon="5.98957">
        <ele>713.74</ele>
        <time>2018-08-25T06:20:09Z</time>
      </trkpt>
      <trkpt lat="45.11623" lon="5.98986">
        <ele>713.74</ele>
        <time>2018-08-25T06:20:10Z</time>
      </trkpt>
      <trkpt lat="45.11619" lon="5.99015">
        <ele>713.74</ele>
        <time>2018-08-25T06:20:11Z</time>
      </trkpt>
      <trkpt lat="45.11617" lon="5.99044">
        <ele>713.74</ele>
        <time>2018-08-25T06:20:12Z</time>
      </trkpt>
      <trkpt lat="45.11614" lon="5.99073">
        <ele>713.04</ele>
        <time>2018-08-25T06:20:13Z</time>
      </trkpt>
      <trkpt lat="45.1161" lon="5.99101">
        <ele>712.83</ele>
        <time>2018-08-25T06:20:14Z</time>
      </trkpt>
      <trkpt lat="45.11607" lon="5.9913">
        <ele>712.77</ele>
        <time>2018-08-25T06:20:15Z</time>
      </trkpt>
      <trkpt lat="45.11604" lon="5.99159">
        <ele>712.75</ele>
        <time>2018-08-25T06:20:16Z</time>
      </trkpt>
      <trkpt lat="45.116" lon="5.99188">
        <ele>713.44</ele>
        <time>2018-08-25T06:20:17Z</time>
      </trkpt>
      <trkpt lat="45.11596" lon="5.99217">
        <ele>713.65</ele>
        <time>2018-08-25T06:20:18Z</time>
      </trkpt>
      <trkpt lat="45.11593" lon="5.99245">
        <ele>713.71</ele>
        <time>2018-08-25T06:20:19Z</time>
      </trkpt>
      <trkpt lat="45.1159" lon="5.99274">
        <ele>713.73</ele>
        <time>2018-08-25T06:20:20Z</time>
      </trkpt>
      <trkpt lat="45.11586" lon="5.99302">
        <ele>713.74</ele>
        <time>2018-08-25T06:20:21Z</time>
      </trkpt>
      <trkpt lat="45.11582" lon="5.99331">
        <ele>714.44</ele>
        <time>2018-08-25T06:20:22Z</time>
      </trkpt>
      <trkpt lat="45.11579" lon="5.99359">
        <ele>714.65</ele>
        <time>2018-08-25T06:20:23Z</time>
      </trkpt>
      <trkpt lat="45.11576" lon="5.99387">
        <ele>714.01</ele>
        <time>2018-08-25T06:20:24Z</time>
      </trkpt>
      <trkpt lat="45.11573" lon="5.99415">
        <ele>713.82</ele>
        <time>2018-08-25T06:20:25Z</time>
      </trkpt>
      <trkpt lat="45.1157" lon="5.99444">
        <ele>714.47</ele>
        <time>2018-08-25T06:20:26Z</time>
      </trkpt>
      <trkpt lat="45.11566" lon="5.99472">
        <ele>714.66</ele>
        <time>2018-08-25T06:20:27Z</time>
      </trkpt>
      <trkpt lat="45.11563" lon="5.99501">
        <ele>714.72</ele>
        <time>2018-08-25T06:20:28Z</time>
      </trkpt>
      <trkpt lat="45.1156" lon="5.99529">
        <ele>714.03</ele>
        <time>2018-08-25T06:20:29Z</time>
      </trkpt>
      <trkpt lat="45.11556" lon="5.99559">
        <ele>714.53</ele>
        <time>2018-08-25T06:20:30Z</time>
      </trkpt>
      <trkpt lat="45.11553" lon="5.99588">
        <ele>713.98</ele>
        <time>2018-08-25T06:20:31Z</time>
      </trkpt>
      <trkpt lat="45.11549" lon="5.99618">
        <ele>713.81</ele>
        <time>2018-08-25T06:20:32Z</time>
      </trkpt>
      <trkpt lat="45.11546" lon="5.99647">
        <ele>713.76</ele>
        <time>2018-08-25T06:20:33Z</time>
      </trkpt>
      <trkpt lat="45.11542" lon="5.99677">
        <ele>713.75</ele>
        <time>2018-08-25T06:20:34Z</time>
      </trkpt>
      <trkpt lat="45.11538" lon="5.99707">
        <ele>713.74</ele>
        <time>2018-08-25T06:20:35Z</time>
      </trkpt>
      <trkpt lat="45.11534" lon="5.99737">
        <ele>713.74</ele>
        <time>2018-08-25T06:20:36Z</time>
      </trkpt>
      <trkpt lat="45.11531" lon="5.99766">
        <ele>713.74</ele>
        <time>2018-08-25T06:20:37Z</time>
      </trkpt>
      <trkpt lat="45.11527" lon="5.99797">
        <ele>714.44</ele>
        <time>2018-08-25T06:20:38Z</time>
      </trkpt>
      <trkpt lat="45.11524" lon="5.99828">
        <ele>714.65</ele>
        <time>2018-08-25T06:20:39Z</time>
      </trkpt>
      <trkpt lat="45.1152" lon="5.99858">
        <ele>714.71</ele>
        <time>2018-08-25T06:20:40Z</time>
      </trkpt>
      <trkpt lat="45.11517" lon="5.99888">
        <ele>714.03</ele>
        <time>2018-08-25T06:20:41Z</time>
      </trkpt>
      <trkpt lat="45.11514" lon="5.99917">
        <ele>713.83</ele>
        <time>2018-08-25T06:20:42Z</time>
      </trkpt>
      <trkpt lat="45.1151" lon="5.99947">
        <ele>713.77</ele>
        <time>2018-08-25T06:20:43Z</time>
      </trkpt>
      <trkpt lat="45.11506" lon="5.99977">
        <ele>713.75</ele>
        <time>2018-08-25T06:20:44Z</time>
      </trkpt>
      <trkpt lat="45.11502" lon="6.00006">
        <ele>713.74</ele>
        <time>2018-08-25T06:20:45Z</time>
      </trkpt>
      <trkpt lat="45.11498" lon="6.00036">
        <ele>713.74</ele>
        <time>2018-08-25T06:20:46Z</time>
      </trkpt>
      <trkpt lat="45.11495" lon="6.00067">
        <ele>713.74</ele>
        <time>2018-08-25T06:20:47Z</time>
      </trkpt>
      <trkpt lat="45.11491" lon="6.00096">
        <ele>714.44</ele>
        <time>2018-08-25T06:20:48Z</time>
      </trkpt>
      <trkpt lat="45.11487" lon="6.00126">
        <ele>714.65</ele>
        <time>2018-08-25T06:20:49Z</time>
      </trkpt>
      <trkpt lat="45.11483" lon="6.00155">
        <ele>714.71</ele>
        <time>2018-08-25T06:20:50Z</time>
      </trkpt>
      <trkpt lat="45.11479" lon="6.00184">
        <ele>714.73</ele>
        <time>2018-08-25T06:20:51Z</time>
      </trkpt>
      <trkpt lat="45.11476" lon="6.00213">
        <ele>714.74</ele>
        <time>2018-08-25T06:20:52Z</time>
      </trkpt>
      <trkpt lat="45.11472" lon="6.00242">
        <ele>714.74</ele>
        <time>2018-08-25T06:20:53Z</time>
      </trkpt>
      <trkpt lat="45.11469" lon="6.0027">
        <ele>714.74</ele>
        <time>2018-08-25T06:20:54Z</time>
      </trkpt>
      <trkpt lat="45.11467" lon="6.00298">
        <ele>714.74</ele>
        <time>2018-08-25T06:20:55Z</time>
      </trkpt>
      <trkpt lat="45.11463" lon="6.00326">
        <ele>714.74</ele>
        <time>2018-08-25T06:20:56Z</time>
      </trkpt>
      <trkpt lat="45.11462" lon="6.00355">
        <ele>715.44</ele>
        <time>2018-08-25T06:20:57Z</time>
      </trkpt>
      <trkpt lat="45.11461" lon="6.00382">
        <ele>715.65</ele>
        <time>2018-08-25T06:20:58Z</time>
      </trkpt>
      <trkpt lat="45.11462" lon="6.0041">
        <ele>715.71</ele>
        <time>2018-08-25T06:20:59Z</time>
      </trkpt>
      <trkpt lat="45.11461" lon="6.00438">
        <ele>715.73</ele>
        <time>2018-08-25T06:21:00Z</time>
      </trkpt>
      <trkpt lat="45.11459" lon="6.00466">
        <ele>715.04</ele>
        <time>2018-08-25T06:21:01Z</time>
      </trkpt>
      <trkpt lat="45.11454" lon="6.00492">
        <ele>714.83</ele>
        <time>2018-08-25T06:21:02Z</time>
      </trkpt>
      <trkpt lat="45.11449" lon="6.00517">
        <ele>715.47</ele>
        <time>2018-08-25T06:21:03Z</time>
      </trkpt>
      <trkpt lat="45.11436" lon="6.00539">
        <ele>714.96</ele>
        <time>2018-08-25T06:21:04Z</time>
      </trkpt>
      <trkpt lat="45.11424" lon="6.00558">
        <ele>714.81</ele>
        <time>2018-08-25T06:21:05Z</time>
      </trkpt>
      <trkpt lat="45.11407" lon="6.00571">
        <ele>714.76</ele>
        <time>2018-08-25T06:21:06Z</time>
      </trkpt>
      <trkpt lat="45.11389" lon="6.00582">
        <ele>714.75</ele>
        <time>2018-08-25T06:21:07Z</time>
      </trkpt>
      <trkpt lat="45.1137" lon="6.0059">
        <ele>715.44</ele>
        <time>2018-08-25T06:21:08Z</time>
      </trkpt>
      <trkpt lat="45.11351" lon="6.00596">
        <ele>715.65</ele>
        <time>2018-08-25T06:21:09Z</time>
      </trkpt>
      <trkpt lat="45.11331" lon="6.00601">
        <ele>716.41</ele>
        <time>2018-08-25T06:21:10Z</time>
      </trkpt>
      <trkpt lat="45.11311" lon="6.00605">
        <ele>715.94</ele>
        <time>2018-08-25T06:21:11Z</time>
      </trkpt>
      <trkpt lat="45.11291" lon="6.00609">
        <ele>715.8</ele>
        <time>2018-08-25T06:21:12Z</time>
      </trkpt>
      <trkpt lat="45.11272" lon="6.00614">
        <ele>715.76</ele>
        <time>2018-08-25T06:21:13Z</time>
      </trkpt>
      <trkpt lat="45.11252" lon="6.00618">
        <ele>715.75</ele>
        <time>2018-08-25T06:21:14Z</time>
      </trkpt>
      <trkpt lat="45.11233" lon="6.00622">
        <ele>715.04</ele>
        <time>2018-08-25T06:21:15Z</time>
      </trkpt>
      <trkpt lat="45.11214" lon="6.00626">
        <ele>714.83</ele>
        <time>2018-08-25T06:21:16Z</time>
      </trkpt>
      <trkpt lat="45.11194" lon="6.0063">
        <ele>714.77</ele>
        <time>2018-08-25T06:21:17Z</time>
      </trkpt>
      <trkpt lat="45.11175" lon="6.00634">
        <ele>714.75</ele>
        <time>2018-08-25T06:21:18Z</time>
      </trkpt>
      <trkpt lat="45.11156" lon="6.00639">
        <ele>715.44</ele>
        <time>2018-08-25T06:21:19Z</time>
      </trkpt>
      <trkpt lat="45.11136" lon="6.00643">
        <ele>714.95</ele>
        <time>2018-08-25T06:21:20Z</time>
      </trkpt>
      <trkpt lat="45.11117" lon="6.00648">
        <ele>714.8</ele>
        <time>2018-08-25T06:21:21Z</time>
      </trkpt>
      <trkpt lat="45.11098" lon="6.00653">
        <ele>714.76</ele>
        <time>2018-08-25T06:21:22Z</time>
      </trkpt>
      <trkpt lat="45.1108" lon="6.00657">
        <ele>714.75</ele>
        <time>2018-08-25T06:21:23Z</time>
      </trkpt>
      <trkpt lat="45.11062" lon="6.00661">
        <ele>714.74</ele>
        <time>2018-08-25T06:21:24Z</time>
      </trkpt>
      <trkpt lat="45.11043" lon="6.00666">
        <ele>715.44</ele>
        <time>2018-08-25T06:21:25Z</time>
      </trkpt>
      <trkpt lat="45.11025" lon="6.0067">
        <ele>714.95</ele>
        <time>2018-08-25T06:21:26Z</time>
      </trkpt>
      <trkpt lat="45.11006" lon="6.00675">
        <ele>714.8</ele>
        <time>2018-08-25T06:21:27Z</time>
      </trkpt>
      <trkpt lat="45.10986" lon="6.0068">
        <ele>714.76</ele>
        <time>2018-08-25T06:21:28Z</time>
      </trkpt>
      <trkpt lat="45.10967" lon="6.00684">
        <ele>714.75</ele>
        <time>2018-08-25T06:21:29Z</time>
      </trkpt>
      <trkpt lat="45.10947" lon="6.00688">
        <ele>714.74</ele>
        <time>2018-08-25T06:21:30Z</time>
      </trkpt>
      <trkpt lat="45.10928" lon="6.00693">
        <ele>715.44</ele>
        <time>2018-08-25T06:21:31Z</time>
      </trkpt>
      <trkpt lat="45.10909" lon="6.00697">
        <ele>715.65</ele>
        <time>2018-08-25T06:21:32Z</time>
      </trkpt>
      <trkpt lat="45.10889" lon="6.00702">
        <ele>715.71</ele>
        <time>2018-08-25T06:21:33Z</time>
      </trkpt>
      <trkpt lat="45.1087" lon="6.00707">
        <ele>716.43</ele>
        <time>2018-08-25T06:21:34Z</time>
      </trkpt>
      <trkpt lat="45.10851" lon="6.00711">
        <ele>716.65</ele>
        <time>2018-08-25T06:21:35Z</time>
      </trkpt>
      <trkpt lat="45.10831" lon="6.00716">
        <ele>716.71</ele>
        <time>2018-08-25T06:21:36Z</time>
      </trkpt>
      <trkpt lat="45.10812" lon="6.00721">
        <ele>716.03</ele>
        <time>2018-08-25T06:21:37Z</time>
      </trkpt>
      <trkpt lat="45.10793" lon="6.00725">
        <ele>715.83</ele>
        <time>2018-08-25T06:21:38Z</time>
      </trkpt>
      <trkpt lat="45.10774" lon="6.0073">
        <ele>716.47</ele>
        <time>2018-08-25T06:21:39Z</time>
      </trkpt>
      <trkpt lat="45.10755" lon="6.00734">
        <ele>715.96</ele>
        <time>2018-08-25T06:21:40Z</time>
      </trkpt>
      <trkpt lat="45.10736" lon="6.00739">
        <ele>715.81</ele>
        <time>2018-08-25T06:21:41Z</time>
      </trkpt>
      <trkpt lat="45.10717" lon="6.00744">
        <ele>715.06</ele>
        <time>2018-08-25T06:21:42Z</time>
      </trkpt>
      <trkpt lat="45.10699" lon="6.00749">
        <ele>714.84</ele>
        <time>2018-08-25T06:21:43Z</time>
      </trkpt>
      <trkpt lat="45.1068" lon="6.00753">
        <ele>714.77</ele>
        <time>2018-08-25T06:21:44Z</time>
      </trkpt>
      <trkpt lat="45.10661" lon="6.00757">
        <ele>714.75</ele>
        <time>2018-08-25T06:21:45Z</time>
      </trkpt>
      <trkpt lat="45.10642" lon="6.00762">
        <ele>714.74</ele>
        <time>2018-08-25T06:21:46Z</time>
      </trkpt>
      <trkpt lat="45.10623" lon="6.00766">
        <ele>714.74</ele>
        <time>2018-08-25T06:21:47Z</time>
      </trkpt>
      <trkpt lat="45.10604" lon="6.00771">
        <ele>714.04</ele>
        <time>2018-08-25T06:21:48Z</time>
      </trkpt>
      <trkpt lat="45.10585" lon="6.00775">
        <ele>713.83</ele>
        <time>2018-08-25T06:21:49Z</time>
      </trkpt>
      <trkpt lat="45.10566" lon="6.0078">
        <ele>713.77</ele>
        <time>2018-08-25T06:21:50Z</time>
      </trkpt>
      <trkpt lat="45.10548" lon="6.00784">
        <ele>713.75</ele>
        <time>2018-08-25T06:21:51Z</time>
      </trkpt>
      <trkpt lat="45.10529" lon="6.00789">
        <ele>713.04</ele>
        <time>2018-08-25T06:21:52Z</time>
      </trkpt>
      <trkpt lat="45.1051" lon="6.00793">
        <ele>713.53</ele>
        <time>2018-08-25T06:21:53Z</time>
      </trkpt>
      <trkpt lat="45.10492" lon="6.00798">
        <ele>713.68</ele>
        <time>2018-08-25T06:21:54Z</time>
      </trkpt>
      <trkpt lat="45.10473" lon="6.00802">
        <ele>713.02</ele>
        <time>2018-08-25T06:21:55Z</time>
      </trkpt>
      <trkpt lat="45.10454" lon="6.00806">
        <ele>712.83</ele>
        <time>2018-08-25T06:21:56Z</time>
      </trkpt>
      <trkpt lat="45.10436" lon="6.0081">
        <ele>712.77</ele>
        <time>2018-08-25T06:21:57Z</time>
      </trkpt>
      <trkpt lat="45.10417" lon="6.00815">
        <ele>712.75</ele>
        <time>2018-08-25T06:21:58Z</time>
      </trkpt>
      <trkpt lat="45.10397" lon="6.0082">
        <ele>713.44</ele>
        <time>2018-08-25T06:21:59Z</time>
      </trkpt>
      <trkpt lat="45.10378" lon="6.00824">
        <ele>712.95</ele>
        <time>2018-08-25T06:22:00Z</time>
      </trkpt>
      <trkpt lat="45.10358" lon="6.00829">
        <ele>712.8</ele>
        <time>2018-08-25T06:22:01Z</time>
      </trkpt>
      <trkpt lat="45.10338" lon="6.00833">
        <ele>712.76</ele>
        <time>2018-08-25T06:22:02Z</time>
      </trkpt>
      <trkpt lat="45.10317" lon="6.00838">
        <ele>712.75</ele>
        <time>2018-08-25T06:22:03Z</time>
      </trkpt>
      <trkpt lat="45.10296" lon="6.00843">
        <ele>712.74</ele>
        <time>2018-08-25T06:22:04Z</time>
      </trkpt>
      <trkpt lat="45.10276" lon="6.00847">
        <ele>712.74</ele>
        <time>2018-08-25T06:22:05Z</time>
      </trkpt>
      <trkpt lat="45.10254" lon="6.00852">
        <ele>712.74</ele>
        <time>2018-08-25T06:22:06Z</time>
      </trkpt>
      <trkpt lat="45.10233" lon="6.00857">
        <ele>712.74</ele>
        <time>2018-08-25T06:22:07Z</time>
      </trkpt>
      <trkpt lat="45.10213" lon="6.00862">
        <ele>712.74</ele>
        <time>2018-08-25T06:22:08Z</time>
      </trkpt>
      <trkpt lat="45.10192" lon="6.00868">
        <ele>712.74</ele>
        <time>2018-08-25T06:22:09Z</time>
      </trkpt>
      <trkpt lat="45.10171" lon="6.00872">
        <ele>712.74</ele>
        <time>2018-08-25T06:22:10Z</time>
      </trkpt>
      <trkpt lat="45.1015" lon="6.00877">
        <ele>713.44</ele>
        <time>2018-08-25T06:22:11Z</time>
      </trkpt>
      <trkpt lat="45.1013" lon="6.00882">
        <ele>713.65</ele>
        <time>2018-08-25T06:22:12Z</time>
      </trkpt>
      <trkpt lat="45.10109" lon="6.00887">
        <ele>713.01</ele>
        <time>2018-08-25T06:22:13Z</time>
      </trkpt>
      <trkpt lat="45.10089" lon="6.00892">
        <ele>713.52</ele>
        <time>2018-08-25T06:22:14Z</time>
      </trkpt>
      <trkpt lat="45.10068" lon="6.00897">
        <ele>713.68</ele>
        <time>2018-08-25T06:22:15Z</time>
      </trkpt>
      <trkpt lat="45.10049" lon="6.00902">
        <ele>713.72</ele>
        <time>2018-08-25T06:22:16Z</time>
      </trkpt>
      <trkpt lat="45.10028" lon="6.00906">
        <ele>713.74</ele>
        <time>2018-08-25T06:22:17Z</time>
      </trkpt>
      <trkpt lat="45.10009" lon="6.00911">
        <ele>713.74</ele>
        <time>2018-08-25T06:22:18Z</time>
      </trkpt>
      <trkpt lat="45.09988" lon="6.00916">
        <ele>713.74</ele>
        <time>2018-08-25T06:22:19Z</time>
      </trkpt>
      <trkpt lat="45.09969" lon="6.00921">
        <ele>713.74</ele>
        <time>2018-08-25T06:22:20Z</time>
      </trkpt>
      <trkpt lat="45.09949" lon="6.00925">
        <ele>713.74</ele>
        <time>2018-08-25T06:22:21Z</time>
      </trkpt>
      <trkpt lat="45.09929" lon="6.0093">
        <ele>713.74</ele>
        <time>2018-08-25T06:22:22Z</time>
      </trkpt>
      <trkpt lat="45.09909" lon="6.00934">
        <ele>714.44</ele>
        <time>2018-08-25T06:22:23Z</time>
      </trkpt>
      <trkpt lat="45.09891" lon="6.00939">
        <ele>713.95</ele>
        <time>2018-08-25T06:22:24Z</time>
      </trkpt>
      <trkpt lat="45.09873" lon="6.00943">
        <ele>713.8</ele>
        <time>2018-08-25T06:22:25Z</time>
      </trkpt>
      <trkpt lat="45.09838" lon="6.00951">
        <ele>713.96</ele>
        <time>2018-08-25T06:22:27Z</time>
      </trkpt>
      <trkpt lat="45.09803" lon="6.00954">
        <ele>714.46</ele>
        <time>2018-08-25T06:22:29Z</time>
      </trkpt>
      <trkpt lat="45.0977" lon="6.0095">
        <ele>714.72</ele>
        <time>2018-08-25T06:22:31Z</time>
      </trkpt>
      <trkpt lat="45.0974" lon="6.00962">
        <ele>714.74</ele>
        <time>2018-08-25T06:22:33Z</time>
      </trkpt>
      <trkpt lat="45.09709" lon="6.00982">
        <ele>713.83</ele>
        <time>2018-08-25T06:22:35Z</time>
      </trkpt>
      <trkpt lat="45.09675" lon="6.00992">
        <ele>714.45</ele>
        <time>2018-08-25T06:22:37Z</time>
      </trkpt>
      <trkpt lat="45.0964" lon="6.00998">
        <ele>714.71</ele>
        <time>2018-08-25T06:22:39Z</time>
      </trkpt>
      <trkpt lat="45.09622" lon="6.01002">
        <ele>714.73</ele>
        <time>2018-08-25T06:22:40Z</time>
      </trkpt>
      <trkpt lat="45.09604" lon="6.01007">
        <ele>714.74</ele>
        <time>2018-08-25T06:22:41Z</time>
      </trkpt>
      <trkpt lat="45.09586" lon="6.01011">
        <ele>714.74</ele>
        <time>2018-08-25T06:22:42Z</time>
      </trkpt>
      <trkpt lat="45.09568" lon="6.01014">
        <ele>714.74</ele>
        <time>2018-08-25T06:22:43Z</time>
      </trkpt>
      <trkpt lat="45.0955" lon="6.01018">
        <ele>714.74</ele>
        <time>2018-08-25T06:22:44Z</time>
      </trkpt>
      <trkpt lat="45.09532" lon="6.01023">
        <ele>714.74</ele>
        <time>2018-08-25T06:22:45Z</time>
      </trkpt>
      <trkpt lat="45.09498" lon="6.0103">
        <ele>713.83</ele>
        <time>2018-08-25T06:22:47Z</time>
      </trkpt>
      <trkpt lat="45.09465" lon="6.01038">
        <ele>713.75</ele>
        <time>2018-08-25T06:22:49Z</time>
      </trkpt>
      <trkpt lat="45.09431" lon="6.01046">
        <ele>714.65</ele>
        <time>2018-08-25T06:22:51Z</time>
      </trkpt>
      <trkpt lat="45.09398" lon="6.01054">
        <ele>713.82</ele>
        <time>2018-08-25T06:22:53Z</time>
      </trkpt>
      <trkpt lat="45.09363" lon="6.01062">
        <ele>713.05</ele>
        <time>2018-08-25T06:22:55Z</time>
      </trkpt>
      <trkpt lat="45.09328" lon="6.01071">
        <ele>712.77</ele>
        <time>2018-08-25T06:22:57Z</time>
      </trkpt>
      <trkpt lat="45.0931" lon="6.01075">
        <ele>712.75</ele>
        <time>2018-08-25T06:22:58Z</time>
      </trkpt>
      <trkpt lat="45.09291" lon="6.01079">
        <ele>712.74</ele>
        <time>2018-08-25T06:22:59Z</time>
      </trkpt>
      <trkpt lat="45.09273" lon="6.01083">
        <ele>712.74</ele>
        <time>2018-08-25T06:23:00Z</time>
      </trkpt>
      <trkpt lat="45.09255" lon="6.01088">
        <ele>712.04</ele>
        <time>2018-08-25T06:23:01Z</time>
      </trkpt>
      <trkpt lat="45.09237" lon="6.01092">
        <ele>711.83</ele>
        <time>2018-08-25T06:23:02Z</time>
      </trkpt>
      <trkpt lat="45.09218" lon="6.01096">
        <ele>711.77</ele>
        <time>2018-08-25T06:23:03Z</time>
      </trkpt>
      <trkpt lat="45.092" lon="6.01101">
        <ele>711.05</ele>
        <time>2018-08-25T06:23:04Z</time>
      </trkpt>
      <trkpt lat="45.09181" lon="6.01105">
        <ele>710.83</ele>
        <time>2018-08-25T06:23:05Z</time>
      </trkpt>
      <trkpt lat="45.09163" lon="6.01109">
        <ele>710.77</ele>
        <time>2018-08-25T06:23:06Z</time>
      </trkpt>
      <trkpt lat="45.09144" lon="6.01113">
        <ele>710.75</ele>
        <time>2018-08-25T06:23:07Z</time>
      </trkpt>
      <trkpt lat="45.09126" lon="6.01118">
        <ele>710.74</ele>
        <time>2018-08-25T06:23:08Z</time>
      </trkpt>
      <trkpt lat="45.09091" lon="6.01126">
        <ele>709.83</ele>
        <time>2018-08-25T06:23:10Z</time>
      </trkpt>
      <trkpt lat="45.09071" lon="6.01132">
        <ele>711.17</ele>
        <time>2018-08-25T06:23:11Z</time>
      </trkpt>
      <trkpt lat="45.09052" lon="6.01139">
        <ele>711.57</ele>
        <time>2018-08-25T06:23:12Z</time>
      </trkpt>
      <trkpt lat="45.09033" lon="6.01147">
        <ele>712.39</ele>
        <time>2018-08-25T06:23:13Z</time>
      </trkpt>
      <trkpt lat="45.09013" lon="6.0115">
        <ele>712.64</ele>
        <time>2018-08-25T06:23:14Z</time>
      </trkpt>
      <trkpt lat="45.08994" lon="6.01152">
        <ele>712.71</ele>
        <time>2018-08-25T06:23:15Z</time>
      </trkpt>
      <trkpt lat="45.08973" lon="6.01155">
        <ele>712.73</ele>
        <time>2018-08-25T06:23:16Z</time>
      </trkpt>
      <trkpt lat="45.08953" lon="6.0116">
        <ele>713.44</ele>
        <time>2018-08-25T06:23:17Z</time>
      </trkpt>
      <trkpt lat="45.08934" lon="6.01164">
        <ele>713.65</ele>
        <time>2018-08-25T06:23:18Z</time>
      </trkpt>
      <trkpt lat="45.08914" lon="6.01169">
        <ele>713.71</ele>
        <time>2018-08-25T06:23:19Z</time>
      </trkpt>
      <trkpt lat="45.08895" lon="6.01175">
        <ele>713.03</ele>
        <time>2018-08-25T06:23:20Z</time>
      </trkpt>
      <trkpt lat="45.08875" lon="6.01179">
        <ele>713.53</ele>
        <time>2018-08-25T06:23:21Z</time>
      </trkpt>
      <trkpt lat="45.08856" lon="6.01183">
        <ele>713.68</ele>
        <time>2018-08-25T06:23:22Z</time>
      </trkpt>
      <trkpt lat="45.08836" lon="6.01188">
        <ele>713.72</ele>
        <time>2018-08-25T06:23:23Z</time>
      </trkpt>
      <trkpt lat="45.08817" lon="6.01192">
        <ele>714.44</ele>
        <time>2018-08-25T06:23:24Z</time>
      </trkpt>
      <trkpt lat="45.08798" lon="6.01196">
        <ele>713.95</ele>
        <time>2018-08-25T06:23:25Z</time>
      </trkpt>
      <trkpt lat="45.0878" lon="6.012">
        <ele>713.8</ele>
        <time>2018-08-25T06:23:26Z</time>
      </trkpt>
      <trkpt lat="45.08761" lon="6.01205">
        <ele>713.76</ele>
        <time>2018-08-25T06:23:27Z</time>
      </trkpt>
      <trkpt lat="45.08742" lon="6.01209">
        <ele>713.75</ele>
        <time>2018-08-25T06:23:28Z</time>
      </trkpt>
      <trkpt lat="45.08723" lon="6.01214">
        <ele>713.74</ele>
        <time>2018-08-25T06:23:29Z</time>
      </trkpt>
      <trkpt lat="45.08704" lon="6.01219">
        <ele>713.74</ele>
        <time>2018-08-25T06:23:30Z</time>
      </trkpt>
      <trkpt lat="45.08683" lon="6.01225">
        <ele>713.74</ele>
        <time>2018-08-25T06:23:31Z</time>
      </trkpt>
      <trkpt lat="45.0866" lon="6.01232">
        <ele>713.74</ele>
        <time>2018-08-25T06:23:32Z</time>
      </trkpt>
      <trkpt lat="45.08638" lon="6.01236">
        <ele>713.74</ele>
        <time>2018-08-25T06:23:33Z</time>
      </trkpt>
      <trkpt lat="45.08615" lon="6.0124">
        <ele>713.74</ele>
        <time>2018-08-25T06:23:34Z</time>
      </trkpt>
      <trkpt lat="45.08593" lon="6.01244">
        <ele>713.74</ele>
        <time>2018-08-25T06:23:35Z</time>
      </trkpt>
      <trkpt lat="45.08572" lon="6.01249">
        <ele>713.74</ele>
        <time>2018-08-25T06:23:36Z</time>
      </trkpt>
      <trkpt lat="45.08551" lon="6.01254">
        <ele>713.74</ele>
        <time>2018-08-25T06:23:37Z</time>
      </trkpt>
      <trkpt lat="45.08529" lon="6.01259">
        <ele>713.04</ele>
        <time>2018-08-25T06:23:38Z</time>
      </trkpt>
      <trkpt lat="45.08506" lon="6.01264">
        <ele>713.53</ele>
        <time>2018-08-25T06:23:39Z</time>
      </trkpt>
      <trkpt lat="45.08484" lon="6.01269">
        <ele>713.68</ele>
        <time>2018-08-25T06:23:40Z</time>
      </trkpt>
      <trkpt lat="45.08462" lon="6.01274">
        <ele>714.42</ele>
        <time>2018-08-25T06:23:41Z</time>
      </trkpt>
      <trkpt lat="45.0844" lon="6.01279">
        <ele>713.95</ele>
        <time>2018-08-25T06:23:42Z</time>
      </trkpt>
      <trkpt lat="45.08419" lon="6.01285">
        <ele>714.5</ele>
        <time>2018-08-25T06:23:43Z</time>
      </trkpt>
      <trkpt lat="45.08398" lon="6.01289">
        <ele>713.97</ele>
        <time>2018-08-25T06:23:44Z</time>
      </trkpt>
      <trkpt lat="45.08376" lon="6.01295">
        <ele>713.81</ele>
        <time>2018-08-25T06:23:45Z</time>
      </trkpt>
      <trkpt lat="45.08356" lon="6.013">
        <ele>714.46</ele>
        <time>2018-08-25T06:23:46Z</time>
      </trkpt>
      <trkpt lat="45.08335" lon="6.01306">
        <ele>714.66</ele>
        <time>2018-08-25T06:23:47Z</time>
      </trkpt>
      <trkpt lat="45.08315" lon="6.01311">
        <ele>714.72</ele>
        <time>2018-08-25T06:23:48Z</time>
      </trkpt>
      <trkpt lat="45.08294" lon="6.01315">
        <ele>714.03</ele>
        <time>2018-08-25T06:23:49Z</time>
      </trkpt>
      <trkpt lat="45.08273" lon="6.0132">
        <ele>714.53</ele>
        <time>2018-08-25T06:23:50Z</time>
      </trkpt>
      <trkpt lat="45.08253" lon="6.01325">
        <ele>714.68</ele>
        <time>2018-08-25T06:23:51Z</time>
      </trkpt>
      <trkpt lat="45.08232" lon="6.01329">
        <ele>714.72</ele>
        <time>2018-08-25T06:23:52Z</time>
      </trkpt>
      <trkpt lat="45.08212" lon="6.01334">
        <ele>714.74</ele>
        <time>2018-08-25T06:23:53Z</time>
      </trkpt>
      <trkpt lat="45.08192" lon="6.01339">
        <ele>714.74</ele>
        <time>2018-08-25T06:23:54Z</time>
      </trkpt>
      <trkpt lat="45.08172" lon="6.01344">
        <ele>714.04</ele>
        <time>2018-08-25T06:23:55Z</time>
      </trkpt>
      <trkpt lat="45.08151" lon="6.01349">
        <ele>713.83</ele>
        <time>2018-08-25T06:23:56Z</time>
      </trkpt>
      <trkpt lat="45.08131" lon="6.01354">
        <ele>713.77</ele>
        <time>2018-08-25T06:23:57Z</time>
      </trkpt>
      <trkpt lat="45.0811" lon="6.01359">
        <ele>713.75</ele>
        <time>2018-08-25T06:23:58Z</time>
      </trkpt>
      <trkpt lat="45.0809" lon="6.01364">
        <ele>713.74</ele>
        <time>2018-08-25T06:23:59Z</time>
      </trkpt>
      <trkpt lat="45.08069" lon="6.01368">
        <ele>713.74</ele>
        <time>2018-08-25T06:24:00Z</time>
      </trkpt>
      <trkpt lat="45.08049" lon="6.01373">
        <ele>713.74</ele>
        <time>2018-08-25T06:24:01Z</time>
      </trkpt>
      <trkpt lat="45.08028" lon="6.01378">
        <ele>713.74</ele>
        <time>2018-08-25T06:24:02Z</time>
      </trkpt>
      <trkpt lat="45.08008" lon="6.01382">
        <ele>713.74</ele>
        <time>2018-08-25T06:24:03Z</time>
      </trkpt>
      <trkpt lat="45.07988" lon="6.01387">
        <ele>713.74</ele>
        <time>2018-08-25T06:24:04Z</time>
      </trkpt>
      <trkpt lat="45.07968" lon="6.01392">
        <ele>713.74</ele>
        <time>2018-08-25T06:24:05Z</time>
      </trkpt>
      <trkpt lat="45.07948" lon="6.01397">
        <ele>713.04</ele>
        <time>2018-08-25T06:24:06Z</time>
      </trkpt>
      <trkpt lat="45.07928" lon="6.01403">
        <ele>712.83</ele>
        <time>2018-08-25T06:24:07Z</time>
      </trkpt>
      <trkpt lat="45.07908" lon="6.01408">
        <ele>713.47</ele>
        <time>2018-08-25T06:24:08Z</time>
      </trkpt>
      <trkpt lat="45.07888" lon="6.01412">
        <ele>714.36</ele>
        <time>2018-08-25T06:24:09Z</time>
      </trkpt>
      <trkpt lat="45.07868" lon="6.01417">
        <ele>714.63</ele>
        <time>2018-08-25T06:24:10Z</time>
      </trkpt>
      <trkpt lat="45.0785" lon="6.01422">
        <ele>714.71</ele>
        <time>2018-08-25T06:24:11Z</time>
      </trkpt>
      <trkpt lat="45.0783" lon="6.01427">
        <ele>715.43</ele>
        <time>2018-08-25T06:24:12Z</time>
      </trkpt>
      <trkpt lat="45.0781" lon="6.01431">
        <ele>716.35</ele>
        <time>2018-08-25T06:24:13Z</time>
      </trkpt>
      <trkpt lat="45.0779" lon="6.01435">
        <ele>718.02</ele>
        <time>2018-08-25T06:24:14Z</time>
      </trkpt>
      <trkpt lat="45.07771" lon="6.0144">
        <ele>718.53</ele>
        <time>2018-08-25T06:24:15Z</time>
      </trkpt>
      <trkpt lat="45.07752" lon="6.01445">
        <ele>717.98</ele>
        <time>2018-08-25T06:24:16Z</time>
      </trkpt>
      <trkpt lat="45.07733" lon="6.01449">
        <ele>717.81</ele>
        <time>2018-08-25T06:24:17Z</time>
      </trkpt>
      <trkpt lat="45.07714" lon="6.01452">
        <ele>717.76</ele>
        <time>2018-08-25T06:24:18Z</time>
      </trkpt>
      <trkpt lat="45.07696" lon="6.01458">
        <ele>718.45</ele>
        <time>2018-08-25T06:24:19Z</time>
      </trkpt>
      <trkpt lat="45.07677" lon="6.01463">
        <ele>718.65</ele>
        <time>2018-08-25T06:24:20Z</time>
      </trkpt>
      <trkpt lat="45.07642" lon="6.01473">
        <ele>719.43</ele>
        <time>2018-08-25T06:24:22Z</time>
      </trkpt>
      <trkpt lat="45.07624" lon="6.01482">
        <ele>721.75</ele>
        <time>2018-08-25T06:24:23Z</time>
      </trkpt>
      <trkpt lat="45.07605" lon="6.01493">
        <ele>724.54</ele>
        <time>2018-08-25T06:24:24Z</time>
      </trkpt>
      <trkpt lat="45.07588" lon="6.01505">
        <ele>725.38</ele>
        <time>2018-08-25T06:24:25Z</time>
      </trkpt>
      <trkpt lat="45.07572" lon="6.01517">
        <ele>725.63</ele>
        <time>2018-08-25T06:24:26Z</time>
      </trkpt>
      <trkpt lat="45.07555" lon="6.0153">
        <ele>726.41</ele>
        <time>2018-08-25T06:24:27Z</time>
      </trkpt>
      <trkpt lat="45.07538" lon="6.01543">
        <ele>726.64</ele>
        <time>2018-08-25T06:24:28Z</time>
      </trkpt>
      <trkpt lat="45.07521" lon="6.01557">
        <ele>726.71</ele>
        <time>2018-08-25T06:24:29Z</time>
      </trkpt>
      <trkpt lat="45.07505" lon="6.0157">
        <ele>726.73</ele>
        <time>2018-08-25T06:24:30Z</time>
      </trkpt>
      <trkpt lat="45.07487" lon="6.01583">
        <ele>727.44</ele>
        <time>2018-08-25T06:24:31Z</time>
      </trkpt>
      <trkpt lat="45.0747" lon="6.01596">
        <ele>728.35</ele>
        <time>2018-08-25T06:24:32Z</time>
      </trkpt>
      <trkpt lat="45.07453" lon="6.01609">
        <ele>729.32</ele>
        <time>2018-08-25T06:24:33Z</time>
      </trkpt>
      <trkpt lat="45.07436" lon="6.01621">
        <ele>730.32</ele>
        <time>2018-08-25T06:24:34Z</time>
      </trkpt>
      <trkpt lat="45.0742" lon="6.01633">
        <ele>730.61</ele>
        <time>2018-08-25T06:24:35Z</time>
      </trkpt>
      <trkpt lat="45.07404" lon="6.01645">
        <ele>730.7</ele>
        <time>2018-08-25T06:24:36Z</time>
      </trkpt>
      <trkpt lat="45.07387" lon="6.01658">
        <ele>730.73</ele>
        <time>2018-08-25T06:24:37Z</time>
      </trkpt>
      <trkpt lat="45.07356" lon="6.01682">
        <ele>730.04</ele>
        <time>2018-08-25T06:24:39Z</time>
      </trkpt>
      <trkpt lat="45.0734" lon="6.01695">
        <ele>729.83</ele>
        <time>2018-08-25T06:24:40Z</time>
      </trkpt>
      <trkpt lat="45.07323" lon="6.01708">
        <ele>729.77</ele>
        <time>2018-08-25T06:24:41Z</time>
      </trkpt>
      <trkpt lat="45.07307" lon="6.01721">
        <ele>729.75</ele>
        <time>2018-08-25T06:24:42Z</time>
      </trkpt>
      <trkpt lat="45.07291" lon="6.01734">
        <ele>729.04</ele>
        <time>2018-08-25T06:24:43Z</time>
      </trkpt>
      <trkpt lat="45.07275" lon="6.01747">
        <ele>728.83</ele>
        <time>2018-08-25T06:24:44Z</time>
      </trkpt>
      <trkpt lat="45.07258" lon="6.01761">
        <ele>729.47</ele>
        <time>2018-08-25T06:24:45Z</time>
      </trkpt>
      <trkpt lat="45.07227" lon="6.01787">
        <ele>728.81</ele>
        <time>2018-08-25T06:24:47Z</time>
      </trkpt>
      <trkpt lat="45.0721" lon="6.01801">
        <ele>728.76</ele>
        <time>2018-08-25T06:24:48Z</time>
      </trkpt>
      <trkpt lat="45.07193" lon="6.01813">
        <ele>728.05</ele>
        <time>2018-08-25T06:24:49Z</time>
      </trkpt>
      <trkpt lat="45.07177" lon="6.01827">
        <ele>727.83</ele>
        <time>2018-08-25T06:24:50Z</time>
      </trkpt>
      <trkpt lat="45.0716" lon="6.01841">
        <ele>727.07</ele>
        <time>2018-08-25T06:24:51Z</time>
      </trkpt>
      <trkpt lat="45.07143" lon="6.01854">
        <ele>726.84</ele>
        <time>2018-08-25T06:24:52Z</time>
      </trkpt>
      <trkpt lat="45.07126" lon="6.01867">
        <ele>726.77</ele>
        <time>2018-08-25T06:24:53Z</time>
      </trkpt>
      <trkpt lat="45.07109" lon="6.0188">
        <ele>726.75</ele>
        <time>2018-08-25T06:24:54Z</time>
      </trkpt>
      <trkpt lat="45.07091" lon="6.01894">
        <ele>726.04</ele>
        <time>2018-08-25T06:24:55Z</time>
      </trkpt>
      <trkpt lat="45.07074" lon="6.01907">
        <ele>725.13</ele>
        <time>2018-08-25T06:24:56Z</time>
      </trkpt>
      <trkpt lat="45.07057" lon="6.01919">
        <ele>724.16</ele>
        <time>2018-08-25T06:24:57Z</time>
      </trkpt>
      <trkpt lat="45.0704" lon="6.01932">
        <ele>723.87</ele>
        <time>2018-08-25T06:24:58Z</time>
      </trkpt>
      <trkpt lat="45.07022" lon="6.01945">
        <ele>723.08</ele>
        <time>2018-08-25T06:24:59Z</time>
      </trkpt>
      <trkpt lat="45.07006" lon="6.01958">
        <ele>722.84</ele>
        <time>2018-08-25T06:25:00Z</time>
      </trkpt>
      <trkpt lat="45.06989" lon="6.0197">
        <ele>722.77</ele>
        <time>2018-08-25T06:25:01Z</time>
      </trkpt>
      <trkpt lat="45.06972" lon="6.01983">
        <ele>723.45</ele>
        <time>2018-08-25T06:25:02Z</time>
      </trkpt>
      <trkpt lat="45.06956" lon="6.01995">
        <ele>722.95</ele>
        <time>2018-08-25T06:25:03Z</time>
      </trkpt>
      <trkpt lat="45.0694" lon="6.02007">
        <ele>722.8</ele>
        <time>2018-08-25T06:25:04Z</time>
      </trkpt>
      <trkpt lat="45.06923" lon="6.02019">
        <ele>722.76</ele>
        <time>2018-08-25T06:25:05Z</time>
      </trkpt>
      <trkpt lat="45.06906" lon="6.02032">
        <ele>722.75</ele>
        <time>2018-08-25T06:25:06Z</time>
      </trkpt>
      <trkpt lat="45.0689" lon="6.02044">
        <ele>722.04</ele>
        <time>2018-08-25T06:25:07Z</time>
      </trkpt>
      <trkpt lat="45.06874" lon="6.02057">
        <ele>721.13</ele>
        <time>2018-08-25T06:25:08Z</time>
      </trkpt>
      <trkpt lat="45.06857" lon="6.0207">
        <ele>720.16</ele>
        <time>2018-08-25T06:25:09Z</time>
      </trkpt>
      <trkpt lat="45.0684" lon="6.02083">
        <ele>719.87</ele>
        <time>2018-08-25T06:25:10Z</time>
      </trkpt>
      <trkpt lat="45.06823" lon="6.02096">
        <ele>719.78</ele>
        <time>2018-08-25T06:25:11Z</time>
      </trkpt>
      <trkpt lat="45.06807" lon="6.02108">
        <ele>719.75</ele>
        <time>2018-08-25T06:25:12Z</time>
      </trkpt>
      <trkpt lat="45.0679" lon="6.02121">
        <ele>719.74</ele>
        <time>2018-08-25T06:25:13Z</time>
      </trkpt>
      <trkpt lat="45.06773" lon="6.02134">
        <ele>719.74</ele>
        <time>2018-08-25T06:25:14Z</time>
      </trkpt>
      <trkpt lat="45.06756" lon="6.02147">
        <ele>719.74</ele>
        <time>2018-08-25T06:25:15Z</time>
      </trkpt>
      <trkpt lat="45.06739" lon="6.0216">
        <ele>719.74</ele>
        <time>2018-08-25T06:25:16Z</time>
      </trkpt>
      <trkpt lat="45.06721" lon="6.02173">
        <ele>719.74</ele>
        <time>2018-08-25T06:25:17Z</time>
      </trkpt>
      <trkpt lat="45.06705" lon="6.02186">
        <ele>719.74</ele>
        <time>2018-08-25T06:25:18Z</time>
      </trkpt>
      <trkpt lat="45.06688" lon="6.02199">
        <ele>719.74</ele>
        <time>2018-08-25T06:25:19Z</time>
      </trkpt>
      <trkpt lat="45.06671" lon="6.02212">
        <ele>719.74</ele>
        <time>2018-08-25T06:25:20Z</time>
      </trkpt>
      <trkpt lat="45.06655" lon="6.02225">
        <ele>719.74</ele>
        <time>2018-08-25T06:25:21Z</time>
      </trkpt>
      <trkpt lat="45.06638" lon="6.02238">
        <ele>719.74</ele>
        <time>2018-08-25T06:25:22Z</time>
      </trkpt>
      <trkpt lat="45.06621" lon="6.0225">
        <ele>719.74</ele>
        <time>2018-08-25T06:25:23Z</time>
      </trkpt>
      <trkpt lat="45.06605" lon="6.02262">
        <ele>719.74</ele>
        <time>2018-08-25T06:25:24Z</time>
      </trkpt>
      <trkpt lat="45.06589" lon="6.02275">
        <ele>719.74</ele>
        <time>2018-08-25T06:25:25Z</time>
      </trkpt>
      <trkpt lat="45.06572" lon="6.02287">
        <ele>719.74</ele>
        <time>2018-08-25T06:25:26Z</time>
      </trkpt>
      <trkpt lat="45.06555" lon="6.023">
        <ele>719.74</ele>
        <time>2018-08-25T06:25:27Z</time>
      </trkpt>
      <trkpt lat="45.06539" lon="6.02312">
        <ele>720.44</ele>
        <time>2018-08-25T06:25:28Z</time>
      </trkpt>
      <trkpt lat="45.06522" lon="6.02326">
        <ele>719.95</ele>
        <time>2018-08-25T06:25:29Z</time>
      </trkpt>
      <trkpt lat="45.06505" lon="6.02339">
        <ele>720.5</ele>
        <time>2018-08-25T06:25:30Z</time>
      </trkpt>
      <trkpt lat="45.06488" lon="6.02351">
        <ele>720.67</ele>
        <time>2018-08-25T06:25:31Z</time>
      </trkpt>
      <trkpt lat="45.06472" lon="6.02364">
        <ele>720.02</ele>
        <time>2018-08-25T06:25:32Z</time>
      </trkpt>
      <trkpt lat="45.06456" lon="6.02375">
        <ele>719.82</ele>
        <time>2018-08-25T06:25:33Z</time>
      </trkpt>
      <trkpt lat="45.06425" lon="6.02399">
        <ele>720.45</ele>
        <time>2018-08-25T06:25:35Z</time>
      </trkpt>
      <trkpt lat="45.06398" lon="6.0242">
        <ele>720.71</ele>
        <time>2018-08-25T06:25:37Z</time>
      </trkpt>
      <trkpt lat="45.06374" lon="6.02433">
        <ele>720.74</ele>
        <time>2018-08-25T06:25:39Z</time>
      </trkpt>
      <trkpt lat="45.06355" lon="6.02441">
        <ele>720.74</ele>
        <time>2018-08-25T06:25:41Z</time>
      </trkpt>
      <trkpt lat="45.06344" lon="6.0247">
        <ele>720.74</ele>
        <time>2018-08-25T06:25:44Z</time>
      </trkpt>
      <trkpt lat="45.06362" lon="6.02495">
        <ele>722.41</ele>
        <time>2018-08-25T06:25:47Z</time>
      </trkpt>
      <trkpt lat="45.06378" lon="6.02519">
        <ele>722.71</ele>
        <time>2018-08-25T06:25:49Z</time>
      </trkpt>
      <trkpt lat="45.06391" lon="6.0255">
        <ele>723.44</ele>
        <time>2018-08-25T06:25:51Z</time>
      </trkpt>
      <trkpt lat="45.06405" lon="6.02584">
        <ele>724.41</ele>
        <time>2018-08-25T06:25:53Z</time>
      </trkpt>
      <trkpt lat="45.06421" lon="6.02622">
        <ele>724.71</ele>
        <time>2018-08-25T06:25:55Z</time>
      </trkpt>
      <trkpt lat="45.06438" lon="6.02666">
        <ele>726.35</ele>
        <time>2018-08-25T06:25:57Z</time>
      </trkpt>
      <trkpt lat="45.06447" lon="6.02689">
        <ele>726.62</ele>
        <time>2018-08-25T06:25:58Z</time>
      </trkpt>
      <trkpt lat="45.06456" lon="6.02712">
        <ele>726.71</ele>
        <time>2018-08-25T06:25:59Z</time>
      </trkpt>
      <trkpt lat="45.06465" lon="6.02736">
        <ele>727.43</ele>
        <time>2018-08-25T06:26:00Z</time>
      </trkpt>
      <trkpt lat="45.06474" lon="6.02759">
        <ele>728.35</ele>
        <time>2018-08-25T06:26:01Z</time>
      </trkpt>
      <trkpt lat="45.06482" lon="6.02782">
        <ele>728.62</ele>
        <time>2018-08-25T06:26:02Z</time>
      </trkpt>
      <trkpt lat="45.06495" lon="6.02828">
        <ele>728.94</ele>
        <time>2018-08-25T06:26:04Z</time>
      </trkpt>
      <trkpt lat="45.06502" lon="6.02877">
        <ele>728.97</ele>
        <time>2018-08-25T06:26:06Z</time>
      </trkpt>
      <trkpt lat="45.06505" lon="6.02925">
        <ele>729.67</ele>
        <time>2018-08-25T06:26:08Z</time>
      </trkpt>
      <trkpt lat="45.06502" lon="6.02972">
        <ele>729.03</ele>
        <time>2018-08-25T06:26:10Z</time>
      </trkpt>
      <trkpt lat="45.06493" lon="6.03019">
        <ele>728.77</ele>
        <time>2018-08-25T06:26:12Z</time>
      </trkpt>
      <trkpt lat="45.06478" lon="6.03065">
        <ele>727.13</ele>
        <time>2018-08-25T06:26:14Z</time>
      </trkpt>
      <trkpt lat="45.06468" lon="6.03086">
        <ele>726.86</ele>
        <time>2018-08-25T06:26:15Z</time>
      </trkpt>
      <trkpt lat="45.06457" lon="6.03107">
        <ele>726.08</ele>
        <time>2018-08-25T06:26:16Z</time>
      </trkpt>
      <trkpt lat="45.06445" lon="6.03127">
        <ele>725.84</ele>
        <time>2018-08-25T06:26:17Z</time>
      </trkpt>
      <trkpt lat="45.06431" lon="6.03146">
        <ele>725.07</ele>
        <time>2018-08-25T06:26:18Z</time>
      </trkpt>
      <trkpt lat="45.06417" lon="6.03162">
        <ele>724.84</ele>
        <time>2018-08-25T06:26:19Z</time>
      </trkpt>
      <trkpt lat="45.06401" lon="6.03178">
        <ele>724.77</ele>
        <time>2018-08-25T06:26:20Z</time>
      </trkpt>
      <trkpt lat="45.06385" lon="6.03192">
        <ele>724.05</ele>
        <time>2018-08-25T06:26:21Z</time>
      </trkpt>
      <trkpt lat="45.06369" lon="6.03204">
        <ele>723.83</ele>
        <time>2018-08-25T06:26:22Z</time>
      </trkpt>
      <trkpt lat="45.06352" lon="6.03217">
        <ele>724.47</ele>
        <time>2018-08-25T06:26:23Z</time>
      </trkpt>
      <trkpt lat="45.06335" lon="6.03229">
        <ele>723.96</ele>
        <time>2018-08-25T06:26:24Z</time>
      </trkpt>
      <trkpt lat="45.06319" lon="6.03241">
        <ele>723.81</ele>
        <time>2018-08-25T06:26:25Z</time>
      </trkpt>
      <trkpt lat="45.06303" lon="6.03253">
        <ele>723.76</ele>
        <time>2018-08-25T06:26:26Z</time>
      </trkpt>
      <trkpt lat="45.06286" lon="6.03266">
        <ele>723.75</ele>
        <time>2018-08-25T06:26:27Z</time>
      </trkpt>
      <trkpt lat="45.0627" lon="6.03278">
        <ele>723.74</ele>
        <time>2018-08-25T06:26:28Z</time>
      </trkpt>
      <trkpt lat="45.06253" lon="6.0329">
        <ele>723.74</ele>
        <time>2018-08-25T06:26:29Z</time>
      </trkpt>
      <trkpt lat="45.06236" lon="6.03303">
        <ele>723.04</ele>
        <time>2018-08-25T06:26:30Z</time>
      </trkpt>
      <trkpt lat="45.0622" lon="6.03316">
        <ele>722.83</ele>
        <time>2018-08-25T06:26:31Z</time>
      </trkpt>
      <trkpt lat="45.06203" lon="6.0333">
        <ele>723.47</ele>
        <time>2018-08-25T06:26:32Z</time>
      </trkpt>
      <trkpt lat="45.06188" lon="6.03344">
        <ele>723.66</ele>
        <time>2018-08-25T06:26:33Z</time>
      </trkpt>
      <trkpt lat="45.06173" lon="6.0336">
        <ele>723.72</ele>
        <time>2018-08-25T06:26:34Z</time>
      </trkpt>
      <trkpt lat="45.06158" lon="6.03376">
        <ele>723.03</ele>
        <time>2018-08-25T06:26:35Z</time>
      </trkpt>
      <trkpt lat="45.06143" lon="6.03393">
        <ele>722.83</ele>
        <time>2018-08-25T06:26:36Z</time>
      </trkpt>
      <trkpt lat="45.06128" lon="6.03411">
        <ele>722.77</ele>
        <time>2018-08-25T06:26:37Z</time>
      </trkpt>
      <trkpt lat="45.06114" lon="6.0343">
        <ele>722.75</ele>
        <time>2018-08-25T06:26:38Z</time>
      </trkpt>
      <trkpt lat="45.061" lon="6.03448">
        <ele>723.44</ele>
        <time>2018-08-25T06:26:39Z</time>
      </trkpt>
      <trkpt lat="45.06087" lon="6.03465">
        <ele>722.95</ele>
        <time>2018-08-25T06:26:40Z</time>
      </trkpt>
      <trkpt lat="45.06074" lon="6.03483">
        <ele>723.5</ele>
        <time>2018-08-25T06:26:41Z</time>
      </trkpt>
      <trkpt lat="45.06046" lon="6.03517">
        <ele>724.42</ele>
        <time>2018-08-25T06:26:43Z</time>
      </trkpt>
      <trkpt lat="45.0602" lon="6.0355">
        <ele>724.71</ele>
        <time>2018-08-25T06:26:45Z</time>
      </trkpt>
      <trkpt lat="45.05995" lon="6.03584">
        <ele>724.74</ele>
        <time>2018-08-25T06:26:47Z</time>
      </trkpt>
      <trkpt lat="45.05974" lon="6.03621">
        <ele>725.65</ele>
        <time>2018-08-25T06:26:49Z</time>
      </trkpt>
      <trkpt lat="45.05959" lon="6.03658">
        <ele>726.43</ele>
        <time>2018-08-25T06:26:51Z</time>
      </trkpt>
      <trkpt lat="45.05949" lon="6.03693">
        <ele>726.71</ele>
        <time>2018-08-25T06:26:53Z</time>
      </trkpt>
      <trkpt lat="45.05939" lon="6.03724">
        <ele>726.74</ele>
        <time>2018-08-25T06:26:55Z</time>
      </trkpt>
      <trkpt lat="45.05925" lon="6.03752">
        <ele>725.83</ele>
        <time>2018-08-25T06:26:58Z</time>
      </trkpt>
      <trkpt lat="45.05911" lon="6.03777">
        <ele>725.74</ele>
        <time>2018-08-25T06:27:01Z</time>
      </trkpt>
      <trkpt lat="45.05912" lon="6.03811">
        <ele>726.01</ele>
        <time>2018-08-25T06:27:04Z</time>
      </trkpt>
      <trkpt lat="45.05909" lon="6.03842">
        <ele>725.77</ele>
        <time>2018-08-25T06:27:06Z</time>
      </trkpt>
      <trkpt lat="45.05898" lon="6.03873">
        <ele>725.04</ele>
        <time>2018-08-25T06:27:08Z</time>
      </trkpt>
      <trkpt lat="45.05881" lon="6.039">
        <ele>724.77</ele>
        <time>2018-08-25T06:27:10Z</time>
      </trkpt>
      <trkpt lat="45.05858" lon="6.03925">
        <ele>723.13</ele>
        <time>2018-08-25T06:27:12Z</time>
      </trkpt>
      <trkpt lat="45.05825" lon="6.03945">
        <ele>722.78</ele>
        <time>2018-08-25T06:27:14Z</time>
      </trkpt>
      <trkpt lat="45.05806" lon="6.03957">
        <ele>722.75</ele>
        <time>2018-08-25T06:27:15Z</time>
      </trkpt>
      <trkpt lat="45.05788" lon="6.03968">
        <ele>722.74</ele>
        <time>2018-08-25T06:27:16Z</time>
      </trkpt>
      <trkpt lat="45.05768" lon="6.03978">
        <ele>722.74</ele>
        <time>2018-08-25T06:27:17Z</time>
      </trkpt>
      <trkpt lat="45.05747" lon="6.03989">
        <ele>722.04</ele>
        <time>2018-08-25T06:27:18Z</time>
      </trkpt>
      <trkpt lat="45.05727" lon="6.04001">
        <ele>721.83</ele>
        <time>2018-08-25T06:27:19Z</time>
      </trkpt>
      <trkpt lat="45.05707" lon="6.04013">
        <ele>722.47</ele>
        <time>2018-08-25T06:27:20Z</time>
      </trkpt>
      <trkpt lat="45.05688" lon="6.04025">
        <ele>722.66</ele>
        <time>2018-08-25T06:27:21Z</time>
      </trkpt>
      <trkpt lat="45.05669" lon="6.04039">
        <ele>722.02</ele>
        <time>2018-08-25T06:27:22Z</time>
      </trkpt>
      <trkpt lat="45.0565" lon="6.04054">
        <ele>721.82</ele>
        <time>2018-08-25T06:27:23Z</time>
      </trkpt>
      <trkpt lat="45.05633" lon="6.0407">
        <ele>722.47</ele>
        <time>2018-08-25T06:27:24Z</time>
      </trkpt>
      <trkpt lat="45.05615" lon="6.04088">
        <ele>721.96</ele>
        <time>2018-08-25T06:27:25Z</time>
      </trkpt>
      <trkpt lat="45.05599" lon="6.04106">
        <ele>721.81</ele>
        <time>2018-08-25T06:27:26Z</time>
      </trkpt>
      <trkpt lat="45.05583" lon="6.04126">
        <ele>721.76</ele>
        <time>2018-08-25T06:27:27Z</time>
      </trkpt>
      <trkpt lat="45.05567" lon="6.04146">
        <ele>721.75</ele>
        <time>2018-08-25T06:27:28Z</time>
      </trkpt>
      <trkpt lat="45.05552" lon="6.04167">
        <ele>721.74</ele>
        <time>2018-08-25T06:27:29Z</time>
      </trkpt>
      <trkpt lat="45.05536" lon="6.04187">
        <ele>721.74</ele>
        <time>2018-08-25T06:27:30Z</time>
      </trkpt>
      <trkpt lat="45.05521" lon="6.04207">
        <ele>721.74</ele>
        <time>2018-08-25T06:27:31Z</time>
      </trkpt>
      <trkpt lat="45.05505" lon="6.04226">
        <ele>721.74</ele>
        <time>2018-08-25T06:27:32Z</time>
      </trkpt>
      <trkpt lat="45.05489" lon="6.04246">
        <ele>721.04</ele>
        <time>2018-08-25T06:27:33Z</time>
      </trkpt>
      <trkpt lat="45.05474" lon="6.04265">
        <ele>721.53</ele>
        <time>2018-08-25T06:27:34Z</time>
      </trkpt>
      <trkpt lat="45.05458" lon="6.04285">
        <ele>720.98</ele>
        <time>2018-08-25T06:27:35Z</time>
      </trkpt>
      <trkpt lat="45.05442" lon="6.04305">
        <ele>721.51</ele>
        <time>2018-08-25T06:27:36Z</time>
      </trkpt>
      <trkpt lat="45.05427" lon="6.04326">
        <ele>720.97</ele>
        <time>2018-08-25T06:27:37Z</time>
      </trkpt>
      <trkpt lat="45.05411" lon="6.04346">
        <ele>721.51</ele>
        <time>2018-08-25T06:27:38Z</time>
      </trkpt>
      <trkpt lat="45.05395" lon="6.04366">
        <ele>721.67</ele>
        <time>2018-08-25T06:27:39Z</time>
      </trkpt>
      <trkpt lat="45.05379" lon="6.04386">
        <ele>722.42</ele>
        <time>2018-08-25T06:27:40Z</time>
      </trkpt>
      <trkpt lat="45.05362" lon="6.04407">
        <ele>722.64</ele>
        <time>2018-08-25T06:27:41Z</time>
      </trkpt>
      <trkpt lat="45.05347" lon="6.04427">
        <ele>722.01</ele>
        <time>2018-08-25T06:27:42Z</time>
      </trkpt>
      <trkpt lat="45.05331" lon="6.04447">
        <ele>722.52</ele>
        <time>2018-08-25T06:27:43Z</time>
      </trkpt>
      <trkpt lat="45.05314" lon="6.04466">
        <ele>721.98</ele>
        <time>2018-08-25T06:27:44Z</time>
      </trkpt>
      <trkpt lat="45.05299" lon="6.04487">
        <ele>721.81</ele>
        <time>2018-08-25T06:27:45Z</time>
      </trkpt>
      <trkpt lat="45.05282" lon="6.04507">
        <ele>721.76</ele>
        <time>2018-08-25T06:27:46Z</time>
      </trkpt>
      <trkpt lat="45.05268" lon="6.04527">
        <ele>721.75</ele>
        <time>2018-08-25T06:27:47Z</time>
      </trkpt>
      <trkpt lat="45.05252" lon="6.04546">
        <ele>721.74</ele>
        <time>2018-08-25T06:27:48Z</time>
      </trkpt>
      <trkpt lat="45.05236" lon="6.04566">
        <ele>721.74</ele>
        <time>2018-08-25T06:27:49Z</time>
      </trkpt>
      <trkpt lat="45.05221" lon="6.04585">
        <ele>721.74</ele>
        <time>2018-08-25T06:27:50Z</time>
      </trkpt>
      <trkpt lat="45.05205" lon="6.04605">
        <ele>722.44</ele>
        <time>2018-08-25T06:27:51Z</time>
      </trkpt>
      <trkpt lat="45.0519" lon="6.04625">
        <ele>721.95</ele>
        <time>2018-08-25T06:27:52Z</time>
      </trkpt>
      <trkpt lat="45.05175" lon="6.04644">
        <ele>722.5</ele>
        <time>2018-08-25T06:27:53Z</time>
      </trkpt>
      <trkpt lat="45.0516" lon="6.04664">
        <ele>722.67</ele>
        <time>2018-08-25T06:27:54Z</time>
      </trkpt>
      <trkpt lat="45.05145" lon="6.04684">
        <ele>723.42</ele>
        <time>2018-08-25T06:27:55Z</time>
      </trkpt>
      <trkpt lat="45.0513" lon="6.04704">
        <ele>723.64</ele>
        <time>2018-08-25T06:27:56Z</time>
      </trkpt>
      <trkpt lat="45.05116" lon="6.04725">
        <ele>723.71</ele>
        <time>2018-08-25T06:27:57Z</time>
      </trkpt>
      <trkpt lat="45.05102" lon="6.04747">
        <ele>723.73</ele>
        <time>2018-08-25T06:27:58Z</time>
      </trkpt>
      <trkpt lat="45.05088" lon="6.04769">
        <ele>723.74</ele>
        <time>2018-08-25T06:27:59Z</time>
      </trkpt>
      <trkpt lat="45.05075" lon="6.04792">
        <ele>724.44</ele>
        <time>2018-08-25T06:28:00Z</time>
      </trkpt>
      <trkpt lat="45.05063" lon="6.04815">
        <ele>723.95</ele>
        <time>2018-08-25T06:28:01Z</time>
      </trkpt>
      <trkpt lat="45.05049" lon="6.04838">
        <ele>724.5</ele>
        <time>2018-08-25T06:28:02Z</time>
      </trkpt>
      <trkpt lat="45.05036" lon="6.0486">
        <ele>724.67</ele>
        <time>2018-08-25T06:28:03Z</time>
      </trkpt>
      <trkpt lat="45.05023" lon="6.04883">
        <ele>724.72</ele>
        <time>2018-08-25T06:28:04Z</time>
      </trkpt>
      <trkpt lat="45.05009" lon="6.04905">
        <ele>725.43</ele>
        <time>2018-08-25T06:28:05Z</time>
      </trkpt>
      <trkpt lat="45.04996" lon="6.04927">
        <ele>725.65</ele>
        <time>2018-08-25T06:28:06Z</time>
      </trkpt>
      <trkpt lat="45.04983" lon="6.0495">
        <ele>725.71</ele>
        <time>2018-08-25T06:28:07Z</time>
      </trkpt>
      <trkpt lat="45.04971" lon="6.04972">
        <ele>725.73</ele>
        <time>2018-08-25T06:28:08Z</time>
      </trkpt>
      <trkpt lat="45.04957" lon="6.04994">
        <ele>726.44</ele>
        <time>2018-08-25T06:28:09Z</time>
      </trkpt>
      <trkpt lat="45.04944" lon="6.05016">
        <ele>726.65</ele>
        <time>2018-08-25T06:28:10Z</time>
      </trkpt>
      <trkpt lat="45.0493" lon="6.05038">
        <ele>727.41</ele>
        <time>2018-08-25T06:28:11Z</time>
      </trkpt>
      <trkpt lat="45.04917" lon="6.0506">
        <ele>727.64</ele>
        <time>2018-08-25T06:28:12Z</time>
      </trkpt>
      <trkpt lat="45.04904" lon="6.05082">
        <ele>727.71</ele>
        <time>2018-08-25T06:28:13Z</time>
      </trkpt>
      <trkpt lat="45.04891" lon="6.05105">
        <ele>727.73</ele>
        <time>2018-08-25T06:28:14Z</time>
      </trkpt>
      <trkpt lat="45.04878" lon="6.05127">
        <ele>727.74</ele>
        <time>2018-08-25T06:28:15Z</time>
      </trkpt>
      <trkpt lat="45.04866" lon="6.05149">
        <ele>727.04</ele>
        <time>2018-08-25T06:28:16Z</time>
      </trkpt>
      <trkpt lat="45.04853" lon="6.05171">
        <ele>726.83</ele>
        <time>2018-08-25T06:28:17Z</time>
      </trkpt>
      <trkpt lat="45.0484" lon="6.05193">
        <ele>726.77</ele>
        <time>2018-08-25T06:28:18Z</time>
      </trkpt>
      <trkpt lat="45.04826" lon="6.05216">
        <ele>727.45</ele>
        <time>2018-08-25T06:28:19Z</time>
      </trkpt>
      <trkpt lat="45.04813" lon="6.05239">
        <ele>726.95</ele>
        <time>2018-08-25T06:28:20Z</time>
      </trkpt>
      <trkpt lat="45.048" lon="6.05262">
        <ele>726.1</ele>
        <time>2018-08-25T06:28:21Z</time>
      </trkpt>
      <trkpt lat="45.04786" lon="6.05284">
        <ele>726.55</ele>
        <time>2018-08-25T06:28:22Z</time>
      </trkpt>
      <trkpt lat="45.04773" lon="6.05307">
        <ele>726.68</ele>
        <time>2018-08-25T06:28:23Z</time>
      </trkpt>
      <trkpt lat="45.0476" lon="6.0533">
        <ele>726.02</ele>
        <time>2018-08-25T06:28:24Z</time>
      </trkpt>
      <trkpt lat="45.04747" lon="6.05352">
        <ele>725.83</ele>
        <time>2018-08-25T06:28:25Z</time>
      </trkpt>
      <trkpt lat="45.04734" lon="6.05375">
        <ele>725.77</ele>
        <time>2018-08-25T06:28:26Z</time>
      </trkpt>
      <trkpt lat="45.0472" lon="6.05398">
        <ele>725.75</ele>
        <time>2018-08-25T06:28:27Z</time>
      </trkpt>
      <trkpt lat="45.04707" lon="6.0542">
        <ele>726.44</ele>
        <time>2018-08-25T06:28:28Z</time>
      </trkpt>
      <trkpt lat="45.04694" lon="6.05443">
        <ele>725.95</ele>
        <time>2018-08-25T06:28:29Z</time>
      </trkpt>
      <trkpt lat="45.0468" lon="6.05465">
        <ele>725.8</ele>
        <time>2018-08-25T06:28:30Z</time>
      </trkpt>
      <trkpt lat="45.04667" lon="6.05488">
        <ele>725.76</ele>
        <time>2018-08-25T06:28:31Z</time>
      </trkpt>
      <trkpt lat="45.04654" lon="6.05511">
        <ele>726.45</ele>
        <time>2018-08-25T06:28:32Z</time>
      </trkpt>
      <trkpt lat="45.04641" lon="6.05534">
        <ele>726.65</ele>
        <time>2018-08-25T06:28:33Z</time>
      </trkpt>
      <trkpt lat="45.04628" lon="6.05556">
        <ele>726.71</ele>
        <time>2018-08-25T06:28:34Z</time>
      </trkpt>
      <trkpt lat="45.04615" lon="6.05578">
        <ele>726.73</ele>
        <time>2018-08-25T06:28:35Z</time>
      </trkpt>
      <trkpt lat="45.04601" lon="6.05599">
        <ele>726.04</ele>
        <time>2018-08-25T06:28:36Z</time>
      </trkpt>
      <trkpt lat="45.04587" lon="6.05619">
        <ele>725.83</ele>
        <time>2018-08-25T06:28:37Z</time>
      </trkpt>
      <trkpt lat="45.04571" lon="6.05638">
        <ele>725.77</ele>
        <time>2018-08-25T06:28:38Z</time>
      </trkpt>
      <trkpt lat="45.04553" lon="6.05655">
        <ele>725.75</ele>
        <time>2018-08-25T06:28:39Z</time>
      </trkpt>
      <trkpt lat="45.04534" lon="6.05672">
        <ele>725.74</ele>
        <time>2018-08-25T06:28:40Z</time>
      </trkpt>
      <trkpt lat="45.04516" lon="6.05687">
        <ele>725.74</ele>
        <time>2018-08-25T06:28:41Z</time>
      </trkpt>
      <trkpt lat="45.04499" lon="6.05701">
        <ele>725.74</ele>
        <time>2018-08-25T06:28:42Z</time>
      </trkpt>
      <trkpt lat="45.04481" lon="6.05716">
        <ele>725.74</ele>
        <time>2018-08-25T06:28:43Z</time>
      </trkpt>
      <trkpt lat="45.04463" lon="6.05732">
        <ele>725.74</ele>
        <time>2018-08-25T06:28:44Z</time>
      </trkpt>
      <trkpt lat="45.04445" lon="6.05748">
        <ele>725.74</ele>
        <time>2018-08-25T06:28:45Z</time>
      </trkpt>
      <trkpt lat="45.04428" lon="6.05763">
        <ele>725.74</ele>
        <time>2018-08-25T06:28:46Z</time>
      </trkpt>
      <trkpt lat="45.0441" lon="6.05778">
        <ele>725.74</ele>
        <time>2018-08-25T06:28:47Z</time>
      </trkpt>
      <trkpt lat="45.04393" lon="6.05795">
        <ele>725.04</ele>
        <time>2018-08-25T06:28:48Z</time>
      </trkpt>
      <trkpt lat="45.04374" lon="6.0581">
        <ele>724.83</ele>
        <time>2018-08-25T06:28:49Z</time>
      </trkpt>
      <trkpt lat="45.04356" lon="6.05826">
        <ele>724.77</ele>
        <time>2018-08-25T06:28:50Z</time>
      </trkpt>
      <trkpt lat="45.04339" lon="6.05841">
        <ele>724.75</ele>
        <time>2018-08-25T06:28:51Z</time>
      </trkpt>
      <trkpt lat="45.0432" lon="6.05857">
        <ele>725.44</ele>
        <time>2018-08-25T06:28:52Z</time>
      </trkpt>
      <trkpt lat="45.04302" lon="6.05873">
        <ele>725.65</ele>
        <time>2018-08-25T06:28:53Z</time>
      </trkpt>
      <trkpt lat="45.04284" lon="6.05889">
        <ele>725.71</ele>
        <time>2018-08-25T06:28:54Z</time>
      </trkpt>
      <trkpt lat="45.04266" lon="6.05905">
        <ele>725.73</ele>
        <time>2018-08-25T06:28:55Z</time>
      </trkpt>
      <trkpt lat="45.04248" lon="6.05921">
        <ele>725.74</ele>
        <time>2018-08-25T06:28:56Z</time>
      </trkpt>
      <trkpt lat="45.0423" lon="6.05937">
        <ele>725.74</ele>
        <time>2018-08-25T06:28:57Z</time>
      </trkpt>
      <trkpt lat="45.04212" lon="6.05953">
        <ele>725.74</ele>
        <time>2018-08-25T06:28:58Z</time>
      </trkpt>
      <trkpt lat="45.04194" lon="6.05969">
        <ele>725.04</ele>
        <time>2018-08-25T06:28:59Z</time>
      </trkpt>
      <trkpt lat="45.04176" lon="6.05985">
        <ele>724.83</ele>
        <time>2018-08-25T06:29:00Z</time>
      </trkpt>
      <trkpt lat="45.04158" lon="6.06001">
        <ele>725.47</ele>
        <time>2018-08-25T06:29:01Z</time>
      </trkpt>
      <trkpt lat="45.0414" lon="6.06017">
        <ele>725.66</ele>
        <time>2018-08-25T06:29:02Z</time>
      </trkpt>
      <trkpt lat="45.04122" lon="6.06033">
        <ele>725.72</ele>
        <time>2018-08-25T06:29:03Z</time>
      </trkpt>
      <trkpt lat="45.04104" lon="6.0605">
        <ele>725.73</ele>
        <time>2018-08-25T06:29:04Z</time>
      </trkpt>
      <trkpt lat="45.04086" lon="6.06066">
        <ele>725.74</ele>
        <time>2018-08-25T06:29:05Z</time>
      </trkpt>
      <trkpt lat="45.04068" lon="6.06082">
        <ele>725.74</ele>
        <time>2018-08-25T06:29:06Z</time>
      </trkpt>
      <trkpt lat="45.0405" lon="6.06098">
        <ele>725.04</ele>
        <time>2018-08-25T06:29:07Z</time>
      </trkpt>
      <trkpt lat="45.04031" lon="6.06115">
        <ele>724.83</ele>
        <time>2018-08-25T06:29:08Z</time>
      </trkpt>
      <trkpt lat="45.04013" lon="6.06131">
        <ele>724.77</ele>
        <time>2018-08-25T06:29:09Z</time>
      </trkpt>
      <trkpt lat="45.03995" lon="6.06148">
        <ele>725.45</ele>
        <time>2018-08-25T06:29:10Z</time>
      </trkpt>
      <trkpt lat="45.03976" lon="6.06164">
        <ele>725.65</ele>
        <time>2018-08-25T06:29:11Z</time>
      </trkpt>
      <trkpt lat="45.03958" lon="6.0618">
        <ele>725.71</ele>
        <time>2018-08-25T06:29:12Z</time>
      </trkpt>
      <trkpt lat="45.03939" lon="6.06196">
        <ele>725.73</ele>
        <time>2018-08-25T06:29:13Z</time>
      </trkpt>
      <trkpt lat="45.03922" lon="6.06212">
        <ele>725.74</ele>
        <time>2018-08-25T06:29:14Z</time>
      </trkpt>
      <trkpt lat="45.03903" lon="6.06228">
        <ele>725.04</ele>
        <time>2018-08-25T06:29:15Z</time>
      </trkpt>
      <trkpt lat="45.03885" lon="6.06245">
        <ele>724.83</ele>
        <time>2018-08-25T06:29:16Z</time>
      </trkpt>
      <trkpt lat="45.03867" lon="6.06262">
        <ele>725.47</ele>
        <time>2018-08-25T06:29:17Z</time>
      </trkpt>
      <trkpt lat="45.03848" lon="6.06278">
        <ele>725.66</ele>
        <time>2018-08-25T06:29:18Z</time>
      </trkpt>
      <trkpt lat="45.0383" lon="6.06294">
        <ele>725.02</ele>
        <time>2018-08-25T06:29:19Z</time>
      </trkpt>
      <trkpt lat="45.03811" lon="6.0631">
        <ele>725.52</ele>
        <time>2018-08-25T06:29:20Z</time>
      </trkpt>
      <trkpt lat="45.03793" lon="6.06327">
        <ele>725.68</ele>
        <time>2018-08-25T06:29:21Z</time>
      </trkpt>
      <trkpt lat="45.03775" lon="6.06343">
        <ele>725.72</ele>
        <time>2018-08-25T06:29:22Z</time>
      </trkpt>
      <trkpt lat="45.03757" lon="6.06358">
        <ele>725.04</ele>
        <time>2018-08-25T06:29:23Z</time>
      </trkpt>
      <trkpt lat="45.03738" lon="6.06374">
        <ele>724.83</ele>
        <time>2018-08-25T06:29:24Z</time>
      </trkpt>
      <trkpt lat="45.03719" lon="6.0639">
        <ele>724.77</ele>
        <time>2018-08-25T06:29:25Z</time>
      </trkpt>
      <trkpt lat="45.03701" lon="6.06406">
        <ele>725.45</ele>
        <time>2018-08-25T06:29:26Z</time>
      </trkpt>
      <trkpt lat="45.03682" lon="6.06422">
        <ele>725.65</ele>
        <time>2018-08-25T06:29:27Z</time>
      </trkpt>
      <trkpt lat="45.03664" lon="6.06438">
        <ele>725.01</ele>
        <time>2018-08-25T06:29:28Z</time>
      </trkpt>
      <trkpt lat="45.03646" lon="6.06454">
        <ele>724.82</ele>
        <time>2018-08-25T06:29:29Z</time>
      </trkpt>
      <trkpt lat="45.03627" lon="6.0647">
        <ele>724.77</ele>
        <time>2018-08-25T06:29:30Z</time>
      </trkpt>
      <trkpt lat="45.03609" lon="6.06486">
        <ele>724.05</ele>
        <time>2018-08-25T06:29:31Z</time>
      </trkpt>
      <trkpt lat="45.0359" lon="6.06502">
        <ele>723.83</ele>
        <time>2018-08-25T06:29:32Z</time>
      </trkpt>
      <trkpt lat="45.03572" lon="6.06517">
        <ele>724.47</ele>
        <time>2018-08-25T06:29:33Z</time>
      </trkpt>
      <trkpt lat="45.03554" lon="6.06533">
        <ele>724.66</ele>
        <time>2018-08-25T06:29:34Z</time>
      </trkpt>
      <trkpt lat="45.03536" lon="6.06549">
        <ele>726.12</ele>
        <time>2018-08-25T06:29:35Z</time>
      </trkpt>
      <trkpt lat="45.03519" lon="6.06565">
        <ele>726.55</ele>
        <time>2018-08-25T06:29:36Z</time>
      </trkpt>
      <trkpt lat="45.03502" lon="6.0658">
        <ele>727.38</ele>
        <time>2018-08-25T06:29:37Z</time>
      </trkpt>
      <trkpt lat="45.03483" lon="6.06595">
        <ele>728.33</ele>
        <time>2018-08-25T06:29:38Z</time>
      </trkpt>
      <trkpt lat="45.03466" lon="6.0661">
        <ele>727.92</ele>
        <time>2018-08-25T06:29:39Z</time>
      </trkpt>
      <trkpt lat="45.03449" lon="6.06626">
        <ele>727.79</ele>
        <time>2018-08-25T06:29:40Z</time>
      </trkpt>
      <trkpt lat="45.03431" lon="6.06641">
        <ele>728.46</ele>
        <time>2018-08-25T06:29:41Z</time>
      </trkpt>
      <trkpt lat="45.03414" lon="6.06656">
        <ele>728.66</ele>
        <time>2018-08-25T06:29:42Z</time>
      </trkpt>
      <trkpt lat="45.03396" lon="6.06671">
        <ele>728.72</ele>
        <time>2018-08-25T06:29:43Z</time>
      </trkpt>
      <trkpt lat="45.03379" lon="6.06687">
        <ele>729.43</ele>
        <time>2018-08-25T06:29:44Z</time>
      </trkpt>
      <trkpt lat="45.03362" lon="6.06701">
        <ele>728.25</ele>
        <time>2018-08-25T06:29:45Z</time>
      </trkpt>
      <trkpt lat="45.03345" lon="6.06716">
        <ele>727.89</ele>
        <time>2018-08-25T06:29:46Z</time>
      </trkpt>
      <trkpt lat="45.03328" lon="6.06731">
        <ele>727.79</ele>
        <time>2018-08-25T06:29:47Z</time>
      </trkpt>
      <trkpt lat="45.0331" lon="6.06746">
        <ele>727.75</ele>
        <time>2018-08-25T06:29:48Z</time>
      </trkpt>
      <trkpt lat="45.03293" lon="6.06761">
        <ele>727.05</ele>
        <time>2018-08-25T06:29:49Z</time>
      </trkpt>
      <trkpt lat="45.03277" lon="6.06777">
        <ele>726.83</ele>
        <time>2018-08-25T06:29:50Z</time>
      </trkpt>
      <trkpt lat="45.0326" lon="6.06792">
        <ele>726.77</ele>
        <time>2018-08-25T06:29:51Z</time>
      </trkpt>
      <trkpt lat="45.03243" lon="6.06807">
        <ele>726.75</ele>
        <time>2018-08-25T06:29:52Z</time>
      </trkpt>
      <trkpt lat="45.03225" lon="6.06822">
        <ele>726.74</ele>
        <time>2018-08-25T06:29:53Z</time>
      </trkpt>
      <trkpt lat="45.03209" lon="6.06837">
        <ele>726.74</ele>
        <time>2018-08-25T06:29:54Z</time>
      </trkpt>
      <trkpt lat="45.03192" lon="6.06852">
        <ele>726.04</ele>
        <time>2018-08-25T06:29:55Z</time>
      </trkpt>
      <trkpt lat="45.03176" lon="6.06868">
        <ele>725.83</ele>
        <time>2018-08-25T06:29:56Z</time>
      </trkpt>
      <trkpt lat="45.03159" lon="6.06883">
        <ele>727.17</ele>
        <time>2018-08-25T06:29:57Z</time>
      </trkpt>
      <trkpt lat="45.03141" lon="6.06899">
        <ele>727.57</ele>
        <time>2018-08-25T06:29:58Z</time>
      </trkpt>
      <trkpt lat="45.03124" lon="6.06915">
        <ele>727.69</ele>
        <time>2018-08-25T06:29:59Z</time>
      </trkpt>
      <trkpt lat="45.03108" lon="6.0693">
        <ele>727.73</ele>
        <time>2018-08-25T06:30:00Z</time>
      </trkpt>
      <trkpt lat="45.03092" lon="6.06945">
        <ele>727.04</ele>
        <time>2018-08-25T06:30:01Z</time>
      </trkpt>
      <trkpt lat="45.03076" lon="6.0696">
        <ele>726.13</ele>
        <time>2018-08-25T06:30:02Z</time>
      </trkpt>
      <trkpt lat="45.0306" lon="6.06975">
        <ele>725.86</ele>
        <time>2018-08-25T06:30:03Z</time>
      </trkpt>
      <trkpt lat="45.03045" lon="6.0699">
        <ele>725.78</ele>
        <time>2018-08-25T06:30:04Z</time>
      </trkpt>
      <trkpt lat="45.03029" lon="6.07004">
        <ele>726.45</ele>
        <time>2018-08-25T06:30:05Z</time>
      </trkpt>
      <trkpt lat="45.03013" lon="6.07017">
        <ele>727.35</ele>
        <time>2018-08-25T06:30:06Z</time>
      </trkpt>
      <trkpt lat="45.02985" lon="6.07041">
        <ele>727.92</ele>
        <time>2018-08-25T06:30:08Z</time>
      </trkpt>
      <trkpt lat="45.02955" lon="6.07066">
        <ele>729.37</ele>
        <time>2018-08-25T06:30:10Z</time>
      </trkpt>
      <trkpt lat="45.02924" lon="6.07089">
        <ele>730.41</ele>
        <time>2018-08-25T06:30:12Z</time>
      </trkpt>
      <trkpt lat="45.02897" lon="6.07112">
        <ele>731.41</ele>
        <time>2018-08-25T06:30:14Z</time>
      </trkpt>
      <trkpt lat="45.02871" lon="6.07136">
        <ele>731.92</ele>
        <time>2018-08-25T06:30:16Z</time>
      </trkpt>
      <trkpt lat="45.0285" lon="6.07157">
        <ele>732.67</ele>
        <time>2018-08-25T06:30:18Z</time>
      </trkpt>
      <trkpt lat="45.02842" lon="6.07186">
        <ele>733.64</ele>
        <time>2018-08-25T06:30:20Z</time>
      </trkpt>
      <trkpt lat="45.02837" lon="6.07216">
        <ele>734.64</ele>
        <time>2018-08-25T06:30:22Z</time>
      </trkpt>
      <trkpt lat="45.02843" lon="6.07243">
        <ele>734.94</ele>
        <time>2018-08-25T06:30:24Z</time>
      </trkpt>
      <trkpt lat="45.02859" lon="6.07266">
        <ele>734.76</ele>
        <time>2018-08-25T06:30:26Z</time>
      </trkpt>
      <trkpt lat="45.02876" lon="6.0728">
        <ele>734.75</ele>
        <time>2018-08-25T06:30:27Z</time>
      </trkpt>
      <trkpt lat="45.02917" lon="6.07288">
        <ele>735.44</ele>
        <time>2018-08-25T06:30:28Z</time>
      </trkpt>
      <trkpt lat="45.0294" lon="6.07301">
        <ele>735.65</ele>
        <time>2018-08-25T06:30:29Z</time>
      </trkpt>
      <trkpt lat="45.02961" lon="6.07321">
        <ele>736.41</ele>
        <time>2018-08-25T06:30:30Z</time>
      </trkpt>
      <trkpt lat="45.0298" lon="6.07339">
        <ele>738.04</ele>
        <time>2018-08-25T06:30:31Z</time>
      </trkpt>
      <trkpt lat="45.03" lon="6.07356">
        <ele>739.93</ele>
        <time>2018-08-25T06:30:32Z</time>
      </trkpt>
      <trkpt lat="45.03018" lon="6.07377">
        <ele>741.9</ele>
        <time>2018-08-25T06:30:33Z</time>
      </trkpt>
      <trkpt lat="45.03035" lon="6.074">
        <ele>743.19</ele>
        <time>2018-08-25T06:30:34Z</time>
      </trkpt>
      <trkpt lat="45.03049" lon="6.07424">
        <ele>744.28</ele>
        <time>2018-08-25T06:30:35Z</time>
      </trkpt>
      <trkpt lat="45.03062" lon="6.07447">
        <ele>744.6</ele>
        <time>2018-08-25T06:30:36Z</time>
      </trkpt>
      <trkpt lat="45.03073" lon="6.07472">
        <ele>746.8</ele>
        <time>2018-08-25T06:30:37Z</time>
      </trkpt>
      <trkpt lat="45.0308" lon="6.07499">
        <ele>748.16</ele>
        <time>2018-08-25T06:30:38Z</time>
      </trkpt>
      <trkpt lat="45.03086" lon="6.07528">
        <ele>749.97</ele>
        <time>2018-08-25T06:30:39Z</time>
      </trkpt>
      <trkpt lat="45.03088" lon="6.0756">
        <ele>751.91</ele>
        <time>2018-08-25T06:30:40Z</time>
      </trkpt>
      <trkpt lat="45.03092" lon="6.07592">
        <ele>753.19</ele>
        <time>2018-08-25T06:30:41Z</time>
      </trkpt>
      <trkpt lat="45.03092" lon="6.07625">
        <ele>754.28</ele>
        <time>2018-08-25T06:30:42Z</time>
      </trkpt>
      <trkpt lat="45.03092" lon="6.07655">
        <ele>756</ele>
        <time>2018-08-25T06:30:43Z</time>
      </trkpt>
      <trkpt lat="45.03094" lon="6.07681">
        <ele>758.62</ele>
        <time>2018-08-25T06:30:44Z</time>
      </trkpt>
      <trkpt lat="45.03091" lon="6.07727">
        <ele>762.86</ele>
        <time>2018-08-25T06:30:46Z</time>
      </trkpt>
      <trkpt lat="45.03075" lon="6.07741">
        <ele>763.48</ele>
        <time>2018-08-25T06:30:47Z</time>
      </trkpt>
      <trkpt lat="45.0305" lon="6.07766">
        <ele>764.42</ele>
        <time>2018-08-25T06:30:49Z</time>
      </trkpt>
      <trkpt lat="45.03032" lon="6.07759">
        <ele>764.64</ele>
        <time>2018-08-25T06:30:50Z</time>
      </trkpt>
      <trkpt lat="45.03012" lon="6.07746">
        <ele>765.41</ele>
        <time>2018-08-25T06:30:51Z</time>
      </trkpt>
      <trkpt lat="45.02989" lon="6.0773">
        <ele>765.64</ele>
        <time>2018-08-25T06:30:52Z</time>
      </trkpt>
      <trkpt lat="45.02965" lon="6.0771">
        <ele>766.41</ele>
        <time>2018-08-25T06:30:53Z</time>
      </trkpt>
      <trkpt lat="45.02946" lon="6.07703">
        <ele>766.64</ele>
        <time>2018-08-25T06:30:54Z</time>
      </trkpt>
      <trkpt lat="45.02703" lon="6.08063">
        <ele>789.11</ele>
        <time>2018-08-25T06:31:17Z</time>
      </trkpt>
      <trkpt lat="45.0272" lon="6.08093">
        <ele>800.05</ele>
        <time>2018-08-25T06:31:18Z</time>
      </trkpt>
      <trkpt lat="45.02731" lon="6.08119">
        <ele>804.73</ele>
        <time>2018-08-25T06:31:19Z</time>
      </trkpt>
      <trkpt lat="45.02741" lon="6.08145">
        <ele>809.64</ele>
        <time>2018-08-25T06:31:20Z</time>
      </trkpt>
      <trkpt lat="45.0275" lon="6.08172">
        <ele>812.51</ele>
        <time>2018-08-25T06:31:21Z</time>
      </trkpt>
      <trkpt lat="45.02776" lon="6.08181">
        <ele>817.57</ele>
        <time>2018-08-25T06:31:22Z</time>
      </trkpt>
      <trkpt lat="45.02794" lon="6.082">
        <ele>821.19</ele>
        <time>2018-08-25T06:31:23Z</time>
      </trkpt>
      <trkpt lat="45.02815" lon="6.08216">
        <ele>824.38</ele>
        <time>2018-08-25T06:31:24Z</time>
      </trkpt>
      <trkpt lat="45.02834" lon="6.08232">
        <ele>828.13</ele>
        <time>2018-08-25T06:31:25Z</time>
      </trkpt>
      <trkpt lat="45.02853" lon="6.08249">
        <ele>832.76</ele>
        <time>2018-08-25T06:31:26Z</time>
      </trkpt>
      <trkpt lat="45.02871" lon="6.08267">
        <ele>835.55</ele>
        <time>2018-08-25T06:31:27Z</time>
      </trkpt>
      <trkpt lat="45.02889" lon="6.0829">
        <ele>839.18</ele>
        <time>2018-08-25T06:31:28Z</time>
      </trkpt>
      <trkpt lat="45.02903" lon="6.08315">
        <ele>840.97</ele>
        <time>2018-08-25T06:31:29Z</time>
      </trkpt>
      <trkpt lat="45.02916" lon="6.08347">
        <ele>845.01</ele>
        <time>2018-08-25T06:31:30Z</time>
      </trkpt>
      <trkpt lat="45.02934" lon="6.08372">
        <ele>849.02</ele>
        <time>2018-08-25T06:31:31Z</time>
      </trkpt>
      <trkpt lat="45.02949" lon="6.08397">
        <ele>852.33</ele>
        <time>2018-08-25T06:31:32Z</time>
      </trkpt>
      <trkpt lat="45.02965" lon="6.08423">
        <ele>855.42</ele>
        <time>2018-08-25T06:31:33Z</time>
      </trkpt>
      <trkpt lat="45.02983" lon="6.08444">
        <ele>857.04</ele>
        <time>2018-08-25T06:31:34Z</time>
      </trkpt>
      <trkpt lat="45.03003" lon="6.08462">
        <ele>858.23</ele>
        <time>2018-08-25T06:31:35Z</time>
      </trkpt>
      <trkpt lat="45.03022" lon="6.08481">
        <ele>859.29</ele>
        <time>2018-08-25T06:31:36Z</time>
      </trkpt>
      <trkpt lat="45.03042" lon="6.08498">
        <ele>860.31</ele>
        <time>2018-08-25T06:31:37Z</time>
      </trkpt>
      <trkpt lat="45.03061" lon="6.08516">
        <ele>861.31</ele>
        <time>2018-08-25T06:31:38Z</time>
      </trkpt>
      <trkpt lat="45.03081" lon="6.08532">
        <ele>862.31</ele>
        <time>2018-08-25T06:31:39Z</time>
      </trkpt>
      <trkpt lat="45.031" lon="6.08548">
        <ele>863.31</ele>
        <time>2018-08-25T06:31:40Z</time>
      </trkpt>
      <trkpt lat="45.03119" lon="6.08565">
        <ele>865.71</ele>
        <time>2018-08-25T06:31:41Z</time>
      </trkpt>
      <trkpt lat="45.03136" lon="6.08583">
        <ele>869.23</ele>
        <time>2018-08-25T06:31:42Z</time>
      </trkpt>
      <trkpt lat="45.03153" lon="6.08603">
        <ele>872.39</ele>
        <time>2018-08-25T06:31:43Z</time>
      </trkpt>
      <trkpt lat="45.03166" lon="6.08626">
        <ele>874.04</ele>
        <time>2018-08-25T06:31:44Z</time>
      </trkpt>
      <trkpt lat="45.03174" lon="6.08655">
        <ele>876.63</ele>
        <time>2018-08-25T06:31:45Z</time>
      </trkpt>
      <trkpt lat="45.03185" lon="6.08679">
        <ele>878.81</ele>
        <time>2018-08-25T06:31:46Z</time>
      </trkpt>
      <trkpt lat="45.03195" lon="6.08701">
        <ele>880.86</ele>
        <time>2018-08-25T06:31:47Z</time>
      </trkpt>
      <trkpt lat="45.03217" lon="6.08732">
        <ele>882.36</ele>
        <time>2018-08-25T06:31:49Z</time>
      </trkpt>
      <trkpt lat="45.03236" lon="6.08759">
        <ele>885.23</ele>
        <time>2018-08-25T06:31:51Z</time>
      </trkpt>
      <trkpt lat="45.03257" lon="6.08799">
        <ele>885.69</ele>
        <time>2018-08-25T06:31:53Z</time>
      </trkpt>
      <trkpt lat="45.03252" lon="6.08854">
        <ele>886.65</ele>
        <time>2018-08-25T06:31:55Z</time>
      </trkpt>
      <trkpt lat="45.03254" lon="6.08885">
        <ele>887.41</ele>
        <time>2018-08-25T06:31:56Z</time>
      </trkpt>
      <trkpt lat="45.03253" lon="6.08916">
        <ele>888.34</ele>
        <time>2018-08-25T06:31:57Z</time>
      </trkpt>
      <trkpt lat="45.03256" lon="6.08944">
        <ele>889.32</ele>
        <time>2018-08-25T06:31:58Z</time>
      </trkpt>
      <trkpt lat="45.03262" lon="6.08973">
        <ele>891.02</ele>
        <time>2018-08-25T06:31:59Z</time>
      </trkpt>
      <trkpt lat="45.03267" lon="6.08999">
        <ele>893.62</ele>
        <time>2018-08-25T06:32:00Z</time>
      </trkpt>
      <trkpt lat="45.03271" lon="6.09024">
        <ele>895.11</ele>
        <time>2018-08-25T06:32:01Z</time>
      </trkpt>
      <trkpt lat="45.03286" lon="6.09066">
        <ele>895.68</ele>
        <time>2018-08-25T06:32:03Z</time>
      </trkpt>
      <trkpt lat="45.03318" lon="6.09086">
        <ele>896.44</ele>
        <time>2018-08-25T06:32:05Z</time>
      </trkpt>
      <trkpt lat="45.03363" lon="6.09084">
        <ele>900.63</ele>
        <time>2018-08-25T06:32:07Z</time>
      </trkpt>
      <trkpt lat="45.03382" lon="6.09088">
        <ele>902.81</ele>
        <time>2018-08-25T06:32:08Z</time>
      </trkpt>
      <trkpt lat="45.03401" lon="6.09095">
        <ele>904.16</ele>
        <time>2018-08-25T06:32:09Z</time>
      </trkpt>
      <trkpt lat="45.03423" lon="6.09128">
        <ele>906.09</ele>
        <time>2018-08-25T06:32:11Z</time>
      </trkpt>
      <trkpt lat="45.03426" lon="6.09155">
        <ele>907.95</ele>
        <time>2018-08-25T06:32:12Z</time>
      </trkpt>
      <trkpt lat="45.03433" lon="6.09188">
        <ele>909.37</ele>
        <time>2018-08-25T06:32:14Z</time>
      </trkpt>
      <trkpt lat="45.03447" lon="6.09209">
        <ele>911.32</ele>
        <time>2018-08-25T06:32:16Z</time>
      </trkpt>
      <trkpt lat="45.03466" lon="6.09214">
        <ele>913.01</ele>
        <time>2018-08-25T06:32:17Z</time>
      </trkpt>
      <trkpt lat="45.03491" lon="6.09225">
        <ele>914.22</ele>
        <time>2018-08-25T06:32:18Z</time>
      </trkpt>
      <trkpt lat="45.03521" lon="6.09234">
        <ele>914.59</ele>
        <time>2018-08-25T06:32:19Z</time>
      </trkpt>
      <trkpt lat="45.03542" lon="6.09248">
        <ele>916.09</ele>
        <time>2018-08-25T06:32:20Z</time>
      </trkpt>
      <trkpt lat="45.03563" lon="6.09263">
        <ele>918.65</ele>
        <time>2018-08-25T06:32:21Z</time>
      </trkpt>
      <trkpt lat="45.03584" lon="6.09279">
        <ele>920.11</ele>
        <time>2018-08-25T06:32:22Z</time>
      </trkpt>
      <trkpt lat="45.03601" lon="6.09295">
        <ele>921.95</ele>
        <time>2018-08-25T06:32:23Z</time>
      </trkpt>
      <trkpt lat="45.03627" lon="6.09323">
        <ele>925.89</ele>
        <time>2018-08-25T06:32:25Z</time>
      </trkpt>
      <trkpt lat="45.03661" lon="6.09336">
        <ele>927.36</ele>
        <time>2018-08-25T06:32:27Z</time>
      </trkpt>
      <trkpt lat="45.03682" lon="6.09303">
        <ele>931.65</ele>
        <time>2018-08-25T06:32:30Z</time>
      </trkpt>
      <trkpt lat="45.03696" lon="6.09275">
        <ele>932.41</ele>
        <time>2018-08-25T06:32:31Z</time>
      </trkpt>
      <trkpt lat="45.03705" lon="6.09245">
        <ele>934.04</ele>
        <time>2018-08-25T06:32:32Z</time>
      </trkpt>
      <trkpt lat="45.03719" lon="6.0922">
        <ele>935.23</ele>
        <time>2018-08-25T06:32:33Z</time>
      </trkpt>
      <trkpt lat="45.03736" lon="6.092">
        <ele>936.29</ele>
        <time>2018-08-25T06:32:34Z</time>
      </trkpt>
      <trkpt lat="45.0375" lon="6.09183">
        <ele>938.01</ele>
        <time>2018-08-25T06:32:35Z</time>
      </trkpt>
      <trkpt lat="45.03767" lon="6.0917">
        <ele>938.52</ele>
        <time>2018-08-25T06:32:36Z</time>
      </trkpt>
      <trkpt lat="45.03783" lon="6.09155">
        <ele>939.37</ele>
        <time>2018-08-25T06:32:37Z</time>
      </trkpt>
      <trkpt lat="45.03801" lon="6.09148">
        <ele>938.93</ele>
        <time>2018-08-25T06:32:38Z</time>
      </trkpt>
      <trkpt lat="45.03831" lon="6.09147">
        <ele>941.98</ele>
        <time>2018-08-25T06:32:40Z</time>
      </trkpt>
      <trkpt lat="45.03846" lon="6.09164">
        <ele>942.51</ele>
        <time>2018-08-25T06:32:41Z</time>
      </trkpt>
      <trkpt lat="45.0386" lon="6.09192">
        <ele>943.37</ele>
        <time>2018-08-25T06:32:42Z</time>
      </trkpt>
      <trkpt lat="45.03877" lon="6.09238">
        <ele>944.33</ele>
        <time>2018-08-25T06:32:43Z</time>
      </trkpt>
      <trkpt lat="45.03882" lon="6.09285">
        <ele>945.32</ele>
        <time>2018-08-25T06:32:44Z</time>
      </trkpt>
      <trkpt lat="45.0389" lon="6.09316">
        <ele>947.01</ele>
        <time>2018-08-25T06:32:45Z</time>
      </trkpt>
      <trkpt lat="45.03898" lon="6.09346">
        <ele>948.92</ele>
        <time>2018-08-25T06:32:46Z</time>
      </trkpt>
      <trkpt lat="45.03906" lon="6.09372">
        <ele>953</ele>
        <time>2018-08-25T06:32:47Z</time>
      </trkpt>
      <trkpt lat="45.03914" lon="6.09395">
        <ele>955.62</ele>
        <time>2018-08-25T06:32:48Z</time>
      </trkpt>
      <trkpt lat="45.03925" lon="6.09419">
        <ele>957.1</ele>
        <time>2018-08-25T06:32:49Z</time>
      </trkpt>
      <trkpt lat="45.03936" lon="6.09442">
        <ele>958.25</ele>
        <time>2018-08-25T06:32:50Z</time>
      </trkpt>
      <trkpt lat="45.03954" lon="6.09462">
        <ele>959.29</ele>
        <time>2018-08-25T06:32:51Z</time>
      </trkpt>
      <trkpt lat="45.03966" lon="6.09486">
        <ele>960.31</ele>
        <time>2018-08-25T06:32:52Z</time>
      </trkpt>
      <trkpt lat="45.0398" lon="6.09511">
        <ele>960.61</ele>
        <time>2018-08-25T06:32:53Z</time>
      </trkpt>
      <trkpt lat="45.03993" lon="6.09537">
        <ele>960.7</ele>
        <time>2018-08-25T06:32:54Z</time>
      </trkpt>
      <trkpt lat="45.04006" lon="6.09563">
        <ele>960.73</ele>
        <time>2018-08-25T06:32:55Z</time>
      </trkpt>
      <trkpt lat="45.04016" lon="6.09586">
        <ele>960.74</ele>
        <time>2018-08-25T06:32:56Z</time>
      </trkpt>
      <trkpt lat="45.04028" lon="6.09607">
        <ele>961.44</ele>
        <time>2018-08-25T06:32:57Z</time>
      </trkpt>
      <trkpt lat="45.04038" lon="6.09629">
        <ele>962.35</ele>
        <time>2018-08-25T06:32:58Z</time>
      </trkpt>
      <trkpt lat="45.04039" lon="6.09676">
        <ele>964.32</ele>
        <time>2018-08-25T06:33:00Z</time>
      </trkpt>
      <trkpt lat="45.04036" lon="6.09703">
        <ele>967.41</ele>
        <time>2018-08-25T06:33:01Z</time>
      </trkpt>
      <trkpt lat="45.04028" lon="6.09731">
        <ele>970.44</ele>
        <time>2018-08-25T06:33:02Z</time>
      </trkpt>
      <trkpt lat="45.04023" lon="6.09758">
        <ele>973.45</ele>
        <time>2018-08-25T06:33:03Z</time>
      </trkpt>
      <trkpt lat="45.04018" lon="6.09784">
        <ele>975.05</ele>
        <time>2018-08-25T06:33:04Z</time>
      </trkpt>
      <trkpt lat="45.04016" lon="6.09835">
        <ele>977.29</ele>
        <time>2018-08-25T06:33:06Z</time>
      </trkpt>
      <trkpt lat="45.04033" lon="6.09883">
        <ele>978.19</ele>
        <time>2018-08-25T06:33:08Z</time>
      </trkpt>
      <trkpt lat="45.04051" lon="6.09924">
        <ele>979.6</ele>
        <time>2018-08-25T06:33:10Z</time>
      </trkpt>
      <trkpt lat="45.04068" lon="6.09956">
        <ele>979.03</ele>
        <time>2018-08-25T06:33:12Z</time>
      </trkpt>
      <trkpt lat="45.04079" lon="6.09986">
        <ele>978.77</ele>
        <time>2018-08-25T06:33:14Z</time>
      </trkpt>
      <trkpt lat="45.04076" lon="6.1002">
        <ele>980.35</ele>
        <time>2018-08-25T06:33:16Z</time>
      </trkpt>
      <trkpt lat="45.04049" lon="6.10021">
        <ele>981.32</ele>
        <time>2018-08-25T06:33:17Z</time>
      </trkpt>
      <trkpt lat="45.04024" lon="6.10035">
        <ele>984.71</ele>
        <time>2018-08-25T06:33:19Z</time>
      </trkpt>
      <trkpt lat="45.03994" lon="6.10038">
        <ele>987.26</ele>
        <time>2018-08-25T06:33:21Z</time>
      </trkpt>
      <trkpt lat="45.03963" lon="6.10069">
        <ele>990.43</ele>
        <time>2018-08-25T06:33:23Z</time>
      </trkpt>
      <trkpt lat="45.03947" lon="6.10091">
        <ele>990.65</ele>
        <time>2018-08-25T06:33:24Z</time>
      </trkpt>
      <trkpt lat="45.03931" lon="6.10109">
        <ele>990.71</ele>
        <time>2018-08-25T06:33:25Z</time>
      </trkpt>
      <trkpt lat="45.03906" lon="6.10133">
        <ele>991.65</ele>
        <time>2018-08-25T06:33:27Z</time>
      </trkpt>
      <trkpt lat="45.03887" lon="6.10153">
        <ele>992.43</ele>
        <time>2018-08-25T06:33:29Z</time>
      </trkpt>
      <trkpt lat="45.03877" lon="6.10177">
        <ele>993.62</ele>
        <time>2018-08-25T06:33:31Z</time>
      </trkpt>
      <trkpt lat="45.03888" lon="6.10208">
        <ele>993.94</ele>
        <time>2018-08-25T06:33:33Z</time>
      </trkpt>
      <trkpt lat="45.03887" lon="6.1024">
        <ele>991.45</ele>
        <time>2018-08-25T06:33:35Z</time>
      </trkpt>
      <trkpt lat="45.03876" lon="6.10272">
        <ele>989.19</ele>
        <time>2018-08-25T06:33:37Z</time>
      </trkpt>
      <trkpt lat="45.03845" lon="6.10303">
        <ele>988.99</ele>
        <time>2018-08-25T06:33:39Z</time>
      </trkpt>
      <trkpt lat="45.03832" lon="6.10322">
        <ele>988.12</ele>
        <time>2018-08-25T06:33:40Z</time>
      </trkpt>
      <trkpt lat="45.03819" lon="6.10342">
        <ele>987.85</ele>
        <time>2018-08-25T06:33:41Z</time>
      </trkpt>
      <trkpt lat="45.03807" lon="6.10362">
        <ele>988.47</ele>
        <time>2018-08-25T06:33:42Z</time>
      </trkpt>
      <trkpt lat="45.03797" lon="6.104">
        <ele>989.63</ele>
        <time>2018-08-25T06:33:44Z</time>
      </trkpt>
      <trkpt lat="45.03798" lon="6.10426">
        <ele>989.01</ele>
        <time>2018-08-25T06:33:45Z</time>
      </trkpt>
      <trkpt lat="45.038" lon="6.10478">
        <ele>987.85</ele>
        <time>2018-08-25T06:33:47Z</time>
      </trkpt>
      <trkpt lat="45.03813" lon="6.10511">
        <ele>987.08</ele>
        <time>2018-08-25T06:33:48Z</time>
      </trkpt>
      <trkpt lat="45.0382" lon="6.10539">
        <ele>986.14</ele>
        <time>2018-08-25T06:33:49Z</time>
      </trkpt>
      <trkpt lat="45.03828" lon="6.10565">
        <ele>984.46</ele>
        <time>2018-08-25T06:33:50Z</time>
      </trkpt>
      <trkpt lat="45.03838" lon="6.10592">
        <ele>984.66</ele>
        <time>2018-08-25T06:33:51Z</time>
      </trkpt>
      <trkpt lat="45.03846" lon="6.10619">
        <ele>984.02</ele>
        <time>2018-08-25T06:33:52Z</time>
      </trkpt>
      <trkpt lat="45.03856" lon="6.10647">
        <ele>983.82</ele>
        <time>2018-08-25T06:33:53Z</time>
      </trkpt>
      <trkpt lat="45.03865" lon="6.10675">
        <ele>983.07</ele>
        <time>2018-08-25T06:33:54Z</time>
      </trkpt>
      <trkpt lat="45.03872" lon="6.10704">
        <ele>982.14</ele>
        <time>2018-08-25T06:33:55Z</time>
      </trkpt>
      <trkpt lat="45.03877" lon="6.10732">
        <ele>981.16</ele>
        <time>2018-08-25T06:33:56Z</time>
      </trkpt>
      <trkpt lat="45.03885" lon="6.10761">
        <ele>980.87</ele>
        <time>2018-08-25T06:33:57Z</time>
      </trkpt>
      <trkpt lat="45.03895" lon="6.10784">
        <ele>980.08</ele>
        <time>2018-08-25T06:33:58Z</time>
      </trkpt>
      <trkpt lat="45.03909" lon="6.10802">
        <ele>979.14</ele>
        <time>2018-08-25T06:33:59Z</time>
      </trkpt>
      <trkpt lat="45.0392" lon="6.1084">
        <ele>977.38</ele>
        <time>2018-08-25T06:34:01Z</time>
      </trkpt>
      <trkpt lat="45.03926" lon="6.10883">
        <ele>975.4</ele>
        <time>2018-08-25T06:34:03Z</time>
      </trkpt>
      <trkpt lat="45.03915" lon="6.10906">
        <ele>972.84</ele>
        <time>2018-08-25T06:34:04Z</time>
      </trkpt>
      <trkpt lat="45.03911" lon="6.10953">
        <ele>970.23</ele>
        <time>2018-08-25T06:34:06Z</time>
      </trkpt>
      <trkpt lat="45.03921" lon="6.10997">
        <ele>968.88</ele>
        <time>2018-08-25T06:34:08Z</time>
      </trkpt>
      <trkpt lat="45.03929" lon="6.1102">
        <ele>968.78</ele>
        <time>2018-08-25T06:34:09Z</time>
      </trkpt>
      <trkpt lat="45.03936" lon="6.11063">
        <ele>968.74</ele>
        <time>2018-08-25T06:34:11Z</time>
      </trkpt>
      <trkpt lat="45.03984" lon="6.11356">
        <ele>966.64</ele>
        <time>2018-08-25T06:34:23Z</time>
      </trkpt>
      <trkpt lat="45.03997" lon="6.11399">
        <ele>965.12</ele>
        <time>2018-08-25T06:34:25Z</time>
      </trkpt>
      <trkpt lat="45.04005" lon="6.11448">
        <ele>964.08</ele>
        <time>2018-08-25T06:34:27Z</time>
      </trkpt>
      <trkpt lat="45.04006" lon="6.11475">
        <ele>963.14</ele>
        <time>2018-08-25T06:34:28Z</time>
      </trkpt>
      <trkpt lat="45.04005" lon="6.11506">
        <ele>959.36</ele>
        <time>2018-08-25T06:34:29Z</time>
      </trkpt>
      <trkpt lat="45.04009" lon="6.11534">
        <ele>957.53</ele>
        <time>2018-08-25T06:34:30Z</time>
      </trkpt>
      <trkpt lat="45.0401" lon="6.11562">
        <ele>954.88</ele>
        <time>2018-08-25T06:34:31Z</time>
      </trkpt>
      <trkpt lat="45.04011" lon="6.11589">
        <ele>954.78</ele>
        <time>2018-08-25T06:34:32Z</time>
      </trkpt>
      <trkpt lat="45.04007" lon="6.11615">
        <ele>953.35</ele>
        <time>2018-08-25T06:34:33Z</time>
      </trkpt>
      <trkpt lat="45.04006" lon="6.11642">
        <ele>952.22</ele>
        <time>2018-08-25T06:34:34Z</time>
      </trkpt>
      <trkpt lat="45.04008" lon="6.1167">
        <ele>951.19</ele>
        <time>2018-08-25T06:34:35Z</time>
      </trkpt>
      <trkpt lat="45.0401" lon="6.11698">
        <ele>950.17</ele>
        <time>2018-08-25T06:34:36Z</time>
      </trkpt>
      <trkpt lat="45.04013" lon="6.11725">
        <ele>950.57</ele>
        <time>2018-08-25T06:34:37Z</time>
      </trkpt>
      <trkpt lat="45.04018" lon="6.11752">
        <ele>949.99</ele>
        <time>2018-08-25T06:34:38Z</time>
      </trkpt>
      <trkpt lat="45.04023" lon="6.11779">
        <ele>949.82</ele>
        <time>2018-08-25T06:34:39Z</time>
      </trkpt>
      <trkpt lat="45.04031" lon="6.11805">
        <ele>949.06</ele>
        <time>2018-08-25T06:34:40Z</time>
      </trkpt>
      <trkpt lat="45.04038" lon="6.1183">
        <ele>948.14</ele>
        <time>2018-08-25T06:34:41Z</time>
      </trkpt>
      <trkpt lat="45.04045" lon="6.11855">
        <ele>947.86</ele>
        <time>2018-08-25T06:34:42Z</time>
      </trkpt>
      <trkpt lat="45.04075" lon="6.11886">
        <ele>946.84</ele>
        <time>2018-08-25T06:34:44Z</time>
      </trkpt>
      <trkpt lat="45.04091" lon="6.11902">
        <ele>946.07</ele>
        <time>2018-08-25T06:34:45Z</time>
      </trkpt>
      <trkpt lat="45.04106" lon="6.1192">
        <ele>945.84</ele>
        <time>2018-08-25T06:34:46Z</time>
      </trkpt>
      <trkpt lat="45.0412" lon="6.11937">
        <ele>945.07</ele>
        <time>2018-08-25T06:34:47Z</time>
      </trkpt>
      <trkpt lat="45.04136" lon="6.11955">
        <ele>944.84</ele>
        <time>2018-08-25T06:34:48Z</time>
      </trkpt>
      <trkpt lat="45.04149" lon="6.11974">
        <ele>944.77</ele>
        <time>2018-08-25T06:34:49Z</time>
      </trkpt>
      <trkpt lat="45.0416" lon="6.11995">
        <ele>944.05</ele>
        <time>2018-08-25T06:34:50Z</time>
      </trkpt>
      <trkpt lat="45.04183" lon="6.12026">
        <ele>942.86</ele>
        <time>2018-08-25T06:34:52Z</time>
      </trkpt>
      <trkpt lat="45.04201" lon="6.12035">
        <ele>942.78</ele>
        <time>2018-08-25T06:34:53Z</time>
      </trkpt>
      <trkpt lat="45.04217" lon="6.12045">
        <ele>942.05</ele>
        <time>2018-08-25T06:34:54Z</time>
      </trkpt>
      <trkpt lat="45.04251" lon="6.12069">
        <ele>939.25</ele>
        <time>2018-08-25T06:34:56Z</time>
      </trkpt>
      <trkpt lat="45.04268" lon="6.12088">
        <ele>938.19</ele>
        <time>2018-08-25T06:34:57Z</time>
      </trkpt>
      <trkpt lat="45.0428" lon="6.12109">
        <ele>938.58</ele>
        <time>2018-08-25T06:34:58Z</time>
      </trkpt>
      <trkpt lat="45.04295" lon="6.12134">
        <ele>938.69</ele>
        <time>2018-08-25T06:34:59Z</time>
      </trkpt>
      <trkpt lat="45.04309" lon="6.12159">
        <ele>940.13</ele>
        <time>2018-08-25T06:35:00Z</time>
      </trkpt>
      <trkpt lat="45.043" lon="6.122">
        <ele>939.86</ele>
        <time>2018-08-25T06:35:01Z</time>
      </trkpt>
      <trkpt lat="45.04283" lon="6.12233">
        <ele>939.78</ele>
        <time>2018-08-25T06:35:02Z</time>
      </trkpt>
      <trkpt lat="45.04271" lon="6.1226">
        <ele>940.45</ele>
        <time>2018-08-25T06:35:03Z</time>
      </trkpt>
      <trkpt lat="45.04251" lon="6.12283">
        <ele>939.95</ele>
        <time>2018-08-25T06:35:04Z</time>
      </trkpt>
      <trkpt lat="45.04247" lon="6.12311">
        <ele>939.1</ele>
        <time>2018-08-25T06:35:05Z</time>
      </trkpt>
      <trkpt lat="45.04248" lon="6.12337">
        <ele>938.85</ele>
        <time>2018-08-25T06:35:06Z</time>
      </trkpt>
      <trkpt lat="45.04255" lon="6.12379">
        <ele>935.53</ele>
        <time>2018-08-25T06:35:08Z</time>
      </trkpt>
      <trkpt lat="45.04273" lon="6.12412">
        <ele>933.41</ele>
        <time>2018-08-25T06:35:10Z</time>
      </trkpt>
      <trkpt lat="45.04296" lon="6.1243">
        <ele>931.89</ele>
        <time>2018-08-25T06:35:12Z</time>
      </trkpt>
      <trkpt lat="45.04324" lon="6.1244">
        <ele>930.84</ele>
        <time>2018-08-25T06:35:14Z</time>
      </trkpt>
      <trkpt lat="45.04352" lon="6.12453">
        <ele>930.05</ele>
        <time>2018-08-25T06:35:16Z</time>
      </trkpt>
      <trkpt lat="45.0438" lon="6.1247">
        <ele>929.77</ele>
        <time>2018-08-25T06:35:18Z</time>
      </trkpt>
      <trkpt lat="45.04409" lon="6.12484">
        <ele>929.74</ele>
        <time>2018-08-25T06:35:20Z</time>
      </trkpt>
      <trkpt lat="45.04439" lon="6.12497">
        <ele>928.13</ele>
        <time>2018-08-25T06:35:22Z</time>
      </trkpt>
      <trkpt lat="45.04468" lon="6.12509">
        <ele>927.78</ele>
        <time>2018-08-25T06:35:24Z</time>
      </trkpt>
      <trkpt lat="45.04496" lon="6.12523">
        <ele>927.74</ele>
        <time>2018-08-25T06:35:26Z</time>
      </trkpt>
      <trkpt lat="45.04518" lon="6.1254">
        <ele>927.74</ele>
        <time>2018-08-25T06:35:28Z</time>
      </trkpt>
      <trkpt lat="45.04538" lon="6.12574">
        <ele>927.74</ele>
        <time>2018-08-25T06:35:30Z</time>
      </trkpt>
      <trkpt lat="45.04544" lon="6.12613">
        <ele>930.26</ele>
        <time>2018-08-25T06:35:32Z</time>
      </trkpt>
      <trkpt lat="45.04563" lon="6.12646">
        <ele>933.22</ele>
        <time>2018-08-25T06:35:34Z</time>
      </trkpt>
      <trkpt lat="45.04575" lon="6.1268">
        <ele>933.9</ele>
        <time>2018-08-25T06:35:36Z</time>
      </trkpt>
      <trkpt lat="45.04581" lon="6.12718">
        <ele>934.46</ele>
        <time>2018-08-25T06:35:38Z</time>
      </trkpt>
      <trkpt lat="45.04562" lon="6.12744">
        <ele>933.32</ele>
        <time>2018-08-25T06:35:40Z</time>
      </trkpt>
      <trkpt lat="45.04538" lon="6.12756">
        <ele>933.49</ele>
        <time>2018-08-25T06:35:42Z</time>
      </trkpt>
      <trkpt lat="45.04479" lon="6.12747">
        <ele>935.12</ele>
        <time>2018-08-25T06:35:44Z</time>
      </trkpt>
      <trkpt lat="45.04454" lon="6.12746">
        <ele>934.85</ele>
        <time>2018-08-25T06:35:45Z</time>
      </trkpt>
      <trkpt lat="45.04432" lon="6.12746">
        <ele>934.08</ele>
        <time>2018-08-25T06:35:46Z</time>
      </trkpt>
      <trkpt lat="45.04412" lon="6.12746">
        <ele>933.84</ele>
        <time>2018-08-25T06:35:47Z</time>
      </trkpt>
      <trkpt lat="45.04392" lon="6.12742">
        <ele>933.77</ele>
        <time>2018-08-25T06:35:48Z</time>
      </trkpt>
      <trkpt lat="45.0437" lon="6.12737">
        <ele>933.75</ele>
        <time>2018-08-25T06:35:49Z</time>
      </trkpt>
      <trkpt lat="45.0435" lon="6.12733">
        <ele>935.14</ele>
        <time>2018-08-25T06:35:50Z</time>
      </trkpt>
      <trkpt lat="45.04328" lon="6.12729">
        <ele>934.86</ele>
        <time>2018-08-25T06:35:51Z</time>
      </trkpt>
      <trkpt lat="45.04307" lon="6.12725">
        <ele>935.48</ele>
        <time>2018-08-25T06:35:52Z</time>
      </trkpt>
      <trkpt lat="45.04286" lon="6.12719">
        <ele>935.66</ele>
        <time>2018-08-25T06:35:53Z</time>
      </trkpt>
      <trkpt lat="45.04267" lon="6.12711">
        <ele>935.72</ele>
        <time>2018-08-25T06:35:54Z</time>
      </trkpt>
      <trkpt lat="45.0425" lon="6.12696">
        <ele>936.43</ele>
        <time>2018-08-25T06:35:55Z</time>
      </trkpt>
      <trkpt lat="45.04231" lon="6.12683">
        <ele>937.35</ele>
        <time>2018-08-25T06:35:56Z</time>
      </trkpt>
      <trkpt lat="45.04212" lon="6.12673">
        <ele>937.62</ele>
        <time>2018-08-25T06:35:57Z</time>
      </trkpt>
      <trkpt lat="45.04192" lon="6.12664">
        <ele>938.41</ele>
        <time>2018-08-25T06:35:58Z</time>
      </trkpt>
      <trkpt lat="45.04173" lon="6.12655">
        <ele>940.74</ele>
        <time>2018-08-25T06:35:59Z</time>
      </trkpt>
      <trkpt lat="45.04154" lon="6.12643">
        <ele>942.14</ele>
        <time>2018-08-25T06:36:00Z</time>
      </trkpt>
      <trkpt lat="45.04137" lon="6.12628">
        <ele>943.96</ele>
        <time>2018-08-25T06:36:01Z</time>
      </trkpt>
      <trkpt lat="45.0412" lon="6.12612">
        <ele>946.61</ele>
        <time>2018-08-25T06:36:02Z</time>
      </trkpt>
      <trkpt lat="45.04105" lon="6.12594">
        <ele>948.1</ele>
        <time>2018-08-25T06:36:03Z</time>
      </trkpt>
      <trkpt lat="45.0409" lon="6.12574">
        <ele>949.25</ele>
        <time>2018-08-25T06:36:04Z</time>
      </trkpt>
      <trkpt lat="45.04078" lon="6.12554">
        <ele>949.59</ele>
        <time>2018-08-25T06:36:05Z</time>
      </trkpt>
      <trkpt lat="45.0407" lon="6.12531">
        <ele>950.4</ele>
        <time>2018-08-25T06:36:06Z</time>
      </trkpt>
      <trkpt lat="45.04074" lon="6.12499">
        <ele>951.34</ele>
        <time>2018-08-25T06:36:07Z</time>
      </trkpt>
      <trkpt lat="45.04081" lon="6.12462">
        <ele>952.12</ele>
        <time>2018-08-25T06:36:09Z</time>
      </trkpt>
      <trkpt lat="45.04072" lon="6.12434">
        <ele>953.81</ele>
        <time>2018-08-25T06:36:11Z</time>
      </trkpt>
      <trkpt lat="45.0405" lon="6.12433">
        <ele>953.47</ele>
        <time>2018-08-25T06:36:14Z</time>
      </trkpt>
      <trkpt lat="45.04034" lon="6.12463">
        <ele>955.33</ele>
        <time>2018-08-25T06:36:16Z</time>
      </trkpt>
      <trkpt lat="45.04027" lon="6.12509">
        <ele>955.62</ele>
        <time>2018-08-25T06:36:17Z</time>
      </trkpt>
      <trkpt lat="45.04026" lon="6.12541">
        <ele>955.7</ele>
        <time>2018-08-25T06:36:18Z</time>
      </trkpt>
      <trkpt lat="45.04055" lon="6.12591">
        <ele>954.33</ele>
        <time>2018-08-25T06:36:19Z</time>
      </trkpt>
      <trkpt lat="45.04081" lon="6.12631">
        <ele>955.32</ele>
        <time>2018-08-25T06:36:20Z</time>
      </trkpt>
      <trkpt lat="45.04098" lon="6.12665">
        <ele>958.41</ele>
        <time>2018-08-25T06:36:21Z</time>
      </trkpt>
      <trkpt lat="45.04115" lon="6.127">
        <ele>960.04</ele>
        <time>2018-08-25T06:36:22Z</time>
      </trkpt>
      <trkpt lat="45.04145" lon="6.12723">
        <ele>961.93</ele>
        <time>2018-08-25T06:36:23Z</time>
      </trkpt>
      <trkpt lat="45.0417" lon="6.12748">
        <ele>966</ele>
        <time>2018-08-25T06:36:24Z</time>
      </trkpt>
      <trkpt lat="45.04192" lon="6.12775">
        <ele>968.62</ele>
        <time>2018-08-25T06:36:25Z</time>
      </trkpt>
      <trkpt lat="45.04214" lon="6.12798">
        <ele>970.8</ele>
        <time>2018-08-25T06:36:26Z</time>
      </trkpt>
      <trkpt lat="45.04238" lon="6.12817">
        <ele>973.56</ele>
        <time>2018-08-25T06:36:27Z</time>
      </trkpt>
      <trkpt lat="45.04259" lon="6.12834">
        <ele>975.09</ele>
        <time>2018-08-25T06:36:28Z</time>
      </trkpt>
      <trkpt lat="45.04281" lon="6.1285">
        <ele>976.24</ele>
        <time>2018-08-25T06:36:29Z</time>
      </trkpt>
      <trkpt lat="45.04304" lon="6.12867">
        <ele>977.29</ele>
        <time>2018-08-25T06:36:30Z</time>
      </trkpt>
      <trkpt lat="45.04322" lon="6.12885">
        <ele>977.61</ele>
        <time>2018-08-25T06:36:31Z</time>
      </trkpt>
      <trkpt lat="45.04342" lon="6.12903">
        <ele>978.4</ele>
        <time>2018-08-25T06:36:32Z</time>
      </trkpt>
      <trkpt lat="45.04361" lon="6.12922">
        <ele>980.04</ele>
        <time>2018-08-25T06:36:33Z</time>
      </trkpt>
      <trkpt lat="45.04381" lon="6.12939">
        <ele>981.23</ele>
        <time>2018-08-25T06:36:34Z</time>
      </trkpt>
      <trkpt lat="45.04401" lon="6.12956">
        <ele>982.29</ele>
        <time>2018-08-25T06:36:35Z</time>
      </trkpt>
      <trkpt lat="45.0442" lon="6.12973">
        <ele>983.31</ele>
        <time>2018-08-25T06:36:36Z</time>
      </trkpt>
      <trkpt lat="45.0444" lon="6.1299">
        <ele>984.31</ele>
        <time>2018-08-25T06:36:37Z</time>
      </trkpt>
      <trkpt lat="45.04459" lon="6.13006">
        <ele>984.61</ele>
        <time>2018-08-25T06:36:38Z</time>
      </trkpt>
      <trkpt lat="45.04479" lon="6.13021">
        <ele>985.4</ele>
        <time>2018-08-25T06:36:39Z</time>
      </trkpt>
      <trkpt lat="45.04499" lon="6.13038">
        <ele>985.64</ele>
        <time>2018-08-25T06:36:40Z</time>
      </trkpt>
      <trkpt lat="45.04517" lon="6.13055">
        <ele>985.71</ele>
        <time>2018-08-25T06:36:41Z</time>
      </trkpt>
      <trkpt lat="45.04535" lon="6.1307">
        <ele>987.13</ele>
        <time>2018-08-25T06:36:42Z</time>
      </trkpt>
      <trkpt lat="45.04554" lon="6.13087">
        <ele>988.96</ele>
        <time>2018-08-25T06:36:43Z</time>
      </trkpt>
      <trkpt lat="45.04571" lon="6.13104">
        <ele>992.31</ele>
        <time>2018-08-25T06:36:44Z</time>
      </trkpt>
      <trkpt lat="45.04591" lon="6.13121">
        <ele>994.01</ele>
        <time>2018-08-25T06:36:45Z</time>
      </trkpt>
      <trkpt lat="45.04586" lon="6.13159">
        <ele>995.22</ele>
        <time>2018-08-25T06:36:46Z</time>
      </trkpt>
      <trkpt lat="45.04594" lon="6.13184">
        <ele>999.09</ele>
        <time>2018-08-25T06:36:47Z</time>
      </trkpt>
      <trkpt lat="45.04605" lon="6.13207">
        <ele>1001.64</ele>
        <time>2018-08-25T06:36:48Z</time>
      </trkpt>
      <trkpt lat="45.04616" lon="6.13229">
        <ele>1003.11</ele>
        <time>2018-08-25T06:36:49Z</time>
      </trkpt>
      <trkpt lat="45.04646" lon="6.13251">
        <ele>1006.69</ele>
        <time>2018-08-25T06:36:51Z</time>
      </trkpt>
      <trkpt lat="45.04669" lon="6.13256">
        <ele>1008.83</ele>
        <time>2018-08-25T06:36:52Z</time>
      </trkpt>
      <trkpt lat="45.04688" lon="6.13265">
        <ele>1010.87</ele>
        <time>2018-08-25T06:36:53Z</time>
      </trkpt>
      <trkpt lat="45.04712" lon="6.13287">
        <ele>1013.97</ele>
        <time>2018-08-25T06:36:55Z</time>
      </trkpt>
      <trkpt lat="45.0473" lon="6.13316">
        <ele>1016</ele>
        <time>2018-08-25T06:36:57Z</time>
      </trkpt>
      <trkpt lat="45.04715" lon="6.13367">
        <ele>1017.37</ele>
        <time>2018-08-25T06:36:59Z</time>
      </trkpt>
      <trkpt lat="45.047" lon="6.13385">
        <ele>1018.33</ele>
        <time>2018-08-25T06:37:00Z</time>
      </trkpt>
      <trkpt lat="45.04677" lon="6.13423">
        <ele>1020.31</ele>
        <time>2018-08-25T06:37:02Z</time>
      </trkpt>
      <trkpt lat="45.04658" lon="6.13438">
        <ele>1024.11</ele>
        <time>2018-08-25T06:37:03Z</time>
      </trkpt>
      <trkpt lat="45.0464" lon="6.13449">
        <ele>1028.05</ele>
        <time>2018-08-25T06:37:04Z</time>
      </trkpt>
      <trkpt lat="45.04607" lon="6.13471">
        <ele>1033.02</ele>
        <time>2018-08-25T06:37:06Z</time>
      </trkpt>
      <trkpt lat="45.04591" lon="6.13485">
        <ele>1035.62</ele>
        <time>2018-08-25T06:37:07Z</time>
      </trkpt>
      <trkpt lat="45.04564" lon="6.13517">
        <ele>1036.64</ele>
        <time>2018-08-25T06:37:09Z</time>
      </trkpt>
      <trkpt lat="45.04538" lon="6.13539">
        <ele>1037.64</ele>
        <time>2018-08-25T06:37:11Z</time>
      </trkpt>
      <trkpt lat="45.04516" lon="6.13567">
        <ele>1037.73</ele>
        <time>2018-08-25T06:37:13Z</time>
      </trkpt>
      <trkpt lat="45.04494" lon="6.13598">
        <ele>1038.65</ele>
        <time>2018-08-25T06:37:15Z</time>
      </trkpt>
      <trkpt lat="45.04497" lon="6.13624">
        <ele>1039.43</ele>
        <time>2018-08-25T06:37:17Z</time>
      </trkpt>
      <trkpt lat="45.04505" lon="6.13665">
        <ele>1041.32</ele>
        <time>2018-08-25T06:37:19Z</time>
      </trkpt>
      <trkpt lat="45.04511" lon="6.13701">
        <ele>1043.31</ele>
        <time>2018-08-25T06:37:21Z</time>
      </trkpt>
      <trkpt lat="45.04525" lon="6.13735">
        <ele>1044.61</ele>
        <time>2018-08-25T06:37:23Z</time>
      </trkpt>
      <trkpt lat="45.04544" lon="6.13761">
        <ele>1045.43</ele>
        <time>2018-08-25T06:37:25Z</time>
      </trkpt>
      <trkpt lat="45.04568" lon="6.13779">
        <ele>1045.71</ele>
        <time>2018-08-25T06:37:27Z</time>
      </trkpt>
      <trkpt lat="45.04596" lon="6.13789">
        <ele>1045.74</ele>
        <time>2018-08-25T06:37:29Z</time>
      </trkpt>
      <trkpt lat="45.04625" lon="6.13794">
        <ele>1046.44</ele>
        <time>2018-08-25T06:37:31Z</time>
      </trkpt>
      <trkpt lat="45.04653" lon="6.13799">
        <ele>1046.01</ele>
        <time>2018-08-25T06:37:33Z</time>
      </trkpt>
      <trkpt lat="45.04679" lon="6.13803">
        <ele>1045.77</ele>
        <time>2018-08-25T06:37:35Z</time>
      </trkpt>
      <trkpt lat="45.04699" lon="6.13817">
        <ele>1045.04</ele>
        <time>2018-08-25T06:37:37Z</time>
      </trkpt>
      <trkpt lat="45.04709" lon="6.13846">
        <ele>1043.86</ele>
        <time>2018-08-25T06:37:39Z</time>
      </trkpt>
      <trkpt lat="45.0471" lon="6.13885">
        <ele>1044.66</ele>
        <time>2018-08-25T06:37:41Z</time>
      </trkpt>
      <trkpt lat="45.04729" lon="6.1393">
        <ele>1046.13</ele>
        <time>2018-08-25T06:37:43Z</time>
      </trkpt>
      <trkpt lat="45.04739" lon="6.13953">
        <ele>1046.56</ele>
        <time>2018-08-25T06:37:44Z</time>
      </trkpt>
      <trkpt lat="45.04745" lon="6.13977">
        <ele>1047.39</ele>
        <time>2018-08-25T06:37:45Z</time>
      </trkpt>
      <trkpt lat="45.0475" lon="6.14028">
        <ele>1049.32</ele>
        <time>2018-08-25T06:37:47Z</time>
      </trkpt>
      <trkpt lat="45.04753" lon="6.14054">
        <ele>1049.61</ele>
        <time>2018-08-25T06:37:48Z</time>
      </trkpt>
      <trkpt lat="45.04756" lon="6.14079">
        <ele>1049.7</ele>
        <time>2018-08-25T06:37:49Z</time>
      </trkpt>
      <trkpt lat="45.04758" lon="6.14105">
        <ele>1050.43</ele>
        <time>2018-08-25T06:37:50Z</time>
      </trkpt>
      <trkpt lat="45.04761" lon="6.14155">
        <ele>1052.32</ele>
        <time>2018-08-25T06:37:52Z</time>
      </trkpt>
      <trkpt lat="45.04765" lon="6.1418">
        <ele>1052.62</ele>
        <time>2018-08-25T06:37:53Z</time>
      </trkpt>
      <trkpt lat="45.04773" lon="6.14203">
        <ele>1052.7</ele>
        <time>2018-08-25T06:37:54Z</time>
      </trkpt>
      <trkpt lat="45.04788" lon="6.14249">
        <ele>1053.65</ele>
        <time>2018-08-25T06:37:56Z</time>
      </trkpt>
      <trkpt lat="45.04794" lon="6.14296">
        <ele>1054.43</ele>
        <time>2018-08-25T06:37:58Z</time>
      </trkpt>
      <trkpt lat="45.04795" lon="6.14335">
        <ele>1054.5</ele>
        <time>2018-08-25T06:38:00Z</time>
      </trkpt>
      <trkpt lat="45.04792" lon="6.14369">
        <ele>1054.72</ele>
        <time>2018-08-25T06:38:02Z</time>
      </trkpt>
      <trkpt lat="45.04786" lon="6.14398">
        <ele>1056.56</ele>
        <time>2018-08-25T06:38:04Z</time>
      </trkpt>
      <trkpt lat="45.04522" lon="6.15591">
        <ele>1055.32</ele>
        <time>2018-08-25T06:38:58Z</time>
      </trkpt>
      <trkpt lat="45.04513" lon="6.15621">
        <ele>1052.34</ele>
        <time>2018-08-25T06:39:00Z</time>
      </trkpt>
      <trkpt lat="45.04491" lon="6.15641">
        <ele>1058.03</ele>
        <time>2018-08-25T06:39:02Z</time>
      </trkpt>
      <trkpt lat="45.04466" lon="6.15644">
        <ele>1064.14</ele>
        <time>2018-08-25T06:39:04Z</time>
      </trkpt>
      <trkpt lat="45.04441" lon="6.15644">
        <ele>1069.94</ele>
        <time>2018-08-25T06:39:06Z</time>
      </trkpt>
      <trkpt lat="45.0442" lon="6.15661">
        <ele>1070.67</ele>
        <time>2018-08-25T06:39:08Z</time>
      </trkpt>
      <trkpt lat="45.04417" lon="6.15704">
        <ele>1072.34</ele>
        <time>2018-08-25T06:39:10Z</time>
      </trkpt>
      <trkpt lat="45.04407" lon="6.15748">
        <ele>1075.02</ele>
        <time>2018-08-25T06:39:12Z</time>
      </trkpt>
      <trkpt lat="45.044" lon="6.15772">
        <ele>1075.52</ele>
        <time>2018-08-25T06:39:13Z</time>
      </trkpt>
      <trkpt lat="45.04395" lon="6.15797">
        <ele>1075.68</ele>
        <time>2018-08-25T06:39:14Z</time>
      </trkpt>
      <trkpt lat="45.04391" lon="6.15824">
        <ele>1075.72</ele>
        <time>2018-08-25T06:39:15Z</time>
      </trkpt>
      <trkpt lat="45.04386" lon="6.15852">
        <ele>1075.74</ele>
        <time>2018-08-25T06:39:16Z</time>
      </trkpt>
      <trkpt lat="45.04381" lon="6.15881">
        <ele>1075.74</ele>
        <time>2018-08-25T06:39:17Z</time>
      </trkpt>
      <trkpt lat="45.04378" lon="6.15909">
        <ele>1076.44</ele>
        <time>2018-08-25T06:39:18Z</time>
      </trkpt>
      <trkpt lat="45.04376" lon="6.15938">
        <ele>1075.25</ele>
        <time>2018-08-25T06:39:19Z</time>
      </trkpt>
      <trkpt lat="45.04375" lon="6.15969">
        <ele>1074.19</ele>
        <time>2018-08-25T06:39:20Z</time>
      </trkpt>
      <trkpt lat="45.04374" lon="6.16">
        <ele>1073.18</ele>
        <time>2018-08-25T06:39:21Z</time>
      </trkpt>
      <trkpt lat="45.04373" lon="6.1603">
        <ele>1072.87</ele>
        <time>2018-08-25T06:39:22Z</time>
      </trkpt>
      <trkpt lat="45.04376" lon="6.16058">
        <ele>1069.98</ele>
        <time>2018-08-25T06:39:23Z</time>
      </trkpt>
      <trkpt lat="45.04379" lon="6.16084">
        <ele>1068.41</ele>
        <time>2018-08-25T06:39:24Z</time>
      </trkpt>
      <trkpt lat="45.04384" lon="6.16129">
        <ele>1068.01</ele>
        <time>2018-08-25T06:39:26Z</time>
      </trkpt>
      <trkpt lat="45.04407" lon="6.16163">
        <ele>1068.47</ele>
        <time>2018-08-25T06:39:28Z</time>
      </trkpt>
      <trkpt lat="45.04417" lon="6.16193">
        <ele>1068.72</ele>
        <time>2018-08-25T06:39:30Z</time>
      </trkpt>
      <trkpt lat="45.04423" lon="6.16227">
        <ele>1068.53</ele>
        <time>2018-08-25T06:39:32Z</time>
      </trkpt>
      <trkpt lat="45.04411" lon="6.16269">
        <ele>1067.81</ele>
        <time>2018-08-25T06:39:34Z</time>
      </trkpt>
      <trkpt lat="45.04393" lon="6.16299">
        <ele>1068.46</ele>
        <time>2018-08-25T06:39:35Z</time>
      </trkpt>
      <trkpt lat="45.04385" lon="6.16325">
        <ele>1068.66</ele>
        <time>2018-08-25T06:39:36Z</time>
      </trkpt>
      <trkpt lat="45.04377" lon="6.16352">
        <ele>1068.02</ele>
        <time>2018-08-25T06:39:37Z</time>
      </trkpt>
      <trkpt lat="45.0437" lon="6.16378">
        <ele>1067.82</ele>
        <time>2018-08-25T06:39:38Z</time>
      </trkpt>
      <trkpt lat="45.04364" lon="6.16405">
        <ele>1067.07</ele>
        <time>2018-08-25T06:39:39Z</time>
      </trkpt>
      <trkpt lat="45.04356" lon="6.16431">
        <ele>1066.14</ele>
        <time>2018-08-25T06:39:40Z</time>
      </trkpt>
      <trkpt lat="45.04349" lon="6.16457">
        <ele>1065.86</ele>
        <time>2018-08-25T06:39:41Z</time>
      </trkpt>
      <trkpt lat="45.04341" lon="6.16482">
        <ele>1066.48</ele>
        <time>2018-08-25T06:39:42Z</time>
      </trkpt>
      <trkpt lat="45.04333" lon="6.16506">
        <ele>1066.66</ele>
        <time>2018-08-25T06:39:43Z</time>
      </trkpt>
      <trkpt lat="45.04325" lon="6.1653">
        <ele>1067.42</ele>
        <time>2018-08-25T06:39:44Z</time>
      </trkpt>
      <trkpt lat="45.04319" lon="6.16555">
        <ele>1067.64</ele>
        <time>2018-08-25T06:39:45Z</time>
      </trkpt>
      <trkpt lat="45.04312" lon="6.16579">
        <ele>1067.71</ele>
        <time>2018-08-25T06:39:46Z</time>
      </trkpt>
      <trkpt lat="45.04305" lon="6.16604">
        <ele>1067.73</ele>
        <time>2018-08-25T06:39:47Z</time>
      </trkpt>
      <trkpt lat="45.04298" lon="6.1663">
        <ele>1068.44</ele>
        <time>2018-08-25T06:39:48Z</time>
      </trkpt>
      <trkpt lat="45.0429" lon="6.16657">
        <ele>1068.65</ele>
        <time>2018-08-25T06:39:49Z</time>
      </trkpt>
      <trkpt lat="45.04282" lon="6.16684">
        <ele>1068.71</ele>
        <time>2018-08-25T06:39:50Z</time>
      </trkpt>
      <trkpt lat="45.04275" lon="6.16711">
        <ele>1068.73</ele>
        <time>2018-08-25T06:39:51Z</time>
      </trkpt>
      <trkpt lat="45.04271" lon="6.16737">
        <ele>1068.74</ele>
        <time>2018-08-25T06:39:52Z</time>
      </trkpt>
      <trkpt lat="45.04269" lon="6.16763">
        <ele>1068.74</ele>
        <time>2018-08-25T06:39:53Z</time>
      </trkpt>
      <trkpt lat="45.04269" lon="6.1679">
        <ele>1068.74</ele>
        <time>2018-08-25T06:39:54Z</time>
      </trkpt>
      <trkpt lat="45.0427" lon="6.16816">
        <ele>1068.74</ele>
        <time>2018-08-25T06:39:55Z</time>
      </trkpt>
      <trkpt lat="45.04277" lon="6.16864">
        <ele>1068.53</ele>
        <time>2018-08-25T06:39:57Z</time>
      </trkpt>
      <trkpt lat="45.04278" lon="6.16905">
        <ele>1068.72</ele>
        <time>2018-08-25T06:39:59Z</time>
      </trkpt>
      <trkpt lat="45.04269" lon="6.16943">
        <ele>1069.65</ele>
        <time>2018-08-25T06:40:01Z</time>
      </trkpt>
      <trkpt lat="45.04244" lon="6.16979">
        <ele>1069.73</ele>
        <time>2018-08-25T06:40:03Z</time>
      </trkpt>
      <trkpt lat="45.04223" lon="6.16999">
        <ele>1069.04</ele>
        <time>2018-08-25T06:40:04Z</time>
      </trkpt>
      <trkpt lat="45.04207" lon="6.17016">
        <ele>1068.83</ele>
        <time>2018-08-25T06:40:05Z</time>
      </trkpt>
      <trkpt lat="45.04192" lon="6.17034">
        <ele>1068.07</ele>
        <time>2018-08-25T06:40:06Z</time>
      </trkpt>
      <trkpt lat="45.0418" lon="6.17057">
        <ele>1067.14</ele>
        <time>2018-08-25T06:40:07Z</time>
      </trkpt>
      <trkpt lat="45.04167" lon="6.17082">
        <ele>1066.86</ele>
        <time>2018-08-25T06:40:08Z</time>
      </trkpt>
      <trkpt lat="45.04165" lon="6.17113">
        <ele>1066.78</ele>
        <time>2018-08-25T06:40:09Z</time>
      </trkpt>
      <trkpt lat="45.04162" lon="6.17141">
        <ele>1066.05</ele>
        <time>2018-08-25T06:40:10Z</time>
      </trkpt>
      <trkpt lat="45.04155" lon="6.17168">
        <ele>1065.83</ele>
        <time>2018-08-25T06:40:11Z</time>
      </trkpt>
      <trkpt lat="45.04148" lon="6.17194">
        <ele>1065.07</ele>
        <time>2018-08-25T06:40:12Z</time>
      </trkpt>
      <trkpt lat="45.04139" lon="6.1722">
        <ele>1063.44</ele>
        <time>2018-08-25T06:40:13Z</time>
      </trkpt>
      <trkpt lat="45.04127" lon="6.17244">
        <ele>1062.95</ele>
        <time>2018-08-25T06:40:14Z</time>
      </trkpt>
      <trkpt lat="45.04114" lon="6.17268">
        <ele>1062.1</ele>
        <time>2018-08-25T06:40:15Z</time>
      </trkpt>
      <trkpt lat="45.04102" lon="6.17291">
        <ele>1061.15</ele>
        <time>2018-08-25T06:40:16Z</time>
      </trkpt>
      <trkpt lat="45.0409" lon="6.17315">
        <ele>1060.16</ele>
        <time>2018-08-25T06:40:17Z</time>
      </trkpt>
      <trkpt lat="45.04078" lon="6.17338">
        <ele>1059.17</ele>
        <time>2018-08-25T06:40:18Z</time>
      </trkpt>
      <trkpt lat="45.04066" lon="6.17361">
        <ele>1058.17</ele>
        <time>2018-08-25T06:40:19Z</time>
      </trkpt>
      <trkpt lat="45.04056" lon="6.17385">
        <ele>1057.87</ele>
        <time>2018-08-25T06:40:20Z</time>
      </trkpt>
      <trkpt lat="45.04048" lon="6.1741">
        <ele>1058.48</ele>
        <time>2018-08-25T06:40:21Z</time>
      </trkpt>
      <trkpt lat="45.04039" lon="6.17435">
        <ele>1058.66</ele>
        <time>2018-08-25T06:40:22Z</time>
      </trkpt>
      <trkpt lat="45.04031" lon="6.17459">
        <ele>1058.72</ele>
        <time>2018-08-25T06:40:23Z</time>
      </trkpt>
      <trkpt lat="45.04022" lon="6.17484">
        <ele>1058.73</ele>
        <time>2018-08-25T06:40:24Z</time>
      </trkpt>
      <trkpt lat="45.04014" lon="6.17509">
        <ele>1058.74</ele>
        <time>2018-08-25T06:40:25Z</time>
      </trkpt>
      <trkpt lat="45.04006" lon="6.17537">
        <ele>1058.74</ele>
        <time>2018-08-25T06:40:26Z</time>
      </trkpt>
      <trkpt lat="45.03992" lon="6.17561">
        <ele>1059.44</ele>
        <time>2018-08-25T06:40:27Z</time>
      </trkpt>
      <trkpt lat="45.03982" lon="6.17585">
        <ele>1059.65</ele>
        <time>2018-08-25T06:40:28Z</time>
      </trkpt>
      <trkpt lat="45.03969" lon="6.17616">
        <ele>1059.71</ele>
        <time>2018-08-25T06:40:29Z</time>
      </trkpt>
      <trkpt lat="45.03956" lon="6.17642">
        <ele>1060.43</ele>
        <time>2018-08-25T06:40:30Z</time>
      </trkpt>
      <trkpt lat="45.03943" lon="6.17669">
        <ele>1061.35</ele>
        <time>2018-08-25T06:40:31Z</time>
      </trkpt>
      <trkpt lat="45.03932" lon="6.17696">
        <ele>1063.02</ele>
        <time>2018-08-25T06:40:32Z</time>
      </trkpt>
      <trkpt lat="45.03925" lon="6.17724">
        <ele>1064.93</ele>
        <time>2018-08-25T06:40:33Z</time>
      </trkpt>
      <trkpt lat="45.03921" lon="6.17751">
        <ele>1066.2</ele>
        <time>2018-08-25T06:40:34Z</time>
      </trkpt>
      <trkpt lat="45.0392" lon="6.17777">
        <ele>1067.98</ele>
        <time>2018-08-25T06:40:35Z</time>
      </trkpt>
      <trkpt lat="45.03922" lon="6.17802">
        <ele>1068.51</ele>
        <time>2018-08-25T06:40:36Z</time>
      </trkpt>
      <trkpt lat="45.03934" lon="6.17853">
        <ele>1070.12</ele>
        <time>2018-08-25T06:40:38Z</time>
      </trkpt>
      <trkpt lat="45.03938" lon="6.17879">
        <ele>1071.25</ele>
        <time>2018-08-25T06:40:39Z</time>
      </trkpt>
      <trkpt lat="45.03942" lon="6.17904">
        <ele>1072.3</ele>
        <time>2018-08-25T06:40:40Z</time>
      </trkpt>
      <trkpt lat="45.0394" lon="6.17936">
        <ele>1072.61</ele>
        <time>2018-08-25T06:40:41Z</time>
      </trkpt>
      <trkpt lat="45.03941" lon="6.17967">
        <ele>1072.7</ele>
        <time>2018-08-25T06:40:42Z</time>
      </trkpt>
      <trkpt lat="45.03942" lon="6.17996">
        <ele>1073.43</ele>
        <time>2018-08-25T06:40:43Z</time>
      </trkpt>
      <trkpt lat="45.03939" lon="6.18025">
        <ele>1074.35</ele>
        <time>2018-08-25T06:40:44Z</time>
      </trkpt>
      <trkpt lat="45.03934" lon="6.18055">
        <ele>1075.32</ele>
        <time>2018-08-25T06:40:45Z</time>
      </trkpt>
      <trkpt lat="45.0393" lon="6.18085">
        <ele>1075.62</ele>
        <time>2018-08-25T06:40:46Z</time>
      </trkpt>
      <trkpt lat="45.03927" lon="6.18115">
        <ele>1075.7</ele>
        <time>2018-08-25T06:40:47Z</time>
      </trkpt>
      <trkpt lat="45.03926" lon="6.18145">
        <ele>1076.43</ele>
        <time>2018-08-25T06:40:48Z</time>
      </trkpt>
      <trkpt lat="45.03927" lon="6.18177">
        <ele>1076.65</ele>
        <time>2018-08-25T06:40:49Z</time>
      </trkpt>
      <trkpt lat="45.03927" lon="6.18216">
        <ele>1076.71</ele>
        <time>2018-08-25T06:40:50Z</time>
      </trkpt>
      <trkpt lat="45.03924" lon="6.18251">
        <ele>1076.73</ele>
        <time>2018-08-25T06:40:51Z</time>
      </trkpt>
      <trkpt lat="45.0392" lon="6.18285">
        <ele>1076.74</ele>
        <time>2018-08-25T06:40:52Z</time>
      </trkpt>
      <trkpt lat="45.03911" lon="6.18318">
        <ele>1078.14</ele>
        <time>2018-08-25T06:40:53Z</time>
      </trkpt>
      <trkpt lat="45.03907" lon="6.18349">
        <ele>1079.26</ele>
        <time>2018-08-25T06:40:54Z</time>
      </trkpt>
      <trkpt lat="45.03904" lon="6.1838">
        <ele>1081</ele>
        <time>2018-08-25T06:40:55Z</time>
      </trkpt>
      <trkpt lat="45.03899" lon="6.18408">
        <ele>1081.52</ele>
        <time>2018-08-25T06:40:56Z</time>
      </trkpt>
      <trkpt lat="45.03892" lon="6.18432">
        <ele>1082.37</ele>
        <time>2018-08-25T06:40:57Z</time>
      </trkpt>
      <trkpt lat="45.0389" lon="6.18459">
        <ele>1084.03</ele>
        <time>2018-08-25T06:40:58Z</time>
      </trkpt>
      <trkpt lat="45.03887" lon="6.18487">
        <ele>1084.53</ele>
        <time>2018-08-25T06:40:59Z</time>
      </trkpt>
      <trkpt lat="45.03887" lon="6.18518">
        <ele>1084.68</ele>
        <time>2018-08-25T06:41:00Z</time>
      </trkpt>
      <trkpt lat="45.03896" lon="6.18552">
        <ele>1085.42</ele>
        <time>2018-08-25T06:41:01Z</time>
      </trkpt>
      <trkpt lat="45.039" lon="6.18585">
        <ele>1086.35</ele>
        <time>2018-08-25T06:41:02Z</time>
      </trkpt>
      <trkpt lat="45.03903" lon="6.18617">
        <ele>1086.62</ele>
        <time>2018-08-25T06:41:03Z</time>
      </trkpt>
      <trkpt lat="45.03907" lon="6.18647">
        <ele>1087.41</ele>
        <time>2018-08-25T06:41:04Z</time>
      </trkpt>
      <trkpt lat="45.03917" lon="6.18678">
        <ele>1088.34</ele>
        <time>2018-08-25T06:41:05Z</time>
      </trkpt>
      <trkpt lat="45.03926" lon="6.18708">
        <ele>1088.62</ele>
        <time>2018-08-25T06:41:06Z</time>
      </trkpt>
      <trkpt lat="45.0393" lon="6.18738">
        <ele>1088.7</ele>
        <time>2018-08-25T06:41:07Z</time>
      </trkpt>
      <trkpt lat="45.03932" lon="6.18771">
        <ele>1089.43</ele>
        <time>2018-08-25T06:41:08Z</time>
      </trkpt>
      <trkpt lat="45.03933" lon="6.18804">
        <ele>1090.35</ele>
        <time>2018-08-25T06:41:09Z</time>
      </trkpt>
      <trkpt lat="45.03928" lon="6.18839">
        <ele>1091.32</ele>
        <time>2018-08-25T06:41:10Z</time>
      </trkpt>
      <trkpt lat="45.03924" lon="6.18873">
        <ele>1092.32</ele>
        <time>2018-08-25T06:41:11Z</time>
      </trkpt>
      <trkpt lat="45.03916" lon="6.18906">
        <ele>1094.01</ele>
        <time>2018-08-25T06:41:12Z</time>
      </trkpt>
      <trkpt lat="45.03899" lon="6.18936">
        <ele>1095.92</ele>
        <time>2018-08-25T06:41:13Z</time>
      </trkpt>
      <trkpt lat="45.03888" lon="6.18965">
        <ele>1097.2</ele>
        <time>2018-08-25T06:41:14Z</time>
      </trkpt>
      <trkpt lat="45.03876" lon="6.18991">
        <ele>1097.58</ele>
        <time>2018-08-25T06:41:15Z</time>
      </trkpt>
      <trkpt lat="45.03862" lon="6.19013">
        <ele>1098.39</ele>
        <time>2018-08-25T06:41:16Z</time>
      </trkpt>
      <trkpt lat="45.03851" lon="6.19034">
        <ele>1097.94</ele>
        <time>2018-08-25T06:41:17Z</time>
      </trkpt>
      <trkpt lat="45.03841" lon="6.19059">
        <ele>1097.8</ele>
        <time>2018-08-25T06:41:18Z</time>
      </trkpt>
      <trkpt lat="45.03834" lon="6.19087">
        <ele>1098.46</ele>
        <time>2018-08-25T06:41:19Z</time>
      </trkpt>
      <trkpt lat="45.03828" lon="6.1912">
        <ele>1099.36</ele>
        <time>2018-08-25T06:41:20Z</time>
      </trkpt>
      <trkpt lat="45.03824" lon="6.19155">
        <ele>1100.33</ele>
        <time>2018-08-25T06:41:21Z</time>
      </trkpt>
      <trkpt lat="45.03818" lon="6.19193">
        <ele>1101.32</ele>
        <time>2018-08-25T06:41:22Z</time>
      </trkpt>
      <trkpt lat="45.03815" lon="6.19232">
        <ele>1102.31</ele>
        <time>2018-08-25T06:41:23Z</time>
      </trkpt>
      <trkpt lat="45.03812" lon="6.19269">
        <ele>1103.31</ele>
        <time>2018-08-25T06:41:24Z</time>
      </trkpt>
      <trkpt lat="45.03805" lon="6.19303">
        <ele>1105.01</ele>
        <time>2018-08-25T06:41:25Z</time>
      </trkpt>
      <trkpt lat="45.038" lon="6.19339">
        <ele>1105.52</ele>
        <time>2018-08-25T06:41:26Z</time>
      </trkpt>
      <trkpt lat="45.0379" lon="6.19373">
        <ele>1106.38</ele>
        <time>2018-08-25T06:41:27Z</time>
      </trkpt>
      <trkpt lat="45.03778" lon="6.19407">
        <ele>1106.63</ele>
        <time>2018-08-25T06:41:28Z</time>
      </trkpt>
      <trkpt lat="45.03761" lon="6.19438">
        <ele>1107.41</ele>
        <time>2018-08-25T06:41:29Z</time>
      </trkpt>
      <trkpt lat="45.03748" lon="6.19468">
        <ele>1108.34</ele>
        <time>2018-08-25T06:41:30Z</time>
      </trkpt>
      <trkpt lat="45.0374" lon="6.195">
        <ele>1108.62</ele>
        <time>2018-08-25T06:41:31Z</time>
      </trkpt>
      <trkpt lat="45.03732" lon="6.19529">
        <ele>1110.1</ele>
        <time>2018-08-25T06:41:32Z</time>
      </trkpt>
      <trkpt lat="45.03726" lon="6.1956">
        <ele>1110.55</ele>
        <time>2018-08-25T06:41:33Z</time>
      </trkpt>
      <trkpt lat="45.03726" lon="6.19594">
        <ele>1111.38</ele>
        <time>2018-08-25T06:41:34Z</time>
      </trkpt>
      <trkpt lat="45.03728" lon="6.1963">
        <ele>1111.63</ele>
        <time>2018-08-25T06:41:35Z</time>
      </trkpt>
      <trkpt lat="45.03738" lon="6.19671">
        <ele>1112.41</ele>
        <time>2018-08-25T06:41:36Z</time>
      </trkpt>
      <trkpt lat="45.03744" lon="6.1971">
        <ele>1112.64</ele>
        <time>2018-08-25T06:41:37Z</time>
      </trkpt>
      <trkpt lat="45.0375" lon="6.19747">
        <ele>1113.41</ele>
        <time>2018-08-25T06:41:38Z</time>
      </trkpt>
      <trkpt lat="45.03754" lon="6.19783">
        <ele>1114.34</ele>
        <time>2018-08-25T06:41:39Z</time>
      </trkpt>
      <trkpt lat="45.03758" lon="6.19819">
        <ele>1114.62</ele>
        <time>2018-08-25T06:41:40Z</time>
      </trkpt>
      <trkpt lat="45.03761" lon="6.19854">
        <ele>1115.41</ele>
        <time>2018-08-25T06:41:41Z</time>
      </trkpt>
      <trkpt lat="45.03765" lon="6.1989">
        <ele>1115.64</ele>
        <time>2018-08-25T06:41:42Z</time>
      </trkpt>
      <trkpt lat="45.03769" lon="6.19924">
        <ele>1116.41</ele>
        <time>2018-08-25T06:41:43Z</time>
      </trkpt>
      <trkpt lat="45.03771" lon="6.19958">
        <ele>1117.34</ele>
        <time>2018-08-25T06:41:44Z</time>
      </trkpt>
      <trkpt lat="45.03774" lon="6.19992">
        <ele>1117.62</ele>
        <time>2018-08-25T06:41:45Z</time>
      </trkpt>
      <trkpt lat="45.03777" lon="6.20027">
        <ele>1117.71</ele>
        <time>2018-08-25T06:41:46Z</time>
      </trkpt>
      <trkpt lat="45.03778" lon="6.20061">
        <ele>1117.73</ele>
        <time>2018-08-25T06:41:47Z</time>
      </trkpt>
      <trkpt lat="45.03779" lon="6.20094">
        <ele>1117.74</ele>
        <time>2018-08-25T06:41:48Z</time>
      </trkpt>
      <trkpt lat="45.03778" lon="6.20127">
        <ele>1117.74</ele>
        <time>2018-08-25T06:41:49Z</time>
      </trkpt>
      <trkpt lat="45.03778" lon="6.20159">
        <ele>1117.74</ele>
        <time>2018-08-25T06:41:50Z</time>
      </trkpt>
      <trkpt lat="45.03777" lon="6.20191">
        <ele>1119.14</ele>
        <time>2018-08-25T06:41:51Z</time>
      </trkpt>
      <trkpt lat="45.03775" lon="6.20222">
        <ele>1119.56</ele>
        <time>2018-08-25T06:41:52Z</time>
      </trkpt>
      <trkpt lat="45.03774" lon="6.20254">
        <ele>1120.39</ele>
        <time>2018-08-25T06:41:53Z</time>
      </trkpt>
      <trkpt lat="45.03773" lon="6.20285">
        <ele>1121.33</ele>
        <time>2018-08-25T06:41:54Z</time>
      </trkpt>
      <trkpt lat="45.03772" lon="6.20317">
        <ele>1122.32</ele>
        <time>2018-08-25T06:41:55Z</time>
      </trkpt>
      <trkpt lat="45.03772" lon="6.20348">
        <ele>1123.31</ele>
        <time>2018-08-25T06:41:56Z</time>
      </trkpt>
      <trkpt lat="45.03773" lon="6.2038">
        <ele>1123.61</ele>
        <time>2018-08-25T06:41:57Z</time>
      </trkpt>
      <trkpt lat="45.03773" lon="6.20411">
        <ele>1124.4</ele>
        <time>2018-08-25T06:41:58Z</time>
      </trkpt>
      <trkpt lat="45.03775" lon="6.20442">
        <ele>1124.64</ele>
        <time>2018-08-25T06:41:59Z</time>
      </trkpt>
      <trkpt lat="45.03779" lon="6.20473">
        <ele>1124.71</ele>
        <time>2018-08-25T06:42:00Z</time>
      </trkpt>
      <trkpt lat="45.03785" lon="6.20503">
        <ele>1125.43</ele>
        <time>2018-08-25T06:42:01Z</time>
      </trkpt>
      <trkpt lat="45.03789" lon="6.20533">
        <ele>1125.65</ele>
        <time>2018-08-25T06:42:02Z</time>
      </trkpt>
      <trkpt lat="45.03793" lon="6.20563">
        <ele>1126.41</ele>
        <time>2018-08-25T06:42:03Z</time>
      </trkpt>
      <trkpt lat="45.03797" lon="6.20592">
        <ele>1126.64</ele>
        <time>2018-08-25T06:42:04Z</time>
      </trkpt>
      <trkpt lat="45.03802" lon="6.20621">
        <ele>1127.41</ele>
        <time>2018-08-25T06:42:05Z</time>
      </trkpt>
      <trkpt lat="45.03807" lon="6.2065">
        <ele>1128.34</ele>
        <time>2018-08-25T06:42:06Z</time>
      </trkpt>
      <trkpt lat="45.03812" lon="6.20679">
        <ele>1129.32</ele>
        <time>2018-08-25T06:42:07Z</time>
      </trkpt>
      <trkpt lat="45.03816" lon="6.20708">
        <ele>1129.62</ele>
        <time>2018-08-25T06:42:08Z</time>
      </trkpt>
      <trkpt lat="45.03821" lon="6.20738">
        <ele>1129.7</ele>
        <time>2018-08-25T06:42:09Z</time>
      </trkpt>
      <trkpt lat="45.03825" lon="6.20767">
        <ele>1130.43</ele>
        <time>2018-08-25T06:42:10Z</time>
      </trkpt>
      <trkpt lat="45.03829" lon="6.20796">
        <ele>1130.65</ele>
        <time>2018-08-25T06:42:11Z</time>
      </trkpt>
      <trkpt lat="45.03833" lon="6.20826">
        <ele>1130.71</ele>
        <time>2018-08-25T06:42:12Z</time>
      </trkpt>
      <trkpt lat="45.03839" lon="6.20854">
        <ele>1132.13</ele>
        <time>2018-08-25T06:42:13Z</time>
      </trkpt>
      <trkpt lat="45.03842" lon="6.20882">
        <ele>1132.56</ele>
        <time>2018-08-25T06:42:14Z</time>
      </trkpt>
      <trkpt lat="45.03846" lon="6.20909">
        <ele>1132.69</ele>
        <time>2018-08-25T06:42:15Z</time>
      </trkpt>
      <trkpt lat="45.0385" lon="6.20937">
        <ele>1133.42</ele>
        <time>2018-08-25T06:42:16Z</time>
      </trkpt>
      <trkpt lat="45.03854" lon="6.20966">
        <ele>1133.65</ele>
        <time>2018-08-25T06:42:17Z</time>
      </trkpt>
      <trkpt lat="45.03855" lon="6.20996">
        <ele>1134.41</ele>
        <time>2018-08-25T06:42:18Z</time>
      </trkpt>
      <trkpt lat="45.03855" lon="6.21025">
        <ele>1134.64</ele>
        <time>2018-08-25T06:42:19Z</time>
      </trkpt>
      <trkpt lat="45.03845" lon="6.21053">
        <ele>1135.41</ele>
        <time>2018-08-25T06:42:20Z</time>
      </trkpt>
      <trkpt lat="45.0384" lon="6.21081">
        <ele>1137.04</ele>
        <time>2018-08-25T06:42:21Z</time>
      </trkpt>
      <trkpt lat="45.03837" lon="6.2111">
        <ele>1137.53</ele>
        <time>2018-08-25T06:42:22Z</time>
      </trkpt>
      <trkpt lat="45.03833" lon="6.21139">
        <ele>1138.38</ele>
        <time>2018-08-25T06:42:23Z</time>
      </trkpt>
      <trkpt lat="45.03829" lon="6.21169">
        <ele>1138.63</ele>
        <time>2018-08-25T06:42:24Z</time>
      </trkpt>
      <trkpt lat="45.03822" lon="6.21198">
        <ele>1139.41</ele>
        <time>2018-08-25T06:42:25Z</time>
      </trkpt>
      <trkpt lat="45.03815" lon="6.21227">
        <ele>1140.34</ele>
        <time>2018-08-25T06:42:26Z</time>
      </trkpt>
      <trkpt lat="45.03806" lon="6.21256">
        <ele>1141.32</ele>
        <time>2018-08-25T06:42:27Z</time>
      </trkpt>
      <trkpt lat="45.03795" lon="6.21284">
        <ele>1142.32</ele>
        <time>2018-08-25T06:42:28Z</time>
      </trkpt>
      <trkpt lat="45.03784" lon="6.21313">
        <ele>1142.61</ele>
        <time>2018-08-25T06:42:29Z</time>
      </trkpt>
      <trkpt lat="45.03773" lon="6.21341">
        <ele>1144.1</ele>
        <time>2018-08-25T06:42:30Z</time>
      </trkpt>
      <trkpt lat="45.03762" lon="6.2137">
        <ele>1144.55</ele>
        <time>2018-08-25T06:42:31Z</time>
      </trkpt>
      <trkpt lat="45.0375" lon="6.21398">
        <ele>1145.38</ele>
        <time>2018-08-25T06:42:32Z</time>
      </trkpt>
      <trkpt lat="45.03739" lon="6.21427">
        <ele>1146.33</ele>
        <time>2018-08-25T06:42:33Z</time>
      </trkpt>
      <trkpt lat="45.03729" lon="6.21456">
        <ele>1147.32</ele>
        <time>2018-08-25T06:42:34Z</time>
      </trkpt>
      <trkpt lat="45.03719" lon="6.21484">
        <ele>1149.01</ele>
        <time>2018-08-25T06:42:35Z</time>
      </trkpt>
      <trkpt lat="45.03708" lon="6.21512">
        <ele>1150.22</ele>
        <time>2018-08-25T06:42:36Z</time>
      </trkpt>
      <trkpt lat="45.03696" lon="6.21537">
        <ele>1151.29</ele>
        <time>2018-08-25T06:42:37Z</time>
      </trkpt>
      <trkpt lat="45.03681" lon="6.21558">
        <ele>1153</ele>
        <time>2018-08-25T06:42:38Z</time>
      </trkpt>
      <trkpt lat="45.03664" lon="6.21576">
        <ele>1154.22</ele>
        <time>2018-08-25T06:42:39Z</time>
      </trkpt>
      <trkpt lat="45.03649" lon="6.21593">
        <ele>1154.58</ele>
        <time>2018-08-25T06:42:40Z</time>
      </trkpt>
      <trkpt lat="45.03637" lon="6.21614">
        <ele>1156.79</ele>
        <time>2018-08-25T06:42:41Z</time>
      </trkpt>
      <trkpt lat="45.03624" lon="6.21636">
        <ele>1158.16</ele>
        <time>2018-08-25T06:42:42Z</time>
      </trkpt>
      <trkpt lat="45.03614" lon="6.21664">
        <ele>1158.57</ele>
        <time>2018-08-25T06:42:43Z</time>
      </trkpt>
      <trkpt lat="45.03605" lon="6.21691">
        <ele>1159.39</ele>
        <time>2018-08-25T06:42:44Z</time>
      </trkpt>
      <trkpt lat="45.03599" lon="6.21718">
        <ele>1160.34</ele>
        <time>2018-08-25T06:42:45Z</time>
      </trkpt>
      <trkpt lat="45.03595" lon="6.21746">
        <ele>1161.32</ele>
        <time>2018-08-25T06:42:46Z</time>
      </trkpt>
      <trkpt lat="45.03591" lon="6.21775">
        <ele>1162.31</ele>
        <time>2018-08-25T06:42:47Z</time>
      </trkpt>
      <trkpt lat="45.03587" lon="6.21803">
        <ele>1163.31</ele>
        <time>2018-08-25T06:42:48Z</time>
      </trkpt>
      <trkpt lat="45.03584" lon="6.21831">
        <ele>1164.31</ele>
        <time>2018-08-25T06:42:49Z</time>
      </trkpt>
      <trkpt lat="45.0358" lon="6.21859">
        <ele>1164.61</ele>
        <time>2018-08-25T06:42:50Z</time>
      </trkpt>
      <trkpt lat="45.03579" lon="6.21886">
        <ele>1164.7</ele>
        <time>2018-08-25T06:42:51Z</time>
      </trkpt>
      <trkpt lat="45.03591" lon="6.21919">
        <ele>1166.13</ele>
        <time>2018-08-25T06:42:52Z</time>
      </trkpt>
      <trkpt lat="45.03595" lon="6.21948">
        <ele>1166.56</ele>
        <time>2018-08-25T06:42:53Z</time>
      </trkpt>
      <trkpt lat="45.03603" lon="6.21977">
        <ele>1167.39</ele>
        <time>2018-08-25T06:42:54Z</time>
      </trkpt>
      <trkpt lat="45.03609" lon="6.22005">
        <ele>1168.33</ele>
        <time>2018-08-25T06:42:55Z</time>
      </trkpt>
      <trkpt lat="45.03615" lon="6.2203">
        <ele>1167.92</ele>
        <time>2018-08-25T06:42:56Z</time>
      </trkpt>
      <trkpt lat="45.03633" lon="6.22051">
        <ele>1169.89</ele>
        <time>2018-08-25T06:42:57Z</time>
      </trkpt>
      <trkpt lat="45.03645" lon="6.22075">
        <ele>1171.19</ele>
        <time>2018-08-25T06:42:58Z</time>
      </trkpt>
      <trkpt lat="45.03659" lon="6.22116">
        <ele>1172.18</ele>
        <time>2018-08-25T06:43:00Z</time>
      </trkpt>
      <trkpt lat="45.03658" lon="6.22145">
        <ele>1171.87</ele>
        <time>2018-08-25T06:43:01Z</time>
      </trkpt>
      <trkpt lat="45.0365" lon="6.22195">
        <ele>1172.66</ele>
        <time>2018-08-25T06:43:03Z</time>
      </trkpt>
      <trkpt lat="45.03633" lon="6.22235">
        <ele>1172.72</ele>
        <time>2018-08-25T06:43:04Z</time>
      </trkpt>
      <trkpt lat="45.03624" lon="6.22267">
        <ele>1173.43</ele>
        <time>2018-08-25T06:43:05Z</time>
      </trkpt>
      <trkpt lat="45.03615" lon="6.22298">
        <ele>1174.35</ele>
        <time>2018-08-25T06:43:06Z</time>
      </trkpt>
      <trkpt lat="45.0361" lon="6.22326">
        <ele>1176.02</ele>
        <time>2018-08-25T06:43:07Z</time>
      </trkpt>
      <trkpt lat="45.03607" lon="6.22354">
        <ele>1177.23</ele>
        <time>2018-08-25T06:43:08Z</time>
      </trkpt>
      <trkpt lat="45.03607" lon="6.22383">
        <ele>1178.29</ele>
        <time>2018-08-25T06:43:09Z</time>
      </trkpt>
      <trkpt lat="45.03608" lon="6.22412">
        <ele>1180</ele>
        <time>2018-08-25T06:43:10Z</time>
      </trkpt>
      <trkpt lat="45.03606" lon="6.2244">
        <ele>1183.32</ele>
        <time>2018-08-25T06:43:11Z</time>
      </trkpt>
      <trkpt lat="45.03602" lon="6.22467">
        <ele>1185.71</ele>
        <time>2018-08-25T06:43:12Z</time>
      </trkpt>
      <trkpt lat="45.03599" lon="6.22496">
        <ele>1187.13</ele>
        <time>2018-08-25T06:43:13Z</time>
      </trkpt>
      <trkpt lat="45.036" lon="6.22527">
        <ele>1188.96</ele>
        <time>2018-08-25T06:43:14Z</time>
      </trkpt>
      <trkpt lat="45.036" lon="6.22558">
        <ele>1190.21</ele>
        <time>2018-08-25T06:43:15Z</time>
      </trkpt>
      <trkpt lat="45.03604" lon="6.22589">
        <ele>1191.28</ele>
        <time>2018-08-25T06:43:16Z</time>
      </trkpt>
      <trkpt lat="45.03611" lon="6.22621">
        <ele>1193</ele>
        <time>2018-08-25T06:43:17Z</time>
      </trkpt>
      <trkpt lat="45.03618" lon="6.22652">
        <ele>1194.92</ele>
        <time>2018-08-25T06:43:18Z</time>
      </trkpt>
      <trkpt lat="45.03626" lon="6.22684">
        <ele>1196.19</ele>
        <time>2018-08-25T06:43:19Z</time>
      </trkpt>
      <trkpt lat="45.03634" lon="6.22716">
        <ele>1197.28</ele>
        <time>2018-08-25T06:43:20Z</time>
      </trkpt>
      <trkpt lat="45.03643" lon="6.22745">
        <ele>1199</ele>
        <time>2018-08-25T06:43:21Z</time>
      </trkpt>
      <trkpt lat="45.0365" lon="6.22776">
        <ele>1199.52</ele>
        <time>2018-08-25T06:43:22Z</time>
      </trkpt>
      <trkpt lat="45.03656" lon="6.22806">
        <ele>1201.07</ele>
        <time>2018-08-25T06:43:23Z</time>
      </trkpt>
      <trkpt lat="45.03661" lon="6.22836">
        <ele>1202.24</ele>
        <time>2018-08-25T06:43:24Z</time>
      </trkpt>
      <trkpt lat="45.03667" lon="6.22866">
        <ele>1202.59</ele>
        <time>2018-08-25T06:43:25Z</time>
      </trkpt>
      <trkpt lat="45.03668" lon="6.22897">
        <ele>1203.4</ele>
        <time>2018-08-25T06:43:26Z</time>
      </trkpt>
      <trkpt lat="45.03669" lon="6.22929">
        <ele>1204.34</ele>
        <time>2018-08-25T06:43:27Z</time>
      </trkpt>
      <trkpt lat="45.03668" lon="6.2296">
        <ele>1204.62</ele>
        <time>2018-08-25T06:43:28Z</time>
      </trkpt>
      <trkpt lat="45.03667" lon="6.22991">
        <ele>1205.4</ele>
        <time>2018-08-25T06:43:29Z</time>
      </trkpt>
      <trkpt lat="45.03667" lon="6.23021">
        <ele>1207.04</ele>
        <time>2018-08-25T06:43:30Z</time>
      </trkpt>
      <trkpt lat="45.03667" lon="6.23052">
        <ele>1207.53</ele>
        <time>2018-08-25T06:43:31Z</time>
      </trkpt>
      <trkpt lat="45.03671" lon="6.23081">
        <ele>1209.08</ele>
        <time>2018-08-25T06:43:32Z</time>
      </trkpt>
      <trkpt lat="45.03676" lon="6.23112">
        <ele>1210.24</ele>
        <time>2018-08-25T06:43:33Z</time>
      </trkpt>
      <trkpt lat="45.03682" lon="6.23141">
        <ele>1211.99</ele>
        <time>2018-08-25T06:43:34Z</time>
      </trkpt>
      <trkpt lat="45.03688" lon="6.23171">
        <ele>1213.22</ele>
        <time>2018-08-25T06:43:35Z</time>
      </trkpt>
      <trkpt lat="45.03691" lon="6.23201">
        <ele>1214.98</ele>
        <time>2018-08-25T06:43:36Z</time>
      </trkpt>
      <trkpt lat="45.03694" lon="6.23232">
        <ele>1216.91</ele>
        <time>2018-08-25T06:43:37Z</time>
      </trkpt>
      <trkpt lat="45.03699" lon="6.23262">
        <ele>1218.19</ele>
        <time>2018-08-25T06:43:38Z</time>
      </trkpt>
      <trkpt lat="45.03706" lon="6.2329">
        <ele>1220.68</ele>
        <time>2018-08-25T06:43:39Z</time>
      </trkpt>
      <trkpt lat="45.03716" lon="6.23317">
        <ele>1222.12</ele>
        <time>2018-08-25T06:43:40Z</time>
      </trkpt>
      <trkpt lat="45.03727" lon="6.23342">
        <ele>1223.26</ele>
        <time>2018-08-25T06:43:41Z</time>
      </trkpt>
      <trkpt lat="45.03746" lon="6.23364">
        <ele>1225</ele>
        <time>2018-08-25T06:43:42Z</time>
      </trkpt>
      <trkpt lat="45.03761" lon="6.23388">
        <ele>1225.52</ele>
        <time>2018-08-25T06:43:43Z</time>
      </trkpt>
      <trkpt lat="45.03773" lon="6.23414">
        <ele>1227.07</ele>
        <time>2018-08-25T06:43:44Z</time>
      </trkpt>
      <trkpt lat="45.03782" lon="6.23442">
        <ele>1227.54</ele>
        <time>2018-08-25T06:43:45Z</time>
      </trkpt>
      <trkpt lat="45.03787" lon="6.23472">
        <ele>1227.68</ele>
        <time>2018-08-25T06:43:46Z</time>
      </trkpt>
      <trkpt lat="45.03791" lon="6.23503">
        <ele>1227.72</ele>
        <time>2018-08-25T06:43:47Z</time>
      </trkpt>
      <trkpt lat="45.03792" lon="6.23533">
        <ele>1228.44</ele>
        <time>2018-08-25T06:43:48Z</time>
      </trkpt>
      <trkpt lat="45.03791" lon="6.23562">
        <ele>1228.65</ele>
        <time>2018-08-25T06:43:49Z</time>
      </trkpt>
      <trkpt lat="45.03789" lon="6.23592">
        <ele>1229.41</ele>
        <time>2018-08-25T06:43:50Z</time>
      </trkpt>
      <trkpt lat="45.03787" lon="6.23623">
        <ele>1230.34</ele>
        <time>2018-08-25T06:43:51Z</time>
      </trkpt>
      <trkpt lat="45.03787" lon="6.23653">
        <ele>1230.62</ele>
        <time>2018-08-25T06:43:52Z</time>
      </trkpt>
      <trkpt lat="45.03785" lon="6.23683">
        <ele>1231.41</ele>
        <time>2018-08-25T06:43:53Z</time>
      </trkpt>
      <trkpt lat="45.0378" lon="6.23712">
        <ele>1231.64</ele>
        <time>2018-08-25T06:43:54Z</time>
      </trkpt>
      <trkpt lat="45.03775" lon="6.23741">
        <ele>1232.41</ele>
        <time>2018-08-25T06:43:55Z</time>
      </trkpt>
      <trkpt lat="45.03768" lon="6.23769">
        <ele>1232.64</ele>
        <time>2018-08-25T06:43:56Z</time>
      </trkpt>
      <trkpt lat="45.03763" lon="6.23798">
        <ele>1232.71</ele>
        <time>2018-08-25T06:43:57Z</time>
      </trkpt>
      <trkpt lat="45.0376" lon="6.23828">
        <ele>1232.73</ele>
        <time>2018-08-25T06:43:58Z</time>
      </trkpt>
      <trkpt lat="45.03763" lon="6.23859">
        <ele>1232.04</ele>
        <time>2018-08-25T06:43:59Z</time>
      </trkpt>
      <trkpt lat="45.03765" lon="6.23891">
        <ele>1232.53</ele>
        <time>2018-08-25T06:44:00Z</time>
      </trkpt>
      <trkpt lat="45.03768" lon="6.23922">
        <ele>1233.38</ele>
        <time>2018-08-25T06:44:01Z</time>
      </trkpt>
      <trkpt lat="45.03771" lon="6.23954">
        <ele>1233.63</ele>
        <time>2018-08-25T06:44:02Z</time>
      </trkpt>
      <trkpt lat="45.03774" lon="6.23986">
        <ele>1234.41</ele>
        <time>2018-08-25T06:44:03Z</time>
      </trkpt>
      <trkpt lat="45.03777" lon="6.24019">
        <ele>1235.34</ele>
        <time>2018-08-25T06:44:04Z</time>
      </trkpt>
      <trkpt lat="45.03779" lon="6.2405">
        <ele>1236.32</ele>
        <time>2018-08-25T06:44:05Z</time>
      </trkpt>
      <trkpt lat="45.03782" lon="6.24082">
        <ele>1238.02</ele>
        <time>2018-08-25T06:44:06Z</time>
      </trkpt>
      <trkpt lat="45.03785" lon="6.24113">
        <ele>1239.92</ele>
        <time>2018-08-25T06:44:07Z</time>
      </trkpt>
      <trkpt lat="45.03788" lon="6.24144">
        <ele>1241.9</ele>
        <time>2018-08-25T06:44:08Z</time>
      </trkpt>
      <trkpt lat="45.03793" lon="6.24173">
        <ele>1243.89</ele>
        <time>2018-08-25T06:44:09Z</time>
      </trkpt>
      <trkpt lat="45.038" lon="6.24202">
        <ele>1245.88</ele>
        <time>2018-08-25T06:44:10Z</time>
      </trkpt>
      <trkpt lat="45.03807" lon="6.24229">
        <ele>1247.88</ele>
        <time>2018-08-25T06:44:11Z</time>
      </trkpt>
      <trkpt lat="45.03816" lon="6.24254">
        <ele>1249.88</ele>
        <time>2018-08-25T06:44:12Z</time>
      </trkpt>
      <trkpt lat="45.03825" lon="6.24279">
        <ele>1252.58</ele>
        <time>2018-08-25T06:44:13Z</time>
      </trkpt>
      <trkpt lat="45.03834" lon="6.24302">
        <ele>1254.79</ele>
        <time>2018-08-25T06:44:14Z</time>
      </trkpt>
      <trkpt lat="45.03845" lon="6.24326">
        <ele>1256.86</ele>
        <time>2018-08-25T06:44:15Z</time>
      </trkpt>
      <trkpt lat="45.03854" lon="6.24349">
        <ele>1258.18</ele>
        <time>2018-08-25T06:44:16Z</time>
      </trkpt>
      <trkpt lat="45.03865" lon="6.24372">
        <ele>1258.57</ele>
        <time>2018-08-25T06:44:17Z</time>
      </trkpt>
      <trkpt lat="45.03883" lon="6.24412">
        <ele>1258.73</ele>
        <time>2018-08-25T06:44:19Z</time>
      </trkpt>
      <trkpt lat="45.03894" lon="6.24452">
        <ele>1256.92</ele>
        <time>2018-08-25T06:44:21Z</time>
      </trkpt>
      <trkpt lat="45.03897" lon="6.25136">
        <ele>1263.55</ele>
        <time>2018-08-25T06:44:52Z</time>
      </trkpt>
      <trkpt lat="45.03896" lon="6.25187">
        <ele>1266.18</ele>
        <time>2018-08-25T06:44:54Z</time>
      </trkpt>
      <trkpt lat="45.03913" lon="6.25222">
        <ele>1267.12</ele>
        <time>2018-08-25T06:44:56Z</time>
      </trkpt>
      <trkpt lat="45.03903" lon="6.25268">
        <ele>1266.65</ele>
        <time>2018-08-25T06:44:58Z</time>
      </trkpt>
      <trkpt lat="45.03923" lon="6.25285">
        <ele>1267.21</ele>
        <time>2018-08-25T06:44:59Z</time>
      </trkpt>
      <trkpt lat="45.03931" lon="6.25329">
        <ele>1271.76</ele>
        <time>2018-08-25T06:45:01Z</time>
      </trkpt>
      <trkpt lat="45.03935" lon="6.25357">
        <ele>1274.34</ele>
        <time>2018-08-25T06:45:02Z</time>
      </trkpt>
      <trkpt lat="45.03939" lon="6.25391">
        <ele>1275.81</ele>
        <time>2018-08-25T06:45:03Z</time>
      </trkpt>
      <trkpt lat="45.03943" lon="6.25424">
        <ele>1277.66</ele>
        <time>2018-08-25T06:45:04Z</time>
      </trkpt>
      <trkpt lat="45.03947" lon="6.25456">
        <ele>1278.91</ele>
        <time>2018-08-25T06:45:05Z</time>
      </trkpt>
      <trkpt lat="45.03951" lon="6.25485">
        <ele>1280.68</ele>
        <time>2018-08-25T06:45:06Z</time>
      </trkpt>
      <trkpt lat="45.03954" lon="6.25513">
        <ele>1282.62</ele>
        <time>2018-08-25T06:45:07Z</time>
      </trkpt>
      <trkpt lat="45.03956" lon="6.2554">
        <ele>1283.9</ele>
        <time>2018-08-25T06:45:08Z</time>
      </trkpt>
      <trkpt lat="45.03957" lon="6.25565">
        <ele>1285.68</ele>
        <time>2018-08-25T06:45:09Z</time>
      </trkpt>
      <trkpt lat="45.03952" lon="6.25593">
        <ele>1286.22</ele>
        <time>2018-08-25T06:45:10Z</time>
      </trkpt>
      <trkpt lat="45.03948" lon="6.25619">
        <ele>1287.08</ele>
        <time>2018-08-25T06:45:11Z</time>
      </trkpt>
      <trkpt lat="45.03945" lon="6.25647">
        <ele>1288.73</ele>
        <time>2018-08-25T06:45:12Z</time>
      </trkpt>
      <trkpt lat="45.03944" lon="6.25673">
        <ele>1289.23</ele>
        <time>2018-08-25T06:45:13Z</time>
      </trkpt>
      <trkpt lat="45.03945" lon="6.25701">
        <ele>1289.38</ele>
        <time>2018-08-25T06:45:14Z</time>
      </trkpt>
      <trkpt lat="45.03955" lon="6.25728">
        <ele>1290.13</ele>
        <time>2018-08-25T06:45:15Z</time>
      </trkpt>
      <trkpt lat="45.03962" lon="6.25756">
        <ele>1290.35</ele>
        <time>2018-08-25T06:45:16Z</time>
      </trkpt>
      <trkpt lat="45.03969" lon="6.25783">
        <ele>1291.82</ele>
        <time>2018-08-25T06:45:17Z</time>
      </trkpt>
      <trkpt lat="45.03978" lon="6.25811">
        <ele>1292.26</ele>
        <time>2018-08-25T06:45:18Z</time>
      </trkpt>
      <trkpt lat="45.03986" lon="6.25839">
        <ele>1292.39</ele>
        <time>2018-08-25T06:45:19Z</time>
      </trkpt>
      <trkpt lat="45.03994" lon="6.25867">
        <ele>1292.43</ele>
        <time>2018-08-25T06:45:20Z</time>
      </trkpt>
      <trkpt lat="45.04001" lon="6.25895">
        <ele>1292.44</ele>
        <time>2018-08-25T06:45:21Z</time>
      </trkpt>
      <trkpt lat="45.0401" lon="6.25921">
        <ele>1292.44</ele>
        <time>2018-08-25T06:45:22Z</time>
      </trkpt>
      <trkpt lat="45.04019" lon="6.25946">
        <ele>1292.44</ele>
        <time>2018-08-25T06:45:23Z</time>
      </trkpt>
      <trkpt lat="45.04031" lon="6.25971">
        <ele>1292.44</ele>
        <time>2018-08-25T06:45:24Z</time>
      </trkpt>
      <trkpt lat="45.04041" lon="6.25995">
        <ele>1292.44</ele>
        <time>2018-08-25T06:45:25Z</time>
      </trkpt>
      <trkpt lat="45.04055" lon="6.26013">
        <ele>1292.44</ele>
        <time>2018-08-25T06:45:26Z</time>
      </trkpt>
      <trkpt lat="45.04073" lon="6.26031">
        <ele>1292.44</ele>
        <time>2018-08-25T06:45:27Z</time>
      </trkpt>
      <trkpt lat="45.04099" lon="6.26041">
        <ele>1293.15</ele>
        <time>2018-08-25T06:45:28Z</time>
      </trkpt>
      <trkpt lat="45.0412" lon="6.26062">
        <ele>1293.35</ele>
        <time>2018-08-25T06:45:29Z</time>
      </trkpt>
      <trkpt lat="45.0414" lon="6.26083">
        <ele>1292.72</ele>
        <time>2018-08-25T06:45:30Z</time>
      </trkpt>
      <trkpt lat="45.04159" lon="6.26107">
        <ele>1291.83</ele>
        <time>2018-08-25T06:45:31Z</time>
      </trkpt>
      <trkpt lat="45.04173" lon="6.26135">
        <ele>1292.26</ele>
        <time>2018-08-25T06:45:32Z</time>
      </trkpt>
      <trkpt lat="45.04184" lon="6.2616">
        <ele>1292.39</ele>
        <time>2018-08-25T06:45:33Z</time>
      </trkpt>
      <trkpt lat="45.04189" lon="6.26188">
        <ele>1293.13</ele>
        <time>2018-08-25T06:45:34Z</time>
      </trkpt>
      <trkpt lat="45.04198" lon="6.26217">
        <ele>1294.05</ele>
        <time>2018-08-25T06:45:35Z</time>
      </trkpt>
      <trkpt lat="45.04195" lon="6.2625">
        <ele>1295.03</ele>
        <time>2018-08-25T06:45:36Z</time>
      </trkpt>
      <trkpt lat="45.04198" lon="6.26279">
        <ele>1295.32</ele>
        <time>2018-08-25T06:45:37Z</time>
      </trkpt>
      <trkpt lat="45.04204" lon="6.26307">
        <ele>1296.11</ele>
        <time>2018-08-25T06:45:38Z</time>
      </trkpt>
      <trkpt lat="45.04211" lon="6.26333">
        <ele>1296.34</ele>
        <time>2018-08-25T06:45:39Z</time>
      </trkpt>
      <trkpt lat="45.04218" lon="6.2636">
        <ele>1296.41</ele>
        <time>2018-08-25T06:45:40Z</time>
      </trkpt>
      <trkpt lat="45.04223" lon="6.26388">
        <ele>1296.44</ele>
        <time>2018-08-25T06:45:41Z</time>
      </trkpt>
      <trkpt lat="45.0423" lon="6.26414">
        <ele>1296.44</ele>
        <time>2018-08-25T06:45:42Z</time>
      </trkpt>
      <trkpt lat="45.04237" lon="6.2644">
        <ele>1296.44</ele>
        <time>2018-08-25T06:45:43Z</time>
      </trkpt>
      <trkpt lat="45.04242" lon="6.26467">
        <ele>1297.14</ele>
        <time>2018-08-25T06:45:44Z</time>
      </trkpt>
      <trkpt lat="45.04247" lon="6.26494">
        <ele>1298.05</ele>
        <time>2018-08-25T06:45:45Z</time>
      </trkpt>
      <trkpt lat="45.04253" lon="6.26522">
        <ele>1299.73</ele>
        <time>2018-08-25T06:45:46Z</time>
      </trkpt>
      <trkpt lat="45.04259" lon="6.26549">
        <ele>1300.93</ele>
        <time>2018-08-25T06:45:47Z</time>
      </trkpt>
      <trkpt lat="45.04264" lon="6.26575">
        <ele>1301.99</ele>
        <time>2018-08-25T06:45:48Z</time>
      </trkpt>
      <trkpt lat="45.0427" lon="6.26602">
        <ele>1303.01</ele>
        <time>2018-08-25T06:45:49Z</time>
      </trkpt>
      <trkpt lat="45.04275" lon="6.2663">
        <ele>1303.31</ele>
        <time>2018-08-25T06:45:50Z</time>
      </trkpt>
      <trkpt lat="45.0428" lon="6.26657">
        <ele>1302.71</ele>
        <time>2018-08-25T06:45:51Z</time>
      </trkpt>
      <trkpt lat="45.04284" lon="6.26684">
        <ele>1302.52</ele>
        <time>2018-08-25T06:45:52Z</time>
      </trkpt>
      <trkpt lat="45.04288" lon="6.26711">
        <ele>1303.87</ele>
        <time>2018-08-25T06:45:53Z</time>
      </trkpt>
      <trkpt lat="45.04292" lon="6.26738">
        <ele>1303.57</ele>
        <time>2018-08-25T06:45:54Z</time>
      </trkpt>
      <trkpt lat="45.04296" lon="6.26766">
        <ele>1304.18</ele>
        <time>2018-08-25T06:45:55Z</time>
      </trkpt>
      <trkpt lat="45.04299" lon="6.26794">
        <ele>1305.07</ele>
        <time>2018-08-25T06:45:56Z</time>
      </trkpt>
      <trkpt lat="45.04299" lon="6.26822">
        <ele>1305.33</ele>
        <time>2018-08-25T06:45:57Z</time>
      </trkpt>
      <trkpt lat="45.04297" lon="6.26849">
        <ele>1305.41</ele>
        <time>2018-08-25T06:45:58Z</time>
      </trkpt>
      <trkpt lat="45.04293" lon="6.26875">
        <ele>1306.13</ele>
        <time>2018-08-25T06:45:59Z</time>
      </trkpt>
      <trkpt lat="45.04289" lon="6.26901">
        <ele>1307.75</ele>
        <time>2018-08-25T06:46:00Z</time>
      </trkpt>
      <trkpt lat="45.04284" lon="6.26926">
        <ele>1308.24</ele>
        <time>2018-08-25T06:46:01Z</time>
      </trkpt>
      <trkpt lat="45.04279" lon="6.26951">
        <ele>1309.08</ele>
        <time>2018-08-25T06:46:02Z</time>
      </trkpt>
      <trkpt lat="45.04274" lon="6.26975">
        <ele>1308.64</ele>
        <time>2018-08-25T06:46:03Z</time>
      </trkpt>
      <trkpt lat="45.04271" lon="6.27001">
        <ele>1309.2</ele>
        <time>2018-08-25T06:46:04Z</time>
      </trkpt>
      <trkpt lat="45.04265" lon="6.2705">
        <ele>1310.12</ele>
        <time>2018-08-25T06:46:06Z</time>
      </trkpt>
      <trkpt lat="45.0426" lon="6.271">
        <ele>1311.33</ele>
        <time>2018-08-25T06:46:08Z</time>
      </trkpt>
      <trkpt lat="45.04258" lon="6.27126">
        <ele>1313.51</ele>
        <time>2018-08-25T06:46:09Z</time>
      </trkpt>
      <trkpt lat="45.04256" lon="6.27153">
        <ele>1314.86</ele>
        <time>2018-08-25T06:46:10Z</time>
      </trkpt>
      <trkpt lat="45.04253" lon="6.2718">
        <ele>1316.67</ele>
        <time>2018-08-25T06:46:11Z</time>
      </trkpt>
      <trkpt lat="45.04252" lon="6.27207">
        <ele>1318.61</ele>
        <time>2018-08-25T06:46:12Z</time>
      </trkpt>
      <trkpt lat="45.04252" lon="6.27233">
        <ele>1321.3</ele>
        <time>2018-08-25T06:46:13Z</time>
      </trkpt>
      <trkpt lat="45.04252" lon="6.27261">
        <ele>1322.8</ele>
        <time>2018-08-25T06:46:14Z</time>
      </trkpt>
      <trkpt lat="45.04254" lon="6.27288">
        <ele>1324.65</ele>
        <time>2018-08-25T06:46:15Z</time>
      </trkpt>
      <trkpt lat="45.04256" lon="6.27316">
        <ele>1326.61</ele>
        <time>2018-08-25T06:46:16Z</time>
      </trkpt>
      <trkpt lat="45.04259" lon="6.27343">
        <ele>1328.59</ele>
        <time>2018-08-25T06:46:17Z</time>
      </trkpt>
      <trkpt lat="45.04265" lon="6.27371">
        <ele>1331.29</ele>
        <time>2018-08-25T06:46:18Z</time>
      </trkpt>
      <trkpt lat="45.0427" lon="6.27397">
        <ele>1333.5</ele>
        <time>2018-08-25T06:46:19Z</time>
      </trkpt>
      <trkpt lat="45.04275" lon="6.27425">
        <ele>1334.16</ele>
        <time>2018-08-25T06:46:20Z</time>
      </trkpt>
      <trkpt lat="45.04282" lon="6.27452">
        <ele>1335.76</ele>
        <time>2018-08-25T06:46:21Z</time>
      </trkpt>
      <trkpt lat="45.04287" lon="6.27478">
        <ele>1335.54</ele>
        <time>2018-08-25T06:46:22Z</time>
      </trkpt>
      <trkpt lat="45.04292" lon="6.27506">
        <ele>1336.17</ele>
        <time>2018-08-25T06:46:23Z</time>
      </trkpt>
      <trkpt lat="45.04295" lon="6.27533">
        <ele>1336.36</ele>
        <time>2018-08-25T06:46:24Z</time>
      </trkpt>
      <trkpt lat="45.04297" lon="6.27561">
        <ele>1337.12</ele>
        <time>2018-08-25T06:46:25Z</time>
      </trkpt>
      <trkpt lat="45.04297" lon="6.27588">
        <ele>1337.35</ele>
        <time>2018-08-25T06:46:26Z</time>
      </trkpt>
      <trkpt lat="45.04298" lon="6.27615">
        <ele>1338.12</ele>
        <time>2018-08-25T06:46:27Z</time>
      </trkpt>
      <trkpt lat="45.043" lon="6.27643">
        <ele>1339.05</ele>
        <time>2018-08-25T06:46:28Z</time>
      </trkpt>
      <trkpt lat="45.04302" lon="6.27671">
        <ele>1340.03</ele>
        <time>2018-08-25T06:46:29Z</time>
      </trkpt>
      <trkpt lat="45.04308" lon="6.27697">
        <ele>1340.32</ele>
        <time>2018-08-25T06:46:30Z</time>
      </trkpt>
      <trkpt lat="45.04319" lon="6.27721">
        <ele>1339.71</ele>
        <time>2018-08-25T06:46:31Z</time>
      </trkpt>
      <trkpt lat="45.04328" lon="6.27746">
        <ele>1339.52</ele>
        <time>2018-08-25T06:46:32Z</time>
      </trkpt>
      <trkpt lat="45.04335" lon="6.27771">
        <ele>1340.17</ele>
        <time>2018-08-25T06:46:33Z</time>
      </trkpt>
      <trkpt lat="45.0434" lon="6.27798">
        <ele>1341.06</ele>
        <time>2018-08-25T06:46:34Z</time>
      </trkpt>
      <trkpt lat="45.04344" lon="6.27824">
        <ele>1341.33</ele>
        <time>2018-08-25T06:46:35Z</time>
      </trkpt>
      <trkpt lat="45.04341" lon="6.27869">
        <ele>1341.64</ele>
        <time>2018-08-25T06:46:37Z</time>
      </trkpt>
      <trkpt lat="45.04325" lon="6.27898">
        <ele>1342.9</ele>
        <time>2018-08-25T06:46:38Z</time>
      </trkpt>
      <trkpt lat="45.04322" lon="6.27925">
        <ele>1343.28</ele>
        <time>2018-08-25T06:46:39Z</time>
      </trkpt>
      <trkpt lat="45.04322" lon="6.27953">
        <ele>1344.1</ele>
        <time>2018-08-25T06:46:40Z</time>
      </trkpt>
      <trkpt lat="45.04325" lon="6.2798">
        <ele>1345.04</ele>
        <time>2018-08-25T06:46:41Z</time>
      </trkpt>
      <trkpt lat="45.04328" lon="6.28008">
        <ele>1346.02</ele>
        <time>2018-08-25T06:46:42Z</time>
      </trkpt>
      <trkpt lat="45.04333" lon="6.28035">
        <ele>1346.32</ele>
        <time>2018-08-25T06:46:43Z</time>
      </trkpt>
      <trkpt lat="45.04339" lon="6.28061">
        <ele>1347.11</ele>
        <time>2018-08-25T06:46:44Z</time>
      </trkpt>
      <trkpt lat="45.04346" lon="6.28087">
        <ele>1348.04</ele>
        <time>2018-08-25T06:46:45Z</time>
      </trkpt>
      <trkpt lat="45.04353" lon="6.28113">
        <ele>1348.32</ele>
        <time>2018-08-25T06:46:46Z</time>
      </trkpt>
      <trkpt lat="45.04358" lon="6.28139">
        <ele>1349.11</ele>
        <time>2018-08-25T06:46:47Z</time>
      </trkpt>
      <trkpt lat="45.04362" lon="6.28165">
        <ele>1349.34</ele>
        <time>2018-08-25T06:46:48Z</time>
      </trkpt>
      <trkpt lat="45.04366" lon="6.28191">
        <ele>1350.11</ele>
        <time>2018-08-25T06:46:49Z</time>
      </trkpt>
      <trkpt lat="45.0437" lon="6.28217">
        <ele>1351.05</ele>
        <time>2018-08-25T06:46:50Z</time>
      </trkpt>
      <trkpt lat="45.04375" lon="6.28241">
        <ele>1352.73</ele>
        <time>2018-08-25T06:46:51Z</time>
      </trkpt>
      <trkpt lat="45.0439" lon="6.28288">
        <ele>1354.29</ele>
        <time>2018-08-25T06:46:53Z</time>
      </trkpt>
      <trkpt lat="45.044" lon="6.28311">
        <ele>1355.1</ele>
        <time>2018-08-25T06:46:54Z</time>
      </trkpt>
      <trkpt lat="45.0441" lon="6.28334">
        <ele>1355.34</ele>
        <time>2018-08-25T06:46:55Z</time>
      </trkpt>
      <trkpt lat="45.04419" lon="6.28357">
        <ele>1356.11</ele>
        <time>2018-08-25T06:46:56Z</time>
      </trkpt>
      <trkpt lat="45.04425" lon="6.28381">
        <ele>1357.75</ele>
        <time>2018-08-25T06:46:57Z</time>
      </trkpt>
      <trkpt lat="45.04431" lon="6.28408">
        <ele>1358.24</ele>
        <time>2018-08-25T06:46:58Z</time>
      </trkpt>
      <trkpt lat="45.04434" lon="6.28436">
        <ele>1359.08</ele>
        <time>2018-08-25T06:46:59Z</time>
      </trkpt>
      <trkpt lat="45.04436" lon="6.28463">
        <ele>1360.04</ele>
        <time>2018-08-25T06:47:00Z</time>
      </trkpt>
      <trkpt lat="45.04429" lon="6.2849">
        <ele>1360.32</ele>
        <time>2018-08-25T06:47:01Z</time>
      </trkpt>
      <trkpt lat="45.0442" lon="6.28516">
        <ele>1362.51</ele>
        <time>2018-08-25T06:47:02Z</time>
      </trkpt>
      <trkpt lat="45.04411" lon="6.28543">
        <ele>1364.56</ele>
        <time>2018-08-25T06:47:03Z</time>
      </trkpt>
      <trkpt lat="45.04402" lon="6.28569">
        <ele>1365.88</ele>
        <time>2018-08-25T06:47:04Z</time>
      </trkpt>
      <trkpt lat="45.04393" lon="6.28596">
        <ele>1366.28</ele>
        <time>2018-08-25T06:47:05Z</time>
      </trkpt>
      <trkpt lat="45.04384" lon="6.28621">
        <ele>1367.79</ele>
        <time>2018-08-25T06:47:06Z</time>
      </trkpt>
      <trkpt lat="45.04376" lon="6.28647">
        <ele>1368.95</ele>
        <time>2018-08-25T06:47:07Z</time>
      </trkpt>
      <trkpt lat="45.04368" lon="6.28671">
        <ele>1370</ele>
        <time>2018-08-25T06:47:08Z</time>
      </trkpt>
      <trkpt lat="45.04363" lon="6.28696">
        <ele>1372.41</ele>
        <time>2018-08-25T06:47:09Z</time>
      </trkpt>
      <trkpt lat="45.04361" lon="6.28722">
        <ele>1374.53</ele>
        <time>2018-08-25T06:47:10Z</time>
      </trkpt>
      <trkpt lat="45.0436" lon="6.28749">
        <ele>1375.87</ele>
        <time>2018-08-25T06:47:11Z</time>
      </trkpt>
      <trkpt lat="45.04359" lon="6.28775">
        <ele>1378.37</ele>
        <time>2018-08-25T06:47:12Z</time>
      </trkpt>
      <trkpt lat="45.04357" lon="6.28802">
        <ele>1380.52</ele>
        <time>2018-08-25T06:47:13Z</time>
      </trkpt>
      <trkpt lat="45.04354" lon="6.2883">
        <ele>1382.57</ele>
        <time>2018-08-25T06:47:14Z</time>
      </trkpt>
      <trkpt lat="45.0435" lon="6.28857">
        <ele>1383.88</ele>
        <time>2018-08-25T06:47:15Z</time>
      </trkpt>
      <trkpt lat="45.04346" lon="6.28885">
        <ele>1385.68</ele>
        <time>2018-08-25T06:47:16Z</time>
      </trkpt>
      <trkpt lat="45.04342" lon="6.28911">
        <ele>1388.31</ele>
        <time>2018-08-25T06:47:17Z</time>
      </trkpt>
      <trkpt lat="45.0434" lon="6.28938">
        <ele>1389.81</ele>
        <time>2018-08-25T06:47:18Z</time>
      </trkpt>
      <trkpt lat="45.04339" lon="6.28965">
        <ele>1391.65</ele>
        <time>2018-08-25T06:47:19Z</time>
      </trkpt>
      <trkpt lat="45.04339" lon="6.28991">
        <ele>1393.61</ele>
        <time>2018-08-25T06:47:20Z</time>
      </trkpt>
      <trkpt lat="45.04336" lon="6.29016">
        <ele>1395.59</ele>
        <time>2018-08-25T06:47:21Z</time>
      </trkpt>
      <trkpt lat="45.04334" lon="6.29042">
        <ele>1396.19</ele>
        <time>2018-08-25T06:47:22Z</time>
      </trkpt>
      <trkpt lat="45.04332" lon="6.29071">
        <ele>1397.77</ele>
        <time>2018-08-25T06:47:23Z</time>
      </trkpt>
      <trkpt lat="45.04333" lon="6.29101">
        <ele>1398.94</ele>
        <time>2018-08-25T06:47:24Z</time>
      </trkpt>
      <trkpt lat="45.04334" lon="6.29132">
        <ele>1400.69</ele>
        <time>2018-08-25T06:47:25Z</time>
      </trkpt>
      <trkpt lat="45.04336" lon="6.29162">
        <ele>1402.62</ele>
        <time>2018-08-25T06:47:26Z</time>
      </trkpt>
      <trkpt lat="45.04337" lon="6.29193">
        <ele>1404.6</ele>
        <time>2018-08-25T06:47:27Z</time>
      </trkpt>
      <trkpt lat="45.04339" lon="6.29223">
        <ele>1407.29</ele>
        <time>2018-08-25T06:47:28Z</time>
      </trkpt>
      <trkpt lat="45.04342" lon="6.29252">
        <ele>1409.5</ele>
        <time>2018-08-25T06:47:29Z</time>
      </trkpt>
      <trkpt lat="45.04346" lon="6.29281">
        <ele>1410.86</ele>
        <time>2018-08-25T06:47:30Z</time>
      </trkpt>
      <trkpt lat="45.04354" lon="6.29308">
        <ele>1412.67</ele>
        <time>2018-08-25T06:47:31Z</time>
      </trkpt>
      <trkpt lat="45.04362" lon="6.29335">
        <ele>1413.91</ele>
        <time>2018-08-25T06:47:32Z</time>
      </trkpt>
      <trkpt lat="45.04372" lon="6.29359">
        <ele>1414.29</ele>
        <time>2018-08-25T06:47:33Z</time>
      </trkpt>
      <trkpt lat="45.04382" lon="6.29383">
        <ele>1415.1</ele>
        <time>2018-08-25T06:47:34Z</time>
      </trkpt>
      <trkpt lat="45.04391" lon="6.29408">
        <ele>1416.04</ele>
        <time>2018-08-25T06:47:35Z</time>
      </trkpt>
      <trkpt lat="45.04399" lon="6.29433">
        <ele>1417.02</ele>
        <time>2018-08-25T06:47:36Z</time>
      </trkpt>
      <trkpt lat="45.04405" lon="6.29459">
        <ele>1418.72</ele>
        <time>2018-08-25T06:47:37Z</time>
      </trkpt>
      <trkpt lat="45.04411" lon="6.29485">
        <ele>1420.63</ele>
        <time>2018-08-25T06:47:38Z</time>
      </trkpt>
      <trkpt lat="45.04417" lon="6.29511">
        <ele>1422.6</ele>
        <time>2018-08-25T06:47:39Z</time>
      </trkpt>
      <trkpt lat="45.04422" lon="6.29537">
        <ele>1424.59</ele>
        <time>2018-08-25T06:47:40Z</time>
      </trkpt>
      <trkpt lat="45.04427" lon="6.29563">
        <ele>1425.89</ele>
        <time>2018-08-25T06:47:41Z</time>
      </trkpt>
      <trkpt lat="45.04434" lon="6.29587">
        <ele>1428.38</ele>
        <time>2018-08-25T06:47:42Z</time>
      </trkpt>
      <trkpt lat="45.04449" lon="6.29634">
        <ele>1430.05</ele>
        <time>2018-08-25T06:47:44Z</time>
      </trkpt>
      <trkpt lat="45.04457" lon="6.29658">
        <ele>1431.03</ele>
        <time>2018-08-25T06:47:45Z</time>
      </trkpt>
      <trkpt lat="45.0446" lon="6.29683">
        <ele>1432.02</ele>
        <time>2018-08-25T06:47:46Z</time>
      </trkpt>
      <trkpt lat="45.04462" lon="6.29711">
        <ele>1433.02</ele>
        <time>2018-08-25T06:47:47Z</time>
      </trkpt>
      <trkpt lat="45.04463" lon="6.2974">
        <ele>1434.72</ele>
        <time>2018-08-25T06:47:48Z</time>
      </trkpt>
      <trkpt lat="45.04465" lon="6.29769">
        <ele>1435.93</ele>
        <time>2018-08-25T06:47:49Z</time>
      </trkpt>
      <trkpt lat="45.04466" lon="6.29796">
        <ele>1436.99</ele>
        <time>2018-08-25T06:47:50Z</time>
      </trkpt>
      <trkpt lat="45.04465" lon="6.29823">
        <ele>1438.71</ele>
        <time>2018-08-25T06:47:51Z</time>
      </trkpt>
      <trkpt lat="45.04462" lon="6.2985">
        <ele>1441.32</ele>
        <time>2018-08-25T06:47:52Z</time>
      </trkpt>
      <trkpt lat="45.04458" lon="6.29875">
        <ele>1443.51</ele>
        <time>2018-08-25T06:47:53Z</time>
      </trkpt>
      <trkpt lat="45.04456" lon="6.299">
        <ele>1444.86</ele>
        <time>2018-08-25T06:47:54Z</time>
      </trkpt>
      <trkpt lat="45.04454" lon="6.29926">
        <ele>1446.67</ele>
        <time>2018-08-25T06:47:55Z</time>
      </trkpt>
      <trkpt lat="45.04454" lon="6.29952">
        <ele>1447.91</ele>
        <time>2018-08-25T06:47:56Z</time>
      </trkpt>
      <trkpt lat="45.04452" lon="6.30001">
        <ele>1452.53</ele>
        <time>2018-08-25T06:47:58Z</time>
      </trkpt>
      <trkpt lat="45.04447" lon="6.30046">
        <ele>1454.97</ele>
        <time>2018-08-25T06:48:00Z</time>
      </trkpt>
      <trkpt lat="45.04443" lon="6.30089">
        <ele>1457.01</ele>
        <time>2018-08-25T06:48:02Z</time>
      </trkpt>
      <trkpt lat="45.04444" lon="6.3013">
        <ele>1459.23</ele>
        <time>2018-08-25T06:48:04Z</time>
      </trkpt>
      <trkpt lat="45.04448" lon="6.30166">
        <ele>1462.16</ele>
        <time>2018-08-25T06:48:06Z</time>
      </trkpt>
      <trkpt lat="45.04457" lon="6.30201">
        <ele>1463.33</ele>
        <time>2018-08-25T06:48:08Z</time>
      </trkpt>
      <trkpt lat="45.04471" lon="6.30235">
        <ele>1465.04</ele>
        <time>2018-08-25T06:48:10Z</time>
      </trkpt>
      <trkpt lat="45.04489" lon="6.30265">
        <ele>1465.41</ele>
        <time>2018-08-25T06:48:12Z</time>
      </trkpt>
      <trkpt lat="45.04508" lon="6.30292">
        <ele>1467.05</ele>
        <time>2018-08-25T06:48:14Z</time>
      </trkpt>
      <trkpt lat="45.04524" lon="6.30315">
        <ele>1468.11</ele>
        <time>2018-08-25T06:48:16Z</time>
      </trkpt>
      <trkpt lat="45.04539" lon="6.30334">
        <ele>1468.62</ele>
        <time>2018-08-25T06:48:18Z</time>
      </trkpt>
      <trkpt lat="45.04546" lon="6.30358">
        <ele>1469.16</ele>
        <time>2018-08-25T06:48:20Z</time>
      </trkpt>
      <trkpt lat="45.04537" lon="6.30392">
        <ele>1472.02</ele>
        <time>2018-08-25T06:48:23Z</time>
      </trkpt>
      <trkpt lat="45.04524" lon="6.30411">
        <ele>1472.9</ele>
        <time>2018-08-25T06:48:25Z</time>
      </trkpt>
      <trkpt lat="45.04514" lon="6.30434">
        <ele>1472.7</ele>
        <time>2018-08-25T06:48:27Z</time>
      </trkpt>
      <trkpt lat="45.04509" lon="6.30461">
        <ele>1471.77</ele>
        <time>2018-08-25T06:48:29Z</time>
      </trkpt>
      <trkpt lat="45.0451" lon="6.30489">
        <ele>1473.78</ele>
        <time>2018-08-25T06:48:31Z</time>
      </trkpt>
      <trkpt lat="45.04514" lon="6.30517">
        <ele>1475.09</ele>
        <time>2018-08-25T06:48:33Z</time>
      </trkpt>
      <trkpt lat="45.04516" lon="6.30545">
        <ele>1475.41</ele>
        <time>2018-08-25T06:48:35Z</time>
      </trkpt>
      <trkpt lat="45.04513" lon="6.30572">
        <ele>1476.84</ele>
        <time>2018-08-25T06:48:37Z</time>
      </trkpt>
      <trkpt lat="45.0451" lon="6.30599">
        <ele>1478.3</ele>
        <time>2018-08-25T06:48:39Z</time>
      </trkpt>
      <trkpt lat="45.04511" lon="6.30635">
        <ele>1478.44</ele>
        <time>2018-08-25T06:48:42Z</time>
      </trkpt>
      <trkpt lat="45.04526" lon="6.30662">
        <ele>1479.35</ele>
        <time>2018-08-25T06:48:45Z</time>
      </trkpt>
      <trkpt lat="45.04546" lon="6.30671">
        <ele>1480.14</ele>
        <time>2018-08-25T06:48:47Z</time>
      </trkpt>
      <trkpt lat="45.04562" lon="6.30685">
        <ele>1479.02</ele>
        <time>2018-08-25T06:48:49Z</time>
      </trkpt>
      <trkpt lat="45.04581" lon="6.30698">
        <ele>1479.41</ele>
        <time>2018-08-25T06:48:51Z</time>
      </trkpt>
      <trkpt lat="45.04599" lon="6.30714">
        <ele>1479.44</ele>
        <time>2018-08-25T06:48:53Z</time>
      </trkpt>
      <trkpt lat="45.04618" lon="6.30729">
        <ele>1480.14</ele>
        <time>2018-08-25T06:48:55Z</time>
      </trkpt>
      <trkpt lat="45.04634" lon="6.30746">
        <ele>1477.9</ele>
        <time>2018-08-25T06:48:57Z</time>
      </trkpt>
      <trkpt lat="45.04647" lon="6.30767">
        <ele>1478.19</ele>
        <time>2018-08-25T06:48:59Z</time>
      </trkpt>
      <trkpt lat="45.0465" lon="6.30798">
        <ele>1480.03</ele>
        <time>2018-08-25T06:49:01Z</time>
      </trkpt>
      <trkpt lat="45.04655" lon="6.30828">
        <ele>1480.41</ele>
        <time>2018-08-25T06:49:03Z</time>
      </trkpt>
      <trkpt lat="45.04661" lon="6.30863">
        <ele>1483.66</ele>
        <time>2018-08-25T06:49:05Z</time>
      </trkpt>
      <trkpt lat="45.04669" lon="6.30902">
        <ele>1486.89</ele>
        <time>2018-08-25T06:49:07Z</time>
      </trkpt>
      <trkpt lat="45.04676" lon="6.30941">
        <ele>1489.22</ele>
        <time>2018-08-25T06:49:09Z</time>
      </trkpt>
      <trkpt lat="45.04681" lon="6.30982">
        <ele>1491.03</ele>
        <time>2018-08-25T06:49:11Z</time>
      </trkpt>
      <trkpt lat="45.04681" lon="6.31027">
        <ele>1488.89</ele>
        <time>2018-08-25T06:49:13Z</time>
      </trkpt>
      <trkpt lat="45.04678" lon="6.31072">
        <ele>1490.3</ele>
        <time>2018-08-25T06:49:15Z</time>
      </trkpt>
      <trkpt lat="45.0467" lon="6.31116">
        <ele>1490.43</ele>
        <time>2018-08-25T06:49:17Z</time>
      </trkpt>
      <trkpt lat="45.04661" lon="6.31155">
        <ele>1491.35</ele>
        <time>2018-08-25T06:49:19Z</time>
      </trkpt>
      <trkpt lat="45.04661" lon="6.3119">
        <ele>1493.05</ele>
        <time>2018-08-25T06:49:21Z</time>
      </trkpt>
      <trkpt lat="45.0488" lon="6.31451">
        <ele>1483.61</ele>
        <time>2018-08-25T06:49:41Z</time>
      </trkpt>
      <trkpt lat="45.04901" lon="6.31463">
        <ele>1481.39</ele>
        <time>2018-08-25T06:49:42Z</time>
      </trkpt>
      <trkpt lat="45.04913" lon="6.315">
        <ele>1481.02</ele>
        <time>2018-08-25T06:49:44Z</time>
      </trkpt>
      <trkpt lat="45.04924" lon="6.31536">
        <ele>1483.51</ele>
        <time>2018-08-25T06:49:46Z</time>
      </trkpt>
      <trkpt lat="45.04919" lon="6.31567">
        <ele>1485.69</ele>
        <time>2018-08-25T06:49:48Z</time>
      </trkpt>
      <trkpt lat="45.04897" lon="6.31593">
        <ele>1484.98</ele>
        <time>2018-08-25T06:49:50Z</time>
      </trkpt>
      <trkpt lat="45.04864" lon="6.31605">
        <ele>1486</ele>
        <time>2018-08-25T06:49:51Z</time>
      </trkpt>
      <trkpt lat="45.04848" lon="6.31618">
        <ele>1487.01</ele>
        <time>2018-08-25T06:49:52Z</time>
      </trkpt>
      <trkpt lat="45.04833" lon="6.31635">
        <ele>1488.72</ele>
        <time>2018-08-25T06:49:53Z</time>
      </trkpt>
      <trkpt lat="45.04818" lon="6.31653">
        <ele>1490.63</ele>
        <time>2018-08-25T06:49:54Z</time>
      </trkpt>
      <trkpt lat="45.04806" lon="6.31671">
        <ele>1492.6</ele>
        <time>2018-08-25T06:49:55Z</time>
      </trkpt>
      <trkpt lat="45.04794" lon="6.31692">
        <ele>1493.89</ele>
        <time>2018-08-25T06:49:56Z</time>
      </trkpt>
      <trkpt lat="45.0478" lon="6.31733">
        <ele>1497.13</ele>
        <time>2018-08-25T06:49:58Z</time>
      </trkpt>
      <trkpt lat="45.04777" lon="6.3178">
        <ele>1500.43</ele>
        <time>2018-08-25T06:50:00Z</time>
      </trkpt>
      <trkpt lat="45.04784" lon="6.3182">
        <ele>1501.56</ele>
        <time>2018-08-25T06:50:02Z</time>
      </trkpt>
      <trkpt lat="45.04806" lon="6.31854">
        <ele>1504.68</ele>
        <time>2018-08-25T06:50:04Z</time>
      </trkpt>
      <trkpt lat="45.04821" lon="6.31899">
        <ele>1506.78</ele>
        <time>2018-08-25T06:50:06Z</time>
      </trkpt>
      <trkpt lat="45.04826" lon="6.31924">
        <ele>1507.24</ele>
        <time>2018-08-25T06:50:07Z</time>
      </trkpt>
      <trkpt lat="45.0483" lon="6.3195">
        <ele>1508.08</ele>
        <time>2018-08-25T06:50:08Z</time>
      </trkpt>
      <trkpt lat="45.04831" lon="6.32">
        <ele>1509.11</ele>
        <time>2018-08-25T06:50:10Z</time>
      </trkpt>
      <trkpt lat="45.04829" lon="6.32027">
        <ele>1509.35</ele>
        <time>2018-08-25T06:50:11Z</time>
      </trkpt>
      <trkpt lat="45.04822" lon="6.32052">
        <ele>1511.52</ele>
        <time>2018-08-25T06:50:12Z</time>
      </trkpt>
      <trkpt lat="45.04819" lon="6.32079">
        <ele>1514.27</ele>
        <time>2018-08-25T06:50:13Z</time>
      </trkpt>
      <trkpt lat="45.04817" lon="6.32105">
        <ele>1516.49</ele>
        <time>2018-08-25T06:50:14Z</time>
      </trkpt>
      <trkpt lat="45.04817" lon="6.3213">
        <ele>1517.86</ele>
        <time>2018-08-25T06:50:15Z</time>
      </trkpt>
      <trkpt lat="45.04819" lon="6.32175">
        <ele>1520.91</ele>
        <time>2018-08-25T06:50:17Z</time>
      </trkpt>
      <trkpt lat="45.04826" lon="6.3221">
        <ele>1524.62</ele>
        <time>2018-08-25T06:50:19Z</time>
      </trkpt>
      <trkpt lat="45.04833" lon="6.32245">
        <ele>1526.07</ele>
        <time>2018-08-25T06:50:21Z</time>
      </trkpt>
      <trkpt lat="45.04558" lon="6.32905">
        <ele>1538.23</ele>
        <time>2018-08-25T06:51:03Z</time>
      </trkpt>
      <trkpt lat="45.04552" lon="6.32934">
        <ele>1545.71</ele>
        <time>2018-08-25T06:51:05Z</time>
      </trkpt>
      <trkpt lat="45.04573" lon="6.3294">
        <ele>1550.17</ele>
        <time>2018-08-25T06:51:10Z</time>
      </trkpt>
      <trkpt lat="45.04586" lon="6.32918">
        <ele>1551.06</ele>
        <time>2018-08-25T06:51:11Z</time>
      </trkpt>
      <trkpt lat="45.04609" lon="6.32893">
        <ele>1554.42</ele>
        <time>2018-08-25T06:51:13Z</time>
      </trkpt>
      <trkpt lat="45.04628" lon="6.32879">
        <ele>1558.99</ele>
        <time>2018-08-25T06:51:15Z</time>
      </trkpt>
      <trkpt lat="45.04639" lon="6.32907">
        <ele>1560.13</ele>
        <time>2018-08-25T06:51:18Z</time>
      </trkpt>
      <trkpt lat="45.04639" lon="6.32942">
        <ele>1560.35</ele>
        <time>2018-08-25T06:51:19Z</time>
      </trkpt>
      <trkpt lat="45.04635" lon="6.32979">
        <ele>1561.12</ele>
        <time>2018-08-25T06:51:20Z</time>
      </trkpt>
      <trkpt lat="45.04631" lon="6.33033">
        <ele>1562.75</ele>
        <time>2018-08-25T06:51:21Z</time>
      </trkpt>
      <trkpt lat="45.04626" lon="6.33067">
        <ele>1564.64</ele>
        <time>2018-08-25T06:51:22Z</time>
      </trkpt>
      <trkpt lat="45.04624" lon="6.33099">
        <ele>1565.9</ele>
        <time>2018-08-25T06:51:23Z</time>
      </trkpt>
      <trkpt lat="45.04618" lon="6.33128">
        <ele>1567.68</ele>
        <time>2018-08-25T06:51:24Z</time>
      </trkpt>
      <trkpt lat="45.04597" lon="6.33165">
        <ele>1570.69</ele>
        <time>2018-08-25T06:51:26Z</time>
      </trkpt>
      <trkpt lat="45.04574" lon="6.33191">
        <ele>1574.6</ele>
        <time>2018-08-25T06:51:28Z</time>
      </trkpt>
      <trkpt lat="45.04555" lon="6.33198">
        <ele>1575.19</ele>
        <time>2018-08-25T06:51:29Z</time>
      </trkpt>
      <trkpt lat="45.0453" lon="6.33198">
        <ele>1576.07</ele>
        <time>2018-08-25T06:51:30Z</time>
      </trkpt>
      <trkpt lat="45.0451" lon="6.33196">
        <ele>1577.73</ele>
        <time>2018-08-25T06:51:31Z</time>
      </trkpt>
      <trkpt lat="45.04491" lon="6.33189">
        <ele>1580.33</ele>
        <time>2018-08-25T06:51:32Z</time>
      </trkpt>
      <trkpt lat="45.04473" lon="6.33186">
        <ele>1581.11</ele>
        <time>2018-08-25T06:51:33Z</time>
      </trkpt>
      <trkpt lat="45.04456" lon="6.33168">
        <ele>1581.34</ele>
        <time>2018-08-25T06:51:34Z</time>
      </trkpt>
      <trkpt lat="45.04438" lon="6.33151">
        <ele>1581.41</ele>
        <time>2018-08-25T06:51:35Z</time>
      </trkpt>
      <trkpt lat="45.04407" lon="6.33129">
        <ele>1583.75</ele>
        <time>2018-08-25T06:51:37Z</time>
      </trkpt>
      <trkpt lat="45.0438" lon="6.33119">
        <ele>1586.2</ele>
        <time>2018-08-25T06:51:39Z</time>
      </trkpt>
      <trkpt lat="45.04355" lon="6.33117">
        <ele>1587.12</ele>
        <time>2018-08-25T06:51:41Z</time>
      </trkpt>
      <trkpt lat="45.04335" lon="6.33142">
        <ele>1588.12</ele>
        <time>2018-08-25T06:51:43Z</time>
      </trkpt>
      <trkpt lat="45.04318" lon="6.33187">
        <ele>1589.12</ele>
        <time>2018-08-25T06:51:45Z</time>
      </trkpt>
      <trkpt lat="45.04323" lon="6.33212">
        <ele>1589.35</ele>
        <time>2018-08-25T06:51:46Z</time>
      </trkpt>
      <trkpt lat="45.04333" lon="6.33234">
        <ele>1590.12</ele>
        <time>2018-08-25T06:51:47Z</time>
      </trkpt>
      <trkpt lat="45.04344" lon="6.33254">
        <ele>1591.05</ele>
        <time>2018-08-25T06:51:48Z</time>
      </trkpt>
      <trkpt lat="45.04367" lon="6.33278">
        <ele>1593.43</ele>
        <time>2018-08-25T06:51:49Z</time>
      </trkpt>
      <trkpt lat="45.0438" lon="6.33297">
        <ele>1594.14</ele>
        <time>2018-08-25T06:51:50Z</time>
      </trkpt>
      <trkpt lat="45.04405" lon="6.33329">
        <ele>1597.85</ele>
        <time>2018-08-25T06:51:52Z</time>
      </trkpt>
      <trkpt lat="45.04433" lon="6.33354">
        <ele>1601.82</ele>
        <time>2018-08-25T06:51:54Z</time>
      </trkpt>
      <trkpt lat="45.04463" lon="6.33371">
        <ele>1605.82</ele>
        <time>2018-08-25T06:51:56Z</time>
      </trkpt>
      <trkpt lat="45.04488" lon="6.33368">
        <ele>1606.96</ele>
        <time>2018-08-25T06:51:57Z</time>
      </trkpt>
      <trkpt lat="45.04512" lon="6.33355">
        <ele>1608.7</ele>
        <time>2018-08-25T06:51:58Z</time>
      </trkpt>
      <trkpt lat="45.0453" lon="6.33351">
        <ele>1611.32</ele>
        <time>2018-08-25T06:51:59Z</time>
      </trkpt>
      <trkpt lat="45.04548" lon="6.33348">
        <ele>1613.51</ele>
        <time>2018-08-25T06:52:00Z</time>
      </trkpt>
      <trkpt lat="45.04576" lon="6.33345">
        <ele>1615.27</ele>
        <time>2018-08-25T06:52:02Z</time>
      </trkpt>
      <trkpt lat="45.04599" lon="6.33357">
        <ele>1616.2</ele>
        <time>2018-08-25T06:52:05Z</time>
      </trkpt>
      <trkpt lat="45.04573" lon="6.33376">
        <ele>1616.65</ele>
        <time>2018-08-25T06:52:09Z</time>
      </trkpt>
      <trkpt lat="45.0455" lon="6.33373">
        <ele>1618.61</ele>
        <time>2018-08-25T06:52:10Z</time>
      </trkpt>
      <trkpt lat="45.04519" lon="6.33383">
        <ele>1619.86</ele>
        <time>2018-08-25T06:52:12Z</time>
      </trkpt>
      <trkpt lat="45.04487" lon="6.33406">
        <ele>1619.48</ele>
        <time>2018-08-25T06:52:14Z</time>
      </trkpt>
      <trkpt lat="45.0447" lon="6.3343">
        <ele>1620.16</ele>
        <time>2018-08-25T06:52:15Z</time>
      </trkpt>
      <trkpt lat="45.04458" lon="6.33455">
        <ele>1621.76</ele>
        <time>2018-08-25T06:52:16Z</time>
      </trkpt>
      <trkpt lat="45.04446" lon="6.33477">
        <ele>1622.94</ele>
        <time>2018-08-25T06:52:17Z</time>
      </trkpt>
      <trkpt lat="45.0444" lon="6.33504">
        <ele>1626.79</ele>
        <time>2018-08-25T06:52:18Z</time>
      </trkpt>
      <trkpt lat="45.04436" lon="6.3353">
        <ele>1630.05</ele>
        <time>2018-08-25T06:52:19Z</time>
      </trkpt>
      <trkpt lat="45.04434" lon="6.33558">
        <ele>1633.13</ele>
        <time>2018-08-25T06:52:20Z</time>
      </trkpt>
      <trkpt lat="45.04433" lon="6.33584">
        <ele>1636.15</ele>
        <time>2018-08-25T06:52:21Z</time>
      </trkpt>
      <trkpt lat="45.04432" lon="6.3363">
        <ele>1640.76</ele>
        <time>2018-08-25T06:52:23Z</time>
      </trkpt>
      <trkpt lat="45.04426" lon="6.33671">
        <ele>1643.9</ele>
        <time>2018-08-25T06:52:25Z</time>
      </trkpt>
      <trkpt lat="45.04415" lon="6.33707">
        <ele>1646.01</ele>
        <time>2018-08-25T06:52:27Z</time>
      </trkpt>
      <trkpt lat="45.04402" lon="6.33739">
        <ele>1648.02</ele>
        <time>2018-08-25T06:52:29Z</time>
      </trkpt>
      <trkpt lat="45.04385" lon="6.33768">
        <ele>1649.32</ele>
        <time>2018-08-25T06:52:31Z</time>
      </trkpt>
      <trkpt lat="45.04362" lon="6.33794">
        <ele>1651.95</ele>
        <time>2018-08-25T06:52:33Z</time>
      </trkpt>
      <trkpt lat="45.04338" lon="6.33818">
        <ele>1654.01</ele>
        <time>2018-08-25T06:52:35Z</time>
      </trkpt>
      <trkpt lat="45.04312" lon="6.33841">
        <ele>1655.32</ele>
        <time>2018-08-25T06:52:37Z</time>
      </trkpt>
      <trkpt lat="45.04292" lon="6.33862">
        <ele>1656.13</ele>
        <time>2018-08-25T06:52:39Z</time>
      </trkpt>
      <trkpt lat="45.04275" lon="6.3389">
        <ele>1657.82</ele>
        <time>2018-08-25T06:52:41Z</time>
      </trkpt>
      <trkpt lat="45.04262" lon="6.33923">
        <ele>1661.61</ele>
        <time>2018-08-25T06:52:43Z</time>
      </trkpt>
      <trkpt lat="45.04249" lon="6.33957">
        <ele>1664.19</ele>
        <time>2018-08-25T06:52:45Z</time>
      </trkpt>
      <trkpt lat="45.0423" lon="6.33981">
        <ele>1666.73</ele>
        <time>2018-08-25T06:52:47Z</time>
      </trkpt>
      <trkpt lat="45.04208" lon="6.33997">
        <ele>1667.38</ele>
        <time>2018-08-25T06:52:49Z</time>
      </trkpt>
      <trkpt lat="45.04189" lon="6.34015">
        <ele>1668.14</ele>
        <time>2018-08-25T06:52:51Z</time>
      </trkpt>
      <trkpt lat="45.0417" lon="6.34048">
        <ele>1669.82</ele>
        <time>2018-08-25T06:52:53Z</time>
      </trkpt>
      <trkpt lat="45.04156" lon="6.34076">
        <ele>1671.66</ele>
        <time>2018-08-25T06:52:54Z</time>
      </trkpt>
      <trkpt lat="45.04143" lon="6.34098">
        <ele>1673.61</ele>
        <time>2018-08-25T06:52:55Z</time>
      </trkpt>
      <trkpt lat="45.04132" lon="6.3412">
        <ele>1674.89</ele>
        <time>2018-08-25T06:52:56Z</time>
      </trkpt>
      <trkpt lat="45.04122" lon="6.34141">
        <ele>1675.98</ele>
        <time>2018-08-25T06:52:57Z</time>
      </trkpt>
      <trkpt lat="45.04113" lon="6.34164">
        <ele>1676.31</ele>
        <time>2018-08-25T06:52:58Z</time>
      </trkpt>
      <trkpt lat="45.04113" lon="6.34196">
        <ele>1677.8</ele>
        <time>2018-08-25T06:52:59Z</time>
      </trkpt>
      <trkpt lat="45.04136" lon="6.34235">
        <ele>1681.05</ele>
        <time>2018-08-25T06:53:00Z</time>
      </trkpt>
      <trkpt lat="45.04142" lon="6.34266">
        <ele>1683.43</ele>
        <time>2018-08-25T06:53:01Z</time>
      </trkpt>
      <trkpt lat="45.04144" lon="6.34299">
        <ele>1685.54</ele>
        <time>2018-08-25T06:53:02Z</time>
      </trkpt>
      <trkpt lat="45.04146" lon="6.34332">
        <ele>1686.17</ele>
        <time>2018-08-25T06:53:03Z</time>
      </trkpt>
      <trkpt lat="45.04146" lon="6.34363">
        <ele>1687.06</ele>
        <time>2018-08-25T06:53:04Z</time>
      </trkpt>
      <trkpt lat="45.0414" lon="6.34395">
        <ele>1688.03</ele>
        <time>2018-08-25T06:53:05Z</time>
      </trkpt>
      <trkpt lat="45.04127" lon="6.34424">
        <ele>1690.42</ele>
        <time>2018-08-25T06:53:06Z</time>
      </trkpt>
      <trkpt lat="45.0412" lon="6.34455">
        <ele>1692.54</ele>
        <time>2018-08-25T06:53:07Z</time>
      </trkpt>
      <trkpt lat="45.04112" lon="6.34485">
        <ele>1695.97</ele>
        <time>2018-08-25T06:53:08Z</time>
      </trkpt>
      <trkpt lat="45.04108" lon="6.34514">
        <ele>1697.7</ele>
        <time>2018-08-25T06:53:09Z</time>
      </trkpt>
      <trkpt lat="45.04107" lon="6.34544">
        <ele>1699.62</ele>
        <time>2018-08-25T06:53:10Z</time>
      </trkpt>
      <trkpt lat="45.04105" lon="6.34573">
        <ele>1700.9</ele>
        <time>2018-08-25T06:53:11Z</time>
      </trkpt>
      <trkpt lat="45.04118" lon="6.34599">
        <ele>1704.78</ele>
        <time>2018-08-25T06:53:12Z</time>
      </trkpt>
      <trkpt lat="45.04126" lon="6.34626">
        <ele>1706.65</ele>
        <time>2018-08-25T06:53:13Z</time>
      </trkpt>
      <trkpt lat="45.0414" lon="6.3465">
        <ele>1708.61</ele>
        <time>2018-08-25T06:53:14Z</time>
      </trkpt>
      <trkpt lat="45.04148" lon="6.34677">
        <ele>1709.89</ele>
        <time>2018-08-25T06:53:15Z</time>
      </trkpt>
      <trkpt lat="45.04155" lon="6.34704">
        <ele>1710.28</ele>
        <time>2018-08-25T06:53:16Z</time>
      </trkpt>
      <trkpt lat="45.04158" lon="6.3473">
        <ele>1711.1</ele>
        <time>2018-08-25T06:53:17Z</time>
      </trkpt>
      <trkpt lat="45.04153" lon="6.34758">
        <ele>1712.04</ele>
        <time>2018-08-25T06:53:18Z</time>
      </trkpt>
      <trkpt lat="45.04142" lon="6.34784">
        <ele>1711.62</ele>
        <time>2018-08-25T06:53:19Z</time>
      </trkpt>
      <trkpt lat="45.04129" lon="6.34807">
        <ele>1711.5</ele>
        <time>2018-08-25T06:53:20Z</time>
      </trkpt>
      <trkpt lat="45.04124" lon="6.34836">
        <ele>1712.86</ele>
        <time>2018-08-25T06:53:21Z</time>
      </trkpt>
      <trkpt lat="45.04122" lon="6.34866">
        <ele>1713.27</ele>
        <time>2018-08-25T06:53:22Z</time>
      </trkpt>
      <trkpt lat="45.04124" lon="6.34897">
        <ele>1716.19</ele>
        <time>2018-08-25T06:53:23Z</time>
      </trkpt>
      <trkpt lat="45.04125" lon="6.34929">
        <ele>1719.17</ele>
        <time>2018-08-25T06:53:24Z</time>
      </trkpt>
      <trkpt lat="45.04126" lon="6.34962">
        <ele>1721.46</ele>
        <time>2018-08-25T06:53:25Z</time>
      </trkpt>
      <trkpt lat="45.04129" lon="6.34995">
        <ele>1724.25</ele>
        <time>2018-08-25T06:53:26Z</time>
      </trkpt>
      <trkpt lat="45.04131" lon="6.35026">
        <ele>1726.49</ele>
        <time>2018-08-25T06:53:27Z</time>
      </trkpt>
      <trkpt lat="45.0413" lon="6.35057">
        <ele>1727.16</ele>
        <time>2018-08-25T06:53:28Z</time>
      </trkpt>
      <trkpt lat="45.04129" lon="6.35088">
        <ele>1728.06</ele>
        <time>2018-08-25T06:53:29Z</time>
      </trkpt>
      <trkpt lat="45.04119" lon="6.35114">
        <ele>1730.43</ele>
        <time>2018-08-25T06:53:30Z</time>
      </trkpt>
      <trkpt lat="45.04116" lon="6.35163">
        <ele>1732.96</ele>
        <time>2018-08-25T06:53:32Z</time>
      </trkpt>
      <trkpt lat="45.04125" lon="6.35208">
        <ele>1734.31</ele>
        <time>2018-08-25T06:53:34Z</time>
      </trkpt>
      <trkpt lat="45.04129" lon="6.35235">
        <ele>1735.81</ele>
        <time>2018-08-25T06:53:35Z</time>
      </trkpt>
      <trkpt lat="45.04135" lon="6.35269">
        <ele>1738.35</ele>
        <time>2018-08-25T06:53:36Z</time>
      </trkpt>
      <trkpt lat="45.04141" lon="6.35301">
        <ele>1740.52</ele>
        <time>2018-08-25T06:53:37Z</time>
      </trkpt>
      <trkpt lat="45.04148" lon="6.35333">
        <ele>1742.57</ele>
        <time>2018-08-25T06:53:38Z</time>
      </trkpt>
      <trkpt lat="45.04156" lon="6.35364">
        <ele>1743.88</ele>
        <time>2018-08-25T06:53:39Z</time>
      </trkpt>
      <trkpt lat="45.04165" lon="6.35392">
        <ele>1744.98</ele>
        <time>2018-08-25T06:53:40Z</time>
      </trkpt>
      <trkpt lat="45.04177" lon="6.35418">
        <ele>1745.3</ele>
        <time>2018-08-25T06:53:41Z</time>
      </trkpt>
      <trkpt lat="45.04193" lon="6.35442">
        <ele>1746.8</ele>
        <time>2018-08-25T06:53:42Z</time>
      </trkpt>
      <trkpt lat="45.04208" lon="6.35462">
        <ele>1747.95</ele>
        <time>2018-08-25T06:53:43Z</time>
      </trkpt>
      <trkpt lat="45.04224" lon="6.35478">
        <ele>1749</ele>
        <time>2018-08-25T06:53:44Z</time>
      </trkpt>
      <trkpt lat="45.04249" lon="6.35514">
        <ele>1751.71</ele>
        <time>2018-08-25T06:53:46Z</time>
      </trkpt>
      <trkpt lat="45.04268" lon="6.35552">
        <ele>1754.69</ele>
        <time>2018-08-25T06:53:48Z</time>
      </trkpt>
      <trkpt lat="45.04253" lon="6.35593">
        <ele>1752.16</ele>
        <time>2018-08-25T06:53:50Z</time>
      </trkpt>
      <trkpt lat="45.04236" lon="6.3561">
        <ele>1750.96</ele>
        <time>2018-08-25T06:53:51Z</time>
      </trkpt>
      <trkpt lat="45.04215" lon="6.35625">
        <ele>1750.6</ele>
        <time>2018-08-25T06:53:52Z</time>
      </trkpt>
      <trkpt lat="45.04196" lon="6.35637">
        <ele>1751.89</ele>
        <time>2018-08-25T06:53:53Z</time>
      </trkpt>
      <trkpt lat="45.04158" lon="6.35634">
        <ele>1754.38</ele>
        <time>2018-08-25T06:53:54Z</time>
      </trkpt>
      <trkpt lat="45.04135" lon="6.3564">
        <ele>1755.13</ele>
        <time>2018-08-25T06:53:55Z</time>
      </trkpt>
      <trkpt lat="45.0412" lon="6.35654">
        <ele>1754.65</ele>
        <time>2018-08-25T06:53:56Z</time>
      </trkpt>
      <trkpt lat="45.04103" lon="6.3567">
        <ele>1755.91</ele>
        <time>2018-08-25T06:53:57Z</time>
      </trkpt>
      <trkpt lat="45.04091" lon="6.35698">
        <ele>1756.98</ele>
        <time>2018-08-25T06:53:58Z</time>
      </trkpt>
      <trkpt lat="45.04077" lon="6.35723">
        <ele>1758.01</ele>
        <time>2018-08-25T06:53:59Z</time>
      </trkpt>
      <trkpt lat="45.04061" lon="6.35743">
        <ele>1758.31</ele>
        <time>2018-08-25T06:54:00Z</time>
      </trkpt>
      <trkpt lat="45.04047" lon="6.35761">
        <ele>1759.11</ele>
        <time>2018-08-25T06:54:01Z</time>
      </trkpt>
      <trkpt lat="45.04031" lon="6.35777">
        <ele>1760.04</ele>
        <time>2018-08-25T06:54:02Z</time>
      </trkpt>
      <trkpt lat="45.04011" lon="6.35814">
        <ele>1763.21</ele>
        <time>2018-08-25T06:54:04Z</time>
      </trkpt>
      <trkpt lat="45.04" lon="6.35864">
        <ele>1767.34</ele>
        <time>2018-08-25T06:54:06Z</time>
      </trkpt>
      <trkpt lat="45.03994" lon="6.35891">
        <ele>1769.51</ele>
        <time>2018-08-25T06:54:07Z</time>
      </trkpt>
      <trkpt lat="45.03988" lon="6.35918">
        <ele>1772.27</ele>
        <time>2018-08-25T06:54:08Z</time>
      </trkpt>
      <trkpt lat="45.03982" lon="6.35945">
        <ele>1775.89</ele>
        <time>2018-08-25T06:54:09Z</time>
      </trkpt>
      <trkpt lat="45.03975" lon="6.3597">
        <ele>1779.08</ele>
        <time>2018-08-25T06:54:10Z</time>
      </trkpt>
      <trkpt lat="45.03958" lon="6.36012">
        <ele>1781.93</ele>
        <time>2018-08-25T06:54:12Z</time>
      </trkpt>
      <trkpt lat="45.03929" lon="6.36038">
        <ele>1784.22</ele>
        <time>2018-08-25T06:54:14Z</time>
      </trkpt>
      <trkpt lat="45.03908" lon="6.36051">
        <ele>1787.18</ele>
        <time>2018-08-25T06:54:15Z</time>
      </trkpt>
      <trkpt lat="45.03876" lon="6.36083">
        <ele>1789.24</ele>
        <time>2018-08-25T06:54:17Z</time>
      </trkpt>
      <trkpt lat="45.03866" lon="6.36105">
        <ele>1790.08</ele>
        <time>2018-08-25T06:54:18Z</time>
      </trkpt>
      <trkpt lat="45.03867" lon="6.36136">
        <ele>1791.04</ele>
        <time>2018-08-25T06:54:19Z</time>
      </trkpt>
      <trkpt lat="45.03864" lon="6.36165">
        <ele>1792.72</ele>
        <time>2018-08-25T06:54:20Z</time>
      </trkpt>
      <trkpt lat="45.03863" lon="6.36193">
        <ele>1793.93</ele>
        <time>2018-08-25T06:54:21Z</time>
      </trkpt>
      <trkpt lat="45.03863" lon="6.36219">
        <ele>1794.99</ele>
        <time>2018-08-25T06:54:22Z</time>
      </trkpt>
      <trkpt lat="45.03876" lon="6.36266">
        <ele>1797.01</ele>
        <time>2018-08-25T06:54:24Z</time>
      </trkpt>
      <trkpt lat="45.03896" lon="6.36303">
        <ele>1799.02</ele>
        <time>2018-08-25T06:54:26Z</time>
      </trkpt>
      <trkpt lat="45.039" lon="6.36334">
        <ele>1801.02</ele>
        <time>2018-08-25T06:54:28Z</time>
      </trkpt>
      <trkpt lat="45.03894" lon="6.36363">
        <ele>1803.02</ele>
        <time>2018-08-25T06:54:30Z</time>
      </trkpt>
      <trkpt lat="45.03871" lon="6.36384">
        <ele>1803.62</ele>
        <time>2018-08-25T06:54:32Z</time>
      </trkpt>
      <trkpt lat="45.0381" lon="6.36398">
        <ele>1803.46</ele>
        <time>2018-08-25T06:54:34Z</time>
      </trkpt>
      <trkpt lat="45.03787" lon="6.36407">
        <ele>1803.45</ele>
        <time>2018-08-25T06:54:35Z</time>
      </trkpt>
      <trkpt lat="45.0377" lon="6.36421">
        <ele>1804.15</ele>
        <time>2018-08-25T06:54:36Z</time>
      </trkpt>
      <trkpt lat="45.03752" lon="6.36435">
        <ele>1805.76</ele>
        <time>2018-08-25T06:54:37Z</time>
      </trkpt>
      <trkpt lat="45.03736" lon="6.36455">
        <ele>1806.24</ele>
        <time>2018-08-25T06:54:38Z</time>
      </trkpt>
      <trkpt lat="45.03723" lon="6.36478">
        <ele>1807.78</ele>
        <time>2018-08-25T06:54:39Z</time>
      </trkpt>
      <trkpt lat="45.0372" lon="6.36509">
        <ele>1810.35</ele>
        <time>2018-08-25T06:54:40Z</time>
      </trkpt>
      <trkpt lat="45.03711" lon="6.36534">
        <ele>1812.52</ele>
        <time>2018-08-25T06:54:41Z</time>
      </trkpt>
      <trkpt lat="45.03703" lon="6.36559">
        <ele>1814.57</ele>
        <time>2018-08-25T06:54:42Z</time>
      </trkpt>
      <trkpt lat="45.03695" lon="6.36583">
        <ele>1816.58</ele>
        <time>2018-08-25T06:54:43Z</time>
      </trkpt>
      <trkpt lat="45.03687" lon="6.36608">
        <ele>1818.59</ele>
        <time>2018-08-25T06:54:44Z</time>
      </trkpt>
      <trkpt lat="45.03677" lon="6.36632">
        <ele>1820.59</ele>
        <time>2018-08-25T06:54:45Z</time>
      </trkpt>
      <trkpt lat="45.03668" lon="6.36657">
        <ele>1822.59</ele>
        <time>2018-08-25T06:54:46Z</time>
      </trkpt>
      <trkpt lat="45.0366" lon="6.36682">
        <ele>1824.59</ele>
        <time>2018-08-25T06:54:47Z</time>
      </trkpt>
      <trkpt lat="45.0365" lon="6.36706">
        <ele>1826.59</ele>
        <time>2018-08-25T06:54:48Z</time>
      </trkpt>
      <trkpt lat="45.03627" lon="6.36742">
        <ele>1829.68</ele>
        <time>2018-08-25T06:54:50Z</time>
      </trkpt>
      <trkpt lat="45.03602" lon="6.36766">
        <ele>1831.78</ele>
        <time>2018-08-25T06:54:52Z</time>
      </trkpt>
      <trkpt lat="45.0358" lon="6.36788">
        <ele>1833.99</ele>
        <time>2018-08-25T06:54:54Z</time>
      </trkpt>
      <trkpt lat="45.03576" lon="6.36818">
        <ele>1834.61</ele>
        <time>2018-08-25T06:54:56Z</time>
      </trkpt>
      <trkpt lat="45.03579" lon="6.36847">
        <ele>1835.37</ele>
        <time>2018-08-25T06:54:58Z</time>
      </trkpt>
      <trkpt lat="45.036" lon="6.36844">
        <ele>1833.83</ele>
        <time>2018-08-25T06:55:00Z</time>
      </trkpt>
      <trkpt lat="45.03637" lon="6.36804">
        <ele>1833.48</ele>
        <time>2018-08-25T06:55:02Z</time>
      </trkpt>
      <trkpt lat="45.03664" lon="6.36763">
        <ele>1836.96</ele>
        <time>2018-08-25T06:55:03Z</time>
      </trkpt>
      <trkpt lat="45.0368" lon="6.36739">
        <ele>1840.1</ele>
        <time>2018-08-25T06:55:04Z</time>
      </trkpt>
      <trkpt lat="45.03698" lon="6.36716">
        <ele>1842.44</ele>
        <time>2018-08-25T06:55:05Z</time>
      </trkpt>
      <trkpt lat="45.03716" lon="6.36696">
        <ele>1844.54</ele>
        <time>2018-08-25T06:55:06Z</time>
      </trkpt>
      <trkpt lat="45.03735" lon="6.36675">
        <ele>1847.27</ele>
        <time>2018-08-25T06:55:07Z</time>
      </trkpt>
      <trkpt lat="45.03754" lon="6.36656">
        <ele>1848.79</ele>
        <time>2018-08-25T06:55:08Z</time>
      </trkpt>
      <trkpt lat="45.03772" lon="6.36636">
        <ele>1850.65</ele>
        <time>2018-08-25T06:55:09Z</time>
      </trkpt>
      <trkpt lat="45.03788" lon="6.36616">
        <ele>1852.61</ele>
        <time>2018-08-25T06:55:10Z</time>
      </trkpt>
      <trkpt lat="45.03801" lon="6.36594">
        <ele>1853.89</ele>
        <time>2018-08-25T06:55:11Z</time>
      </trkpt>
      <trkpt lat="45.03806" lon="6.36568">
        <ele>1854.98</ele>
        <time>2018-08-25T06:55:12Z</time>
      </trkpt>
      <trkpt lat="45.03821" lon="6.36533">
        <ele>1857.01</ele>
        <time>2018-08-25T06:55:14Z</time>
      </trkpt>
      <trkpt lat="45.0384" lon="6.36514">
        <ele>1858.32</ele>
        <time>2018-08-25T06:55:16Z</time>
      </trkpt>
      <trkpt lat="45.03858" lon="6.36518">
        <ele>1858.5</ele>
        <time>2018-08-25T06:55:19Z</time>
      </trkpt>
      <trkpt lat="45.03859" lon="6.3655">
        <ele>1858.46</ele>
        <time>2018-08-25T06:55:20Z</time>
      </trkpt>
      <trkpt lat="45.0384" lon="6.36587">
        <ele>1857.54</ele>
        <time>2018-08-25T06:55:22Z</time>
      </trkpt>
      <trkpt lat="45.03815" lon="6.36623">
        <ele>1857.47</ele>
        <time>2018-08-25T06:55:23Z</time>
      </trkpt>
      <trkpt lat="45.03797" lon="6.36653">
        <ele>1858.85</ele>
        <time>2018-08-25T06:55:24Z</time>
      </trkpt>
      <trkpt lat="45.03782" lon="6.36681">
        <ele>1861.37</ele>
        <time>2018-08-25T06:55:25Z</time>
      </trkpt>
      <trkpt lat="45.03769" lon="6.3671">
        <ele>1863.52</ele>
        <time>2018-08-25T06:55:26Z</time>
      </trkpt>
      <trkpt lat="45.03756" lon="6.36738">
        <ele>1866.27</ele>
        <time>2018-08-25T06:55:27Z</time>
      </trkpt>
      <trkpt lat="45.03745" lon="6.36766">
        <ele>1869.19</ele>
        <time>2018-08-25T06:55:28Z</time>
      </trkpt>
      <trkpt lat="45.03738" lon="6.36793">
        <ele>1872.87</ele>
        <time>2018-08-25T06:55:29Z</time>
      </trkpt>
      <trkpt lat="45.03729" lon="6.3682">
        <ele>1874.67</ele>
        <time>2018-08-25T06:55:30Z</time>
      </trkpt>
      <trkpt lat="45.03719" lon="6.36846">
        <ele>1875.21</ele>
        <time>2018-08-25T06:55:31Z</time>
      </trkpt>
      <trkpt lat="45.03704" lon="6.36872">
        <ele>1876.78</ele>
        <time>2018-08-25T06:55:32Z</time>
      </trkpt>
      <trkpt lat="45.03689" lon="6.36898">
        <ele>1879.34</ele>
        <time>2018-08-25T06:55:33Z</time>
      </trkpt>
      <trkpt lat="45.03676" lon="6.36924">
        <ele>1881.51</ele>
        <time>2018-08-25T06:55:34Z</time>
      </trkpt>
      <trkpt lat="45.03665" lon="6.36952">
        <ele>1882.87</ele>
        <time>2018-08-25T06:55:35Z</time>
      </trkpt>
      <trkpt lat="45.03656" lon="6.36977">
        <ele>1884.67</ele>
        <time>2018-08-25T06:55:36Z</time>
      </trkpt>
      <trkpt lat="45.03645" lon="6.37005">
        <ele>1886.61</ele>
        <time>2018-08-25T06:55:37Z</time>
      </trkpt>
      <trkpt lat="45.03631" lon="6.37034">
        <ele>1888.6</ele>
        <time>2018-08-25T06:55:38Z</time>
      </trkpt>
      <trkpt lat="45.03616" lon="6.3706">
        <ele>1889.89</ele>
        <time>2018-08-25T06:55:39Z</time>
      </trkpt>
      <trkpt lat="45.03599" lon="6.3708">
        <ele>1890.98</ele>
        <time>2018-08-25T06:55:40Z</time>
      </trkpt>
      <trkpt lat="45.03581" lon="6.37101">
        <ele>1892.71</ele>
        <time>2018-08-25T06:55:41Z</time>
      </trkpt>
      <trkpt lat="45.03563" lon="6.37121">
        <ele>1893.92</ele>
        <time>2018-08-25T06:55:42Z</time>
      </trkpt>
      <trkpt lat="45.03546" lon="6.37141">
        <ele>1894.99</ele>
        <time>2018-08-25T06:55:43Z</time>
      </trkpt>
      <trkpt lat="45.03531" lon="6.37158">
        <ele>1895.31</ele>
        <time>2018-08-25T06:55:44Z</time>
      </trkpt>
      <trkpt lat="45.03517" lon="6.37174">
        <ele>1896.1</ele>
        <time>2018-08-25T06:55:45Z</time>
      </trkpt>
      <trkpt lat="45.03493" lon="6.37203">
        <ele>1899.42</ele>
        <time>2018-08-25T06:55:47Z</time>
      </trkpt>
      <trkpt lat="45.03475" lon="6.37239">
        <ele>1901.96</ele>
        <time>2018-08-25T06:55:49Z</time>
      </trkpt>
      <trkpt lat="45.03462" lon="6.37276">
        <ele>1904.92</ele>
        <time>2018-08-25T06:55:51Z</time>
      </trkpt>
      <trkpt lat="45.03461" lon="6.37301">
        <ele>1906.69</ele>
        <time>2018-08-25T06:55:52Z</time>
      </trkpt>
      <trkpt lat="45.03458" lon="6.37328">
        <ele>1908.62</ele>
        <time>2018-08-25T06:55:53Z</time>
      </trkpt>
      <trkpt lat="45.03455" lon="6.37357">
        <ele>1909.9</ele>
        <time>2018-08-25T06:55:54Z</time>
      </trkpt>
      <trkpt lat="45.03453" lon="6.37388">
        <ele>1911.68</ele>
        <time>2018-08-25T06:55:55Z</time>
      </trkpt>
      <trkpt lat="45.03451" lon="6.3742">
        <ele>1913.62</ele>
        <time>2018-08-25T06:55:56Z</time>
      </trkpt>
      <trkpt lat="45.03447" lon="6.3745">
        <ele>1914.9</ele>
        <time>2018-08-25T06:55:57Z</time>
      </trkpt>
      <trkpt lat="45.03442" lon="6.3748">
        <ele>1915.28</ele>
        <time>2018-08-25T06:55:58Z</time>
      </trkpt>
      <trkpt lat="45.03433" lon="6.37506">
        <ele>1914.7</ele>
        <time>2018-08-25T06:55:59Z</time>
      </trkpt>
      <trkpt lat="45.03419" lon="6.37532">
        <ele>1915.22</ele>
        <time>2018-08-25T06:56:00Z</time>
      </trkpt>
      <trkpt lat="45.03405" lon="6.37558">
        <ele>1916.08</ele>
        <time>2018-08-25T06:56:01Z</time>
      </trkpt>
      <trkpt lat="45.03389" lon="6.37587">
        <ele>1919.13</ele>
        <time>2018-08-25T06:56:02Z</time>
      </trkpt>
      <trkpt lat="45.03376" lon="6.37617">
        <ele>1921.45</ele>
        <time>2018-08-25T06:56:03Z</time>
      </trkpt>
      <trkpt lat="45.03364" lon="6.3765">
        <ele>1924.25</ele>
        <time>2018-08-25T06:56:04Z</time>
      </trkpt>
      <trkpt lat="45.03351" lon="6.37682">
        <ele>1926.49</ele>
        <time>2018-08-25T06:56:05Z</time>
      </trkpt>
      <trkpt lat="45.03339" lon="6.37715">
        <ele>1928.56</ele>
        <time>2018-08-25T06:56:06Z</time>
      </trkpt>
      <trkpt lat="45.03327" lon="6.37746">
        <ele>1931.28</ele>
        <time>2018-08-25T06:56:07Z</time>
      </trkpt>
      <trkpt lat="45.03315" lon="6.37776">
        <ele>1933.5</ele>
        <time>2018-08-25T06:56:08Z</time>
      </trkpt>
      <trkpt lat="45.03304" lon="6.37806">
        <ele>1936.26</ele>
        <time>2018-08-25T06:56:09Z</time>
      </trkpt>
      <trkpt lat="45.03292" lon="6.37836">
        <ele>1938.49</ele>
        <time>2018-08-25T06:56:10Z</time>
      </trkpt>
      <trkpt lat="45.03282" lon="6.37865">
        <ele>1941.26</ele>
        <time>2018-08-25T06:56:11Z</time>
      </trkpt>
      <trkpt lat="45.03273" lon="6.37894">
        <ele>1942.79</ele>
        <time>2018-08-25T06:56:12Z</time>
      </trkpt>
      <trkpt lat="45.03264" lon="6.37924">
        <ele>1944.65</ele>
        <time>2018-08-25T06:56:13Z</time>
      </trkpt>
      <trkpt lat="45.03256" lon="6.37954">
        <ele>1947.31</ele>
        <time>2018-08-25T06:56:14Z</time>
      </trkpt>
      <trkpt lat="45.03247" lon="6.37984">
        <ele>1949.5</ele>
        <time>2018-08-25T06:56:15Z</time>
      </trkpt>
      <trkpt lat="45.03239" lon="6.38014">
        <ele>1952.26</ele>
        <time>2018-08-25T06:56:16Z</time>
      </trkpt>
      <trkpt lat="45.03232" lon="6.38043">
        <ele>1954.49</ele>
        <time>2018-08-25T06:56:17Z</time>
      </trkpt>
      <trkpt lat="45.03226" lon="6.38073">
        <ele>1956.56</ele>
        <time>2018-08-25T06:56:18Z</time>
      </trkpt>
      <trkpt lat="45.0322" lon="6.38104">
        <ele>1957.88</ele>
        <time>2018-08-25T06:56:19Z</time>
      </trkpt>
      <trkpt lat="45.03216" lon="6.38135">
        <ele>1958.98</ele>
        <time>2018-08-25T06:56:20Z</time>
      </trkpt>
      <trkpt lat="45.03212" lon="6.38165">
        <ele>1960</ele>
        <time>2018-08-25T06:56:21Z</time>
      </trkpt>
      <trkpt lat="45.03208" lon="6.38194">
        <ele>1961.71</ele>
        <time>2018-08-25T06:56:22Z</time>
      </trkpt>
      <trkpt lat="45.03204" lon="6.38223">
        <ele>1962.93</ele>
        <time>2018-08-25T06:56:23Z</time>
      </trkpt>
      <trkpt lat="45.03203" lon="6.3825">
        <ele>1964.69</ele>
        <time>2018-08-25T06:56:24Z</time>
      </trkpt>
      <trkpt lat="45.03202" lon="6.38276">
        <ele>1965.92</ele>
        <time>2018-08-25T06:56:25Z</time>
      </trkpt>
      <trkpt lat="45.03208" lon="6.38325">
        <ele>1967.31</ele>
        <time>2018-08-25T06:56:27Z</time>
      </trkpt>
      <trkpt lat="45.03227" lon="6.38367">
        <ele>1968.34</ele>
        <time>2018-08-25T06:56:29Z</time>
      </trkpt>
      <trkpt lat="45.03267" lon="6.38362">
        <ele>1971.21</ele>
        <time>2018-08-25T06:56:30Z</time>
      </trkpt>
      <trkpt lat="45.03287" lon="6.38371">
        <ele>1972.78</ele>
        <time>2018-08-25T06:56:31Z</time>
      </trkpt>
      <trkpt lat="45.03305" lon="6.38385">
        <ele>1973.94</ele>
        <time>2018-08-25T06:56:32Z</time>
      </trkpt>
      <trkpt lat="45.03321" lon="6.38401">
        <ele>1974.29</ele>
        <time>2018-08-25T06:56:33Z</time>
      </trkpt>
      <trkpt lat="45.03333" lon="6.3842">
        <ele>1974.4</ele>
        <time>2018-08-25T06:56:34Z</time>
      </trkpt>
      <trkpt lat="45.03345" lon="6.3844">
        <ele>1973.73</ele>
        <time>2018-08-25T06:56:35Z</time>
      </trkpt>
      <trkpt lat="45.03352" lon="6.38468">
        <ele>1974.23</ele>
        <time>2018-08-25T06:56:36Z</time>
      </trkpt>
      <trkpt lat="45.03354" lon="6.385">
        <ele>1974.38</ele>
        <time>2018-08-25T06:56:37Z</time>
      </trkpt>
      <trkpt lat="45.03362" lon="6.38525">
        <ele>1974.43</ele>
        <time>2018-08-25T06:56:38Z</time>
      </trkpt>
      <trkpt lat="45.03357" lon="6.38554">
        <ele>1975.14</ele>
        <time>2018-08-25T06:56:39Z</time>
      </trkpt>
      <trkpt lat="45.03348" lon="6.38587">
        <ele>1975.35</ele>
        <time>2018-08-25T06:56:40Z</time>
      </trkpt>
      <trkpt lat="45.03333" lon="6.38627">
        <ele>1975.42</ele>
        <time>2018-08-25T06:56:41Z</time>
      </trkpt>
      <trkpt lat="45.03324" lon="6.38659">
        <ele>1977.54</ele>
        <time>2018-08-25T06:56:42Z</time>
      </trkpt>
      <trkpt lat="45.03316" lon="6.3869">
        <ele>1978.87</ele>
        <time>2018-08-25T06:56:43Z</time>
      </trkpt>
      <trkpt lat="45.03308" lon="6.3872">
        <ele>1980.67</ele>
        <time>2018-08-25T06:56:44Z</time>
      </trkpt>
      <trkpt lat="45.033" lon="6.3875">
        <ele>1981.91</ele>
        <time>2018-08-25T06:56:45Z</time>
      </trkpt>
      <trkpt lat="45.03294" lon="6.38781">
        <ele>1984.39</ele>
        <time>2018-08-25T06:56:46Z</time>
      </trkpt>
      <trkpt lat="45.03288" lon="6.3881">
        <ele>1985.83</ele>
        <time>2018-08-25T06:56:47Z</time>
      </trkpt>
      <trkpt lat="45.03283" lon="6.38841">
        <ele>1988.36</ele>
        <time>2018-08-25T06:56:48Z</time>
      </trkpt>
      <trkpt lat="45.03278" lon="6.3887">
        <ele>1990.52</ele>
        <time>2018-08-25T06:56:49Z</time>
      </trkpt>
      <trkpt lat="45.03273" lon="6.389">
        <ele>1991.87</ele>
        <time>2018-08-25T06:56:50Z</time>
      </trkpt>
      <trkpt lat="45.03268" lon="6.38929">
        <ele>1995.07</ele>
        <time>2018-08-25T06:56:51Z</time>
      </trkpt>
      <trkpt lat="45.03264" lon="6.38958">
        <ele>1997.43</ele>
        <time>2018-08-25T06:56:52Z</time>
      </trkpt>
      <trkpt lat="45.0326" lon="6.38987">
        <ele>1998.84</ele>
        <time>2018-08-25T06:56:53Z</time>
      </trkpt>
      <trkpt lat="45.03257" lon="6.39015">
        <ele>2000.66</ele>
        <time>2018-08-25T06:56:54Z</time>
      </trkpt>
      <trkpt lat="45.03256" lon="6.39044">
        <ele>2002.61</ele>
        <time>2018-08-25T06:56:55Z</time>
      </trkpt>
      <trkpt lat="45.03256" lon="6.39073">
        <ele>2004.59</ele>
        <time>2018-08-25T06:56:56Z</time>
      </trkpt>
      <trkpt lat="45.03259" lon="6.39103">
        <ele>2007.29</ele>
        <time>2018-08-25T06:56:57Z</time>
      </trkpt>
      <trkpt lat="45.03264" lon="6.39131">
        <ele>2008.8</ele>
        <time>2018-08-25T06:56:58Z</time>
      </trkpt>
      <trkpt lat="45.0327" lon="6.39159">
        <ele>2010.65</ele>
        <time>2018-08-25T06:56:59Z</time>
      </trkpt>
      <trkpt lat="45.03277" lon="6.39186">
        <ele>2012.61</ele>
        <time>2018-08-25T06:57:00Z</time>
      </trkpt>
      <trkpt lat="45.03283" lon="6.39214">
        <ele>2013.89</ele>
        <time>2018-08-25T06:57:01Z</time>
      </trkpt>
      <trkpt lat="45.03289" lon="6.39241">
        <ele>2014.98</ele>
        <time>2018-08-25T06:57:02Z</time>
      </trkpt>
      <trkpt lat="45.03294" lon="6.39268">
        <ele>2015.31</ele>
        <time>2018-08-25T06:57:03Z</time>
      </trkpt>
      <trkpt lat="45.03298" lon="6.39296">
        <ele>2015.4</ele>
        <time>2018-08-25T06:57:04Z</time>
      </trkpt>
      <trkpt lat="45.033" lon="6.39323">
        <ele>2016.13</ele>
        <time>2018-08-25T06:57:05Z</time>
      </trkpt>
      <trkpt lat="45.03298" lon="6.39352">
        <ele>2017.05</ele>
        <time>2018-08-25T06:57:06Z</time>
      </trkpt>
      <trkpt lat="45.03296" lon="6.39381">
        <ele>2017.33</ele>
        <time>2018-08-25T06:57:07Z</time>
      </trkpt>
      <trkpt lat="45.03293" lon="6.39409">
        <ele>2017.41</ele>
        <time>2018-08-25T06:57:08Z</time>
      </trkpt>
      <trkpt lat="45.0329" lon="6.39437">
        <ele>2018.13</ele>
        <time>2018-08-25T06:57:09Z</time>
      </trkpt>
      <trkpt lat="45.03287" lon="6.39465">
        <ele>2018.35</ele>
        <time>2018-08-25T06:57:10Z</time>
      </trkpt>
      <trkpt lat="45.03286" lon="6.39493">
        <ele>2018.42</ele>
        <time>2018-08-25T06:57:11Z</time>
      </trkpt>
      <trkpt lat="45.03288" lon="6.39522">
        <ele>2019.14</ele>
        <time>2018-08-25T06:57:12Z</time>
      </trkpt>
      <trkpt lat="45.0329" lon="6.39551">
        <ele>2019.35</ele>
        <time>2018-08-25T06:57:13Z</time>
      </trkpt>
      <trkpt lat="45.03292" lon="6.3958">
        <ele>2019.42</ele>
        <time>2018-08-25T06:57:14Z</time>
      </trkpt>
      <trkpt lat="45.03295" lon="6.39609">
        <ele>2019.44</ele>
        <time>2018-08-25T06:57:15Z</time>
      </trkpt>
      <trkpt lat="45.033" lon="6.39639">
        <ele>2020.14</ele>
        <time>2018-08-25T06:57:16Z</time>
      </trkpt>
      <trkpt lat="45.03303" lon="6.39666">
        <ele>2019.65</ele>
        <time>2018-08-25T06:57:17Z</time>
      </trkpt>
      <trkpt lat="45.03307" lon="6.39695">
        <ele>2019.51</ele>
        <time>2018-08-25T06:57:18Z</time>
      </trkpt>
      <trkpt lat="45.03311" lon="6.39724">
        <ele>2019.46</ele>
        <time>2018-08-25T06:57:19Z</time>
      </trkpt>
      <trkpt lat="45.03317" lon="6.39751">
        <ele>2019.45</ele>
        <time>2018-08-25T06:57:20Z</time>
      </trkpt>
      <trkpt lat="45.03324" lon="6.39779">
        <ele>2020.15</ele>
        <time>2018-08-25T06:57:21Z</time>
      </trkpt>
      <trkpt lat="45.03331" lon="6.39806">
        <ele>2020.36</ele>
        <time>2018-08-25T06:57:22Z</time>
      </trkpt>
      <trkpt lat="45.03339" lon="6.39833">
        <ele>2021.82</ele>
        <time>2018-08-25T06:57:23Z</time>
      </trkpt>
      <trkpt lat="45.03347" lon="6.39861">
        <ele>2022.26</ele>
        <time>2018-08-25T06:57:24Z</time>
      </trkpt>
      <trkpt lat="45.03355" lon="6.39891">
        <ele>2023.09</ele>
        <time>2018-08-25T06:57:25Z</time>
      </trkpt>
      <trkpt lat="45.03363" lon="6.39921">
        <ele>2024.04</ele>
        <time>2018-08-25T06:57:26Z</time>
      </trkpt>
      <trkpt lat="45.03369" lon="6.39951">
        <ele>2024.32</ele>
        <time>2018-08-25T06:57:27Z</time>
      </trkpt>
      <trkpt lat="45.03374" lon="6.39981">
        <ele>2024.41</ele>
        <time>2018-08-25T06:57:28Z</time>
      </trkpt>
      <trkpt lat="45.03378" lon="6.40013">
        <ele>2025.83</ele>
        <time>2018-08-25T06:57:29Z</time>
      </trkpt>
      <trkpt lat="45.03381" lon="6.40045">
        <ele>2026.96</ele>
        <time>2018-08-25T06:57:30Z</time>
      </trkpt>
      <trkpt lat="45.03382" lon="6.40078">
        <ele>2027.3</ele>
        <time>2018-08-25T06:57:31Z</time>
      </trkpt>
      <trkpt lat="45.03382" lon="6.40111">
        <ele>2028.1</ele>
        <time>2018-08-25T06:57:32Z</time>
      </trkpt>
      <trkpt lat="45.0338" lon="6.40144">
        <ele>2029.04</ele>
        <time>2018-08-25T06:57:33Z</time>
      </trkpt>
      <trkpt lat="45.03377" lon="6.40177">
        <ele>2030.72</ele>
        <time>2018-08-25T06:57:34Z</time>
      </trkpt>
      <trkpt lat="45.03372" lon="6.4021">
        <ele>2032.63</ele>
        <time>2018-08-25T06:57:35Z</time>
      </trkpt>
      <trkpt lat="45.03366" lon="6.40242">
        <ele>2033.9</ele>
        <time>2018-08-25T06:57:36Z</time>
      </trkpt>
      <trkpt lat="45.0336" lon="6.40273">
        <ele>2035.68</ele>
        <time>2018-08-25T06:57:37Z</time>
      </trkpt>
      <trkpt lat="45.03354" lon="6.40304">
        <ele>2037.62</ele>
        <time>2018-08-25T06:57:38Z</time>
      </trkpt>
      <trkpt lat="45.03349" lon="6.40335">
        <ele>2038.9</ele>
        <time>2018-08-25T06:57:39Z</time>
      </trkpt>
      <trkpt lat="45.03343" lon="6.40364">
        <ele>2040.68</ele>
        <time>2018-08-25T06:57:40Z</time>
      </trkpt>
      <trkpt lat="45.03338" lon="6.40393">
        <ele>2041.92</ele>
        <time>2018-08-25T06:57:41Z</time>
      </trkpt>
      <trkpt lat="45.03335" lon="6.40419">
        <ele>2044.39</ele>
        <time>2018-08-25T06:57:42Z</time>
      </trkpt>
      <trkpt lat="45.03337" lon="6.40466">
        <ele>2046.05</ele>
        <time>2018-08-25T06:57:44Z</time>
      </trkpt>
      <trkpt lat="45.03349" lon="6.40505">
        <ele>2047.32</ele>
        <time>2018-08-25T06:57:46Z</time>
      </trkpt>
      <trkpt lat="45.03363" lon="6.40536">
        <ele>2048.13</ele>
        <time>2018-08-25T06:57:48Z</time>
      </trkpt>
      <trkpt lat="45.03384" lon="6.40552">
        <ele>2049.12</ele>
        <time>2018-08-25T06:57:50Z</time>
      </trkpt>
      <trkpt lat="45.03408" lon="6.40536">
        <ele>2050.05</ele>
        <time>2018-08-25T06:57:51Z</time>
      </trkpt>
      <trkpt lat="45.03431" lon="6.40524">
        <ele>2052.23</ele>
        <time>2018-08-25T06:57:53Z</time>
      </trkpt>
      <trkpt lat="45.03447" lon="6.40509">
        <ele>2054.04</ele>
        <time>2018-08-25T06:57:55Z</time>
      </trkpt>
      <trkpt lat="45.03462" lon="6.40485">
        <ele>2055.43</ele>
        <time>2018-08-25T06:57:59Z</time>
      </trkpt>
      <trkpt lat="45.03479" lon="6.40497">
        <ele>2058.81</ele>
        <time>2018-08-25T07:05:24Z</time>
      </trkpt>
      <trkpt lat="45.03505" lon="6.4051">
        <ele>2061.05</ele>
        <time>2018-08-25T07:05:28Z</time>
      </trkpt>
      <trkpt lat="45.03523" lon="6.40515">
        <ele>2061.41</ele>
        <time>2018-08-25T07:05:30Z</time>
      </trkpt>
      <trkpt lat="45.03543" lon="6.40523">
        <ele>2059.62</ele>
        <time>2018-08-25T07:05:32Z</time>
      </trkpt>
      <trkpt lat="45.03564" lon="6.40538">
        <ele>2060.37</ele>
        <time>2018-08-25T07:05:34Z</time>
      </trkpt>
      <trkpt lat="45.03582" lon="6.40563">
        <ele>2059.04</ele>
        <time>2018-08-25T07:05:36Z</time>
      </trkpt>
      <trkpt lat="45.03602" lon="6.40589">
        <ele>2057.59</ele>
        <time>2018-08-25T07:05:38Z</time>
      </trkpt>
      <trkpt lat="45.03628" lon="6.40607">
        <ele>2056.06</ele>
        <time>2018-08-25T07:05:40Z</time>
      </trkpt>
      <trkpt lat="45.03657" lon="6.4061">
        <ele>2055.71</ele>
        <time>2018-08-25T07:05:42Z</time>
      </trkpt>
      <trkpt lat="45.03685" lon="6.40595">
        <ele>2053.86</ele>
        <time>2018-08-25T07:05:44Z</time>
      </trkpt>
      <trkpt lat="45.03707" lon="6.40566">
        <ele>2051.87</ele>
        <time>2018-08-25T07:05:46Z</time>
      </trkpt>
      <trkpt lat="45.03721" lon="6.40526">
        <ele>2049.87</ele>
        <time>2018-08-25T07:05:48Z</time>
      </trkpt>
      <trkpt lat="45.03737" lon="6.40487">
        <ele>2048.78</ele>
        <time>2018-08-25T07:05:50Z</time>
      </trkpt>
      <trkpt lat="45.03759" lon="6.40456">
        <ele>2047.78</ele>
        <time>2018-08-25T07:05:52Z</time>
      </trkpt>
      <trkpt lat="45.03788" lon="6.40436">
        <ele>2047.47</ele>
        <time>2018-08-25T07:05:54Z</time>
      </trkpt>
      <trkpt lat="45.03824" lon="6.40436">
        <ele>2044.02</ele>
        <time>2018-08-25T07:05:56Z</time>
      </trkpt>
      <trkpt lat="45.03857" lon="6.40453">
        <ele>2041.68</ele>
        <time>2018-08-25T07:05:58Z</time>
      </trkpt>
      <trkpt lat="45.03887" lon="6.40477">
        <ele>2040.56</ele>
        <time>2018-08-25T07:06:00Z</time>
      </trkpt>
      <trkpt lat="45.03915" lon="6.40502">
        <ele>2040.45</ele>
        <time>2018-08-25T07:06:02Z</time>
      </trkpt>
      <trkpt lat="45.0394" lon="6.40534">
        <ele>2038.84</ele>
        <time>2018-08-25T07:06:04Z</time>
      </trkpt>
      <trkpt lat="45.03952" lon="6.40553">
        <ele>2039.26</ele>
        <time>2018-08-25T07:06:05Z</time>
      </trkpt>
      <trkpt lat="45.0396" lon="6.40602">
        <ele>2040.13</ele>
        <time>2018-08-25T07:06:07Z</time>
      </trkpt>
      <trkpt lat="45.03957" lon="6.4065">
        <ele>2037.9</ele>
        <time>2018-08-25T07:06:09Z</time>
      </trkpt>
      <trkpt lat="45.03941" lon="6.40692">
        <ele>2036.3</ele>
        <time>2018-08-25T07:06:11Z</time>
      </trkpt>
      <trkpt lat="45.03923" lon="6.40736">
        <ele>2033.21</ele>
        <time>2018-08-25T07:06:13Z</time>
      </trkpt>
      <trkpt lat="45.03914" lon="6.40759">
        <ele>2031.97</ele>
        <time>2018-08-25T07:06:14Z</time>
      </trkpt>
      <trkpt lat="45.03904" lon="6.40782">
        <ele>2030.9</ele>
        <time>2018-08-25T07:06:15Z</time>
      </trkpt>
      <trkpt lat="45.03896" lon="6.40805">
        <ele>2029.18</ele>
        <time>2018-08-25T07:06:16Z</time>
      </trkpt>
      <trkpt lat="45.03886" lon="6.40828">
        <ele>2028.67</ele>
        <time>2018-08-25T07:06:17Z</time>
      </trkpt>
      <trkpt lat="45.03877" lon="6.40851">
        <ele>2027.11</ele>
        <time>2018-08-25T07:06:18Z</time>
      </trkpt>
      <trkpt lat="45.03869" lon="6.40875">
        <ele>2026.64</ele>
        <time>2018-08-25T07:06:19Z</time>
      </trkpt>
      <trkpt lat="45.0386" lon="6.40899">
        <ele>2025.8</ele>
        <time>2018-08-25T07:06:20Z</time>
      </trkpt>
      <trkpt lat="45.03853" lon="6.40923">
        <ele>2025.55</ele>
        <time>2018-08-25T07:06:21Z</time>
      </trkpt>
      <trkpt lat="45.03849" lon="6.40972">
        <ele>2021.81</ele>
        <time>2018-08-25T07:06:23Z</time>
      </trkpt>
      <trkpt lat="45.03851" lon="6.40998">
        <ele>2020.16</ele>
        <time>2018-08-25T07:06:24Z</time>
      </trkpt>
      <trkpt lat="45.03855" lon="6.41024">
        <ele>2018.96</ele>
        <time>2018-08-25T07:06:25Z</time>
      </trkpt>
      <trkpt lat="45.03861" lon="6.41048">
        <ele>2017.9</ele>
        <time>2018-08-25T07:06:26Z</time>
      </trkpt>
      <trkpt lat="45.03869" lon="6.41073">
        <ele>2017.58</ele>
        <time>2018-08-25T07:06:27Z</time>
      </trkpt>
      <trkpt lat="45.03878" lon="6.41096">
        <ele>2017.49</ele>
        <time>2018-08-25T07:06:28Z</time>
      </trkpt>
      <trkpt lat="45.03887" lon="6.41119">
        <ele>2016.76</ele>
        <time>2018-08-25T07:06:29Z</time>
      </trkpt>
      <trkpt lat="45.03897" lon="6.41141">
        <ele>2015.84</ele>
        <time>2018-08-25T07:06:30Z</time>
      </trkpt>
      <trkpt lat="45.03908" lon="6.41162">
        <ele>2014.86</ele>
        <time>2018-08-25T07:06:31Z</time>
      </trkpt>
      <trkpt lat="45.0392" lon="6.41184">
        <ele>2014.57</ele>
        <time>2018-08-25T07:06:32Z</time>
      </trkpt>
      <trkpt lat="45.03943" lon="6.41225">
        <ele>2011.73</ele>
        <time>2018-08-25T07:06:34Z</time>
      </trkpt>
      <trkpt lat="45.03956" lon="6.41246">
        <ele>2011.53</ele>
        <time>2018-08-25T07:06:35Z</time>
      </trkpt>
      <trkpt lat="45.03969" lon="6.41267">
        <ele>2011.47</ele>
        <time>2018-08-25T07:06:36Z</time>
      </trkpt>
      <trkpt lat="45.03992" lon="6.41307">
        <ele>2011.45</ele>
        <time>2018-08-25T07:06:38Z</time>
      </trkpt>
      <trkpt lat="45.04006" lon="6.41325">
        <ele>2011.45</ele>
        <time>2018-08-25T07:06:39Z</time>
      </trkpt>
      <trkpt lat="45.04019" lon="6.41344">
        <ele>2011.45</ele>
        <time>2018-08-25T07:06:40Z</time>
      </trkpt>
      <trkpt lat="45.04035" lon="6.4136">
        <ele>2011.45</ele>
        <time>2018-08-25T07:06:41Z</time>
      </trkpt>
      <trkpt lat="45.0405" lon="6.41377">
        <ele>2011.45</ele>
        <time>2018-08-25T07:06:42Z</time>
      </trkpt>
      <trkpt lat="45.0408" lon="6.41415">
        <ele>2011.44</ele>
        <time>2018-08-25T07:06:44Z</time>
      </trkpt>
      <trkpt lat="45.04114" lon="6.41434">
        <ele>2011.44</ele>
        <time>2018-08-25T07:06:46Z</time>
      </trkpt>
      <trkpt lat="45.04139" lon="6.41469">
        <ele>2011.44</ele>
        <time>2018-08-25T07:06:48Z</time>
      </trkpt>
      <trkpt lat="45.0415" lon="6.41492">
        <ele>2011.44</ele>
        <time>2018-08-25T07:06:49Z</time>
      </trkpt>
      <trkpt lat="45.04153" lon="6.41518">
        <ele>2011.44</ele>
        <time>2018-08-25T07:06:50Z</time>
      </trkpt>
      <trkpt lat="45.04188" lon="6.41513">
        <ele>2011.44</ele>
        <time>2018-08-25T07:06:51Z</time>
      </trkpt>
      <trkpt lat="45.04217" lon="6.41536">
        <ele>2006.33</ele>
        <time>2018-08-25T07:06:53Z</time>
      </trkpt>
      <trkpt lat="45.04239" lon="6.41574">
        <ele>2003.5</ele>
        <time>2018-08-25T07:06:55Z</time>
      </trkpt>
      <trkpt lat="45.04258" lon="6.41615">
        <ele>1998.62</ele>
        <time>2018-08-25T07:06:57Z</time>
      </trkpt>
      <trkpt lat="45.04274" lon="6.41654">
        <ele>1994.33</ele>
        <time>2018-08-25T07:06:59Z</time>
      </trkpt>
      <trkpt lat="45.0428" lon="6.41691">
        <ele>1991.21</ele>
        <time>2018-08-25T07:07:01Z</time>
      </trkpt>
      <trkpt lat="45.04275" lon="6.41725">
        <ele>1988.69</ele>
        <time>2018-08-25T07:07:03Z</time>
      </trkpt>
      <trkpt lat="45.04255" lon="6.41746">
        <ele>1986.86</ele>
        <time>2018-08-25T07:07:05Z</time>
      </trkpt>
      <trkpt lat="45.04236" lon="6.41766">
        <ele>1985.57</ele>
        <time>2018-08-25T07:07:07Z</time>
      </trkpt>
      <trkpt lat="45.04216" lon="6.41784">
        <ele>1983.85</ele>
        <time>2018-08-25T07:07:09Z</time>
      </trkpt>
      <trkpt lat="45.04196" lon="6.41807">
        <ele>1983.48</ele>
        <time>2018-08-25T07:07:11Z</time>
      </trkpt>
      <trkpt lat="45.04179" lon="6.4184">
        <ele>1981.84</ele>
        <time>2018-08-25T07:07:13Z</time>
      </trkpt>
      <trkpt lat="45.04163" lon="6.4188">
        <ele>1980.78</ele>
        <time>2018-08-25T07:07:15Z</time>
      </trkpt>
      <trkpt lat="45.04155" lon="6.41927">
        <ele>1976.35</ele>
        <time>2018-08-25T07:07:17Z</time>
      </trkpt>
      <trkpt lat="45.04153" lon="6.41954">
        <ele>1975.02</ele>
        <time>2018-08-25T07:07:18Z</time>
      </trkpt>
      <trkpt lat="45.04151" lon="6.41982">
        <ele>1973.92</ele>
        <time>2018-08-25T07:07:19Z</time>
      </trkpt>
      <trkpt lat="45.0415" lon="6.4201">
        <ele>1972.19</ele>
        <time>2018-08-25T07:07:20Z</time>
      </trkpt>
      <trkpt lat="45.0415" lon="6.42039">
        <ele>1971.67</ele>
        <time>2018-08-25T07:07:21Z</time>
      </trkpt>
      <trkpt lat="45.0415" lon="6.42066">
        <ele>1970.81</ele>
        <time>2018-08-25T07:07:22Z</time>
      </trkpt>
      <trkpt lat="45.04154" lon="6.42094">
        <ele>1969.85</ele>
        <time>2018-08-25T07:07:23Z</time>
      </trkpt>
      <trkpt lat="45.04158" lon="6.42121">
        <ele>1968.17</ele>
        <time>2018-08-25T07:07:24Z</time>
      </trkpt>
      <trkpt lat="45.04164" lon="6.42146">
        <ele>1966.96</ele>
        <time>2018-08-25T07:07:25Z</time>
      </trkpt>
      <trkpt lat="45.04178" lon="6.42187">
        <ele>1966.49</ele>
        <time>2018-08-25T07:07:27Z</time>
      </trkpt>
      <trkpt lat="45.0419" lon="6.42214">
        <ele>1964.84</ele>
        <time>2018-08-25T07:07:29Z</time>
      </trkpt>
      <trkpt lat="45.04219" lon="6.42206">
        <ele>1958.37</ele>
        <time>2018-08-25T07:07:32Z</time>
      </trkpt>
      <trkpt lat="45.04243" lon="6.4219">
        <ele>1956.62</ele>
        <time>2018-08-25T07:07:34Z</time>
      </trkpt>
      <trkpt lat="45.04265" lon="6.42171">
        <ele>1957.2</ele>
        <time>2018-08-25T07:07:35Z</time>
      </trkpt>
      <trkpt lat="45.04285" lon="6.42173">
        <ele>1955.27</ele>
        <time>2018-08-25T07:07:36Z</time>
      </trkpt>
      <trkpt lat="45.04313" lon="6.42176">
        <ele>1951.51</ele>
        <time>2018-08-25T07:07:38Z</time>
      </trkpt>
      <trkpt lat="45.04334" lon="6.42205">
        <ele>1948.93</ele>
        <time>2018-08-25T07:07:40Z</time>
      </trkpt>
      <trkpt lat="45.0433" lon="6.42241">
        <ele>1947.89</ele>
        <time>2018-08-25T07:07:41Z</time>
      </trkpt>
      <trkpt lat="45.04329" lon="6.42276">
        <ele>1946.88</ele>
        <time>2018-08-25T07:07:42Z</time>
      </trkpt>
      <trkpt lat="45.04319" lon="6.42321">
        <ele>1946.58</ele>
        <time>2018-08-25T07:07:43Z</time>
      </trkpt>
      <trkpt lat="45.04317" lon="6.42354">
        <ele>1943.68</ele>
        <time>2018-08-25T07:07:44Z</time>
      </trkpt>
      <trkpt lat="45.04313" lon="6.42385">
        <ele>1942.82</ele>
        <time>2018-08-25T07:07:45Z</time>
      </trkpt>
      <trkpt lat="45.04307" lon="6.42416">
        <ele>1941.86</ele>
        <time>2018-08-25T07:07:46Z</time>
      </trkpt>
      <trkpt lat="45.043" lon="6.42446">
        <ele>1940.87</ele>
        <time>2018-08-25T07:07:47Z</time>
      </trkpt>
      <trkpt lat="45.04295" lon="6.42476">
        <ele>1940.57</ele>
        <time>2018-08-25T07:07:48Z</time>
      </trkpt>
      <trkpt lat="45.0429" lon="6.42505">
        <ele>1939.08</ele>
        <time>2018-08-25T07:07:49Z</time>
      </trkpt>
      <trkpt lat="45.04285" lon="6.42533">
        <ele>1937.94</ele>
        <time>2018-08-25T07:07:50Z</time>
      </trkpt>
      <trkpt lat="45.04279" lon="6.42561">
        <ele>1936.89</ele>
        <time>2018-08-25T07:07:51Z</time>
      </trkpt>
      <trkpt lat="45.04273" lon="6.42587">
        <ele>1935.18</ele>
        <time>2018-08-25T07:07:52Z</time>
      </trkpt>
      <trkpt lat="45.04268" lon="6.42612">
        <ele>1933.97</ele>
        <time>2018-08-25T07:07:53Z</time>
      </trkpt>
      <trkpt lat="45.0426" lon="6.42636">
        <ele>1932.9</ele>
        <time>2018-08-25T07:07:54Z</time>
      </trkpt>
      <trkpt lat="45.04242" lon="6.42654">
        <ele>1932.58</ele>
        <time>2018-08-25T07:07:55Z</time>
      </trkpt>
      <trkpt lat="45.04227" lon="6.42671">
        <ele>1931.79</ele>
        <time>2018-08-25T07:07:56Z</time>
      </trkpt>
      <trkpt lat="45.0421" lon="6.42685">
        <ele>1930.85</ele>
        <time>2018-08-25T07:07:57Z</time>
      </trkpt>
      <trkpt lat="45.04192" lon="6.427">
        <ele>1929.87</ele>
        <time>2018-08-25T07:07:58Z</time>
      </trkpt>
      <trkpt lat="45.04175" lon="6.42715">
        <ele>1927.47</ele>
        <time>2018-08-25T07:07:59Z</time>
      </trkpt>
      <trkpt lat="45.04156" lon="6.42725">
        <ele>1925.35</ele>
        <time>2018-08-25T07:08:00Z</time>
      </trkpt>
      <trkpt lat="45.04137" lon="6.42736">
        <ele>1924.02</ele>
        <time>2018-08-25T07:08:01Z</time>
      </trkpt>
      <trkpt lat="45.04119" lon="6.42748">
        <ele>1922.92</ele>
        <time>2018-08-25T07:08:02Z</time>
      </trkpt>
      <trkpt lat="45.04102" lon="6.42766">
        <ele>1922.59</ele>
        <time>2018-08-25T07:08:03Z</time>
      </trkpt>
      <trkpt lat="45.04086" lon="6.42783">
        <ele>1921.79</ele>
        <time>2018-08-25T07:08:04Z</time>
      </trkpt>
      <trkpt lat="45.0407" lon="6.42802">
        <ele>1920.85</ele>
        <time>2018-08-25T07:08:05Z</time>
      </trkpt>
      <trkpt lat="45.04055" lon="6.42822">
        <ele>1920.57</ele>
        <time>2018-08-25T07:08:06Z</time>
      </trkpt>
      <trkpt lat="45.04043" lon="6.42849">
        <ele>1918.38</ele>
        <time>2018-08-25T07:08:07Z</time>
      </trkpt>
      <trkpt lat="45.0403" lon="6.42873">
        <ele>1915.63</ele>
        <time>2018-08-25T07:08:08Z</time>
      </trkpt>
      <trkpt lat="45.0402" lon="6.42898">
        <ele>1913.4</ele>
        <time>2018-08-25T07:08:09Z</time>
      </trkpt>
      <trkpt lat="45.04009" lon="6.42925">
        <ele>1912.03</ele>
        <time>2018-08-25T07:08:10Z</time>
      </trkpt>
      <trkpt lat="45.04" lon="6.42953">
        <ele>1911.62</ele>
        <time>2018-08-25T07:08:11Z</time>
      </trkpt>
      <trkpt lat="45.03994" lon="6.42983">
        <ele>1910.1</ele>
        <time>2018-08-25T07:08:12Z</time>
      </trkpt>
      <trkpt lat="45.03988" lon="6.43012">
        <ele>1907.54</ele>
        <time>2018-08-25T07:08:13Z</time>
      </trkpt>
      <trkpt lat="45.03983" lon="6.43043">
        <ele>1905.37</ele>
        <time>2018-08-25T07:08:14Z</time>
      </trkpt>
      <trkpt lat="45.03977" lon="6.43074">
        <ele>1903.32</ele>
        <time>2018-08-25T07:08:15Z</time>
      </trkpt>
      <trkpt lat="45.03972" lon="6.43104">
        <ele>1902.01</ele>
        <time>2018-08-25T07:08:16Z</time>
      </trkpt>
      <trkpt lat="45.03964" lon="6.43133">
        <ele>1900.91</ele>
        <time>2018-08-25T07:08:17Z</time>
      </trkpt>
      <trkpt lat="45.03955" lon="6.43162">
        <ele>1900.59</ele>
        <time>2018-08-25T07:08:18Z</time>
      </trkpt>
      <trkpt lat="45.03944" lon="6.43189">
        <ele>1900.49</ele>
        <time>2018-08-25T07:08:19Z</time>
      </trkpt>
      <trkpt lat="45.03932" lon="6.43215">
        <ele>1900.46</ele>
        <time>2018-08-25T07:08:20Z</time>
      </trkpt>
      <trkpt lat="45.03917" lon="6.4324">
        <ele>1898.35</ele>
        <time>2018-08-25T07:08:21Z</time>
      </trkpt>
      <trkpt lat="45.039" lon="6.43261">
        <ele>1897.02</ele>
        <time>2018-08-25T07:08:22Z</time>
      </trkpt>
      <trkpt lat="45.03882" lon="6.4328">
        <ele>1895.92</ele>
        <time>2018-08-25T07:08:23Z</time>
      </trkpt>
      <trkpt lat="45.03864" lon="6.433">
        <ele>1894.89</ele>
        <time>2018-08-25T07:08:24Z</time>
      </trkpt>
      <trkpt lat="45.03845" lon="6.43318">
        <ele>1892.48</ele>
        <time>2018-08-25T07:08:25Z</time>
      </trkpt>
      <trkpt lat="45.03827" lon="6.43338">
        <ele>1891.05</ele>
        <time>2018-08-25T07:08:26Z</time>
      </trkpt>
      <trkpt lat="45.03809" lon="6.43358">
        <ele>1889.23</ele>
        <time>2018-08-25T07:08:27Z</time>
      </trkpt>
      <trkpt lat="45.03793" lon="6.4338">
        <ele>1887.28</ele>
        <time>2018-08-25T07:08:28Z</time>
      </trkpt>
      <trkpt lat="45.03776" lon="6.43402">
        <ele>1884.6</ele>
        <time>2018-08-25T07:08:29Z</time>
      </trkpt>
      <trkpt lat="45.03758" lon="6.43422">
        <ele>1882.39</ele>
        <time>2018-08-25T07:08:30Z</time>
      </trkpt>
      <trkpt lat="45.0374" lon="6.43441">
        <ele>1881.03</ele>
        <time>2018-08-25T07:08:31Z</time>
      </trkpt>
      <trkpt lat="45.03721" lon="6.4346">
        <ele>1879.92</ele>
        <time>2018-08-25T07:08:32Z</time>
      </trkpt>
      <trkpt lat="45.03704" lon="6.4348">
        <ele>1878.19</ele>
        <time>2018-08-25T07:08:33Z</time>
      </trkpt>
      <trkpt lat="45.03687" lon="6.43502">
        <ele>1876.27</ele>
        <time>2018-08-25T07:08:34Z</time>
      </trkpt>
      <trkpt lat="45.03671" lon="6.43525">
        <ele>1875.69</ele>
        <time>2018-08-25T07:08:35Z</time>
      </trkpt>
      <trkpt lat="45.03655" lon="6.4355">
        <ele>1874.82</ele>
        <time>2018-08-25T07:08:36Z</time>
      </trkpt>
      <trkpt lat="45.03641" lon="6.43576">
        <ele>1873.16</ele>
        <time>2018-08-25T07:08:37Z</time>
      </trkpt>
      <trkpt lat="45.03626" lon="6.43603">
        <ele>1871.26</ele>
        <time>2018-08-25T07:08:38Z</time>
      </trkpt>
      <trkpt lat="45.03612" lon="6.4363">
        <ele>1869.29</ele>
        <time>2018-08-25T07:08:39Z</time>
      </trkpt>
      <trkpt lat="45.03597" lon="6.43656">
        <ele>1868</ele>
        <time>2018-08-25T07:08:40Z</time>
      </trkpt>
      <trkpt lat="45.03581" lon="6.4368">
        <ele>1866.91</ele>
        <time>2018-08-25T07:08:41Z</time>
      </trkpt>
      <trkpt lat="45.03564" lon="6.43702">
        <ele>1865.18</ele>
        <time>2018-08-25T07:08:42Z</time>
      </trkpt>
      <trkpt lat="45.03546" lon="6.43722">
        <ele>1863.97</ele>
        <time>2018-08-25T07:08:43Z</time>
      </trkpt>
      <trkpt lat="45.03527" lon="6.4374">
        <ele>1862.9</ele>
        <time>2018-08-25T07:08:44Z</time>
      </trkpt>
      <trkpt lat="45.03508" lon="6.43757">
        <ele>1861.88</ele>
        <time>2018-08-25T07:08:45Z</time>
      </trkpt>
      <trkpt lat="45.0349" lon="6.43773">
        <ele>1860.18</ele>
        <time>2018-08-25T07:08:46Z</time>
      </trkpt>
      <trkpt lat="45.03472" lon="6.43789">
        <ele>1859.66</ele>
        <time>2018-08-25T07:08:47Z</time>
      </trkpt>
      <trkpt lat="45.03454" lon="6.43805">
        <ele>1859.51</ele>
        <time>2018-08-25T07:08:48Z</time>
      </trkpt>
      <trkpt lat="45.03435" lon="6.4382">
        <ele>1858.06</ele>
        <time>2018-08-25T07:08:49Z</time>
      </trkpt>
      <trkpt lat="45.03418" lon="6.43836">
        <ele>1856.93</ele>
        <time>2018-08-25T07:08:50Z</time>
      </trkpt>
      <trkpt lat="45.03401" lon="6.43852">
        <ele>1855.19</ele>
        <time>2018-08-25T07:08:51Z</time>
      </trkpt>
      <trkpt lat="45.03384" lon="6.4387">
        <ele>1854.67</ele>
        <time>2018-08-25T07:08:52Z</time>
      </trkpt>
      <trkpt lat="45.03366" lon="6.43888">
        <ele>1853.11</ele>
        <time>2018-08-25T07:08:53Z</time>
      </trkpt>
      <trkpt lat="45.03349" lon="6.43907">
        <ele>1851.95</ele>
        <time>2018-08-25T07:08:54Z</time>
      </trkpt>
      <trkpt lat="45.03332" lon="6.43927">
        <ele>1850.9</ele>
        <time>2018-08-25T07:08:55Z</time>
      </trkpt>
      <trkpt lat="45.03314" lon="6.43948">
        <ele>1849.88</ele>
        <time>2018-08-25T07:08:56Z</time>
      </trkpt>
      <trkpt lat="45.03296" lon="6.43967">
        <ele>1848.88</ele>
        <time>2018-08-25T07:08:57Z</time>
      </trkpt>
      <trkpt lat="45.03278" lon="6.43987">
        <ele>1847.17</ele>
        <time>2018-08-25T07:08:58Z</time>
      </trkpt>
      <trkpt lat="45.0326" lon="6.44008">
        <ele>1845.96</ele>
        <time>2018-08-25T07:08:59Z</time>
      </trkpt>
      <trkpt lat="45.03242" lon="6.44029">
        <ele>1844.2</ele>
        <time>2018-08-25T07:09:00Z</time>
      </trkpt>
      <trkpt lat="45.03225" lon="6.4405">
        <ele>1842.97</ele>
        <time>2018-08-25T07:09:01Z</time>
      </trkpt>
      <trkpt lat="45.03207" lon="6.44072">
        <ele>1841.9</ele>
        <time>2018-08-25T07:09:02Z</time>
      </trkpt>
      <trkpt lat="45.0319" lon="6.44093">
        <ele>1840.18</ele>
        <time>2018-08-25T07:09:03Z</time>
      </trkpt>
      <trkpt lat="45.03173" lon="6.44116">
        <ele>1838.97</ele>
        <time>2018-08-25T07:09:04Z</time>
      </trkpt>
      <trkpt lat="45.03158" lon="6.44139">
        <ele>1837.9</ele>
        <time>2018-08-25T07:09:05Z</time>
      </trkpt>
      <trkpt lat="45.03143" lon="6.44163">
        <ele>1836.88</ele>
        <time>2018-08-25T07:09:06Z</time>
      </trkpt>
      <trkpt lat="45.03129" lon="6.44188">
        <ele>1835.18</ele>
        <time>2018-08-25T07:09:07Z</time>
      </trkpt>
      <trkpt lat="45.03116" lon="6.44214">
        <ele>1833.96</ele>
        <time>2018-08-25T07:09:08Z</time>
      </trkpt>
      <trkpt lat="45.03104" lon="6.4424">
        <ele>1832.2</ele>
        <time>2018-08-25T07:09:09Z</time>
      </trkpt>
      <trkpt lat="45.03092" lon="6.44266">
        <ele>1830.97</ele>
        <time>2018-08-25T07:09:10Z</time>
      </trkpt>
      <trkpt lat="45.03081" lon="6.44293">
        <ele>1829.9</ele>
        <time>2018-08-25T07:09:11Z</time>
      </trkpt>
      <trkpt lat="45.0307" lon="6.4432">
        <ele>1828.18</ele>
        <time>2018-08-25T07:09:12Z</time>
      </trkpt>
      <trkpt lat="45.0306" lon="6.44347">
        <ele>1826.97</ele>
        <time>2018-08-25T07:09:13Z</time>
      </trkpt>
      <trkpt lat="45.03051" lon="6.44374">
        <ele>1825.2</ele>
        <time>2018-08-25T07:09:14Z</time>
      </trkpt>
      <trkpt lat="45.0304" lon="6.44401">
        <ele>1823.97</ele>
        <time>2018-08-25T07:09:15Z</time>
      </trkpt>
      <trkpt lat="45.03029" lon="6.44427">
        <ele>1822.9</ele>
        <time>2018-08-25T07:09:16Z</time>
      </trkpt>
      <trkpt lat="45.03017" lon="6.4445">
        <ele>1822.58</ele>
        <time>2018-08-25T07:09:17Z</time>
      </trkpt>
      <trkpt lat="45.03002" lon="6.44471">
        <ele>1821.79</ele>
        <time>2018-08-25T07:09:18Z</time>
      </trkpt>
      <trkpt lat="45.02987" lon="6.44491">
        <ele>1820.85</ele>
        <time>2018-08-25T07:09:19Z</time>
      </trkpt>
      <trkpt lat="45.02971" lon="6.4451">
        <ele>1819.87</ele>
        <time>2018-08-25T07:09:20Z</time>
      </trkpt>
      <trkpt lat="45.02956" lon="6.4453">
        <ele>1818.87</ele>
        <time>2018-08-25T07:09:21Z</time>
      </trkpt>
      <trkpt lat="45.02942" lon="6.44551">
        <ele>1817.87</ele>
        <time>2018-08-25T07:09:22Z</time>
      </trkpt>
      <trkpt lat="45.02928" lon="6.44574">
        <ele>1816.87</ele>
        <time>2018-08-25T07:09:23Z</time>
      </trkpt>
      <trkpt lat="45.02914" lon="6.44597">
        <ele>1816.57</ele>
        <time>2018-08-25T07:09:24Z</time>
      </trkpt>
      <trkpt lat="45.02905" lon="6.44624">
        <ele>1815.08</ele>
        <time>2018-08-25T07:09:25Z</time>
      </trkpt>
      <trkpt lat="45.02895" lon="6.4465">
        <ele>1813.24</ele>
        <time>2018-08-25T07:09:26Z</time>
      </trkpt>
      <trkpt lat="45.02884" lon="6.44675">
        <ele>1812.68</ele>
        <time>2018-08-25T07:09:27Z</time>
      </trkpt>
      <trkpt lat="45.02872" lon="6.447">
        <ele>1811.82</ele>
        <time>2018-08-25T07:09:28Z</time>
      </trkpt>
      <trkpt lat="45.02855" lon="6.44719">
        <ele>1810.86</ele>
        <time>2018-08-25T07:09:29Z</time>
      </trkpt>
      <trkpt lat="45.02837" lon="6.44737">
        <ele>1810.57</ele>
        <time>2018-08-25T07:09:30Z</time>
      </trkpt>
      <trkpt lat="45.0282" lon="6.44753">
        <ele>1809.78</ele>
        <time>2018-08-25T07:09:31Z</time>
      </trkpt>
      <trkpt lat="45.02801" lon="6.4477">
        <ele>1808.85</ele>
        <time>2018-08-25T07:09:32Z</time>
      </trkpt>
      <trkpt lat="45.02782" lon="6.44787">
        <ele>1807.17</ele>
        <time>2018-08-25T07:09:33Z</time>
      </trkpt>
      <trkpt lat="45.02765" lon="6.44805">
        <ele>1805.96</ele>
        <time>2018-08-25T07:09:34Z</time>
      </trkpt>
      <trkpt lat="45.02749" lon="6.44827">
        <ele>1804.9</ele>
        <time>2018-08-25T07:09:35Z</time>
      </trkpt>
      <trkpt lat="45.02733" lon="6.44848">
        <ele>1803.18</ele>
        <time>2018-08-25T07:09:36Z</time>
      </trkpt>
      <trkpt lat="45.02719" lon="6.44868">
        <ele>1801.97</ele>
        <time>2018-08-25T07:09:37Z</time>
      </trkpt>
      <trkpt lat="45.02704" lon="6.44888">
        <ele>1800.9</ele>
        <time>2018-08-25T07:09:38Z</time>
      </trkpt>
      <trkpt lat="45.02688" lon="6.44909">
        <ele>1799.18</ele>
        <time>2018-08-25T07:09:39Z</time>
      </trkpt>
      <trkpt lat="45.02673" lon="6.44929">
        <ele>1797.97</ele>
        <time>2018-08-25T07:09:40Z</time>
      </trkpt>
      <trkpt lat="45.02658" lon="6.44951">
        <ele>1796.9</ele>
        <time>2018-08-25T07:09:41Z</time>
      </trkpt>
      <trkpt lat="45.02643" lon="6.44974">
        <ele>1795.88</ele>
        <time>2018-08-25T07:09:42Z</time>
      </trkpt>
      <trkpt lat="45.02628" lon="6.44997">
        <ele>1794.18</ele>
        <time>2018-08-25T07:09:43Z</time>
      </trkpt>
      <trkpt lat="45.02614" lon="6.4502">
        <ele>1792.96</ele>
        <time>2018-08-25T07:09:44Z</time>
      </trkpt>
      <trkpt lat="45.026" lon="6.45043">
        <ele>1791.9</ele>
        <time>2018-08-25T07:09:45Z</time>
      </trkpt>
      <trkpt lat="45.02587" lon="6.45066">
        <ele>1790.88</ele>
        <time>2018-08-25T07:09:46Z</time>
      </trkpt>
      <trkpt lat="45.02575" lon="6.4509">
        <ele>1789.88</ele>
        <time>2018-08-25T07:09:47Z</time>
      </trkpt>
      <trkpt lat="45.02562" lon="6.45113">
        <ele>1788.17</ele>
        <time>2018-08-25T07:09:48Z</time>
      </trkpt>
      <trkpt lat="45.02551" lon="6.45136">
        <ele>1786.26</ele>
        <time>2018-08-25T07:09:49Z</time>
      </trkpt>
      <trkpt lat="45.0254" lon="6.4516">
        <ele>1784.99</ele>
        <time>2018-08-25T07:09:50Z</time>
      </trkpt>
      <trkpt lat="45.02529" lon="6.45185">
        <ele>1783.21</ele>
        <time>2018-08-25T07:09:51Z</time>
      </trkpt>
      <trkpt lat="45.02519" lon="6.45211">
        <ele>1781.97</ele>
        <time>2018-08-25T07:09:52Z</time>
      </trkpt>
      <trkpt lat="45.0251" lon="6.45238">
        <ele>1781.6</ele>
        <time>2018-08-25T07:09:53Z</time>
      </trkpt>
      <trkpt lat="45.02503" lon="6.45265">
        <ele>1780.09</ele>
        <time>2018-08-25T07:09:54Z</time>
      </trkpt>
      <trkpt lat="45.02494" lon="6.45292">
        <ele>1778.94</ele>
        <time>2018-08-25T07:09:55Z</time>
      </trkpt>
      <trkpt lat="45.02484" lon="6.45317">
        <ele>1777.89</ele>
        <time>2018-08-25T07:09:56Z</time>
      </trkpt>
      <trkpt lat="45.02473" lon="6.45342">
        <ele>1776.18</ele>
        <time>2018-08-25T07:09:57Z</time>
      </trkpt>
      <trkpt lat="45.02462" lon="6.45365">
        <ele>1774.97</ele>
        <time>2018-08-25T07:09:58Z</time>
      </trkpt>
      <trkpt lat="45.02452" lon="6.4539">
        <ele>1773.2</ele>
        <time>2018-08-25T07:09:59Z</time>
      </trkpt>
      <trkpt lat="45.02442" lon="6.45414">
        <ele>1771.97</ele>
        <time>2018-08-25T07:10:00Z</time>
      </trkpt>
      <trkpt lat="45.02431" lon="6.45437">
        <ele>1770.9</ele>
        <time>2018-08-25T07:10:01Z</time>
      </trkpt>
      <trkpt lat="45.02418" lon="6.45458">
        <ele>1769.88</ele>
        <time>2018-08-25T07:10:02Z</time>
      </trkpt>
      <trkpt lat="45.02404" lon="6.45478">
        <ele>1769.58</ele>
        <time>2018-08-25T07:10:03Z</time>
      </trkpt>
      <trkpt lat="45.0239" lon="6.45497">
        <ele>1768.08</ele>
        <time>2018-08-25T07:10:04Z</time>
      </trkpt>
      <trkpt lat="45.02376" lon="6.45518">
        <ele>1766.94</ele>
        <time>2018-08-25T07:10:05Z</time>
      </trkpt>
      <trkpt lat="45.02362" lon="6.45538">
        <ele>1765.19</ele>
        <time>2018-08-25T07:10:06Z</time>
      </trkpt>
      <trkpt lat="45.02348" lon="6.4556">
        <ele>1763.27</ele>
        <time>2018-08-25T07:10:07Z</time>
      </trkpt>
      <trkpt lat="45.02335" lon="6.45582">
        <ele>1761.99</ele>
        <time>2018-08-25T07:10:08Z</time>
      </trkpt>
      <trkpt lat="45.02322" lon="6.45604">
        <ele>1760.91</ele>
        <time>2018-08-25T07:10:09Z</time>
      </trkpt>
      <trkpt lat="45.02307" lon="6.45622">
        <ele>1759.18</ele>
        <time>2018-08-25T07:10:10Z</time>
      </trkpt>
      <trkpt lat="45.0229" lon="6.45638">
        <ele>1758.67</ele>
        <time>2018-08-25T07:10:11Z</time>
      </trkpt>
      <trkpt lat="45.02273" lon="6.45653">
        <ele>1757.81</ele>
        <time>2018-08-25T07:10:12Z</time>
      </trkpt>
      <trkpt lat="45.02256" lon="6.45671">
        <ele>1757.55</ele>
        <time>2018-08-25T07:10:13Z</time>
      </trkpt>
      <trkpt lat="45.02242" lon="6.4569">
        <ele>1756.08</ele>
        <time>2018-08-25T07:10:14Z</time>
      </trkpt>
      <trkpt lat="45.02227" lon="6.45711">
        <ele>1754.93</ele>
        <time>2018-08-25T07:10:15Z</time>
      </trkpt>
      <trkpt lat="45.02214" lon="6.45733">
        <ele>1753.89</ele>
        <time>2018-08-25T07:10:16Z</time>
      </trkpt>
      <trkpt lat="45.02203" lon="6.45757">
        <ele>1752.88</ele>
        <time>2018-08-25T07:10:17Z</time>
      </trkpt>
      <trkpt lat="45.02192" lon="6.45782">
        <ele>1751.18</ele>
        <time>2018-08-25T07:10:18Z</time>
      </trkpt>
      <trkpt lat="45.02181" lon="6.45807">
        <ele>1749.26</ele>
        <time>2018-08-25T07:10:19Z</time>
      </trkpt>
      <trkpt lat="45.02171" lon="6.45832">
        <ele>1748.69</ele>
        <time>2018-08-25T07:10:20Z</time>
      </trkpt>
      <trkpt lat="45.0216" lon="6.45855">
        <ele>1749.22</ele>
        <time>2018-08-25T07:10:21Z</time>
      </trkpt>
      <trkpt lat="45.02149" lon="6.45878">
        <ele>1748.68</ele>
        <time>2018-08-25T07:10:22Z</time>
      </trkpt>
      <trkpt lat="45.02136" lon="6.459">
        <ele>1747.81</ele>
        <time>2018-08-25T07:10:23Z</time>
      </trkpt>
      <trkpt lat="45.02123" lon="6.45922">
        <ele>1747.56</ele>
        <time>2018-08-25T07:10:24Z</time>
      </trkpt>
      <trkpt lat="45.02111" lon="6.45944">
        <ele>1746.78</ele>
        <time>2018-08-25T07:10:25Z</time>
      </trkpt>
      <trkpt lat="45.021" lon="6.45968">
        <ele>1745.84</ele>
        <time>2018-08-25T07:10:26Z</time>
      </trkpt>
      <trkpt lat="45.02091" lon="6.45994">
        <ele>1744.86</ele>
        <time>2018-08-25T07:10:27Z</time>
      </trkpt>
      <trkpt lat="45.02081" lon="6.4602">
        <ele>1743.17</ele>
        <time>2018-08-25T07:10:28Z</time>
      </trkpt>
      <trkpt lat="45.02071" lon="6.46045">
        <ele>1741.96</ele>
        <time>2018-08-25T07:10:29Z</time>
      </trkpt>
      <trkpt lat="45.02062" lon="6.46071">
        <ele>1740.2</ele>
        <time>2018-08-25T07:10:30Z</time>
      </trkpt>
      <trkpt lat="45.02053" lon="6.46097">
        <ele>1738.97</ele>
        <time>2018-08-25T07:10:31Z</time>
      </trkpt>
      <trkpt lat="45.02045" lon="6.46123">
        <ele>1738.6</ele>
        <time>2018-08-25T07:10:32Z</time>
      </trkpt>
      <trkpt lat="45.02039" lon="6.4615">
        <ele>1737.79</ele>
        <time>2018-08-25T07:10:33Z</time>
      </trkpt>
      <trkpt lat="45.02033" lon="6.46178">
        <ele>1736.15</ele>
        <time>2018-08-25T07:10:34Z</time>
      </trkpt>
      <trkpt lat="45.02025" lon="6.46204">
        <ele>1735.66</ele>
        <time>2018-08-25T07:10:35Z</time>
      </trkpt>
      <trkpt lat="45.02016" lon="6.46229">
        <ele>1734.81</ele>
        <time>2018-08-25T07:10:36Z</time>
      </trkpt>
      <trkpt lat="45.02006" lon="6.46254">
        <ele>1733.15</ele>
        <time>2018-08-25T07:10:37Z</time>
      </trkpt>
      <trkpt lat="45.01995" lon="6.46278">
        <ele>1731.96</ele>
        <time>2018-08-25T07:10:38Z</time>
      </trkpt>
      <trkpt lat="45.01981" lon="6.46301">
        <ele>1729.5</ele>
        <time>2018-08-25T07:10:39Z</time>
      </trkpt>
      <trkpt lat="45.01966" lon="6.46321">
        <ele>1727.36</ele>
        <time>2018-08-25T07:10:40Z</time>
      </trkpt>
      <trkpt lat="45.0195" lon="6.46338">
        <ele>1726.02</ele>
        <time>2018-08-25T07:10:41Z</time>
      </trkpt>
      <trkpt lat="45.01934" lon="6.46354">
        <ele>1724.92</ele>
        <time>2018-08-25T07:10:42Z</time>
      </trkpt>
      <trkpt lat="45.01919" lon="6.4637">
        <ele>1723.19</ele>
        <time>2018-08-25T07:10:43Z</time>
      </trkpt>
      <trkpt lat="45.01904" lon="6.46387">
        <ele>1722.67</ele>
        <time>2018-08-25T07:10:44Z</time>
      </trkpt>
      <trkpt lat="45.01892" lon="6.46407">
        <ele>1721.81</ele>
        <time>2018-08-25T07:10:45Z</time>
      </trkpt>
      <trkpt lat="45.0188" lon="6.46428">
        <ele>1720.16</ele>
        <time>2018-08-25T07:10:46Z</time>
      </trkpt>
      <trkpt lat="45.01869" lon="6.46449">
        <ele>1720.36</ele>
        <time>2018-08-25T07:10:47Z</time>
      </trkpt>
      <trkpt lat="45.0186" lon="6.46495">
        <ele>1721.14</ele>
        <time>2018-08-25T07:10:49Z</time>
      </trkpt>
      <trkpt lat="45.01857" lon="6.4654">
        <ele>1718.62</ele>
        <time>2018-08-25T07:10:51Z</time>
      </trkpt>
      <trkpt lat="45.01838" lon="6.46571">
        <ele>1715.24</ele>
        <time>2018-08-25T07:10:53Z</time>
      </trkpt>
      <trkpt lat="45.01813" lon="6.46595">
        <ele>1712</ele>
        <time>2018-08-25T07:10:55Z</time>
      </trkpt>
      <trkpt lat="45.01791" lon="6.46606">
        <ele>1708.97</ele>
        <time>2018-08-25T07:10:57Z</time>
      </trkpt>
      <trkpt lat="45.01765" lon="6.46596">
        <ele>1707.58</ele>
        <time>2018-08-25T07:10:59Z</time>
      </trkpt>
      <trkpt lat="45.01733" lon="6.46575">
        <ele>1707.46</ele>
        <time>2018-08-25T07:11:01Z</time>
      </trkpt>
      <trkpt lat="45.01715" lon="6.46567">
        <ele>1707.45</ele>
        <time>2018-08-25T07:11:02Z</time>
      </trkpt>
      <trkpt lat="45.01696" lon="6.46559">
        <ele>1707.45</ele>
        <time>2018-08-25T07:11:03Z</time>
      </trkpt>
      <trkpt lat="45.01678" lon="6.46549">
        <ele>1706.75</ele>
        <time>2018-08-25T07:11:04Z</time>
      </trkpt>
      <trkpt lat="45.01659" lon="6.46539">
        <ele>1706.54</ele>
        <time>2018-08-25T07:11:05Z</time>
      </trkpt>
      <trkpt lat="45.01641" lon="6.46531">
        <ele>1705.77</ele>
        <time>2018-08-25T07:11:06Z</time>
      </trkpt>
      <trkpt lat="45.01622" lon="6.46529">
        <ele>1704.14</ele>
        <time>2018-08-25T07:11:07Z</time>
      </trkpt>
      <trkpt lat="45.01602" lon="6.46531">
        <ele>1702.25</ele>
        <time>2018-08-25T07:11:08Z</time>
      </trkpt>
      <trkpt lat="45.01583" lon="6.46539">
        <ele>1700.29</ele>
        <time>2018-08-25T07:11:09Z</time>
      </trkpt>
      <trkpt lat="45.01566" lon="6.46551">
        <ele>1698.3</ele>
        <time>2018-08-25T07:11:10Z</time>
      </trkpt>
      <trkpt lat="45.01549" lon="6.46566">
        <ele>1697</ele>
        <time>2018-08-25T07:11:11Z</time>
      </trkpt>
      <trkpt lat="45.01534" lon="6.4659">
        <ele>1695.91</ele>
        <time>2018-08-25T07:11:12Z</time>
      </trkpt>
      <trkpt lat="45.01519" lon="6.46611">
        <ele>1694.19</ele>
        <time>2018-08-25T07:11:13Z</time>
      </trkpt>
      <trkpt lat="45.01506" lon="6.46633">
        <ele>1692.27</ele>
        <time>2018-08-25T07:11:14Z</time>
      </trkpt>
      <trkpt lat="45.01493" lon="6.46656">
        <ele>1690.29</ele>
        <time>2018-08-25T07:11:15Z</time>
      </trkpt>
      <trkpt lat="45.0148" lon="6.46678">
        <ele>1688.3</ele>
        <time>2018-08-25T07:11:16Z</time>
      </trkpt>
      <trkpt lat="45.01464" lon="6.46697">
        <ele>1687</ele>
        <time>2018-08-25T07:11:17Z</time>
      </trkpt>
      <trkpt lat="45.01447" lon="6.46714">
        <ele>1685.91</ele>
        <time>2018-08-25T07:11:18Z</time>
      </trkpt>
      <trkpt lat="45.01429" lon="6.46727">
        <ele>1685.59</ele>
        <time>2018-08-25T07:11:19Z</time>
      </trkpt>
      <trkpt lat="45.0141" lon="6.46736">
        <ele>1685.49</ele>
        <time>2018-08-25T07:11:20Z</time>
      </trkpt>
      <trkpt lat="45.01391" lon="6.46745">
        <ele>1684.76</ele>
        <time>2018-08-25T07:11:21Z</time>
      </trkpt>
      <trkpt lat="45.01372" lon="6.46749">
        <ele>1683.84</ele>
        <time>2018-08-25T07:11:22Z</time>
      </trkpt>
      <trkpt lat="45.01353" lon="6.4675">
        <ele>1682.86</ele>
        <time>2018-08-25T07:11:23Z</time>
      </trkpt>
      <trkpt lat="45.01335" lon="6.46757">
        <ele>1681.87</ele>
        <time>2018-08-25T07:11:24Z</time>
      </trkpt>
      <trkpt lat="45.01317" lon="6.46767">
        <ele>1680.17</ele>
        <time>2018-08-25T07:11:25Z</time>
      </trkpt>
      <trkpt lat="45.013" lon="6.46779">
        <ele>1678.96</ele>
        <time>2018-08-25T07:11:26Z</time>
      </trkpt>
      <trkpt lat="45.01284" lon="6.46795">
        <ele>1677.9</ele>
        <time>2018-08-25T07:11:27Z</time>
      </trkpt>
      <trkpt lat="45.01268" lon="6.4681">
        <ele>1677.58</ele>
        <time>2018-08-25T07:11:28Z</time>
      </trkpt>
      <trkpt lat="45.01255" lon="6.46833">
        <ele>1676.79</ele>
        <time>2018-08-25T07:11:29Z</time>
      </trkpt>
      <trkpt lat="45.01241" lon="6.46855">
        <ele>1675.85</ele>
        <time>2018-08-25T07:11:30Z</time>
      </trkpt>
      <trkpt lat="45.01226" lon="6.46873">
        <ele>1674.87</ele>
        <time>2018-08-25T07:11:31Z</time>
      </trkpt>
      <trkpt lat="45.0121" lon="6.46889">
        <ele>1673.17</ele>
        <time>2018-08-25T07:11:32Z</time>
      </trkpt>
      <trkpt lat="45.01193" lon="6.46906">
        <ele>1672.66</ele>
        <time>2018-08-25T07:11:33Z</time>
      </trkpt>
      <trkpt lat="45.01177" lon="6.46922">
        <ele>1671.81</ele>
        <time>2018-08-25T07:11:34Z</time>
      </trkpt>
      <trkpt lat="45.01161" lon="6.46939">
        <ele>1670.85</ele>
        <time>2018-08-25T07:11:35Z</time>
      </trkpt>
      <trkpt lat="45.01145" lon="6.46955">
        <ele>1669.87</ele>
        <time>2018-08-25T07:11:36Z</time>
      </trkpt>
      <trkpt lat="45.01128" lon="6.4697">
        <ele>1668.87</ele>
        <time>2018-08-25T07:11:37Z</time>
      </trkpt>
      <trkpt lat="45.01111" lon="6.46984">
        <ele>1667.17</ele>
        <time>2018-08-25T07:11:38Z</time>
      </trkpt>
      <trkpt lat="45.01092" lon="6.46997">
        <ele>1666.66</ele>
        <time>2018-08-25T07:11:39Z</time>
      </trkpt>
      <trkpt lat="45.01074" lon="6.47009">
        <ele>1665.81</ele>
        <time>2018-08-25T07:11:40Z</time>
      </trkpt>
      <trkpt lat="45.01057" lon="6.47022">
        <ele>1664.85</ele>
        <time>2018-08-25T07:11:41Z</time>
      </trkpt>
      <trkpt lat="45.01038" lon="6.47034">
        <ele>1663.17</ele>
        <time>2018-08-25T07:11:42Z</time>
      </trkpt>
      <trkpt lat="45.0102" lon="6.47044">
        <ele>1661.96</ele>
        <time>2018-08-25T07:11:43Z</time>
      </trkpt>
      <trkpt lat="45.01002" lon="6.47052">
        <ele>1660.9</ele>
        <time>2018-08-25T07:11:44Z</time>
      </trkpt>
      <trkpt lat="45.00983" lon="6.47062">
        <ele>1659.18</ele>
        <time>2018-08-25T07:11:45Z</time>
      </trkpt>
      <trkpt lat="45.00965" lon="6.47074">
        <ele>1657.97</ele>
        <time>2018-08-25T07:11:46Z</time>
      </trkpt>
      <trkpt lat="45.00946" lon="6.47087">
        <ele>1656.9</ele>
        <time>2018-08-25T07:11:47Z</time>
      </trkpt>
      <trkpt lat="45.00928" lon="6.47097">
        <ele>1655.88</ele>
        <time>2018-08-25T07:11:48Z</time>
      </trkpt>
      <trkpt lat="45.00909" lon="6.47106">
        <ele>1654.88</ele>
        <time>2018-08-25T07:11:49Z</time>
      </trkpt>
      <trkpt lat="45.00891" lon="6.47116">
        <ele>1652.47</ele>
        <time>2018-08-25T07:11:50Z</time>
      </trkpt>
      <trkpt lat="45.00875" lon="6.47128">
        <ele>1651.05</ele>
        <time>2018-08-25T07:11:51Z</time>
      </trkpt>
      <trkpt lat="45.00859" lon="6.47144">
        <ele>1651.33</ele>
        <time>2018-08-25T07:11:52Z</time>
      </trkpt>
      <trkpt lat="45.00847" lon="6.47166">
        <ele>1650.01</ele>
        <time>2018-08-25T07:11:53Z</time>
      </trkpt>
      <trkpt lat="45.00834" lon="6.47185">
        <ele>1648.21</ele>
        <time>2018-08-25T07:11:54Z</time>
      </trkpt>
      <trkpt lat="45.00818" lon="6.47198">
        <ele>1646.98</ele>
        <time>2018-08-25T07:11:55Z</time>
      </trkpt>
      <trkpt lat="45.00784" lon="6.47216">
        <ele>1645.58</ele>
        <time>2018-08-25T07:11:57Z</time>
      </trkpt>
      <trkpt lat="45.00764" lon="6.47222">
        <ele>1644.79</ele>
        <time>2018-08-25T07:11:58Z</time>
      </trkpt>
      <trkpt lat="45.00745" lon="6.47232">
        <ele>1643.85</ele>
        <time>2018-08-25T07:11:59Z</time>
      </trkpt>
      <trkpt lat="45.00726" lon="6.47242">
        <ele>1642.87</ele>
        <time>2018-08-25T07:12:00Z</time>
      </trkpt>
      <trkpt lat="45.00707" lon="6.4725">
        <ele>1640.47</ele>
        <time>2018-08-25T07:12:01Z</time>
      </trkpt>
      <trkpt lat="45.00687" lon="6.47258">
        <ele>1639.05</ele>
        <time>2018-08-25T07:12:02Z</time>
      </trkpt>
      <trkpt lat="45.00667" lon="6.47265">
        <ele>1637.93</ele>
        <time>2018-08-25T07:12:03Z</time>
      </trkpt>
      <trkpt lat="45.00648" lon="6.4727">
        <ele>1637.59</ele>
        <time>2018-08-25T07:12:04Z</time>
      </trkpt>
      <trkpt lat="45.00627" lon="6.47273">
        <ele>1636.79</ele>
        <time>2018-08-25T07:12:05Z</time>
      </trkpt>
      <trkpt lat="45.00607" lon="6.47273">
        <ele>1636.55</ele>
        <time>2018-08-25T07:12:06Z</time>
      </trkpt>
      <trkpt lat="45.00572" lon="6.47262">
        <ele>1635.54</ele>
        <time>2018-08-25T07:12:08Z</time>
      </trkpt>
      <trkpt lat="45.00539" lon="6.47261">
        <ele>1634.05</ele>
        <time>2018-08-25T07:12:10Z</time>
      </trkpt>
      <trkpt lat="45.00508" lon="6.4727">
        <ele>1633.71</ele>
        <time>2018-08-25T07:12:12Z</time>
      </trkpt>
      <trkpt lat="45.00485" lon="6.47291">
        <ele>1632.77</ele>
        <time>2018-08-25T07:12:14Z</time>
      </trkpt>
      <trkpt lat="45.00464" lon="6.47326">
        <ele>1631.84</ele>
        <time>2018-08-25T07:12:15Z</time>
      </trkpt>
      <trkpt lat="45.00446" lon="6.47344">
        <ele>1629.46</ele>
        <time>2018-08-25T07:12:16Z</time>
      </trkpt>
      <trkpt lat="45.00426" lon="6.47359">
        <ele>1628.05</ele>
        <time>2018-08-25T07:12:17Z</time>
      </trkpt>
      <trkpt lat="45.00408" lon="6.47373">
        <ele>1626.93</ele>
        <time>2018-08-25T07:12:18Z</time>
      </trkpt>
      <trkpt lat="45.0039" lon="6.47391">
        <ele>1625.19</ele>
        <time>2018-08-25T07:12:19Z</time>
      </trkpt>
      <trkpt lat="45.00372" lon="6.4741">
        <ele>1623.27</ele>
        <time>2018-08-25T07:12:20Z</time>
      </trkpt>
      <trkpt lat="45.00355" lon="6.4743">
        <ele>1622.69</ele>
        <time>2018-08-25T07:12:21Z</time>
      </trkpt>
      <trkpt lat="45.00338" lon="6.4745">
        <ele>1621.12</ele>
        <time>2018-08-25T07:12:22Z</time>
      </trkpt>
      <trkpt lat="45.00322" lon="6.47469">
        <ele>1619.25</ele>
        <time>2018-08-25T07:12:23Z</time>
      </trkpt>
      <trkpt lat="45.00307" lon="6.4749">
        <ele>1617.99</ele>
        <time>2018-08-25T07:12:24Z</time>
      </trkpt>
      <trkpt lat="45.00293" lon="6.4751">
        <ele>1616.21</ele>
        <time>2018-08-25T07:12:25Z</time>
      </trkpt>
      <trkpt lat="45.00277" lon="6.4753">
        <ele>1614.27</ele>
        <time>2018-08-25T07:12:26Z</time>
      </trkpt>
      <trkpt lat="45.00261" lon="6.47545">
        <ele>1611.59</ele>
        <time>2018-08-25T07:12:27Z</time>
      </trkpt>
      <trkpt lat="45.00243" lon="6.47558">
        <ele>1610.09</ele>
        <time>2018-08-25T07:12:28Z</time>
      </trkpt>
      <trkpt lat="45.00225" lon="6.4757">
        <ele>1608.94</ele>
        <time>2018-08-25T07:12:29Z</time>
      </trkpt>
      <trkpt lat="45.00206" lon="6.47582">
        <ele>1608.59</ele>
        <time>2018-08-25T07:12:30Z</time>
      </trkpt>
      <trkpt lat="45.00188" lon="6.47594">
        <ele>1608.49</ele>
        <time>2018-08-25T07:12:31Z</time>
      </trkpt>
      <trkpt lat="45.00169" lon="6.47606">
        <ele>1607.76</ele>
        <time>2018-08-25T07:12:32Z</time>
      </trkpt>
      <trkpt lat="45.00153" lon="6.47621">
        <ele>1606.84</ele>
        <time>2018-08-25T07:12:33Z</time>
      </trkpt>
      <trkpt lat="45.00136" lon="6.47636">
        <ele>1606.56</ele>
        <time>2018-08-25T07:12:34Z</time>
      </trkpt>
      <trkpt lat="45.00119" lon="6.47653">
        <ele>1605.08</ele>
        <time>2018-08-25T07:12:35Z</time>
      </trkpt>
      <trkpt lat="45.00102" lon="6.47668">
        <ele>1604.64</ele>
        <time>2018-08-25T07:12:36Z</time>
      </trkpt>
      <trkpt lat="45.00085" lon="6.4768">
        <ele>1604.5</ele>
        <time>2018-08-25T07:12:37Z</time>
      </trkpt>
      <trkpt lat="45.00063" lon="6.47681">
        <ele>1601.66</ele>
        <time>2018-08-25T07:12:38Z</time>
      </trkpt>
      <trkpt lat="45.00043" lon="6.47682">
        <ele>1599.41</ele>
        <time>2018-08-25T07:12:39Z</time>
      </trkpt>
      <trkpt lat="45.00022" lon="6.47682">
        <ele>1598.73</ele>
        <time>2018-08-25T07:12:40Z</time>
      </trkpt>
      <trkpt lat="45.00002" lon="6.47685">
        <ele>1597.83</ele>
        <time>2018-08-25T07:12:41Z</time>
      </trkpt>
      <trkpt lat="44.99982" lon="6.4769">
        <ele>1596.16</ele>
        <time>2018-08-25T07:12:42Z</time>
      </trkpt>
      <trkpt lat="44.99962" lon="6.47697">
        <ele>1594.96</ele>
        <time>2018-08-25T07:12:43Z</time>
      </trkpt>
      <trkpt lat="44.99943" lon="6.47706">
        <ele>1593.9</ele>
        <time>2018-08-25T07:12:44Z</time>
      </trkpt>
      <trkpt lat="44.99925" lon="6.47716">
        <ele>1592.88</ele>
        <time>2018-08-25T07:12:45Z</time>
      </trkpt>
      <trkpt lat="44.99907" lon="6.47728">
        <ele>1591.88</ele>
        <time>2018-08-25T07:12:46Z</time>
      </trkpt>
      <trkpt lat="44.99891" lon="6.47742">
        <ele>1591.57</ele>
        <time>2018-08-25T07:12:47Z</time>
      </trkpt>
      <trkpt lat="44.99862" lon="6.47765">
        <ele>1588.94</ele>
        <time>2018-08-25T07:12:49Z</time>
      </trkpt>
      <trkpt lat="44.99833" lon="6.47781">
        <ele>1587.58</ele>
        <time>2018-08-25T07:12:51Z</time>
      </trkpt>
      <trkpt lat="44.99806" lon="6.47788">
        <ele>1587.46</ele>
        <time>2018-08-25T07:12:53Z</time>
      </trkpt>
      <trkpt lat="44.99783" lon="6.47802">
        <ele>1585.14</ele>
        <time>2018-08-25T07:12:55Z</time>
      </trkpt>
      <trkpt lat="44.9975" lon="6.47829">
        <ele>1583.6</ele>
        <time>2018-08-25T07:12:57Z</time>
      </trkpt>
      <trkpt lat="44.99732" lon="6.47845">
        <ele>1582.79</ele>
        <time>2018-08-25T07:12:58Z</time>
      </trkpt>
      <trkpt lat="44.99714" lon="6.47853">
        <ele>1581.85</ele>
        <time>2018-08-25T07:12:59Z</time>
      </trkpt>
      <trkpt lat="44.99696" lon="6.47861">
        <ele>1580.87</ele>
        <time>2018-08-25T07:13:00Z</time>
      </trkpt>
      <trkpt lat="44.99677" lon="6.47866">
        <ele>1580.57</ele>
        <time>2018-08-25T07:13:01Z</time>
      </trkpt>
      <trkpt lat="44.99658" lon="6.47868">
        <ele>1580.48</ele>
        <time>2018-08-25T07:13:02Z</time>
      </trkpt>
      <trkpt lat="44.99624" lon="6.47879">
        <ele>1578.14</ele>
        <time>2018-08-25T07:13:04Z</time>
      </trkpt>
      <trkpt lat="44.99597" lon="6.47917">
        <ele>1576.81</ele>
        <time>2018-08-25T07:13:06Z</time>
      </trkpt>
      <trkpt lat="44.99584" lon="6.47936">
        <ele>1575.85</ele>
        <time>2018-08-25T07:13:07Z</time>
      </trkpt>
      <trkpt lat="44.99568" lon="6.47955">
        <ele>1574.87</ele>
        <time>2018-08-25T07:13:08Z</time>
      </trkpt>
      <trkpt lat="44.9955" lon="6.47972">
        <ele>1574.57</ele>
        <time>2018-08-25T07:13:09Z</time>
      </trkpt>
      <trkpt lat="44.99533" lon="6.47988">
        <ele>1574.48</ele>
        <time>2018-08-25T07:13:10Z</time>
      </trkpt>
      <trkpt lat="44.99512" lon="6.48001">
        <ele>1573.76</ele>
        <time>2018-08-25T07:13:11Z</time>
      </trkpt>
      <trkpt lat="44.99491" lon="6.48013">
        <ele>1573.54</ele>
        <time>2018-08-25T07:13:12Z</time>
      </trkpt>
      <trkpt lat="44.99471" lon="6.48026">
        <ele>1572.07</ele>
        <time>2018-08-25T07:13:13Z</time>
      </trkpt>
      <trkpt lat="44.9945" lon="6.4804">
        <ele>1571.63</ele>
        <time>2018-08-25T07:13:14Z</time>
      </trkpt>
      <trkpt lat="44.9943" lon="6.48055">
        <ele>1571.5</ele>
        <time>2018-08-25T07:13:15Z</time>
      </trkpt>
      <trkpt lat="44.99412" lon="6.4807">
        <ele>1570.76</ele>
        <time>2018-08-25T07:13:16Z</time>
      </trkpt>
      <trkpt lat="44.99393" lon="6.48086">
        <ele>1570.54</ele>
        <time>2018-08-25T07:13:17Z</time>
      </trkpt>
      <trkpt lat="44.99373" lon="6.48099">
        <ele>1569.77</ele>
        <time>2018-08-25T07:13:18Z</time>
      </trkpt>
      <trkpt lat="44.99355" lon="6.48111">
        <ele>1569.54</ele>
        <time>2018-08-25T07:13:19Z</time>
      </trkpt>
      <trkpt lat="44.99337" lon="6.48126">
        <ele>1568.77</ele>
        <time>2018-08-25T07:13:20Z</time>
      </trkpt>
      <trkpt lat="44.99322" lon="6.48146">
        <ele>1568.54</ele>
        <time>2018-08-25T07:13:21Z</time>
      </trkpt>
      <trkpt lat="44.99306" lon="6.48167">
        <ele>1566.37</ele>
        <time>2018-08-25T07:13:22Z</time>
      </trkpt>
      <trkpt lat="44.99291" lon="6.48186">
        <ele>1565.72</ele>
        <time>2018-08-25T07:13:23Z</time>
      </trkpt>
      <trkpt lat="44.99273" lon="6.48203">
        <ele>1565.53</ele>
        <time>2018-08-25T07:13:24Z</time>
      </trkpt>
      <trkpt lat="44.99257" lon="6.48222">
        <ele>1564.77</ele>
        <time>2018-08-25T07:13:25Z</time>
      </trkpt>
      <trkpt lat="44.99244" lon="6.48245">
        <ele>1563.84</ele>
        <time>2018-08-25T07:13:26Z</time>
      </trkpt>
      <trkpt lat="44.99232" lon="6.4827">
        <ele>1563.56</ele>
        <time>2018-08-25T07:13:27Z</time>
      </trkpt>
      <trkpt lat="44.99222" lon="6.48297">
        <ele>1562.78</ele>
        <time>2018-08-25T07:13:28Z</time>
      </trkpt>
      <trkpt lat="44.99212" lon="6.48324">
        <ele>1561.15</ele>
        <time>2018-08-25T07:13:29Z</time>
      </trkpt>
      <trkpt lat="44.992" lon="6.4835">
        <ele>1559.96</ele>
        <time>2018-08-25T07:13:30Z</time>
      </trkpt>
      <trkpt lat="44.99187" lon="6.48375">
        <ele>1559.6</ele>
        <time>2018-08-25T07:13:31Z</time>
      </trkpt>
      <trkpt lat="44.99175" lon="6.484">
        <ele>1559.49</ele>
        <time>2018-08-25T07:13:32Z</time>
      </trkpt>
      <trkpt lat="44.99163" lon="6.48426">
        <ele>1558.76</ele>
        <time>2018-08-25T07:13:33Z</time>
      </trkpt>
      <trkpt lat="44.9915" lon="6.4845">
        <ele>1558.54</ele>
        <time>2018-08-25T07:13:34Z</time>
      </trkpt>
      <trkpt lat="44.99135" lon="6.48473">
        <ele>1557.77</ele>
        <time>2018-08-25T07:13:35Z</time>
      </trkpt>
      <trkpt lat="44.99119" lon="6.48495">
        <ele>1558.24</ele>
        <time>2018-08-25T07:13:36Z</time>
      </trkpt>
      <trkpt lat="44.99104" lon="6.48518">
        <ele>1558.38</ele>
        <time>2018-08-25T07:13:37Z</time>
      </trkpt>
      <trkpt lat="44.9909" lon="6.48542">
        <ele>1557.73</ele>
        <time>2018-08-25T07:13:38Z</time>
      </trkpt>
      <trkpt lat="44.99073" lon="6.48563">
        <ele>1557.53</ele>
        <time>2018-08-25T07:13:39Z</time>
      </trkpt>
      <trkpt lat="44.99056" lon="6.48584">
        <ele>1557.47</ele>
        <time>2018-08-25T07:13:40Z</time>
      </trkpt>
      <trkpt lat="44.9904" lon="6.48607">
        <ele>1556.75</ele>
        <time>2018-08-25T07:13:41Z</time>
      </trkpt>
      <trkpt lat="44.99026" lon="6.48632">
        <ele>1556.54</ele>
        <time>2018-08-25T07:13:42Z</time>
      </trkpt>
      <trkpt lat="44.99012" lon="6.48658">
        <ele>1555.77</ele>
        <time>2018-08-25T07:13:43Z</time>
      </trkpt>
      <trkpt lat="44.98998" lon="6.48684">
        <ele>1555.54</ele>
        <time>2018-08-25T07:13:44Z</time>
      </trkpt>
      <trkpt lat="44.98984" lon="6.48711">
        <ele>1554.77</ele>
        <time>2018-08-25T07:13:45Z</time>
      </trkpt>
      <trkpt lat="44.9897" lon="6.48737">
        <ele>1553.84</ele>
        <time>2018-08-25T07:13:46Z</time>
      </trkpt>
      <trkpt lat="44.98957" lon="6.48764">
        <ele>1552.86</ele>
        <time>2018-08-25T07:13:47Z</time>
      </trkpt>
      <trkpt lat="44.98943" lon="6.48791">
        <ele>1551.17</ele>
        <time>2018-08-25T07:13:48Z</time>
      </trkpt>
      <trkpt lat="44.98929" lon="6.48818">
        <ele>1550.66</ele>
        <time>2018-08-25T07:13:49Z</time>
      </trkpt>
      <trkpt lat="44.98916" lon="6.48844">
        <ele>1550.51</ele>
        <time>2018-08-25T07:13:50Z</time>
      </trkpt>
      <trkpt lat="44.98903" lon="6.4887">
        <ele>1549.76</ele>
        <time>2018-08-25T07:13:51Z</time>
      </trkpt>
      <trkpt lat="44.98891" lon="6.48897">
        <ele>1548.84</ele>
        <time>2018-08-25T07:13:52Z</time>
      </trkpt>
      <trkpt lat="44.9888" lon="6.48924">
        <ele>1547.86</ele>
        <time>2018-08-25T07:13:53Z</time>
      </trkpt>
      <trkpt lat="44.98873" lon="6.48955">
        <ele>1547.57</ele>
        <time>2018-08-25T07:13:54Z</time>
      </trkpt>
      <trkpt lat="44.98866" lon="6.48983">
        <ele>1545.38</ele>
        <time>2018-08-25T07:13:55Z</time>
      </trkpt>
      <trkpt lat="44.98856" lon="6.49011">
        <ele>1544.03</ele>
        <time>2018-08-25T07:13:56Z</time>
      </trkpt>
      <trkpt lat="44.98846" lon="6.49038">
        <ele>1542.92</ele>
        <time>2018-08-25T07:13:57Z</time>
      </trkpt>
      <trkpt lat="44.98836" lon="6.49064">
        <ele>1542.59</ele>
        <time>2018-08-25T07:13:58Z</time>
      </trkpt>
      <trkpt lat="44.98819" lon="6.49085">
        <ele>1542.49</ele>
        <time>2018-08-25T07:13:59Z</time>
      </trkpt>
      <trkpt lat="44.98799" lon="6.49098">
        <ele>1541.76</ele>
        <time>2018-08-25T07:14:00Z</time>
      </trkpt>
      <trkpt lat="44.98783" lon="6.49117">
        <ele>1540.84</ele>
        <time>2018-08-25T07:14:01Z</time>
      </trkpt>
      <trkpt lat="44.98767" lon="6.49138">
        <ele>1539.86</ele>
        <time>2018-08-25T07:14:02Z</time>
      </trkpt>
      <trkpt lat="44.98753" lon="6.49157">
        <ele>1538.87</ele>
        <time>2018-08-25T07:14:03Z</time>
      </trkpt>
      <trkpt lat="44.98737" lon="6.49176">
        <ele>1537.87</ele>
        <time>2018-08-25T07:14:04Z</time>
      </trkpt>
      <trkpt lat="44.98721" lon="6.49195">
        <ele>1538.27</ele>
        <time>2018-08-25T07:14:05Z</time>
      </trkpt>
      <trkpt lat="44.98708" lon="6.49217">
        <ele>1539.79</ele>
        <time>2018-08-25T07:14:06Z</time>
      </trkpt>
      <trkpt lat="44.98698" lon="6.49242">
        <ele>1538.85</ele>
        <time>2018-08-25T07:14:07Z</time>
      </trkpt>
      <trkpt lat="44.98689" lon="6.49268">
        <ele>1537.87</ele>
        <time>2018-08-25T07:14:08Z</time>
      </trkpt>
      <trkpt lat="44.98681" lon="6.49296">
        <ele>1536.87</ele>
        <time>2018-08-25T07:14:09Z</time>
      </trkpt>
      <trkpt lat="44.98673" lon="6.49323">
        <ele>1536.57</ele>
        <time>2018-08-25T07:14:10Z</time>
      </trkpt>
      <trkpt lat="44.98663" lon="6.49349">
        <ele>1536.48</ele>
        <time>2018-08-25T07:14:11Z</time>
      </trkpt>
      <trkpt lat="44.98651" lon="6.49374">
        <ele>1537.16</ele>
        <time>2018-08-25T07:14:12Z</time>
      </trkpt>
      <trkpt lat="44.98639" lon="6.49397">
        <ele>1536.66</ele>
        <time>2018-08-25T07:14:13Z</time>
      </trkpt>
      <trkpt lat="44.98622" lon="6.49418">
        <ele>1535.81</ele>
        <time>2018-08-25T07:14:14Z</time>
      </trkpt>
      <trkpt lat="44.98607" lon="6.4944">
        <ele>1535.55</ele>
        <time>2018-08-25T07:14:15Z</time>
      </trkpt>
      <trkpt lat="44.98591" lon="6.4946">
        <ele>1533.38</ele>
        <time>2018-08-25T07:14:16Z</time>
      </trkpt>
      <trkpt lat="44.98576" lon="6.49479">
        <ele>1532.72</ele>
        <time>2018-08-25T07:14:17Z</time>
      </trkpt>
      <trkpt lat="44.98561" lon="6.49495">
        <ele>1531.83</ele>
        <time>2018-08-25T07:14:18Z</time>
      </trkpt>
      <trkpt lat="44.98543" lon="6.49507">
        <ele>1531.56</ele>
        <time>2018-08-25T07:14:19Z</time>
      </trkpt>
      <trkpt lat="44.98526" lon="6.49524">
        <ele>1530.08</ele>
        <time>2018-08-25T07:14:20Z</time>
      </trkpt>
      <trkpt lat="44.98511" lon="6.49544">
        <ele>1528.94</ele>
        <time>2018-08-25T07:14:21Z</time>
      </trkpt>
      <trkpt lat="44.98495" lon="6.49565">
        <ele>1528.59</ele>
        <time>2018-08-25T07:14:22Z</time>
      </trkpt>
      <trkpt lat="44.98482" lon="6.49587">
        <ele>1527.79</ele>
        <time>2018-08-25T07:14:23Z</time>
      </trkpt>
      <trkpt lat="44.98469" lon="6.4961">
        <ele>1527.55</ele>
        <time>2018-08-25T07:14:24Z</time>
      </trkpt>
      <trkpt lat="44.98456" lon="6.49633">
        <ele>1526.78</ele>
        <time>2018-08-25T07:14:25Z</time>
      </trkpt>
      <trkpt lat="44.98444" lon="6.49655">
        <ele>1525.84</ele>
        <time>2018-08-25T07:14:26Z</time>
      </trkpt>
      <trkpt lat="44.98431" lon="6.49677">
        <ele>1524.86</ele>
        <time>2018-08-25T07:14:27Z</time>
      </trkpt>
      <trkpt lat="44.98418" lon="6.49699">
        <ele>1523.17</ele>
        <time>2018-08-25T07:14:28Z</time>
      </trkpt>
      <trkpt lat="44.98406" lon="6.49721">
        <ele>1522.66</ele>
        <time>2018-08-25T07:14:29Z</time>
      </trkpt>
      <trkpt lat="44.98395" lon="6.49745">
        <ele>1521.81</ele>
        <time>2018-08-25T07:14:30Z</time>
      </trkpt>
      <trkpt lat="44.98384" lon="6.49768">
        <ele>1520.85</ele>
        <time>2018-08-25T07:14:31Z</time>
      </trkpt>
      <trkpt lat="44.98373" lon="6.49792">
        <ele>1520.57</ele>
        <time>2018-08-25T07:14:32Z</time>
      </trkpt>
      <trkpt lat="44.98359" lon="6.49813">
        <ele>1520.48</ele>
        <time>2018-08-25T07:14:33Z</time>
      </trkpt>
      <trkpt lat="44.98346" lon="6.49832">
        <ele>1519.06</ele>
        <time>2018-08-25T07:14:34Z</time>
      </trkpt>
      <trkpt lat="44.9833" lon="6.4985">
        <ele>1517.93</ele>
        <time>2018-08-25T07:14:35Z</time>
      </trkpt>
      <trkpt lat="44.98313" lon="6.49866">
        <ele>1518.29</ele>
        <time>2018-08-25T07:14:36Z</time>
      </trkpt>
      <trkpt lat="44.98295" lon="6.4988">
        <ele>1518.4</ele>
        <time>2018-08-25T07:14:37Z</time>
      </trkpt>
      <trkpt lat="44.98276" lon="6.49895">
        <ele>1517.73</ele>
        <time>2018-08-25T07:14:38Z</time>
      </trkpt>
      <trkpt lat="44.98258" lon="6.49909">
        <ele>1517.53</ele>
        <time>2018-08-25T07:14:39Z</time>
      </trkpt>
      <trkpt lat="44.98239" lon="6.49923">
        <ele>1516.77</ele>
        <time>2018-08-25T07:14:40Z</time>
      </trkpt>
      <trkpt lat="44.98218" lon="6.49932">
        <ele>1515.84</ele>
        <time>2018-08-25T07:14:41Z</time>
      </trkpt>
      <trkpt lat="44.98197" lon="6.4994">
        <ele>1514.86</ele>
        <time>2018-08-25T07:14:42Z</time>
      </trkpt>
      <trkpt lat="44.98176" lon="6.49942">
        <ele>1514.57</ele>
        <time>2018-08-25T07:14:43Z</time>
      </trkpt>
      <trkpt lat="44.98155" lon="6.4994">
        <ele>1513.78</ele>
        <time>2018-08-25T07:14:44Z</time>
      </trkpt>
      <trkpt lat="44.98136" lon="6.49935">
        <ele>1512.85</ele>
        <time>2018-08-25T07:14:45Z</time>
      </trkpt>
      <trkpt lat="44.98117" lon="6.49928">
        <ele>1512.57</ele>
        <time>2018-08-25T07:14:46Z</time>
      </trkpt>
      <trkpt lat="44.98099" lon="6.49921">
        <ele>1511.78</ele>
        <time>2018-08-25T07:14:47Z</time>
      </trkpt>
      <trkpt lat="44.98066" lon="6.4991">
        <ele>1511.48</ele>
        <time>2018-08-25T07:14:49Z</time>
      </trkpt>
      <trkpt lat="44.98035" lon="6.49909">
        <ele>1511.45</ele>
        <time>2018-08-25T07:14:51Z</time>
      </trkpt>
      <trkpt lat="44.98004" lon="6.4992">
        <ele>1511.24</ele>
        <time>2018-08-25T07:14:53Z</time>
      </trkpt>
      <trkpt lat="44.97976" lon="6.49945">
        <ele>1511.43</ele>
        <time>2018-08-25T07:14:55Z</time>
      </trkpt>
      <trkpt lat="44.9795" lon="6.49975">
        <ele>1510.53</ele>
        <time>2018-08-25T07:14:57Z</time>
      </trkpt>
      <trkpt lat="44.97924" lon="6.50008">
        <ele>1509.54</ele>
        <time>2018-08-25T07:14:59Z</time>
      </trkpt>
      <trkpt lat="44.97911" lon="6.50027">
        <ele>1508.77</ele>
        <time>2018-08-25T07:15:00Z</time>
      </trkpt>
      <trkpt lat="44.97899" lon="6.50048">
        <ele>1508.54</ele>
        <time>2018-08-25T07:15:01Z</time>
      </trkpt>
      <trkpt lat="44.97887" lon="6.50071">
        <ele>1507.77</ele>
        <time>2018-08-25T07:15:02Z</time>
      </trkpt>
      <trkpt lat="44.97876" lon="6.50094">
        <ele>1506.84</ele>
        <time>2018-08-25T07:15:03Z</time>
      </trkpt>
      <trkpt lat="44.97868" lon="6.50122">
        <ele>1506.56</ele>
        <time>2018-08-25T07:15:04Z</time>
      </trkpt>
      <trkpt lat="44.9786" lon="6.50148">
        <ele>1505.78</ele>
        <time>2018-08-25T07:15:05Z</time>
      </trkpt>
      <trkpt lat="44.97853" lon="6.50174">
        <ele>1505.55</ele>
        <time>2018-08-25T07:15:06Z</time>
      </trkpt>
      <trkpt lat="44.97846" lon="6.502">
        <ele>1505.48</ele>
        <time>2018-08-25T07:15:07Z</time>
      </trkpt>
      <trkpt lat="44.9784" lon="6.50225">
        <ele>1503.35</ele>
        <time>2018-08-25T07:15:08Z</time>
      </trkpt>
      <trkpt lat="44.97833" lon="6.50251">
        <ele>1502.02</ele>
        <time>2018-08-25T07:15:09Z</time>
      </trkpt>
      <trkpt lat="44.97826" lon="6.50276">
        <ele>1500.92</ele>
        <time>2018-08-25T07:15:10Z</time>
      </trkpt>
      <trkpt lat="44.9782" lon="6.50301">
        <ele>1499.89</ele>
        <time>2018-08-25T07:15:11Z</time>
      </trkpt>
      <trkpt lat="44.97812" lon="6.50325">
        <ele>1499.58</ele>
        <time>2018-08-25T07:15:12Z</time>
      </trkpt>
      <trkpt lat="44.97797" lon="6.50368">
        <ele>1498.55</ele>
        <time>2018-08-25T07:15:14Z</time>
      </trkpt>
      <trkpt lat="44.9778" lon="6.50406">
        <ele>1498.45</ele>
        <time>2018-08-25T07:15:16Z</time>
      </trkpt>
      <trkpt lat="44.97764" lon="6.50441">
        <ele>1496.84</ele>
        <time>2018-08-25T07:15:18Z</time>
      </trkpt>
      <trkpt lat="44.97749" lon="6.5047">
        <ele>1494.66</ele>
        <time>2018-08-25T07:15:20Z</time>
      </trkpt>
      <trkpt lat="44.97738" lon="6.50493">
        <ele>1492.85</ele>
        <time>2018-08-25T07:15:22Z</time>
      </trkpt>
      <trkpt lat="44.97726" lon="6.50518">
        <ele>1492.46</ele>
        <time>2018-08-25T07:15:25Z</time>
      </trkpt>
      <trkpt lat="44.97715" lon="6.50542">
        <ele>1490.86</ele>
        <time>2018-08-25T07:15:32Z</time>
      </trkpt>
      <trkpt lat="44.97702" lon="6.50572">
        <ele>1489.61</ele>
        <time>2018-08-25T07:15:35Z</time>
      </trkpt>
      <trkpt lat="44.97691" lon="6.50595">
        <ele>1488.97</ele>
        <time>2018-08-25T07:15:37Z</time>
      </trkpt>
      <trkpt lat="44.97679" lon="6.5062">
        <ele>1488.28</ele>
        <time>2018-08-25T07:15:39Z</time>
      </trkpt>
      <trkpt lat="44.97669" lon="6.50645">
        <ele>1487.52</ele>
        <time>2018-08-25T07:15:41Z</time>
      </trkpt>
      <trkpt lat="44.97658" lon="6.50669">
        <ele>1487.45</ele>
        <time>2018-08-25T07:15:43Z</time>
      </trkpt>
      <trkpt lat="44.97647" lon="6.50693">
        <ele>1486.54</ele>
        <time>2018-08-25T07:15:45Z</time>
      </trkpt>
      <trkpt lat="44.97636" lon="6.50717">
        <ele>1486.87</ele>
        <time>2018-08-25T07:15:47Z</time>
      </trkpt>
      <trkpt lat="44.97625" lon="6.50744">
        <ele>1487.18</ele>
        <time>2018-08-25T07:15:49Z</time>
      </trkpt>
      <trkpt lat="44.97614" lon="6.50769">
        <ele>1486.51</ele>
        <time>2018-08-25T07:15:51Z</time>
      </trkpt>
      <trkpt lat="44.97603" lon="6.50796">
        <ele>1486.45</ele>
        <time>2018-08-25T07:15:53Z</time>
      </trkpt>
      <trkpt lat="44.97595" lon="6.50826">
        <ele>1485.75</ele>
        <time>2018-08-25T07:15:55Z</time>
      </trkpt>
      <trkpt lat="44.97594" lon="6.50859">
        <ele>1485.47</ele>
        <time>2018-08-25T07:15:57Z</time>
      </trkpt>
      <trkpt lat="44.97594" lon="6.50892">
        <ele>1483.84</ele>
        <time>2018-08-25T07:15:59Z</time>
      </trkpt>
      <trkpt lat="44.97597" lon="6.50924">
        <ele>1484.18</ele>
        <time>2018-08-25T07:16:01Z</time>
      </trkpt>
      <trkpt lat="44.97601" lon="6.50956">
        <ele>1483.93</ele>
        <time>2018-08-25T07:16:03Z</time>
      </trkpt>
      <trkpt lat="44.976" lon="6.50987">
        <ele>1480.76</ele>
        <time>2018-08-25T07:16:05Z</time>
      </trkpt>
      <trkpt lat="44.97596" lon="6.51019">
        <ele>1480.26</ele>
        <time>2018-08-25T07:16:07Z</time>
      </trkpt>
      <trkpt lat="44.97591" lon="6.51052">
        <ele>1481.83</ele>
        <time>2018-08-25T07:16:09Z</time>
      </trkpt>
      <trkpt lat="44.97585" lon="6.51084">
        <ele>1483.09</ele>
        <time>2018-08-25T07:16:11Z</time>
      </trkpt>
      <trkpt lat="44.97581" lon="6.51116">
        <ele>1483.41</ele>
        <time>2018-08-25T07:16:13Z</time>
      </trkpt>
      <trkpt lat="44.97577" lon="6.51146">
        <ele>1483.44</ele>
        <time>2018-08-25T07:16:15Z</time>
      </trkpt>
      <trkpt lat="44.97576" lon="6.51177">
        <ele>1482.53</ele>
        <time>2018-08-25T07:16:17Z</time>
      </trkpt>
      <trkpt lat="44.97579" lon="6.5121">
        <ele>1482.66</ele>
        <time>2018-08-25T07:16:19Z</time>
      </trkpt>
      <trkpt lat="44.97588" lon="6.5124">
        <ele>1479.03</ele>
        <time>2018-08-25T07:16:21Z</time>
      </trkpt>
      <trkpt lat="44.976" lon="6.5127">
        <ele>1477.8</ele>
        <time>2018-08-25T07:16:23Z</time>
      </trkpt>
      <trkpt lat="44.97613" lon="6.51303">
        <ele>1478.6</ele>
        <time>2018-08-25T07:16:25Z</time>
      </trkpt>
      <trkpt lat="44.9762" lon="6.51339">
        <ele>1476.15</ele>
        <time>2018-08-25T07:16:27Z</time>
      </trkpt>
      <trkpt lat="44.97622" lon="6.51381">
        <ele>1475.51</ele>
        <time>2018-08-25T07:16:29Z</time>
      </trkpt>
      <trkpt lat="44.97615" lon="6.51423">
        <ele>1475.45</ele>
        <time>2018-08-25T07:16:31Z</time>
      </trkpt>
      <trkpt lat="44.97603" lon="6.51463">
        <ele>1473.84</ele>
        <time>2018-08-25T07:16:33Z</time>
      </trkpt>
      <trkpt lat="44.9759" lon="6.515">
        <ele>1472.57</ele>
        <time>2018-08-25T07:16:35Z</time>
      </trkpt>
      <trkpt lat="44.97578" lon="6.51537">
        <ele>1471.76</ele>
        <time>2018-08-25T07:16:37Z</time>
      </trkpt>
      <trkpt lat="44.97567" lon="6.5157">
        <ele>1470.56</ele>
        <time>2018-08-25T07:16:39Z</time>
      </trkpt>
      <trkpt lat="44.97555" lon="6.51601">
        <ele>1469.55</ele>
        <time>2018-08-25T07:16:41Z</time>
      </trkpt>
      <trkpt lat="44.97538" lon="6.51631">
        <ele>1468.54</ele>
        <time>2018-08-25T07:16:43Z</time>
      </trkpt>
      <trkpt lat="44.97516" lon="6.51659">
        <ele>1467.54</ele>
        <time>2018-08-25T07:16:45Z</time>
      </trkpt>
      <trkpt lat="44.97493" lon="6.51679">
        <ele>1464.93</ele>
        <time>2018-08-25T07:16:47Z</time>
      </trkpt>
      <trkpt lat="44.97468" lon="6.51694">
        <ele>1463.58</ele>
        <time>2018-08-25T07:16:49Z</time>
      </trkpt>
      <trkpt lat="44.97444" lon="6.51704">
        <ele>1462.55</ele>
        <time>2018-08-25T07:16:51Z</time>
      </trkpt>
      <trkpt lat="44.97418" lon="6.51716">
        <ele>1461.54</ele>
        <time>2018-08-25T07:16:53Z</time>
      </trkpt>
      <trkpt lat="44.97395" lon="6.51732">
        <ele>1458.93</ele>
        <time>2018-08-25T07:16:55Z</time>
      </trkpt>
      <trkpt lat="44.97374" lon="6.51754">
        <ele>1456.88</ele>
        <time>2018-08-25T07:16:57Z</time>
      </trkpt>
      <trkpt lat="44.97355" lon="6.5178">
        <ele>1453.75</ele>
        <time>2018-08-25T07:16:59Z</time>
      </trkpt>
      <trkpt lat="44.97336" lon="6.51808">
        <ele>1453.47</ele>
        <time>2018-08-25T07:17:01Z</time>
      </trkpt>
      <trkpt lat="44.97316" lon="6.51835">
        <ele>1452.54</ele>
        <time>2018-08-25T07:17:03Z</time>
      </trkpt>
      <trkpt lat="44.97293" lon="6.51862">
        <ele>1451.05</ele>
        <time>2018-08-25T07:17:05Z</time>
      </trkpt>
      <trkpt lat="44.97272" lon="6.5189">
        <ele>1448.89</ele>
        <time>2018-08-25T07:17:07Z</time>
      </trkpt>
      <trkpt lat="44.9725" lon="6.51916">
        <ele>1447.58</ele>
        <time>2018-08-25T07:17:09Z</time>
      </trkpt>
      <trkpt lat="44.97229" lon="6.51947">
        <ele>1447.25</ele>
        <time>2018-08-25T07:17:11Z</time>
      </trkpt>
      <trkpt lat="44.97211" lon="6.51982">
        <ele>1447.43</ele>
        <time>2018-08-25T07:17:13Z</time>
      </trkpt>
      <trkpt lat="44.97203" lon="6.52006">
        <ele>1446.74</ele>
        <time>2018-08-25T07:17:14Z</time>
      </trkpt>
      <trkpt lat="44.97194" lon="6.52031">
        <ele>1446.53</ele>
        <time>2018-08-25T07:17:15Z</time>
      </trkpt>
      <trkpt lat="44.97183" lon="6.52058">
        <ele>1446.47</ele>
        <time>2018-08-25T07:17:16Z</time>
      </trkpt>
      <trkpt lat="44.97172" lon="6.52087">
        <ele>1445.75</ele>
        <time>2018-08-25T07:17:17Z</time>
      </trkpt>
      <trkpt lat="44.97161" lon="6.52116">
        <ele>1444.84</ele>
        <time>2018-08-25T07:17:18Z</time>
      </trkpt>
      <trkpt lat="44.97151" lon="6.52143">
        <ele>1444.56</ele>
        <time>2018-08-25T07:17:19Z</time>
      </trkpt>
      <trkpt lat="44.97142" lon="6.5217">
        <ele>1444.48</ele>
        <time>2018-08-25T07:17:20Z</time>
      </trkpt>
      <trkpt lat="44.97132" lon="6.52198">
        <ele>1443.76</ele>
        <time>2018-08-25T07:17:21Z</time>
      </trkpt>
      <trkpt lat="44.97123" lon="6.52227">
        <ele>1443.54</ele>
        <time>2018-08-25T07:17:22Z</time>
      </trkpt>
      <trkpt lat="44.97112" lon="6.52251">
        <ele>1442.77</ele>
        <time>2018-08-25T07:17:23Z</time>
      </trkpt>
      <trkpt lat="44.97097" lon="6.5227">
        <ele>1443.24</ele>
        <time>2018-08-25T07:17:24Z</time>
      </trkpt>
      <trkpt lat="44.97078" lon="6.52286">
        <ele>1443.38</ele>
        <time>2018-08-25T07:17:25Z</time>
      </trkpt>
      <trkpt lat="44.97059" lon="6.523">
        <ele>1442.73</ele>
        <time>2018-08-25T07:17:26Z</time>
      </trkpt>
      <trkpt lat="44.97037" lon="6.52312">
        <ele>1442.53</ele>
        <time>2018-08-25T07:17:27Z</time>
      </trkpt>
      <trkpt lat="44.97014" lon="6.52323">
        <ele>1442.47</ele>
        <time>2018-08-25T07:17:28Z</time>
      </trkpt>
      <trkpt lat="44.96992" lon="6.52333">
        <ele>1441.75</ele>
        <time>2018-08-25T07:17:29Z</time>
      </trkpt>
      <trkpt lat="44.9697" lon="6.52342">
        <ele>1441.54</ele>
        <time>2018-08-25T07:17:30Z</time>
      </trkpt>
      <trkpt lat="44.96949" lon="6.52352">
        <ele>1442.17</ele>
        <time>2018-08-25T07:17:31Z</time>
      </trkpt>
      <trkpt lat="44.96932" lon="6.52364">
        <ele>1441.66</ele>
        <time>2018-08-25T07:17:32Z</time>
      </trkpt>
      <trkpt lat="44.96914" lon="6.52376">
        <ele>1441.51</ele>
        <time>2018-08-25T07:17:33Z</time>
      </trkpt>
      <trkpt lat="44.96897" lon="6.5239">
        <ele>1442.16</ele>
        <time>2018-08-25T07:17:34Z</time>
      </trkpt>
      <trkpt lat="44.96881" lon="6.52414">
        <ele>1442.36</ele>
        <time>2018-08-25T07:17:35Z</time>
      </trkpt>
      <trkpt lat="44.96873" lon="6.52452">
        <ele>1442.42</ele>
        <time>2018-08-25T07:17:36Z</time>
      </trkpt>
      <trkpt lat="44.96861" lon="6.52482">
        <ele>1442.44</ele>
        <time>2018-08-25T07:17:37Z</time>
      </trkpt>
      <trkpt lat="44.9685" lon="6.52512">
        <ele>1441.74</ele>
        <time>2018-08-25T07:17:38Z</time>
      </trkpt>
      <trkpt lat="44.96843" lon="6.52548">
        <ele>1441.53</ele>
        <time>2018-08-25T07:17:39Z</time>
      </trkpt>
      <trkpt lat="44.96837" lon="6.52583">
        <ele>1440.77</ele>
        <time>2018-08-25T07:17:40Z</time>
      </trkpt>
      <trkpt lat="44.96831" lon="6.52618">
        <ele>1439.84</ele>
        <time>2018-08-25T07:17:41Z</time>
      </trkpt>
      <trkpt lat="44.96825" lon="6.5265">
        <ele>1439.56</ele>
        <time>2018-08-25T07:17:42Z</time>
      </trkpt>
      <trkpt lat="44.96817" lon="6.52681">
        <ele>1439.48</ele>
        <time>2018-08-25T07:17:43Z</time>
      </trkpt>
      <trkpt lat="44.96808" lon="6.52713">
        <ele>1438.76</ele>
        <time>2018-08-25T07:17:44Z</time>
      </trkpt>
      <trkpt lat="44.968" lon="6.52741">
        <ele>1438.54</ele>
        <time>2018-08-25T07:17:45Z</time>
      </trkpt>
      <trkpt lat="44.96791" lon="6.52769">
        <ele>1438.47</ele>
        <time>2018-08-25T07:17:46Z</time>
      </trkpt>
      <trkpt lat="44.96784" lon="6.528">
        <ele>1438.45</ele>
        <time>2018-08-25T07:17:47Z</time>
      </trkpt>
      <trkpt lat="44.96778" lon="6.52831">
        <ele>1437.75</ele>
        <time>2018-08-25T07:17:48Z</time>
      </trkpt>
      <trkpt lat="44.96771" lon="6.52861">
        <ele>1436.84</ele>
        <time>2018-08-25T07:17:49Z</time>
      </trkpt>
      <trkpt lat="44.96766" lon="6.5289">
        <ele>1437.26</ele>
        <time>2018-08-25T07:17:50Z</time>
      </trkpt>
      <trkpt lat="44.96771" lon="6.5292">
        <ele>1438.09</ele>
        <time>2018-08-25T07:17:51Z</time>
      </trkpt>
      <trkpt lat="44.96775" lon="6.52948">
        <ele>1437.64</ele>
        <time>2018-08-25T07:17:52Z</time>
      </trkpt>
      <trkpt lat="44.96778" lon="6.52975">
        <ele>1437.5</ele>
        <time>2018-08-25T07:17:53Z</time>
      </trkpt>
      <trkpt lat="44.96779" lon="6.53003">
        <ele>1436.76</ele>
        <time>2018-08-25T07:17:54Z</time>
      </trkpt>
      <trkpt lat="44.96779" lon="6.53031">
        <ele>1435.14</ele>
        <time>2018-08-25T07:17:55Z</time>
      </trkpt>
      <trkpt lat="44.96776" lon="6.53058">
        <ele>1434.65</ele>
        <time>2018-08-25T07:17:56Z</time>
      </trkpt>
      <trkpt lat="44.9677" lon="6.53083">
        <ele>1433.81</ele>
        <time>2018-08-25T07:17:57Z</time>
      </trkpt>
      <trkpt lat="44.9676" lon="6.53107">
        <ele>1432.85</ele>
        <time>2018-08-25T07:17:58Z</time>
      </trkpt>
      <trkpt lat="44.96751" lon="6.53131">
        <ele>1431.87</ele>
        <time>2018-08-25T07:17:59Z</time>
      </trkpt>
      <trkpt lat="44.96738" lon="6.53152">
        <ele>1431.57</ele>
        <time>2018-08-25T07:18:00Z</time>
      </trkpt>
      <trkpt lat="44.9672" lon="6.53169">
        <ele>1430.78</ele>
        <time>2018-08-25T07:18:01Z</time>
      </trkpt>
      <trkpt lat="44.96704" lon="6.53187">
        <ele>1430.55</ele>
        <time>2018-08-25T07:18:02Z</time>
      </trkpt>
      <trkpt lat="44.96689" lon="6.53204">
        <ele>1429.78</ele>
        <time>2018-08-25T07:18:03Z</time>
      </trkpt>
      <trkpt lat="44.96673" lon="6.53223">
        <ele>1429.54</ele>
        <time>2018-08-25T07:18:04Z</time>
      </trkpt>
      <trkpt lat="44.96659" lon="6.53241">
        <ele>1428.77</ele>
        <time>2018-08-25T07:18:05Z</time>
      </trkpt>
      <trkpt lat="44.96644" lon="6.5326">
        <ele>1427.84</ele>
        <time>2018-08-25T07:18:06Z</time>
      </trkpt>
      <trkpt lat="44.9663" lon="6.5328">
        <ele>1427.56</ele>
        <time>2018-08-25T07:18:07Z</time>
      </trkpt>
      <trkpt lat="44.96616" lon="6.53301">
        <ele>1427.48</ele>
        <time>2018-08-25T07:18:08Z</time>
      </trkpt>
      <trkpt lat="44.96603" lon="6.53322">
        <ele>1426.76</ele>
        <time>2018-08-25T07:18:09Z</time>
      </trkpt>
      <trkpt lat="44.96589" lon="6.53344">
        <ele>1425.84</ele>
        <time>2018-08-25T07:18:10Z</time>
      </trkpt>
      <trkpt lat="44.96576" lon="6.53367">
        <ele>1424.86</ele>
        <time>2018-08-25T07:18:11Z</time>
      </trkpt>
      <trkpt lat="44.96562" lon="6.5339">
        <ele>1423.87</ele>
        <time>2018-08-25T07:18:12Z</time>
      </trkpt>
      <trkpt lat="44.96548" lon="6.53413">
        <ele>1423.57</ele>
        <time>2018-08-25T07:18:13Z</time>
      </trkpt>
      <trkpt lat="44.96534" lon="6.53436">
        <ele>1423.48</ele>
        <time>2018-08-25T07:18:14Z</time>
      </trkpt>
      <trkpt lat="44.9652" lon="6.53461">
        <ele>1422.76</ele>
        <time>2018-08-25T07:18:15Z</time>
      </trkpt>
      <trkpt lat="44.96506" lon="6.53485">
        <ele>1422.54</ele>
        <time>2018-08-25T07:18:16Z</time>
      </trkpt>
      <trkpt lat="44.96492" lon="6.53509">
        <ele>1421.77</ele>
        <time>2018-08-25T07:18:17Z</time>
      </trkpt>
      <trkpt lat="44.96478" lon="6.53534">
        <ele>1422.24</ele>
        <time>2018-08-25T07:18:18Z</time>
      </trkpt>
      <trkpt lat="44.96464" lon="6.53558">
        <ele>1422.38</ele>
        <time>2018-08-25T07:18:19Z</time>
      </trkpt>
      <trkpt lat="44.9645" lon="6.53582">
        <ele>1421.73</ele>
        <time>2018-08-25T07:18:20Z</time>
      </trkpt>
      <trkpt lat="44.96434" lon="6.53603">
        <ele>1421.53</ele>
        <time>2018-08-25T07:18:21Z</time>
      </trkpt>
      <trkpt lat="44.96416" lon="6.53621">
        <ele>1421.47</ele>
        <time>2018-08-25T07:18:22Z</time>
      </trkpt>
      <trkpt lat="44.96398" lon="6.53636">
        <ele>1422.15</ele>
        <time>2018-08-25T07:18:23Z</time>
      </trkpt>
      <trkpt lat="44.96378" lon="6.5365">
        <ele>1421.66</ele>
        <time>2018-08-25T07:18:24Z</time>
      </trkpt>
      <trkpt lat="44.96358" lon="6.53663">
        <ele>1420.11</ele>
        <time>2018-08-25T07:18:25Z</time>
      </trkpt>
      <trkpt lat="44.9634" lon="6.53677">
        <ele>1419.64</ele>
        <time>2018-08-25T07:18:26Z</time>
      </trkpt>
      <trkpt lat="44.96322" lon="6.5369">
        <ele>1418.8</ele>
        <time>2018-08-25T07:18:27Z</time>
      </trkpt>
      <trkpt lat="44.96303" lon="6.53704">
        <ele>1418.55</ele>
        <time>2018-08-25T07:18:28Z</time>
      </trkpt>
      <trkpt lat="44.96285" lon="6.53717">
        <ele>1418.48</ele>
        <time>2018-08-25T07:18:29Z</time>
      </trkpt>
      <trkpt lat="44.96266" lon="6.53731">
        <ele>1418.45</ele>
        <time>2018-08-25T07:18:30Z</time>
      </trkpt>
      <trkpt lat="44.96249" lon="6.53745">
        <ele>1418.45</ele>
        <time>2018-08-25T07:18:31Z</time>
      </trkpt>
      <trkpt lat="44.96231" lon="6.53761">
        <ele>1418.45</ele>
        <time>2018-08-25T07:18:32Z</time>
      </trkpt>
      <trkpt lat="44.96213" lon="6.53777">
        <ele>1418.45</ele>
        <time>2018-08-25T07:18:33Z</time>
      </trkpt>
      <trkpt lat="44.96195" lon="6.53793">
        <ele>1417.75</ele>
        <time>2018-08-25T07:18:34Z</time>
      </trkpt>
      <trkpt lat="44.96177" lon="6.53809">
        <ele>1417.54</ele>
        <time>2018-08-25T07:18:35Z</time>
      </trkpt>
      <trkpt lat="44.96159" lon="6.53826">
        <ele>1417.47</ele>
        <time>2018-08-25T07:18:36Z</time>
      </trkpt>
      <trkpt lat="44.96141" lon="6.53843">
        <ele>1417.45</ele>
        <time>2018-08-25T07:18:37Z</time>
      </trkpt>
      <trkpt lat="44.96123" lon="6.53862">
        <ele>1417.45</ele>
        <time>2018-08-25T07:18:38Z</time>
      </trkpt>
      <trkpt lat="44.96106" lon="6.5388">
        <ele>1417.45</ele>
        <time>2018-08-25T07:18:39Z</time>
      </trkpt>
      <trkpt lat="44.96088" lon="6.53899">
        <ele>1417.45</ele>
        <time>2018-08-25T07:18:40Z</time>
      </trkpt>
      <trkpt lat="44.96071" lon="6.53918">
        <ele>1416.75</ele>
        <time>2018-08-25T07:18:41Z</time>
      </trkpt>
      <trkpt lat="44.96054" lon="6.53937">
        <ele>1416.54</ele>
        <time>2018-08-25T07:18:42Z</time>
      </trkpt>
      <trkpt lat="44.96036" lon="6.53956">
        <ele>1415.77</ele>
        <time>2018-08-25T07:18:43Z</time>
      </trkpt>
      <trkpt lat="44.96018" lon="6.53977">
        <ele>1415.54</ele>
        <time>2018-08-25T07:18:44Z</time>
      </trkpt>
      <trkpt lat="44.96001" lon="6.53997">
        <ele>1415.47</ele>
        <time>2018-08-25T07:18:45Z</time>
      </trkpt>
      <trkpt lat="44.95984" lon="6.54017">
        <ele>1414.75</ele>
        <time>2018-08-25T07:18:46Z</time>
      </trkpt>
      <trkpt lat="44.95967" lon="6.54038">
        <ele>1415.24</ele>
        <time>2018-08-25T07:18:47Z</time>
      </trkpt>
      <trkpt lat="44.9595" lon="6.54058">
        <ele>1415.38</ele>
        <time>2018-08-25T07:18:48Z</time>
      </trkpt>
      <trkpt lat="44.95933" lon="6.54078">
        <ele>1414.03</ele>
        <time>2018-08-25T07:18:49Z</time>
      </trkpt>
      <trkpt lat="44.95916" lon="6.54098">
        <ele>1412.92</ele>
        <time>2018-08-25T07:18:50Z</time>
      </trkpt>
      <trkpt lat="44.95899" lon="6.54118">
        <ele>1411.89</ele>
        <time>2018-08-25T07:18:51Z</time>
      </trkpt>
      <trkpt lat="44.95881" lon="6.54137">
        <ele>1411.58</ele>
        <time>2018-08-25T07:18:52Z</time>
      </trkpt>
      <trkpt lat="44.95864" lon="6.54157">
        <ele>1411.48</ele>
        <time>2018-08-25T07:18:53Z</time>
      </trkpt>
      <trkpt lat="44.95849" lon="6.54177">
        <ele>1410.76</ele>
        <time>2018-08-25T07:18:54Z</time>
      </trkpt>
      <trkpt lat="44.95834" lon="6.542">
        <ele>1409.84</ele>
        <time>2018-08-25T07:18:55Z</time>
      </trkpt>
      <trkpt lat="44.95823" lon="6.54226">
        <ele>1409.56</ele>
        <time>2018-08-25T07:18:56Z</time>
      </trkpt>
      <trkpt lat="44.95813" lon="6.54253">
        <ele>1409.48</ele>
        <time>2018-08-25T07:18:57Z</time>
      </trkpt>
      <trkpt lat="44.95807" lon="6.54281">
        <ele>1410.16</ele>
        <time>2018-08-25T07:18:58Z</time>
      </trkpt>
      <trkpt lat="44.95802" lon="6.5431">
        <ele>1410.36</ele>
        <time>2018-08-25T07:18:59Z</time>
      </trkpt>
      <trkpt lat="44.95797" lon="6.54339">
        <ele>1409.72</ele>
        <time>2018-08-25T07:19:00Z</time>
      </trkpt>
      <trkpt lat="44.95792" lon="6.54366">
        <ele>1409.53</ele>
        <time>2018-08-25T07:19:01Z</time>
      </trkpt>
      <trkpt lat="44.95787" lon="6.54394">
        <ele>1409.47</ele>
        <time>2018-08-25T07:19:02Z</time>
      </trkpt>
      <trkpt lat="44.95783" lon="6.5442">
        <ele>1408.75</ele>
        <time>2018-08-25T07:19:03Z</time>
      </trkpt>
      <trkpt lat="44.95778" lon="6.54447">
        <ele>1408.54</ele>
        <time>2018-08-25T07:19:04Z</time>
      </trkpt>
      <trkpt lat="44.95774" lon="6.54472">
        <ele>1408.47</ele>
        <time>2018-08-25T07:19:05Z</time>
      </trkpt>
      <trkpt lat="44.95765" lon="6.54519">
        <ele>1408.45</ele>
        <time>2018-08-25T07:19:07Z</time>
      </trkpt>
      <trkpt lat="44.95753" lon="6.54563">
        <ele>1407.54</ele>
        <time>2018-08-25T07:19:09Z</time>
      </trkpt>
      <trkpt lat="44.95734" lon="6.54607">
        <ele>1407.66</ele>
        <time>2018-08-25T07:19:11Z</time>
      </trkpt>
      <trkpt lat="44.95721" lon="6.54628">
        <ele>1406.81</ele>
        <time>2018-08-25T07:19:12Z</time>
      </trkpt>
      <trkpt lat="44.95707" lon="6.54649">
        <ele>1406.55</ele>
        <time>2018-08-25T07:19:13Z</time>
      </trkpt>
      <trkpt lat="44.95694" lon="6.54669">
        <ele>1406.48</ele>
        <time>2018-08-25T07:19:14Z</time>
      </trkpt>
      <trkpt lat="44.95681" lon="6.54691">
        <ele>1406.45</ele>
        <time>2018-08-25T07:19:15Z</time>
      </trkpt>
      <trkpt lat="44.95667" lon="6.54715">
        <ele>1406.45</ele>
        <time>2018-08-25T07:19:16Z</time>
      </trkpt>
      <trkpt lat="44.95652" lon="6.54739">
        <ele>1406.45</ele>
        <time>2018-08-25T07:19:17Z</time>
      </trkpt>
      <trkpt lat="44.95636" lon="6.54764">
        <ele>1405.75</ele>
        <time>2018-08-25T07:19:18Z</time>
      </trkpt>
      <trkpt lat="44.95618" lon="6.54789">
        <ele>1405.54</ele>
        <time>2018-08-25T07:19:19Z</time>
      </trkpt>
      <trkpt lat="44.95602" lon="6.54813">
        <ele>1404.77</ele>
        <time>2018-08-25T07:19:20Z</time>
      </trkpt>
      <trkpt lat="44.95586" lon="6.54836">
        <ele>1403.84</ele>
        <time>2018-08-25T07:19:21Z</time>
      </trkpt>
      <trkpt lat="44.95568" lon="6.54856">
        <ele>1402.86</ele>
        <time>2018-08-25T07:19:22Z</time>
      </trkpt>
      <trkpt lat="44.95551" lon="6.54873">
        <ele>1403.27</ele>
        <time>2018-08-25T07:19:23Z</time>
      </trkpt>
      <trkpt lat="44.95533" lon="6.54889">
        <ele>1402.69</ele>
        <time>2018-08-25T07:19:24Z</time>
      </trkpt>
      <trkpt lat="44.95515" lon="6.54903">
        <ele>1402.52</ele>
        <time>2018-08-25T07:19:25Z</time>
      </trkpt>
      <trkpt lat="44.95498" lon="6.54917">
        <ele>1402.47</ele>
        <time>2018-08-25T07:19:26Z</time>
      </trkpt>
      <trkpt lat="44.95481" lon="6.54933">
        <ele>1401.75</ele>
        <time>2018-08-25T07:19:27Z</time>
      </trkpt>
      <trkpt lat="44.95463" lon="6.5495">
        <ele>1402.24</ele>
        <time>2018-08-25T07:19:28Z</time>
      </trkpt>
      <trkpt lat="44.95445" lon="6.54965">
        <ele>1401.68</ele>
        <time>2018-08-25T07:19:29Z</time>
      </trkpt>
      <trkpt lat="44.95428" lon="6.54979">
        <ele>1400.82</ele>
        <time>2018-08-25T07:19:30Z</time>
      </trkpt>
      <trkpt lat="44.95413" lon="6.54998">
        <ele>1399.86</ele>
        <time>2018-08-25T07:19:31Z</time>
      </trkpt>
      <trkpt lat="44.95399" lon="6.5502">
        <ele>1399.57</ele>
        <time>2018-08-25T07:19:32Z</time>
      </trkpt>
      <trkpt lat="44.95386" lon="6.55041">
        <ele>1399.48</ele>
        <time>2018-08-25T07:19:33Z</time>
      </trkpt>
      <trkpt lat="44.95372" lon="6.55063">
        <ele>1399.46</ele>
        <time>2018-08-25T07:19:34Z</time>
      </trkpt>
      <trkpt lat="44.95358" lon="6.55084">
        <ele>1398.75</ele>
        <time>2018-08-25T07:19:35Z</time>
      </trkpt>
      <trkpt lat="44.95344" lon="6.55105">
        <ele>1398.54</ele>
        <time>2018-08-25T07:19:36Z</time>
      </trkpt>
      <trkpt lat="44.9533" lon="6.55125">
        <ele>1398.47</ele>
        <time>2018-08-25T07:19:37Z</time>
      </trkpt>
      <trkpt lat="44.95316" lon="6.55145">
        <ele>1398.45</ele>
        <time>2018-08-25T07:19:38Z</time>
      </trkpt>
      <trkpt lat="44.95302" lon="6.55165">
        <ele>1397.75</ele>
        <time>2018-08-25T07:19:39Z</time>
      </trkpt>
      <trkpt lat="44.95289" lon="6.55186">
        <ele>1397.54</ele>
        <time>2018-08-25T07:19:40Z</time>
      </trkpt>
      <trkpt lat="44.95275" lon="6.55206">
        <ele>1397.47</ele>
        <time>2018-08-25T07:19:41Z</time>
      </trkpt>
      <trkpt lat="44.95261" lon="6.55226">
        <ele>1397.45</ele>
        <time>2018-08-25T07:19:42Z</time>
      </trkpt>
      <trkpt lat="44.95247" lon="6.55245">
        <ele>1397.45</ele>
        <time>2018-08-25T07:19:43Z</time>
      </trkpt>
      <trkpt lat="44.95234" lon="6.55264">
        <ele>1398.15</ele>
        <time>2018-08-25T07:19:44Z</time>
      </trkpt>
      <trkpt lat="44.95222" lon="6.55283">
        <ele>1397.66</ele>
        <time>2018-08-25T07:19:45Z</time>
      </trkpt>
      <trkpt lat="44.95208" lon="6.553">
        <ele>1397.51</ele>
        <time>2018-08-25T07:19:46Z</time>
      </trkpt>
      <trkpt lat="44.95184" lon="6.55336">
        <ele>1396.75</ele>
        <time>2018-08-25T07:19:48Z</time>
      </trkpt>
      <trkpt lat="44.9516" lon="6.55369">
        <ele>1395.77</ele>
        <time>2018-08-25T07:19:50Z</time>
      </trkpt>
      <trkpt lat="44.95136" lon="6.55402">
        <ele>1395.47</ele>
        <time>2018-08-25T07:19:52Z</time>
      </trkpt>
      <trkpt lat="44.95112" lon="6.55436">
        <ele>1394.54</ele>
        <time>2018-08-25T07:19:54Z</time>
      </trkpt>
      <trkpt lat="44.95089" lon="6.55468">
        <ele>1394.45</ele>
        <time>2018-08-25T07:19:56Z</time>
      </trkpt>
      <trkpt lat="44.95067" lon="6.55498">
        <ele>1395.15</ele>
        <time>2018-08-25T07:19:58Z</time>
      </trkpt>
      <trkpt lat="44.95045" lon="6.55526">
        <ele>1393.81</ele>
        <time>2018-08-25T07:20:00Z</time>
      </trkpt>
      <trkpt lat="44.95024" lon="6.55553">
        <ele>1393.48</ele>
        <time>2018-08-25T07:20:02Z</time>
      </trkpt>
      <trkpt lat="44.95005" lon="6.55578">
        <ele>1392.54</ele>
        <time>2018-08-25T07:20:04Z</time>
      </trkpt>
      <trkpt lat="44.94988" lon="6.55602">
        <ele>1392.45</ele>
        <time>2018-08-25T07:20:06Z</time>
      </trkpt>
      <trkpt lat="44.94972" lon="6.55626">
        <ele>1392.45</ele>
        <time>2018-08-25T07:20:08Z</time>
      </trkpt>
      <trkpt lat="44.94955" lon="6.55654">
        <ele>1391.75</ele>
        <time>2018-08-25T07:20:10Z</time>
      </trkpt>
      <trkpt lat="44.94937" lon="6.55681">
        <ele>1391.68</ele>
        <time>2018-08-25T07:20:12Z</time>
      </trkpt>
      <trkpt lat="44.94919" lon="6.55708">
        <ele>1391.47</ele>
        <time>2018-08-25T07:20:14Z</time>
      </trkpt>
      <trkpt lat="44.949" lon="6.55734">
        <ele>1391.45</ele>
        <time>2018-08-25T07:20:16Z</time>
      </trkpt>
      <trkpt lat="44.94881" lon="6.55759">
        <ele>1390.54</ele>
        <time>2018-08-25T07:20:18Z</time>
      </trkpt>
      <trkpt lat="44.94861" lon="6.55785">
        <ele>1389.54</ele>
        <time>2018-08-25T07:20:20Z</time>
      </trkpt>
      <trkpt lat="44.9484" lon="6.55811">
        <ele>1388.75</ele>
        <time>2018-08-25T07:20:22Z</time>
      </trkpt>
      <trkpt lat="44.94818" lon="6.55836">
        <ele>1387.77</ele>
        <time>2018-08-25T07:20:24Z</time>
      </trkpt>
      <trkpt lat="44.94796" lon="6.55859">
        <ele>1386.56</ele>
        <time>2018-08-25T07:20:26Z</time>
      </trkpt>
      <trkpt lat="44.94772" lon="6.55879">
        <ele>1385.76</ele>
        <time>2018-08-25T07:20:28Z</time>
      </trkpt>
      <trkpt lat="44.94749" lon="6.55898">
        <ele>1385.47</ele>
        <time>2018-08-25T07:20:30Z</time>
      </trkpt>
      <trkpt lat="44.94723" lon="6.55913">
        <ele>1385.45</ele>
        <time>2018-08-25T07:20:32Z</time>
      </trkpt>
      <trkpt lat="44.94697" lon="6.55926">
        <ele>1383.63</ele>
        <time>2018-08-25T07:20:34Z</time>
      </trkpt>
      <trkpt lat="44.94672" lon="6.55941">
        <ele>1382.76</ele>
        <time>2018-08-25T07:20:36Z</time>
      </trkpt>
      <trkpt lat="44.9465" lon="6.55961">
        <ele>1380.86</ele>
        <time>2018-08-25T07:20:38Z</time>
      </trkpt>
      <trkpt lat="44.9463" lon="6.55986">
        <ele>1380.48</ele>
        <time>2018-08-25T07:20:40Z</time>
      </trkpt>
      <trkpt lat="44.9461" lon="6.56013">
        <ele>1379.75</ele>
        <time>2018-08-25T07:20:42Z</time>
      </trkpt>
      <trkpt lat="44.94591" lon="6.56038">
        <ele>1378.56</ele>
        <time>2018-08-25T07:20:44Z</time>
      </trkpt>
      <trkpt lat="44.94572" lon="6.56058">
        <ele>1377.76</ele>
        <time>2018-08-25T07:20:46Z</time>
      </trkpt>
      <trkpt lat="44.94552" lon="6.56068">
        <ele>1377.47</ele>
        <time>2018-08-25T07:20:48Z</time>
      </trkpt>
      <trkpt lat="44.94535" lon="6.56083">
        <ele>1376.75</ele>
        <time>2018-08-25T07:20:50Z</time>
      </trkpt>
      <trkpt lat="44.94534" lon="6.56111">
        <ele>1378.99</ele>
        <time>2018-08-25T07:20:52Z</time>
      </trkpt>
      <trkpt lat="44.94523" lon="6.56144">
        <ele>1380.1</ele>
        <time>2018-08-25T07:20:54Z</time>
      </trkpt>
      <trkpt lat="44.94512" lon="6.56176">
        <ele>1379.5</ele>
        <time>2018-08-25T07:20:56Z</time>
      </trkpt>
      <trkpt lat="44.94501" lon="6.56208">
        <ele>1378.54</ele>
        <time>2018-08-25T07:20:58Z</time>
      </trkpt>
      <trkpt lat="44.94491" lon="6.5624">
        <ele>1378.66</ele>
        <time>2018-08-25T07:21:00Z</time>
      </trkpt>
      <trkpt lat="44.94482" lon="6.56274">
        <ele>1378.46</ele>
        <time>2018-08-25T07:21:02Z</time>
      </trkpt>
      <trkpt lat="44.94473" lon="6.56305">
        <ele>1377.54</ele>
        <time>2018-08-25T07:21:04Z</time>
      </trkpt>
      <trkpt lat="44.94463" lon="6.56333">
        <ele>1377.45</ele>
        <time>2018-08-25T07:21:06Z</time>
      </trkpt>
      <trkpt lat="44.94452" lon="6.56356">
        <ele>1378.15</ele>
        <time>2018-08-25T07:21:08Z</time>
      </trkpt>
      <trkpt lat="44.9444" lon="6.5638">
        <ele>1378.42</ele>
        <time>2018-08-25T07:21:10Z</time>
      </trkpt>
      <trkpt lat="44.94426" lon="6.56407">
        <ele>1378.44</ele>
        <time>2018-08-25T07:21:12Z</time>
      </trkpt>
      <trkpt lat="44.94412" lon="6.56435">
        <ele>1377.53</ele>
        <time>2018-08-25T07:21:14Z</time>
      </trkpt>
      <trkpt lat="44.94399" lon="6.56465">
        <ele>1377.45</ele>
        <time>2018-08-25T07:21:16Z</time>
      </trkpt>
      <trkpt lat="44.94387" lon="6.56496">
        <ele>1377.45</ele>
        <time>2018-08-25T07:21:18Z</time>
      </trkpt>
      <trkpt lat="44.94374" lon="6.56527">
        <ele>1377.45</ele>
        <time>2018-08-25T07:21:20Z</time>
      </trkpt>
      <trkpt lat="44.94362" lon="6.56558">
        <ele>1378.15</ele>
        <time>2018-08-25T07:21:22Z</time>
      </trkpt>
      <trkpt lat="44.94352" lon="6.56589">
        <ele>1378.42</ele>
        <time>2018-08-25T07:21:24Z</time>
      </trkpt>
      <trkpt lat="44.94342" lon="6.56619">
        <ele>1378.44</ele>
        <time>2018-08-25T07:21:26Z</time>
      </trkpt>
      <trkpt lat="44.94332" lon="6.5665">
        <ele>1378.65</ele>
        <time>2018-08-25T07:21:28Z</time>
      </trkpt>
      <trkpt lat="44.94324" lon="6.5668">
        <ele>1378.46</ele>
        <time>2018-08-25T07:21:30Z</time>
      </trkpt>
      <trkpt lat="44.94314" lon="6.5671">
        <ele>1377.54</ele>
        <time>2018-08-25T07:21:32Z</time>
      </trkpt>
      <trkpt lat="44.94301" lon="6.56739">
        <ele>1377.45</ele>
        <time>2018-08-25T07:21:34Z</time>
      </trkpt>
      <trkpt lat="44.94289" lon="6.56765">
        <ele>1376.54</ele>
        <time>2018-08-25T07:21:36Z</time>
      </trkpt>
      <trkpt lat="44.94278" lon="6.56786">
        <ele>1376.45</ele>
        <time>2018-08-25T07:21:38Z</time>
      </trkpt>
      <trkpt lat="44.94263" lon="6.56815">
        <ele>1375.75</ele>
        <time>2018-08-25T07:21:41Z</time>
      </trkpt>
      <trkpt lat="44.9425" lon="6.56835">
        <ele>1375.47</ele>
        <time>2018-08-25T07:21:43Z</time>
      </trkpt>
      <trkpt lat="44.94233" lon="6.56858">
        <ele>1374.75</ele>
        <time>2018-08-25T07:21:45Z</time>
      </trkpt>
      <trkpt lat="44.94215" lon="6.56879">
        <ele>1373.77</ele>
        <time>2018-08-25T07:21:47Z</time>
      </trkpt>
      <trkpt lat="44.94195" lon="6.569">
        <ele>1373.47</ele>
        <time>2018-08-25T07:21:49Z</time>
      </trkpt>
      <trkpt lat="44.94175" lon="6.56919">
        <ele>1374.36</ele>
        <time>2018-08-25T07:21:51Z</time>
      </trkpt>
      <trkpt lat="44.94155" lon="6.56937">
        <ele>1374.44</ele>
        <time>2018-08-25T07:21:53Z</time>
      </trkpt>
      <trkpt lat="44.94135" lon="6.56953">
        <ele>1372.83</ele>
        <time>2018-08-25T07:21:55Z</time>
      </trkpt>
      <trkpt lat="44.94115" lon="6.56973">
        <ele>1373.18</ele>
        <time>2018-08-25T07:21:57Z</time>
      </trkpt>
      <trkpt lat="44.94097" lon="6.56995">
        <ele>1373.63</ele>
        <time>2018-08-25T07:21:59Z</time>
      </trkpt>
      <trkpt lat="44.94079" lon="6.57017">
        <ele>1374.37</ele>
        <time>2018-08-25T07:22:01Z</time>
      </trkpt>
      <trkpt lat="44.94063" lon="6.57041">
        <ele>1375.14</ele>
        <time>2018-08-25T07:22:03Z</time>
      </trkpt>
      <trkpt lat="44.94046" lon="6.57065">
        <ele>1375.42</ele>
        <time>2018-08-25T07:22:05Z</time>
      </trkpt>
      <trkpt lat="44.9403" lon="6.57091">
        <ele>1374.74</ele>
        <time>2018-08-25T07:22:07Z</time>
      </trkpt>
      <trkpt lat="44.94015" lon="6.57119">
        <ele>1373.77</ele>
        <time>2018-08-25T07:22:09Z</time>
      </trkpt>
      <trkpt lat="44.94001" lon="6.57147">
        <ele>1374.17</ele>
        <time>2018-08-25T07:22:11Z</time>
      </trkpt>
      <trkpt lat="44.93987" lon="6.57175">
        <ele>1374.42</ele>
        <time>2018-08-25T07:22:13Z</time>
      </trkpt>
      <trkpt lat="44.93975" lon="6.57204">
        <ele>1373.74</ele>
        <time>2018-08-25T07:22:15Z</time>
      </trkpt>
      <trkpt lat="44.93964" lon="6.57233">
        <ele>1374.17</ele>
        <time>2018-08-25T07:22:17Z</time>
      </trkpt>
      <trkpt lat="44.93954" lon="6.57263">
        <ele>1373.72</ele>
        <time>2018-08-25T07:22:19Z</time>
      </trkpt>
      <trkpt lat="44.93945" lon="6.57293">
        <ele>1373.47</ele>
        <time>2018-08-25T07:22:21Z</time>
      </trkpt>
      <trkpt lat="44.93936" lon="6.57322">
        <ele>1373.45</ele>
        <time>2018-08-25T07:22:23Z</time>
      </trkpt>
      <trkpt lat="44.9393" lon="6.5735">
        <ele>1371.84</ele>
        <time>2018-08-25T07:22:25Z</time>
      </trkpt>
      <trkpt lat="44.93922" lon="6.57379">
        <ele>1371.48</ele>
        <time>2018-08-25T07:22:27Z</time>
      </trkpt>
      <trkpt lat="44.93913" lon="6.57409">
        <ele>1371.45</ele>
        <time>2018-08-25T07:22:29Z</time>
      </trkpt>
      <trkpt lat="44.93905" lon="6.5744">
        <ele>1371.45</ele>
        <time>2018-08-25T07:22:31Z</time>
      </trkpt>
      <trkpt lat="44.93898" lon="6.57467">
        <ele>1372.15</ele>
        <time>2018-08-25T07:22:33Z</time>
      </trkpt>
      <trkpt lat="44.9389" lon="6.57494">
        <ele>1371.51</ele>
        <time>2018-08-25T07:22:35Z</time>
      </trkpt>
      <trkpt lat="44.93884" lon="6.57524">
        <ele>1371.66</ele>
        <time>2018-08-25T07:22:37Z</time>
      </trkpt>
      <trkpt lat="44.93873" lon="6.57561">
        <ele>1371.67</ele>
        <time>2018-08-25T07:22:39Z</time>
      </trkpt>
      <trkpt lat="44.93861" lon="6.57598">
        <ele>1370.77</ele>
        <time>2018-08-25T07:22:41Z</time>
      </trkpt>
      <trkpt lat="44.93852" lon="6.57631">
        <ele>1368.86</ele>
        <time>2018-08-25T07:22:43Z</time>
      </trkpt>
      <trkpt lat="44.93843" lon="6.57665">
        <ele>1368.48</ele>
        <time>2018-08-25T07:22:45Z</time>
      </trkpt>
      <trkpt lat="44.93835" lon="6.57699">
        <ele>1368.45</ele>
        <time>2018-08-25T07:22:47Z</time>
      </trkpt>
      <trkpt lat="44.93826" lon="6.57732">
        <ele>1368.45</ele>
        <time>2018-08-25T07:22:49Z</time>
      </trkpt>
      <trkpt lat="44.93818" lon="6.57765">
        <ele>1368.45</ele>
        <time>2018-08-25T07:22:51Z</time>
      </trkpt>
      <trkpt lat="44.93809" lon="6.57797">
        <ele>1366.83</ele>
        <time>2018-08-25T07:22:53Z</time>
      </trkpt>
      <trkpt lat="44.938" lon="6.5783">
        <ele>1364.87</ele>
        <time>2018-08-25T07:22:55Z</time>
      </trkpt>
      <trkpt lat="44.9379" lon="6.57864">
        <ele>1363.78</ele>
        <time>2018-08-25T07:22:57Z</time>
      </trkpt>
      <trkpt lat="44.9378" lon="6.57903">
        <ele>1362.57</ele>
        <time>2018-08-25T07:22:59Z</time>
      </trkpt>
      <trkpt lat="44.93771" lon="6.57941">
        <ele>1361.76</ele>
        <time>2018-08-25T07:23:01Z</time>
      </trkpt>
      <trkpt lat="44.9376" lon="6.5798">
        <ele>1361.47</ele>
        <time>2018-08-25T07:23:03Z</time>
      </trkpt>
      <trkpt lat="44.93749" lon="6.5802">
        <ele>1360.54</ele>
        <time>2018-08-25T07:23:05Z</time>
      </trkpt>
      <trkpt lat="44.93739" lon="6.58063">
        <ele>1360.45</ele>
        <time>2018-08-25T07:23:07Z</time>
      </trkpt>
      <trkpt lat="44.93733" lon="6.58088">
        <ele>1361.15</ele>
        <time>2018-08-25T07:23:08Z</time>
      </trkpt>
      <trkpt lat="44.93726" lon="6.58113">
        <ele>1360.66</ele>
        <time>2018-08-25T07:23:09Z</time>
      </trkpt>
      <trkpt lat="44.93718" lon="6.58139">
        <ele>1360.51</ele>
        <time>2018-08-25T07:23:10Z</time>
      </trkpt>
      <trkpt lat="44.9371" lon="6.58164">
        <ele>1359.76</ele>
        <time>2018-08-25T07:23:11Z</time>
      </trkpt>
      <trkpt lat="44.93704" lon="6.58189">
        <ele>1358.84</ele>
        <time>2018-08-25T07:23:12Z</time>
      </trkpt>
      <trkpt lat="44.93697" lon="6.58215">
        <ele>1358.56</ele>
        <time>2018-08-25T07:23:13Z</time>
      </trkpt>
      <trkpt lat="44.9369" lon="6.58239">
        <ele>1358.48</ele>
        <time>2018-08-25T07:23:14Z</time>
      </trkpt>
      <trkpt lat="44.93674" lon="6.58282">
        <ele>1356.84</ele>
        <time>2018-08-25T07:23:16Z</time>
      </trkpt>
      <trkpt lat="44.93657" lon="6.58319">
        <ele>1356.48</ele>
        <time>2018-08-25T07:23:18Z</time>
      </trkpt>
      <trkpt lat="44.93641" lon="6.58356">
        <ele>1356.45</ele>
        <time>2018-08-25T07:23:20Z</time>
      </trkpt>
      <trkpt lat="44.93624" lon="6.58393">
        <ele>1355.75</ele>
        <time>2018-08-25T07:23:22Z</time>
      </trkpt>
      <trkpt lat="44.93607" lon="6.58431">
        <ele>1355.47</ele>
        <time>2018-08-25T07:23:24Z</time>
      </trkpt>
      <trkpt lat="44.93589" lon="6.58468">
        <ele>1356.36</ele>
        <time>2018-08-25T07:23:26Z</time>
      </trkpt>
      <trkpt lat="44.93571" lon="6.58501">
        <ele>1356.44</ele>
        <time>2018-08-25T07:23:28Z</time>
      </trkpt>
      <trkpt lat="44.93553" lon="6.58534">
        <ele>1357.35</ele>
        <time>2018-08-25T07:23:30Z</time>
      </trkpt>
      <trkpt lat="44.93535" lon="6.58567">
        <ele>1359.05</ele>
        <time>2018-08-25T07:23:32Z</time>
      </trkpt>
      <trkpt lat="44.93517" lon="6.586">
        <ele>1360.11</ele>
        <time>2018-08-25T07:23:34Z</time>
      </trkpt>
      <trkpt lat="44.935" lon="6.58633">
        <ele>1361.11</ele>
        <time>2018-08-25T07:23:36Z</time>
      </trkpt>
      <trkpt lat="44.93481" lon="6.58667">
        <ele>1362.33</ele>
        <time>2018-08-25T07:23:38Z</time>
      </trkpt>
      <trkpt lat="44.9346" lon="6.58702">
        <ele>1363.13</ele>
        <time>2018-08-25T07:23:40Z</time>
      </trkpt>
      <trkpt lat="44.93439" lon="6.58736">
        <ele>1364.33</ele>
        <time>2018-08-25T07:23:42Z</time>
      </trkpt>
      <trkpt lat="44.93419" lon="6.5877">
        <ele>1364.43</ele>
        <time>2018-08-25T07:23:44Z</time>
      </trkpt>
      <trkpt lat="44.934" lon="6.58801">
        <ele>1365.35</ele>
        <time>2018-08-25T07:23:46Z</time>
      </trkpt>
      <trkpt lat="44.93381" lon="6.5883">
        <ele>1364.53</ele>
        <time>2018-08-25T07:23:48Z</time>
      </trkpt>
      <trkpt lat="44.93362" lon="6.58858">
        <ele>1364.66</ele>
        <time>2018-08-25T07:23:50Z</time>
      </trkpt>
      <trkpt lat="44.93343" lon="6.58885">
        <ele>1365.16</ele>
        <time>2018-08-25T07:23:52Z</time>
      </trkpt>
      <trkpt lat="44.93326" lon="6.5891">
        <ele>1364.72</ele>
        <time>2018-08-25T07:23:54Z</time>
      </trkpt>
      <trkpt lat="44.93309" lon="6.58934">
        <ele>1365.38</ele>
        <time>2018-08-25T07:23:56Z</time>
      </trkpt>
      <trkpt lat="44.93292" lon="6.58958">
        <ele>1365.65</ele>
        <time>2018-08-25T07:23:58Z</time>
      </trkpt>
      <trkpt lat="44.93276" lon="6.58982">
        <ele>1365.46</ele>
        <time>2018-08-25T07:24:00Z</time>
      </trkpt>
      <trkpt lat="44.9326" lon="6.59008">
        <ele>1365.24</ele>
        <time>2018-08-25T07:24:02Z</time>
      </trkpt>
      <trkpt lat="44.93244" lon="6.59036">
        <ele>1365.64</ele>
        <time>2018-08-25T07:24:04Z</time>
      </trkpt>
      <trkpt lat="44.93227" lon="6.59064">
        <ele>1365.67</ele>
        <time>2018-08-25T07:24:06Z</time>
      </trkpt>
      <trkpt lat="44.93209" lon="6.59094">
        <ele>1363.86</ele>
        <time>2018-08-25T07:24:08Z</time>
      </trkpt>
      <trkpt lat="44.93191" lon="6.59123">
        <ele>1363.48</ele>
        <time>2018-08-25T07:24:10Z</time>
      </trkpt>
      <trkpt lat="44.93171" lon="6.59155">
        <ele>1361.84</ele>
        <time>2018-08-25T07:24:12Z</time>
      </trkpt>
      <trkpt lat="44.93152" lon="6.59186">
        <ele>1361.27</ele>
        <time>2018-08-25T07:24:14Z</time>
      </trkpt>
      <trkpt lat="44.93133" lon="6.59216">
        <ele>1359.61</ele>
        <time>2018-08-25T07:24:16Z</time>
      </trkpt>
      <trkpt lat="44.93115" lon="6.59248">
        <ele>1357.85</ele>
        <time>2018-08-25T07:24:18Z</time>
      </trkpt>
      <trkpt lat="44.93095" lon="6.59279">
        <ele>1355.87</ele>
        <time>2018-08-25T07:24:20Z</time>
      </trkpt>
      <trkpt lat="44.93077" lon="6.59308">
        <ele>1353.87</ele>
        <time>2018-08-25T07:24:22Z</time>
      </trkpt>
      <trkpt lat="44.93057" lon="6.59329">
        <ele>1351.66</ele>
        <time>2018-08-25T07:24:24Z</time>
      </trkpt>
      <trkpt lat="44.93044" lon="6.59355">
        <ele>1349.85</ele>
        <time>2018-08-25T07:24:26Z</time>
      </trkpt>
      <trkpt lat="44.93029" lon="6.59389">
        <ele>1349.48</ele>
        <time>2018-08-25T07:24:28Z</time>
      </trkpt>
      <trkpt lat="44.93008" lon="6.59424">
        <ele>1347.84</ele>
        <time>2018-08-25T07:24:30Z</time>
      </trkpt>
      <trkpt lat="44.92986" lon="6.59462">
        <ele>1346.78</ele>
        <time>2018-08-25T07:24:32Z</time>
      </trkpt>
      <trkpt lat="44.92966" lon="6.595">
        <ele>1346.48</ele>
        <time>2018-08-25T07:24:34Z</time>
      </trkpt>
      <trkpt lat="44.92946" lon="6.5954">
        <ele>1346.45</ele>
        <time>2018-08-25T07:24:36Z</time>
      </trkpt>
      <trkpt lat="44.92928" lon="6.59577">
        <ele>1346.45</ele>
        <time>2018-08-25T07:24:38Z</time>
      </trkpt>
      <trkpt lat="44.92911" lon="6.59612">
        <ele>1347.35</ele>
        <time>2018-08-25T07:24:40Z</time>
      </trkpt>
      <trkpt lat="44.92896" lon="6.59648">
        <ele>1346.74</ele>
        <time>2018-08-25T07:24:42Z</time>
      </trkpt>
      <trkpt lat="44.9288" lon="6.59683">
        <ele>1346.47</ele>
        <time>2018-08-25T07:24:44Z</time>
      </trkpt>
      <trkpt lat="44.92864" lon="6.59718">
        <ele>1347.15</ele>
        <time>2018-08-25T07:24:46Z</time>
      </trkpt>
      <trkpt lat="44.92847" lon="6.59754">
        <ele>1348.33</ele>
        <time>2018-08-25T07:24:48Z</time>
      </trkpt>
      <trkpt lat="44.92829" lon="6.59793">
        <ele>1348.43</ele>
        <time>2018-08-25T07:24:50Z</time>
      </trkpt>
      <trkpt lat="44.92812" lon="6.59833">
        <ele>1348.44</ele>
        <time>2018-08-25T07:24:52Z</time>
      </trkpt>
      <trkpt lat="44.92794" lon="6.59872">
        <ele>1347.74</ele>
        <time>2018-08-25T07:24:54Z</time>
      </trkpt>
      <trkpt lat="44.92777" lon="6.5991">
        <ele>1347.47</ele>
        <time>2018-08-25T07:24:56Z</time>
      </trkpt>
      <trkpt lat="44.9276" lon="6.59946">
        <ele>1346.75</ele>
        <time>2018-08-25T07:24:58Z</time>
      </trkpt>
      <trkpt lat="44.92743" lon="6.59984">
        <ele>1345.77</ele>
        <time>2018-08-25T07:25:00Z</time>
      </trkpt>
      <trkpt lat="44.92726" lon="6.60022">
        <ele>1344.56</ele>
        <time>2018-08-25T07:25:02Z</time>
      </trkpt>
      <trkpt lat="44.92708" lon="6.60061">
        <ele>1343.76</ele>
        <time>2018-08-25T07:25:04Z</time>
      </trkpt>
      <trkpt lat="44.92692" lon="6.601">
        <ele>1342.56</ele>
        <time>2018-08-25T07:25:06Z</time>
      </trkpt>
      <trkpt lat="44.92675" lon="6.60137">
        <ele>1341.55</ele>
        <time>2018-08-25T07:25:08Z</time>
      </trkpt>
      <trkpt lat="44.92658" lon="6.60174">
        <ele>1340.75</ele>
        <time>2018-08-25T07:25:10Z</time>
      </trkpt>
      <trkpt lat="44.92641" lon="6.60213">
        <ele>1338.86</ele>
        <time>2018-08-25T07:25:12Z</time>
      </trkpt>
      <trkpt lat="44.92623" lon="6.60252">
        <ele>1338.48</ele>
        <time>2018-08-25T07:25:14Z</time>
      </trkpt>
      <trkpt lat="44.92606" lon="6.60291">
        <ele>1338.45</ele>
        <time>2018-08-25T07:25:16Z</time>
      </trkpt>
      <trkpt lat="44.92589" lon="6.6033">
        <ele>1337.54</ele>
        <time>2018-08-25T07:25:18Z</time>
      </trkpt>
      <trkpt lat="44.9258" lon="6.60354">
        <ele>1336.07</ele>
        <time>2018-08-25T07:25:19Z</time>
      </trkpt>
      <trkpt lat="44.92569" lon="6.60379">
        <ele>1336.33</ele>
        <time>2018-08-25T07:25:20Z</time>
      </trkpt>
      <trkpt lat="44.92557" lon="6.60403">
        <ele>1337.11</ele>
        <time>2018-08-25T07:25:21Z</time>
      </trkpt>
      <trkpt lat="44.92545" lon="6.60426">
        <ele>1337.34</ele>
        <time>2018-08-25T07:25:22Z</time>
      </trkpt>
      <trkpt lat="44.92534" lon="6.6045">
        <ele>1336.02</ele>
        <time>2018-08-25T07:25:23Z</time>
      </trkpt>
      <trkpt lat="44.92523" lon="6.60473">
        <ele>1335.62</ele>
        <time>2018-08-25T07:25:24Z</time>
      </trkpt>
      <trkpt lat="44.92513" lon="6.60497">
        <ele>1335.5</ele>
        <time>2018-08-25T07:25:25Z</time>
      </trkpt>
      <trkpt lat="44.92503" lon="6.6052">
        <ele>1335.46</ele>
        <time>2018-08-25T07:25:26Z</time>
      </trkpt>
      <trkpt lat="44.92493" lon="6.60543">
        <ele>1335.45</ele>
        <time>2018-08-25T07:25:27Z</time>
      </trkpt>
      <trkpt lat="44.92484" lon="6.60565">
        <ele>1335.45</ele>
        <time>2018-08-25T07:25:28Z</time>
      </trkpt>
      <trkpt lat="44.92475" lon="6.60587">
        <ele>1334.75</ele>
        <time>2018-08-25T07:25:29Z</time>
      </trkpt>
      <trkpt lat="44.92457" lon="6.60632">
        <ele>1333.77</ele>
        <time>2018-08-25T07:25:31Z</time>
      </trkpt>
      <trkpt lat="44.92446" lon="6.60658">
        <ele>1333.54</ele>
        <time>2018-08-25T07:25:32Z</time>
      </trkpt>
      <trkpt lat="44.92435" lon="6.60684">
        <ele>1334.17</ele>
        <time>2018-08-25T07:25:33Z</time>
      </trkpt>
      <trkpt lat="44.92423" lon="6.60708">
        <ele>1334.36</ele>
        <time>2018-08-25T07:25:34Z</time>
      </trkpt>
      <trkpt lat="44.92413" lon="6.60732">
        <ele>1334.42</ele>
        <time>2018-08-25T07:25:35Z</time>
      </trkpt>
      <trkpt lat="44.92404" lon="6.60754">
        <ele>1334.44</ele>
        <time>2018-08-25T07:25:36Z</time>
      </trkpt>
      <trkpt lat="44.92388" lon="6.60795">
        <ele>1334.44</ele>
        <time>2018-08-25T07:25:38Z</time>
      </trkpt>
      <trkpt lat="44.92374" lon="6.6083">
        <ele>1334.44</ele>
        <time>2018-08-25T07:25:40Z</time>
      </trkpt>
      <trkpt lat="44.9236" lon="6.60862">
        <ele>1333.74</ele>
        <time>2018-08-25T07:25:42Z</time>
      </trkpt>
      <trkpt lat="44.92347" lon="6.60894">
        <ele>1333.47</ele>
        <time>2018-08-25T07:25:44Z</time>
      </trkpt>
      <trkpt lat="44.92334" lon="6.60927">
        <ele>1333.45</ele>
        <time>2018-08-25T07:25:46Z</time>
      </trkpt>
      <trkpt lat="44.92321" lon="6.6096">
        <ele>1333.45</ele>
        <time>2018-08-25T07:25:48Z</time>
      </trkpt>
      <trkpt lat="44.92308" lon="6.60993">
        <ele>1332.74</ele>
        <time>2018-08-25T07:25:50Z</time>
      </trkpt>
      <trkpt lat="44.92296" lon="6.61027">
        <ele>1333.38</ele>
        <time>2018-08-25T07:25:52Z</time>
      </trkpt>
      <trkpt lat="44.92286" lon="6.61063">
        <ele>1334.14</ele>
        <time>2018-08-25T07:25:54Z</time>
      </trkpt>
      <trkpt lat="44.92274" lon="6.61102">
        <ele>1334.42</ele>
        <time>2018-08-25T07:25:56Z</time>
      </trkpt>
      <trkpt lat="44.92262" lon="6.61144">
        <ele>1335.14</ele>
        <time>2018-08-25T07:25:58Z</time>
      </trkpt>
      <trkpt lat="44.9225" lon="6.61181">
        <ele>1334.51</ele>
        <time>2018-08-25T07:26:00Z</time>
      </trkpt>
      <trkpt lat="44.92236" lon="6.61208">
        <ele>1332.56</ele>
        <time>2018-08-25T07:26:03Z</time>
      </trkpt>
      <trkpt lat="44.92236" lon="6.61239">
        <ele>1333.15</ele>
        <time>2018-08-25T07:26:06Z</time>
      </trkpt>
      <trkpt lat="44.92246" lon="6.61274">
        <ele>1331.76</ele>
        <time>2018-08-25T07:26:09Z</time>
      </trkpt>
      <trkpt lat="44.92245" lon="6.61303">
        <ele>1331.47</ele>
        <time>2018-08-25T07:26:11Z</time>
      </trkpt>
      <trkpt lat="44.92242" lon="6.61333">
        <ele>1330.75</ele>
        <time>2018-08-25T07:26:13Z</time>
      </trkpt>
      <trkpt lat="44.92241" lon="6.61365">
        <ele>1330.47</ele>
        <time>2018-08-25T07:26:15Z</time>
      </trkpt>
      <trkpt lat="44.92236" lon="6.61401">
        <ele>1330.45</ele>
        <time>2018-08-25T07:26:17Z</time>
      </trkpt>
      <trkpt lat="44.92228" lon="6.61438">
        <ele>1330.45</ele>
        <time>2018-08-25T07:26:19Z</time>
      </trkpt>
      <trkpt lat="44.92217" lon="6.61474">
        <ele>1331.35</ele>
        <time>2018-08-25T07:26:21Z</time>
      </trkpt>
      <trkpt lat="44.92201" lon="6.61511">
        <ele>1331.23</ele>
        <time>2018-08-25T07:26:23Z</time>
      </trkpt>
      <trkpt lat="44.92182" lon="6.61545">
        <ele>1331.43</ele>
        <time>2018-08-25T07:26:25Z</time>
      </trkpt>
      <trkpt lat="44.92162" lon="6.61576">
        <ele>1329.83</ele>
        <time>2018-08-25T07:26:27Z</time>
      </trkpt>
      <trkpt lat="44.92144" lon="6.61604">
        <ele>1328.57</ele>
        <time>2018-08-25T07:26:29Z</time>
      </trkpt>
      <trkpt lat="44.92124" lon="6.61632">
        <ele>1330.07</ele>
        <time>2018-08-25T07:26:31Z</time>
      </trkpt>
      <trkpt lat="44.92104" lon="6.61659">
        <ele>1330.41</ele>
        <time>2018-08-25T07:26:33Z</time>
      </trkpt>
      <trkpt lat="44.92085" lon="6.61687">
        <ele>1330.44</ele>
        <time>2018-08-25T07:26:35Z</time>
      </trkpt>
      <trkpt lat="44.92065" lon="6.61718">
        <ele>1330.44</ele>
        <time>2018-08-25T07:26:37Z</time>
      </trkpt>
      <trkpt lat="44.92036" lon="6.61754">
        <ele>1329.54</ele>
        <time>2018-08-25T07:26:39Z</time>
      </trkpt>
      <trkpt lat="44.9202" lon="6.61775">
        <ele>1328.77</ele>
        <time>2018-08-25T07:26:40Z</time>
      </trkpt>
      <trkpt lat="44.92003" lon="6.61794">
        <ele>1328.54</ele>
        <time>2018-08-25T07:26:41Z</time>
      </trkpt>
      <trkpt lat="44.91988" lon="6.61813">
        <ele>1328.47</ele>
        <time>2018-08-25T07:26:42Z</time>
      </trkpt>
      <trkpt lat="44.91974" lon="6.61831">
        <ele>1329.15</ele>
        <time>2018-08-25T07:26:43Z</time>
      </trkpt>
      <trkpt lat="44.9196" lon="6.61849">
        <ele>1330.06</ele>
        <time>2018-08-25T07:26:44Z</time>
      </trkpt>
      <trkpt lat="44.91934" lon="6.6188">
        <ele>1331.53</ele>
        <time>2018-08-25T07:26:46Z</time>
      </trkpt>
      <trkpt lat="44.91913" lon="6.61909">
        <ele>1332.36</ele>
        <time>2018-08-25T07:26:48Z</time>
      </trkpt>
      <trkpt lat="44.91893" lon="6.61937">
        <ele>1331.53</ele>
        <time>2018-08-25T07:26:50Z</time>
      </trkpt>
      <trkpt lat="44.91876" lon="6.61966">
        <ele>1331.24</ele>
        <time>2018-08-25T07:26:52Z</time>
      </trkpt>
      <trkpt lat="44.91861" lon="6.61991">
        <ele>1331.64</ele>
        <time>2018-08-25T07:26:54Z</time>
      </trkpt>
      <trkpt lat="44.91846" lon="6.62018">
        <ele>1332.16</ele>
        <time>2018-08-25T07:26:56Z</time>
      </trkpt>
      <trkpt lat="44.91831" lon="6.62045">
        <ele>1332.42</ele>
        <time>2018-08-25T07:26:58Z</time>
      </trkpt>
      <trkpt lat="44.91817" lon="6.6207">
        <ele>1331.53</ele>
        <time>2018-08-25T07:27:00Z</time>
      </trkpt>
      <trkpt lat="44.91803" lon="6.62096">
        <ele>1331.45</ele>
        <time>2018-08-25T07:27:02Z</time>
      </trkpt>
      <trkpt lat="44.91788" lon="6.62121">
        <ele>1331.45</ele>
        <time>2018-08-25T07:27:04Z</time>
      </trkpt>
      <trkpt lat="44.91775" lon="6.62145">
        <ele>1331.45</ele>
        <time>2018-08-25T07:27:06Z</time>
      </trkpt>
      <trkpt lat="44.91759" lon="6.62169">
        <ele>1331.44</ele>
        <time>2018-08-25T07:27:08Z</time>
      </trkpt>
      <trkpt lat="44.91741" lon="6.62189">
        <ele>1330.54</ele>
        <time>2018-08-25T07:27:10Z</time>
      </trkpt>
      <trkpt lat="44.91721" lon="6.62204">
        <ele>1329.54</ele>
        <time>2018-08-25T07:27:12Z</time>
      </trkpt>
      <trkpt lat="44.91701" lon="6.62217">
        <ele>1327.84</ele>
        <time>2018-08-25T07:27:14Z</time>
      </trkpt>
      <trkpt lat="44.9168" lon="6.62227">
        <ele>1329.3</ele>
        <time>2018-08-25T07:27:16Z</time>
      </trkpt>
      <trkpt lat="44.91657" lon="6.62239">
        <ele>1329.43</ele>
        <time>2018-08-25T07:27:18Z</time>
      </trkpt>
      <trkpt lat="44.91635" lon="6.62249">
        <ele>1328.53</ele>
        <time>2018-08-25T07:27:20Z</time>
      </trkpt>
      <trkpt lat="44.91613" lon="6.62258">
        <ele>1328.45</ele>
        <time>2018-08-25T07:27:22Z</time>
      </trkpt>
      <trkpt lat="44.91594" lon="6.62265">
        <ele>1328.24</ele>
        <time>2018-08-25T07:27:24Z</time>
      </trkpt>
      <trkpt lat="44.91576" lon="6.6227">
        <ele>1327.52</ele>
        <time>2018-08-25T07:27:26Z</time>
      </trkpt>
      <trkpt lat="44.91554" lon="6.62277">
        <ele>1324.86</ele>
        <time>2018-08-25T07:27:29Z</time>
      </trkpt>
      <trkpt lat="44.91531" lon="6.62283">
        <ele>1322.64</ele>
        <time>2018-08-25T07:27:32Z</time>
      </trkpt>
      <trkpt lat="44.91509" lon="6.62288">
        <ele>1321.75</ele>
        <time>2018-08-25T07:27:35Z</time>
      </trkpt>
      <trkpt lat="44.91487" lon="6.62292">
        <ele>1318.83</ele>
        <time>2018-08-25T07:27:50Z</time>
      </trkpt>
      <trkpt lat="44.91466" lon="6.62298">
        <ele>1318.48</ele>
        <time>2018-08-25T07:27:52Z</time>
      </trkpt>
      <trkpt lat="44.91445" lon="6.62305">
        <ele>1317.96</ele>
        <time>2018-08-25T07:27:54Z</time>
      </trkpt>
      <trkpt lat="44.91421" lon="6.62313">
        <ele>1315.88</ele>
        <time>2018-08-25T07:27:56Z</time>
      </trkpt>
      <trkpt lat="44.91395" lon="6.62321">
        <ele>1314.57</ele>
        <time>2018-08-25T07:27:58Z</time>
      </trkpt>
      <trkpt lat="44.9137" lon="6.62329">
        <ele>1313.76</ele>
        <time>2018-08-25T07:28:00Z</time>
      </trkpt>
      <trkpt lat="44.91347" lon="6.62343">
        <ele>1310.95</ele>
        <time>2018-08-25T07:28:02Z</time>
      </trkpt>
      <trkpt lat="44.91325" lon="6.62365">
        <ele>1308.18</ele>
        <time>2018-08-25T07:28:04Z</time>
      </trkpt>
      <trkpt lat="44.91301" lon="6.62385">
        <ele>1308.42</ele>
        <time>2018-08-25T07:28:06Z</time>
      </trkpt>
      <trkpt lat="44.91274" lon="6.62395">
        <ele>1306.13</ele>
        <time>2018-08-25T07:28:08Z</time>
      </trkpt>
      <trkpt lat="44.91245" lon="6.62396">
        <ele>1303.9</ele>
        <time>2018-08-25T07:28:10Z</time>
      </trkpt>
      <trkpt lat="44.91216" lon="6.62395">
        <ele>1302.79</ele>
        <time>2018-08-25T07:28:12Z</time>
      </trkpt>
      <trkpt lat="44.91188" lon="6.62399">
        <ele>1300.87</ele>
        <time>2018-08-25T07:28:14Z</time>
      </trkpt>
      <trkpt lat="44.91161" lon="6.62406">
        <ele>1300.48</ele>
        <time>2018-08-25T07:28:16Z</time>
      </trkpt>
      <trkpt lat="44.91135" lon="6.62415">
        <ele>1298.84</ele>
        <time>2018-08-25T07:28:18Z</time>
      </trkpt>
      <trkpt lat="44.91112" lon="6.62433">
        <ele>1297.78</ele>
        <time>2018-08-25T07:28:20Z</time>
      </trkpt>
      <trkpt lat="44.91092" lon="6.62461">
        <ele>1298.39</ele>
        <time>2018-08-25T07:28:22Z</time>
      </trkpt>
      <trkpt lat="44.91071" lon="6.6249">
        <ele>1298.44</ele>
        <time>2018-08-25T07:28:24Z</time>
      </trkpt>
      <trkpt lat="44.91049" lon="6.62518">
        <ele>1298.65</ele>
        <time>2018-08-25T07:28:26Z</time>
      </trkpt>
      <trkpt lat="44.91026" lon="6.62548">
        <ele>1297.76</ele>
        <time>2018-08-25T07:28:28Z</time>
      </trkpt>
      <trkpt lat="44.91003" lon="6.62577">
        <ele>1295.37</ele>
        <time>2018-08-25T07:28:30Z</time>
      </trkpt>
      <trkpt lat="44.90979" lon="6.62602">
        <ele>1292.22</ele>
        <time>2018-08-25T07:28:32Z</time>
      </trkpt>
      <trkpt lat="44.90953" lon="6.62623">
        <ele>1291.51</ele>
        <time>2018-08-25T07:28:34Z</time>
      </trkpt>
      <trkpt lat="44.90927" lon="6.62641">
        <ele>1289.84</ele>
        <time>2018-08-25T07:28:36Z</time>
      </trkpt>
      <trkpt lat="44.90902" lon="6.62659">
        <ele>1288.78</ele>
        <time>2018-08-25T07:28:38Z</time>
      </trkpt>
      <trkpt lat="44.90879" lon="6.62677">
        <ele>1287.78</ele>
        <time>2018-08-25T07:28:40Z</time>
      </trkpt>
      <trkpt lat="44.90855" lon="6.62696">
        <ele>1285.16</ele>
        <time>2018-08-25T07:28:42Z</time>
      </trkpt>
      <trkpt lat="44.90829" lon="6.62718">
        <ele>1283.81</ele>
        <time>2018-08-25T07:28:44Z</time>
      </trkpt>
      <trkpt lat="44.90802" lon="6.62737">
        <ele>1282.08</ele>
        <time>2018-08-25T07:28:46Z</time>
      </trkpt>
      <trkpt lat="44.90773" lon="6.62751">
        <ele>1280.8</ele>
        <time>2018-08-25T07:28:48Z</time>
      </trkpt>
      <trkpt lat="44.90745" lon="6.62759">
        <ele>1280.48</ele>
        <time>2018-08-25T07:28:50Z</time>
      </trkpt>
      <trkpt lat="44.90715" lon="6.62762">
        <ele>1279.75</ele>
        <time>2018-08-25T07:28:52Z</time>
      </trkpt>
      <trkpt lat="44.90684" lon="6.62765">
        <ele>1278.56</ele>
        <time>2018-08-25T07:28:54Z</time>
      </trkpt>
      <trkpt lat="44.90655" lon="6.62771">
        <ele>1277.76</ele>
        <time>2018-08-25T07:28:56Z</time>
      </trkpt>
      <trkpt lat="44.90626" lon="6.62782">
        <ele>1275.86</ele>
        <time>2018-08-25T07:28:58Z</time>
      </trkpt>
      <trkpt lat="44.906" lon="6.62799">
        <ele>1271.56</ele>
        <time>2018-08-25T07:29:00Z</time>
      </trkpt>
      <trkpt lat="44.90579" lon="6.6281">
        <ele>1269.85</ele>
        <time>2018-08-25T07:29:02Z</time>
      </trkpt>
      <trkpt lat="44.90557" lon="6.62822">
        <ele>1268.27</ele>
        <time>2018-08-25T07:29:05Z</time>
      </trkpt>
      <trkpt lat="44.90538" lon="6.6282">
        <ele>1264.45</ele>
        <time>2018-08-25T07:29:12Z</time>
      </trkpt>
      <trkpt lat="44.90515" lon="6.62814">
        <ele>1261.86</ele>
        <time>2018-08-25T07:29:15Z</time>
      </trkpt>
      <trkpt lat="44.90497" lon="6.62806">
        <ele>1258.96</ele>
        <time>2018-08-25T07:29:17Z</time>
      </trkpt>
      <trkpt lat="44.90478" lon="6.62798">
        <ele>1258.49</ele>
        <time>2018-08-25T07:29:19Z</time>
      </trkpt>
      <trkpt lat="44.90458" lon="6.62794">
        <ele>1257.26</ele>
        <time>2018-08-25T07:29:21Z</time>
      </trkpt>
      <trkpt lat="44.90438" lon="6.62795">
        <ele>1256.52</ele>
        <time>2018-08-25T07:29:23Z</time>
      </trkpt>
      <trkpt lat="44.9042" lon="6.62802">
        <ele>1255.54</ele>
        <time>2018-08-25T07:29:25Z</time>
      </trkpt>
      <trkpt lat="44.904" lon="6.62814">
        <ele>1252.1</ele>
        <time>2018-08-25T07:29:28Z</time>
      </trkpt>
      <trkpt lat="44.90382" lon="6.62831">
        <ele>1251.46</ele>
        <time>2018-08-25T07:29:31Z</time>
      </trkpt>
      <trkpt lat="44.90366" lon="6.62853">
        <ele>1249.98</ele>
        <time>2018-08-25T07:29:34Z</time>
      </trkpt>
      <trkpt lat="44.90355" lon="6.62876">
        <ele>1246.88</ele>
        <time>2018-08-25T07:29:37Z</time>
      </trkpt>
      <trkpt lat="44.90347" lon="6.62899">
        <ele>1245.54</ele>
        <time>2018-08-25T07:29:41Z</time>
      </trkpt>
      <trkpt lat="44.90343" lon="6.62925">
        <ele>1243.27</ele>
        <time>2018-08-25T07:29:45Z</time>
      </trkpt>
      <trkpt lat="44.90341" lon="6.62957">
        <ele>1243.29</ele>
        <time>2018-08-25T07:29:50Z</time>
      </trkpt>
      <trkpt lat="44.90343" lon="6.62987">
        <ele>1243.23</ele>
        <time>2018-08-25T07:29:54Z</time>
      </trkpt>
      <trkpt lat="44.9034" lon="6.63016">
        <ele>1243.44</ele>
        <time>2018-08-25T07:29:57Z</time>
      </trkpt>
      <trkpt lat="44.90327" lon="6.63043">
        <ele>1241.77</ele>
        <time>2018-08-25T07:30:00Z</time>
      </trkpt>
      <trkpt lat="44.9031" lon="6.63065">
        <ele>1240.54</ele>
        <time>2018-08-25T07:30:03Z</time>
      </trkpt>
      <trkpt lat="44.90293" lon="6.63087">
        <ele>1240.45</ele>
        <time>2018-08-25T07:30:06Z</time>
      </trkpt>
      <trkpt lat="44.90277" lon="6.63107">
        <ele>1241.15</ele>
        <time>2018-08-25T07:30:09Z</time>
      </trkpt>
      <trkpt lat="44.90258" lon="6.63125">
        <ele>1241.44</ele>
        <time>2018-08-25T07:30:12Z</time>
      </trkpt>
      <trkpt lat="44.90236" lon="6.6314">
        <ele>1240.41</ele>
        <time>2018-08-25T07:30:15Z</time>
      </trkpt>
      <trkpt lat="44.90218" lon="6.63141">
        <ele>1240.23</ele>
        <time>2018-08-25T07:30:17Z</time>
      </trkpt>
      <trkpt lat="44.90199" lon="6.63139">
        <ele>1237.91</ele>
        <time>2018-08-25T07:30:19Z</time>
      </trkpt>
      <trkpt lat="44.90182" lon="6.63132">
        <ele>1235.39</ele>
        <time>2018-08-25T07:30:21Z</time>
      </trkpt>
      <trkpt lat="44.90162" lon="6.63126">
        <ele>1233.62</ele>
        <time>2018-08-25T07:30:23Z</time>
      </trkpt>
      <trkpt lat="44.90141" lon="6.63122">
        <ele>1232.55</ele>
        <time>2018-08-25T07:30:25Z</time>
      </trkpt>
      <trkpt lat="44.9012" lon="6.63122">
        <ele>1231.75</ele>
        <time>2018-08-25T07:30:27Z</time>
      </trkpt>
      <trkpt lat="44.90097" lon="6.63124">
        <ele>1230.77</ele>
        <time>2018-08-25T07:30:29Z</time>
      </trkpt>
      <trkpt lat="44.90075" lon="6.63126">
        <ele>1228.86</ele>
        <time>2018-08-25T07:30:31Z</time>
      </trkpt>
      <trkpt lat="44.90053" lon="6.63129">
        <ele>1227.78</ele>
        <time>2018-08-25T07:30:33Z</time>
      </trkpt>
      <trkpt lat="44.90033" lon="6.63131">
        <ele>1226.78</ele>
        <time>2018-08-25T07:30:35Z</time>
      </trkpt>
      <trkpt lat="44.90012" lon="6.63132">
        <ele>1225.77</ele>
        <time>2018-08-25T07:30:37Z</time>
      </trkpt>
      <trkpt lat="44.89992" lon="6.63133">
        <ele>1224.56</ele>
        <time>2018-08-25T07:30:39Z</time>
      </trkpt>
      <trkpt lat="44.89972" lon="6.63132">
        <ele>1220.82</ele>
        <time>2018-08-25T07:30:41Z</time>
      </trkpt>
      <trkpt lat="44.89955" lon="6.63123">
        <ele>1219.08</ele>
        <time>2018-08-25T07:30:43Z</time>
      </trkpt>
      <trkpt lat="44.89942" lon="6.63095">
        <ele>1219.16</ele>
        <time>2018-08-25T07:30:46Z</time>
      </trkpt>
      <trkpt lat="44.89953" lon="6.63066">
        <ele>1219.21</ele>
        <time>2018-08-25T07:30:48Z</time>
      </trkpt>
      <trkpt lat="44.89958" lon="6.6304">
        <ele>1220.33</ele>
        <time>2018-08-25T07:30:50Z</time>
      </trkpt>
      <trkpt lat="44.89959" lon="6.6301">
        <ele>1219.73</ele>
        <time>2018-08-25T07:30:52Z</time>
      </trkpt>
      <trkpt lat="44.89951" lon="6.62981">
        <ele>1219.47</ele>
        <time>2018-08-25T07:30:54Z</time>
      </trkpt>
      <trkpt lat="44.89936" lon="6.62958">
        <ele>1220.15</ele>
        <time>2018-08-25T07:30:56Z</time>
      </trkpt>
      <trkpt lat="44.89921" lon="6.6294">
        <ele>1216.78</ele>
        <time>2018-08-25T07:30:58Z</time>
      </trkpt>
      <trkpt lat="44.89906" lon="6.62922">
        <ele>1216.27</ele>
        <time>2018-08-25T07:31:00Z</time>
      </trkpt>
      <trkpt lat="44.89887" lon="6.62899">
        <ele>1215.47</ele>
        <time>2018-08-25T07:31:03Z</time>
      </trkpt>
      <trkpt lat="44.89864" lon="6.62879">
        <ele>1214.75</ele>
        <time>2018-08-25T07:31:06Z</time>
      </trkpt>
      <trkpt lat="44.89843" lon="6.62858">
        <ele>1214.45</ele>
        <time>2018-08-25T07:31:09Z</time>
      </trkpt>
      <trkpt lat="44.89823" lon="6.62854">
        <ele>1213.75</ele>
        <time>2018-08-25T07:31:12Z</time>
      </trkpt>
      <trkpt lat="44.89807" lon="6.62874">
        <ele>1213.68</ele>
        <time>2018-08-25T07:31:14Z</time>
      </trkpt>
      <trkpt lat="44.89792" lon="6.62897">
        <ele>1214.17</ele>
        <time>2018-08-25T07:31:16Z</time>
      </trkpt>
      <trkpt lat="44.89773" lon="6.62914">
        <ele>1215.12</ele>
        <time>2018-08-25T07:31:18Z</time>
      </trkpt>
      <trkpt lat="44.8975" lon="6.62921">
        <ele>1214.51</ele>
        <time>2018-08-25T07:31:20Z</time>
      </trkpt>
      <trkpt lat="44.89729" lon="6.6293">
        <ele>1212.84</ele>
        <time>2018-08-25T07:31:22Z</time>
      </trkpt>
      <trkpt lat="44.89704" lon="6.62935">
        <ele>1212.48</ele>
        <time>2018-08-25T07:31:24Z</time>
      </trkpt>
      <trkpt lat="44.89683" lon="6.6294">
        <ele>1212.45</ele>
        <time>2018-08-25T07:31:26Z</time>
      </trkpt>
      <trkpt lat="44.89662" lon="6.62943">
        <ele>1213.36</ele>
        <time>2018-08-25T07:31:28Z</time>
      </trkpt>
      <trkpt lat="44.8964" lon="6.62946">
        <ele>1214.14</ele>
        <time>2018-08-25T07:31:30Z</time>
      </trkpt>
      <trkpt lat="44.89618" lon="6.62951">
        <ele>1212.81</ele>
        <time>2018-08-25T07:31:32Z</time>
      </trkpt>
      <trkpt lat="44.89599" lon="6.62956">
        <ele>1213.39</ele>
        <time>2018-08-25T07:31:34Z</time>
      </trkpt>
      <trkpt lat="44.8958" lon="6.62961">
        <ele>1213.44</ele>
        <time>2018-08-25T07:31:37Z</time>
      </trkpt>
      <trkpt lat="44.8956" lon="6.62964">
        <ele>1212.47</ele>
        <time>2018-08-25T07:31:40Z</time>
      </trkpt>
      <trkpt lat="44.89535" lon="6.62976">
        <ele>1212.02</ele>
        <time>2018-08-25T07:31:43Z</time>
      </trkpt>
      <trkpt lat="44.89512" lon="6.62991">
        <ele>1213.77</ele>
        <time>2018-08-25T07:31:46Z</time>
      </trkpt>
      <trkpt lat="44.89493" lon="6.63001">
        <ele>1211.84</ele>
        <time>2018-08-25T07:31:49Z</time>
      </trkpt>
      <trkpt lat="44.89474" lon="6.63011">
        <ele>1207.34</ele>
        <time>2018-08-25T07:32:04Z</time>
      </trkpt>
      <trkpt lat="44.89484" lon="6.63033">
        <ele>1204.56</ele>
        <time>2018-08-25T07:32:09Z</time>
      </trkpt>
      <trkpt lat="44.895" lon="6.63056">
        <ele>1203.48</ele>
        <time>2018-08-25T07:32:12Z</time>
      </trkpt>
      <trkpt lat="44.89512" lon="6.63085">
        <ele>1202.47</ele>
        <time>2018-08-25T07:32:15Z</time>
      </trkpt>
      <trkpt lat="44.89524" lon="6.63119">
        <ele>1203.42</ele>
        <time>2018-08-25T07:32:18Z</time>
      </trkpt>
      <trkpt lat="44.89532" lon="6.63142">
        <ele>1203.44</ele>
        <time>2018-08-25T07:32:20Z</time>
      </trkpt>
      <trkpt lat="44.89546" lon="6.63175">
        <ele>1204.42</ele>
        <time>2018-08-25T07:32:23Z</time>
      </trkpt>
      <trkpt lat="44.89558" lon="6.63207">
        <ele>1204.44</ele>
        <time>2018-08-25T07:32:26Z</time>
      </trkpt>
      <trkpt lat="44.89569" lon="6.63236">
        <ele>1203.47</ele>
        <time>2018-08-25T07:32:29Z</time>
      </trkpt>
      <trkpt lat="44.89574" lon="6.63263">
        <ele>1204.23</ele>
        <time>2018-08-25T07:32:33Z</time>
      </trkpt>
      <trkpt lat="44.89565" lon="6.63286">
        <ele>1205.58</ele>
        <time>2018-08-25T07:32:37Z</time>
      </trkpt>
      <trkpt lat="44.89548" lon="6.63297">
        <ele>1205.45</ele>
        <time>2018-08-25T07:32:40Z</time>
      </trkpt>
      <trkpt lat="44.89525" lon="6.633">
        <ele>1205.15</ele>
        <time>2018-08-25T07:32:44Z</time>
      </trkpt>
      <trkpt lat="44.89504" lon="6.63307">
        <ele>1206.14</ele>
        <time>2018-08-25T07:32:47Z</time>
      </trkpt>
      <trkpt lat="44.89485" lon="6.63312">
        <ele>1205.74</ele>
        <time>2018-08-25T07:32:50Z</time>
      </trkpt>
      <trkpt lat="44.89463" lon="6.6332">
        <ele>1205.35</ele>
        <time>2018-08-25T07:32:54Z</time>
      </trkpt>
      <trkpt lat="44.89444" lon="6.63328">
        <ele>1204.53</ele>
        <time>2018-08-25T07:32:58Z</time>
      </trkpt>
      <trkpt lat="44.89422" lon="6.63334">
        <ele>1199.86</ele>
        <time>2018-08-25T07:33:03Z</time>
      </trkpt>
      <trkpt lat="44.89403" lon="6.63339">
        <ele>1200.15</ele>
        <time>2018-08-25T07:33:08Z</time>
      </trkpt>
      <trkpt lat="44.89415" lon="6.63368">
        <ele>1202.41</ele>
        <time>2018-08-25T07:33:13Z</time>
      </trkpt>
      <trkpt lat="44.89423" lon="6.63395">
        <ele>1202.65</ele>
        <time>2018-08-25T07:33:16Z</time>
      </trkpt>
      <trkpt lat="44.89428" lon="6.63424">
        <ele>1202.45</ele>
        <time>2018-08-25T07:33:19Z</time>
      </trkpt>
      <trkpt lat="44.8942" lon="6.63459">
        <ele>1202.51</ele>
        <time>2018-08-25T07:33:22Z</time>
      </trkpt>
      <trkpt lat="44.89408" lon="6.63494">
        <ele>1205.24</ele>
        <time>2018-08-25T07:33:25Z</time>
      </trkpt>
      <trkpt lat="44.89403" lon="6.63528">
        <ele>1205.44</ele>
        <time>2018-08-25T07:33:28Z</time>
      </trkpt>
      <trkpt lat="44.89409" lon="6.63566">
        <ele>1205.44</ele>
        <time>2018-08-25T07:33:31Z</time>
      </trkpt>
      <trkpt lat="44.89415" lon="6.6359">
        <ele>1205.44</ele>
        <time>2018-08-25T07:33:33Z</time>
      </trkpt>
      <trkpt lat="44.89423" lon="6.63619">
        <ele>1205.44</ele>
        <time>2018-08-25T07:33:36Z</time>
      </trkpt>
      <trkpt lat="44.89436" lon="6.6364">
        <ele>1206.84</ele>
        <time>2018-08-25T07:33:40Z</time>
      </trkpt>
      <trkpt lat="44.89457" lon="6.63654">
        <ele>1208.34</ele>
        <time>2018-08-25T07:33:43Z</time>
      </trkpt>
      <trkpt lat="44.89481" lon="6.6366">
        <ele>1208.23</ele>
        <time>2018-08-25T07:33:46Z</time>
      </trkpt>
      <trkpt lat="44.89496" lon="6.63681">
        <ele>1207.74</ele>
        <time>2018-08-25T07:33:50Z</time>
      </trkpt>
      <trkpt lat="44.89513" lon="6.63688">
        <ele>1209.14</ele>
        <time>2018-08-25T07:33:55Z</time>
      </trkpt>
      <trkpt lat="44.89533" lon="6.63675">
        <ele>1209.44</ele>
        <time>2018-08-25T07:33:59Z</time>
      </trkpt>
      <trkpt lat="44.8955" lon="6.63661">
        <ele>1207.47</ele>
        <time>2018-08-25T07:34:20Z</time>
      </trkpt>
      <trkpt lat="44.89565" lon="6.63647">
        <ele>1199.74</ele>
        <time>2018-08-25T07:40:23Z</time>
      </trkpt>
      <trkpt lat="44.89548" lon="6.6366">
        <ele>1208.66</ele>
        <time>2018-08-25T08:05:32Z</time>
      </trkpt>
      <trkpt lat="44.8953" lon="6.6367">
        <ele>1210.44</ele>
        <time>2018-08-25T08:05:39Z</time>
      </trkpt>
      <trkpt lat="44.89511" lon="6.63673">
        <ele>1209.73</ele>
        <time>2018-08-25T08:06:04Z</time>
      </trkpt>
      <trkpt lat="44.89495" lon="6.63685">
        <ele>1206.78</ele>
        <time>2018-08-25T08:06:08Z</time>
      </trkpt>
      <trkpt lat="44.89483" lon="6.63706">
        <ele>1206.66</ele>
        <time>2018-08-25T08:06:12Z</time>
      </trkpt>
      <trkpt lat="44.89467" lon="6.6372">
        <ele>1208.07</ele>
        <time>2018-08-25T08:06:14Z</time>
      </trkpt>
      <trkpt lat="44.89449" lon="6.63735">
        <ele>1208.41</ele>
        <time>2018-08-25T08:06:16Z</time>
      </trkpt>
      <trkpt lat="44.89428" lon="6.63749">
        <ele>1209.35</ele>
        <time>2018-08-25T08:06:18Z</time>
      </trkpt>
      <trkpt lat="44.89406" lon="6.63759">
        <ele>1211.75</ele>
        <time>2018-08-25T08:06:20Z</time>
      </trkpt>
      <trkpt lat="44.89382" lon="6.63769">
        <ele>1212.38</ele>
        <time>2018-08-25T08:06:22Z</time>
      </trkpt>
      <trkpt lat="44.89354" lon="6.63778">
        <ele>1213.35</ele>
        <time>2018-08-25T08:06:24Z</time>
      </trkpt>
      <trkpt lat="44.89327" lon="6.63786">
        <ele>1215.05</ele>
        <time>2018-08-25T08:06:26Z</time>
      </trkpt>
      <trkpt lat="44.89297" lon="6.63791">
        <ele>1216.81</ele>
        <time>2018-08-25T08:06:28Z</time>
      </trkpt>
      <trkpt lat="44.89264" lon="6.63788">
        <ele>1218.3</ele>
        <time>2018-08-25T08:06:30Z</time>
      </trkpt>
      <trkpt lat="44.89234" lon="6.63787">
        <ele>1220.74</ele>
        <time>2018-08-25T08:06:32Z</time>
      </trkpt>
      <trkpt lat="44.89204" lon="6.63791">
        <ele>1223.2</ele>
        <time>2018-08-25T08:06:34Z</time>
      </trkpt>
      <trkpt lat="44.89171" lon="6.63799">
        <ele>1225.94</ele>
        <time>2018-08-25T08:06:36Z</time>
      </trkpt>
      <trkpt lat="44.89141" lon="6.63806">
        <ele>1227.1</ele>
        <time>2018-08-25T08:06:38Z</time>
      </trkpt>
      <trkpt lat="44.89115" lon="6.63823">
        <ele>1228.32</ele>
        <time>2018-08-25T08:06:40Z</time>
      </trkpt>
      <trkpt lat="44.8909" lon="6.63844">
        <ele>1229.13</ele>
        <time>2018-08-25T08:06:42Z</time>
      </trkpt>
      <trkpt lat="44.89066" lon="6.63864">
        <ele>1230.33</ele>
        <time>2018-08-25T08:06:44Z</time>
      </trkpt>
      <trkpt lat="44.89044" lon="6.63885">
        <ele>1233.86</ele>
        <time>2018-08-25T08:06:46Z</time>
      </trkpt>
      <trkpt lat="44.89019" lon="6.63895">
        <ele>1236.21</ele>
        <time>2018-08-25T08:06:48Z</time>
      </trkpt>
      <trkpt lat="44.88992" lon="6.63899">
        <ele>1238.03</ele>
        <time>2018-08-25T08:06:50Z</time>
      </trkpt>
      <trkpt lat="44.88966" lon="6.639">
        <ele>1238.62</ele>
        <time>2018-08-25T08:06:52Z</time>
      </trkpt>
      <trkpt lat="44.8894" lon="6.63909">
        <ele>1240.77</ele>
        <time>2018-08-25T08:06:54Z</time>
      </trkpt>
      <trkpt lat="44.88911" lon="6.63921">
        <ele>1246</ele>
        <time>2018-08-25T08:06:56Z</time>
      </trkpt>
      <trkpt lat="44.88884" lon="6.63925">
        <ele>1249.84</ele>
        <time>2018-08-25T08:06:58Z</time>
      </trkpt>
      <trkpt lat="44.8887" lon="6.63942">
        <ele>1252</ele>
        <time>2018-08-25T08:07:00Z</time>
      </trkpt>
      <trkpt lat="44.88869" lon="6.63968">
        <ele>1254.92</ele>
        <time>2018-08-25T08:07:02Z</time>
      </trkpt>
      <trkpt lat="44.88889" lon="6.63999">
        <ele>1259.74</ele>
        <time>2018-08-25T08:07:04Z</time>
      </trkpt>
      <trkpt lat="44.88911" lon="6.6402">
        <ele>1261.99</ele>
        <time>2018-08-25T08:07:06Z</time>
      </trkpt>
      <trkpt lat="44.88935" lon="6.6404">
        <ele>1263.8</ele>
        <time>2018-08-25T08:07:08Z</time>
      </trkpt>
      <trkpt lat="44.88954" lon="6.64049">
        <ele>1265.79</ele>
        <time>2018-08-25T08:07:10Z</time>
      </trkpt>
      <trkpt lat="44.88981" lon="6.64031">
        <ele>1266.39</ele>
        <time>2018-08-25T08:07:12Z</time>
      </trkpt>
      <trkpt lat="44.89001" lon="6.64008">
        <ele>1268.75</ele>
        <time>2018-08-25T08:07:14Z</time>
      </trkpt>
      <trkpt lat="44.8903" lon="6.63999">
        <ele>1270.29</ele>
        <time>2018-08-25T08:07:16Z</time>
      </trkpt>
      <trkpt lat="44.89057" lon="6.64">
        <ele>1272.04</ele>
        <time>2018-08-25T08:07:18Z</time>
      </trkpt>
      <trkpt lat="44.89084" lon="6.64016">
        <ele>1274.02</ele>
        <time>2018-08-25T08:07:20Z</time>
      </trkpt>
      <trkpt lat="44.89114" lon="6.64032">
        <ele>1274.2</ele>
        <time>2018-08-25T08:07:22Z</time>
      </trkpt>
      <trkpt lat="44.89139" lon="6.64054">
        <ele>1275.82</ele>
        <time>2018-08-25T08:07:24Z</time>
      </trkpt>
      <trkpt lat="44.89162" lon="6.64071">
        <ele>1277.79</ele>
        <time>2018-08-25T08:07:26Z</time>
      </trkpt>
      <trkpt lat="44.89186" lon="6.64079">
        <ele>1278.18</ele>
        <time>2018-08-25T08:07:28Z</time>
      </trkpt>
      <trkpt lat="44.89211" lon="6.64075">
        <ele>1281.64</ele>
        <time>2018-08-25T08:07:30Z</time>
      </trkpt>
      <trkpt lat="44.89236" lon="6.64066">
        <ele>1283.98</ele>
        <time>2018-08-25T08:07:32Z</time>
      </trkpt>
      <trkpt lat="44.89262" lon="6.64052">
        <ele>1284.4</ele>
        <time>2018-08-25T08:07:34Z</time>
      </trkpt>
      <trkpt lat="44.89285" lon="6.64032">
        <ele>1285.35</ele>
        <time>2018-08-25T08:07:36Z</time>
      </trkpt>
      <trkpt lat="44.89308" lon="6.64026">
        <ele>1286.84</ele>
        <time>2018-08-25T08:07:38Z</time>
      </trkpt>
      <trkpt lat="44.89329" lon="6.64033">
        <ele>1285.78</ele>
        <time>2018-08-25T08:07:40Z</time>
      </trkpt>
      <trkpt lat="44.89325" lon="6.64062">
        <ele>1284.08</ele>
        <time>2018-08-25T08:07:42Z</time>
      </trkpt>
      <trkpt lat="44.89319" lon="6.64104">
        <ele>1285.11</ele>
        <time>2018-08-25T08:07:44Z</time>
      </trkpt>
      <trkpt lat="44.89326" lon="6.64141">
        <ele>1287.94</ele>
        <time>2018-08-25T08:07:46Z</time>
      </trkpt>
      <trkpt lat="44.89331" lon="6.64182">
        <ele>1290.01</ele>
        <time>2018-08-25T08:07:48Z</time>
      </trkpt>
      <trkpt lat="44.89329" lon="6.64221">
        <ele>1292.72</ele>
        <time>2018-08-25T08:07:50Z</time>
      </trkpt>
      <trkpt lat="44.89321" lon="6.64258">
        <ele>1294.99</ele>
        <time>2018-08-25T08:07:52Z</time>
      </trkpt>
      <trkpt lat="44.8931" lon="6.64296">
        <ele>1296.31</ele>
        <time>2018-08-25T08:07:54Z</time>
      </trkpt>
      <trkpt lat="44.89302" lon="6.64336">
        <ele>1297.13</ele>
        <time>2018-08-25T08:07:56Z</time>
      </trkpt>
      <trkpt lat="44.893" lon="6.64378">
        <ele>1298.12</ele>
        <time>2018-08-25T08:07:58Z</time>
      </trkpt>
      <trkpt lat="44.89301" lon="6.6442">
        <ele>1300.03</ele>
        <time>2018-08-25T08:08:00Z</time>
      </trkpt>
      <trkpt lat="44.89291" lon="6.64457">
        <ele>1302.02</ele>
        <time>2018-08-25T08:08:02Z</time>
      </trkpt>
      <trkpt lat="44.89276" lon="6.64496">
        <ele>1302.2</ele>
        <time>2018-08-25T08:08:04Z</time>
      </trkpt>
      <trkpt lat="44.89267" lon="6.64539">
        <ele>1304.03</ele>
        <time>2018-08-25T08:08:06Z</time>
      </trkpt>
      <trkpt lat="44.89255" lon="6.64575">
        <ele>1306.93</ele>
        <time>2018-08-25T08:08:08Z</time>
      </trkpt>
      <trkpt lat="44.89238" lon="6.64603">
        <ele>1309.01</ele>
        <time>2018-08-25T08:08:10Z</time>
      </trkpt>
      <trkpt lat="44.89209" lon="6.64613">
        <ele>1310.11</ele>
        <time>2018-08-25T08:08:12Z</time>
      </trkpt>
      <trkpt lat="44.89195" lon="6.64642">
        <ele>1314.54</ele>
        <time>2018-08-25T08:08:14Z</time>
      </trkpt>
      <trkpt lat="44.89181" lon="6.64672">
        <ele>1316.27</ele>
        <time>2018-08-25T08:08:16Z</time>
      </trkpt>
      <trkpt lat="44.8916" lon="6.64695">
        <ele>1317.34</ele>
        <time>2018-08-25T08:08:18Z</time>
      </trkpt>
      <trkpt lat="44.89138" lon="6.64701">
        <ele>1318.56</ele>
        <time>2018-08-25T08:08:20Z</time>
      </trkpt>
      <trkpt lat="44.8911" lon="6.64704">
        <ele>1320.06</ele>
        <time>2018-08-25T08:08:22Z</time>
      </trkpt>
      <trkpt lat="44.89082" lon="6.64701">
        <ele>1321.32</ele>
        <time>2018-08-25T08:08:24Z</time>
      </trkpt>
      <trkpt lat="44.89057" lon="6.64704">
        <ele>1323.04</ele>
        <time>2018-08-25T08:08:26Z</time>
      </trkpt>
      <trkpt lat="44.89038" lon="6.64718">
        <ele>1325.23</ele>
        <time>2018-08-25T08:08:28Z</time>
      </trkpt>
      <trkpt lat="44.89022" lon="6.6475">
        <ele>1328.65</ele>
        <time>2018-08-25T08:08:30Z</time>
      </trkpt>
      <trkpt lat="44.89" lon="6.64772">
        <ele>1329.58</ele>
        <time>2018-08-25T08:08:32Z</time>
      </trkpt>
      <trkpt lat="44.88976" lon="6.64772">
        <ele>1333.59</ele>
        <time>2018-08-25T08:08:34Z</time>
      </trkpt>
      <trkpt lat="44.88957" lon="6.64765">
        <ele>1335.56</ele>
        <time>2018-08-25T08:08:36Z</time>
      </trkpt>
      <trkpt lat="44.88938" lon="6.64758">
        <ele>1336.86</ele>
        <time>2018-08-25T08:08:38Z</time>
      </trkpt>
      <trkpt lat="44.88916" lon="6.64761">
        <ele>1338.09</ele>
        <time>2018-08-25T08:08:40Z</time>
      </trkpt>
      <trkpt lat="44.88887" lon="6.6477">
        <ele>1340.02</ele>
        <time>2018-08-25T08:08:42Z</time>
      </trkpt>
      <trkpt lat="44.88853" lon="6.64775">
        <ele>1342.72</ele>
        <time>2018-08-25T08:08:44Z</time>
      </trkpt>
      <trkpt lat="44.88819" lon="6.64775">
        <ele>1343.38</ele>
        <time>2018-08-25T08:08:46Z</time>
      </trkpt>
      <trkpt lat="44.88788" lon="6.64778">
        <ele>1345.26</ele>
        <time>2018-08-25T08:08:48Z</time>
      </trkpt>
      <trkpt lat="44.88756" lon="6.64784">
        <ele>1347.95</ele>
        <time>2018-08-25T08:08:50Z</time>
      </trkpt>
      <trkpt lat="44.88728" lon="6.6479">
        <ele>1350.22</ele>
        <time>2018-08-25T08:08:52Z</time>
      </trkpt>
      <trkpt lat="44.88697" lon="6.64804">
        <ele>1352.94</ele>
        <time>2018-08-25T08:08:54Z</time>
      </trkpt>
      <trkpt lat="44.88671" lon="6.64817">
        <ele>1353.4</ele>
        <time>2018-08-25T08:08:56Z</time>
      </trkpt>
      <trkpt lat="44.88655" lon="6.6484">
        <ele>1356.87</ele>
        <time>2018-08-25T08:08:58Z</time>
      </trkpt>
      <trkpt lat="44.88653" lon="6.64873">
        <ele>1360.4</ele>
        <time>2018-08-25T08:09:00Z</time>
      </trkpt>
      <trkpt lat="44.88655" lon="6.64908">
        <ele>1362.26</ele>
        <time>2018-08-25T08:09:02Z</time>
      </trkpt>
      <trkpt lat="44.88647" lon="6.64947">
        <ele>1364.04</ele>
        <time>2018-08-25T08:09:04Z</time>
      </trkpt>
      <trkpt lat="44.88626" lon="6.64971">
        <ele>1368.54</ele>
        <time>2018-08-25T08:09:06Z</time>
      </trkpt>
      <trkpt lat="44.88611" lon="6.64985">
        <ele>1370.76</ele>
        <time>2018-08-25T08:09:08Z</time>
      </trkpt>
      <trkpt lat="44.88598" lon="6.65007">
        <ele>1372.34</ele>
        <time>2018-08-25T08:09:11Z</time>
      </trkpt>
      <trkpt lat="44.88591" lon="6.6504">
        <ele>1375.87</ele>
        <time>2018-08-25T08:09:13Z</time>
      </trkpt>
      <trkpt lat="44.88582" lon="6.65067">
        <ele>1377.09</ele>
        <time>2018-08-25T08:09:15Z</time>
      </trkpt>
      <trkpt lat="44.8857" lon="6.65094">
        <ele>1379.32</ele>
        <time>2018-08-25T08:09:18Z</time>
      </trkpt>
      <trkpt lat="44.8855" lon="6.65116">
        <ele>1382.3</ele>
        <time>2018-08-25T08:09:21Z</time>
      </trkpt>
      <trkpt lat="44.88535" lon="6.65143">
        <ele>1385.72</ele>
        <time>2018-08-25T08:09:24Z</time>
      </trkpt>
      <trkpt lat="44.88526" lon="6.65167">
        <ele>1387.99</ele>
        <time>2018-08-25T08:09:26Z</time>
      </trkpt>
      <trkpt lat="44.88521" lon="6.65197">
        <ele>1389.1</ele>
        <time>2018-08-25T08:09:28Z</time>
      </trkpt>
      <trkpt lat="44.88517" lon="6.65225">
        <ele>1391.23</ele>
        <time>2018-08-25T08:09:30Z</time>
      </trkpt>
      <trkpt lat="44.88516" lon="6.65257">
        <ele>1392.34</ele>
        <time>2018-08-25T08:09:32Z</time>
      </trkpt>
      <trkpt lat="44.88522" lon="6.65301">
        <ele>1393.35</ele>
        <time>2018-08-25T08:09:34Z</time>
      </trkpt>
      <trkpt lat="44.88523" lon="6.65342">
        <ele>1394.35</ele>
        <time>2018-08-25T08:09:36Z</time>
      </trkpt>
      <trkpt lat="44.88507" lon="6.6539">
        <ele>1395.35</ele>
        <time>2018-08-25T08:09:38Z</time>
      </trkpt>
      <trkpt lat="44.88491" lon="6.65406">
        <ele>1396.12</ele>
        <time>2018-08-25T08:09:39Z</time>
      </trkpt>
      <trkpt lat="44.88467" lon="6.65436">
        <ele>1398.03</ele>
        <time>2018-08-25T08:09:41Z</time>
      </trkpt>
      <trkpt lat="44.88452" lon="6.6548">
        <ele>1399.32</ele>
        <time>2018-08-25T08:09:43Z</time>
      </trkpt>
      <trkpt lat="44.8844" lon="6.65528">
        <ele>1400.34</ele>
        <time>2018-08-25T08:09:45Z</time>
      </trkpt>
      <trkpt lat="44.88438" lon="6.65555">
        <ele>1401.11</ele>
        <time>2018-08-25T08:09:46Z</time>
      </trkpt>
      <trkpt lat="44.88434" lon="6.6558">
        <ele>1402.75</ele>
        <time>2018-08-25T08:09:47Z</time>
      </trkpt>
      <trkpt lat="44.8843" lon="6.65605">
        <ele>1403.24</ele>
        <time>2018-08-25T08:09:48Z</time>
      </trkpt>
      <trkpt lat="44.88425" lon="6.6563">
        <ele>1404.08</ele>
        <time>2018-08-25T08:09:49Z</time>
      </trkpt>
      <trkpt lat="44.88419" lon="6.65655">
        <ele>1405.04</ele>
        <time>2018-08-25T08:09:50Z</time>
      </trkpt>
      <trkpt lat="44.88415" lon="6.65683">
        <ele>1406.02</ele>
        <time>2018-08-25T08:09:51Z</time>
      </trkpt>
      <trkpt lat="44.88411" lon="6.65711">
        <ele>1407.02</ele>
        <time>2018-08-25T08:09:52Z</time>
      </trkpt>
      <trkpt lat="44.88408" lon="6.65739">
        <ele>1408.72</ele>
        <time>2018-08-25T08:09:53Z</time>
      </trkpt>
      <trkpt lat="44.88406" lon="6.65766">
        <ele>1409.23</ele>
        <time>2018-08-25T08:09:54Z</time>
      </trkpt>
      <trkpt lat="44.8841" lon="6.65817">
        <ele>1411.04</ele>
        <time>2018-08-25T08:09:56Z</time>
      </trkpt>
      <trkpt lat="44.88419" lon="6.65866">
        <ele>1413.72</ele>
        <time>2018-08-25T08:09:58Z</time>
      </trkpt>
      <trkpt lat="44.8843" lon="6.65909">
        <ele>1414.38</ele>
        <time>2018-08-25T08:10:00Z</time>
      </trkpt>
      <trkpt lat="44.88432" lon="6.65953">
        <ele>1415.35</ele>
        <time>2018-08-25T08:10:02Z</time>
      </trkpt>
      <trkpt lat="44.88421" lon="6.65975">
        <ele>1414.74</ele>
        <time>2018-08-25T08:10:04Z</time>
      </trkpt>
      <trkpt lat="44.88397" lon="6.6598">
        <ele>1414.26</ele>
        <time>2018-08-25T08:10:06Z</time>
      </trkpt>
      <trkpt lat="44.88372" lon="6.65964">
        <ele>1413.69</ele>
        <time>2018-08-25T08:10:07Z</time>
      </trkpt>
      <trkpt lat="44.88355" lon="6.65958">
        <ele>1414.22</ele>
        <time>2018-08-25T08:10:08Z</time>
      </trkpt>
      <trkpt lat="44.88327" lon="6.65957">
        <ele>1416.03</ele>
        <time>2018-08-25T08:10:10Z</time>
      </trkpt>
      <trkpt lat="44.88293" lon="6.65992">
        <ele>1418.02</ele>
        <time>2018-08-25T08:10:12Z</time>
      </trkpt>
      <trkpt lat="44.88272" lon="6.66027">
        <ele>1419.81</ele>
        <time>2018-08-25T08:10:14Z</time>
      </trkpt>
      <trkpt lat="44.88255" lon="6.66065">
        <ele>1422</ele>
        <time>2018-08-25T08:10:16Z</time>
      </trkpt>
      <trkpt lat="44.88261" lon="6.66101">
        <ele>1423.01</ele>
        <time>2018-08-25T08:10:17Z</time>
      </trkpt>
      <trkpt lat="44.88257" lon="6.6613">
        <ele>1424.01</ele>
        <time>2018-08-25T08:10:18Z</time>
      </trkpt>
      <trkpt lat="44.88252" lon="6.66156">
        <ele>1425.02</ele>
        <time>2018-08-25T08:10:19Z</time>
      </trkpt>
      <trkpt lat="44.88247" lon="6.66185">
        <ele>1425.32</ele>
        <time>2018-08-25T08:10:20Z</time>
      </trkpt>
      <trkpt lat="44.8824" lon="6.66212">
        <ele>1425.41</ele>
        <time>2018-08-25T08:10:21Z</time>
      </trkpt>
      <trkpt lat="44.88231" lon="6.66236">
        <ele>1426.13</ele>
        <time>2018-08-25T08:10:22Z</time>
      </trkpt>
      <trkpt lat="44.88223" lon="6.66277">
        <ele>1428.03</ele>
        <time>2018-08-25T08:10:24Z</time>
      </trkpt>
      <trkpt lat="44.88227" lon="6.66321">
        <ele>1432.54</ele>
        <time>2018-08-25T08:10:26Z</time>
      </trkpt>
      <trkpt lat="44.88231" lon="6.66362">
        <ele>1433.15</ele>
        <time>2018-08-25T08:10:28Z</time>
      </trkpt>
      <trkpt lat="44.88229" lon="6.6641">
        <ele>1433.42</ele>
        <time>2018-08-25T08:10:30Z</time>
      </trkpt>
      <trkpt lat="44.88222" lon="6.66442">
        <ele>1433.44</ele>
        <time>2018-08-25T08:10:31Z</time>
      </trkpt>
      <trkpt lat="44.88207" lon="6.66469">
        <ele>1435.54</ele>
        <time>2018-08-25T08:10:32Z</time>
      </trkpt>
      <trkpt lat="44.88198" lon="6.66491">
        <ele>1436.17</ele>
        <time>2018-08-25T08:10:33Z</time>
      </trkpt>
      <trkpt lat="44.88177" lon="6.66531">
        <ele>1437.33</ele>
        <time>2018-08-25T08:10:35Z</time>
      </trkpt>
      <trkpt lat="44.88167" lon="6.66552">
        <ele>1438.11</ele>
        <time>2018-08-25T08:10:36Z</time>
      </trkpt>
      <trkpt lat="44.88161" lon="6.66584">
        <ele>1437.64</ele>
        <time>2018-08-25T08:10:37Z</time>
      </trkpt>
      <trkpt lat="44.88153" lon="6.66612">
        <ele>1437.5</ele>
        <time>2018-08-25T08:10:38Z</time>
      </trkpt>
      <trkpt lat="44.88147" lon="6.66639">
        <ele>1437.46</ele>
        <time>2018-08-25T08:10:39Z</time>
      </trkpt>
      <trkpt lat="44.88139" lon="6.66668">
        <ele>1437.45</ele>
        <time>2018-08-25T08:10:40Z</time>
      </trkpt>
      <trkpt lat="44.88137" lon="6.66696">
        <ele>1437.45</ele>
        <time>2018-08-25T08:10:41Z</time>
      </trkpt>
      <trkpt lat="44.88138" lon="6.66722">
        <ele>1437.45</ele>
        <time>2018-08-25T08:10:42Z</time>
      </trkpt>
      <trkpt lat="44.88151" lon="6.66754">
        <ele>1437.45</ele>
        <time>2018-08-25T08:10:43Z</time>
      </trkpt>
      <trkpt lat="44.88159" lon="6.6678">
        <ele>1437.45</ele>
        <time>2018-08-25T08:10:44Z</time>
      </trkpt>
      <trkpt lat="44.88163" lon="6.66806">
        <ele>1438.15</ele>
        <time>2018-08-25T08:10:45Z</time>
      </trkpt>
      <trkpt lat="44.88171" lon="6.66856">
        <ele>1438.42</ele>
        <time>2018-08-25T08:10:47Z</time>
      </trkpt>
      <trkpt lat="44.88188" lon="6.66897">
        <ele>1437.74</ele>
        <time>2018-08-25T08:10:49Z</time>
      </trkpt>
      <trkpt lat="44.88201" lon="6.66932">
        <ele>1437.68</ele>
        <time>2018-08-25T08:10:51Z</time>
      </trkpt>
      <trkpt lat="44.88196" lon="6.6697">
        <ele>1437.47</ele>
        <time>2018-08-25T08:10:53Z</time>
      </trkpt>
      <trkpt lat="44.88173" lon="6.66991">
        <ele>1435.84</ele>
        <time>2018-08-25T08:10:55Z</time>
      </trkpt>
      <trkpt lat="44.88151" lon="6.66993">
        <ele>1434.86</ele>
        <time>2018-08-25T08:10:56Z</time>
      </trkpt>
      <trkpt lat="44.88126" lon="6.66992">
        <ele>1433.87</ele>
        <time>2018-08-25T08:10:57Z</time>
      </trkpt>
      <trkpt lat="44.88104" lon="6.66992">
        <ele>1433.57</ele>
        <time>2018-08-25T08:10:58Z</time>
      </trkpt>
      <trkpt lat="44.88084" lon="6.66991">
        <ele>1433.48</ele>
        <time>2018-08-25T08:10:59Z</time>
      </trkpt>
      <trkpt lat="44.88053" lon="6.66983">
        <ele>1433.45</ele>
        <time>2018-08-25T08:11:01Z</time>
      </trkpt>
      <trkpt lat="44.88026" lon="6.66995">
        <ele>1432.75</ele>
        <time>2018-08-25T08:11:03Z</time>
      </trkpt>
      <trkpt lat="44.88017" lon="6.6702">
        <ele>1431.77</ele>
        <time>2018-08-25T08:11:05Z</time>
      </trkpt>
      <trkpt lat="44.88018" lon="6.67047">
        <ele>1430.14</ele>
        <time>2018-08-25T08:11:06Z</time>
      </trkpt>
      <trkpt lat="44.8802" lon="6.67103">
        <ele>1429.23</ele>
        <time>2018-08-25T08:11:08Z</time>
      </trkpt>
      <trkpt lat="44.88018" lon="6.67144">
        <ele>1428.52</ele>
        <time>2018-08-25T08:11:10Z</time>
      </trkpt>
      <trkpt lat="44.87997" lon="6.67165">
        <ele>1427.96</ele>
        <time>2018-08-25T08:11:12Z</time>
      </trkpt>
      <trkpt lat="44.87994" lon="6.67198">
        <ele>1426.28</ele>
        <time>2018-08-25T08:11:15Z</time>
      </trkpt>
      <trkpt lat="44.87999" lon="6.6725">
        <ele>1424.82</ele>
        <time>2018-08-25T08:11:17Z</time>
      </trkpt>
      <trkpt lat="44.88002" lon="6.67278">
        <ele>1424.56</ele>
        <time>2018-08-25T08:11:18Z</time>
      </trkpt>
      <trkpt lat="44.88002" lon="6.67304">
        <ele>1424.48</ele>
        <time>2018-08-25T08:11:19Z</time>
      </trkpt>
      <trkpt lat="44.87999" lon="6.67331">
        <ele>1423.76</ele>
        <time>2018-08-25T08:11:20Z</time>
      </trkpt>
      <trkpt lat="44.87994" lon="6.67359">
        <ele>1422.84</ele>
        <time>2018-08-25T08:11:21Z</time>
      </trkpt>
      <trkpt lat="44.87991" lon="6.67388">
        <ele>1422.56</ele>
        <time>2018-08-25T08:11:22Z</time>
      </trkpt>
      <trkpt lat="44.87988" lon="6.67416">
        <ele>1421.78</ele>
        <time>2018-08-25T08:11:23Z</time>
      </trkpt>
      <trkpt lat="44.87984" lon="6.67443">
        <ele>1420.85</ele>
        <time>2018-08-25T08:11:24Z</time>
      </trkpt>
      <trkpt lat="44.87977" lon="6.67469">
        <ele>1420.57</ele>
        <time>2018-08-25T08:11:25Z</time>
      </trkpt>
      <trkpt lat="44.87967" lon="6.67492">
        <ele>1420.48</ele>
        <time>2018-08-25T08:11:26Z</time>
      </trkpt>
      <trkpt lat="44.87954" lon="6.67539">
        <ele>1420.45</ele>
        <time>2018-08-25T08:11:28Z</time>
      </trkpt>
      <trkpt lat="44.87949" lon="6.67564">
        <ele>1421.85</ele>
        <time>2018-08-25T08:11:29Z</time>
      </trkpt>
      <trkpt lat="44.87948" lon="6.67594">
        <ele>1421.57</ele>
        <time>2018-08-25T08:11:30Z</time>
      </trkpt>
      <trkpt lat="44.87945" lon="6.67627">
        <ele>1422.18</ele>
        <time>2018-08-25T08:11:31Z</time>
      </trkpt>
      <trkpt lat="44.87941" lon="6.6766">
        <ele>1422.37</ele>
        <time>2018-08-25T08:11:32Z</time>
      </trkpt>
      <trkpt lat="44.87935" lon="6.67692">
        <ele>1423.12</ele>
        <time>2018-08-25T08:11:33Z</time>
      </trkpt>
      <trkpt lat="44.87927" lon="6.67723">
        <ele>1423.35</ele>
        <time>2018-08-25T08:11:34Z</time>
      </trkpt>
      <trkpt lat="44.87919" lon="6.67752">
        <ele>1423.42</ele>
        <time>2018-08-25T08:11:35Z</time>
      </trkpt>
      <trkpt lat="44.87911" lon="6.67782">
        <ele>1424.14</ele>
        <time>2018-08-25T08:11:36Z</time>
      </trkpt>
      <trkpt lat="44.87903" lon="6.67811">
        <ele>1424.35</ele>
        <time>2018-08-25T08:11:37Z</time>
      </trkpt>
      <trkpt lat="44.87896" lon="6.67842">
        <ele>1424.42</ele>
        <time>2018-08-25T08:11:38Z</time>
      </trkpt>
      <trkpt lat="44.87886" lon="6.67866">
        <ele>1424.44</ele>
        <time>2018-08-25T08:11:39Z</time>
      </trkpt>
      <trkpt lat="44.87884" lon="6.67898">
        <ele>1424.44</ele>
        <time>2018-08-25T08:11:40Z</time>
      </trkpt>
      <trkpt lat="44.87879" lon="6.67928">
        <ele>1424.44</ele>
        <time>2018-08-25T08:11:41Z</time>
      </trkpt>
      <trkpt lat="44.8787" lon="6.67958">
        <ele>1423.74</ele>
        <time>2018-08-25T08:11:42Z</time>
      </trkpt>
      <trkpt lat="44.8786" lon="6.67988">
        <ele>1423.53</ele>
        <time>2018-08-25T08:11:43Z</time>
      </trkpt>
      <trkpt lat="44.87848" lon="6.68017">
        <ele>1423.47</ele>
        <time>2018-08-25T08:11:44Z</time>
      </trkpt>
      <trkpt lat="44.87836" lon="6.68045">
        <ele>1423.45</ele>
        <time>2018-08-25T08:11:45Z</time>
      </trkpt>
      <trkpt lat="44.87825" lon="6.68073">
        <ele>1423.45</ele>
        <time>2018-08-25T08:11:46Z</time>
      </trkpt>
      <trkpt lat="44.87811" lon="6.68095">
        <ele>1424.15</ele>
        <time>2018-08-25T08:11:47Z</time>
      </trkpt>
      <trkpt lat="44.87798" lon="6.68119">
        <ele>1425.76</ele>
        <time>2018-08-25T08:11:48Z</time>
      </trkpt>
      <trkpt lat="44.87787" lon="6.68139">
        <ele>1426.94</ele>
        <time>2018-08-25T08:11:49Z</time>
      </trkpt>
      <trkpt lat="44.87767" lon="6.68179">
        <ele>1428.1</ele>
        <time>2018-08-25T08:11:51Z</time>
      </trkpt>
      <trkpt lat="44.87757" lon="6.68205">
        <ele>1429.04</ele>
        <time>2018-08-25T08:11:52Z</time>
      </trkpt>
      <trkpt lat="44.87744" lon="6.68227">
        <ele>1430.02</ele>
        <time>2018-08-25T08:11:53Z</time>
      </trkpt>
      <trkpt lat="44.87734" lon="6.6825">
        <ele>1430.32</ele>
        <time>2018-08-25T08:11:54Z</time>
      </trkpt>
      <trkpt lat="44.87726" lon="6.68276">
        <ele>1431.11</ele>
        <time>2018-08-25T08:11:55Z</time>
      </trkpt>
      <trkpt lat="44.87719" lon="6.68302">
        <ele>1432.74</ele>
        <time>2018-08-25T08:11:56Z</time>
      </trkpt>
      <trkpt lat="44.87714" lon="6.68329">
        <ele>1433.93</ele>
        <time>2018-08-25T08:11:57Z</time>
      </trkpt>
      <trkpt lat="44.87709" lon="6.68355">
        <ele>1434.99</ele>
        <time>2018-08-25T08:11:58Z</time>
      </trkpt>
      <trkpt lat="44.87713" lon="6.68389">
        <ele>1437.41</ele>
        <time>2018-08-25T08:11:59Z</time>
      </trkpt>
      <trkpt lat="44.87713" lon="6.68419">
        <ele>1438.13</ele>
        <time>2018-08-25T08:12:00Z</time>
      </trkpt>
      <trkpt lat="44.87713" lon="6.68449">
        <ele>1439.05</ele>
        <time>2018-08-25T08:12:01Z</time>
      </trkpt>
      <trkpt lat="44.87713" lon="6.68479">
        <ele>1441.43</ele>
        <time>2018-08-25T08:12:02Z</time>
      </trkpt>
      <trkpt lat="44.87713" lon="6.68508">
        <ele>1442.84</ele>
        <time>2018-08-25T08:12:03Z</time>
      </trkpt>
      <trkpt lat="44.87715" lon="6.6854">
        <ele>1445.36</ele>
        <time>2018-08-25T08:12:04Z</time>
      </trkpt>
      <trkpt lat="44.87715" lon="6.68569">
        <ele>1446.82</ele>
        <time>2018-08-25T08:12:05Z</time>
      </trkpt>
      <trkpt lat="44.87714" lon="6.68599">
        <ele>1447.96</ele>
        <time>2018-08-25T08:12:06Z</time>
      </trkpt>
      <trkpt lat="44.87713" lon="6.6863">
        <ele>1450.4</ele>
        <time>2018-08-25T08:12:07Z</time>
      </trkpt>
      <trkpt lat="44.87713" lon="6.68662">
        <ele>1452.53</ele>
        <time>2018-08-25T08:12:08Z</time>
      </trkpt>
      <trkpt lat="44.87712" lon="6.68695">
        <ele>1454.57</ele>
        <time>2018-08-25T08:12:09Z</time>
      </trkpt>
      <trkpt lat="44.8771" lon="6.68728">
        <ele>1455.88</ele>
        <time>2018-08-25T08:12:10Z</time>
      </trkpt>
      <trkpt lat="44.87709" lon="6.6876">
        <ele>1456.28</ele>
        <time>2018-08-25T08:12:11Z</time>
      </trkpt>
      <trkpt lat="44.87702" lon="6.6879">
        <ele>1458.49</ele>
        <time>2018-08-25T08:12:12Z</time>
      </trkpt>
      <trkpt lat="44.87695" lon="6.68823">
        <ele>1459.86</ele>
        <time>2018-08-25T08:12:13Z</time>
      </trkpt>
      <trkpt lat="44.87688" lon="6.68854">
        <ele>1461.67</ele>
        <time>2018-08-25T08:12:14Z</time>
      </trkpt>
      <trkpt lat="44.8768" lon="6.68887">
        <ele>1462.21</ele>
        <time>2018-08-25T08:12:15Z</time>
      </trkpt>
      <trkpt lat="44.8767" lon="6.68916">
        <ele>1463.08</ele>
        <time>2018-08-25T08:12:16Z</time>
      </trkpt>
      <trkpt lat="44.87656" lon="6.68944">
        <ele>1466.83</ele>
        <time>2018-08-25T08:12:17Z</time>
      </trkpt>
      <trkpt lat="44.87642" lon="6.68973">
        <ele>1469.36</ele>
        <time>2018-08-25T08:12:18Z</time>
      </trkpt>
      <trkpt lat="44.87627" lon="6.69">
        <ele>1471.52</ele>
        <time>2018-08-25T08:12:19Z</time>
      </trkpt>
      <trkpt lat="44.87611" lon="6.69027">
        <ele>1474.27</ele>
        <time>2018-08-25T08:12:20Z</time>
      </trkpt>
      <trkpt lat="44.87594" lon="6.69054">
        <ele>1476.49</ele>
        <time>2018-08-25T08:12:21Z</time>
      </trkpt>
      <trkpt lat="44.87577" lon="6.6908">
        <ele>1478.56</ele>
        <time>2018-08-25T08:12:22Z</time>
      </trkpt>
      <trkpt lat="44.8756" lon="6.69106">
        <ele>1479.88</ele>
        <time>2018-08-25T08:12:23Z</time>
      </trkpt>
      <trkpt lat="44.87544" lon="6.69132">
        <ele>1481.68</ele>
        <time>2018-08-25T08:12:24Z</time>
      </trkpt>
      <trkpt lat="44.87529" lon="6.69157">
        <ele>1483.61</ele>
        <time>2018-08-25T08:12:25Z</time>
      </trkpt>
      <trkpt lat="44.87514" lon="6.69182">
        <ele>1485.6</ele>
        <time>2018-08-25T08:12:26Z</time>
      </trkpt>
      <trkpt lat="44.87499" lon="6.69206">
        <ele>1486.89</ele>
        <time>2018-08-25T08:12:27Z</time>
      </trkpt>
      <trkpt lat="44.87485" lon="6.6923">
        <ele>1488.68</ele>
        <time>2018-08-25T08:12:28Z</time>
      </trkpt>
      <trkpt lat="44.8747" lon="6.69253">
        <ele>1490.62</ele>
        <time>2018-08-25T08:12:29Z</time>
      </trkpt>
      <trkpt lat="44.87454" lon="6.69276">
        <ele>1491.2</ele>
        <time>2018-08-25T08:12:30Z</time>
      </trkpt>
      <trkpt lat="44.87436" lon="6.69297">
        <ele>1492.07</ele>
        <time>2018-08-25T08:12:31Z</time>
      </trkpt>
      <trkpt lat="44.87418" lon="6.69316">
        <ele>1493.73</ele>
        <time>2018-08-25T08:12:32Z</time>
      </trkpt>
      <trkpt lat="44.87399" lon="6.69333">
        <ele>1494.23</ele>
        <time>2018-08-25T08:12:33Z</time>
      </trkpt>
      <trkpt lat="44.87381" lon="6.69349">
        <ele>1495.78</ele>
        <time>2018-08-25T08:12:34Z</time>
      </trkpt>
      <trkpt lat="44.87362" lon="6.69363">
        <ele>1496.95</ele>
        <time>2018-08-25T08:12:35Z</time>
      </trkpt>
      <trkpt lat="44.87342" lon="6.69378">
        <ele>1497.3</ele>
        <time>2018-08-25T08:12:36Z</time>
      </trkpt>
      <trkpt lat="44.87327" lon="6.69395">
        <ele>1499.5</ele>
        <time>2018-08-25T08:12:37Z</time>
      </trkpt>
      <trkpt lat="44.87312" lon="6.69414">
        <ele>1501.56</ele>
        <time>2018-08-25T08:12:38Z</time>
      </trkpt>
      <trkpt lat="44.87299" lon="6.69435">
        <ele>1503.58</ele>
        <time>2018-08-25T08:12:39Z</time>
      </trkpt>
      <trkpt lat="44.8729" lon="6.69458">
        <ele>1504.89</ele>
        <time>2018-08-25T08:12:40Z</time>
      </trkpt>
      <trkpt lat="44.87279" lon="6.69479">
        <ele>1505.98</ele>
        <time>2018-08-25T08:12:41Z</time>
      </trkpt>
      <trkpt lat="44.87272" lon="6.69503">
        <ele>1507</ele>
        <time>2018-08-25T08:12:42Z</time>
      </trkpt>
      <trkpt lat="44.8727" lon="6.69538">
        <ele>1508.71</ele>
        <time>2018-08-25T08:12:43Z</time>
      </trkpt>
      <trkpt lat="44.87269" lon="6.69572">
        <ele>1509.93</ele>
        <time>2018-08-25T08:12:44Z</time>
      </trkpt>
      <trkpt lat="44.87263" lon="6.69598">
        <ele>1510.99</ele>
        <time>2018-08-25T08:12:45Z</time>
      </trkpt>
      <trkpt lat="44.87264" lon="6.69634">
        <ele>1512.01</ele>
        <time>2018-08-25T08:12:46Z</time>
      </trkpt>
      <trkpt lat="44.8727" lon="6.69677">
        <ele>1513.71</ele>
        <time>2018-08-25T08:12:47Z</time>
      </trkpt>
      <trkpt lat="44.8727" lon="6.69714">
        <ele>1514.93</ele>
        <time>2018-08-25T08:12:48Z</time>
      </trkpt>
      <trkpt lat="44.87268" lon="6.69748">
        <ele>1516.69</ele>
        <time>2018-08-25T08:12:49Z</time>
      </trkpt>
      <trkpt lat="44.87264" lon="6.69783">
        <ele>1517.22</ele>
        <time>2018-08-25T08:12:50Z</time>
      </trkpt>
      <trkpt lat="44.87259" lon="6.69817">
        <ele>1519.48</ele>
        <time>2018-08-25T08:12:51Z</time>
      </trkpt>
      <trkpt lat="44.87253" lon="6.69849">
        <ele>1520.85</ele>
        <time>2018-08-25T08:12:52Z</time>
      </trkpt>
      <trkpt lat="44.87247" lon="6.69882">
        <ele>1522.67</ele>
        <time>2018-08-25T08:12:53Z</time>
      </trkpt>
      <trkpt lat="44.87241" lon="6.69915">
        <ele>1525.31</ele>
        <time>2018-08-25T08:12:54Z</time>
      </trkpt>
      <trkpt lat="44.87236" lon="6.69948">
        <ele>1526.81</ele>
        <time>2018-08-25T08:12:55Z</time>
      </trkpt>
      <trkpt lat="44.87231" lon="6.6998">
        <ele>1527.95</ele>
        <time>2018-08-25T08:12:56Z</time>
      </trkpt>
      <trkpt lat="44.87225" lon="6.70011">
        <ele>1529</ele>
        <time>2018-08-25T08:12:57Z</time>
      </trkpt>
      <trkpt lat="44.87219" lon="6.7004">
        <ele>1529.31</ele>
        <time>2018-08-25T08:12:58Z</time>
      </trkpt>
      <trkpt lat="44.8721" lon="6.70068">
        <ele>1529.4</ele>
        <time>2018-08-25T08:12:59Z</time>
      </trkpt>
      <trkpt lat="44.87199" lon="6.70093">
        <ele>1530.13</ele>
        <time>2018-08-25T08:13:00Z</time>
      </trkpt>
      <trkpt lat="44.87187" lon="6.70117">
        <ele>1530.35</ele>
        <time>2018-08-25T08:13:01Z</time>
      </trkpt>
      <trkpt lat="44.87173" lon="6.70141">
        <ele>1531.12</ele>
        <time>2018-08-25T08:13:02Z</time>
      </trkpt>
      <trkpt lat="44.87154" lon="6.70156">
        <ele>1531.35</ele>
        <time>2018-08-25T08:13:03Z</time>
      </trkpt>
      <trkpt lat="44.87136" lon="6.70171">
        <ele>1530.72</ele>
        <time>2018-08-25T08:13:04Z</time>
      </trkpt>
      <trkpt lat="44.87116" lon="6.70183">
        <ele>1530.53</ele>
        <time>2018-08-25T08:13:05Z</time>
      </trkpt>
      <trkpt lat="44.87091" lon="6.70186">
        <ele>1531.87</ele>
        <time>2018-08-25T08:13:06Z</time>
      </trkpt>
      <trkpt lat="44.87068" lon="6.70192">
        <ele>1532.27</ele>
        <time>2018-08-25T08:13:07Z</time>
      </trkpt>
      <trkpt lat="44.87047" lon="6.70198">
        <ele>1532.39</ele>
        <time>2018-08-25T08:13:08Z</time>
      </trkpt>
      <trkpt lat="44.87026" lon="6.70205">
        <ele>1533.83</ele>
        <time>2018-08-25T08:13:09Z</time>
      </trkpt>
      <trkpt lat="44.87005" lon="6.70215">
        <ele>1534.96</ele>
        <time>2018-08-25T08:13:10Z</time>
      </trkpt>
      <trkpt lat="44.86987" lon="6.70229">
        <ele>1536.7</ele>
        <time>2018-08-25T08:13:11Z</time>
      </trkpt>
      <trkpt lat="44.86969" lon="6.70245">
        <ele>1537.92</ele>
        <time>2018-08-25T08:13:12Z</time>
      </trkpt>
      <trkpt lat="44.86954" lon="6.70263">
        <ele>1539.69</ele>
        <time>2018-08-25T08:13:13Z</time>
      </trkpt>
      <trkpt lat="44.8694" lon="6.70285">
        <ele>1541.62</ele>
        <time>2018-08-25T08:13:14Z</time>
      </trkpt>
      <trkpt lat="44.86928" lon="6.70306">
        <ele>1542.9</ele>
        <time>2018-08-25T08:13:15Z</time>
      </trkpt>
      <trkpt lat="44.86918" lon="6.70329">
        <ele>1543.98</ele>
        <time>2018-08-25T08:13:16Z</time>
      </trkpt>
      <trkpt lat="44.86909" lon="6.70355">
        <ele>1544.31</ele>
        <time>2018-08-25T08:13:17Z</time>
      </trkpt>
      <trkpt lat="44.86903" lon="6.70385">
        <ele>1545.1</ele>
        <time>2018-08-25T08:13:18Z</time>
      </trkpt>
      <trkpt lat="44.86903" lon="6.70424">
        <ele>1544.64</ele>
        <time>2018-08-25T08:13:19Z</time>
      </trkpt>
      <trkpt lat="44.869" lon="6.70461">
        <ele>1545.9</ele>
        <time>2018-08-25T08:13:20Z</time>
      </trkpt>
      <trkpt lat="44.86896" lon="6.70494">
        <ele>1547.68</ele>
        <time>2018-08-25T08:13:21Z</time>
      </trkpt>
      <trkpt lat="44.86891" lon="6.70527">
        <ele>1548.22</ele>
        <time>2018-08-25T08:13:22Z</time>
      </trkpt>
      <trkpt lat="44.86881" lon="6.70558">
        <ele>1550.48</ele>
        <time>2018-08-25T08:13:23Z</time>
      </trkpt>
      <trkpt lat="44.86873" lon="6.70587">
        <ele>1552.55</ele>
        <time>2018-08-25T08:13:24Z</time>
      </trkpt>
      <trkpt lat="44.86864" lon="6.70617">
        <ele>1553.88</ele>
        <time>2018-08-25T08:13:25Z</time>
      </trkpt>
      <trkpt lat="44.86856" lon="6.70647">
        <ele>1554.27</ele>
        <time>2018-08-25T08:13:26Z</time>
      </trkpt>
      <trkpt lat="44.86848" lon="6.70676">
        <ele>1554.39</ele>
        <time>2018-08-25T08:13:27Z</time>
      </trkpt>
      <trkpt lat="44.8684" lon="6.70704">
        <ele>1554.43</ele>
        <time>2018-08-25T08:13:28Z</time>
      </trkpt>
      <trkpt lat="44.86831" lon="6.70733">
        <ele>1554.44</ele>
        <time>2018-08-25T08:13:29Z</time>
      </trkpt>
      <trkpt lat="44.86823" lon="6.70762">
        <ele>1555.14</ele>
        <time>2018-08-25T08:13:30Z</time>
      </trkpt>
      <trkpt lat="44.86814" lon="6.70792">
        <ele>1555.35</ele>
        <time>2018-08-25T08:13:31Z</time>
      </trkpt>
      <trkpt lat="44.86807" lon="6.70825">
        <ele>1554.72</ele>
        <time>2018-08-25T08:13:32Z</time>
      </trkpt>
      <trkpt lat="44.86799" lon="6.70855">
        <ele>1553.83</ele>
        <time>2018-08-25T08:13:33Z</time>
      </trkpt>
      <trkpt lat="44.86792" lon="6.70884">
        <ele>1553.56</ele>
        <time>2018-08-25T08:13:34Z</time>
      </trkpt>
      <trkpt lat="44.86783" lon="6.70912">
        <ele>1552.08</ele>
        <time>2018-08-25T08:13:35Z</time>
      </trkpt>
      <trkpt lat="44.86768" lon="6.70932">
        <ele>1551.64</ele>
        <time>2018-08-25T08:13:36Z</time>
      </trkpt>
      <trkpt lat="44.86756" lon="6.70953">
        <ele>1551.5</ele>
        <time>2018-08-25T08:13:37Z</time>
      </trkpt>
      <trkpt lat="44.86737" lon="6.70994">
        <ele>1551.45</ele>
        <time>2018-08-25T08:13:39Z</time>
      </trkpt>
      <trkpt lat="44.86728" lon="6.71016">
        <ele>1552.15</ele>
        <time>2018-08-25T08:13:40Z</time>
      </trkpt>
      <trkpt lat="44.8673" lon="6.71043">
        <ele>1552.36</ele>
        <time>2018-08-25T08:13:41Z</time>
      </trkpt>
      <trkpt lat="44.86728" lon="6.71069">
        <ele>1552.42</ele>
        <time>2018-08-25T08:13:42Z</time>
      </trkpt>
      <trkpt lat="44.86731" lon="6.71095">
        <ele>1553.14</ele>
        <time>2018-08-25T08:13:43Z</time>
      </trkpt>
      <trkpt lat="44.86738" lon="6.7112">
        <ele>1553.35</ele>
        <time>2018-08-25T08:13:44Z</time>
      </trkpt>
      <trkpt lat="44.86754" lon="6.71164">
        <ele>1554.82</ele>
        <time>2018-08-25T08:13:45Z</time>
      </trkpt>
      <trkpt lat="44.86761" lon="6.71196">
        <ele>1555.96</ele>
        <time>2018-08-25T08:13:46Z</time>
      </trkpt>
      <trkpt lat="44.8677" lon="6.71226">
        <ele>1557.7</ele>
        <time>2018-08-25T08:13:47Z</time>
      </trkpt>
      <trkpt lat="44.86782" lon="6.71256">
        <ele>1560.32</ele>
        <time>2018-08-25T08:13:48Z</time>
      </trkpt>
      <trkpt lat="44.8679" lon="6.71285">
        <ele>1561.81</ele>
        <time>2018-08-25T08:13:49Z</time>
      </trkpt>
      <trkpt lat="44.86797" lon="6.71313">
        <ele>1562.95</ele>
        <time>2018-08-25T08:13:50Z</time>
      </trkpt>
      <trkpt lat="44.868" lon="6.71339">
        <ele>1566.1</ele>
        <time>2018-08-25T08:13:51Z</time>
      </trkpt>
      <trkpt lat="44.86802" lon="6.71366">
        <ele>1568.44</ele>
        <time>2018-08-25T08:13:52Z</time>
      </trkpt>
      <trkpt lat="44.86799" lon="6.71392">
        <ele>1570.54</ele>
        <time>2018-08-25T08:13:53Z</time>
      </trkpt>
      <trkpt lat="44.86795" lon="6.71417">
        <ele>1571.17</ele>
        <time>2018-08-25T08:13:54Z</time>
      </trkpt>
      <trkpt lat="44.86788" lon="6.71442">
        <ele>1571.36</ele>
        <time>2018-08-25T08:13:55Z</time>
      </trkpt>
      <trkpt lat="44.8678" lon="6.71467">
        <ele>1572.82</ele>
        <time>2018-08-25T08:13:56Z</time>
      </trkpt>
      <trkpt lat="44.86769" lon="6.71515">
        <ele>1575</ele>
        <time>2018-08-25T08:13:58Z</time>
      </trkpt>
      <trkpt lat="44.86765" lon="6.71543">
        <ele>1576.71</ele>
        <time>2018-08-25T08:13:59Z</time>
      </trkpt>
      <trkpt lat="44.86762" lon="6.71569">
        <ele>1577.22</ele>
        <time>2018-08-25T08:14:00Z</time>
      </trkpt>
      <trkpt lat="44.8676" lon="6.71596">
        <ele>1578.08</ele>
        <time>2018-08-25T08:14:01Z</time>
      </trkpt>
      <trkpt lat="44.86759" lon="6.71627">
        <ele>1578.34</ele>
        <time>2018-08-25T08:14:02Z</time>
      </trkpt>
      <trkpt lat="44.86768" lon="6.71666">
        <ele>1579.11</ele>
        <time>2018-08-25T08:14:03Z</time>
      </trkpt>
      <trkpt lat="44.86775" lon="6.71697">
        <ele>1580.75</ele>
        <time>2018-08-25T08:14:04Z</time>
      </trkpt>
      <trkpt lat="44.86785" lon="6.71726">
        <ele>1581.94</ele>
        <time>2018-08-25T08:14:05Z</time>
      </trkpt>
      <trkpt lat="44.86795" lon="6.71754">
        <ele>1583.69</ele>
        <time>2018-08-25T08:14:06Z</time>
      </trkpt>
      <trkpt lat="44.86803" lon="6.71783">
        <ele>1586.32</ele>
        <time>2018-08-25T08:14:07Z</time>
      </trkpt>
      <trkpt lat="44.86812" lon="6.71811">
        <ele>1588.51</ele>
        <time>2018-08-25T08:14:08Z</time>
      </trkpt>
      <trkpt lat="44.86821" lon="6.71838">
        <ele>1589.86</ele>
        <time>2018-08-25T08:14:09Z</time>
      </trkpt>
      <trkpt lat="44.8683" lon="6.71863">
        <ele>1591.67</ele>
        <time>2018-08-25T08:14:10Z</time>
      </trkpt>
      <trkpt lat="44.86839" lon="6.71887">
        <ele>1592.91</ele>
        <time>2018-08-25T08:14:11Z</time>
      </trkpt>
      <trkpt lat="44.86855" lon="6.71926">
        <ele>1595.71</ele>
        <time>2018-08-25T08:14:13Z</time>
      </trkpt>
      <trkpt lat="44.86865" lon="6.71957">
        <ele>1596.59</ele>
        <time>2018-08-25T08:14:15Z</time>
      </trkpt>
      <trkpt lat="44.86853" lon="6.71987">
        <ele>1598.98</ele>
        <time>2018-08-25T08:14:17Z</time>
      </trkpt>
      <trkpt lat="44.86836" lon="6.72013">
        <ele>1599.4</ele>
        <time>2018-08-25T08:14:19Z</time>
      </trkpt>
      <trkpt lat="44.86822" lon="6.72042">
        <ele>1600.35</ele>
        <time>2018-08-25T08:14:21Z</time>
      </trkpt>
      <trkpt lat="44.86818" lon="6.72074">
        <ele>1602.75</ele>
        <time>2018-08-25T08:14:23Z</time>
      </trkpt>
      <trkpt lat="44.86818" lon="6.72106">
        <ele>1604.99</ele>
        <time>2018-08-25T08:14:25Z</time>
      </trkpt>
      <trkpt lat="44.86822" lon="6.72139">
        <ele>1607.01</ele>
        <time>2018-08-25T08:14:27Z</time>
      </trkpt>
      <trkpt lat="44.86826" lon="6.72174">
        <ele>1609.02</ele>
        <time>2018-08-25T08:14:29Z</time>
      </trkpt>
      <trkpt lat="44.86833" lon="6.72208">
        <ele>1610.32</ele>
        <time>2018-08-25T08:14:31Z</time>
      </trkpt>
      <trkpt lat="44.86841" lon="6.72241">
        <ele>1612.04</ele>
        <time>2018-08-25T08:14:33Z</time>
      </trkpt>
      <trkpt lat="44.86852" lon="6.72275">
        <ele>1613.32</ele>
        <time>2018-08-25T08:14:35Z</time>
      </trkpt>
      <trkpt lat="44.86868" lon="6.72306">
        <ele>1614.55</ele>
        <time>2018-08-25T08:14:37Z</time>
      </trkpt>
      <trkpt lat="44.86885" lon="6.72336">
        <ele>1616.06</ele>
        <time>2018-08-25T08:14:39Z</time>
      </trkpt>
      <trkpt lat="44.86902" lon="6.72367">
        <ele>1618.23</ele>
        <time>2018-08-25T08:14:41Z</time>
      </trkpt>
      <trkpt lat="44.8692" lon="6.72399">
        <ele>1620.04</ele>
        <time>2018-08-25T08:14:43Z</time>
      </trkpt>
      <trkpt lat="44.8694" lon="6.72436">
        <ele>1622.02</ele>
        <time>2018-08-25T08:14:45Z</time>
      </trkpt>
      <trkpt lat="44.86952" lon="6.72457">
        <ele>1624.42</ele>
        <time>2018-08-25T08:14:46Z</time>
      </trkpt>
      <trkpt lat="44.86963" lon="6.72479">
        <ele>1626.54</ele>
        <time>2018-08-25T08:14:47Z</time>
      </trkpt>
      <trkpt lat="44.86976" lon="6.725">
        <ele>1627.87</ele>
        <time>2018-08-25T08:14:48Z</time>
      </trkpt>
      <trkpt lat="44.86988" lon="6.7252">
        <ele>1628.97</ele>
        <time>2018-08-25T08:14:49Z</time>
      </trkpt>
      <trkpt lat="44.87006" lon="6.72555">
        <ele>1631.71</ele>
        <time>2018-08-25T08:14:51Z</time>
      </trkpt>
      <trkpt lat="44.87013" lon="6.72589">
        <ele>1632.38</ele>
        <time>2018-08-25T08:14:53Z</time>
      </trkpt>
      <trkpt lat="44.86999" lon="6.72623">
        <ele>1633.56</ele>
        <time>2018-08-25T08:14:56Z</time>
      </trkpt>
      <trkpt lat="44.86967" lon="6.72627">
        <ele>1632.97</ele>
        <time>2018-08-25T08:14:58Z</time>
      </trkpt>
      <trkpt lat="44.86949" lon="6.7261">
        <ele>1631.9</ele>
        <time>2018-08-25T08:14:59Z</time>
      </trkpt>
      <trkpt lat="44.86918" lon="6.72563">
        <ele>1633.8</ele>
        <time>2018-08-25T08:15:01Z</time>
      </trkpt>
      <trkpt lat="44.86887" lon="6.72536">
        <ele>1636.21</ele>
        <time>2018-08-25T08:15:03Z</time>
      </trkpt>
      <trkpt lat="44.8687" lon="6.72524">
        <ele>1636.37</ele>
        <time>2018-08-25T08:15:04Z</time>
      </trkpt>
      <trkpt lat="44.86856" lon="6.72507">
        <ele>1636.42</ele>
        <time>2018-08-25T08:15:05Z</time>
      </trkpt>
      <trkpt lat="44.86831" lon="6.72482">
        <ele>1640.57</ele>
        <time>2018-08-25T08:15:07Z</time>
      </trkpt>
      <trkpt lat="44.86789" lon="6.72472">
        <ele>1643.68</ele>
        <time>2018-08-25T08:15:09Z</time>
      </trkpt>
      <trkpt lat="44.86766" lon="6.72466">
        <ele>1645.61</ele>
        <time>2018-08-25T08:15:10Z</time>
      </trkpt>
      <trkpt lat="44.86741" lon="6.72463">
        <ele>1646.2</ele>
        <time>2018-08-25T08:15:11Z</time>
      </trkpt>
      <trkpt lat="44.8672" lon="6.72464">
        <ele>1646.37</ele>
        <time>2018-08-25T08:15:12Z</time>
      </trkpt>
      <trkpt lat="44.86699" lon="6.72472">
        <ele>1647.12</ele>
        <time>2018-08-25T08:15:13Z</time>
      </trkpt>
      <trkpt lat="44.86681" lon="6.72477">
        <ele>1647.35</ele>
        <time>2018-08-25T08:15:14Z</time>
      </trkpt>
      <trkpt lat="44.86647" lon="6.72471">
        <ele>1650.87</ele>
        <time>2018-08-25T08:15:16Z</time>
      </trkpt>
      <trkpt lat="44.86619" lon="6.72455">
        <ele>1655.31</ele>
        <time>2018-08-25T08:15:18Z</time>
      </trkpt>
      <trkpt lat="44.86587" lon="6.7245">
        <ele>1658.86</ele>
        <time>2018-08-25T08:15:20Z</time>
      </trkpt>
      <trkpt lat="44.86569" lon="6.72451">
        <ele>1660.67</ele>
        <time>2018-08-25T08:15:21Z</time>
      </trkpt>
      <trkpt lat="44.86543" lon="6.72453">
        <ele>1661.21</ele>
        <time>2018-08-25T08:15:22Z</time>
      </trkpt>
      <trkpt lat="44.86523" lon="6.72452">
        <ele>1661.38</ele>
        <time>2018-08-25T08:15:23Z</time>
      </trkpt>
      <trkpt lat="44.86501" lon="6.72447">
        <ele>1661.42</ele>
        <time>2018-08-25T08:15:24Z</time>
      </trkpt>
      <trkpt lat="44.86481" lon="6.7244">
        <ele>1662.14</ele>
        <time>2018-08-25T08:15:25Z</time>
      </trkpt>
      <trkpt lat="44.86462" lon="6.72432">
        <ele>1661.65</ele>
        <time>2018-08-25T08:15:26Z</time>
      </trkpt>
      <trkpt lat="44.86432" lon="6.72423">
        <ele>1664.89</ele>
        <time>2018-08-25T08:15:28Z</time>
      </trkpt>
      <trkpt lat="44.86399" lon="6.72424">
        <ele>1666.1</ele>
        <time>2018-08-25T08:15:30Z</time>
      </trkpt>
      <trkpt lat="44.86379" lon="6.72427">
        <ele>1667.74</ele>
        <time>2018-08-25T08:15:31Z</time>
      </trkpt>
      <trkpt lat="44.86355" lon="6.72436">
        <ele>1668.93</ele>
        <time>2018-08-25T08:15:32Z</time>
      </trkpt>
      <trkpt lat="44.86334" lon="6.72446">
        <ele>1669.29</ele>
        <time>2018-08-25T08:15:33Z</time>
      </trkpt>
      <trkpt lat="44.86315" lon="6.72459">
        <ele>1671.5</ele>
        <time>2018-08-25T08:15:34Z</time>
      </trkpt>
      <trkpt lat="44.863" lon="6.72473">
        <ele>1674.96</ele>
        <time>2018-08-25T08:15:35Z</time>
      </trkpt>
      <trkpt lat="44.8627" lon="6.72492">
        <ele>1678.62</ele>
        <time>2018-08-25T08:15:37Z</time>
      </trkpt>
      <trkpt lat="44.86235" lon="6.72495">
        <ele>1679.37</ele>
        <time>2018-08-25T08:15:39Z</time>
      </trkpt>
      <trkpt lat="44.86217" lon="6.72491">
        <ele>1680.12</ele>
        <time>2018-08-25T08:15:40Z</time>
      </trkpt>
      <trkpt lat="44.86179" lon="6.72497">
        <ele>1682.03</ele>
        <time>2018-08-25T08:15:42Z</time>
      </trkpt>
      <trkpt lat="44.86155" lon="6.725">
        <ele>1683.72</ele>
        <time>2018-08-25T08:15:43Z</time>
      </trkpt>
      <trkpt lat="44.86129" lon="6.72504">
        <ele>1685.63</ele>
        <time>2018-08-25T08:15:44Z</time>
      </trkpt>
      <trkpt lat="44.86104" lon="6.725">
        <ele>1687.6</ele>
        <time>2018-08-25T08:15:45Z</time>
      </trkpt>
      <trkpt lat="44.86077" lon="6.72497">
        <ele>1689.59</ele>
        <time>2018-08-25T08:15:46Z</time>
      </trkpt>
      <trkpt lat="44.86052" lon="6.72492">
        <ele>1690.89</ele>
        <time>2018-08-25T08:15:47Z</time>
      </trkpt>
      <trkpt lat="44.86027" lon="6.72487">
        <ele>1691.98</ele>
        <time>2018-08-25T08:15:48Z</time>
      </trkpt>
      <trkpt lat="44.86004" lon="6.72484">
        <ele>1693.7</ele>
        <time>2018-08-25T08:15:49Z</time>
      </trkpt>
      <trkpt lat="44.85981" lon="6.72486">
        <ele>1694.22</ele>
        <time>2018-08-25T08:15:50Z</time>
      </trkpt>
      <trkpt lat="44.85958" lon="6.72487">
        <ele>1695.78</ele>
        <time>2018-08-25T08:15:51Z</time>
      </trkpt>
      <trkpt lat="44.85934" lon="6.72489">
        <ele>1698.34</ele>
        <time>2018-08-25T08:15:52Z</time>
      </trkpt>
      <trkpt lat="44.85913" lon="6.72492">
        <ele>1700.52</ele>
        <time>2018-08-25T08:15:53Z</time>
      </trkpt>
      <trkpt lat="44.85893" lon="6.72495">
        <ele>1701.17</ele>
        <time>2018-08-25T08:15:54Z</time>
      </trkpt>
      <trkpt lat="44.85871" lon="6.72508">
        <ele>1702.76</ele>
        <time>2018-08-25T08:15:55Z</time>
      </trkpt>
      <trkpt lat="44.85851" lon="6.72521">
        <ele>1705.34</ele>
        <time>2018-08-25T08:15:56Z</time>
      </trkpt>
      <trkpt lat="44.85831" lon="6.72532">
        <ele>1708.21</ele>
        <time>2018-08-25T08:15:57Z</time>
      </trkpt>
      <trkpt lat="44.85811" lon="6.72544">
        <ele>1711.18</ele>
        <time>2018-08-25T08:15:58Z</time>
      </trkpt>
      <trkpt lat="44.8579" lon="6.72557">
        <ele>1714.86</ele>
        <time>2018-08-25T08:15:59Z</time>
      </trkpt>
      <trkpt lat="44.85768" lon="6.7257">
        <ele>1718.77</ele>
        <time>2018-08-25T08:16:00Z</time>
      </trkpt>
      <trkpt lat="44.85748" lon="6.72582">
        <ele>1722.74</ele>
        <time>2018-08-25T08:16:01Z</time>
      </trkpt>
      <trkpt lat="44.8573" lon="6.72593">
        <ele>1726.73</ele>
        <time>2018-08-25T08:16:02Z</time>
      </trkpt>
      <trkpt lat="44.857" lon="6.72612">
        <ele>1731.72</ele>
        <time>2018-08-25T08:16:04Z</time>
      </trkpt>
      <trkpt lat="44.85673" lon="6.7263">
        <ele>1733.99</ele>
        <time>2018-08-25T08:16:06Z</time>
      </trkpt>
      <trkpt lat="44.85646" lon="6.72649">
        <ele>1735.1</ele>
        <time>2018-08-25T08:16:08Z</time>
      </trkpt>
      <trkpt lat="44.85623" lon="6.72668">
        <ele>1736.11</ele>
        <time>2018-08-25T08:16:10Z</time>
      </trkpt>
      <trkpt lat="44.856" lon="6.72684">
        <ele>1737.12</ele>
        <time>2018-08-25T08:16:12Z</time>
      </trkpt>
      <trkpt lat="44.85579" lon="6.72699">
        <ele>1737.42</ele>
        <time>2018-08-25T08:16:14Z</time>
      </trkpt>
      <trkpt lat="44.85557" lon="6.7271">
        <ele>1737.44</ele>
        <time>2018-08-25T08:16:16Z</time>
      </trkpt>
      <trkpt lat="44.85533" lon="6.72712">
        <ele>1739.05</ele>
        <time>2018-08-25T08:16:18Z</time>
      </trkpt>
      <trkpt lat="44.85508" lon="6.7271">
        <ele>1740.32</ele>
        <time>2018-08-25T08:16:20Z</time>
      </trkpt>
      <trkpt lat="44.85483" lon="6.72706">
        <ele>1741.13</ele>
        <time>2018-08-25T08:16:22Z</time>
      </trkpt>
      <trkpt lat="44.8546" lon="6.72691">
        <ele>1742.12</ele>
        <time>2018-08-25T08:16:24Z</time>
      </trkpt>
      <trkpt lat="44.85441" lon="6.72668">
        <ele>1744.94</ele>
        <time>2018-08-25T08:16:26Z</time>
      </trkpt>
      <trkpt lat="44.85424" lon="6.72634">
        <ele>1744.7</ele>
        <time>2018-08-25T08:16:28Z</time>
      </trkpt>
      <trkpt lat="44.85405" lon="6.7259">
        <ele>1746.08</ele>
        <time>2018-08-25T08:16:30Z</time>
      </trkpt>
      <trkpt lat="44.85392" lon="6.72571">
        <ele>1747.73</ele>
        <time>2018-08-25T08:16:31Z</time>
      </trkpt>
      <trkpt lat="44.85379" lon="6.7255">
        <ele>1748.93</ele>
        <time>2018-08-25T08:16:32Z</time>
      </trkpt>
      <trkpt lat="44.85362" lon="6.72531">
        <ele>1749.99</ele>
        <time>2018-08-25T08:16:33Z</time>
      </trkpt>
      <trkpt lat="44.85345" lon="6.72513">
        <ele>1753.11</ele>
        <time>2018-08-25T08:16:34Z</time>
      </trkpt>
      <trkpt lat="44.8533" lon="6.72493">
        <ele>1754.74</ele>
        <time>2018-08-25T08:16:35Z</time>
      </trkpt>
      <trkpt lat="44.85313" lon="6.72474">
        <ele>1755.93</ele>
        <time>2018-08-25T08:16:36Z</time>
      </trkpt>
      <trkpt lat="44.85295" lon="6.72459">
        <ele>1757.69</ele>
        <time>2018-08-25T08:16:37Z</time>
      </trkpt>
      <trkpt lat="44.85276" lon="6.72445">
        <ele>1758.92</ele>
        <time>2018-08-25T08:16:38Z</time>
      </trkpt>
      <trkpt lat="44.85258" lon="6.72432">
        <ele>1759.29</ele>
        <time>2018-08-25T08:16:39Z</time>
      </trkpt>
      <trkpt lat="44.85239" lon="6.72424">
        <ele>1758.7</ele>
        <time>2018-08-25T08:16:40Z</time>
      </trkpt>
      <trkpt lat="44.85218" lon="6.72422">
        <ele>1758.52</ele>
        <time>2018-08-25T08:16:41Z</time>
      </trkpt>
      <trkpt lat="44.85196" lon="6.72434">
        <ele>1758.47</ele>
        <time>2018-08-25T08:16:42Z</time>
      </trkpt>
      <trkpt lat="44.85168" lon="6.72447">
        <ele>1760.55</ele>
        <time>2018-08-25T08:16:43Z</time>
      </trkpt>
      <trkpt lat="44.85145" lon="6.72452">
        <ele>1761.88</ele>
        <time>2018-08-25T08:16:44Z</time>
      </trkpt>
      <trkpt lat="44.85123" lon="6.72457">
        <ele>1762.97</ele>
        <time>2018-08-25T08:16:45Z</time>
      </trkpt>
      <trkpt lat="44.851" lon="6.72468">
        <ele>1763.3</ele>
        <time>2018-08-25T08:16:46Z</time>
      </trkpt>
      <trkpt lat="44.85075" lon="6.72481">
        <ele>1764.8</ele>
        <time>2018-08-25T08:16:47Z</time>
      </trkpt>
      <trkpt lat="44.85053" lon="6.7249">
        <ele>1767.35</ele>
        <time>2018-08-25T08:16:48Z</time>
      </trkpt>
      <trkpt lat="44.8503" lon="6.725">
        <ele>1769.52</ele>
        <time>2018-08-25T08:16:49Z</time>
      </trkpt>
      <trkpt lat="44.85012" lon="6.72499">
        <ele>1771.57</ele>
        <time>2018-08-25T08:16:50Z</time>
      </trkpt>
      <trkpt lat="44.84976" lon="6.72493">
        <ele>1773.07</ele>
        <time>2018-08-25T08:16:52Z</time>
      </trkpt>
      <trkpt lat="44.84941" lon="6.72476">
        <ele>1775.02</ele>
        <time>2018-08-25T08:16:54Z</time>
      </trkpt>
      <trkpt lat="44.84922" lon="6.72469">
        <ele>1776.02</ele>
        <time>2018-08-25T08:16:55Z</time>
      </trkpt>
      <trkpt lat="44.849" lon="6.72463">
        <ele>1776.32</ele>
        <time>2018-08-25T08:16:56Z</time>
      </trkpt>
      <trkpt lat="44.84877" lon="6.72462">
        <ele>1777.11</ele>
        <time>2018-08-25T08:16:57Z</time>
      </trkpt>
      <trkpt lat="44.84853" lon="6.72461">
        <ele>1778.04</ele>
        <time>2018-08-25T08:16:58Z</time>
      </trkpt>
      <trkpt lat="44.84828" lon="6.72464">
        <ele>1780.42</ele>
        <time>2018-08-25T08:16:59Z</time>
      </trkpt>
      <trkpt lat="44.84805" lon="6.72464">
        <ele>1781.84</ele>
        <time>2018-08-25T08:17:00Z</time>
      </trkpt>
      <trkpt lat="44.84782" lon="6.72466">
        <ele>1782.96</ele>
        <time>2018-08-25T08:17:01Z</time>
      </trkpt>
      <trkpt lat="44.84761" lon="6.72469">
        <ele>1784</ele>
        <time>2018-08-25T08:17:02Z</time>
      </trkpt>
      <trkpt lat="44.84742" lon="6.72477">
        <ele>1785.01</ele>
        <time>2018-08-25T08:17:03Z</time>
      </trkpt>
      <trkpt lat="44.84722" lon="6.72492">
        <ele>1786.02</ele>
        <time>2018-08-25T08:17:04Z</time>
      </trkpt>
      <trkpt lat="44.84709" lon="6.72511">
        <ele>1788.42</ele>
        <time>2018-08-25T08:17:05Z</time>
      </trkpt>
      <trkpt lat="44.84681" lon="6.72535">
        <ele>1792.57</ele>
        <time>2018-08-25T08:17:07Z</time>
      </trkpt>
      <trkpt lat="44.84652" lon="6.72558">
        <ele>1795.89</ele>
        <time>2018-08-25T08:17:09Z</time>
      </trkpt>
      <trkpt lat="44.84624" lon="6.7257">
        <ele>1799.12</ele>
        <time>2018-08-25T08:17:11Z</time>
      </trkpt>
      <trkpt lat="44.8459" lon="6.72567">
        <ele>1802.64</ele>
        <time>2018-08-25T08:17:13Z</time>
      </trkpt>
      <trkpt lat="44.84564" lon="6.72557">
        <ele>1807.29</ele>
        <time>2018-08-25T08:17:15Z</time>
      </trkpt>
      <trkpt lat="44.84539" lon="6.72538">
        <ele>1810.65</ele>
        <time>2018-08-25T08:17:17Z</time>
      </trkpt>
      <trkpt lat="44.84514" lon="6.72498">
        <ele>1812.56</ele>
        <time>2018-08-25T08:17:19Z</time>
      </trkpt>
      <trkpt lat="44.84498" lon="6.72478">
        <ele>1813.88</ele>
        <time>2018-08-25T08:17:20Z</time>
      </trkpt>
      <trkpt lat="44.84481" lon="6.72461">
        <ele>1814.98</ele>
        <time>2018-08-25T08:17:21Z</time>
      </trkpt>
      <trkpt lat="44.84461" lon="6.72452">
        <ele>1816</ele>
        <time>2018-08-25T08:17:22Z</time>
      </trkpt>
      <trkpt lat="44.84427" lon="6.72436">
        <ele>1817.32</ele>
        <time>2018-08-25T08:17:24Z</time>
      </trkpt>
      <trkpt lat="44.84406" lon="6.72424">
        <ele>1818.34</ele>
        <time>2018-08-25T08:17:26Z</time>
      </trkpt>
      <trkpt lat="44.84425" lon="6.72415">
        <ele>1824.77</ele>
        <time>2018-08-25T08:17:31Z</time>
      </trkpt>
      <trkpt lat="44.84448" lon="6.72411">
        <ele>1825.94</ele>
        <time>2018-08-25T08:17:32Z</time>
      </trkpt>
      <trkpt lat="44.84473" lon="6.72422">
        <ele>1827.69</ele>
        <time>2018-08-25T08:17:33Z</time>
      </trkpt>
      <trkpt lat="44.84495" lon="6.72434">
        <ele>1828.92</ele>
        <time>2018-08-25T08:17:34Z</time>
      </trkpt>
      <trkpt lat="44.84515" lon="6.72442">
        <ele>1829.29</ele>
        <time>2018-08-25T08:17:35Z</time>
      </trkpt>
      <trkpt lat="44.8454" lon="6.72444">
        <ele>1833.35</ele>
        <time>2018-08-25T08:17:37Z</time>
      </trkpt>
      <trkpt lat="44.84524" lon="6.72398">
        <ele>1840.23</ele>
        <time>2018-08-25T08:17:42Z</time>
      </trkpt>
      <trkpt lat="44.84501" lon="6.72387">
        <ele>1841.78</ele>
        <time>2018-08-25T08:17:43Z</time>
      </trkpt>
      <trkpt lat="44.84476" lon="6.72373">
        <ele>1844.35</ele>
        <time>2018-08-25T08:17:44Z</time>
      </trkpt>
      <trkpt lat="44.84457" lon="6.72361">
        <ele>1845.82</ele>
        <time>2018-08-25T08:17:45Z</time>
      </trkpt>
      <trkpt lat="44.84435" lon="6.72354">
        <ele>1848.36</ele>
        <time>2018-08-25T08:17:46Z</time>
      </trkpt>
      <trkpt lat="44.84415" lon="6.72347">
        <ele>1849.82</ele>
        <time>2018-08-25T08:17:47Z</time>
      </trkpt>
      <trkpt lat="44.84396" lon="6.7234">
        <ele>1850.96</ele>
        <time>2018-08-25T08:17:48Z</time>
      </trkpt>
      <trkpt lat="44.84366" lon="6.72345">
        <ele>1855.5</ele>
        <time>2018-08-25T08:17:49Z</time>
      </trkpt>
      <trkpt lat="44.84338" lon="6.72352">
        <ele>1857.56</ele>
        <time>2018-08-25T08:17:50Z</time>
      </trkpt>
      <trkpt lat="44.84312" lon="6.72354">
        <ele>1858.88</ele>
        <time>2018-08-25T08:17:51Z</time>
      </trkpt>
      <trkpt lat="44.8429" lon="6.72352">
        <ele>1860.68</ele>
        <time>2018-08-25T08:17:52Z</time>
      </trkpt>
      <trkpt lat="44.84261" lon="6.72355">
        <ele>1861.91</ele>
        <time>2018-08-25T08:17:53Z</time>
      </trkpt>
      <trkpt lat="44.84233" lon="6.72362">
        <ele>1863.69</ele>
        <time>2018-08-25T08:17:54Z</time>
      </trkpt>
      <trkpt lat="44.84206" lon="6.72363">
        <ele>1865.62</ele>
        <time>2018-08-25T08:17:55Z</time>
      </trkpt>
      <trkpt lat="44.84181" lon="6.72361">
        <ele>1866.9</ele>
        <time>2018-08-25T08:17:56Z</time>
      </trkpt>
      <trkpt lat="44.84159" lon="6.72359">
        <ele>1868.68</ele>
        <time>2018-08-25T08:17:57Z</time>
      </trkpt>
      <trkpt lat="44.84128" lon="6.72358">
        <ele>1871.32</ele>
        <time>2018-08-25T08:17:58Z</time>
      </trkpt>
      <trkpt lat="44.84105" lon="6.72353">
        <ele>1872.81</ele>
        <time>2018-08-25T08:17:59Z</time>
      </trkpt>
      <trkpt lat="44.84083" lon="6.72346">
        <ele>1873.25</ele>
        <time>2018-08-25T08:18:00Z</time>
      </trkpt>
      <trkpt lat="44.84057" lon="6.72342">
        <ele>1874.09</ele>
        <time>2018-08-25T08:18:01Z</time>
      </trkpt>
      <trkpt lat="44.84036" lon="6.72334">
        <ele>1875.04</ele>
        <time>2018-08-25T08:18:02Z</time>
      </trkpt>
      <trkpt lat="44.84013" lon="6.72328">
        <ele>1876.02</ele>
        <time>2018-08-25T08:18:03Z</time>
      </trkpt>
      <trkpt lat="44.83987" lon="6.72325">
        <ele>1876.32</ele>
        <time>2018-08-25T08:18:04Z</time>
      </trkpt>
      <trkpt lat="44.83954" lon="6.72328">
        <ele>1879.91</ele>
        <time>2018-08-25T08:18:05Z</time>
      </trkpt>
      <trkpt lat="44.83927" lon="6.72327">
        <ele>1881.68</ele>
        <time>2018-08-25T08:18:06Z</time>
      </trkpt>
      <trkpt lat="44.83901" lon="6.72325">
        <ele>1882.92</ele>
        <time>2018-08-25T08:18:07Z</time>
      </trkpt>
      <trkpt lat="44.83877" lon="6.72328">
        <ele>1883.99</ele>
        <time>2018-08-25T08:18:08Z</time>
      </trkpt>
      <trkpt lat="44.83852" lon="6.72333">
        <ele>1885.01</ele>
        <time>2018-08-25T08:18:09Z</time>
      </trkpt>
      <trkpt lat="44.83829" lon="6.72339">
        <ele>1886.01</ele>
        <time>2018-08-25T08:18:10Z</time>
      </trkpt>
      <trkpt lat="44.83807" lon="6.72343">
        <ele>1887.72</ele>
        <time>2018-08-25T08:18:11Z</time>
      </trkpt>
      <trkpt lat="44.83771" lon="6.72342">
        <ele>1890.69</ele>
        <time>2018-08-25T08:18:13Z</time>
      </trkpt>
      <trkpt lat="44.83752" lon="6.72327">
        <ele>1892.62</ele>
        <time>2018-08-25T08:18:14Z</time>
      </trkpt>
      <trkpt lat="44.83729" lon="6.72323">
        <ele>1895.3</ele>
        <time>2018-08-25T08:18:15Z</time>
      </trkpt>
      <trkpt lat="44.83708" lon="6.72316">
        <ele>1897.5</ele>
        <time>2018-08-25T08:18:16Z</time>
      </trkpt>
      <trkpt lat="44.83689" lon="6.72305">
        <ele>1899.56</ele>
        <time>2018-08-25T08:18:17Z</time>
      </trkpt>
      <trkpt lat="44.8367" lon="6.72297">
        <ele>1902.28</ele>
        <time>2018-08-25T08:18:18Z</time>
      </trkpt>
      <trkpt lat="44.83652" lon="6.72287">
        <ele>1903.1</ele>
        <time>2018-08-25T08:18:19Z</time>
      </trkpt>
      <trkpt lat="44.83626" lon="6.72273">
        <ele>1905.02</ele>
        <time>2018-08-25T08:18:21Z</time>
      </trkpt>
      <trkpt lat="44.83606" lon="6.72256">
        <ele>1906.32</ele>
        <time>2018-08-25T08:18:23Z</time>
      </trkpt>
      <trkpt lat="44.83618" lon="6.72234">
        <ele>1908.75</ele>
        <time>2018-08-25T08:18:26Z</time>
      </trkpt>
      <trkpt lat="44.83662" lon="6.7225">
        <ele>1912.6</ele>
        <time>2018-08-25T08:18:28Z</time>
      </trkpt>
      <trkpt lat="44.83692" lon="6.72252">
        <ele>1915.29</ele>
        <time>2018-08-25T08:18:29Z</time>
      </trkpt>
      <trkpt lat="44.83717" lon="6.72252">
        <ele>1916.8</ele>
        <time>2018-08-25T08:18:30Z</time>
      </trkpt>
      <trkpt lat="44.83739" lon="6.72243">
        <ele>1923.34</ele>
        <time>2018-08-25T08:18:32Z</time>
      </trkpt>
      <trkpt lat="44.83755" lon="6.72219">
        <ele>1930.83</ele>
        <time>2018-08-25T08:18:35Z</time>
      </trkpt>
      <trkpt lat="44.83715" lon="6.7222">
        <ele>1935.31</ele>
        <time>2018-08-25T08:18:37Z</time>
      </trkpt>
      <trkpt lat="44.83676" lon="6.72204">
        <ele>1941.66</ele>
        <time>2018-08-25T08:18:39Z</time>
      </trkpt>
      <trkpt lat="44.83654" lon="6.72194">
        <ele>1945.01</ele>
        <time>2018-08-25T08:18:40Z</time>
      </trkpt>
      <trkpt lat="44.83629" lon="6.7218">
        <ele>1948.11</ele>
        <time>2018-08-25T08:18:41Z</time>
      </trkpt>
      <trkpt lat="44.83606" lon="6.72169">
        <ele>1949.75</ele>
        <time>2018-08-25T08:18:42Z</time>
      </trkpt>
      <trkpt lat="44.83583" lon="6.72163">
        <ele>1951.64</ele>
        <time>2018-08-25T08:18:43Z</time>
      </trkpt>
      <trkpt lat="44.83563" lon="6.72158">
        <ele>1952.9</ele>
        <time>2018-08-25T08:18:44Z</time>
      </trkpt>
      <trkpt lat="44.83542" lon="6.72163">
        <ele>1952.58</ele>
        <time>2018-08-25T08:18:45Z</time>
      </trkpt>
      <trkpt lat="44.83522" lon="6.72173">
        <ele>1954.59</ele>
        <time>2018-08-25T08:18:46Z</time>
      </trkpt>
      <trkpt lat="44.83502" lon="6.72196">
        <ele>1957.29</ele>
        <time>2018-08-25T08:18:47Z</time>
      </trkpt>
      <trkpt lat="44.83485" lon="6.7221">
        <ele>1959.5</ele>
        <time>2018-08-25T08:18:48Z</time>
      </trkpt>
      <trkpt lat="44.83482" lon="6.72261">
        <ele>1960.86</ele>
        <time>2018-08-25T08:18:49Z</time>
      </trkpt>
      <trkpt lat="44.83497" lon="6.72286">
        <ele>1964.07</ele>
        <time>2018-08-25T08:18:50Z</time>
      </trkpt>
      <trkpt lat="44.8349" lon="6.7232">
        <ele>1966.23</ele>
        <time>2018-08-25T08:18:52Z</time>
      </trkpt>
      <trkpt lat="44.83477" lon="6.7234">
        <ele>1966.43</ele>
        <time>2018-08-25T08:18:54Z</time>
      </trkpt>
      <trkpt lat="44.83476" lon="6.72297">
        <ele>1968.82</ele>
        <time>2018-08-25T08:18:57Z</time>
      </trkpt>
      <trkpt lat="44.83486" lon="6.72239">
        <ele>1970.09</ele>
        <time>2018-08-25T08:18:59Z</time>
      </trkpt>
      <trkpt lat="44.8349" lon="6.72201">
        <ele>1972.44</ele>
        <time>2018-08-25T08:19:00Z</time>
      </trkpt>
      <trkpt lat="44.83493" lon="6.72162">
        <ele>1976.78</ele>
        <time>2018-08-25T08:19:02Z</time>
      </trkpt>
      <trkpt lat="44.83495" lon="6.72129">
        <ele>1982.59</ele>
        <time>2018-08-25T08:19:05Z</time>
      </trkpt>
      <trkpt lat="44.83491" lon="6.72179">
        <ele>1987.99</ele>
        <time>2018-08-25T08:19:09Z</time>
      </trkpt>
      <trkpt lat="44.83475" lon="6.7224">
        <ele>1989.01</ele>
        <time>2018-08-25T08:19:10Z</time>
      </trkpt>
      <trkpt lat="44.83465" lon="6.72269">
        <ele>1990.01</ele>
        <time>2018-08-25T08:19:11Z</time>
      </trkpt>
      <trkpt lat="44.83452" lon="6.72297">
        <ele>1991.02</ele>
        <time>2018-08-25T08:19:12Z</time>
      </trkpt>
      <trkpt lat="44.83437" lon="6.72324">
        <ele>1991.32</ele>
        <time>2018-08-25T08:19:13Z</time>
      </trkpt>
      <trkpt lat="44.83423" lon="6.72342">
        <ele>1992.81</ele>
        <time>2018-08-25T08:19:14Z</time>
      </trkpt>
      <trkpt lat="44.83414" lon="6.72364">
        <ele>1995.35</ele>
        <time>2018-08-25T08:19:15Z</time>
      </trkpt>
      <trkpt lat="44.83394" lon="6.72393">
        <ele>1997.96</ele>
        <time>2018-08-25T08:19:17Z</time>
      </trkpt>
      <trkpt lat="44.83374" lon="6.72382">
        <ele>2000.22</ele>
        <time>2018-08-25T08:19:19Z</time>
      </trkpt>
      <trkpt lat="44.83374" lon="6.72352">
        <ele>2002.48</ele>
        <time>2018-08-25T08:19:20Z</time>
      </trkpt>
      <trkpt lat="44.83376" lon="6.72326">
        <ele>2003.15</ele>
        <time>2018-08-25T08:19:21Z</time>
      </trkpt>
      <trkpt lat="44.83386" lon="6.72294">
        <ele>2004.76</ele>
        <time>2018-08-25T08:19:22Z</time>
      </trkpt>
      <trkpt lat="44.83399" lon="6.72271">
        <ele>2007.34</ele>
        <time>2018-08-25T08:19:23Z</time>
      </trkpt>
      <trkpt lat="44.83407" lon="6.72236">
        <ele>2010.66</ele>
        <time>2018-08-25T08:19:25Z</time>
      </trkpt>
      <trkpt lat="44.83396" lon="6.72263">
        <ele>2013.13</ele>
        <time>2018-08-25T08:19:29Z</time>
      </trkpt>
      <trkpt lat="44.83379" lon="6.72279">
        <ele>2013.35</ele>
        <time>2018-08-25T08:19:30Z</time>
      </trkpt>
      <trkpt lat="44.8335" lon="6.72296">
        <ele>2012.72</ele>
        <time>2018-08-25T08:19:31Z</time>
      </trkpt>
      <trkpt lat="44.83324" lon="6.72316">
        <ele>2014.63</ele>
        <time>2018-08-25T08:19:32Z</time>
      </trkpt>
      <trkpt lat="44.83309" lon="6.72332">
        <ele>2016.6</ele>
        <time>2018-08-25T08:19:33Z</time>
      </trkpt>
      <trkpt lat="44.83279" lon="6.72357">
        <ele>2021.5</ele>
        <time>2018-08-25T08:19:35Z</time>
      </trkpt>
      <trkpt lat="44.83254" lon="6.7236">
        <ele>2023.97</ele>
        <time>2018-08-25T08:19:37Z</time>
      </trkpt>
      <trkpt lat="44.83254" lon="6.72319">
        <ele>2025.1</ele>
        <time>2018-08-25T08:19:39Z</time>
      </trkpt>
      <trkpt lat="44.83274" lon="6.7229">
        <ele>2026.74</ele>
        <time>2018-08-25T08:19:40Z</time>
      </trkpt>
      <trkpt lat="44.83294" lon="6.72262">
        <ele>2029.33</ele>
        <time>2018-08-25T08:19:41Z</time>
      </trkpt>
      <trkpt lat="44.83313" lon="6.72243">
        <ele>2032.21</ele>
        <time>2018-08-25T08:19:42Z</time>
      </trkpt>
      <trkpt lat="44.83339" lon="6.72228">
        <ele>2034.47</ele>
        <time>2018-08-25T08:19:43Z</time>
      </trkpt>
      <trkpt lat="44.83358" lon="6.72206">
        <ele>2039.28</ele>
        <time>2018-08-25T08:19:45Z</time>
      </trkpt>
      <trkpt lat="44.83329" lon="6.7222">
        <ele>2047.47</ele>
        <time>2018-08-25T08:19:51Z</time>
      </trkpt>
      <trkpt lat="44.83298" lon="6.72241">
        <ele>2050.88</ele>
        <time>2018-08-25T08:19:53Z</time>
      </trkpt>
      <trkpt lat="44.83266" lon="6.72256">
        <ele>2051.27</ele>
        <time>2018-08-25T08:19:54Z</time>
      </trkpt>
      <trkpt lat="44.8324" lon="6.72269">
        <ele>2052.09</ele>
        <time>2018-08-25T08:19:55Z</time>
      </trkpt>
      <trkpt lat="44.83223" lon="6.7228">
        <ele>2055.84</ele>
        <time>2018-08-25T08:19:56Z</time>
      </trkpt>
      <trkpt lat="44.83201" lon="6.7229">
        <ele>2057.66</ele>
        <time>2018-08-25T08:19:57Z</time>
      </trkpt>
      <trkpt lat="44.8318" lon="6.72309">
        <ele>2059.98</ele>
        <time>2018-08-25T08:19:59Z</time>
      </trkpt>
      <trkpt lat="44.83204" lon="6.72334">
        <ele>2063.81</ele>
        <time>2018-08-25T08:20:00Z</time>
      </trkpt>
      <trkpt lat="44.83219" lon="6.72367">
        <ele>2067.61</ele>
        <time>2018-08-25T08:20:02Z</time>
      </trkpt>
      <trkpt lat="44.8322" lon="6.72396">
        <ele>2071.01</ele>
        <time>2018-08-25T08:20:05Z</time>
      </trkpt>
      <trkpt lat="44.83217" lon="6.72421">
        <ele>2075.21</ele>
        <time>2018-08-25T08:20:09Z</time>
      </trkpt>
      <trkpt lat="44.832" lon="6.72377">
        <ele>2077.94</ele>
        <time>2018-08-25T08:20:14Z</time>
      </trkpt>
      <trkpt lat="44.8319" lon="6.72344">
        <ele>2078.19</ele>
        <time>2018-08-25T08:20:16Z</time>
      </trkpt>
      <trkpt lat="44.83168" lon="6.72348">
        <ele>2084.85</ele>
        <time>2018-08-25T08:20:19Z</time>
      </trkpt>
      <trkpt lat="44.83178" lon="6.72372">
        <ele>2085.27</ele>
        <time>2018-08-25T08:20:20Z</time>
      </trkpt>
      <trkpt lat="44.83189" lon="6.72406">
        <ele>2089.77</ele>
        <time>2018-08-25T08:20:22Z</time>
      </trkpt>
      <trkpt lat="44.83173" lon="6.72431">
        <ele>2091.99</ele>
        <time>2018-08-25T08:20:24Z</time>
      </trkpt>
      <trkpt lat="44.83146" lon="6.72453">
        <ele>2091</ele>
        <time>2018-08-25T08:20:26Z</time>
      </trkpt>
      <trkpt lat="44.83115" lon="6.72459">
        <ele>2090.5</ele>
        <time>2018-08-25T08:20:28Z</time>
      </trkpt>
      <trkpt lat="44.83094" lon="6.72453">
        <ele>2091.86</ele>
        <time>2018-08-25T08:20:29Z</time>
      </trkpt>
      <trkpt lat="44.83074" lon="6.7245">
        <ele>2092.27</ele>
        <time>2018-08-25T08:20:30Z</time>
      </trkpt>
      <trkpt lat="44.83042" lon="6.72447">
        <ele>2094.74</ele>
        <time>2018-08-25T08:20:32Z</time>
      </trkpt>
      <trkpt lat="44.83012" lon="6.72453">
        <ele>2096.29</ele>
        <time>2018-08-25T08:20:34Z</time>
      </trkpt>
      <trkpt lat="44.82988" lon="6.72446">
        <ele>2098.25</ele>
        <time>2018-08-25T08:20:36Z</time>
      </trkpt>
      <trkpt lat="44.83004" lon="6.72414">
        <ele>2099.01</ele>
        <time>2018-08-25T08:20:39Z</time>
      </trkpt>
      <trkpt lat="44.83035" lon="6.72377">
        <ele>2103.54</ele>
        <time>2018-08-25T08:20:41Z</time>
      </trkpt>
      <trkpt lat="44.83043" lon="6.72341">
        <ele>2106.46</ele>
        <time>2018-08-25T08:20:43Z</time>
      </trkpt>
      <trkpt lat="44.83033" lon="6.72312">
        <ele>2108.76</ele>
        <time>2018-08-25T08:20:45Z</time>
      </trkpt>
      <trkpt lat="44.83014" lon="6.72307">
        <ele>2112.6</ele>
        <time>2018-08-25T08:20:47Z</time>
      </trkpt>
      <trkpt lat="44.82976" lon="6.72325">
        <ele>2117.29</ele>
        <time>2018-08-25T08:20:49Z</time>
      </trkpt>
      <trkpt lat="44.82931" lon="6.72376">
        <ele>2123</ele>
        <time>2018-08-25T08:20:50Z</time>
      </trkpt>
      <trkpt lat="44.82903" lon="6.72401">
        <ele>2127.51</ele>
        <time>2018-08-25T08:20:51Z</time>
      </trkpt>
      <trkpt lat="44.82875" lon="6.72425">
        <ele>2130.96</ele>
        <time>2018-08-25T08:20:52Z</time>
      </trkpt>
      <trkpt lat="44.82847" lon="6.72448">
        <ele>2134.8</ele>
        <time>2018-08-25T08:20:53Z</time>
      </trkpt>
      <trkpt lat="44.8282" lon="6.72471">
        <ele>2138.05</ele>
        <time>2018-08-25T08:20:54Z</time>
      </trkpt>
      <trkpt lat="44.82797" lon="6.72491">
        <ele>2141.83</ele>
        <time>2018-08-25T08:20:55Z</time>
      </trkpt>
      <trkpt lat="44.82777" lon="6.72508">
        <ele>2145.06</ele>
        <time>2018-08-25T08:20:56Z</time>
      </trkpt>
      <trkpt lat="44.82758" lon="6.7252">
        <ele>2148.13</ele>
        <time>2018-08-25T08:20:57Z</time>
      </trkpt>
      <trkpt lat="44.82741" lon="6.72529">
        <ele>2149.75</ele>
        <time>2018-08-25T08:20:58Z</time>
      </trkpt>
      <trkpt lat="44.82717" lon="6.72545">
        <ele>2154.3</ele>
        <time>2018-08-25T08:21:00Z</time>
      </trkpt>
      <trkpt lat="44.827" lon="6.72567">
        <ele>2154.64</ele>
        <time>2018-08-25T08:21:02Z</time>
      </trkpt>
      <trkpt lat="44.82705" lon="6.72609">
        <ele>2153.76</ele>
        <time>2018-08-25T08:21:04Z</time>
      </trkpt>
      <trkpt lat="44.82722" lon="6.7264">
        <ele>2152.98</ele>
        <time>2018-08-25T08:21:06Z</time>
      </trkpt>
      <trkpt lat="44.82745" lon="6.7267">
        <ele>2153.19</ele>
        <time>2018-08-25T08:21:08Z</time>
      </trkpt>
      <trkpt lat="44.82782" lon="6.72658">
        <ele>2153.37</ele>
        <time>2018-08-25T08:21:09Z</time>
      </trkpt>
      <trkpt lat="44.82812" lon="6.7267">
        <ele>2156.87</ele>
        <time>2018-08-25T08:21:11Z</time>
      </trkpt>
      <trkpt lat="44.82834" lon="6.72692">
        <ele>2159</ele>
        <time>2018-08-25T08:21:13Z</time>
      </trkpt>
      <trkpt lat="44.82847" lon="6.7273">
        <ele>2162.63</ele>
        <time>2018-08-25T08:21:15Z</time>
      </trkpt>
      <trkpt lat="44.82856" lon="6.72765">
        <ele>2165.68</ele>
        <time>2018-08-25T08:21:17Z</time>
      </trkpt>
      <trkpt lat="44.82852" lon="6.72798">
        <ele>2166.59</ele>
        <time>2018-08-25T08:21:19Z</time>
      </trkpt>
      <trkpt lat="44.82828" lon="6.72805">
        <ele>2167.36</ele>
        <time>2018-08-25T08:21:22Z</time>
      </trkpt>
      <trkpt lat="44.82799" lon="6.72774">
        <ele>2171.57</ele>
        <time>2018-08-25T08:21:24Z</time>
      </trkpt>
      <trkpt lat="44.82768" lon="6.72751">
        <ele>2174.28</ele>
        <time>2018-08-25T08:21:25Z</time>
      </trkpt>
      <trkpt lat="44.82749" lon="6.7274">
        <ele>2176.5</ele>
        <time>2018-08-25T08:21:26Z</time>
      </trkpt>
      <trkpt lat="44.82729" lon="6.72735">
        <ele>2177.86</ele>
        <time>2018-08-25T08:21:27Z</time>
      </trkpt>
      <trkpt lat="44.82694" lon="6.72737">
        <ele>2179.3</ele>
        <time>2018-08-25T08:21:29Z</time>
      </trkpt>
      <trkpt lat="44.82677" lon="6.72751">
        <ele>2180.1</ele>
        <time>2018-08-25T08:21:30Z</time>
      </trkpt>
      <trkpt lat="44.8266" lon="6.72768">
        <ele>2181.74</ele>
        <time>2018-08-25T08:21:31Z</time>
      </trkpt>
      <trkpt lat="44.82644" lon="6.72785">
        <ele>2182.93</ele>
        <time>2018-08-25T08:21:32Z</time>
      </trkpt>
      <trkpt lat="44.8263" lon="6.7281">
        <ele>2183.29</ele>
        <time>2018-08-25T08:21:33Z</time>
      </trkpt>
      <trkpt lat="44.82611" lon="6.72831">
        <ele>2185.04</ele>
        <time>2018-08-25T08:21:35Z</time>
      </trkpt>
      <trkpt lat="44.82636" lon="6.72845">
        <ele>2187.83</ele>
        <time>2018-08-25T08:21:39Z</time>
      </trkpt>
      <trkpt lat="44.82659" lon="6.72845">
        <ele>2189.66</ele>
        <time>2018-08-25T08:21:40Z</time>
      </trkpt>
      <trkpt lat="44.82698" lon="6.72886">
        <ele>2194.08</ele>
        <time>2018-08-25T08:21:42Z</time>
      </trkpt>
      <trkpt lat="44.8272" lon="6.7292">
        <ele>2197.14</ele>
        <time>2018-08-25T08:21:44Z</time>
      </trkpt>
      <trkpt lat="44.82729" lon="6.72954">
        <ele>2199.94</ele>
        <time>2018-08-25T08:21:46Z</time>
      </trkpt>
      <trkpt lat="44.82721" lon="6.7299">
        <ele>2200.89</ele>
        <time>2018-08-25T08:21:48Z</time>
      </trkpt>
      <trkpt lat="44.82709" lon="6.7301">
        <ele>2201.28</ele>
        <time>2018-08-25T08:21:49Z</time>
      </trkpt>
      <trkpt lat="44.82672" lon="6.73007">
        <ele>2202.79</ele>
        <time>2018-08-25T08:21:50Z</time>
      </trkpt>
      <trkpt lat="44.8265" lon="6.73024">
        <ele>2203.95</ele>
        <time>2018-08-25T08:21:51Z</time>
      </trkpt>
      <trkpt lat="44.8262" lon="6.73038">
        <ele>2206.4</ele>
        <time>2018-08-25T08:21:52Z</time>
      </trkpt>
      <trkpt lat="44.82599" lon="6.73056">
        <ele>2208.53</ele>
        <time>2018-08-25T08:21:53Z</time>
      </trkpt>
      <trkpt lat="44.8258" lon="6.73075">
        <ele>2209.87</ele>
        <time>2018-08-25T08:21:54Z</time>
      </trkpt>
      <trkpt lat="44.82562" lon="6.73092">
        <ele>2211.67</ele>
        <time>2018-08-25T08:21:55Z</time>
      </trkpt>
      <trkpt lat="44.82539" lon="6.73104">
        <ele>2216.41</ele>
        <time>2018-08-25T08:21:56Z</time>
      </trkpt>
      <trkpt lat="44.82519" lon="6.73115">
        <ele>2219.94</ele>
        <time>2018-08-25T08:21:57Z</time>
      </trkpt>
      <trkpt lat="44.82488" lon="6.73135">
        <ele>2223.83</ele>
        <time>2018-08-25T08:21:59Z</time>
      </trkpt>
      <trkpt lat="44.82467" lon="6.73168">
        <ele>2227.61</ele>
        <time>2018-08-25T08:22:01Z</time>
      </trkpt>
      <trkpt lat="44.82437" lon="6.73194">
        <ele>2230.89</ele>
        <time>2018-08-25T08:22:03Z</time>
      </trkpt>
      <trkpt lat="44.82404" lon="6.73206">
        <ele>2234.41</ele>
        <time>2018-08-25T08:22:05Z</time>
      </trkpt>
      <trkpt lat="44.8238" lon="6.7322">
        <ele>2238.08</ele>
        <time>2018-08-25T08:22:07Z</time>
      </trkpt>
      <trkpt lat="44.8236" lon="6.73233">
        <ele>2240.02</ele>
        <time>2018-08-25T08:22:09Z</time>
      </trkpt>
      <trkpt lat="44.82338" lon="6.73238">
        <ele>2241.11</ele>
        <time>2018-08-25T08:22:11Z</time>
      </trkpt>
      <trkpt lat="44.82333" lon="6.73205">
        <ele>2241.02</ele>
        <time>2018-08-25T08:22:14Z</time>
      </trkpt>
      <trkpt lat="44.82324" lon="6.73179">
        <ele>2242.07</ele>
        <time>2018-08-25T08:22:17Z</time>
      </trkpt>
      <trkpt lat="44.82304" lon="6.73189">
        <ele>2243.11</ele>
        <time>2018-08-25T08:22:19Z</time>
      </trkpt>
      <trkpt lat="44.82285" lon="6.73182">
        <ele>2246.14</ele>
        <time>2018-08-25T08:22:20Z</time>
      </trkpt>
      <trkpt lat="44.82265" lon="6.73164">
        <ele>2249.15</ele>
        <time>2018-08-25T08:22:22Z</time>
      </trkpt>
      <trkpt lat="44.82251" lon="6.73136">
        <ele>2250.82</ele>
        <time>2018-08-25T08:22:24Z</time>
      </trkpt>
      <trkpt lat="44.8224" lon="6.73111">
        <ele>2256.71</ele>
        <time>2018-08-25T08:22:28Z</time>
      </trkpt>
      <trkpt lat="44.82233" lon="6.73135">
        <ele>2256.89</ele>
        <time>2018-08-25T08:22:30Z</time>
      </trkpt>
      <trkpt lat="44.82226" lon="6.73169">
        <ele>2256.58</ele>
        <time>2018-08-25T08:22:31Z</time>
      </trkpt>
      <trkpt lat="44.8222" lon="6.73198">
        <ele>2257.89</ele>
        <time>2018-08-25T08:22:32Z</time>
      </trkpt>
      <trkpt lat="44.82218" lon="6.73241">
        <ele>2260.21</ele>
        <time>2018-08-25T08:22:34Z</time>
      </trkpt>
      <trkpt lat="44.82225" lon="6.73282">
        <ele>2262.94</ele>
        <time>2018-08-25T08:22:36Z</time>
      </trkpt>
      <trkpt lat="44.82232" lon="6.73309">
        <ele>2265.01</ele>
        <time>2018-08-25T08:22:38Z</time>
      </trkpt>
      <trkpt lat="44.82254" lon="6.73311">
        <ele>2266.01</ele>
        <time>2018-08-25T08:22:39Z</time>
      </trkpt>
      <trkpt lat="44.82276" lon="6.73332">
        <ele>2269.84</ele>
        <time>2018-08-25T08:22:41Z</time>
      </trkpt>
      <trkpt lat="44.82282" lon="6.73357">
        <ele>2274.1</ele>
        <time>2018-08-25T08:22:43Z</time>
      </trkpt>
      <trkpt lat="44.82277" lon="6.73381">
        <ele>2277.84</ele>
        <time>2018-08-25T08:22:45Z</time>
      </trkpt>
      <trkpt lat="44.82256" lon="6.73399">
        <ele>2279.3</ele>
        <time>2018-08-25T08:22:47Z</time>
      </trkpt>
      <trkpt lat="44.82238" lon="6.73397">
        <ele>2278.7</ele>
        <time>2018-08-25T08:22:48Z</time>
      </trkpt>
      <trkpt lat="44.8221" lon="6.73389">
        <ele>2280.08</ele>
        <time>2018-08-25T08:22:50Z</time>
      </trkpt>
      <trkpt lat="44.82198" lon="6.73345">
        <ele>2283.42</ele>
        <time>2018-08-25T08:22:52Z</time>
      </trkpt>
      <trkpt lat="44.82202" lon="6.73308">
        <ele>2287.57</ele>
        <time>2018-08-25T08:22:54Z</time>
      </trkpt>
      <trkpt lat="44.82188" lon="6.7329">
        <ele>2290.09</ele>
        <time>2018-08-25T08:22:57Z</time>
      </trkpt>
      <trkpt lat="44.82176" lon="6.73328">
        <ele>2292.05</ele>
        <time>2018-08-25T08:23:00Z</time>
      </trkpt>
      <trkpt lat="44.82178" lon="6.73381">
        <ele>2294.51</ele>
        <time>2018-08-25T08:23:02Z</time>
      </trkpt>
      <trkpt lat="44.82175" lon="6.73429">
        <ele>2297.67</ele>
        <time>2018-08-25T08:23:04Z</time>
      </trkpt>
      <trkpt lat="44.82177" lon="6.7347">
        <ele>2298.17</ele>
        <time>2018-08-25T08:23:06Z</time>
      </trkpt>
      <trkpt lat="44.82185" lon="6.73503">
        <ele>2300.03</ele>
        <time>2018-08-25T08:23:08Z</time>
      </trkpt>
      <trkpt lat="44.82215" lon="6.73538">
        <ele>2305.24</ele>
        <time>2018-08-25T08:23:10Z</time>
      </trkpt>
      <trkpt lat="44.82229" lon="6.73554">
        <ele>2306.08</ele>
        <time>2018-08-25T08:23:11Z</time>
      </trkpt>
      <trkpt lat="44.82254" lon="6.73578">
        <ele>2308.02</ele>
        <time>2018-08-25T08:23:13Z</time>
      </trkpt>
      <trkpt lat="44.8227" lon="6.73598">
        <ele>2311.84</ele>
        <time>2018-08-25T08:23:15Z</time>
      </trkpt>
      <trkpt lat="44.82254" lon="6.73621">
        <ele>2314.8</ele>
        <time>2018-08-25T08:23:18Z</time>
      </trkpt>
      <trkpt lat="44.82238" lon="6.73637">
        <ele>2317</ele>
        <time>2018-08-25T08:23:20Z</time>
      </trkpt>
      <trkpt lat="44.82203" lon="6.73622">
        <ele>2318.71</ele>
        <time>2018-08-25T08:23:21Z</time>
      </trkpt>
      <trkpt lat="44.82181" lon="6.73613">
        <ele>2319.22</ele>
        <time>2018-08-25T08:23:22Z</time>
      </trkpt>
      <trkpt lat="44.82153" lon="6.7359">
        <ele>2320.08</ele>
        <time>2018-08-25T08:23:23Z</time>
      </trkpt>
      <trkpt lat="44.82133" lon="6.73579">
        <ele>2321.74</ele>
        <time>2018-08-25T08:23:24Z</time>
      </trkpt>
      <trkpt lat="44.82102" lon="6.73552">
        <ele>2326.3</ele>
        <time>2018-08-25T08:23:26Z</time>
      </trkpt>
      <trkpt lat="44.82082" lon="6.73516">
        <ele>2329.65</ele>
        <time>2018-08-25T08:23:28Z</time>
      </trkpt>
      <trkpt lat="44.82069" lon="6.73483">
        <ele>2330.37</ele>
        <time>2018-08-25T08:23:30Z</time>
      </trkpt>
      <trkpt lat="44.82088" lon="6.73447">
        <ele>2335.97</ele>
        <time>2018-08-25T08:23:32Z</time>
      </trkpt>
      <trkpt lat="44.82099" lon="6.73422">
        <ele>2341.23</ele>
        <time>2018-08-25T08:23:34Z</time>
      </trkpt>
      <trkpt lat="44.82081" lon="6.73445">
        <ele>2345.95</ele>
        <time>2018-08-25T08:23:38Z</time>
      </trkpt>
      <trkpt lat="44.82065" lon="6.73478">
        <ele>2348.92</ele>
        <time>2018-08-25T08:23:40Z</time>
      </trkpt>
      <trkpt lat="44.82046" lon="6.73502">
        <ele>2350.31</ele>
        <time>2018-08-25T08:23:42Z</time>
      </trkpt>
      <trkpt lat="44.82021" lon="6.73504">
        <ele>2352.32</ele>
        <time>2018-08-25T08:23:45Z</time>
      </trkpt>
      <trkpt lat="44.81999" lon="6.73508">
        <ele>2353.27</ele>
        <time>2018-08-25T08:23:49Z</time>
      </trkpt>
      <trkpt lat="44.81981" lon="6.7351">
        <ele>2355.82</ele>
        <time>2018-08-25T08:23:55Z</time>
      </trkpt>
      <trkpt lat="44.81964" lon="6.73494">
        <ele>2365.36</ele>
        <time>2018-08-25T08:35:48Z</time>
      </trkpt>
      <trkpt lat="44.81946" lon="6.73492">
        <ele>2363.54</ele>
        <time>2018-08-25T08:35:52Z</time>
      </trkpt>
      <trkpt lat="44.81925" lon="6.73489">
        <ele>2363.72</ele>
        <time>2018-08-25T08:35:55Z</time>
      </trkpt>
      <trkpt lat="44.81901" lon="6.73481">
        <ele>2362.75</ele>
        <time>2018-08-25T08:35:58Z</time>
      </trkpt>
      <trkpt lat="44.81883" lon="6.73462">
        <ele>2358.2</ele>
        <time>2018-08-25T08:36:01Z</time>
      </trkpt>
      <trkpt lat="44.81882" lon="6.73436">
        <ele>2358.17</ele>
        <time>2018-08-25T08:36:04Z</time>
      </trkpt>
      <trkpt lat="44.81909" lon="6.73404">
        <ele>2356.81</ele>
        <time>2018-08-25T08:36:06Z</time>
      </trkpt>
      <trkpt lat="44.81919" lon="6.7337">
        <ele>2354.87</ele>
        <time>2018-08-25T08:36:08Z</time>
      </trkpt>
      <trkpt lat="44.81922" lon="6.73334">
        <ele>2352.87</ele>
        <time>2018-08-25T08:36:10Z</time>
      </trkpt>
      <trkpt lat="44.8193" lon="6.73302">
        <ele>2350.87</ele>
        <time>2018-08-25T08:36:12Z</time>
      </trkpt>
      <trkpt lat="44.81941" lon="6.73275">
        <ele>2348.87</ele>
        <time>2018-08-25T08:36:14Z</time>
      </trkpt>
      <trkpt lat="44.81955" lon="6.73251">
        <ele>2346.87</ele>
        <time>2018-08-25T08:36:16Z</time>
      </trkpt>
      <trkpt lat="44.81958" lon="6.73225">
        <ele>2345.78</ele>
        <time>2018-08-25T08:36:18Z</time>
      </trkpt>
      <trkpt lat="44.81948" lon="6.73201">
        <ele>2344.54</ele>
        <time>2018-08-25T08:36:21Z</time>
      </trkpt>
      <trkpt lat="44.81924" lon="6.73253">
        <ele>2341.86</ele>
        <time>2018-08-25T08:36:24Z</time>
      </trkpt>
      <trkpt lat="44.81901" lon="6.73291">
        <ele>2338.96</ele>
        <time>2018-08-25T08:36:26Z</time>
      </trkpt>
      <trkpt lat="44.81877" lon="6.73327">
        <ele>2335.27</ele>
        <time>2018-08-25T08:36:28Z</time>
      </trkpt>
      <trkpt lat="44.8185" lon="6.73357">
        <ele>2332.21</ele>
        <time>2018-08-25T08:36:30Z</time>
      </trkpt>
      <trkpt lat="44.81822" lon="6.73381">
        <ele>2328.08</ele>
        <time>2018-08-25T08:36:32Z</time>
      </trkpt>
      <trkpt lat="44.81798" lon="6.73406">
        <ele>2325.89</ele>
        <time>2018-08-25T08:36:34Z</time>
      </trkpt>
      <trkpt lat="44.81783" lon="6.73432">
        <ele>2324.79</ele>
        <time>2018-08-25T08:36:36Z</time>
      </trkpt>
      <trkpt lat="44.81765" lon="6.73445">
        <ele>2320.63</ele>
        <time>2018-08-25T08:36:39Z</time>
      </trkpt>
      <trkpt lat="44.81759" lon="6.73414">
        <ele>2318.77</ele>
        <time>2018-08-25T08:36:43Z</time>
      </trkpt>
      <trkpt lat="44.81793" lon="6.73374">
        <ele>2317.77</ele>
        <time>2018-08-25T08:36:45Z</time>
      </trkpt>
      <trkpt lat="44.81811" lon="6.7334">
        <ele>2316.56</ele>
        <time>2018-08-25T08:36:47Z</time>
      </trkpt>
      <trkpt lat="44.81828" lon="6.73304">
        <ele>2315.55</ele>
        <time>2018-08-25T08:36:49Z</time>
      </trkpt>
      <trkpt lat="44.81833" lon="6.73278">
        <ele>2313.84</ele>
        <time>2018-08-25T08:36:51Z</time>
      </trkpt>
      <trkpt lat="44.81813" lon="6.73266">
        <ele>2309.81</ele>
        <time>2018-08-25T08:36:55Z</time>
      </trkpt>
      <trkpt lat="44.81792" lon="6.7331">
        <ele>2306.47</ele>
        <time>2018-08-25T08:36:57Z</time>
      </trkpt>
      <trkpt lat="44.81772" lon="6.73334">
        <ele>2305.75</ele>
        <time>2018-08-25T08:36:58Z</time>
      </trkpt>
      <trkpt lat="44.81754" lon="6.73355">
        <ele>2305.54</ele>
        <time>2018-08-25T08:36:59Z</time>
      </trkpt>
      <trkpt lat="44.81736" lon="6.73377">
        <ele>2304.77</ele>
        <time>2018-08-25T08:37:00Z</time>
      </trkpt>
      <trkpt lat="44.81723" lon="6.73395">
        <ele>2302.44</ele>
        <time>2018-08-25T08:37:01Z</time>
      </trkpt>
      <trkpt lat="44.81707" lon="6.73413">
        <ele>2301.04</ele>
        <time>2018-08-25T08:37:02Z</time>
      </trkpt>
      <trkpt lat="44.81684" lon="6.73451">
        <ele>2297.07</ele>
        <time>2018-08-25T08:37:04Z</time>
      </trkpt>
      <trkpt lat="44.81659" lon="6.73478">
        <ele>2294.89</ele>
        <time>2018-08-25T08:37:06Z</time>
      </trkpt>
      <trkpt lat="44.81631" lon="6.7348">
        <ele>2291.06</ele>
        <time>2018-08-25T08:37:08Z</time>
      </trkpt>
      <trkpt lat="44.81608" lon="6.73467">
        <ele>2288.19</ele>
        <time>2018-08-25T08:37:10Z</time>
      </trkpt>
      <trkpt lat="44.81583" lon="6.73488">
        <ele>2287.02</ele>
        <time>2018-08-25T08:37:12Z</time>
      </trkpt>
      <trkpt lat="44.81562" lon="6.73507">
        <ele>2281.67</ele>
        <time>2018-08-25T08:37:14Z</time>
      </trkpt>
      <trkpt lat="44.81548" lon="6.73525">
        <ele>2278.59</ele>
        <time>2018-08-25T08:37:17Z</time>
      </trkpt>
      <trkpt lat="44.8156" lon="6.73571">
        <ele>2276.36</ele>
        <time>2018-08-25T08:37:19Z</time>
      </trkpt>
      <trkpt lat="44.81562" lon="6.73609">
        <ele>2274.62</ele>
        <time>2018-08-25T08:37:21Z</time>
      </trkpt>
      <trkpt lat="44.81552" lon="6.73645">
        <ele>2273.06</ele>
        <time>2018-08-25T08:37:23Z</time>
      </trkpt>
      <trkpt lat="44.81527" lon="6.73652">
        <ele>2270.89</ele>
        <time>2018-08-25T08:37:25Z</time>
      </trkpt>
      <trkpt lat="44.81506" lon="6.73644">
        <ele>2269.18</ele>
        <time>2018-08-25T08:37:26Z</time>
      </trkpt>
      <trkpt lat="44.81483" lon="6.73638">
        <ele>2268.67</ele>
        <time>2018-08-25T08:37:27Z</time>
      </trkpt>
      <trkpt lat="44.81448" lon="6.73626">
        <ele>2265.45</ele>
        <time>2018-08-25T08:37:29Z</time>
      </trkpt>
      <trkpt lat="44.81414" lon="6.73616">
        <ele>2263.14</ele>
        <time>2018-08-25T08:37:31Z</time>
      </trkpt>
      <trkpt lat="44.81385" lon="6.73609">
        <ele>2260.2</ele>
        <time>2018-08-25T08:37:33Z</time>
      </trkpt>
      <trkpt lat="44.81363" lon="6.73596">
        <ele>2256.01</ele>
        <time>2018-08-25T08:37:35Z</time>
      </trkpt>
      <trkpt lat="44.81362" lon="6.73542">
        <ele>2249.55</ele>
        <time>2018-08-25T08:37:37Z</time>
      </trkpt>
      <trkpt lat="44.81349" lon="6.73504">
        <ele>2246.93</ele>
        <time>2018-08-25T08:37:39Z</time>
      </trkpt>
      <trkpt lat="44.8133" lon="6.73471">
        <ele>2243.48</ele>
        <time>2018-08-25T08:37:41Z</time>
      </trkpt>
      <trkpt lat="44.81313" lon="6.73449">
        <ele>2240.93</ele>
        <time>2018-08-25T08:37:43Z</time>
      </trkpt>
      <trkpt lat="44.81294" lon="6.73436">
        <ele>2239.79</ele>
        <time>2018-08-25T08:37:45Z</time>
      </trkpt>
      <trkpt lat="44.81271" lon="6.73437">
        <ele>2238.78</ele>
        <time>2018-08-25T08:37:47Z</time>
      </trkpt>
      <trkpt lat="44.81249" lon="6.73464">
        <ele>2239.24</ele>
        <time>2018-08-25T08:37:48Z</time>
      </trkpt>
      <trkpt lat="44.8123" lon="6.73476">
        <ele>2238.68</ele>
        <time>2018-08-25T08:37:49Z</time>
      </trkpt>
      <trkpt lat="44.81201" lon="6.73493">
        <ele>2236.86</ele>
        <time>2018-08-25T08:37:51Z</time>
      </trkpt>
      <trkpt lat="44.81175" lon="6.73518">
        <ele>2233.26</ele>
        <time>2018-08-25T08:37:53Z</time>
      </trkpt>
      <trkpt lat="44.81153" lon="6.7353">
        <ele>2228.6</ele>
        <time>2018-08-25T08:37:55Z</time>
      </trkpt>
      <trkpt lat="44.81136" lon="6.73544">
        <ele>2225.94</ele>
        <time>2018-08-25T08:37:57Z</time>
      </trkpt>
      <trkpt lat="44.81145" lon="6.73589">
        <ele>2220.87</ele>
        <time>2018-08-25T08:37:59Z</time>
      </trkpt>
      <trkpt lat="44.81158" lon="6.73623">
        <ele>2218.66</ele>
        <time>2018-08-25T08:38:01Z</time>
      </trkpt>
      <trkpt lat="44.81164" lon="6.73654">
        <ele>2217.55</ele>
        <time>2018-08-25T08:38:03Z</time>
      </trkpt>
      <trkpt lat="44.81158" lon="6.73684">
        <ele>2215.84</ele>
        <time>2018-08-25T08:38:05Z</time>
      </trkpt>
      <trkpt lat="44.81136" lon="6.73694">
        <ele>2211.56</ele>
        <time>2018-08-25T08:38:07Z</time>
      </trkpt>
      <trkpt lat="44.81124" lon="6.73717">
        <ele>2206.61</ele>
        <time>2018-08-25T08:38:59Z</time>
      </trkpt>
      <trkpt lat="44.81122" lon="6.73746">
        <ele>2203.69</ele>
        <time>2018-08-25T08:39:00Z</time>
      </trkpt>
      <trkpt lat="44.81107" lon="6.73773">
        <ele>2200.95</ele>
        <time>2018-08-25T08:39:02Z</time>
      </trkpt>
      <trkpt lat="44.81081" lon="6.73797">
        <ele>2197.97</ele>
        <time>2018-08-25T08:39:04Z</time>
      </trkpt>
      <trkpt lat="44.81062" lon="6.73809">
        <ele>2196.2</ele>
        <time>2018-08-25T08:39:05Z</time>
      </trkpt>
      <trkpt lat="44.81044" lon="6.7382">
        <ele>2195.67</ele>
        <time>2018-08-25T08:39:06Z</time>
      </trkpt>
      <trkpt lat="44.81022" lon="6.73827">
        <ele>2195.51</ele>
        <time>2018-08-25T08:39:07Z</time>
      </trkpt>
      <trkpt lat="44.81001" lon="6.73834">
        <ele>2194.07</ele>
        <time>2018-08-25T08:39:08Z</time>
      </trkpt>
      <trkpt lat="44.80981" lon="6.73841">
        <ele>2192.93</ele>
        <time>2018-08-25T08:39:09Z</time>
      </trkpt>
      <trkpt lat="44.8095" lon="6.73834">
        <ele>2193.19</ele>
        <time>2018-08-25T08:39:11Z</time>
      </trkpt>
      <trkpt lat="44.8092" lon="6.73816">
        <ele>2192.93</ele>
        <time>2018-08-25T08:39:13Z</time>
      </trkpt>
      <trkpt lat="44.80904" lon="6.7379">
        <ele>2195.92</ele>
        <time>2018-08-25T08:39:15Z</time>
      </trkpt>
      <trkpt lat="44.80896" lon="6.73765">
        <ele>2198.75</ele>
        <time>2018-08-25T08:40:17Z</time>
      </trkpt>
      <trkpt lat="44.80882" lon="6.73748">
        <ele>2198.39</ele>
        <time>2018-08-25T08:40:20Z</time>
      </trkpt>
      <trkpt lat="44.80871" lon="6.73727">
        <ele>2200.96</ele>
        <time>2018-08-25T08:40:22Z</time>
      </trkpt>
      <trkpt lat="44.80855" lon="6.7371">
        <ele>2201.4</ele>
        <time>2018-08-25T08:40:24Z</time>
      </trkpt>
      <trkpt lat="44.80837" lon="6.73702">
        <ele>2201.44</ele>
        <time>2018-08-25T08:40:26Z</time>
      </trkpt>
      <trkpt lat="44.80806" lon="6.73706">
        <ele>2202.84</ele>
        <time>2018-08-25T08:40:28Z</time>
      </trkpt>
      <trkpt lat="44.80781" lon="6.73689">
        <ele>2206.4</ele>
        <time>2018-08-25T08:40:30Z</time>
      </trkpt>
      <trkpt lat="44.80764" lon="6.73658">
        <ele>2209.87</ele>
        <time>2018-08-25T08:40:32Z</time>
      </trkpt>
      <trkpt lat="44.80759" lon="6.73625">
        <ele>2211.3</ele>
        <time>2018-08-25T08:40:34Z</time>
      </trkpt>
      <trkpt lat="44.80742" lon="6.73606">
        <ele>2212.34</ele>
        <time>2018-08-25T08:40:36Z</time>
      </trkpt>
      <trkpt lat="44.80721" lon="6.73598">
        <ele>2212.44</ele>
        <time>2018-08-25T08:40:38Z</time>
      </trkpt>
      <trkpt lat="44.80691" lon="6.73601">
        <ele>2211.53</ele>
        <time>2018-08-25T08:40:40Z</time>
      </trkpt>
      <trkpt lat="44.80672" lon="6.73608">
        <ele>2210.07</ele>
        <time>2018-08-25T08:40:41Z</time>
      </trkpt>
      <trkpt lat="44.80643" lon="6.73624">
        <ele>2209.63</ele>
        <time>2018-08-25T08:40:42Z</time>
      </trkpt>
      <trkpt lat="44.80621" lon="6.73637">
        <ele>2208.1</ele>
        <time>2018-08-25T08:40:43Z</time>
      </trkpt>
      <trkpt lat="44.80601" lon="6.73647">
        <ele>2206.24</ele>
        <time>2018-08-25T08:40:44Z</time>
      </trkpt>
      <trkpt lat="44.80581" lon="6.73652">
        <ele>2204.98</ele>
        <time>2018-08-25T08:40:45Z</time>
      </trkpt>
      <trkpt lat="44.80563" lon="6.73656">
        <ele>2204.61</ele>
        <time>2018-08-25T08:40:46Z</time>
      </trkpt>
      <trkpt lat="44.80544" lon="6.73655">
        <ele>2203.09</ele>
        <time>2018-08-25T08:40:47Z</time>
      </trkpt>
      <trkpt lat="44.80513" lon="6.73655">
        <ele>2199.49</ele>
        <time>2018-08-25T08:40:49Z</time>
      </trkpt>
      <trkpt lat="44.80484" lon="6.73664">
        <ele>2196.23</ele>
        <time>2018-08-25T08:40:51Z</time>
      </trkpt>
      <trkpt lat="44.8045" lon="6.73683">
        <ele>2192.09</ele>
        <time>2018-08-25T08:40:53Z</time>
      </trkpt>
      <trkpt lat="44.80432" lon="6.73694">
        <ele>2190.24</ele>
        <time>2018-08-25T08:40:54Z</time>
      </trkpt>
      <trkpt lat="44.80415" lon="6.73707">
        <ele>2189.68</ele>
        <time>2018-08-25T08:40:55Z</time>
      </trkpt>
      <trkpt lat="44.80399" lon="6.73723">
        <ele>2187.42</ele>
        <time>2018-08-25T08:40:56Z</time>
      </trkpt>
      <trkpt lat="44.80383" lon="6.73736">
        <ele>2186.04</ele>
        <time>2018-08-25T08:40:57Z</time>
      </trkpt>
      <trkpt lat="44.8036" lon="6.73751">
        <ele>2184.1</ele>
        <time>2018-08-25T08:40:59Z</time>
      </trkpt>
      <trkpt lat="44.80341" lon="6.73761">
        <ele>2182.8</ele>
        <time>2018-08-25T08:41:01Z</time>
      </trkpt>
      <trkpt lat="44.8035" lon="6.73731">
        <ele>2181.27</ele>
        <time>2018-08-25T08:41:04Z</time>
      </trkpt>
      <trkpt lat="44.80376" lon="6.73705">
        <ele>2183.04</ele>
        <time>2018-08-25T08:41:06Z</time>
      </trkpt>
      <trkpt lat="44.80398" lon="6.73672">
        <ele>2182.62</ele>
        <time>2018-08-25T08:41:07Z</time>
      </trkpt>
      <trkpt lat="44.80411" lon="6.73652">
        <ele>2180.4</ele>
        <time>2018-08-25T08:41:08Z</time>
      </trkpt>
      <trkpt lat="44.80441" lon="6.73635">
        <ele>2175.19</ele>
        <time>2018-08-25T08:41:10Z</time>
      </trkpt>
      <trkpt lat="44.80475" lon="6.73612">
        <ele>2174.51</ele>
        <time>2018-08-25T08:41:12Z</time>
      </trkpt>
      <trkpt lat="44.80493" lon="6.73587">
        <ele>2173.77</ele>
        <time>2018-08-25T08:41:13Z</time>
      </trkpt>
      <trkpt lat="44.80508" lon="6.73564">
        <ele>2172.84</ele>
        <time>2018-08-25T08:41:14Z</time>
      </trkpt>
      <trkpt lat="44.80526" lon="6.73547">
        <ele>2170.46</ele>
        <time>2018-08-25T08:41:15Z</time>
      </trkpt>
      <trkpt lat="44.80541" lon="6.7353">
        <ele>2169.75</ele>
        <time>2018-08-25T08:41:16Z</time>
      </trkpt>
      <trkpt lat="44.80565" lon="6.73498">
        <ele>2169.26</ele>
        <time>2018-08-25T08:41:18Z</time>
      </trkpt>
      <trkpt lat="44.80568" lon="6.73463">
        <ele>2165.95</ele>
        <time>2018-08-25T08:41:21Z</time>
      </trkpt>
      <trkpt lat="44.80539" lon="6.73437">
        <ele>2162.27</ele>
        <time>2018-08-25T08:41:23Z</time>
      </trkpt>
      <trkpt lat="44.80521" lon="6.73428">
        <ele>2160.99</ele>
        <time>2018-08-25T08:41:24Z</time>
      </trkpt>
      <trkpt lat="44.805" lon="6.73428">
        <ele>2159.21</ele>
        <time>2018-08-25T08:41:25Z</time>
      </trkpt>
      <trkpt lat="44.80477" lon="6.73431">
        <ele>2155.87</ele>
        <time>2018-08-25T08:41:26Z</time>
      </trkpt>
      <trkpt lat="44.80446" lon="6.73445">
        <ele>2153.47</ele>
        <time>2018-08-25T08:41:27Z</time>
      </trkpt>
      <trkpt lat="44.80427" lon="6.73449">
        <ele>2150.65</ele>
        <time>2018-08-25T08:41:28Z</time>
      </trkpt>
      <trkpt lat="44.80394" lon="6.73441">
        <ele>2144.51</ele>
        <time>2018-08-25T08:41:30Z</time>
      </trkpt>
      <trkpt lat="44.80375" lon="6.73432">
        <ele>2141.67</ele>
        <time>2018-08-25T08:41:31Z</time>
      </trkpt>
      <trkpt lat="44.80353" lon="6.73421">
        <ele>2140.11</ele>
        <time>2018-08-25T08:41:32Z</time>
      </trkpt>
      <trkpt lat="44.80329" lon="6.73405">
        <ele>2136.84</ele>
        <time>2018-08-25T08:41:33Z</time>
      </trkpt>
      <trkpt lat="44.80308" lon="6.7339">
        <ele>2134.46</ele>
        <time>2018-08-25T08:41:34Z</time>
      </trkpt>
      <trkpt lat="44.80288" lon="6.73373">
        <ele>2131.65</ele>
        <time>2018-08-25T08:41:35Z</time>
      </trkpt>
      <trkpt lat="44.80268" lon="6.73361">
        <ele>2129.41</ele>
        <time>2018-08-25T08:41:36Z</time>
      </trkpt>
      <trkpt lat="44.8025" lon="6.73348">
        <ele>2127.33</ele>
        <time>2018-08-25T08:41:37Z</time>
      </trkpt>
      <trkpt lat="44.80233" lon="6.73332">
        <ele>2124.61</ele>
        <time>2018-08-25T08:41:38Z</time>
      </trkpt>
      <trkpt lat="44.80218" lon="6.73309">
        <ele>2122.4</ele>
        <time>2018-08-25T08:41:39Z</time>
      </trkpt>
      <trkpt lat="44.80203" lon="6.73285">
        <ele>2120.33</ele>
        <time>2018-08-25T08:41:40Z</time>
      </trkpt>
      <trkpt lat="44.80188" lon="6.73261">
        <ele>2118.31</ele>
        <time>2018-08-25T08:41:41Z</time>
      </trkpt>
      <trkpt lat="44.80173" lon="6.73237">
        <ele>2115.6</ele>
        <time>2018-08-25T08:41:42Z</time>
      </trkpt>
      <trkpt lat="44.80158" lon="6.73216">
        <ele>2112.69</ele>
        <time>2018-08-25T08:41:43Z</time>
      </trkpt>
      <trkpt lat="44.80141" lon="6.73198">
        <ele>2111.82</ele>
        <time>2018-08-25T08:41:44Z</time>
      </trkpt>
      <trkpt lat="44.80119" lon="6.73165">
        <ele>2108.05</ele>
        <time>2018-08-25T08:41:46Z</time>
      </trkpt>
      <trkpt lat="44.801" lon="6.73132">
        <ele>2106.8</ele>
        <time>2018-08-25T08:41:48Z</time>
      </trkpt>
      <trkpt lat="44.80084" lon="6.73117">
        <ele>2096.05</ele>
        <time>2018-08-25T08:41:58Z</time>
      </trkpt>
      <trkpt lat="44.80077" lon="6.73148">
        <ele>2092.18</ele>
        <time>2018-08-25T08:42:01Z</time>
      </trkpt>
      <trkpt lat="44.80088" lon="6.73171">
        <ele>2091.51</ele>
        <time>2018-08-25T08:42:03Z</time>
      </trkpt>
      <trkpt lat="44.8011" lon="6.73211">
        <ele>2090.75</ele>
        <time>2018-08-25T08:42:05Z</time>
      </trkpt>
      <trkpt lat="44.80124" lon="6.73253">
        <ele>2089.56</ele>
        <time>2018-08-25T08:42:07Z</time>
      </trkpt>
      <trkpt lat="44.80136" lon="6.73274">
        <ele>2088.08</ele>
        <time>2018-08-25T08:42:08Z</time>
      </trkpt>
      <trkpt lat="44.80152" lon="6.73308">
        <ele>2082.46</ele>
        <time>2018-08-25T08:42:10Z</time>
      </trkpt>
      <trkpt lat="44.80168" lon="6.73346">
        <ele>2079.23</ele>
        <time>2018-08-25T08:42:12Z</time>
      </trkpt>
      <trkpt lat="44.80189" lon="6.73377">
        <ele>2076.91</ele>
        <time>2018-08-25T08:42:14Z</time>
      </trkpt>
      <trkpt lat="44.80207" lon="6.73401">
        <ele>2074.88</ele>
        <time>2018-08-25T08:42:16Z</time>
      </trkpt>
      <trkpt lat="44.80218" lon="6.73426">
        <ele>2073.57</ele>
        <time>2018-08-25T08:42:18Z</time>
      </trkpt>
      <trkpt lat="44.80188" lon="6.73422">
        <ele>2068.71</ele>
        <time>2018-08-25T08:42:21Z</time>
      </trkpt>
      <trkpt lat="44.80164" lon="6.734">
        <ele>2067.77</ele>
        <time>2018-08-25T08:42:23Z</time>
      </trkpt>
      <trkpt lat="44.80144" lon="6.73364">
        <ele>2065.86</ele>
        <time>2018-08-25T08:42:25Z</time>
      </trkpt>
      <trkpt lat="44.80131" lon="6.73346">
        <ele>2064.87</ele>
        <time>2018-08-25T08:42:26Z</time>
      </trkpt>
      <trkpt lat="44.80103" lon="6.73317">
        <ele>2063.78</ele>
        <time>2018-08-25T08:42:28Z</time>
      </trkpt>
      <trkpt lat="44.80074" lon="6.73286">
        <ele>2059.56</ele>
        <time>2018-08-25T08:42:30Z</time>
      </trkpt>
      <trkpt lat="44.80058" lon="6.73271">
        <ele>2058.78</ele>
        <time>2018-08-25T08:42:31Z</time>
      </trkpt>
      <trkpt lat="44.8003" lon="6.73246">
        <ele>2055.96</ele>
        <time>2018-08-25T08:42:33Z</time>
      </trkpt>
      <trkpt lat="44.80015" lon="6.73234">
        <ele>2054.9</ele>
        <time>2018-08-25T08:42:34Z</time>
      </trkpt>
      <trkpt lat="44.79979" lon="6.73231">
        <ele>2049.66</ele>
        <time>2018-08-25T08:42:36Z</time>
      </trkpt>
      <trkpt lat="44.79948" lon="6.73223">
        <ele>2046.03</ele>
        <time>2018-08-25T08:42:38Z</time>
      </trkpt>
      <trkpt lat="44.79939" lon="6.73198">
        <ele>2042.28</ele>
        <time>2018-08-25T08:42:40Z</time>
      </trkpt>
      <trkpt lat="44.79935" lon="6.7317">
        <ele>2039.7</ele>
        <time>2018-08-25T08:42:42Z</time>
      </trkpt>
      <trkpt lat="44.79944" lon="6.73147">
        <ele>2038.12</ele>
        <time>2018-08-25T08:42:43Z</time>
      </trkpt>
      <trkpt lat="44.7995" lon="6.73105">
        <ele>2034.99</ele>
        <time>2018-08-25T08:42:45Z</time>
      </trkpt>
      <trkpt lat="44.79959" lon="6.73061">
        <ele>2031.27</ele>
        <time>2018-08-25T08:42:47Z</time>
      </trkpt>
      <trkpt lat="44.79977" lon="6.73021">
        <ele>2028.42</ele>
        <time>2018-08-25T08:42:49Z</time>
      </trkpt>
      <trkpt lat="44.80002" lon="6.7299">
        <ele>2025.01</ele>
        <time>2018-08-25T08:42:51Z</time>
      </trkpt>
      <trkpt lat="44.80022" lon="6.72968">
        <ele>2021.98</ele>
        <time>2018-08-25T08:42:53Z</time>
      </trkpt>
      <trkpt lat="44.80011" lon="6.72942">
        <ele>2019.57</ele>
        <time>2018-08-25T08:42:57Z</time>
      </trkpt>
      <trkpt lat="44.79998" lon="6.72962">
        <ele>2019.46</ele>
        <time>2018-08-25T08:42:59Z</time>
      </trkpt>
      <trkpt lat="44.79977" lon="6.72987">
        <ele>2017.14</ele>
        <time>2018-08-25T08:43:01Z</time>
      </trkpt>
      <trkpt lat="44.79961" lon="6.73002">
        <ele>2015.25</ele>
        <time>2018-08-25T08:43:02Z</time>
      </trkpt>
      <trkpt lat="44.79947" lon="6.73019">
        <ele>2012.59</ele>
        <time>2018-08-25T08:43:03Z</time>
      </trkpt>
      <trkpt lat="44.79924" lon="6.73057">
        <ele>2008.54</ele>
        <time>2018-08-25T08:43:05Z</time>
      </trkpt>
      <trkpt lat="44.79915" lon="6.73079">
        <ele>2005.67</ele>
        <time>2018-08-25T08:43:06Z</time>
      </trkpt>
      <trkpt lat="44.79901" lon="6.7312">
        <ele>2002.04</ele>
        <time>2018-08-25T08:43:08Z</time>
      </trkpt>
      <trkpt lat="44.79884" lon="6.73151">
        <ele>2001.5</ele>
        <time>2018-08-25T08:43:10Z</time>
      </trkpt>
      <trkpt lat="44.79871" lon="6.73185">
        <ele>1998.23</ele>
        <time>2018-08-25T08:43:12Z</time>
      </trkpt>
      <trkpt lat="44.79868" lon="6.73224">
        <ele>1996.12</ele>
        <time>2018-08-25T08:43:14Z</time>
      </trkpt>
      <trkpt lat="44.79863" lon="6.73253">
        <ele>1991.82</ele>
        <time>2018-08-25T08:43:17Z</time>
      </trkpt>
      <trkpt lat="44.79857" lon="6.73222">
        <ele>1991.18</ele>
        <time>2018-08-25T08:43:20Z</time>
      </trkpt>
      <trkpt lat="44.79855" lon="6.73182">
        <ele>1989.27</ele>
        <time>2018-08-25T08:43:21Z</time>
      </trkpt>
      <trkpt lat="44.79863" lon="6.7314">
        <ele>1984.6</ele>
        <time>2018-08-25T08:43:23Z</time>
      </trkpt>
      <trkpt lat="44.79876" lon="6.73097">
        <ele>1982.85</ele>
        <time>2018-08-25T08:43:25Z</time>
      </trkpt>
      <trkpt lat="44.79881" lon="6.73044">
        <ele>1979.26</ele>
        <time>2018-08-25T08:43:27Z</time>
      </trkpt>
      <trkpt lat="44.79888" lon="6.73019">
        <ele>1976.59</ele>
        <time>2018-08-25T08:43:28Z</time>
      </trkpt>
      <trkpt lat="44.79896" lon="6.72994">
        <ele>1975.09</ele>
        <time>2018-08-25T08:43:29Z</time>
      </trkpt>
      <trkpt lat="44.79904" lon="6.72971">
        <ele>1973.94</ele>
        <time>2018-08-25T08:43:30Z</time>
      </trkpt>
      <trkpt lat="44.79912" lon="6.72927">
        <ele>1970.97</ele>
        <time>2018-08-25T08:43:32Z</time>
      </trkpt>
      <trkpt lat="44.79912" lon="6.72898">
        <ele>1967.97</ele>
        <time>2018-08-25T08:43:34Z</time>
      </trkpt>
      <trkpt lat="44.79893" lon="6.7288">
        <ele>1962.67</ele>
        <time>2018-08-25T08:43:38Z</time>
      </trkpt>
      <trkpt lat="44.79878" lon="6.72918">
        <ele>1963.17</ele>
        <time>2018-08-25T08:43:40Z</time>
      </trkpt>
      <trkpt lat="44.7986" lon="6.72965">
        <ele>1962.72</ele>
        <time>2018-08-25T08:43:42Z</time>
      </trkpt>
      <trkpt lat="44.79853" lon="6.72993">
        <ele>1961.83</ele>
        <time>2018-08-25T08:43:43Z</time>
      </trkpt>
      <trkpt lat="44.79843" lon="6.73014">
        <ele>1960.16</ele>
        <time>2018-08-25T08:43:44Z</time>
      </trkpt>
      <trkpt lat="44.79836" lon="6.73038">
        <ele>1958.96</ele>
        <time>2018-08-25T08:43:45Z</time>
      </trkpt>
      <trkpt lat="44.79818" lon="6.73073">
        <ele>1956.88</ele>
        <time>2018-08-25T08:43:47Z</time>
      </trkpt>
      <trkpt lat="44.79802" lon="6.73108">
        <ele>1950.46</ele>
        <time>2018-08-25T08:43:49Z</time>
      </trkpt>
      <trkpt lat="44.79799" lon="6.73153">
        <ele>1944.01</ele>
        <time>2018-08-25T08:43:51Z</time>
      </trkpt>
      <trkpt lat="44.79793" lon="6.73196">
        <ele>1940.77</ele>
        <time>2018-08-25T08:43:53Z</time>
      </trkpt>
      <trkpt lat="44.79783" lon="6.73236">
        <ele>1939.56</ele>
        <time>2018-08-25T08:43:55Z</time>
      </trkpt>
      <trkpt lat="44.79765" lon="6.73254">
        <ele>1936.68</ele>
        <time>2018-08-25T08:43:56Z</time>
      </trkpt>
      <trkpt lat="44.79734" lon="6.73218">
        <ele>1935.12</ele>
        <time>2018-08-25T08:43:57Z</time>
      </trkpt>
      <trkpt lat="44.7971" lon="6.73225">
        <ele>1932.2</ele>
        <time>2018-08-25T08:43:59Z</time>
      </trkpt>
      <trkpt lat="44.79699" lon="6.73268">
        <ele>1927.97</ele>
        <time>2018-08-25T08:44:02Z</time>
      </trkpt>
      <trkpt lat="44.79704" lon="6.73307">
        <ele>1925.88</ele>
        <time>2018-08-25T08:44:04Z</time>
      </trkpt>
      <trkpt lat="44.79722" lon="6.73338">
        <ele>1925.48</ele>
        <time>2018-08-25T08:44:06Z</time>
      </trkpt>
      <trkpt lat="44.79752" lon="6.73351">
        <ele>1925.46</ele>
        <time>2018-08-25T08:44:07Z</time>
      </trkpt>
      <trkpt lat="44.79779" lon="6.73373">
        <ele>1925.45</ele>
        <time>2018-08-25T08:44:08Z</time>
      </trkpt>
      <trkpt lat="44.79795" lon="6.73393">
        <ele>1922.65</ele>
        <time>2018-08-25T08:44:09Z</time>
      </trkpt>
      <trkpt lat="44.79809" lon="6.73411">
        <ele>1921.11</ele>
        <time>2018-08-25T08:44:10Z</time>
      </trkpt>
      <trkpt lat="44.79826" lon="6.73427">
        <ele>1919.94</ele>
        <time>2018-08-25T08:44:11Z</time>
      </trkpt>
      <trkpt lat="44.79846" lon="6.73446">
        <ele>1916.97</ele>
        <time>2018-08-25T08:44:13Z</time>
      </trkpt>
      <trkpt lat="44.79853" lon="6.73472">
        <ele>1914.18</ele>
        <time>2018-08-25T08:44:15Z</time>
      </trkpt>
      <trkpt lat="44.79833" lon="6.73464">
        <ele>1909.6</ele>
        <time>2018-08-25T08:44:19Z</time>
      </trkpt>
      <trkpt lat="44.79805" lon="6.73431">
        <ele>1909.49</ele>
        <time>2018-08-25T08:44:20Z</time>
      </trkpt>
      <trkpt lat="44.79783" lon="6.73395">
        <ele>1909.46</ele>
        <time>2018-08-25T08:44:21Z</time>
      </trkpt>
      <trkpt lat="44.79762" lon="6.73383">
        <ele>1909.45</ele>
        <time>2018-08-25T08:44:22Z</time>
      </trkpt>
      <trkpt lat="44.79746" lon="6.73368">
        <ele>1908.75</ele>
        <time>2018-08-25T08:44:23Z</time>
      </trkpt>
      <trkpt lat="44.79728" lon="6.73358">
        <ele>1907.14</ele>
        <time>2018-08-25T08:44:24Z</time>
      </trkpt>
      <trkpt lat="44.79708" lon="6.73349">
        <ele>1903.15</ele>
        <time>2018-08-25T08:44:25Z</time>
      </trkpt>
      <trkpt lat="44.79681" lon="6.73323">
        <ele>1896.56</ele>
        <time>2018-08-25T08:44:27Z</time>
      </trkpt>
      <trkpt lat="44.79652" lon="6.73296">
        <ele>1893.24</ele>
        <time>2018-08-25T08:44:29Z</time>
      </trkpt>
      <trkpt lat="44.79636" lon="6.73279">
        <ele>1889.88</ele>
        <time>2018-08-25T08:44:30Z</time>
      </trkpt>
      <trkpt lat="44.79621" lon="6.73263">
        <ele>1888.88</ele>
        <time>2018-08-25T08:44:31Z</time>
      </trkpt>
      <trkpt lat="44.79603" lon="6.7323">
        <ele>1883.86</ele>
        <time>2018-08-25T08:44:33Z</time>
      </trkpt>
      <trkpt lat="44.79593" lon="6.73194">
        <ele>1879.35</ele>
        <time>2018-08-25T08:44:35Z</time>
      </trkpt>
      <trkpt lat="44.79602" lon="6.73153">
        <ele>1876.71</ele>
        <time>2018-08-25T08:44:37Z</time>
      </trkpt>
      <trkpt lat="44.79615" lon="6.73132">
        <ele>1875.82</ele>
        <time>2018-08-25T08:44:38Z</time>
      </trkpt>
      <trkpt lat="44.79632" lon="6.73115">
        <ele>1876.26</ele>
        <time>2018-08-25T08:44:39Z</time>
      </trkpt>
      <trkpt lat="44.79656" lon="6.73094">
        <ele>1873</ele>
        <time>2018-08-25T08:44:41Z</time>
      </trkpt>
      <trkpt lat="44.79647" lon="6.73058">
        <ele>1871.79</ele>
        <time>2018-08-25T08:44:43Z</time>
      </trkpt>
      <trkpt lat="44.7964" lon="6.73022">
        <ele>1868.05</ele>
        <time>2018-08-25T08:44:45Z</time>
      </trkpt>
      <trkpt lat="44.79647" lon="6.7298">
        <ele>1863.37</ele>
        <time>2018-08-25T08:44:47Z</time>
      </trkpt>
      <trkpt lat="44.79652" lon="6.72955">
        <ele>1862.02</ele>
        <time>2018-08-25T08:44:48Z</time>
      </trkpt>
      <trkpt lat="44.79659" lon="6.72931">
        <ele>1860.22</ele>
        <time>2018-08-25T08:44:49Z</time>
      </trkpt>
      <trkpt lat="44.79674" lon="6.72913">
        <ele>1859.68</ele>
        <time>2018-08-25T08:44:50Z</time>
      </trkpt>
      <trkpt lat="44.79681" lon="6.72867">
        <ele>1855.55</ele>
        <time>2018-08-25T08:44:52Z</time>
      </trkpt>
      <trkpt lat="44.79675" lon="6.72822">
        <ele>1852.02</ele>
        <time>2018-08-25T08:44:54Z</time>
      </trkpt>
      <trkpt lat="44.79668" lon="6.72794">
        <ele>1848.77</ele>
        <time>2018-08-25T08:44:56Z</time>
      </trkpt>
      <trkpt lat="44.79651" lon="6.7278">
        <ele>1844.34</ele>
        <time>2018-08-25T08:44:58Z</time>
      </trkpt>
      <trkpt lat="44.79614" lon="6.72797">
        <ele>1843.53</ele>
        <time>2018-08-25T08:45:00Z</time>
      </trkpt>
      <trkpt lat="44.7959" lon="6.7286">
        <ele>1841.84</ele>
        <time>2018-08-25T08:45:02Z</time>
      </trkpt>
      <trkpt lat="44.7958" lon="6.72887">
        <ele>1838.76</ele>
        <time>2018-08-25T08:45:03Z</time>
      </trkpt>
      <trkpt lat="44.7957" lon="6.72908">
        <ele>1835.74</ele>
        <time>2018-08-25T08:45:04Z</time>
      </trkpt>
      <trkpt lat="44.79548" lon="6.72944">
        <ele>1829.73</ele>
        <time>2018-08-25T08:45:06Z</time>
      </trkpt>
      <trkpt lat="44.79529" lon="6.72974">
        <ele>1824.43</ele>
        <time>2018-08-25T08:45:08Z</time>
      </trkpt>
      <trkpt lat="44.79507" lon="6.73">
        <ele>1818.7</ele>
        <time>2018-08-25T08:45:10Z</time>
      </trkpt>
      <trkpt lat="44.79484" lon="6.73022">
        <ele>1813.64</ele>
        <time>2018-08-25T08:45:12Z</time>
      </trkpt>
      <trkpt lat="44.79458" lon="6.73041">
        <ele>1809.54</ele>
        <time>2018-08-25T08:45:14Z</time>
      </trkpt>
      <trkpt lat="44.79432" lon="6.73058">
        <ele>1806.23</ele>
        <time>2018-08-25T08:45:16Z</time>
      </trkpt>
      <trkpt lat="44.79405" lon="6.73077">
        <ele>1803.21</ele>
        <time>2018-08-25T08:45:18Z</time>
      </trkpt>
      <trkpt lat="44.79378" lon="6.73093">
        <ele>1799.99</ele>
        <time>2018-08-25T08:45:20Z</time>
      </trkpt>
      <trkpt lat="44.7935" lon="6.73109">
        <ele>1796.27</ele>
        <time>2018-08-25T08:45:22Z</time>
      </trkpt>
      <trkpt lat="44.79322" lon="6.73125">
        <ele>1792.51</ele>
        <time>2018-08-25T08:45:24Z</time>
      </trkpt>
      <trkpt lat="44.79294" lon="6.73139">
        <ele>1788.32</ele>
        <time>2018-08-25T08:45:26Z</time>
      </trkpt>
      <trkpt lat="44.79266" lon="6.73151">
        <ele>1785.91</ele>
        <time>2018-08-25T08:45:28Z</time>
      </trkpt>
      <trkpt lat="44.79238" lon="6.73162">
        <ele>1782.97</ele>
        <time>2018-08-25T08:45:30Z</time>
      </trkpt>
      <trkpt lat="44.79209" lon="6.73175">
        <ele>1780.18</ele>
        <time>2018-08-25T08:45:32Z</time>
      </trkpt>
      <trkpt lat="44.79183" lon="6.73191">
        <ele>1775.59</ele>
        <time>2018-08-25T08:45:34Z</time>
      </trkpt>
      <trkpt lat="44.79155" lon="6.73203">
        <ele>1771.12</ele>
        <time>2018-08-25T08:45:36Z</time>
      </trkpt>
      <trkpt lat="44.79126" lon="6.7321">
        <ele>1768.9</ele>
        <time>2018-08-25T08:45:38Z</time>
      </trkpt>
      <trkpt lat="44.79094" lon="6.73214">
        <ele>1765.97</ele>
        <time>2018-08-25T08:45:40Z</time>
      </trkpt>
      <trkpt lat="44.79063" lon="6.73217">
        <ele>1763.18</ele>
        <time>2018-08-25T08:45:42Z</time>
      </trkpt>
      <trkpt lat="44.79031" lon="6.73224">
        <ele>1760.2</ele>
        <time>2018-08-25T08:45:44Z</time>
      </trkpt>
      <trkpt lat="44.78996" lon="6.73237">
        <ele>1757.9</ele>
        <time>2018-08-25T08:45:46Z</time>
      </trkpt>
      <trkpt lat="44.78978" lon="6.73251">
        <ele>1756.18</ele>
        <time>2018-08-25T08:45:47Z</time>
      </trkpt>
      <trkpt lat="44.78959" lon="6.73263">
        <ele>1754.97</ele>
        <time>2018-08-25T08:45:48Z</time>
      </trkpt>
      <trkpt lat="44.7894" lon="6.73275">
        <ele>1753.9</ele>
        <time>2018-08-25T08:45:49Z</time>
      </trkpt>
      <trkpt lat="44.7892" lon="6.73287">
        <ele>1752.18</ele>
        <time>2018-08-25T08:45:50Z</time>
      </trkpt>
      <trkpt lat="44.78897" lon="6.73294">
        <ele>1750.27</ele>
        <time>2018-08-25T08:45:51Z</time>
      </trkpt>
      <trkpt lat="44.78876" lon="6.73297">
        <ele>1748.29</ele>
        <time>2018-08-25T08:45:52Z</time>
      </trkpt>
      <trkpt lat="44.78855" lon="6.73298">
        <ele>1746.3</ele>
        <time>2018-08-25T08:45:53Z</time>
      </trkpt>
      <trkpt lat="44.78833" lon="6.733">
        <ele>1744.3</ele>
        <time>2018-08-25T08:45:54Z</time>
      </trkpt>
      <trkpt lat="44.78811" lon="6.73302">
        <ele>1743</ele>
        <time>2018-08-25T08:45:55Z</time>
      </trkpt>
      <trkpt lat="44.78789" lon="6.73304">
        <ele>1741.21</ele>
        <time>2018-08-25T08:45:56Z</time>
      </trkpt>
      <trkpt lat="44.78767" lon="6.73306">
        <ele>1739.28</ele>
        <time>2018-08-25T08:45:57Z</time>
      </trkpt>
      <trkpt lat="44.78745" lon="6.73307">
        <ele>1737.99</ele>
        <time>2018-08-25T08:45:58Z</time>
      </trkpt>
      <trkpt lat="44.78723" lon="6.73308">
        <ele>1737.61</ele>
        <time>2018-08-25T08:45:59Z</time>
      </trkpt>
      <trkpt lat="44.78702" lon="6.73307">
        <ele>1736.09</ele>
        <time>2018-08-25T08:46:00Z</time>
      </trkpt>
      <trkpt lat="44.78682" lon="6.73307">
        <ele>1733.54</ele>
        <time>2018-08-25T08:46:01Z</time>
      </trkpt>
      <trkpt lat="44.78661" lon="6.73309">
        <ele>1732.77</ele>
        <time>2018-08-25T08:46:02Z</time>
      </trkpt>
      <trkpt lat="44.7864" lon="6.73313">
        <ele>1731.14</ele>
        <time>2018-08-25T08:46:03Z</time>
      </trkpt>
      <trkpt lat="44.7862" lon="6.73319">
        <ele>1729.95</ele>
        <time>2018-08-25T08:46:04Z</time>
      </trkpt>
      <trkpt lat="44.78601" lon="6.73326">
        <ele>1726.8</ele>
        <time>2018-08-25T08:46:05Z</time>
      </trkpt>
      <trkpt lat="44.78582" lon="6.73336">
        <ele>1724.45</ele>
        <time>2018-08-25T08:46:06Z</time>
      </trkpt>
      <trkpt lat="44.78565" lon="6.73347">
        <ele>1721.65</ele>
        <time>2018-08-25T08:46:07Z</time>
      </trkpt>
      <trkpt lat="44.78531" lon="6.73366">
        <ele>1716.91</ele>
        <time>2018-08-25T08:46:09Z</time>
      </trkpt>
      <trkpt lat="44.78514" lon="6.73375">
        <ele>1715.89</ele>
        <time>2018-08-25T08:46:10Z</time>
      </trkpt>
      <trkpt lat="44.78498" lon="6.73385">
        <ele>1714.88</ele>
        <time>2018-08-25T08:46:11Z</time>
      </trkpt>
      <trkpt lat="44.78481" lon="6.73395">
        <ele>1713.17</ele>
        <time>2018-08-25T08:46:12Z</time>
      </trkpt>
      <trkpt lat="44.78464" lon="6.73406">
        <ele>1711.26</ele>
        <time>2018-08-25T08:46:13Z</time>
      </trkpt>
      <trkpt lat="44.78447" lon="6.73418">
        <ele>1709.29</ele>
        <time>2018-08-25T08:46:14Z</time>
      </trkpt>
      <trkpt lat="44.78429" lon="6.73429">
        <ele>1707.3</ele>
        <time>2018-08-25T08:46:15Z</time>
      </trkpt>
      <trkpt lat="44.78411" lon="6.73439">
        <ele>1705.3</ele>
        <time>2018-08-25T08:46:16Z</time>
      </trkpt>
      <trkpt lat="44.78395" lon="6.73449">
        <ele>1704</ele>
        <time>2018-08-25T08:46:17Z</time>
      </trkpt>
      <trkpt lat="44.78361" lon="6.73466">
        <ele>1700.28</ele>
        <time>2018-08-25T08:46:19Z</time>
      </trkpt>
      <trkpt lat="44.78343" lon="6.73473">
        <ele>1698.99</ele>
        <time>2018-08-25T08:46:20Z</time>
      </trkpt>
      <trkpt lat="44.78325" lon="6.73478">
        <ele>1698.61</ele>
        <time>2018-08-25T08:46:21Z</time>
      </trkpt>
      <trkpt lat="44.78307" lon="6.73482">
        <ele>1697.79</ele>
        <time>2018-08-25T08:46:22Z</time>
      </trkpt>
      <trkpt lat="44.78289" lon="6.73487">
        <ele>1696.85</ele>
        <time>2018-08-25T08:46:23Z</time>
      </trkpt>
      <trkpt lat="44.7827" lon="6.73491">
        <ele>1695.87</ele>
        <time>2018-08-25T08:46:24Z</time>
      </trkpt>
      <trkpt lat="44.78252" lon="6.73493">
        <ele>1695.57</ele>
        <time>2018-08-25T08:46:25Z</time>
      </trkpt>
      <trkpt lat="44.78233" lon="6.73494">
        <ele>1694.78</ele>
        <time>2018-08-25T08:46:26Z</time>
      </trkpt>
      <trkpt lat="44.78215" lon="6.73494">
        <ele>1694.55</ele>
        <time>2018-08-25T08:46:27Z</time>
      </trkpt>
      <trkpt lat="44.78181" lon="6.73494">
        <ele>1693.54</ele>
        <time>2018-08-25T08:46:29Z</time>
      </trkpt>
      <trkpt lat="44.7815" lon="6.73493">
        <ele>1692.54</ele>
        <time>2018-08-25T08:46:31Z</time>
      </trkpt>
      <trkpt lat="44.78127" lon="6.73497">
        <ele>1689.23</ele>
        <time>2018-08-25T08:46:33Z</time>
      </trkpt>
      <trkpt lat="44.78104" lon="6.73514">
        <ele>1687.61</ele>
        <time>2018-08-25T08:46:35Z</time>
      </trkpt>
      <trkpt lat="44.7808" lon="6.73533">
        <ele>1685.64</ele>
        <time>2018-08-25T08:46:37Z</time>
      </trkpt>
      <trkpt lat="44.78053" lon="6.73542">
        <ele>1683.85</ele>
        <time>2018-08-25T08:46:39Z</time>
      </trkpt>
      <trkpt lat="44.78022" lon="6.73537">
        <ele>1681.17</ele>
        <time>2018-08-25T08:46:41Z</time>
      </trkpt>
      <trkpt lat="44.77988" lon="6.73532">
        <ele>1678.2</ele>
        <time>2018-08-25T08:46:43Z</time>
      </trkpt>
      <trkpt lat="44.77954" lon="6.73526">
        <ele>1675.2</ele>
        <time>2018-08-25T08:46:45Z</time>
      </trkpt>
      <trkpt lat="44.77936" lon="6.73522">
        <ele>1673.27</ele>
        <time>2018-08-25T08:46:46Z</time>
      </trkpt>
      <trkpt lat="44.77899" lon="6.73515">
        <ele>1670.21</ele>
        <time>2018-08-25T08:46:48Z</time>
      </trkpt>
      <trkpt lat="44.77882" lon="6.7351">
        <ele>1668.97</ele>
        <time>2018-08-25T08:46:49Z</time>
      </trkpt>
      <trkpt lat="44.7786" lon="6.73506">
        <ele>1667.9</ele>
        <time>2018-08-25T08:46:50Z</time>
      </trkpt>
      <trkpt lat="44.7784" lon="6.73506">
        <ele>1666.88</ele>
        <time>2018-08-25T08:46:51Z</time>
      </trkpt>
      <trkpt lat="44.77819" lon="6.73507">
        <ele>1666.58</ele>
        <time>2018-08-25T08:46:52Z</time>
      </trkpt>
      <trkpt lat="44.77793" lon="6.73519">
        <ele>1663.68</ele>
        <time>2018-08-25T08:46:53Z</time>
      </trkpt>
      <trkpt lat="44.7777" lon="6.73525">
        <ele>1661.42</ele>
        <time>2018-08-25T08:46:54Z</time>
      </trkpt>
      <trkpt lat="44.77747" lon="6.73532">
        <ele>1659.34</ele>
        <time>2018-08-25T08:46:55Z</time>
      </trkpt>
      <trkpt lat="44.77726" lon="6.73533">
        <ele>1656.61</ele>
        <time>2018-08-25T08:46:56Z</time>
      </trkpt>
      <trkpt lat="44.77702" lon="6.73531">
        <ele>1655.1</ele>
        <time>2018-08-25T08:46:57Z</time>
      </trkpt>
      <trkpt lat="44.77679" lon="6.73529">
        <ele>1653.24</ele>
        <time>2018-08-25T08:46:58Z</time>
      </trkpt>
      <trkpt lat="44.77656" lon="6.73527">
        <ele>1652.68</ele>
        <time>2018-08-25T08:46:59Z</time>
      </trkpt>
      <trkpt lat="44.77631" lon="6.73527">
        <ele>1651.82</ele>
        <time>2018-08-25T08:47:00Z</time>
      </trkpt>
      <trkpt lat="44.77609" lon="6.73529">
        <ele>1650.16</ele>
        <time>2018-08-25T08:47:01Z</time>
      </trkpt>
      <trkpt lat="44.77582" lon="6.73543">
        <ele>1647.56</ele>
        <time>2018-08-25T08:47:02Z</time>
      </trkpt>
      <trkpt lat="44.77559" lon="6.73553">
        <ele>1644.68</ele>
        <time>2018-08-25T08:47:03Z</time>
      </trkpt>
      <trkpt lat="44.77537" lon="6.73563">
        <ele>1641.02</ele>
        <time>2018-08-25T08:47:04Z</time>
      </trkpt>
      <trkpt lat="44.77514" lon="6.73574">
        <ele>1637.82</ele>
        <time>2018-08-25T08:47:05Z</time>
      </trkpt>
      <trkpt lat="44.77492" lon="6.73583">
        <ele>1634.76</ele>
        <time>2018-08-25T08:47:06Z</time>
      </trkpt>
      <trkpt lat="44.77469" lon="6.73592">
        <ele>1632.44</ele>
        <time>2018-08-25T08:47:07Z</time>
      </trkpt>
      <trkpt lat="44.77447" lon="6.73599">
        <ele>1628.94</ele>
        <time>2018-08-25T08:47:08Z</time>
      </trkpt>
      <trkpt lat="44.77425" lon="6.73606">
        <ele>1627.19</ele>
        <time>2018-08-25T08:47:09Z</time>
      </trkpt>
      <trkpt lat="44.77404" lon="6.73613">
        <ele>1623.87</ele>
        <time>2018-08-25T08:47:10Z</time>
      </trkpt>
      <trkpt lat="44.77383" lon="6.7362">
        <ele>1621.47</ele>
        <time>2018-08-25T08:47:11Z</time>
      </trkpt>
      <trkpt lat="44.77362" lon="6.73626">
        <ele>1618.65</ele>
        <time>2018-08-25T08:47:12Z</time>
      </trkpt>
      <trkpt lat="44.7734" lon="6.73632">
        <ele>1616.41</ele>
        <time>2018-08-25T08:47:13Z</time>
      </trkpt>
      <trkpt lat="44.77318" lon="6.73638">
        <ele>1615.73</ele>
        <time>2018-08-25T08:47:14Z</time>
      </trkpt>
      <trkpt lat="44.77295" lon="6.73643">
        <ele>1614.83</ele>
        <time>2018-08-25T08:47:15Z</time>
      </trkpt>
      <trkpt lat="44.77272" lon="6.73648">
        <ele>1614.56</ele>
        <time>2018-08-25T08:47:16Z</time>
      </trkpt>
      <trkpt lat="44.7725" lon="6.73648">
        <ele>1613.78</ele>
        <time>2018-08-25T08:47:17Z</time>
      </trkpt>
      <trkpt lat="44.77227" lon="6.73649">
        <ele>1612.85</ele>
        <time>2018-08-25T08:47:18Z</time>
      </trkpt>
      <trkpt lat="44.77205" lon="6.7365">
        <ele>1611.17</ele>
        <time>2018-08-25T08:47:19Z</time>
      </trkpt>
      <trkpt lat="44.77182" lon="6.73658">
        <ele>1609.26</ele>
        <time>2018-08-25T08:47:20Z</time>
      </trkpt>
      <trkpt lat="44.7716" lon="6.73659">
        <ele>1607.29</ele>
        <time>2018-08-25T08:47:21Z</time>
      </trkpt>
      <trkpt lat="44.77137" lon="6.73662">
        <ele>1606</ele>
        <time>2018-08-25T08:47:22Z</time>
      </trkpt>
      <trkpt lat="44.77116" lon="6.73666">
        <ele>1604.91</ele>
        <time>2018-08-25T08:47:23Z</time>
      </trkpt>
      <trkpt lat="44.77095" lon="6.73669">
        <ele>1603.88</ele>
        <time>2018-08-25T08:47:24Z</time>
      </trkpt>
      <trkpt lat="44.77075" lon="6.73672">
        <ele>1603.58</ele>
        <time>2018-08-25T08:47:25Z</time>
      </trkpt>
      <trkpt lat="44.77053" lon="6.73675">
        <ele>1601.38</ele>
        <time>2018-08-25T08:47:26Z</time>
      </trkpt>
      <trkpt lat="44.77033" lon="6.73676">
        <ele>1598.63</ele>
        <time>2018-08-25T08:47:27Z</time>
      </trkpt>
      <trkpt lat="44.77013" lon="6.73677">
        <ele>1597.1</ele>
        <time>2018-08-25T08:47:28Z</time>
      </trkpt>
      <trkpt lat="44.76995" lon="6.7368">
        <ele>1595.24</ele>
        <time>2018-08-25T08:47:29Z</time>
      </trkpt>
      <trkpt lat="44.76976" lon="6.73684">
        <ele>1593.98</ele>
        <time>2018-08-25T08:47:30Z</time>
      </trkpt>
      <trkpt lat="44.76943" lon="6.73698">
        <ele>1590.06</ele>
        <time>2018-08-25T08:47:32Z</time>
      </trkpt>
      <trkpt lat="44.76916" lon="6.73712">
        <ele>1587.89</ele>
        <time>2018-08-25T08:47:34Z</time>
      </trkpt>
      <trkpt lat="44.76892" lon="6.7373">
        <ele>1585.88</ele>
        <time>2018-08-25T08:47:36Z</time>
      </trkpt>
      <trkpt lat="44.7687" lon="6.73749">
        <ele>1583.87</ele>
        <time>2018-08-25T08:47:38Z</time>
      </trkpt>
      <trkpt lat="44.76849" lon="6.73767">
        <ele>1581.87</ele>
        <time>2018-08-25T08:47:40Z</time>
      </trkpt>
      <trkpt lat="44.76829" lon="6.73783">
        <ele>1579.87</ele>
        <time>2018-08-25T08:47:42Z</time>
      </trkpt>
      <trkpt lat="44.7681" lon="6.73795">
        <ele>1577.87</ele>
        <time>2018-08-25T08:47:44Z</time>
      </trkpt>
      <trkpt lat="44.76793" lon="6.73804">
        <ele>1576.57</ele>
        <time>2018-08-25T08:47:46Z</time>
      </trkpt>
      <trkpt lat="44.76769" lon="6.73819">
        <ele>1574.08</ele>
        <time>2018-08-25T08:47:49Z</time>
      </trkpt>
      <trkpt lat="44.76752" lon="6.73827">
        <ele>1572.59</ele>
        <time>2018-08-25T08:47:51Z</time>
      </trkpt>
      <trkpt lat="44.76727" lon="6.73842">
        <ele>1570.78</ele>
        <time>2018-08-25T08:47:54Z</time>
      </trkpt>
      <trkpt lat="44.76704" lon="6.73859">
        <ele>1569.54</ele>
        <time>2018-08-25T08:47:57Z</time>
      </trkpt>
      <trkpt lat="44.76685" lon="6.73873">
        <ele>1569.45</ele>
        <time>2018-08-25T08:48:00Z</time>
      </trkpt>
      <trkpt lat="44.76666" lon="6.7389">
        <ele>1567.71</ele>
        <time>2018-08-25T08:48:03Z</time>
      </trkpt>
      <trkpt lat="44.76651" lon="6.7391">
        <ele>1566.75</ele>
        <time>2018-08-25T08:48:06Z</time>
      </trkpt>
      <trkpt lat="44.76639" lon="6.73933">
        <ele>1562.85</ele>
        <time>2018-08-25T08:48:10Z</time>
      </trkpt>
      <trkpt lat="44.76623" lon="6.7395">
        <ele>1560.75</ele>
        <time>2018-08-25T08:48:15Z</time>
      </trkpt>
      <trkpt lat="44.76604" lon="6.73969">
        <ele>1556.96</ele>
        <time>2018-08-25T08:48:18Z</time>
      </trkpt>
      <trkpt lat="44.76587" lon="6.73983">
        <ele>1555.58</ele>
        <time>2018-08-25T08:48:20Z</time>
      </trkpt>
      <trkpt lat="44.76568" lon="6.73999">
        <ele>1553.85</ele>
        <time>2018-08-25T08:48:22Z</time>
      </trkpt>
      <trkpt lat="44.76546" lon="6.74022">
        <ele>1551.87</ele>
        <time>2018-08-25T08:48:24Z</time>
      </trkpt>
      <trkpt lat="44.76521" lon="6.74053">
        <ele>1549.87</ele>
        <time>2018-08-25T08:48:26Z</time>
      </trkpt>
      <trkpt lat="44.76506" lon="6.74069">
        <ele>1548.87</ele>
        <time>2018-08-25T08:48:27Z</time>
      </trkpt>
      <trkpt lat="44.76491" lon="6.74086">
        <ele>1547.87</ele>
        <time>2018-08-25T08:48:28Z</time>
      </trkpt>
      <trkpt lat="44.76476" lon="6.74105">
        <ele>1545.47</ele>
        <time>2018-08-25T08:48:29Z</time>
      </trkpt>
      <trkpt lat="44.76459" lon="6.74124">
        <ele>1543.35</ele>
        <time>2018-08-25T08:48:30Z</time>
      </trkpt>
      <trkpt lat="44.76443" lon="6.74144">
        <ele>1541.32</ele>
        <time>2018-08-25T08:48:31Z</time>
      </trkpt>
      <trkpt lat="44.76425" lon="6.74164">
        <ele>1540.01</ele>
        <time>2018-08-25T08:48:32Z</time>
      </trkpt>
      <trkpt lat="44.76407" lon="6.74183">
        <ele>1538.91</ele>
        <time>2018-08-25T08:48:33Z</time>
      </trkpt>
      <trkpt lat="44.76389" lon="6.74204">
        <ele>1537.89</ele>
        <time>2018-08-25T08:48:34Z</time>
      </trkpt>
      <trkpt lat="44.76371" lon="6.74224">
        <ele>1537.58</ele>
        <time>2018-08-25T08:48:35Z</time>
      </trkpt>
      <trkpt lat="44.76353" lon="6.74243">
        <ele>1536.78</ele>
        <time>2018-08-25T08:48:36Z</time>
      </trkpt>
      <trkpt lat="44.76337" lon="6.74263">
        <ele>1536.55</ele>
        <time>2018-08-25T08:48:37Z</time>
      </trkpt>
      <trkpt lat="44.76319" lon="6.7428">
        <ele>1536.48</ele>
        <time>2018-08-25T08:48:38Z</time>
      </trkpt>
      <trkpt lat="44.763" lon="6.74294">
        <ele>1536.45</ele>
        <time>2018-08-25T08:48:39Z</time>
      </trkpt>
      <trkpt lat="44.76281" lon="6.74304">
        <ele>1536.45</ele>
        <time>2018-08-25T08:48:40Z</time>
      </trkpt>
      <trkpt lat="44.76262" lon="6.74312">
        <ele>1536.45</ele>
        <time>2018-08-25T08:48:41Z</time>
      </trkpt>
      <trkpt lat="44.76241" lon="6.74318">
        <ele>1536.45</ele>
        <time>2018-08-25T08:48:42Z</time>
      </trkpt>
      <trkpt lat="44.76221" lon="6.74324">
        <ele>1537.15</ele>
        <time>2018-08-25T08:48:43Z</time>
      </trkpt>
      <trkpt lat="44.76203" lon="6.74334">
        <ele>1538.06</ele>
        <time>2018-08-25T08:48:44Z</time>
      </trkpt>
      <trkpt lat="44.76185" lon="6.74346">
        <ele>1539.03</ele>
        <time>2018-08-25T08:48:45Z</time>
      </trkpt>
      <trkpt lat="44.76168" lon="6.74356">
        <ele>1538.62</ele>
        <time>2018-08-25T08:48:46Z</time>
      </trkpt>
      <trkpt lat="44.76143" lon="6.74391">
        <ele>1538.67</ele>
        <time>2018-08-25T08:48:48Z</time>
      </trkpt>
      <trkpt lat="44.76132" lon="6.74415">
        <ele>1538.51</ele>
        <time>2018-08-25T08:48:49Z</time>
      </trkpt>
      <trkpt lat="44.76122" lon="6.74443">
        <ele>1538.47</ele>
        <time>2018-08-25T08:48:50Z</time>
      </trkpt>
      <trkpt lat="44.76111" lon="6.74469">
        <ele>1538.45</ele>
        <time>2018-08-25T08:48:51Z</time>
      </trkpt>
      <trkpt lat="44.76099" lon="6.74493">
        <ele>1538.45</ele>
        <time>2018-08-25T08:48:52Z</time>
      </trkpt>
      <trkpt lat="44.76086" lon="6.74512">
        <ele>1538.45</ele>
        <time>2018-08-25T08:48:53Z</time>
      </trkpt>
      <trkpt lat="44.76059" lon="6.74541">
        <ele>1538.45</ele>
        <time>2018-08-25T08:48:55Z</time>
      </trkpt>
      <trkpt lat="44.76022" lon="6.74558">
        <ele>1536.83</ele>
        <time>2018-08-25T08:48:57Z</time>
      </trkpt>
      <trkpt lat="44.75992" lon="6.74584">
        <ele>1535.78</ele>
        <time>2018-08-25T08:48:59Z</time>
      </trkpt>
      <trkpt lat="44.75966" lon="6.74613">
        <ele>1534.78</ele>
        <time>2018-08-25T08:49:01Z</time>
      </trkpt>
      <trkpt lat="44.75938" lon="6.74635">
        <ele>1532.65</ele>
        <time>2018-08-25T08:49:03Z</time>
      </trkpt>
      <trkpt lat="44.75915" lon="6.74662">
        <ele>1531.55</ele>
        <time>2018-08-25T08:49:05Z</time>
      </trkpt>
      <trkpt lat="44.75892" lon="6.74694">
        <ele>1527.53</ele>
        <time>2018-08-25T08:49:07Z</time>
      </trkpt>
      <trkpt lat="44.75867" lon="6.74722">
        <ele>1526.54</ele>
        <time>2018-08-25T08:49:09Z</time>
      </trkpt>
      <trkpt lat="44.75845" lon="6.74758">
        <ele>1524.84</ele>
        <time>2018-08-25T08:49:11Z</time>
      </trkpt>
      <trkpt lat="44.75826" lon="6.748">
        <ele>1521.96</ele>
        <time>2018-08-25T08:49:13Z</time>
      </trkpt>
      <trkpt lat="44.75814" lon="6.7482">
        <ele>1520.9</ele>
        <time>2018-08-25T08:49:14Z</time>
      </trkpt>
      <trkpt lat="44.758" lon="6.74838">
        <ele>1518.48</ele>
        <time>2018-08-25T08:49:15Z</time>
      </trkpt>
      <trkpt lat="44.75782" lon="6.74872">
        <ele>1515.23</ele>
        <time>2018-08-25T08:49:17Z</time>
      </trkpt>
      <trkpt lat="44.75771" lon="6.74911">
        <ele>1513.61</ele>
        <time>2018-08-25T08:49:19Z</time>
      </trkpt>
      <trkpt lat="44.75763" lon="6.74944">
        <ele>1511.15</ele>
        <time>2018-08-25T08:49:21Z</time>
      </trkpt>
      <trkpt lat="44.75742" lon="6.74978">
        <ele>1507.99</ele>
        <time>2018-08-25T08:49:23Z</time>
      </trkpt>
      <trkpt lat="44.75711" lon="6.7501">
        <ele>1503.94</ele>
        <time>2018-08-25T08:49:25Z</time>
      </trkpt>
      <trkpt lat="44.75692" lon="6.7502">
        <ele>1502.07</ele>
        <time>2018-08-25T08:49:26Z</time>
      </trkpt>
      <trkpt lat="44.75676" lon="6.75033">
        <ele>1500.81</ele>
        <time>2018-08-25T08:49:27Z</time>
      </trkpt>
      <trkpt lat="44.75655" lon="6.75062">
        <ele>1498.71</ele>
        <time>2018-08-25T08:49:29Z</time>
      </trkpt>
      <trkpt lat="44.75646" lon="6.75098">
        <ele>1498.1</ele>
        <time>2018-08-25T08:49:31Z</time>
      </trkpt>
      <trkpt lat="44.75643" lon="6.75138">
        <ele>1495.95</ele>
        <time>2018-08-25T08:49:33Z</time>
      </trkpt>
      <trkpt lat="44.75628" lon="6.75186">
        <ele>1494.84</ele>
        <time>2018-08-25T08:49:35Z</time>
      </trkpt>
      <trkpt lat="44.75621" lon="6.75211">
        <ele>1493.74</ele>
        <time>2018-08-25T08:49:36Z</time>
      </trkpt>
      <trkpt lat="44.75613" lon="6.75234">
        <ele>1492.71</ele>
        <time>2018-08-25T08:49:37Z</time>
      </trkpt>
      <trkpt lat="44.75591" lon="6.75272">
        <ele>1491.61</ele>
        <time>2018-08-25T08:49:39Z</time>
      </trkpt>
      <trkpt lat="44.75575" lon="6.75284">
        <ele>1492.07</ele>
        <time>2018-08-25T08:49:40Z</time>
      </trkpt>
      <trkpt lat="44.75559" lon="6.75296">
        <ele>1492.21</ele>
        <time>2018-08-25T08:49:41Z</time>
      </trkpt>
      <trkpt lat="44.75545" lon="6.75312">
        <ele>1492.25</ele>
        <time>2018-08-25T08:49:42Z</time>
      </trkpt>
      <trkpt lat="44.75532" lon="6.75336">
        <ele>1490.87</ele>
        <time>2018-08-25T08:49:43Z</time>
      </trkpt>
      <trkpt lat="44.7552" lon="6.75363">
        <ele>1489.75</ele>
        <time>2018-08-25T08:49:44Z</time>
      </trkpt>
      <trkpt lat="44.7551" lon="6.75392">
        <ele>1488.71</ele>
        <time>2018-08-25T08:49:45Z</time>
      </trkpt>
      <trkpt lat="44.75498" lon="6.75419">
        <ele>1487.7</ele>
        <time>2018-08-25T08:49:46Z</time>
      </trkpt>
      <trkpt lat="44.75483" lon="6.75442">
        <ele>1484.6</ele>
        <time>2018-08-25T08:49:47Z</time>
      </trkpt>
      <trkpt lat="44.75472" lon="6.75467">
        <ele>1482.97</ele>
        <time>2018-08-25T08:49:48Z</time>
      </trkpt>
      <trkpt lat="44.75467" lon="6.75495">
        <ele>1479.68</ele>
        <time>2018-08-25T08:49:49Z</time>
      </trkpt>
      <trkpt lat="44.75464" lon="6.75525">
        <ele>1477.29</ele>
        <time>2018-08-25T08:49:50Z</time>
      </trkpt>
      <trkpt lat="44.75465" lon="6.75554">
        <ele>1473.78</ele>
        <time>2018-08-25T08:49:51Z</time>
      </trkpt>
      <trkpt lat="44.75462" lon="6.75582">
        <ele>1471.32</ele>
        <time>2018-08-25T08:49:52Z</time>
      </trkpt>
      <trkpt lat="44.75458" lon="6.75611">
        <ele>1469.89</ele>
        <time>2018-08-25T08:49:53Z</time>
      </trkpt>
      <trkpt lat="44.75449" lon="6.75642">
        <ele>1468.06</ele>
        <time>2018-08-25T08:49:54Z</time>
      </trkpt>
      <trkpt lat="44.75433" lon="6.75661">
        <ele>1466.81</ele>
        <time>2018-08-25T08:49:55Z</time>
      </trkpt>
      <trkpt lat="44.75425" lon="6.75686">
        <ele>1466.43</ele>
        <time>2018-08-25T08:49:56Z</time>
      </trkpt>
      <trkpt lat="44.75417" lon="6.75712">
        <ele>1463.52</ele>
        <time>2018-08-25T08:49:57Z</time>
      </trkpt>
      <trkpt lat="44.75412" lon="6.75737">
        <ele>1461.25</ele>
        <time>2018-08-25T08:49:58Z</time>
      </trkpt>
      <trkpt lat="44.75403" lon="6.75775">
        <ele>1457.35</ele>
        <time>2018-08-25T08:50:00Z</time>
      </trkpt>
      <trkpt lat="44.75393" lon="6.75805">
        <ele>1453.15</ele>
        <time>2018-08-25T08:50:02Z</time>
      </trkpt>
      <trkpt lat="44.75368" lon="6.75816">
        <ele>1450.04</ele>
        <time>2018-08-25T08:50:04Z</time>
      </trkpt>
      <trkpt lat="44.75352" lon="6.75845">
        <ele>1446.82</ele>
        <time>2018-08-25T08:50:06Z</time>
      </trkpt>
      <trkpt lat="44.75338" lon="6.75884">
        <ele>1444.71</ele>
        <time>2018-08-25T08:50:08Z</time>
      </trkpt>
      <trkpt lat="44.75332" lon="6.75908">
        <ele>1444.4</ele>
        <time>2018-08-25T08:50:09Z</time>
      </trkpt>
      <trkpt lat="44.75324" lon="6.75938">
        <ele>1445.01</ele>
        <time>2018-08-25T08:50:10Z</time>
      </trkpt>
      <trkpt lat="44.75312" lon="6.7596">
        <ele>1442.39</ele>
        <time>2018-08-25T08:50:11Z</time>
      </trkpt>
      <trkpt lat="44.75292" lon="6.76">
        <ele>1437.45</ele>
        <time>2018-08-25T08:50:13Z</time>
      </trkpt>
      <trkpt lat="44.75275" lon="6.76043">
        <ele>1433.86</ele>
        <time>2018-08-25T08:50:15Z</time>
      </trkpt>
      <trkpt lat="44.75256" lon="6.76079">
        <ele>1430.8</ele>
        <time>2018-08-25T08:50:17Z</time>
      </trkpt>
      <trkpt lat="44.75247" lon="6.76125">
        <ele>1429.41</ele>
        <time>2018-08-25T08:50:19Z</time>
      </trkpt>
      <trkpt lat="44.7524" lon="6.76165">
        <ele>1428.37</ele>
        <time>2018-08-25T08:50:21Z</time>
      </trkpt>
      <trkpt lat="44.75221" lon="6.76206">
        <ele>1425.76</ele>
        <time>2018-08-25T08:50:23Z</time>
      </trkpt>
      <trkpt lat="44.75202" lon="6.7621">
        <ele>1425.42</ele>
        <time>2018-08-25T08:50:24Z</time>
      </trkpt>
      <trkpt lat="44.75182" lon="6.76216">
        <ele>1426.02</ele>
        <time>2018-08-25T08:50:25Z</time>
      </trkpt>
      <trkpt lat="44.75158" lon="6.76245">
        <ele>1423.73</ele>
        <time>2018-08-25T08:50:27Z</time>
      </trkpt>
      <trkpt lat="44.75137" lon="6.76282">
        <ele>1420.79</ele>
        <time>2018-08-25T08:50:29Z</time>
      </trkpt>
      <trkpt lat="44.7512" lon="6.7632">
        <ele>1417.8</ele>
        <time>2018-08-25T08:50:31Z</time>
      </trkpt>
      <trkpt lat="44.75115" lon="6.76345">
        <ele>1416.73</ele>
        <time>2018-08-25T08:50:32Z</time>
      </trkpt>
      <trkpt lat="44.75108" lon="6.76374">
        <ele>1415.71</ele>
        <time>2018-08-25T08:50:33Z</time>
      </trkpt>
      <trkpt lat="44.75099" lon="6.76402">
        <ele>1414.7</ele>
        <time>2018-08-25T08:50:34Z</time>
      </trkpt>
      <trkpt lat="44.75087" lon="6.76431">
        <ele>1413.7</ele>
        <time>2018-08-25T08:50:35Z</time>
      </trkpt>
      <trkpt lat="44.75075" lon="6.76461">
        <ele>1413.4</ele>
        <time>2018-08-25T08:50:36Z</time>
      </trkpt>
      <trkpt lat="44.75062" lon="6.76485">
        <ele>1411.21</ele>
        <time>2018-08-25T08:50:37Z</time>
      </trkpt>
      <trkpt lat="44.75048" lon="6.76509">
        <ele>1411.25</ele>
        <time>2018-08-25T08:50:38Z</time>
      </trkpt>
      <trkpt lat="44.75037" lon="6.76532">
        <ele>1410.57</ele>
        <time>2018-08-25T08:50:39Z</time>
      </trkpt>
      <trkpt lat="44.75027" lon="6.76554">
        <ele>1410.36</ele>
        <time>2018-08-25T08:50:40Z</time>
      </trkpt>
      <trkpt lat="44.75014" lon="6.76595">
        <ele>1410.98</ele>
        <time>2018-08-25T08:50:42Z</time>
      </trkpt>
      <trkpt lat="44.75003" lon="6.76625">
        <ele>1410.33</ele>
        <time>2018-08-25T08:50:44Z</time>
      </trkpt>
      <trkpt lat="44.74985" lon="6.76654">
        <ele>1408.3</ele>
        <time>2018-08-25T08:50:46Z</time>
      </trkpt>
      <trkpt lat="44.74966" lon="6.76666">
        <ele>1407.84</ele>
        <time>2018-08-25T08:50:47Z</time>
      </trkpt>
      <trkpt lat="44.74941" lon="6.76667">
        <ele>1409.8</ele>
        <time>2018-08-25T08:50:48Z</time>
      </trkpt>
      <trkpt lat="44.74921" lon="6.7667">
        <ele>1410.39</ele>
        <time>2018-08-25T08:50:49Z</time>
      </trkpt>
      <trkpt lat="44.74902" lon="6.76675">
        <ele>1410.56</ele>
        <time>2018-08-25T08:50:50Z</time>
      </trkpt>
      <trkpt lat="44.74867" lon="6.76668">
        <ele>1408.6</ele>
        <time>2018-08-25T08:50:52Z</time>
      </trkpt>
      <trkpt lat="44.74835" lon="6.76661">
        <ele>1408.43</ele>
        <time>2018-08-25T08:50:54Z</time>
      </trkpt>
      <trkpt lat="44.74813" lon="6.76668">
        <ele>1406.1</ele>
        <time>2018-08-25T08:50:56Z</time>
      </trkpt>
      <trkpt lat="44.74796" lon="6.76692">
        <ele>1404.07</ele>
        <time>2018-08-25T08:50:58Z</time>
      </trkpt>
      <trkpt lat="44.74796" lon="6.76724">
        <ele>1402.37</ele>
        <time>2018-08-25T08:50:59Z</time>
      </trkpt>
      <trkpt lat="44.74787" lon="6.76775">
        <ele>1398.28</ele>
        <time>2018-08-25T08:51:01Z</time>
      </trkpt>
      <trkpt lat="44.74783" lon="6.76803">
        <ele>1396.43</ele>
        <time>2018-08-25T08:51:02Z</time>
      </trkpt>
      <trkpt lat="44.74779" lon="6.76831">
        <ele>1395.18</ele>
        <time>2018-08-25T08:51:03Z</time>
      </trkpt>
      <trkpt lat="44.74776" lon="6.76858">
        <ele>1392.7</ele>
        <time>2018-08-25T08:51:04Z</time>
      </trkpt>
      <trkpt lat="44.74771" lon="6.76884">
        <ele>1391.26</ele>
        <time>2018-08-25T08:51:05Z</time>
      </trkpt>
      <trkpt lat="44.74763" lon="6.76908">
        <ele>1390.13</ele>
        <time>2018-08-25T08:51:06Z</time>
      </trkpt>
      <trkpt lat="44.74753" lon="6.76929">
        <ele>1389.09</ele>
        <time>2018-08-25T08:51:07Z</time>
      </trkpt>
      <trkpt lat="44.74732" lon="6.76967">
        <ele>1387.07</ele>
        <time>2018-08-25T08:51:09Z</time>
      </trkpt>
      <trkpt lat="44.74712" lon="6.76996">
        <ele>1386.47</ele>
        <time>2018-08-25T08:51:11Z</time>
      </trkpt>
      <trkpt lat="44.74704" lon="6.77021">
        <ele>1385.71</ele>
        <time>2018-08-25T08:51:13Z</time>
      </trkpt>
      <trkpt lat="44.74706" lon="6.77053">
        <ele>1384.04</ele>
        <time>2018-08-25T08:51:15Z</time>
      </trkpt>
      <trkpt lat="44.74726" lon="6.77091">
        <ele>1382.98</ele>
        <time>2018-08-25T08:51:17Z</time>
      </trkpt>
      <trkpt lat="44.74748" lon="6.77126">
        <ele>1380.36</ele>
        <time>2018-08-25T08:51:19Z</time>
      </trkpt>
      <trkpt lat="44.74771" lon="6.77154">
        <ele>1379</ele>
        <time>2018-08-25T08:51:21Z</time>
      </trkpt>
      <trkpt lat="44.7479" lon="6.77192">
        <ele>1377.97</ele>
        <time>2018-08-25T08:51:23Z</time>
      </trkpt>
      <trkpt lat="44.74807" lon="6.77222">
        <ele>1376.76</ele>
        <time>2018-08-25T08:51:25Z</time>
      </trkpt>
      <trkpt lat="44.74821" lon="6.77243">
        <ele>1375.95</ele>
        <time>2018-08-25T08:51:27Z</time>
      </trkpt>
      <trkpt lat="44.74802" lon="6.77242">
        <ele>1368.1</ele>
        <time>2018-08-25T08:51:31Z</time>
      </trkpt>
      <trkpt lat="44.74786" lon="6.77224">
        <ele>1363.89</ele>
        <time>2018-08-25T08:51:34Z</time>
      </trkpt>
      <trkpt lat="44.74771" lon="6.77202">
        <ele>1362.05</ele>
        <time>2018-08-25T08:51:36Z</time>
      </trkpt>
      <trkpt lat="44.74753" lon="6.77175">
        <ele>1360.07</ele>
        <time>2018-08-25T08:51:38Z</time>
      </trkpt>
      <trkpt lat="44.74733" lon="6.77147">
        <ele>1358.98</ele>
        <time>2018-08-25T08:51:40Z</time>
      </trkpt>
      <trkpt lat="44.74712" lon="6.77121">
        <ele>1357.76</ele>
        <time>2018-08-25T08:51:42Z</time>
      </trkpt>
      <trkpt lat="44.74696" lon="6.77095">
        <ele>1356.25</ele>
        <time>2018-08-25T08:51:44Z</time>
      </trkpt>
      <trkpt lat="44.74675" lon="6.77075">
        <ele>1355.69</ele>
        <time>2018-08-25T08:51:46Z</time>
      </trkpt>
      <trkpt lat="44.74654" lon="6.77057">
        <ele>1355.85</ele>
        <time>2018-08-25T08:51:48Z</time>
      </trkpt>
      <trkpt lat="44.74629" lon="6.77042">
        <ele>1354.26</ele>
        <time>2018-08-25T08:51:50Z</time>
      </trkpt>
      <trkpt lat="44.74601" lon="6.77032">
        <ele>1352.79</ele>
        <time>2018-08-25T08:51:52Z</time>
      </trkpt>
      <trkpt lat="44.74574" lon="6.7702">
        <ele>1351.25</ele>
        <time>2018-08-25T08:51:54Z</time>
      </trkpt>
      <trkpt lat="44.74544" lon="6.77008">
        <ele>1351.61</ele>
        <time>2018-08-25T08:51:56Z</time>
      </trkpt>
      <trkpt lat="44.74514" lon="6.77">
        <ele>1350.94</ele>
        <time>2018-08-25T08:51:58Z</time>
      </trkpt>
      <trkpt lat="44.74485" lon="6.76987">
        <ele>1349.76</ele>
        <time>2018-08-25T08:52:00Z</time>
      </trkpt>
      <trkpt lat="44.74458" lon="6.76968">
        <ele>1348.95</ele>
        <time>2018-08-25T08:52:02Z</time>
      </trkpt>
      <trkpt lat="44.7444" lon="6.76929">
        <ele>1346.85</ele>
        <time>2018-08-25T08:52:04Z</time>
      </trkpt>
      <trkpt lat="44.74431" lon="6.76885">
        <ele>1345.96</ele>
        <time>2018-08-25T08:52:06Z</time>
      </trkpt>
      <trkpt lat="44.74432" lon="6.76839">
        <ele>1345.88</ele>
        <time>2018-08-25T08:52:08Z</time>
      </trkpt>
      <trkpt lat="44.74435" lon="6.76813">
        <ele>1345.71</ele>
        <time>2018-08-25T08:52:09Z</time>
      </trkpt>
      <trkpt lat="44.74451" lon="6.76778">
        <ele>1343.55</ele>
        <time>2018-08-25T08:52:11Z</time>
      </trkpt>
      <trkpt lat="44.74457" lon="6.7675">
        <ele>1341.81</ele>
        <time>2018-08-25T08:52:13Z</time>
      </trkpt>
      <trkpt lat="44.74447" lon="6.76716">
        <ele>1339.76</ele>
        <time>2018-08-25T08:52:16Z</time>
      </trkpt>
      <trkpt lat="44.7442" lon="6.7672">
        <ele>1338.88</ele>
        <time>2018-08-25T08:52:19Z</time>
      </trkpt>
      <trkpt lat="44.74409" lon="6.76743">
        <ele>1337.75</ele>
        <time>2018-08-25T08:52:21Z</time>
      </trkpt>
      <trkpt lat="44.74411" lon="6.76774">
        <ele>1336.74</ele>
        <time>2018-08-25T08:52:23Z</time>
      </trkpt>
      <trkpt lat="44.74414" lon="6.76799">
        <ele>1335.04</ele>
        <time>2018-08-25T08:52:25Z</time>
      </trkpt>
      <trkpt lat="44.74402" lon="6.7682">
        <ele>1333.68</ele>
        <time>2018-08-25T08:52:28Z</time>
      </trkpt>
      <trkpt lat="44.74388" lon="6.76801">
        <ele>1332.03</ele>
        <time>2018-08-25T08:52:30Z</time>
      </trkpt>
      <trkpt lat="44.74379" lon="6.76774">
        <ele>1329.37</ele>
        <time>2018-08-25T08:52:32Z</time>
      </trkpt>
      <trkpt lat="44.74365" lon="6.7675">
        <ele>1328.71</ele>
        <time>2018-08-25T08:52:34Z</time>
      </trkpt>
      <trkpt lat="44.74339" lon="6.76739">
        <ele>1328.65</ele>
        <time>2018-08-25T08:52:36Z</time>
      </trkpt>
      <trkpt lat="44.74316" lon="6.76736">
        <ele>1327.73</ele>
        <time>2018-08-25T08:52:38Z</time>
      </trkpt>
      <trkpt lat="44.74295" lon="6.76717">
        <ele>1326.04</ele>
        <time>2018-08-25T08:52:40Z</time>
      </trkpt>
      <trkpt lat="44.74273" lon="6.76693">
        <ele>1324.98</ele>
        <time>2018-08-25T08:52:42Z</time>
      </trkpt>
      <trkpt lat="44.74249" lon="6.76676">
        <ele>1323.06</ele>
        <time>2018-08-25T08:52:44Z</time>
      </trkpt>
      <trkpt lat="44.74226" lon="6.76669">
        <ele>1321.77</ele>
        <time>2018-08-25T08:52:46Z</time>
      </trkpt>
      <trkpt lat="44.74199" lon="6.76661">
        <ele>1319.13</ele>
        <time>2018-08-25T08:52:48Z</time>
      </trkpt>
      <trkpt lat="44.74173" lon="6.76648">
        <ele>1317.98</ele>
        <time>2018-08-25T08:52:50Z</time>
      </trkpt>
      <trkpt lat="44.74145" lon="6.76635">
        <ele>1316.76</ele>
        <time>2018-08-25T08:52:52Z</time>
      </trkpt>
      <trkpt lat="44.74118" lon="6.76628">
        <ele>1315.95</ele>
        <time>2018-08-25T08:52:54Z</time>
      </trkpt>
      <trkpt lat="44.74099" lon="6.76637">
        <ele>1314.33</ele>
        <time>2018-08-25T08:52:55Z</time>
      </trkpt>
      <trkpt lat="44.74081" lon="6.76643">
        <ele>1312.45</ele>
        <time>2018-08-25T08:52:56Z</time>
      </trkpt>
      <trkpt lat="44.74059" lon="6.7665">
        <ele>1311.88</ele>
        <time>2018-08-25T08:52:57Z</time>
      </trkpt>
      <trkpt lat="44.74038" lon="6.76656">
        <ele>1309.61</ele>
        <time>2018-08-25T08:52:58Z</time>
      </trkpt>
      <trkpt lat="44.74003" lon="6.76655">
        <ele>1305.51</ele>
        <time>2018-08-25T08:53:00Z</time>
      </trkpt>
      <trkpt lat="44.73974" lon="6.76658">
        <ele>1302.41</ele>
        <time>2018-08-25T08:53:02Z</time>
      </trkpt>
      <trkpt lat="44.73944" lon="6.76673">
        <ele>1300.1</ele>
        <time>2018-08-25T08:53:04Z</time>
      </trkpt>
      <trkpt lat="44.73907" lon="6.76701">
        <ele>1299.19</ele>
        <time>2018-08-25T08:53:06Z</time>
      </trkpt>
      <trkpt lat="44.73889" lon="6.76721">
        <ele>1297.41</ele>
        <time>2018-08-25T08:53:07Z</time>
      </trkpt>
      <trkpt lat="44.73873" lon="6.76742">
        <ele>1295.47</ele>
        <time>2018-08-25T08:53:08Z</time>
      </trkpt>
      <trkpt lat="44.73859" lon="6.76776">
        <ele>1293.49</ele>
        <time>2018-08-25T08:53:09Z</time>
      </trkpt>
      <trkpt lat="44.73839" lon="6.76797">
        <ele>1290.09</ele>
        <time>2018-08-25T08:53:10Z</time>
      </trkpt>
      <trkpt lat="44.73824" lon="6.76817">
        <ele>1289.08</ele>
        <time>2018-08-25T08:53:11Z</time>
      </trkpt>
      <trkpt lat="44.73809" lon="6.76833">
        <ele>1286.67</ele>
        <time>2018-08-25T08:53:12Z</time>
      </trkpt>
      <trkpt lat="44.73778" lon="6.76853">
        <ele>1282.3</ele>
        <time>2018-08-25T08:53:14Z</time>
      </trkpt>
      <trkpt lat="44.73736" lon="6.76854">
        <ele>1280.3</ele>
        <time>2018-08-25T08:53:16Z</time>
      </trkpt>
      <trkpt lat="44.73711" lon="6.76849">
        <ele>1279.14</ele>
        <time>2018-08-25T08:53:17Z</time>
      </trkpt>
      <trkpt lat="44.73685" lon="6.76836">
        <ele>1278.09</ele>
        <time>2018-08-25T08:53:18Z</time>
      </trkpt>
      <trkpt lat="44.73662" lon="6.76829">
        <ele>1277.77</ele>
        <time>2018-08-25T08:53:19Z</time>
      </trkpt>
      <trkpt lat="44.73639" lon="6.76823">
        <ele>1276.98</ele>
        <time>2018-08-25T08:53:20Z</time>
      </trkpt>
      <trkpt lat="44.73614" lon="6.76824">
        <ele>1276.04</ele>
        <time>2018-08-25T08:53:21Z</time>
      </trkpt>
      <trkpt lat="44.7359" lon="6.76824">
        <ele>1275.06</ele>
        <time>2018-08-25T08:53:22Z</time>
      </trkpt>
      <trkpt lat="44.73566" lon="6.76823">
        <ele>1274.77</ele>
        <time>2018-08-25T08:53:23Z</time>
      </trkpt>
      <trkpt lat="44.73542" lon="6.7682">
        <ele>1273.98</ele>
        <time>2018-08-25T08:53:24Z</time>
      </trkpt>
      <trkpt lat="44.73519" lon="6.76816">
        <ele>1273.04</ele>
        <time>2018-08-25T08:53:25Z</time>
      </trkpt>
      <trkpt lat="44.73496" lon="6.76812">
        <ele>1272.76</ele>
        <time>2018-08-25T08:53:26Z</time>
      </trkpt>
      <trkpt lat="44.73474" lon="6.76804">
        <ele>1272.68</ele>
        <time>2018-08-25T08:53:27Z</time>
      </trkpt>
      <trkpt lat="44.73453" lon="6.76793">
        <ele>1272.65</ele>
        <time>2018-08-25T08:53:28Z</time>
      </trkpt>
      <trkpt lat="44.73434" lon="6.76783">
        <ele>1272.64</ele>
        <time>2018-08-25T08:53:29Z</time>
      </trkpt>
      <trkpt lat="44.73413" lon="6.76773">
        <ele>1271.94</ele>
        <time>2018-08-25T08:53:30Z</time>
      </trkpt>
      <trkpt lat="44.73395" lon="6.76766">
        <ele>1271.03</ele>
        <time>2018-08-25T08:53:31Z</time>
      </trkpt>
      <trkpt lat="44.73376" lon="6.76756">
        <ele>1270.06</ele>
        <time>2018-08-25T08:53:32Z</time>
      </trkpt>
      <trkpt lat="44.73357" lon="6.76748">
        <ele>1269.77</ele>
        <time>2018-08-25T08:53:33Z</time>
      </trkpt>
      <trkpt lat="44.73338" lon="6.76739">
        <ele>1269.68</ele>
        <time>2018-08-25T08:53:34Z</time>
      </trkpt>
      <trkpt lat="44.73319" lon="6.76731">
        <ele>1268.95</ele>
        <time>2018-08-25T08:53:35Z</time>
      </trkpt>
      <trkpt lat="44.73299" lon="6.76724">
        <ele>1268.03</ele>
        <time>2018-08-25T08:53:36Z</time>
      </trkpt>
      <trkpt lat="44.7328" lon="6.76718">
        <ele>1267.76</ele>
        <time>2018-08-25T08:53:37Z</time>
      </trkpt>
      <trkpt lat="44.7326" lon="6.76713">
        <ele>1267.68</ele>
        <time>2018-08-25T08:53:38Z</time>
      </trkpt>
      <trkpt lat="44.73239" lon="6.76709">
        <ele>1266.95</ele>
        <time>2018-08-25T08:53:39Z</time>
      </trkpt>
      <trkpt lat="44.73219" lon="6.76706">
        <ele>1266.73</ele>
        <time>2018-08-25T08:53:40Z</time>
      </trkpt>
      <trkpt lat="44.73198" lon="6.76702">
        <ele>1265.97</ele>
        <time>2018-08-25T08:53:41Z</time>
      </trkpt>
      <trkpt lat="44.73177" lon="6.76697">
        <ele>1265.04</ele>
        <time>2018-08-25T08:53:42Z</time>
      </trkpt>
      <trkpt lat="44.73156" lon="6.76692">
        <ele>1265.46</ele>
        <time>2018-08-25T08:53:43Z</time>
      </trkpt>
      <trkpt lat="44.73135" lon="6.76685">
        <ele>1265.59</ele>
        <time>2018-08-25T08:53:44Z</time>
      </trkpt>
      <trkpt lat="44.73115" lon="6.76679">
        <ele>1264.92</ele>
        <time>2018-08-25T08:53:45Z</time>
      </trkpt>
      <trkpt lat="44.73097" lon="6.76669">
        <ele>1265.43</ele>
        <time>2018-08-25T08:53:46Z</time>
      </trkpt>
      <trkpt lat="44.73077" lon="6.76657">
        <ele>1265.58</ele>
        <time>2018-08-25T08:53:47Z</time>
      </trkpt>
      <trkpt lat="44.7306" lon="6.76644">
        <ele>1265.62</ele>
        <time>2018-08-25T08:53:48Z</time>
      </trkpt>
      <trkpt lat="44.73066" lon="6.7658">
        <ele>1264.23</ele>
        <time>2018-08-25T08:53:49Z</time>
      </trkpt>
      <trkpt lat="44.73055" lon="6.76553">
        <ele>1263.12</ele>
        <time>2018-08-25T08:53:50Z</time>
      </trkpt>
      <trkpt lat="44.73043" lon="6.76529">
        <ele>1262.78</ele>
        <time>2018-08-25T08:53:51Z</time>
      </trkpt>
      <trkpt lat="44.73031" lon="6.76505">
        <ele>1261.98</ele>
        <time>2018-08-25T08:53:52Z</time>
      </trkpt>
      <trkpt lat="44.73018" lon="6.76482">
        <ele>1261.74</ele>
        <time>2018-08-25T08:53:53Z</time>
      </trkpt>
      <trkpt lat="44.73006" lon="6.76459">
        <ele>1261.67</ele>
        <time>2018-08-25T08:53:54Z</time>
      </trkpt>
      <trkpt lat="44.72991" lon="6.76441">
        <ele>1260.95</ele>
        <time>2018-08-25T08:53:55Z</time>
      </trkpt>
      <trkpt lat="44.72976" lon="6.76424">
        <ele>1260.03</ele>
        <time>2018-08-25T08:53:56Z</time>
      </trkpt>
      <trkpt lat="44.7296" lon="6.76408">
        <ele>1259.76</ele>
        <time>2018-08-25T08:53:57Z</time>
      </trkpt>
      <trkpt lat="44.72943" lon="6.76396">
        <ele>1258.98</ele>
        <time>2018-08-25T08:53:58Z</time>
      </trkpt>
      <trkpt lat="44.72924" lon="6.76386">
        <ele>1258.74</ele>
        <time>2018-08-25T08:53:59Z</time>
      </trkpt>
      <trkpt lat="44.72904" lon="6.76393">
        <ele>1258.67</ele>
        <time>2018-08-25T08:54:00Z</time>
      </trkpt>
      <trkpt lat="44.72884" lon="6.76393">
        <ele>1257.95</ele>
        <time>2018-08-25T08:54:01Z</time>
      </trkpt>
      <trkpt lat="44.72863" lon="6.76395">
        <ele>1257.03</ele>
        <time>2018-08-25T08:54:02Z</time>
      </trkpt>
      <trkpt lat="44.7284" lon="6.76405">
        <ele>1256.76</ele>
        <time>2018-08-25T08:54:03Z</time>
      </trkpt>
      <trkpt lat="44.72819" lon="6.76411">
        <ele>1257.38</ele>
        <time>2018-08-25T08:54:04Z</time>
      </trkpt>
      <trkpt lat="44.72798" lon="6.76411">
        <ele>1256.86</ele>
        <time>2018-08-25T08:54:05Z</time>
      </trkpt>
      <trkpt lat="44.72773" lon="6.76409">
        <ele>1255.31</ele>
        <time>2018-08-25T08:54:06Z</time>
      </trkpt>
      <trkpt lat="44.72751" lon="6.76408">
        <ele>1254.84</ele>
        <time>2018-08-25T08:54:07Z</time>
      </trkpt>
      <trkpt lat="44.72729" lon="6.76406">
        <ele>1253.3</ele>
        <time>2018-08-25T08:54:08Z</time>
      </trkpt>
      <trkpt lat="44.72706" lon="6.76403">
        <ele>1252.14</ele>
        <time>2018-08-25T08:54:09Z</time>
      </trkpt>
      <trkpt lat="44.72683" lon="6.76401">
        <ele>1250.39</ele>
        <time>2018-08-25T08:54:10Z</time>
      </trkpt>
      <trkpt lat="44.72661" lon="6.76397">
        <ele>1249.16</ele>
        <time>2018-08-25T08:54:11Z</time>
      </trkpt>
      <trkpt lat="44.7264" lon="6.76392">
        <ele>1247.4</ele>
        <time>2018-08-25T08:54:12Z</time>
      </trkpt>
      <trkpt lat="44.7262" lon="6.76387">
        <ele>1245.47</ele>
        <time>2018-08-25T08:54:13Z</time>
      </trkpt>
      <trkpt lat="44.72598" lon="6.76381">
        <ele>1244.89</ele>
        <time>2018-08-25T08:54:14Z</time>
      </trkpt>
      <trkpt lat="44.72577" lon="6.76372">
        <ele>1244.71</ele>
        <time>2018-08-25T08:54:15Z</time>
      </trkpt>
      <trkpt lat="44.72557" lon="6.76365">
        <ele>1243.26</ele>
        <time>2018-08-25T08:54:16Z</time>
      </trkpt>
      <trkpt lat="44.72536" lon="6.76355">
        <ele>1242.13</ele>
        <time>2018-08-25T08:54:17Z</time>
      </trkpt>
      <trkpt lat="44.72517" lon="6.76343">
        <ele>1241.09</ele>
        <time>2018-08-25T08:54:18Z</time>
      </trkpt>
      <trkpt lat="44.72497" lon="6.7633">
        <ele>1240.77</ele>
        <time>2018-08-25T08:54:19Z</time>
      </trkpt>
      <trkpt lat="44.72477" lon="6.76316">
        <ele>1239.98</ele>
        <time>2018-08-25T08:54:20Z</time>
      </trkpt>
      <trkpt lat="44.72459" lon="6.763">
        <ele>1239.74</ele>
        <time>2018-08-25T08:54:21Z</time>
      </trkpt>
      <trkpt lat="44.72446" lon="6.76281">
        <ele>1238.97</ele>
        <time>2018-08-25T08:54:22Z</time>
      </trkpt>
      <trkpt lat="44.72429" lon="6.76266">
        <ele>1238.04</ele>
        <time>2018-08-25T08:54:23Z</time>
      </trkpt>
      <trkpt lat="44.72412" lon="6.76254">
        <ele>1237.76</ele>
        <time>2018-08-25T08:54:24Z</time>
      </trkpt>
      <trkpt lat="44.7239" lon="6.76243">
        <ele>1235.58</ele>
        <time>2018-08-25T08:54:25Z</time>
      </trkpt>
      <trkpt lat="44.72373" lon="6.76234">
        <ele>1235.62</ele>
        <time>2018-08-25T08:54:26Z</time>
      </trkpt>
      <trkpt lat="44.72354" lon="6.76226">
        <ele>1235.63</ele>
        <time>2018-08-25T08:54:27Z</time>
      </trkpt>
      <trkpt lat="44.72333" lon="6.76228">
        <ele>1234.94</ele>
        <time>2018-08-25T08:54:28Z</time>
      </trkpt>
      <trkpt lat="44.72306" lon="6.76227">
        <ele>1234.73</ele>
        <time>2018-08-25T08:54:29Z</time>
      </trkpt>
      <trkpt lat="44.7228" lon="6.7623">
        <ele>1235.37</ele>
        <time>2018-08-25T08:54:30Z</time>
      </trkpt>
      <trkpt lat="44.72259" lon="6.76236">
        <ele>1234.86</ele>
        <time>2018-08-25T08:54:31Z</time>
      </trkpt>
      <trkpt lat="44.72238" lon="6.76239">
        <ele>1235.41</ele>
        <time>2018-08-25T08:54:32Z</time>
      </trkpt>
      <trkpt lat="44.72217" lon="6.7624">
        <ele>1235.57</ele>
        <time>2018-08-25T08:54:33Z</time>
      </trkpt>
      <trkpt lat="44.72194" lon="6.76237">
        <ele>1234.92</ele>
        <time>2018-08-25T08:54:34Z</time>
      </trkpt>
      <trkpt lat="44.72173" lon="6.7623">
        <ele>1234.72</ele>
        <time>2018-08-25T08:54:35Z</time>
      </trkpt>
      <trkpt lat="44.72152" lon="6.7622">
        <ele>1234.67</ele>
        <time>2018-08-25T08:54:36Z</time>
      </trkpt>
      <trkpt lat="44.72131" lon="6.76211">
        <ele>1234.65</ele>
        <time>2018-08-25T08:54:37Z</time>
      </trkpt>
      <trkpt lat="44.72111" lon="6.76203">
        <ele>1235.34</ele>
        <time>2018-08-25T08:54:38Z</time>
      </trkpt>
      <trkpt lat="44.72088" lon="6.76195">
        <ele>1233.45</ele>
        <time>2018-08-25T08:54:39Z</time>
      </trkpt>
      <trkpt lat="44.72066" lon="6.76187">
        <ele>1232.88</ele>
        <time>2018-08-25T08:54:40Z</time>
      </trkpt>
      <trkpt lat="44.72046" lon="6.76181">
        <ele>1231.31</ele>
        <time>2018-08-25T08:54:41Z</time>
      </trkpt>
      <trkpt lat="44.72025" lon="6.76173">
        <ele>1230.14</ele>
        <time>2018-08-25T08:54:42Z</time>
      </trkpt>
      <trkpt lat="44.72004" lon="6.76167">
        <ele>1229.09</ele>
        <time>2018-08-25T08:54:43Z</time>
      </trkpt>
      <trkpt lat="44.71983" lon="6.76159">
        <ele>1227.38</ele>
        <time>2018-08-25T08:54:44Z</time>
      </trkpt>
      <trkpt lat="44.71962" lon="6.76152">
        <ele>1226.16</ele>
        <time>2018-08-25T08:54:45Z</time>
      </trkpt>
      <trkpt lat="44.71941" lon="6.76145">
        <ele>1225.8</ele>
        <time>2018-08-25T08:54:46Z</time>
      </trkpt>
      <trkpt lat="44.7192" lon="6.76136">
        <ele>1224.99</ele>
        <time>2018-08-25T08:54:47Z</time>
      </trkpt>
      <trkpt lat="44.71898" lon="6.76128">
        <ele>1224.74</ele>
        <time>2018-08-25T08:54:48Z</time>
      </trkpt>
      <trkpt lat="44.71876" lon="6.76119">
        <ele>1224.67</ele>
        <time>2018-08-25T08:54:49Z</time>
      </trkpt>
      <trkpt lat="44.71853" lon="6.7611">
        <ele>1222.55</ele>
        <time>2018-08-25T08:54:50Z</time>
      </trkpt>
      <trkpt lat="44.71831" lon="6.76096">
        <ele>1219.81</ele>
        <time>2018-08-25T08:54:51Z</time>
      </trkpt>
      <trkpt lat="44.71811" lon="6.7608">
        <ele>1218.29</ele>
        <time>2018-08-25T08:54:52Z</time>
      </trkpt>
      <trkpt lat="44.71792" lon="6.76064">
        <ele>1217.14</ele>
        <time>2018-08-25T08:54:53Z</time>
      </trkpt>
      <trkpt lat="44.71774" lon="6.76041">
        <ele>1216.09</ele>
        <time>2018-08-25T08:54:54Z</time>
      </trkpt>
      <trkpt lat="44.71757" lon="6.76019">
        <ele>1216.47</ele>
        <time>2018-08-25T08:54:55Z</time>
      </trkpt>
      <trkpt lat="44.71742" lon="6.75995">
        <ele>1216.59</ele>
        <time>2018-08-25T08:54:56Z</time>
      </trkpt>
      <trkpt lat="44.71726" lon="6.75968">
        <ele>1215.23</ele>
        <time>2018-08-25T08:54:57Z</time>
      </trkpt>
      <trkpt lat="44.71714" lon="6.75941">
        <ele>1214.82</ele>
        <time>2018-08-25T08:54:58Z</time>
      </trkpt>
      <trkpt lat="44.71702" lon="6.75913">
        <ele>1214.69</ele>
        <time>2018-08-25T08:54:59Z</time>
      </trkpt>
      <trkpt lat="44.7169" lon="6.75884">
        <ele>1214.66</ele>
        <time>2018-08-25T08:55:00Z</time>
      </trkpt>
      <trkpt lat="44.71677" lon="6.75857">
        <ele>1213.94</ele>
        <time>2018-08-25T08:55:01Z</time>
      </trkpt>
      <trkpt lat="44.71665" lon="6.75829">
        <ele>1213.03</ele>
        <time>2018-08-25T08:55:02Z</time>
      </trkpt>
      <trkpt lat="44.71653" lon="6.75801">
        <ele>1212.76</ele>
        <time>2018-08-25T08:55:03Z</time>
      </trkpt>
      <trkpt lat="44.7164" lon="6.75772">
        <ele>1211.28</ele>
        <time>2018-08-25T08:55:04Z</time>
      </trkpt>
      <trkpt lat="44.71628" lon="6.75744">
        <ele>1210.13</ele>
        <time>2018-08-25T08:55:05Z</time>
      </trkpt>
      <trkpt lat="44.71616" lon="6.75716">
        <ele>1209.09</ele>
        <time>2018-08-25T08:55:06Z</time>
      </trkpt>
      <trkpt lat="44.71606" lon="6.75688">
        <ele>1208.77</ele>
        <time>2018-08-25T08:55:07Z</time>
      </trkpt>
      <trkpt lat="44.71597" lon="6.7566">
        <ele>1208.68</ele>
        <time>2018-08-25T08:55:08Z</time>
      </trkpt>
      <trkpt lat="44.7159" lon="6.75632">
        <ele>1208.65</ele>
        <time>2018-08-25T08:55:09Z</time>
      </trkpt>
      <trkpt lat="44.71584" lon="6.75603">
        <ele>1207.94</ele>
        <time>2018-08-25T08:55:10Z</time>
      </trkpt>
      <trkpt lat="44.71581" lon="6.75574">
        <ele>1207.73</ele>
        <time>2018-08-25T08:55:11Z</time>
      </trkpt>
      <trkpt lat="44.71578" lon="6.75545">
        <ele>1206.97</ele>
        <time>2018-08-25T08:55:12Z</time>
      </trkpt>
      <trkpt lat="44.71576" lon="6.75515">
        <ele>1206.74</ele>
        <time>2018-08-25T08:55:13Z</time>
      </trkpt>
      <trkpt lat="44.71573" lon="6.75483">
        <ele>1207.37</ele>
        <time>2018-08-25T08:55:14Z</time>
      </trkpt>
      <trkpt lat="44.71569" lon="6.7545">
        <ele>1207.56</ele>
        <time>2018-08-25T08:55:15Z</time>
      </trkpt>
      <trkpt lat="44.71568" lon="6.75416">
        <ele>1206.92</ele>
        <time>2018-08-25T08:55:16Z</time>
      </trkpt>
      <trkpt lat="44.71566" lon="6.75381">
        <ele>1206.72</ele>
        <time>2018-08-25T08:55:17Z</time>
      </trkpt>
      <trkpt lat="44.71565" lon="6.75346">
        <ele>1206.66</ele>
        <time>2018-08-25T08:55:18Z</time>
      </trkpt>
      <trkpt lat="44.71563" lon="6.7531">
        <ele>1206.65</ele>
        <time>2018-08-25T08:55:19Z</time>
      </trkpt>
      <trkpt lat="44.71562" lon="6.7527">
        <ele>1205.94</ele>
        <time>2018-08-25T08:55:20Z</time>
      </trkpt>
      <trkpt lat="44.71561" lon="6.75231">
        <ele>1205.03</ele>
        <time>2018-08-25T08:55:21Z</time>
      </trkpt>
      <trkpt lat="44.71562" lon="6.75194">
        <ele>1205.46</ele>
        <time>2018-08-25T08:55:22Z</time>
      </trkpt>
      <trkpt lat="44.71559" lon="6.75161">
        <ele>1205.59</ele>
        <time>2018-08-25T08:55:23Z</time>
      </trkpt>
      <trkpt lat="44.71551" lon="6.75129">
        <ele>1204.22</ele>
        <time>2018-08-25T08:55:24Z</time>
      </trkpt>
      <trkpt lat="44.71545" lon="6.75097">
        <ele>1204.52</ele>
        <time>2018-08-25T08:55:25Z</time>
      </trkpt>
      <trkpt lat="44.71539" lon="6.75066">
        <ele>1203.9</ele>
        <time>2018-08-25T08:55:26Z</time>
      </trkpt>
      <trkpt lat="44.71532" lon="6.75036">
        <ele>1203.72</ele>
        <time>2018-08-25T08:55:27Z</time>
      </trkpt>
      <trkpt lat="44.71524" lon="6.75005">
        <ele>1202.96</ele>
        <time>2018-08-25T08:55:28Z</time>
      </trkpt>
      <trkpt lat="44.71513" lon="6.74976">
        <ele>1201.88</ele>
        <time>2018-08-25T08:55:29Z</time>
      </trkpt>
      <trkpt lat="44.71502" lon="6.74947">
        <ele>1200.16</ele>
        <time>2018-08-25T08:55:30Z</time>
      </trkpt>
      <trkpt lat="44.71491" lon="6.74917">
        <ele>1198.94</ele>
        <time>2018-08-25T08:55:31Z</time>
      </trkpt>
      <trkpt lat="44.71478" lon="6.74888">
        <ele>1198.58</ele>
        <time>2018-08-25T08:55:32Z</time>
      </trkpt>
      <trkpt lat="44.71464" lon="6.7486">
        <ele>1197.77</ele>
        <time>2018-08-25T08:55:33Z</time>
      </trkpt>
      <trkpt lat="44.7145" lon="6.74833">
        <ele>1197.53</ele>
        <time>2018-08-25T08:55:34Z</time>
      </trkpt>
      <trkpt lat="44.71437" lon="6.74806">
        <ele>1196.75</ele>
        <time>2018-08-25T08:55:35Z</time>
      </trkpt>
      <trkpt lat="44.71423" lon="6.7478">
        <ele>1196.52</ele>
        <time>2018-08-25T08:55:36Z</time>
      </trkpt>
      <trkpt lat="44.71409" lon="6.74753">
        <ele>1195.75</ele>
        <time>2018-08-25T08:55:37Z</time>
      </trkpt>
      <trkpt lat="44.71395" lon="6.74726">
        <ele>1195.52</ele>
        <time>2018-08-25T08:55:38Z</time>
      </trkpt>
      <trkpt lat="44.71381" lon="6.74699">
        <ele>1194.75</ele>
        <time>2018-08-25T08:55:39Z</time>
      </trkpt>
      <trkpt lat="44.71366" lon="6.74672">
        <ele>1193.82</ele>
        <time>2018-08-25T08:55:40Z</time>
      </trkpt>
      <trkpt lat="44.71353" lon="6.74643">
        <ele>1192.84</ele>
        <time>2018-08-25T08:55:41Z</time>
      </trkpt>
      <trkpt lat="44.71339" lon="6.74615">
        <ele>1193.25</ele>
        <time>2018-08-25T08:55:42Z</time>
      </trkpt>
      <trkpt lat="44.71324" lon="6.74588">
        <ele>1192.67</ele>
        <time>2018-08-25T08:55:43Z</time>
      </trkpt>
      <trkpt lat="44.7131" lon="6.74561">
        <ele>1191.8</ele>
        <time>2018-08-25T08:55:44Z</time>
      </trkpt>
      <trkpt lat="44.71296" lon="6.74534">
        <ele>1190.83</ele>
        <time>2018-08-25T08:55:45Z</time>
      </trkpt>
      <trkpt lat="44.71282" lon="6.74507">
        <ele>1190.54</ele>
        <time>2018-08-25T08:55:46Z</time>
      </trkpt>
      <trkpt lat="44.71268" lon="6.7448">
        <ele>1189.76</ele>
        <time>2018-08-25T08:55:47Z</time>
      </trkpt>
      <trkpt lat="44.71255" lon="6.74453">
        <ele>1189.52</ele>
        <time>2018-08-25T08:55:48Z</time>
      </trkpt>
      <trkpt lat="44.71241" lon="6.74425">
        <ele>1188.75</ele>
        <time>2018-08-25T08:55:49Z</time>
      </trkpt>
      <trkpt lat="44.71228" lon="6.74398">
        <ele>1188.52</ele>
        <time>2018-08-25T08:55:50Z</time>
      </trkpt>
      <trkpt lat="44.71217" lon="6.74371">
        <ele>1187.75</ele>
        <time>2018-08-25T08:55:51Z</time>
      </trkpt>
      <trkpt lat="44.71209" lon="6.74343">
        <ele>1187.52</ele>
        <time>2018-08-25T08:55:52Z</time>
      </trkpt>
      <trkpt lat="44.71203" lon="6.74316">
        <ele>1186.75</ele>
        <time>2018-08-25T08:55:53Z</time>
      </trkpt>
      <trkpt lat="44.71201" lon="6.74288">
        <ele>1186.52</ele>
        <time>2018-08-25T08:55:54Z</time>
      </trkpt>
      <trkpt lat="44.71194" lon="6.74262">
        <ele>1187.15</ele>
        <time>2018-08-25T08:55:55Z</time>
      </trkpt>
      <trkpt lat="44.71186" lon="6.74236">
        <ele>1186.64</ele>
        <time>2018-08-25T08:55:56Z</time>
      </trkpt>
      <trkpt lat="44.71177" lon="6.74212">
        <ele>1186.49</ele>
        <time>2018-08-25T08:55:57Z</time>
      </trkpt>
      <trkpt lat="44.71166" lon="6.74188">
        <ele>1185.04</ele>
        <time>2018-08-25T08:55:58Z</time>
      </trkpt>
      <trkpt lat="44.71154" lon="6.74166">
        <ele>1184.61</ele>
        <time>2018-08-25T08:55:59Z</time>
      </trkpt>
      <trkpt lat="44.71132" lon="6.74145">
        <ele>1182.38</ele>
        <time>2018-08-25T08:56:00Z</time>
      </trkpt>
      <trkpt lat="44.71105" lon="6.74123">
        <ele>1181.01</ele>
        <time>2018-08-25T08:56:01Z</time>
      </trkpt>
      <trkpt lat="44.71088" lon="6.74099">
        <ele>1179.9</ele>
        <time>2018-08-25T08:56:02Z</time>
      </trkpt>
      <trkpt lat="44.71071" lon="6.74072">
        <ele>1178.86</ele>
        <time>2018-08-25T08:56:03Z</time>
      </trkpt>
      <trkpt lat="44.71053" lon="6.74046">
        <ele>1177.85</ele>
        <time>2018-08-25T08:56:04Z</time>
      </trkpt>
      <trkpt lat="44.7104" lon="6.74018">
        <ele>1177.55</ele>
        <time>2018-08-25T08:56:05Z</time>
      </trkpt>
      <trkpt lat="44.71025" lon="6.73991">
        <ele>1176.76</ele>
        <time>2018-08-25T08:56:06Z</time>
      </trkpt>
      <trkpt lat="44.71012" lon="6.73965">
        <ele>1176.52</ele>
        <time>2018-08-25T08:56:07Z</time>
      </trkpt>
      <trkpt lat="44.70997" lon="6.7394">
        <ele>1177.15</ele>
        <time>2018-08-25T08:56:08Z</time>
      </trkpt>
      <trkpt lat="44.70984" lon="6.73915">
        <ele>1178.04</ele>
        <time>2018-08-25T08:56:09Z</time>
      </trkpt>
      <trkpt lat="44.7097" lon="6.73888">
        <ele>1178.31</ele>
        <time>2018-08-25T08:56:10Z</time>
      </trkpt>
      <trkpt lat="44.70956" lon="6.73862">
        <ele>1178.39</ele>
        <time>2018-08-25T08:56:11Z</time>
      </trkpt>
      <trkpt lat="44.7094" lon="6.73834">
        <ele>1177.01</ele>
        <time>2018-08-25T08:56:12Z</time>
      </trkpt>
      <trkpt lat="44.70926" lon="6.73807">
        <ele>1175.9</ele>
        <time>2018-08-25T08:56:13Z</time>
      </trkpt>
      <trkpt lat="44.70913" lon="6.7378">
        <ele>1175.56</ele>
        <time>2018-08-25T08:56:14Z</time>
      </trkpt>
      <trkpt lat="44.709" lon="6.73753">
        <ele>1174.76</ele>
        <time>2018-08-25T08:56:15Z</time>
      </trkpt>
      <trkpt lat="44.70887" lon="6.73726">
        <ele>1175.22</ele>
        <time>2018-08-25T08:56:16Z</time>
      </trkpt>
      <trkpt lat="44.70873" lon="6.737">
        <ele>1174.66</ele>
        <time>2018-08-25T08:56:17Z</time>
      </trkpt>
      <trkpt lat="44.7086" lon="6.73672">
        <ele>1174.49</ele>
        <time>2018-08-25T08:56:18Z</time>
      </trkpt>
      <trkpt lat="44.70849" lon="6.73645">
        <ele>1174.44</ele>
        <time>2018-08-25T08:56:19Z</time>
      </trkpt>
      <trkpt lat="44.70839" lon="6.73615">
        <ele>1173.73</ele>
        <time>2018-08-25T08:56:20Z</time>
      </trkpt>
      <trkpt lat="44.70836" lon="6.73582">
        <ele>1172.11</ele>
        <time>2018-08-25T08:56:21Z</time>
      </trkpt>
      <trkpt lat="44.70832" lon="6.73551">
        <ele>1170.93</ele>
        <time>2018-08-25T08:56:22Z</time>
      </trkpt>
      <trkpt lat="44.70828" lon="6.7352">
        <ele>1170.57</ele>
        <time>2018-08-25T08:56:23Z</time>
      </trkpt>
      <trkpt lat="44.70826" lon="6.7349">
        <ele>1171.17</ele>
        <time>2018-08-25T08:56:24Z</time>
      </trkpt>
      <trkpt lat="44.70831" lon="6.73456">
        <ele>1170.64</ele>
        <time>2018-08-25T08:56:25Z</time>
      </trkpt>
      <trkpt lat="44.70834" lon="6.73425">
        <ele>1170.49</ele>
        <time>2018-08-25T08:56:26Z</time>
      </trkpt>
      <trkpt lat="44.70839" lon="6.73395">
        <ele>1170.44</ele>
        <time>2018-08-25T08:56:27Z</time>
      </trkpt>
      <trkpt lat="44.70846" lon="6.73367">
        <ele>1169.73</ele>
        <time>2018-08-25T08:56:28Z</time>
      </trkpt>
      <trkpt lat="44.70853" lon="6.7334">
        <ele>1170.21</ele>
        <time>2018-08-25T08:56:29Z</time>
      </trkpt>
      <trkpt lat="44.70865" lon="6.73312">
        <ele>1170.36</ele>
        <time>2018-08-25T08:56:30Z</time>
      </trkpt>
      <trkpt lat="44.7088" lon="6.73288">
        <ele>1171.1</ele>
        <time>2018-08-25T08:56:31Z</time>
      </trkpt>
      <trkpt lat="44.70889" lon="6.73262">
        <ele>1170.63</ele>
        <time>2018-08-25T08:56:32Z</time>
      </trkpt>
      <trkpt lat="44.70897" lon="6.73234">
        <ele>1170.48</ele>
        <time>2018-08-25T08:56:33Z</time>
      </trkpt>
      <trkpt lat="44.70904" lon="6.73207">
        <ele>1170.44</ele>
        <time>2018-08-25T08:56:34Z</time>
      </trkpt>
      <trkpt lat="44.70907" lon="6.73182">
        <ele>1169.73</ele>
        <time>2018-08-25T08:56:35Z</time>
      </trkpt>
      <trkpt lat="44.70913" lon="6.73155">
        <ele>1170.21</ele>
        <time>2018-08-25T08:56:36Z</time>
      </trkpt>
      <trkpt lat="44.709" lon="6.73098">
        <ele>1170.4</ele>
        <time>2018-08-25T08:56:38Z</time>
      </trkpt>
      <trkpt lat="44.7089" lon="6.7307">
        <ele>1171.12</ele>
        <time>2018-08-25T08:56:39Z</time>
      </trkpt>
      <trkpt lat="44.70881" lon="6.73039">
        <ele>1169.93</ele>
        <time>2018-08-25T08:56:40Z</time>
      </trkpt>
      <trkpt lat="44.70871" lon="6.7301">
        <ele>1169.57</ele>
        <time>2018-08-25T08:56:41Z</time>
      </trkpt>
      <trkpt lat="44.7086" lon="6.72981">
        <ele>1169.47</ele>
        <time>2018-08-25T08:56:42Z</time>
      </trkpt>
      <trkpt lat="44.70851" lon="6.72954">
        <ele>1168.73</ele>
        <time>2018-08-25T08:56:43Z</time>
      </trkpt>
      <trkpt lat="44.7084" lon="6.72928">
        <ele>1168.52</ele>
        <time>2018-08-25T08:56:44Z</time>
      </trkpt>
      <trkpt lat="44.70829" lon="6.72901">
        <ele>1167.75</ele>
        <time>2018-08-25T08:56:45Z</time>
      </trkpt>
      <trkpt lat="44.70815" lon="6.72874">
        <ele>1166.82</ele>
        <time>2018-08-25T08:56:46Z</time>
      </trkpt>
      <trkpt lat="44.70802" lon="6.72848">
        <ele>1166.54</ele>
        <time>2018-08-25T08:56:47Z</time>
      </trkpt>
      <trkpt lat="44.70789" lon="6.72822">
        <ele>1166.46</ele>
        <time>2018-08-25T08:56:48Z</time>
      </trkpt>
      <trkpt lat="44.70777" lon="6.72794">
        <ele>1167.13</ele>
        <time>2018-08-25T08:56:49Z</time>
      </trkpt>
      <trkpt lat="44.70764" lon="6.72768">
        <ele>1167.33</ele>
        <time>2018-08-25T08:56:50Z</time>
      </trkpt>
      <trkpt lat="44.70752" lon="6.7274">
        <ele>1167.4</ele>
        <time>2018-08-25T08:56:51Z</time>
      </trkpt>
      <trkpt lat="44.70739" lon="6.72713">
        <ele>1166.71</ele>
        <time>2018-08-25T08:56:52Z</time>
      </trkpt>
      <trkpt lat="44.70727" lon="6.72685">
        <ele>1166.51</ele>
        <time>2018-08-25T08:56:53Z</time>
      </trkpt>
      <trkpt lat="44.70715" lon="6.7266">
        <ele>1167.15</ele>
        <time>2018-08-25T08:56:54Z</time>
      </trkpt>
      <trkpt lat="44.70702" lon="6.72634">
        <ele>1166.64</ele>
        <time>2018-08-25T08:56:55Z</time>
      </trkpt>
      <trkpt lat="44.7069" lon="6.72608">
        <ele>1166.49</ele>
        <time>2018-08-25T08:56:56Z</time>
      </trkpt>
      <trkpt lat="44.70677" lon="6.72582">
        <ele>1166.44</ele>
        <time>2018-08-25T08:56:57Z</time>
      </trkpt>
      <trkpt lat="44.70664" lon="6.72556">
        <ele>1166.43</ele>
        <time>2018-08-25T08:56:58Z</time>
      </trkpt>
      <trkpt lat="44.70651" lon="6.7253">
        <ele>1165.72</ele>
        <time>2018-08-25T08:56:59Z</time>
      </trkpt>
      <trkpt lat="44.70637" lon="6.72504">
        <ele>1165.51</ele>
        <time>2018-08-25T08:57:00Z</time>
      </trkpt>
      <trkpt lat="44.70622" lon="6.72479">
        <ele>1164.75</ele>
        <time>2018-08-25T08:57:01Z</time>
      </trkpt>
      <trkpt lat="44.70607" lon="6.72456">
        <ele>1164.52</ele>
        <time>2018-08-25T08:57:02Z</time>
      </trkpt>
      <trkpt lat="44.70591" lon="6.72433">
        <ele>1163.75</ele>
        <time>2018-08-25T08:57:03Z</time>
      </trkpt>
      <trkpt lat="44.70576" lon="6.7241">
        <ele>1162.82</ele>
        <time>2018-08-25T08:57:04Z</time>
      </trkpt>
      <trkpt lat="44.70562" lon="6.72386">
        <ele>1162.54</ele>
        <time>2018-08-25T08:57:05Z</time>
      </trkpt>
      <trkpt lat="44.70549" lon="6.7236">
        <ele>1161.76</ele>
        <time>2018-08-25T08:57:06Z</time>
      </trkpt>
      <trkpt lat="44.70539" lon="6.72332">
        <ele>1160.82</ele>
        <time>2018-08-25T08:57:07Z</time>
      </trkpt>
      <trkpt lat="44.7053" lon="6.72303">
        <ele>1159.84</ele>
        <time>2018-08-25T08:57:08Z</time>
      </trkpt>
      <trkpt lat="44.70525" lon="6.72275">
        <ele>1159.55</ele>
        <time>2018-08-25T08:57:09Z</time>
      </trkpt>
      <trkpt lat="44.70522" lon="6.72244">
        <ele>1158.76</ele>
        <time>2018-08-25T08:57:10Z</time>
      </trkpt>
      <trkpt lat="44.70521" lon="6.72215">
        <ele>1158.52</ele>
        <time>2018-08-25T08:57:11Z</time>
      </trkpt>
      <trkpt lat="44.70522" lon="6.72182">
        <ele>1156.35</ele>
        <time>2018-08-25T08:57:12Z</time>
      </trkpt>
      <trkpt lat="44.70521" lon="6.72151">
        <ele>1155</ele>
        <time>2018-08-25T08:57:13Z</time>
      </trkpt>
      <trkpt lat="44.70521" lon="6.72121">
        <ele>1153.89</ele>
        <time>2018-08-25T08:57:14Z</time>
      </trkpt>
      <trkpt lat="44.7052" lon="6.72091">
        <ele>1153.56</ele>
        <time>2018-08-25T08:57:15Z</time>
      </trkpt>
      <trkpt lat="44.70517" lon="6.7206">
        <ele>1152.76</ele>
        <time>2018-08-25T08:57:16Z</time>
      </trkpt>
      <trkpt lat="44.70509" lon="6.72032">
        <ele>1152.52</ele>
        <time>2018-08-25T08:57:17Z</time>
      </trkpt>
      <trkpt lat="44.70502" lon="6.72005">
        <ele>1151.75</ele>
        <time>2018-08-25T08:57:18Z</time>
      </trkpt>
      <trkpt lat="44.70495" lon="6.71979">
        <ele>1150.82</ele>
        <time>2018-08-25T08:57:19Z</time>
      </trkpt>
      <trkpt lat="44.70485" lon="6.71955">
        <ele>1149.84</ele>
        <time>2018-08-25T08:57:20Z</time>
      </trkpt>
      <trkpt lat="44.70454" lon="6.71916">
        <ele>1146.94</ele>
        <time>2018-08-25T08:57:22Z</time>
      </trkpt>
      <trkpt lat="44.70411" lon="6.71899">
        <ele>1147.17</ele>
        <time>2018-08-25T08:57:24Z</time>
      </trkpt>
      <trkpt lat="44.70386" lon="6.71889">
        <ele>1146.65</ele>
        <time>2018-08-25T08:57:25Z</time>
      </trkpt>
      <trkpt lat="44.70363" lon="6.7188">
        <ele>1146.49</ele>
        <time>2018-08-25T08:57:26Z</time>
      </trkpt>
      <trkpt lat="44.70346" lon="6.71867">
        <ele>1145.74</ele>
        <time>2018-08-25T08:57:27Z</time>
      </trkpt>
      <trkpt lat="44.70319" lon="6.71856">
        <ele>1144.12</ele>
        <time>2018-08-25T08:57:28Z</time>
      </trkpt>
      <trkpt lat="44.70294" lon="6.71841">
        <ele>1142.23</ele>
        <time>2018-08-25T08:57:29Z</time>
      </trkpt>
      <trkpt lat="44.70279" lon="6.71822">
        <ele>1141.66</ele>
        <time>2018-08-25T08:57:30Z</time>
      </trkpt>
      <trkpt lat="44.70266" lon="6.718">
        <ele>1140.79</ele>
        <time>2018-08-25T08:57:31Z</time>
      </trkpt>
      <trkpt lat="44.70257" lon="6.71772">
        <ele>1139.83</ele>
        <time>2018-08-25T08:57:32Z</time>
      </trkpt>
      <trkpt lat="44.70258" lon="6.71736">
        <ele>1137.44</ele>
        <time>2018-08-25T08:57:33Z</time>
      </trkpt>
      <trkpt lat="44.70249" lon="6.71709">
        <ele>1136.73</ele>
        <time>2018-08-25T08:57:34Z</time>
      </trkpt>
      <trkpt lat="44.70237" lon="6.71686">
        <ele>1135.81</ele>
        <time>2018-08-25T08:57:35Z</time>
      </trkpt>
      <trkpt lat="44.70224" lon="6.71664">
        <ele>1135.54</ele>
        <time>2018-08-25T08:57:36Z</time>
      </trkpt>
      <trkpt lat="44.7021" lon="6.71643">
        <ele>1135.46</ele>
        <time>2018-08-25T08:57:37Z</time>
      </trkpt>
      <trkpt lat="44.70193" lon="6.71623">
        <ele>1134.73</ele>
        <time>2018-08-25T08:57:38Z</time>
      </trkpt>
      <trkpt lat="44.70176" lon="6.71605">
        <ele>1134.51</ele>
        <time>2018-08-25T08:57:39Z</time>
      </trkpt>
      <trkpt lat="44.70157" lon="6.71591">
        <ele>1133.75</ele>
        <time>2018-08-25T08:57:40Z</time>
      </trkpt>
      <trkpt lat="44.70136" lon="6.71572">
        <ele>1132.82</ele>
        <time>2018-08-25T08:57:41Z</time>
      </trkpt>
      <trkpt lat="44.70124" lon="6.7155">
        <ele>1133.24</ele>
        <time>2018-08-25T08:57:42Z</time>
      </trkpt>
      <trkpt lat="44.70113" lon="6.71524">
        <ele>1131.97</ele>
        <time>2018-08-25T08:57:43Z</time>
      </trkpt>
      <trkpt lat="44.70101" lon="6.71499">
        <ele>1130.88</ele>
        <time>2018-08-25T08:57:44Z</time>
      </trkpt>
      <trkpt lat="44.70094" lon="6.71471">
        <ele>1129.86</ele>
        <time>2018-08-25T08:57:45Z</time>
      </trkpt>
      <trkpt lat="44.70084" lon="6.71444">
        <ele>1128.85</ele>
        <time>2018-08-25T08:57:46Z</time>
      </trkpt>
      <trkpt lat="44.70071" lon="6.7142">
        <ele>1127.85</ele>
        <time>2018-08-25T08:57:47Z</time>
      </trkpt>
      <trkpt lat="44.7006" lon="6.71396">
        <ele>1126.85</ele>
        <time>2018-08-25T08:57:48Z</time>
      </trkpt>
      <trkpt lat="44.70048" lon="6.71371">
        <ele>1126.55</ele>
        <time>2018-08-25T08:57:49Z</time>
      </trkpt>
      <trkpt lat="44.70036" lon="6.71346">
        <ele>1126.46</ele>
        <time>2018-08-25T08:57:50Z</time>
      </trkpt>
      <trkpt lat="44.70025" lon="6.71321">
        <ele>1125.73</ele>
        <time>2018-08-25T08:57:51Z</time>
      </trkpt>
      <trkpt lat="44.70016" lon="6.71295">
        <ele>1125.51</ele>
        <time>2018-08-25T08:57:52Z</time>
      </trkpt>
      <trkpt lat="44.70006" lon="6.71268">
        <ele>1125.45</ele>
        <time>2018-08-25T08:57:53Z</time>
      </trkpt>
      <trkpt lat="44.70001" lon="6.71236">
        <ele>1123.33</ele>
        <time>2018-08-25T08:57:54Z</time>
      </trkpt>
      <trkpt lat="44.69991" lon="6.7121">
        <ele>1121.29</ele>
        <time>2018-08-25T08:57:55Z</time>
      </trkpt>
      <trkpt lat="44.69982" lon="6.71186">
        <ele>1119.98</ele>
        <time>2018-08-25T08:57:56Z</time>
      </trkpt>
      <trkpt lat="44.69971" lon="6.71164">
        <ele>1119.59</ele>
        <time>2018-08-25T08:57:57Z</time>
      </trkpt>
      <trkpt lat="44.6996" lon="6.71141">
        <ele>1118.77</ele>
        <time>2018-08-25T08:57:58Z</time>
      </trkpt>
      <trkpt lat="44.6995" lon="6.71118">
        <ele>1118.53</ele>
        <time>2018-08-25T08:57:59Z</time>
      </trkpt>
      <trkpt lat="44.69854" lon="6.70953">
        <ele>1116.35</ele>
        <time>2018-08-25T08:58:06Z</time>
      </trkpt>
      <trkpt lat="44.69841" lon="6.70933">
        <ele>1115</ele>
        <time>2018-08-25T08:58:07Z</time>
      </trkpt>
      <trkpt lat="44.69826" lon="6.70908">
        <ele>1113.89</ele>
        <time>2018-08-25T08:58:08Z</time>
      </trkpt>
      <trkpt lat="44.69812" lon="6.70885">
        <ele>1112.16</ele>
        <time>2018-08-25T08:58:09Z</time>
      </trkpt>
      <trkpt lat="44.69795" lon="6.70864">
        <ele>1110.94</ele>
        <time>2018-08-25T08:58:10Z</time>
      </trkpt>
      <trkpt lat="44.69778" lon="6.70841">
        <ele>1109.88</ele>
        <time>2018-08-25T08:58:11Z</time>
      </trkpt>
      <trkpt lat="44.69762" lon="6.70819">
        <ele>1109.56</ele>
        <time>2018-08-25T08:58:12Z</time>
      </trkpt>
      <trkpt lat="44.69745" lon="6.708">
        <ele>1109.46</ele>
        <time>2018-08-25T08:58:13Z</time>
      </trkpt>
      <trkpt lat="44.69726" lon="6.7078">
        <ele>1109.43</ele>
        <time>2018-08-25T08:58:14Z</time>
      </trkpt>
      <trkpt lat="44.69708" lon="6.70761">
        <ele>1108.02</ele>
        <time>2018-08-25T08:58:15Z</time>
      </trkpt>
      <trkpt lat="44.6969" lon="6.70741">
        <ele>1106.9</ele>
        <time>2018-08-25T08:58:16Z</time>
      </trkpt>
      <trkpt lat="44.69672" lon="6.7072">
        <ele>1105.87</ele>
        <time>2018-08-25T08:58:17Z</time>
      </trkpt>
      <trkpt lat="44.69654" lon="6.70701">
        <ele>1106.25</ele>
        <time>2018-08-25T08:58:18Z</time>
      </trkpt>
      <trkpt lat="44.69635" lon="6.70681">
        <ele>1105.67</ele>
        <time>2018-08-25T08:58:19Z</time>
      </trkpt>
      <trkpt lat="44.69617" lon="6.70661">
        <ele>1104.1</ele>
        <time>2018-08-25T08:58:20Z</time>
      </trkpt>
      <trkpt lat="44.69598" lon="6.70641">
        <ele>1103.62</ele>
        <time>2018-08-25T08:58:21Z</time>
      </trkpt>
      <trkpt lat="44.69578" lon="6.70622">
        <ele>1104.18</ele>
        <time>2018-08-25T08:58:22Z</time>
      </trkpt>
      <trkpt lat="44.69557" lon="6.70607">
        <ele>1104.35</ele>
        <time>2018-08-25T08:58:23Z</time>
      </trkpt>
      <trkpt lat="44.69536" lon="6.70593">
        <ele>1103.7</ele>
        <time>2018-08-25T08:58:24Z</time>
      </trkpt>
      <trkpt lat="44.69515" lon="6.70583">
        <ele>1104.2</ele>
        <time>2018-08-25T08:58:25Z</time>
      </trkpt>
      <trkpt lat="44.69494" lon="6.70573">
        <ele>1103.66</ele>
        <time>2018-08-25T08:58:26Z</time>
      </trkpt>
      <trkpt lat="44.69473" lon="6.70563">
        <ele>1103.49</ele>
        <time>2018-08-25T08:58:27Z</time>
      </trkpt>
      <trkpt lat="44.69453" lon="6.70553">
        <ele>1103.44</ele>
        <time>2018-08-25T08:58:28Z</time>
      </trkpt>
      <trkpt lat="44.69432" lon="6.70542">
        <ele>1102.73</ele>
        <time>2018-08-25T08:58:29Z</time>
      </trkpt>
      <trkpt lat="44.69413" lon="6.70531">
        <ele>1101.81</ele>
        <time>2018-08-25T08:58:30Z</time>
      </trkpt>
      <trkpt lat="44.69392" lon="6.7052">
        <ele>1101.54</ele>
        <time>2018-08-25T08:58:31Z</time>
      </trkpt>
      <trkpt lat="44.69373" lon="6.70508">
        <ele>1101.46</ele>
        <time>2018-08-25T08:58:32Z</time>
      </trkpt>
      <trkpt lat="44.69354" lon="6.70495">
        <ele>1100.73</ele>
        <time>2018-08-25T08:58:33Z</time>
      </trkpt>
      <trkpt lat="44.69335" lon="6.70481">
        <ele>1100.51</ele>
        <time>2018-08-25T08:58:34Z</time>
      </trkpt>
      <trkpt lat="44.69317" lon="6.70466">
        <ele>1099.75</ele>
        <time>2018-08-25T08:58:35Z</time>
      </trkpt>
      <trkpt lat="44.69299" lon="6.70449">
        <ele>1099.52</ele>
        <time>2018-08-25T08:58:36Z</time>
      </trkpt>
      <trkpt lat="44.69285" lon="6.70428">
        <ele>1098.75</ele>
        <time>2018-08-25T08:58:37Z</time>
      </trkpt>
      <trkpt lat="44.6927" lon="6.70406">
        <ele>1097.82</ele>
        <time>2018-08-25T08:58:38Z</time>
      </trkpt>
      <trkpt lat="44.69257" lon="6.70384">
        <ele>1098.24</ele>
        <time>2018-08-25T08:58:39Z</time>
      </trkpt>
      <trkpt lat="44.69245" lon="6.70359">
        <ele>1097.67</ele>
        <time>2018-08-25T08:58:40Z</time>
      </trkpt>
      <trkpt lat="44.69236" lon="6.70329">
        <ele>1096.79</ele>
        <time>2018-08-25T08:58:41Z</time>
      </trkpt>
      <trkpt lat="44.69222" lon="6.70307">
        <ele>1096.53</ele>
        <time>2018-08-25T08:58:42Z</time>
      </trkpt>
      <trkpt lat="44.69208" lon="6.70285">
        <ele>1095.75</ele>
        <time>2018-08-25T08:58:43Z</time>
      </trkpt>
      <trkpt lat="44.69192" lon="6.70265">
        <ele>1094.82</ele>
        <time>2018-08-25T08:58:44Z</time>
      </trkpt>
      <trkpt lat="44.69177" lon="6.70245">
        <ele>1093.14</ele>
        <time>2018-08-25T08:58:45Z</time>
      </trkpt>
      <trkpt lat="44.69157" lon="6.70227">
        <ele>1091.94</ele>
        <time>2018-08-25T08:58:46Z</time>
      </trkpt>
      <trkpt lat="44.69136" lon="6.70212">
        <ele>1091.58</ele>
        <time>2018-08-25T08:58:47Z</time>
      </trkpt>
      <trkpt lat="44.69116" lon="6.70196">
        <ele>1090.77</ele>
        <time>2018-08-25T08:58:48Z</time>
      </trkpt>
      <trkpt lat="44.69097" lon="6.70179">
        <ele>1089.82</ele>
        <time>2018-08-25T08:58:49Z</time>
      </trkpt>
      <trkpt lat="44.69078" lon="6.70163">
        <ele>1088.84</ele>
        <time>2018-08-25T08:58:50Z</time>
      </trkpt>
      <trkpt lat="44.69059" lon="6.70147">
        <ele>1087.85</ele>
        <time>2018-08-25T08:58:51Z</time>
      </trkpt>
      <trkpt lat="44.69039" lon="6.70131">
        <ele>1086.85</ele>
        <time>2018-08-25T08:58:52Z</time>
      </trkpt>
      <trkpt lat="44.69019" lon="6.70116">
        <ele>1086.55</ele>
        <time>2018-08-25T08:58:53Z</time>
      </trkpt>
      <trkpt lat="44.69001" lon="6.70098">
        <ele>1085.76</ele>
        <time>2018-08-25T08:58:54Z</time>
      </trkpt>
      <trkpt lat="44.68982" lon="6.70081">
        <ele>1085.52</ele>
        <time>2018-08-25T08:58:55Z</time>
      </trkpt>
      <trkpt lat="44.68963" lon="6.70065">
        <ele>1085.45</ele>
        <time>2018-08-25T08:58:56Z</time>
      </trkpt>
      <trkpt lat="44.68944" lon="6.7005">
        <ele>1084.73</ele>
        <time>2018-08-25T08:58:57Z</time>
      </trkpt>
      <trkpt lat="44.68926" lon="6.70034">
        <ele>1084.51</ele>
        <time>2018-08-25T08:58:58Z</time>
      </trkpt>
      <trkpt lat="44.68908" lon="6.70017">
        <ele>1083.75</ele>
        <time>2018-08-25T08:58:59Z</time>
      </trkpt>
      <trkpt lat="44.68889" lon="6.70002">
        <ele>1082.12</ele>
        <time>2018-08-25T08:59:00Z</time>
      </trkpt>
      <trkpt lat="44.6887" lon="6.69987">
        <ele>1080.93</ele>
        <time>2018-08-25T08:59:01Z</time>
      </trkpt>
      <trkpt lat="44.68851" lon="6.69971">
        <ele>1080.57</ele>
        <time>2018-08-25T08:59:02Z</time>
      </trkpt>
      <trkpt lat="44.68833" lon="6.69957">
        <ele>1080.47</ele>
        <time>2018-08-25T08:59:03Z</time>
      </trkpt>
      <trkpt lat="44.68815" lon="6.69942">
        <ele>1080.43</ele>
        <time>2018-08-25T08:59:04Z</time>
      </trkpt>
      <trkpt lat="44.68796" lon="6.69928">
        <ele>1080.43</ele>
        <time>2018-08-25T08:59:05Z</time>
      </trkpt>
      <trkpt lat="44.68777" lon="6.69915">
        <ele>1081.12</ele>
        <time>2018-08-25T08:59:06Z</time>
      </trkpt>
      <trkpt lat="44.68758" lon="6.69901">
        <ele>1081.33</ele>
        <time>2018-08-25T08:59:07Z</time>
      </trkpt>
      <trkpt lat="44.68741" lon="6.69888">
        <ele>1081.39</ele>
        <time>2018-08-25T08:59:08Z</time>
      </trkpt>
      <trkpt lat="44.68723" lon="6.69872">
        <ele>1080.71</ele>
        <time>2018-08-25T08:59:09Z</time>
      </trkpt>
      <trkpt lat="44.68705" lon="6.69858">
        <ele>1081.21</ele>
        <time>2018-08-25T08:59:10Z</time>
      </trkpt>
      <trkpt lat="44.68685" lon="6.69847">
        <ele>1081.36</ele>
        <time>2018-08-25T08:59:11Z</time>
      </trkpt>
      <trkpt lat="44.68665" lon="6.69833">
        <ele>1081.4</ele>
        <time>2018-08-25T08:59:12Z</time>
      </trkpt>
      <trkpt lat="44.6864" lon="6.69833">
        <ele>1081.42</ele>
        <time>2018-08-25T08:59:13Z</time>
      </trkpt>
      <trkpt lat="44.68619" lon="6.69829">
        <ele>1080.72</ele>
        <time>2018-08-25T08:59:14Z</time>
      </trkpt>
      <trkpt lat="44.68597" lon="6.69823">
        <ele>1080.51</ele>
        <time>2018-08-25T08:59:15Z</time>
      </trkpt>
      <trkpt lat="44.68575" lon="6.69819">
        <ele>1080.45</ele>
        <time>2018-08-25T08:59:16Z</time>
      </trkpt>
      <trkpt lat="44.68554" lon="6.69817">
        <ele>1081.13</ele>
        <time>2018-08-25T08:59:17Z</time>
      </trkpt>
      <trkpt lat="44.68535" lon="6.69812">
        <ele>1080.63</ele>
        <time>2018-08-25T08:59:18Z</time>
      </trkpt>
      <trkpt lat="44.68513" lon="6.6981">
        <ele>1079.78</ele>
        <time>2018-08-25T08:59:19Z</time>
      </trkpt>
      <trkpt lat="44.68492" lon="6.69809">
        <ele>1079.53</ele>
        <time>2018-08-25T08:59:20Z</time>
      </trkpt>
      <trkpt lat="44.68473" lon="6.6981">
        <ele>1078.75</ele>
        <time>2018-08-25T08:59:21Z</time>
      </trkpt>
      <trkpt lat="44.68437" lon="6.69802">
        <ele>1077.75</ele>
        <time>2018-08-25T08:59:23Z</time>
      </trkpt>
      <trkpt lat="44.6842" lon="6.69794">
        <ele>1076.82</ele>
        <time>2018-08-25T08:59:24Z</time>
      </trkpt>
      <trkpt lat="44.68407" lon="6.69771">
        <ele>1075.14</ele>
        <time>2018-08-25T08:59:25Z</time>
      </trkpt>
      <trkpt lat="44.6839" lon="6.69755">
        <ele>1073.94</ele>
        <time>2018-08-25T08:59:26Z</time>
      </trkpt>
      <trkpt lat="44.68372" lon="6.6974">
        <ele>1072.88</ele>
        <time>2018-08-25T08:59:27Z</time>
      </trkpt>
      <trkpt lat="44.68353" lon="6.69727">
        <ele>1072.56</ele>
        <time>2018-08-25T08:59:28Z</time>
      </trkpt>
      <trkpt lat="44.68332" lon="6.69723">
        <ele>1072.46</ele>
        <time>2018-08-25T08:59:29Z</time>
      </trkpt>
      <trkpt lat="44.68308" lon="6.69727">
        <ele>1071.73</ele>
        <time>2018-08-25T08:59:30Z</time>
      </trkpt>
      <trkpt lat="44.68287" lon="6.69723">
        <ele>1070.81</ele>
        <time>2018-08-25T08:59:31Z</time>
      </trkpt>
      <trkpt lat="44.68266" lon="6.69719">
        <ele>1070.54</ele>
        <time>2018-08-25T08:59:32Z</time>
      </trkpt>
      <trkpt lat="44.68247" lon="6.69723">
        <ele>1069.76</ele>
        <time>2018-08-25T08:59:33Z</time>
      </trkpt>
      <trkpt lat="44.68227" lon="6.69726">
        <ele>1068.82</ele>
        <time>2018-08-25T08:59:34Z</time>
      </trkpt>
      <trkpt lat="44.68192" lon="6.69729">
        <ele>1066.85</ele>
        <time>2018-08-25T08:59:36Z</time>
      </trkpt>
      <trkpt lat="44.68162" lon="6.69711">
        <ele>1066.25</ele>
        <time>2018-08-25T08:59:38Z</time>
      </trkpt>
      <trkpt lat="44.68141" lon="6.69684">
        <ele>1064.97</ele>
        <time>2018-08-25T08:59:39Z</time>
      </trkpt>
      <trkpt lat="44.68124" lon="6.69664">
        <ele>1063.89</ele>
        <time>2018-08-25T08:59:40Z</time>
      </trkpt>
      <trkpt lat="44.68108" lon="6.69646">
        <ele>1062.86</ele>
        <time>2018-08-25T08:59:41Z</time>
      </trkpt>
      <trkpt lat="44.68093" lon="6.69626">
        <ele>1062.55</ele>
        <time>2018-08-25T08:59:42Z</time>
      </trkpt>
      <trkpt lat="44.68073" lon="6.69605">
        <ele>1061.76</ele>
        <time>2018-08-25T08:59:43Z</time>
      </trkpt>
      <trkpt lat="44.68057" lon="6.69586">
        <ele>1061.52</ele>
        <time>2018-08-25T08:59:44Z</time>
      </trkpt>
      <trkpt lat="44.6804" lon="6.69564">
        <ele>1061.45</ele>
        <time>2018-08-25T08:59:45Z</time>
      </trkpt>
      <trkpt lat="44.6802" lon="6.69556">
        <ele>1062.13</ele>
        <time>2018-08-25T08:59:46Z</time>
      </trkpt>
      <trkpt lat="44.68" lon="6.69552">
        <ele>1061.63</ele>
        <time>2018-08-25T08:59:47Z</time>
      </trkpt>
      <trkpt lat="44.67966" lon="6.69541">
        <ele>1060.53</ele>
        <time>2018-08-25T08:59:49Z</time>
      </trkpt>
      <trkpt lat="44.67947" lon="6.69535">
        <ele>1060.45</ele>
        <time>2018-08-25T08:59:50Z</time>
      </trkpt>
      <trkpt lat="44.67915" lon="6.69514">
        <ele>1060.42</ele>
        <time>2018-08-25T08:59:52Z</time>
      </trkpt>
      <trkpt lat="44.67898" lon="6.69503">
        <ele>1059.72</ele>
        <time>2018-08-25T08:59:53Z</time>
      </trkpt>
      <trkpt lat="44.67874" lon="6.69499">
        <ele>1056.01</ele>
        <time>2018-08-25T08:59:54Z</time>
      </trkpt>
      <trkpt lat="44.67856" lon="6.69494">
        <ele>1054.2</ele>
        <time>2018-08-25T08:59:55Z</time>
      </trkpt>
      <trkpt lat="44.67825" lon="6.69487">
        <ele>1052.09</ele>
        <time>2018-08-25T08:59:57Z</time>
      </trkpt>
      <trkpt lat="44.67799" lon="6.69472">
        <ele>1052.6</ele>
        <time>2018-08-25T08:59:59Z</time>
      </trkpt>
      <trkpt lat="44.67778" lon="6.69437">
        <ele>1051.53</ele>
        <time>2018-08-25T09:00:01Z</time>
      </trkpt>
      <trkpt lat="44.67755" lon="6.69404">
        <ele>1051.43</ele>
        <time>2018-08-25T09:00:03Z</time>
      </trkpt>
      <trkpt lat="44.6773" lon="6.69377">
        <ele>1052.12</ele>
        <time>2018-08-25T09:00:05Z</time>
      </trkpt>
      <trkpt lat="44.67707" lon="6.69376">
        <ele>1053.3</ele>
        <time>2018-08-25T09:00:07Z</time>
      </trkpt>
      <trkpt lat="44.67683" lon="6.69382">
        <ele>1054.53</ele>
        <time>2018-08-25T09:00:09Z</time>
      </trkpt>
      <trkpt lat="44.67661" lon="6.6937">
        <ele>1054.22</ele>
        <time>2018-08-25T09:00:11Z</time>
      </trkpt>
      <trkpt lat="44.67645" lon="6.69342">
        <ele>1052.58</ele>
        <time>2018-08-25T09:00:13Z</time>
      </trkpt>
      <trkpt lat="44.6763" lon="6.69318">
        <ele>1053.35</ele>
        <time>2018-08-25T09:00:15Z</time>
      </trkpt>
      <trkpt lat="44.6761" lon="6.69302">
        <ele>1055.02</ele>
        <time>2018-08-25T09:00:17Z</time>
      </trkpt>
      <trkpt lat="44.67597" lon="6.69278">
        <ele>1054.48</ele>
        <time>2018-08-25T09:00:19Z</time>
      </trkpt>
      <trkpt lat="44.67578" lon="6.69248">
        <ele>1054.43</ele>
        <time>2018-08-25T09:00:21Z</time>
      </trkpt>
      <trkpt lat="44.67561" lon="6.69215">
        <ele>1053.93</ele>
        <time>2018-08-25T09:00:23Z</time>
      </trkpt>
      <trkpt lat="44.67549" lon="6.6918">
        <ele>1054.17</ele>
        <time>2018-08-25T09:00:25Z</time>
      </trkpt>
      <trkpt lat="44.67546" lon="6.69147">
        <ele>1053</ele>
        <time>2018-08-25T09:00:27Z</time>
      </trkpt>
      <trkpt lat="44.67538" lon="6.69115">
        <ele>1050.16</ele>
        <time>2018-08-25T09:00:29Z</time>
      </trkpt>
      <trkpt lat="44.67529" lon="6.69086">
        <ele>1050.19</ele>
        <time>2018-08-25T09:00:31Z</time>
      </trkpt>
      <trkpt lat="44.67521" lon="6.69062">
        <ele>1051.1</ele>
        <time>2018-08-25T09:00:33Z</time>
      </trkpt>
      <trkpt lat="44.67519" lon="6.69035">
        <ele>1052.09</ele>
        <time>2018-08-25T09:00:35Z</time>
      </trkpt>
      <trkpt lat="44.67518" lon="6.69009">
        <ele>1054</ele>
        <time>2018-08-25T09:00:37Z</time>
      </trkpt>
      <trkpt lat="44.67515" lon="6.68982">
        <ele>1055.29</ele>
        <time>2018-08-25T09:00:39Z</time>
      </trkpt>
      <trkpt lat="44.67502" lon="6.68947">
        <ele>1055.41</ele>
        <time>2018-08-25T09:00:41Z</time>
      </trkpt>
      <trkpt lat="44.67474" lon="6.68928">
        <ele>1055.42</ele>
        <time>2018-08-25T09:00:42Z</time>
      </trkpt>
      <trkpt lat="44.67462" lon="6.68908">
        <ele>1055.42</ele>
        <time>2018-08-25T09:00:43Z</time>
      </trkpt>
      <trkpt lat="44.67448" lon="6.68888">
        <ele>1056.12</ele>
        <time>2018-08-25T09:00:44Z</time>
      </trkpt>
      <trkpt lat="44.67437" lon="6.68865">
        <ele>1056.33</ele>
        <time>2018-08-25T09:00:45Z</time>
      </trkpt>
      <trkpt lat="44.67425" lon="6.68816">
        <ele>1056.62</ele>
        <time>2018-08-25T09:00:47Z</time>
      </trkpt>
      <trkpt lat="44.67413" lon="6.68767">
        <ele>1056.44</ele>
        <time>2018-08-25T09:00:49Z</time>
      </trkpt>
      <trkpt lat="44.67406" lon="6.68738">
        <ele>1057.13</ele>
        <time>2018-08-25T09:00:50Z</time>
      </trkpt>
      <trkpt lat="44.674" lon="6.6871">
        <ele>1057.33</ele>
        <time>2018-08-25T09:00:51Z</time>
      </trkpt>
      <trkpt lat="44.67396" lon="6.6868">
        <ele>1058.79</ele>
        <time>2018-08-25T09:00:52Z</time>
      </trkpt>
      <trkpt lat="44.67405" lon="6.68649">
        <ele>1060.63</ele>
        <time>2018-08-25T09:00:53Z</time>
      </trkpt>
      <trkpt lat="44.67407" lon="6.68621">
        <ele>1061.18</ele>
        <time>2018-08-25T09:00:54Z</time>
      </trkpt>
      <trkpt lat="44.67414" lon="6.68595">
        <ele>1062.05</ele>
        <time>2018-08-25T09:00:55Z</time>
      </trkpt>
      <trkpt lat="44.67428" lon="6.68558">
        <ele>1062.39</ele>
        <time>2018-08-25T09:00:57Z</time>
      </trkpt>
      <trkpt lat="44.67447" lon="6.6853">
        <ele>1064.24</ele>
        <time>2018-08-25T09:00:59Z</time>
      </trkpt>
      <trkpt lat="44.67454" lon="6.68503">
        <ele>1066.01</ele>
        <time>2018-08-25T09:01:01Z</time>
      </trkpt>
      <trkpt lat="44.6745" lon="6.68475">
        <ele>1067.99</ele>
        <time>2018-08-25T09:01:03Z</time>
      </trkpt>
      <trkpt lat="44.67441" lon="6.68449">
        <ele>1068.38</ele>
        <time>2018-08-25T09:01:05Z</time>
      </trkpt>
      <trkpt lat="44.67398" lon="6.68432">
        <ele>1070.94</ele>
        <time>2018-08-25T09:01:07Z</time>
      </trkpt>
      <trkpt lat="44.67374" lon="6.68414">
        <ele>1067.95</ele>
        <time>2018-08-25T09:01:09Z</time>
      </trkpt>
      <trkpt lat="44.67356" lon="6.6839">
        <ele>1067.23</ele>
        <time>2018-08-25T09:01:12Z</time>
      </trkpt>
      <trkpt lat="44.67335" lon="6.6837">
        <ele>1068.1</ele>
        <time>2018-08-25T09:01:14Z</time>
      </trkpt>
      <trkpt lat="44.67311" lon="6.68339">
        <ele>1069.3</ele>
        <time>2018-08-25T09:01:16Z</time>
      </trkpt>
      <trkpt lat="44.67284" lon="6.68311">
        <ele>1070.32</ele>
        <time>2018-08-25T09:01:18Z</time>
      </trkpt>
      <trkpt lat="44.67269" lon="6.68282">
        <ele>1069.5</ele>
        <time>2018-08-25T09:01:20Z</time>
      </trkpt>
      <trkpt lat="44.67252" lon="6.68251">
        <ele>1069.43</ele>
        <time>2018-08-25T09:01:22Z</time>
      </trkpt>
      <trkpt lat="44.67231" lon="6.68223">
        <ele>1070.33</ele>
        <time>2018-08-25T09:01:24Z</time>
      </trkpt>
      <trkpt lat="44.67212" lon="6.68196">
        <ele>1070.41</ele>
        <time>2018-08-25T09:01:26Z</time>
      </trkpt>
      <trkpt lat="44.67195" lon="6.68178">
        <ele>1069.51</ele>
        <time>2018-08-25T09:01:28Z</time>
      </trkpt>
      <trkpt lat="44.67178" lon="6.6816">
        <ele>1068.52</ele>
        <time>2018-08-25T09:01:30Z</time>
      </trkpt>
      <trkpt lat="44.67086" lon="6.68128">
        <ele>1068.45</ele>
        <time>2018-08-25T09:01:37Z</time>
      </trkpt>
      <trkpt lat="44.67058" lon="6.68111">
        <ele>1071.64</ele>
        <time>2018-08-25T09:01:39Z</time>
      </trkpt>
      <trkpt lat="44.67032" lon="6.6809">
        <ele>1072.35</ele>
        <time>2018-08-25T09:01:41Z</time>
      </trkpt>
      <trkpt lat="44.66881" lon="6.67784">
        <ele>1075.2</ele>
        <time>2018-08-25T09:02:03Z</time>
      </trkpt>
      <trkpt lat="44.66876" lon="6.67741">
        <ele>1076.31</ele>
        <time>2018-08-25T09:02:05Z</time>
      </trkpt>
      <trkpt lat="44.66879" lon="6.67702">
        <ele>1078.72</ele>
        <time>2018-08-25T09:02:07Z</time>
      </trkpt>
      <trkpt lat="44.6688" lon="6.67663">
        <ele>1082.16</ele>
        <time>2018-08-25T09:02:09Z</time>
      </trkpt>
      <trkpt lat="44.66889" lon="6.67636">
        <ele>1080.79</ele>
        <time>2018-08-25T09:02:11Z</time>
      </trkpt>
      <trkpt lat="44.66891" lon="6.67599">
        <ele>1080.66</ele>
        <time>2018-08-25T09:02:13Z</time>
      </trkpt>
      <trkpt lat="44.66886" lon="6.67562">
        <ele>1082.05</ele>
        <time>2018-08-25T09:02:15Z</time>
      </trkpt>
      <trkpt lat="44.66874" lon="6.67528">
        <ele>1082.39</ele>
        <time>2018-08-25T09:02:17Z</time>
      </trkpt>
      <trkpt lat="44.66866" lon="6.6749">
        <ele>1082.42</ele>
        <time>2018-08-25T09:02:19Z</time>
      </trkpt>
      <trkpt lat="44.66837" lon="6.67465">
        <ele>1084.24</ele>
        <time>2018-08-25T09:02:21Z</time>
      </trkpt>
      <trkpt lat="44.66808" lon="6.6744">
        <ele>1084.4</ele>
        <time>2018-08-25T09:02:23Z</time>
      </trkpt>
      <trkpt lat="44.66783" lon="6.6741">
        <ele>1082.81</ele>
        <time>2018-08-25T09:02:25Z</time>
      </trkpt>
      <trkpt lat="44.66759" lon="6.6737">
        <ele>1082.67</ele>
        <time>2018-08-25T09:02:27Z</time>
      </trkpt>
      <trkpt lat="44.66743" lon="6.67332">
        <ele>1081.53</ele>
        <time>2018-08-25T09:02:29Z</time>
      </trkpt>
      <trkpt lat="44.66739" lon="6.67294">
        <ele>1082.4</ele>
        <time>2018-08-25T09:02:32Z</time>
      </trkpt>
      <trkpt lat="44.66735" lon="6.67264">
        <ele>1083.82</ele>
        <time>2018-08-25T09:02:34Z</time>
      </trkpt>
      <trkpt lat="44.66727" lon="6.67224">
        <ele>1083.46</ele>
        <time>2018-08-25T09:02:36Z</time>
      </trkpt>
      <trkpt lat="44.6672" lon="6.67181">
        <ele>1083.42</ele>
        <time>2018-08-25T09:02:38Z</time>
      </trkpt>
      <trkpt lat="44.66716" lon="6.67144">
        <ele>1083.42</ele>
        <time>2018-08-25T09:02:40Z</time>
      </trkpt>
      <trkpt lat="44.66709" lon="6.67109">
        <ele>1082.3</ele>
        <time>2018-08-25T09:02:42Z</time>
      </trkpt>
      <trkpt lat="44.66703" lon="6.67077">
        <ele>1082.41</ele>
        <time>2018-08-25T09:02:44Z</time>
      </trkpt>
      <trkpt lat="44.66697" lon="6.67048">
        <ele>1083.33</ele>
        <time>2018-08-25T09:02:46Z</time>
      </trkpt>
      <trkpt lat="44.66687" lon="6.67016">
        <ele>1085.09</ele>
        <time>2018-08-25T09:02:49Z</time>
      </trkpt>
      <trkpt lat="44.66675" lon="6.66994">
        <ele>1085.35</ele>
        <time>2018-08-25T09:02:52Z</time>
      </trkpt>
      <trkpt lat="44.66671" lon="6.66953">
        <ele>1086.39</ele>
        <time>2018-08-25T09:02:55Z</time>
      </trkpt>
      <trkpt lat="44.66675" lon="6.66914">
        <ele>1087.61</ele>
        <time>2018-08-25T09:02:57Z</time>
      </trkpt>
      <trkpt lat="44.66667" lon="6.66883">
        <ele>1087.93</ele>
        <time>2018-08-25T09:02:59Z</time>
      </trkpt>
      <trkpt lat="44.66649" lon="6.66875">
        <ele>1088.38</ele>
        <time>2018-08-25T09:03:01Z</time>
      </trkpt>
      <trkpt lat="44.66626" lon="6.66864">
        <ele>1089.12</ele>
        <time>2018-08-25T09:03:03Z</time>
      </trkpt>
      <trkpt lat="44.66613" lon="6.66844">
        <ele>1090.09</ele>
        <time>2018-08-25T09:03:05Z</time>
      </trkpt>
      <trkpt lat="44.66611" lon="6.66817">
        <ele>1089.48</ele>
        <time>2018-08-25T09:03:07Z</time>
      </trkpt>
      <trkpt lat="44.66629" lon="6.66794">
        <ele>1089.43</ele>
        <time>2018-08-25T09:03:09Z</time>
      </trkpt>
      <trkpt lat="44.66637" lon="6.66763">
        <ele>1089.42</ele>
        <time>2018-08-25T09:03:11Z</time>
      </trkpt>
      <trkpt lat="44.66651" lon="6.66735">
        <ele>1091.24</ele>
        <time>2018-08-25T09:03:13Z</time>
      </trkpt>
      <trkpt lat="44.66658" lon="6.66706">
        <ele>1092.31</ele>
        <time>2018-08-25T09:03:15Z</time>
      </trkpt>
      <trkpt lat="44.66657" lon="6.66679">
        <ele>1091.92</ele>
        <time>2018-08-25T09:03:17Z</time>
      </trkpt>
      <trkpt lat="44.66626" lon="6.6667">
        <ele>1092.87</ele>
        <time>2018-08-25T09:03:19Z</time>
      </trkpt>
      <trkpt lat="44.66602" lon="6.66661">
        <ele>1093.37</ele>
        <time>2018-08-25T09:03:21Z</time>
      </trkpt>
      <trkpt lat="44.66579" lon="6.66644">
        <ele>1093.42</ele>
        <time>2018-08-25T09:03:23Z</time>
      </trkpt>
      <trkpt lat="44.66556" lon="6.66608">
        <ele>1093.42</ele>
        <time>2018-08-25T09:03:25Z</time>
      </trkpt>
      <trkpt lat="44.66542" lon="6.66584">
        <ele>1094.12</ele>
        <time>2018-08-25T09:03:26Z</time>
      </trkpt>
      <trkpt lat="44.66531" lon="6.66561">
        <ele>1095.03</ele>
        <time>2018-08-25T09:03:27Z</time>
      </trkpt>
      <trkpt lat="44.66521" lon="6.66538">
        <ele>1095.3</ele>
        <time>2018-08-25T09:03:28Z</time>
      </trkpt>
      <trkpt lat="44.66513" lon="6.66514">
        <ele>1095.39</ele>
        <time>2018-08-25T09:03:29Z</time>
      </trkpt>
      <trkpt lat="44.66508" lon="6.66487">
        <ele>1094.71</ele>
        <time>2018-08-25T09:03:30Z</time>
      </trkpt>
      <trkpt lat="44.66505" lon="6.6646">
        <ele>1095.21</ele>
        <time>2018-08-25T09:03:31Z</time>
      </trkpt>
      <trkpt lat="44.66514" lon="6.66433">
        <ele>1096.06</ele>
        <time>2018-08-25T09:03:32Z</time>
      </trkpt>
      <trkpt lat="44.66511" lon="6.66386">
        <ele>1098</ele>
        <time>2018-08-25T09:03:34Z</time>
      </trkpt>
      <trkpt lat="44.66502" lon="6.66348">
        <ele>1098.38</ele>
        <time>2018-08-25T09:03:36Z</time>
      </trkpt>
      <trkpt lat="44.66493" lon="6.6632">
        <ele>1099.12</ele>
        <time>2018-08-25T09:03:38Z</time>
      </trkpt>
      <trkpt lat="44.66471" lon="6.66314">
        <ele>1098.63</ele>
        <time>2018-08-25T09:03:39Z</time>
      </trkpt>
      <trkpt lat="44.66448" lon="6.66319">
        <ele>1097.78</ele>
        <time>2018-08-25T09:03:40Z</time>
      </trkpt>
      <trkpt lat="44.6643" lon="6.66312">
        <ele>1098.23</ele>
        <time>2018-08-25T09:03:41Z</time>
      </trkpt>
      <trkpt lat="44.66397" lon="6.66282">
        <ele>1097.49</ele>
        <time>2018-08-25T09:03:43Z</time>
      </trkpt>
      <trkpt lat="44.6638" lon="6.66262">
        <ele>1098.14</ele>
        <time>2018-08-25T09:03:44Z</time>
      </trkpt>
      <trkpt lat="44.66366" lon="6.66238">
        <ele>1097.64</ele>
        <time>2018-08-25T09:03:45Z</time>
      </trkpt>
      <trkpt lat="44.66354" lon="6.66213">
        <ele>1095.39</ele>
        <time>2018-08-25T09:03:46Z</time>
      </trkpt>
      <trkpt lat="44.66342" lon="6.66192">
        <ele>1094.01</ele>
        <time>2018-08-25T09:03:47Z</time>
      </trkpt>
      <trkpt lat="44.66327" lon="6.66175">
        <ele>1093.6</ele>
        <time>2018-08-25T09:03:48Z</time>
      </trkpt>
      <trkpt lat="44.66311" lon="6.66159">
        <ele>1093.47</ele>
        <time>2018-08-25T09:03:49Z</time>
      </trkpt>
      <trkpt lat="44.66295" lon="6.66145">
        <ele>1093.44</ele>
        <time>2018-08-25T09:03:50Z</time>
      </trkpt>
      <trkpt lat="44.66277" lon="6.6613">
        <ele>1093.43</ele>
        <time>2018-08-25T09:03:51Z</time>
      </trkpt>
      <trkpt lat="44.66257" lon="6.66126">
        <ele>1093.42</ele>
        <time>2018-08-25T09:03:52Z</time>
      </trkpt>
      <trkpt lat="44.66239" lon="6.66116">
        <ele>1092.02</ele>
        <time>2018-08-25T09:03:53Z</time>
      </trkpt>
      <trkpt lat="44.6621" lon="6.66089">
        <ele>1088.96</ele>
        <time>2018-08-25T09:03:55Z</time>
      </trkpt>
      <trkpt lat="44.66189" lon="6.66056">
        <ele>1088.26</ele>
        <time>2018-08-25T09:03:57Z</time>
      </trkpt>
      <trkpt lat="44.66169" lon="6.66023">
        <ele>1087.01</ele>
        <time>2018-08-25T09:03:59Z</time>
      </trkpt>
      <trkpt lat="44.6615" lon="6.65995">
        <ele>1084.86</ele>
        <time>2018-08-25T09:04:01Z</time>
      </trkpt>
      <trkpt lat="44.66131" lon="6.65969">
        <ele>1083.55</ele>
        <time>2018-08-25T09:04:03Z</time>
      </trkpt>
      <trkpt lat="44.66111" lon="6.65945">
        <ele>1081.82</ele>
        <time>2018-08-25T09:04:05Z</time>
      </trkpt>
      <trkpt lat="44.66092" lon="6.65922">
        <ele>1079.85</ele>
        <time>2018-08-25T09:04:07Z</time>
      </trkpt>
      <trkpt lat="44.66072" lon="6.659">
        <ele>1078.76</ele>
        <time>2018-08-25T09:04:09Z</time>
      </trkpt>
      <trkpt lat="44.66051" lon="6.65876">
        <ele>1077.75</ele>
        <time>2018-08-25T09:04:11Z</time>
      </trkpt>
      <trkpt lat="44.66032" lon="6.65852">
        <ele>1074.93</ele>
        <time>2018-08-25T09:04:13Z</time>
      </trkpt>
      <trkpt lat="44.66012" lon="6.6583">
        <ele>1074.47</ele>
        <time>2018-08-25T09:04:15Z</time>
      </trkpt>
      <trkpt lat="44.65991" lon="6.65807">
        <ele>1073.52</ele>
        <time>2018-08-25T09:04:17Z</time>
      </trkpt>
      <trkpt lat="44.6597" lon="6.65783">
        <ele>1071.82</ele>
        <time>2018-08-25T09:04:19Z</time>
      </trkpt>
      <trkpt lat="44.65951" lon="6.65759">
        <ele>1070.55</ele>
        <time>2018-08-25T09:04:21Z</time>
      </trkpt>
      <trkpt lat="44.65931" lon="6.65736">
        <ele>1068.82</ele>
        <time>2018-08-25T09:04:23Z</time>
      </trkpt>
      <trkpt lat="44.65912" lon="6.65713">
        <ele>1067.76</ele>
        <time>2018-08-25T09:04:25Z</time>
      </trkpt>
      <trkpt lat="44.65893" lon="6.65692">
        <ele>1066.54</ele>
        <time>2018-08-25T09:04:27Z</time>
      </trkpt>
      <trkpt lat="44.65875" lon="6.65673">
        <ele>1065.52</ele>
        <time>2018-08-25T09:04:29Z</time>
      </trkpt>
      <trkpt lat="44.65855" lon="6.65659">
        <ele>1063.82</ele>
        <time>2018-08-25T09:04:31Z</time>
      </trkpt>
      <trkpt lat="44.65833" lon="6.65649">
        <ele>1063.67</ele>
        <time>2018-08-25T09:04:33Z</time>
      </trkpt>
      <trkpt lat="44.65806" lon="6.65647">
        <ele>1063.23</ele>
        <time>2018-08-25T09:04:35Z</time>
      </trkpt>
      <trkpt lat="44.65782" lon="6.65642">
        <ele>1062.49</ele>
        <time>2018-08-25T09:04:37Z</time>
      </trkpt>
      <trkpt lat="44.65758" lon="6.6563">
        <ele>1061.52</ele>
        <time>2018-08-25T09:04:39Z</time>
      </trkpt>
      <trkpt lat="44.65735" lon="6.65615">
        <ele>1059.82</ele>
        <time>2018-08-25T09:04:41Z</time>
      </trkpt>
      <trkpt lat="44.65713" lon="6.65599">
        <ele>1059.46</ele>
        <time>2018-08-25T09:04:43Z</time>
      </trkpt>
      <trkpt lat="44.65693" lon="6.65584">
        <ele>1058.72</ele>
        <time>2018-08-25T09:04:45Z</time>
      </trkpt>
      <trkpt lat="44.65672" lon="6.65568">
        <ele>1058.45</ele>
        <time>2018-08-25T09:04:47Z</time>
      </trkpt>
      <trkpt lat="44.65652" lon="6.65553">
        <ele>1057.51</ele>
        <time>2018-08-25T09:04:49Z</time>
      </trkpt>
      <trkpt lat="44.65634" lon="6.65531">
        <ele>1056.52</ele>
        <time>2018-08-25T09:04:51Z</time>
      </trkpt>
      <trkpt lat="44.65619" lon="6.65506">
        <ele>1055.73</ele>
        <time>2018-08-25T09:04:53Z</time>
      </trkpt>
      <trkpt lat="44.65609" lon="6.65482">
        <ele>1054.54</ele>
        <time>2018-08-25T09:04:55Z</time>
      </trkpt>
      <trkpt lat="44.65612" lon="6.65446">
        <ele>1054.15</ele>
        <time>2018-08-25T09:04:58Z</time>
      </trkpt>
      <trkpt lat="44.65598" lon="6.65424">
        <ele>1052.31</ele>
        <time>2018-08-25T09:05:01Z</time>
      </trkpt>
      <trkpt lat="44.65577" lon="6.65415">
        <ele>1052.41</ele>
        <time>2018-08-25T09:05:03Z</time>
      </trkpt>
      <trkpt lat="44.65555" lon="6.65401">
        <ele>1054.03</ele>
        <time>2018-08-25T09:05:05Z</time>
      </trkpt>
      <trkpt lat="44.6553" lon="6.65401">
        <ele>1053.69</ele>
        <time>2018-08-25T09:05:07Z</time>
      </trkpt>
      <trkpt lat="44.65506" lon="6.65419">
        <ele>1053.44</ele>
        <time>2018-08-25T09:05:09Z</time>
      </trkpt>
      <trkpt lat="44.65485" lon="6.65447">
        <ele>1052.72</ele>
        <time>2018-08-25T09:05:11Z</time>
      </trkpt>
      <trkpt lat="44.6546" lon="6.65473">
        <ele>1053.15</ele>
        <time>2018-08-25T09:05:13Z</time>
      </trkpt>
      <trkpt lat="44.65431" lon="6.65486">
        <ele>1052.7</ele>
        <time>2018-08-25T09:05:15Z</time>
      </trkpt>
      <trkpt lat="44.65401" lon="6.65481">
        <ele>1052.45</ele>
        <time>2018-08-25T09:05:17Z</time>
      </trkpt>
      <trkpt lat="44.65376" lon="6.65465">
        <ele>1051.72</ele>
        <time>2018-08-25T09:05:19Z</time>
      </trkpt>
      <trkpt lat="44.6536" lon="6.65436">
        <ele>1050.75</ele>
        <time>2018-08-25T09:05:21Z</time>
      </trkpt>
      <trkpt lat="44.65371" lon="6.65404">
        <ele>1050.52</ele>
        <time>2018-08-25T09:05:22Z</time>
      </trkpt>
      <trkpt lat="44.65385" lon="6.65383">
        <ele>1051.15</ele>
        <time>2018-08-25T09:05:23Z</time>
      </trkpt>
      <trkpt lat="44.65396" lon="6.65359">
        <ele>1051.34</ele>
        <time>2018-08-25T09:05:24Z</time>
      </trkpt>
      <trkpt lat="44.65407" lon="6.65337">
        <ele>1052.1</ele>
        <time>2018-08-25T09:05:25Z</time>
      </trkpt>
      <trkpt lat="44.65419" lon="6.65317">
        <ele>1051.62</ele>
        <time>2018-08-25T09:05:26Z</time>
      </trkpt>
      <trkpt lat="44.65446" lon="6.65285">
        <ele>1050.53</ele>
        <time>2018-08-25T09:05:28Z</time>
      </trkpt>
      <trkpt lat="44.65468" lon="6.6525">
        <ele>1048.82</ele>
        <time>2018-08-25T09:05:30Z</time>
      </trkpt>
      <trkpt lat="44.65489" lon="6.65224">
        <ele>1048.46</ele>
        <time>2018-08-25T09:05:32Z</time>
      </trkpt>
      <trkpt lat="44.65502" lon="6.65201">
        <ele>1047.51</ele>
        <time>2018-08-25T09:05:34Z</time>
      </trkpt>
      <trkpt lat="44.65508" lon="6.65174">
        <ele>1047.43</ele>
        <time>2018-08-25T09:05:36Z</time>
      </trkpt>
      <trkpt lat="44.65521" lon="6.6515">
        <ele>1047.42</ele>
        <time>2018-08-25T09:05:38Z</time>
      </trkpt>
      <trkpt lat="44.65539" lon="6.65127">
        <ele>1046.72</ele>
        <time>2018-08-25T09:05:40Z</time>
      </trkpt>
      <trkpt lat="44.65559" lon="6.65103">
        <ele>1045.54</ele>
        <time>2018-08-25T09:05:42Z</time>
      </trkpt>
      <trkpt lat="44.65564" lon="6.65074">
        <ele>1044.73</ele>
        <time>2018-08-25T09:05:44Z</time>
      </trkpt>
      <trkpt lat="44.65562" lon="6.65038">
        <ele>1045.15</ele>
        <time>2018-08-25T09:05:46Z</time>
      </trkpt>
      <trkpt lat="44.65533" lon="6.6502">
        <ele>1043.94</ele>
        <time>2018-08-25T09:05:47Z</time>
      </trkpt>
      <trkpt lat="44.65513" lon="6.64984">
        <ele>1044.17</ele>
        <time>2018-08-25T09:05:49Z</time>
      </trkpt>
      <trkpt lat="44.65495" lon="6.64956">
        <ele>1045.31</ele>
        <time>2018-08-25T09:05:51Z</time>
      </trkpt>
      <trkpt lat="44.65469" lon="6.6494">
        <ele>1044.5</ele>
        <time>2018-08-25T09:05:53Z</time>
      </trkpt>
      <trkpt lat="44.65439" lon="6.64947">
        <ele>1044.44</ele>
        <time>2018-08-25T09:05:54Z</time>
      </trkpt>
      <trkpt lat="44.6542" lon="6.64945">
        <ele>1045.13</ele>
        <time>2018-08-25T09:05:55Z</time>
      </trkpt>
      <trkpt lat="44.65387" lon="6.64941">
        <ele>1045.39</ele>
        <time>2018-08-25T09:05:57Z</time>
      </trkpt>
      <trkpt lat="44.65359" lon="6.64954">
        <ele>1046.82</ele>
        <time>2018-08-25T09:05:59Z</time>
      </trkpt>
      <trkpt lat="44.65353" lon="6.6498">
        <ele>1050.04</ele>
        <time>2018-08-25T09:06:00Z</time>
      </trkpt>
      <trkpt lat="44.65359" lon="6.65005">
        <ele>1051.01</ele>
        <time>2018-08-25T09:06:01Z</time>
      </trkpt>
      <trkpt lat="44.65378" lon="6.65041">
        <ele>1050.47</ele>
        <time>2018-08-25T09:06:03Z</time>
      </trkpt>
      <trkpt lat="44.65402" lon="6.6508">
        <ele>1051.13</ele>
        <time>2018-08-25T09:06:05Z</time>
      </trkpt>
      <trkpt lat="44.6541" lon="6.65108">
        <ele>1052.03</ele>
        <time>2018-08-25T09:06:06Z</time>
      </trkpt>
      <trkpt lat="44.65414" lon="6.65136">
        <ele>1053</ele>
        <time>2018-08-25T09:06:07Z</time>
      </trkpt>
      <trkpt lat="44.65414" lon="6.65161">
        <ele>1054</ele>
        <time>2018-08-25T09:06:08Z</time>
      </trkpt>
      <trkpt lat="44.65402" lon="6.652">
        <ele>1055.99</ele>
        <time>2018-08-25T09:06:10Z</time>
      </trkpt>
      <trkpt lat="44.65378" lon="6.65235">
        <ele>1060.3</ele>
        <time>2018-08-25T09:06:12Z</time>
      </trkpt>
      <trkpt lat="44.65353" lon="6.65251">
        <ele>1062.93</ele>
        <time>2018-08-25T09:06:14Z</time>
      </trkpt>
      <trkpt lat="44.65336" lon="6.65167">
        <ele>1066.07</ele>
        <time>2018-08-25T09:06:15Z</time>
      </trkpt>
      <trkpt lat="44.65327" lon="6.65143">
        <ele>1068.42</ele>
        <time>2018-08-25T09:06:16Z</time>
      </trkpt>
      <trkpt lat="44.65317" lon="6.6511">
        <ele>1070.52</ele>
        <time>2018-08-25T09:06:17Z</time>
      </trkpt>
      <trkpt lat="44.6531" lon="6.65079">
        <ele>1071.15</ele>
        <time>2018-08-25T09:06:18Z</time>
      </trkpt>
      <trkpt lat="44.65309" lon="6.65048">
        <ele>1073.44</ele>
        <time>2018-08-25T09:06:19Z</time>
      </trkpt>
      <trkpt lat="44.65306" lon="6.65022">
        <ele>1076.23</ele>
        <time>2018-08-25T09:06:20Z</time>
      </trkpt>
      <trkpt lat="44.65296" lon="6.6498">
        <ele>1079.62</ele>
        <time>2018-08-25T09:06:22Z</time>
      </trkpt>
      <trkpt lat="44.65277" lon="6.64953">
        <ele>1080.84</ele>
        <time>2018-08-25T09:06:24Z</time>
      </trkpt>
      <trkpt lat="44.65246" lon="6.64953">
        <ele>1079.76</ele>
        <time>2018-08-25T09:06:26Z</time>
      </trkpt>
      <trkpt lat="44.65229" lon="6.64965">
        <ele>1079.52</ele>
        <time>2018-08-25T09:06:27Z</time>
      </trkpt>
      <trkpt lat="44.65203" lon="6.64984">
        <ele>1079.45</ele>
        <time>2018-08-25T09:06:28Z</time>
      </trkpt>
      <trkpt lat="44.6518" lon="6.65008">
        <ele>1082.93</ele>
        <time>2018-08-25T09:06:29Z</time>
      </trkpt>
      <trkpt lat="44.65159" lon="6.65023">
        <ele>1084.67</ele>
        <time>2018-08-25T09:06:30Z</time>
      </trkpt>
      <trkpt lat="44.65139" lon="6.65037">
        <ele>1087.3</ele>
        <time>2018-08-25T09:06:31Z</time>
      </trkpt>
      <trkpt lat="44.65121" lon="6.65045">
        <ele>1089.48</ele>
        <time>2018-08-25T09:06:32Z</time>
      </trkpt>
      <trkpt lat="44.65092" lon="6.65036">
        <ele>1095.59</ele>
        <time>2018-08-25T09:06:34Z</time>
      </trkpt>
      <trkpt lat="44.65065" lon="6.65047">
        <ele>1099.36</ele>
        <time>2018-08-25T09:06:36Z</time>
      </trkpt>
      <trkpt lat="44.65041" lon="6.65073">
        <ele>1102.85</ele>
        <time>2018-08-25T09:06:38Z</time>
      </trkpt>
      <trkpt lat="44.65032" lon="6.65117">
        <ele>1104.28</ele>
        <time>2018-08-25T09:06:40Z</time>
      </trkpt>
      <trkpt lat="44.65033" lon="6.65143">
        <ele>1104.38</ele>
        <time>2018-08-25T09:06:41Z</time>
      </trkpt>
      <trkpt lat="44.65039" lon="6.65196">
        <ele>1106.73</ele>
        <time>2018-08-25T09:06:43Z</time>
      </trkpt>
      <trkpt lat="44.65041" lon="6.65224">
        <ele>1107.91</ele>
        <time>2018-08-25T09:06:44Z</time>
      </trkpt>
      <trkpt lat="44.65038" lon="6.65251">
        <ele>1108.97</ele>
        <time>2018-08-25T09:06:45Z</time>
      </trkpt>
      <trkpt lat="44.65027" lon="6.65273">
        <ele>1110.69</ele>
        <time>2018-08-25T09:06:46Z</time>
      </trkpt>
      <trkpt lat="44.65009" lon="6.65303">
        <ele>1117.37</ele>
        <time>2018-08-25T09:06:48Z</time>
      </trkpt>
      <trkpt lat="44.64996" lon="6.65346">
        <ele>1122.67</ele>
        <time>2018-08-25T09:06:50Z</time>
      </trkpt>
      <trkpt lat="44.64994" lon="6.65376">
        <ele>1123.89</ele>
        <time>2018-08-25T09:06:51Z</time>
      </trkpt>
      <trkpt lat="44.64992" lon="6.65405">
        <ele>1125.66</ele>
        <time>2018-08-25T09:06:52Z</time>
      </trkpt>
      <trkpt lat="44.64988" lon="6.65431">
        <ele>1126.89</ele>
        <time>2018-08-25T09:06:53Z</time>
      </trkpt>
      <trkpt lat="44.6498" lon="6.65474">
        <ele>1129.68</ele>
        <time>2018-08-25T09:06:55Z</time>
      </trkpt>
      <trkpt lat="44.64962" lon="6.65486">
        <ele>1132.3</ele>
        <time>2018-08-25T09:06:56Z</time>
      </trkpt>
      <trkpt lat="44.64918" lon="6.65496">
        <ele>1137.24</ele>
        <time>2018-08-25T09:06:58Z</time>
      </trkpt>
      <trkpt lat="44.64897" lon="6.6551">
        <ele>1139.47</ele>
        <time>2018-08-25T09:06:59Z</time>
      </trkpt>
      <trkpt lat="44.64874" lon="6.65524">
        <ele>1141.53</ele>
        <time>2018-08-25T09:07:00Z</time>
      </trkpt>
      <trkpt lat="44.6485" lon="6.6553">
        <ele>1144.96</ele>
        <time>2018-08-25T09:07:01Z</time>
      </trkpt>
      <trkpt lat="44.64827" lon="6.65533">
        <ele>1148.78</ele>
        <time>2018-08-25T09:07:02Z</time>
      </trkpt>
      <trkpt lat="44.64803" lon="6.65536">
        <ele>1150.63</ele>
        <time>2018-08-25T09:07:03Z</time>
      </trkpt>
      <trkpt lat="44.64778" lon="6.6554">
        <ele>1153.98</ele>
        <time>2018-08-25T09:07:04Z</time>
      </trkpt>
      <trkpt lat="44.64752" lon="6.65548">
        <ele>1157.09</ele>
        <time>2018-08-25T09:07:05Z</time>
      </trkpt>
      <trkpt lat="44.64727" lon="6.65554">
        <ele>1158.72</ele>
        <time>2018-08-25T09:07:06Z</time>
      </trkpt>
      <trkpt lat="44.64702" lon="6.65556">
        <ele>1162.01</ele>
        <time>2018-08-25T09:07:07Z</time>
      </trkpt>
      <trkpt lat="44.64677" lon="6.65557">
        <ele>1165.1</ele>
        <time>2018-08-25T09:07:08Z</time>
      </trkpt>
      <trkpt lat="44.64653" lon="6.65555">
        <ele>1166.72</ele>
        <time>2018-08-25T09:07:09Z</time>
      </trkpt>
      <trkpt lat="44.64629" lon="6.65551">
        <ele>1169.31</ele>
        <time>2018-08-25T09:07:10Z</time>
      </trkpt>
      <trkpt lat="44.64606" lon="6.65547">
        <ele>1172.19</ele>
        <time>2018-08-25T09:07:11Z</time>
      </trkpt>
      <trkpt lat="44.64585" lon="6.65543">
        <ele>1173.75</ele>
        <time>2018-08-25T09:07:12Z</time>
      </trkpt>
      <trkpt lat="44.64554" lon="6.65548">
        <ele>1178.7</ele>
        <time>2018-08-25T09:07:14Z</time>
      </trkpt>
      <trkpt lat="44.64526" lon="6.65572">
        <ele>1182.79</ele>
        <time>2018-08-25T09:07:16Z</time>
      </trkpt>
      <trkpt lat="44.64499" lon="6.65603">
        <ele>1187.49</ele>
        <time>2018-08-25T09:07:18Z</time>
      </trkpt>
      <trkpt lat="44.64472" lon="6.65625">
        <ele>1191.56</ele>
        <time>2018-08-25T09:07:20Z</time>
      </trkpt>
      <trkpt lat="44.64452" lon="6.65639">
        <ele>1193.74</ele>
        <time>2018-08-25T09:07:22Z</time>
      </trkpt>
      <trkpt lat="44.64432" lon="6.65656">
        <ele>1196.67</ele>
        <time>2018-08-25T09:07:24Z</time>
      </trkpt>
      <trkpt lat="44.64409" lon="6.6567">
        <ele>1199.66</ele>
        <time>2018-08-25T09:07:26Z</time>
      </trkpt>
      <trkpt lat="44.64378" lon="6.65686">
        <ele>1202.66</ele>
        <time>2018-08-25T09:07:28Z</time>
      </trkpt>
      <trkpt lat="44.64355" lon="6.65704">
        <ele>1204.47</ele>
        <time>2018-08-25T09:07:30Z</time>
      </trkpt>
      <trkpt lat="44.64343" lon="6.65727">
        <ele>1204.43</ele>
        <time>2018-08-25T09:07:32Z</time>
      </trkpt>
      <trkpt lat="44.64376" lon="6.65731">
        <ele>1205.54</ele>
        <time>2018-08-25T09:07:35Z</time>
      </trkpt>
      <trkpt lat="44.64418" lon="6.65703">
        <ele>1208.65</ele>
        <time>2018-08-25T09:07:37Z</time>
      </trkpt>
      <trkpt lat="44.64438" lon="6.65691">
        <ele>1209.89</ele>
        <time>2018-08-25T09:07:38Z</time>
      </trkpt>
      <trkpt lat="44.64457" lon="6.65682">
        <ele>1211.66</ele>
        <time>2018-08-25T09:07:39Z</time>
      </trkpt>
      <trkpt lat="44.64478" lon="6.65674">
        <ele>1212.19</ele>
        <time>2018-08-25T09:07:40Z</time>
      </trkpt>
      <trkpt lat="44.64498" lon="6.65666">
        <ele>1213.05</ele>
        <time>2018-08-25T09:07:41Z</time>
      </trkpt>
      <trkpt lat="44.64517" lon="6.65659">
        <ele>1214.01</ele>
        <time>2018-08-25T09:07:42Z</time>
      </trkpt>
      <trkpt lat="44.64534" lon="6.65653">
        <ele>1215.7</ele>
        <time>2018-08-25T09:07:43Z</time>
      </trkpt>
      <trkpt lat="44.64561" lon="6.65646">
        <ele>1217.27</ele>
        <time>2018-08-25T09:07:45Z</time>
      </trkpt>
      <trkpt lat="44.64579" lon="6.65654">
        <ele>1217.41</ele>
        <time>2018-08-25T09:07:47Z</time>
      </trkpt>
      <trkpt lat="44.64592" lon="6.65688">
        <ele>1219.09</ele>
        <time>2018-08-25T09:07:50Z</time>
      </trkpt>
      <trkpt lat="44.64564" lon="6.65715">
        <ele>1221.49</ele>
        <time>2018-08-25T09:07:52Z</time>
      </trkpt>
      <trkpt lat="44.64543" lon="6.65751">
        <ele>1224.65</ele>
        <time>2018-08-25T09:07:54Z</time>
      </trkpt>
      <trkpt lat="44.64534" lon="6.65775">
        <ele>1226.59</ele>
        <time>2018-08-25T09:07:55Z</time>
      </trkpt>
      <trkpt lat="44.64525" lon="6.65798">
        <ele>1227.87</ele>
        <time>2018-08-25T09:07:56Z</time>
      </trkpt>
      <trkpt lat="44.64514" lon="6.65822">
        <ele>1228.96</ele>
        <time>2018-08-25T09:07:57Z</time>
      </trkpt>
      <trkpt lat="44.64502" lon="6.65844">
        <ele>1230.68</ele>
        <time>2018-08-25T09:07:58Z</time>
      </trkpt>
      <trkpt lat="44.6449" lon="6.65867">
        <ele>1231.9</ele>
        <time>2018-08-25T09:07:59Z</time>
      </trkpt>
      <trkpt lat="44.64473" lon="6.65884">
        <ele>1232.26</ele>
        <time>2018-08-25T09:08:00Z</time>
      </trkpt>
      <trkpt lat="44.6445" lon="6.65895">
        <ele>1234.47</ele>
        <time>2018-08-25T09:08:01Z</time>
      </trkpt>
      <trkpt lat="44.6443" lon="6.65911">
        <ele>1236.54</ele>
        <time>2018-08-25T09:08:02Z</time>
      </trkpt>
      <trkpt lat="44.64411" lon="6.65926">
        <ele>1239.26</ele>
        <time>2018-08-25T09:08:03Z</time>
      </trkpt>
      <trkpt lat="44.64396" lon="6.65946">
        <ele>1241.47</ele>
        <time>2018-08-25T09:08:04Z</time>
      </trkpt>
      <trkpt lat="44.6438" lon="6.65964">
        <ele>1242.14</ele>
        <time>2018-08-25T09:08:05Z</time>
      </trkpt>
      <trkpt lat="44.64366" lon="6.65985">
        <ele>1243.04</ele>
        <time>2018-08-25T09:08:06Z</time>
      </trkpt>
      <trkpt lat="44.64352" lon="6.66007">
        <ele>1244.71</ele>
        <time>2018-08-25T09:08:07Z</time>
      </trkpt>
      <trkpt lat="44.64339" lon="6.66028">
        <ele>1246.61</ele>
        <time>2018-08-25T09:08:08Z</time>
      </trkpt>
      <trkpt lat="44.64327" lon="6.66053">
        <ele>1247.88</ele>
        <time>2018-08-25T09:08:09Z</time>
      </trkpt>
      <trkpt lat="44.64311" lon="6.66084">
        <ele>1252.5</ele>
        <time>2018-08-25T09:08:11Z</time>
      </trkpt>
      <trkpt lat="44.643" lon="6.66119">
        <ele>1254.95</ele>
        <time>2018-08-25T09:08:13Z</time>
      </trkpt>
      <trkpt lat="44.64293" lon="6.66157">
        <ele>1256.99</ele>
        <time>2018-08-25T09:08:15Z</time>
      </trkpt>
      <trkpt lat="44.64275" lon="6.66191">
        <ele>1258.99</ele>
        <time>2018-08-25T09:08:17Z</time>
      </trkpt>
      <trkpt lat="44.64254" lon="6.66224">
        <ele>1260.78</ele>
        <time>2018-08-25T09:08:19Z</time>
      </trkpt>
      <trkpt lat="44.64225" lon="6.66234">
        <ele>1262.97</ele>
        <time>2018-08-25T09:08:21Z</time>
      </trkpt>
      <trkpt lat="44.64188" lon="6.66212">
        <ele>1265.39</ele>
        <time>2018-08-25T09:08:22Z</time>
      </trkpt>
      <trkpt lat="44.64165" lon="6.66204">
        <ele>1267.51</ele>
        <time>2018-08-25T09:08:23Z</time>
      </trkpt>
      <trkpt lat="44.64146" lon="6.66203">
        <ele>1270.25</ele>
        <time>2018-08-25T09:08:24Z</time>
      </trkpt>
      <trkpt lat="44.64114" lon="6.66203">
        <ele>1276.85</ele>
        <time>2018-08-25T09:08:26Z</time>
      </trkpt>
      <trkpt lat="44.64095" lon="6.66217">
        <ele>1279.89</ele>
        <time>2018-08-25T09:08:28Z</time>
      </trkpt>
      <trkpt lat="44.64098" lon="6.66251">
        <ele>1283.17</ele>
        <time>2018-08-25T09:08:30Z</time>
      </trkpt>
      <trkpt lat="44.64119" lon="6.6628">
        <ele>1285.01</ele>
        <time>2018-08-25T09:08:32Z</time>
      </trkpt>
      <trkpt lat="44.64139" lon="6.66283">
        <ele>1283.9</ele>
        <time>2018-08-25T09:08:33Z</time>
      </trkpt>
      <trkpt lat="44.64173" lon="6.66274">
        <ele>1287.76</ele>
        <time>2018-08-25T09:08:34Z</time>
      </trkpt>
      <trkpt lat="44.64192" lon="6.66275">
        <ele>1290.32</ele>
        <time>2018-08-25T09:08:35Z</time>
      </trkpt>
      <trkpt lat="44.64213" lon="6.66268">
        <ele>1291.79</ele>
        <time>2018-08-25T09:08:36Z</time>
      </trkpt>
      <trkpt lat="44.64233" lon="6.66261">
        <ele>1292.93</ele>
        <time>2018-08-25T09:08:37Z</time>
      </trkpt>
      <trkpt lat="44.6427" lon="6.66253">
        <ele>1301.85</ele>
        <time>2018-08-25T09:08:39Z</time>
      </trkpt>
      <trkpt lat="44.64288" lon="6.66247">
        <ele>1305.05</ele>
        <time>2018-08-25T09:08:40Z</time>
      </trkpt>
      <trkpt lat="44.64317" lon="6.66244">
        <ele>1308.82</ele>
        <time>2018-08-25T09:08:42Z</time>
      </trkpt>
      <trkpt lat="44.64338" lon="6.66248">
        <ele>1310.98</ele>
        <time>2018-08-25T09:08:44Z</time>
      </trkpt>
      <trkpt lat="44.64336" lon="6.66279">
        <ele>1310.89</ele>
        <time>2018-08-25T09:08:46Z</time>
      </trkpt>
      <trkpt lat="44.64316" lon="6.66297">
        <ele>1309.86</ele>
        <time>2018-08-25T09:08:47Z</time>
      </trkpt>
      <trkpt lat="44.64279" lon="6.66314">
        <ele>1310.37</ele>
        <time>2018-08-25T09:08:49Z</time>
      </trkpt>
      <trkpt lat="44.6426" lon="6.66321">
        <ele>1312.51</ele>
        <time>2018-08-25T09:08:50Z</time>
      </trkpt>
      <trkpt lat="44.64227" lon="6.66332">
        <ele>1318.17</ele>
        <time>2018-08-25T09:08:52Z</time>
      </trkpt>
      <trkpt lat="44.64209" lon="6.6633">
        <ele>1321.85</ele>
        <time>2018-08-25T09:08:53Z</time>
      </trkpt>
      <trkpt lat="44.6418" lon="6.66338">
        <ele>1327.41</ele>
        <time>2018-08-25T09:08:55Z</time>
      </trkpt>
      <trkpt lat="44.64152" lon="6.66355">
        <ele>1329.24</ele>
        <time>2018-08-25T09:08:57Z</time>
      </trkpt>
      <trkpt lat="44.64136" lon="6.66401">
        <ele>1331.5</ele>
        <time>2018-08-25T09:08:59Z</time>
      </trkpt>
      <trkpt lat="44.64129" lon="6.66426">
        <ele>1332.85</ele>
        <time>2018-08-25T09:09:00Z</time>
      </trkpt>
      <trkpt lat="44.64119" lon="6.66454">
        <ele>1334.65</ele>
        <time>2018-08-25T09:09:01Z</time>
      </trkpt>
      <trkpt lat="44.64113" lon="6.66485">
        <ele>1335.89</ele>
        <time>2018-08-25T09:09:02Z</time>
      </trkpt>
      <trkpt lat="44.64102" lon="6.66507">
        <ele>1339.06</ele>
        <time>2018-08-25T09:09:03Z</time>
      </trkpt>
      <trkpt lat="44.6409" lon="6.66528">
        <ele>1340.71</ele>
        <time>2018-08-25T09:09:04Z</time>
      </trkpt>
      <trkpt lat="44.64077" lon="6.66549">
        <ele>1341.91</ele>
        <time>2018-08-25T09:09:05Z</time>
      </trkpt>
      <trkpt lat="44.64057" lon="6.66566">
        <ele>1344.37</ele>
        <time>2018-08-25T09:09:06Z</time>
      </trkpt>
      <trkpt lat="44.64039" lon="6.66579">
        <ele>1345.8</ele>
        <time>2018-08-25T09:09:07Z</time>
      </trkpt>
      <trkpt lat="44.64005" lon="6.66584">
        <ele>1348.89</ele>
        <time>2018-08-25T09:09:09Z</time>
      </trkpt>
      <trkpt lat="44.63973" lon="6.66578">
        <ele>1351.68</ele>
        <time>2018-08-25T09:09:11Z</time>
      </trkpt>
      <trkpt lat="44.63948" lon="6.66561">
        <ele>1357.18</ele>
        <time>2018-08-25T09:09:13Z</time>
      </trkpt>
      <trkpt lat="44.63913" lon="6.66563">
        <ele>1361.53</ele>
        <time>2018-08-25T09:09:15Z</time>
      </trkpt>
      <trkpt lat="44.63893" lon="6.66565">
        <ele>1364.25</ele>
        <time>2018-08-25T09:09:16Z</time>
      </trkpt>
      <trkpt lat="44.63871" lon="6.66568">
        <ele>1367.17</ele>
        <time>2018-08-25T09:09:17Z</time>
      </trkpt>
      <trkpt lat="44.6385" lon="6.66571">
        <ele>1370.85</ele>
        <time>2018-08-25T09:09:18Z</time>
      </trkpt>
      <trkpt lat="44.63829" lon="6.66574">
        <ele>1373.35</ele>
        <time>2018-08-25T09:09:19Z</time>
      </trkpt>
      <trkpt lat="44.63809" lon="6.66572">
        <ele>1374.8</ele>
        <time>2018-08-25T09:09:20Z</time>
      </trkpt>
      <trkpt lat="44.6379" lon="6.6657">
        <ele>1378.03</ele>
        <time>2018-08-25T09:09:21Z</time>
      </trkpt>
      <trkpt lat="44.63772" lon="6.66569">
        <ele>1381.11</ele>
        <time>2018-08-25T09:09:22Z</time>
      </trkpt>
      <trkpt lat="44.6374" lon="6.6657">
        <ele>1384.82</ele>
        <time>2018-08-25T09:09:24Z</time>
      </trkpt>
      <trkpt lat="44.63717" lon="6.66577">
        <ele>1387.19</ele>
        <time>2018-08-25T09:09:26Z</time>
      </trkpt>
      <trkpt lat="44.63719" lon="6.66603">
        <ele>1389.01</ele>
        <time>2018-08-25T09:09:28Z</time>
      </trkpt>
      <trkpt lat="44.63738" lon="6.66631">
        <ele>1388.68</ele>
        <time>2018-08-25T09:09:30Z</time>
      </trkpt>
      <trkpt lat="44.63756" lon="6.66633">
        <ele>1389.9</ele>
        <time>2018-08-25T09:09:31Z</time>
      </trkpt>
      <trkpt lat="44.63795" lon="6.66626">
        <ele>1391.77</ele>
        <time>2018-08-25T09:09:33Z</time>
      </trkpt>
      <trkpt lat="44.63816" lon="6.66628">
        <ele>1394.33</ele>
        <time>2018-08-25T09:09:34Z</time>
      </trkpt>
      <trkpt lat="44.63835" lon="6.66634">
        <ele>1396.49</ele>
        <time>2018-08-25T09:09:35Z</time>
      </trkpt>
      <trkpt lat="44.63852" lon="6.66641">
        <ele>1397.84</ele>
        <time>2018-08-25T09:09:36Z</time>
      </trkpt>
      <trkpt lat="44.63872" lon="6.66651">
        <ele>1398.95</ele>
        <time>2018-08-25T09:09:37Z</time>
      </trkpt>
      <trkpt lat="44.6389" lon="6.66659">
        <ele>1400.68</ele>
        <time>2018-08-25T09:09:38Z</time>
      </trkpt>
      <trkpt lat="44.63909" lon="6.66668">
        <ele>1404</ele>
        <time>2018-08-25T09:09:39Z</time>
      </trkpt>
      <trkpt lat="44.63926" lon="6.66677">
        <ele>1407.09</ele>
        <time>2018-08-25T09:09:40Z</time>
      </trkpt>
      <trkpt lat="44.63959" lon="6.66692">
        <ele>1411.73</ele>
        <time>2018-08-25T09:09:42Z</time>
      </trkpt>
      <trkpt lat="44.63986" lon="6.66704">
        <ele>1415.79</ele>
        <time>2018-08-25T09:09:44Z</time>
      </trkpt>
      <trkpt lat="44.64007" lon="6.66728">
        <ele>1417.27</ele>
        <time>2018-08-25T09:09:46Z</time>
      </trkpt>
      <trkpt lat="44.64016" lon="6.66752">
        <ele>1419.02</ele>
        <time>2018-08-25T09:09:48Z</time>
      </trkpt>
      <trkpt lat="44.63993" lon="6.66756">
        <ele>1421.69</ele>
        <time>2018-08-25T09:09:50Z</time>
      </trkpt>
      <trkpt lat="44.63971" lon="6.66743">
        <ele>1421.5</ele>
        <time>2018-08-25T09:09:51Z</time>
      </trkpt>
      <trkpt lat="44.63925" lon="6.66744">
        <ele>1420.05</ele>
        <time>2018-08-25T09:09:52Z</time>
      </trkpt>
      <trkpt lat="44.63903" lon="6.66738">
        <ele>1423.11</ele>
        <time>2018-08-25T09:09:53Z</time>
      </trkpt>
      <trkpt lat="44.63884" lon="6.66735">
        <ele>1426.13</ele>
        <time>2018-08-25T09:09:54Z</time>
      </trkpt>
      <trkpt lat="44.63864" lon="6.66739">
        <ele>1427.73</ele>
        <time>2018-08-25T09:09:55Z</time>
      </trkpt>
      <trkpt lat="44.63837" lon="6.66779">
        <ele>1430.67</ele>
        <time>2018-08-25T09:09:57Z</time>
      </trkpt>
      <trkpt lat="44.63819" lon="6.66793">
        <ele>1433.3</ele>
        <time>2018-08-25T09:09:58Z</time>
      </trkpt>
      <trkpt lat="44.63802" lon="6.66809">
        <ele>1434.78</ele>
        <time>2018-08-25T09:09:59Z</time>
      </trkpt>
      <trkpt lat="44.63778" lon="6.6682">
        <ele>1436.63</ele>
        <time>2018-08-25T09:10:00Z</time>
      </trkpt>
      <trkpt lat="44.63751" lon="6.66833">
        <ele>1439.28</ele>
        <time>2018-08-25T09:10:01Z</time>
      </trkpt>
      <trkpt lat="44.63727" lon="6.66844">
        <ele>1441.48</ele>
        <time>2018-08-25T09:10:02Z</time>
      </trkpt>
      <trkpt lat="44.63703" lon="6.66851">
        <ele>1443.54</ele>
        <time>2018-08-25T09:10:03Z</time>
      </trkpt>
      <trkpt lat="44.63678" lon="6.66852">
        <ele>1444.16</ele>
        <time>2018-08-25T09:10:04Z</time>
      </trkpt>
      <trkpt lat="44.63655" lon="6.6685">
        <ele>1445.74</ele>
        <time>2018-08-25T09:10:05Z</time>
      </trkpt>
      <trkpt lat="44.63627" lon="6.66838">
        <ele>1450.91</ele>
        <time>2018-08-25T09:10:07Z</time>
      </trkpt>
      <trkpt lat="44.63602" lon="6.66838">
        <ele>1451.38</ele>
        <time>2018-08-25T09:10:09Z</time>
      </trkpt>
      <trkpt lat="44.63593" lon="6.66864">
        <ele>1450.51</ele>
        <time>2018-08-25T09:10:11Z</time>
      </trkpt>
      <trkpt lat="44.63602" lon="6.66889">
        <ele>1451.15</ele>
        <time>2018-08-25T09:10:12Z</time>
      </trkpt>
      <trkpt lat="44.63629" lon="6.66914">
        <ele>1451.4</ele>
        <time>2018-08-25T09:10:14Z</time>
      </trkpt>
      <trkpt lat="44.63655" lon="6.66928">
        <ele>1451.41</ele>
        <time>2018-08-25T09:10:15Z</time>
      </trkpt>
      <trkpt lat="44.63689" lon="6.66935">
        <ele>1454.22</ele>
        <time>2018-08-25T09:10:16Z</time>
      </trkpt>
      <trkpt lat="44.63711" lon="6.66936">
        <ele>1457.16</ele>
        <time>2018-08-25T09:10:17Z</time>
      </trkpt>
      <trkpt lat="44.63746" lon="6.66934">
        <ele>1460.83</ele>
        <time>2018-08-25T09:10:19Z</time>
      </trkpt>
      <trkpt lat="44.63764" lon="6.66935">
        <ele>1461.94</ele>
        <time>2018-08-25T09:10:20Z</time>
      </trkpt>
      <trkpt lat="44.6379" lon="6.66947">
        <ele>1463.08</ele>
        <time>2018-08-25T09:10:22Z</time>
      </trkpt>
      <trkpt lat="44.63792" lon="6.66976">
        <ele>1464.51</ele>
        <time>2018-08-25T09:10:24Z</time>
      </trkpt>
      <trkpt lat="44.63768" lon="6.67001">
        <ele>1465.15</ele>
        <time>2018-08-25T09:10:25Z</time>
      </trkpt>
      <trkpt lat="44.63737" lon="6.67022">
        <ele>1465.4</ele>
        <time>2018-08-25T09:10:27Z</time>
      </trkpt>
      <trkpt lat="44.63687" lon="6.67005">
        <ele>1464.71</ele>
        <time>2018-08-25T09:10:28Z</time>
      </trkpt>
      <trkpt lat="44.63656" lon="6.66997">
        <ele>1467.31</ele>
        <time>2018-08-25T09:10:29Z</time>
      </trkpt>
      <trkpt lat="44.63631" lon="6.66994">
        <ele>1470.89</ele>
        <time>2018-08-25T09:10:30Z</time>
      </trkpt>
      <trkpt lat="44.63608" lon="6.6699">
        <ele>1473.36</ele>
        <time>2018-08-25T09:10:31Z</time>
      </trkpt>
      <trkpt lat="44.63587" lon="6.66984">
        <ele>1476.2</ele>
        <time>2018-08-25T09:10:32Z</time>
      </trkpt>
      <trkpt lat="44.63566" lon="6.66975">
        <ele>1479.16</ele>
        <time>2018-08-25T09:10:33Z</time>
      </trkpt>
      <trkpt lat="44.63545" lon="6.66968">
        <ele>1480.74</ele>
        <time>2018-08-25T09:10:34Z</time>
      </trkpt>
      <trkpt lat="44.63526" lon="6.66962">
        <ele>1481.92</ele>
        <time>2018-08-25T09:10:35Z</time>
      </trkpt>
      <trkpt lat="44.63493" lon="6.66959">
        <ele>1483.99</ele>
        <time>2018-08-25T09:10:37Z</time>
      </trkpt>
      <trkpt lat="44.63463" lon="6.6699">
        <ele>1490.33</ele>
        <time>2018-08-25T09:10:39Z</time>
      </trkpt>
      <trkpt lat="44.63446" lon="6.67006">
        <ele>1491.09</ele>
        <time>2018-08-25T09:10:40Z</time>
      </trkpt>
      <trkpt lat="44.63426" lon="6.67022">
        <ele>1493.42</ele>
        <time>2018-08-25T09:10:41Z</time>
      </trkpt>
      <trkpt lat="44.63405" lon="6.67038">
        <ele>1495.52</ele>
        <time>2018-08-25T09:10:42Z</time>
      </trkpt>
      <trkpt lat="44.63384" lon="6.67054">
        <ele>1496.85</ele>
        <time>2018-08-25T09:10:43Z</time>
      </trkpt>
      <trkpt lat="44.63364" lon="6.67068">
        <ele>1499.35</ele>
        <time>2018-08-25T09:10:44Z</time>
      </trkpt>
      <trkpt lat="44.63347" lon="6.67082">
        <ele>1502.2</ele>
        <time>2018-08-25T09:10:45Z</time>
      </trkpt>
      <trkpt lat="44.63319" lon="6.67107">
        <ele>1507.23</ele>
        <time>2018-08-25T09:10:47Z</time>
      </trkpt>
      <trkpt lat="44.63304" lon="6.67143">
        <ele>1509.92</ele>
        <time>2018-08-25T09:10:49Z</time>
      </trkpt>
      <trkpt lat="44.63296" lon="6.67178">
        <ele>1511.29</ele>
        <time>2018-08-25T09:10:51Z</time>
      </trkpt>
      <trkpt lat="44.63301" lon="6.67215">
        <ele>1507.98</ele>
        <time>2018-08-25T09:10:53Z</time>
      </trkpt>
      <trkpt lat="44.63331" lon="6.67239">
        <ele>1508.17</ele>
        <time>2018-08-25T09:10:55Z</time>
      </trkpt>
      <trkpt lat="44.63351" lon="6.67242">
        <ele>1509.05</ele>
        <time>2018-08-25T09:10:56Z</time>
      </trkpt>
      <trkpt lat="44.63376" lon="6.67252">
        <ele>1512.11</ele>
        <time>2018-08-25T09:10:57Z</time>
      </trkpt>
      <trkpt lat="44.63396" lon="6.67266">
        <ele>1513.03</ele>
        <time>2018-08-25T09:10:58Z</time>
      </trkpt>
      <trkpt lat="44.63412" lon="6.67281">
        <ele>1514</ele>
        <time>2018-08-25T09:10:59Z</time>
      </trkpt>
      <trkpt lat="44.63429" lon="6.67299">
        <ele>1515.7</ele>
        <time>2018-08-25T09:11:00Z</time>
      </trkpt>
      <trkpt lat="44.63444" lon="6.67317">
        <ele>1516.2</ele>
        <time>2018-08-25T09:11:01Z</time>
      </trkpt>
      <trkpt lat="44.63456" lon="6.6734">
        <ele>1517.06</ele>
        <time>2018-08-25T09:11:02Z</time>
      </trkpt>
      <trkpt lat="44.63465" lon="6.67367">
        <ele>1518.01</ele>
        <time>2018-08-25T09:11:03Z</time>
      </trkpt>
      <trkpt lat="44.63472" lon="6.67393">
        <ele>1519</ele>
        <time>2018-08-25T09:11:04Z</time>
      </trkpt>
      <trkpt lat="44.63476" lon="6.6742">
        <ele>1520.69</ele>
        <time>2018-08-25T09:11:05Z</time>
      </trkpt>
      <trkpt lat="44.63467" lon="6.67445">
        <ele>1522.6</ele>
        <time>2018-08-25T09:11:06Z</time>
      </trkpt>
      <trkpt lat="44.63464" lon="6.67473">
        <ele>1524.58</ele>
        <time>2018-08-25T09:11:07Z</time>
      </trkpt>
      <trkpt lat="44.63454" lon="6.67496">
        <ele>1527.27</ele>
        <time>2018-08-25T09:11:08Z</time>
      </trkpt>
      <trkpt lat="44.63443" lon="6.67517">
        <ele>1530.17</ele>
        <time>2018-08-25T09:11:09Z</time>
      </trkpt>
      <trkpt lat="44.63428" lon="6.67537">
        <ele>1532.45</ele>
        <time>2018-08-25T09:11:10Z</time>
      </trkpt>
      <trkpt lat="44.63414" lon="6.67557">
        <ele>1535.23</ele>
        <time>2018-08-25T09:11:11Z</time>
      </trkpt>
      <trkpt lat="44.63399" lon="6.67578">
        <ele>1537.46</ele>
        <time>2018-08-25T09:11:12Z</time>
      </trkpt>
      <trkpt lat="44.63385" lon="6.67599">
        <ele>1538.83</ele>
        <time>2018-08-25T09:11:13Z</time>
      </trkpt>
      <trkpt lat="44.6337" lon="6.6762">
        <ele>1540.64</ele>
        <time>2018-08-25T09:11:14Z</time>
      </trkpt>
      <trkpt lat="44.63356" lon="6.6764">
        <ele>1542.59</ele>
        <time>2018-08-25T09:11:15Z</time>
      </trkpt>
      <trkpt lat="44.6334" lon="6.67658">
        <ele>1543.17</ele>
        <time>2018-08-25T09:11:16Z</time>
      </trkpt>
      <trkpt lat="44.63324" lon="6.67674">
        <ele>1544.75</ele>
        <time>2018-08-25T09:11:17Z</time>
      </trkpt>
      <trkpt lat="44.63307" lon="6.67687">
        <ele>1545.22</ele>
        <time>2018-08-25T09:11:18Z</time>
      </trkpt>
      <trkpt lat="44.63285" lon="6.67697">
        <ele>1545.36</ele>
        <time>2018-08-25T09:11:19Z</time>
      </trkpt>
      <trkpt lat="44.63267" lon="6.67704">
        <ele>1546.1</ele>
        <time>2018-08-25T09:11:20Z</time>
      </trkpt>
      <trkpt lat="44.63248" lon="6.67691">
        <ele>1547.73</ele>
        <time>2018-08-25T09:11:21Z</time>
      </trkpt>
      <trkpt lat="44.63225" lon="6.67675">
        <ele>1548.21</ele>
        <time>2018-08-25T09:11:22Z</time>
      </trkpt>
      <trkpt lat="44.63207" lon="6.6767">
        <ele>1549.06</ele>
        <time>2018-08-25T09:11:23Z</time>
      </trkpt>
      <trkpt lat="44.63173" lon="6.67674">
        <ele>1553.52</ele>
        <time>2018-08-25T09:11:25Z</time>
      </trkpt>
      <trkpt lat="44.63141" lon="6.67696">
        <ele>1557.56</ele>
        <time>2018-08-25T09:11:27Z</time>
      </trkpt>
      <trkpt lat="44.63132" lon="6.67723">
        <ele>1560.96</ele>
        <time>2018-08-25T09:11:28Z</time>
      </trkpt>
      <trkpt lat="44.63108" lon="6.6775">
        <ele>1566.42</ele>
        <time>2018-08-25T09:11:30Z</time>
      </trkpt>
      <trkpt lat="44.6309" lon="6.67743">
        <ele>1567.82</ele>
        <time>2018-08-25T09:11:31Z</time>
      </trkpt>
      <trkpt lat="44.63057" lon="6.67761">
        <ele>1571.59</ele>
        <time>2018-08-25T09:11:33Z</time>
      </trkpt>
      <trkpt lat="44.63038" lon="6.67774">
        <ele>1572.17</ele>
        <time>2018-08-25T09:11:34Z</time>
      </trkpt>
      <trkpt lat="44.6302" lon="6.67792">
        <ele>1573.05</ele>
        <time>2018-08-25T09:11:35Z</time>
      </trkpt>
      <trkpt lat="44.63002" lon="6.67809">
        <ele>1574.01</ele>
        <time>2018-08-25T09:11:36Z</time>
      </trkpt>
      <trkpt lat="44.62986" lon="6.6783">
        <ele>1577.8</ele>
        <time>2018-08-25T09:11:37Z</time>
      </trkpt>
      <trkpt lat="44.62968" lon="6.67849">
        <ele>1580.33</ele>
        <time>2018-08-25T09:11:38Z</time>
      </trkpt>
      <trkpt lat="44.62952" lon="6.67868">
        <ele>1583.19</ele>
        <time>2018-08-25T09:11:39Z</time>
      </trkpt>
      <trkpt lat="44.62926" lon="6.67899">
        <ele>1587.74</ele>
        <time>2018-08-25T09:11:41Z</time>
      </trkpt>
      <trkpt lat="44.62914" lon="6.67946">
        <ele>1591.79</ele>
        <time>2018-08-25T09:11:43Z</time>
      </trkpt>
      <trkpt lat="44.62902" lon="6.67966">
        <ele>1594.33</ele>
        <time>2018-08-25T09:11:44Z</time>
      </trkpt>
      <trkpt lat="44.6289" lon="6.67989">
        <ele>1595.79</ele>
        <time>2018-08-25T09:11:45Z</time>
      </trkpt>
      <trkpt lat="44.62878" lon="6.68012">
        <ele>1596.93</ele>
        <time>2018-08-25T09:11:46Z</time>
      </trkpt>
      <trkpt lat="44.62864" lon="6.68034">
        <ele>1597.97</ele>
        <time>2018-08-25T09:11:47Z</time>
      </trkpt>
      <trkpt lat="44.62847" lon="6.68051">
        <ele>1600.39</ele>
        <time>2018-08-25T09:11:48Z</time>
      </trkpt>
      <trkpt lat="44.62831" lon="6.6807">
        <ele>1603.21</ele>
        <time>2018-08-25T09:11:49Z</time>
      </trkpt>
      <trkpt lat="44.62815" lon="6.68086">
        <ele>1605.46</ele>
        <time>2018-08-25T09:11:50Z</time>
      </trkpt>
      <trkpt lat="44.62799" lon="6.68098">
        <ele>1607.53</ele>
        <time>2018-08-25T09:11:51Z</time>
      </trkpt>
      <trkpt lat="44.6277" lon="6.6812">
        <ele>1609.25</ele>
        <time>2018-08-25T09:11:53Z</time>
      </trkpt>
      <trkpt lat="44.62738" lon="6.68115">
        <ele>1609.41</ele>
        <time>2018-08-25T09:11:55Z</time>
      </trkpt>
      <trkpt lat="44.62725" lon="6.68088">
        <ele>1608.02</ele>
        <time>2018-08-25T09:11:56Z</time>
      </trkpt>
      <trkpt lat="44.62713" lon="6.68038">
        <ele>1606.77</ele>
        <time>2018-08-25T09:11:58Z</time>
      </trkpt>
      <trkpt lat="44.62693" lon="6.68014">
        <ele>1607.36</ele>
        <time>2018-08-25T09:12:00Z</time>
      </trkpt>
      <trkpt lat="44.6266" lon="6.67996">
        <ele>1607.84</ele>
        <time>2018-08-25T09:12:03Z</time>
      </trkpt>
      <trkpt lat="44.62626" lon="6.68012">
        <ele>1610.26</ele>
        <time>2018-08-25T09:12:05Z</time>
      </trkpt>
      <trkpt lat="44.62592" lon="6.68031">
        <ele>1614.54</ele>
        <time>2018-08-25T09:12:07Z</time>
      </trkpt>
      <trkpt lat="44.62575" lon="6.68042">
        <ele>1615.86</ele>
        <time>2018-08-25T09:12:08Z</time>
      </trkpt>
      <trkpt lat="44.62551" lon="6.68067">
        <ele>1617.28</ele>
        <time>2018-08-25T09:12:10Z</time>
      </trkpt>
      <trkpt lat="44.6254" lon="6.681">
        <ele>1617.62</ele>
        <time>2018-08-25T09:12:12Z</time>
      </trkpt>
      <trkpt lat="44.62547" lon="6.68147">
        <ele>1618.14</ele>
        <time>2018-08-25T09:12:14Z</time>
      </trkpt>
      <trkpt lat="44.62546" lon="6.68192">
        <ele>1620.01</ele>
        <time>2018-08-25T09:12:16Z</time>
      </trkpt>
      <trkpt lat="44.62525" lon="6.68236">
        <ele>1622.9</ele>
        <time>2018-08-25T09:12:18Z</time>
      </trkpt>
      <trkpt lat="44.62514" lon="6.6826">
        <ele>1622.57</ele>
        <time>2018-08-25T09:12:19Z</time>
      </trkpt>
      <trkpt lat="44.62502" lon="6.68281">
        <ele>1623.16</ele>
        <time>2018-08-25T09:12:20Z</time>
      </trkpt>
      <trkpt lat="44.62489" lon="6.683">
        <ele>1623.34</ele>
        <time>2018-08-25T09:12:21Z</time>
      </trkpt>
      <trkpt lat="44.62465" lon="6.68331">
        <ele>1624.11</ele>
        <time>2018-08-25T09:12:23Z</time>
      </trkpt>
      <trkpt lat="44.62437" lon="6.68339">
        <ele>1624.18</ele>
        <time>2018-08-25T09:12:25Z</time>
      </trkpt>
      <trkpt lat="44.6241" lon="6.68332">
        <ele>1624.4</ele>
        <time>2018-08-25T09:12:27Z</time>
      </trkpt>
      <trkpt lat="44.62384" lon="6.68322">
        <ele>1625.33</ele>
        <time>2018-08-25T09:12:29Z</time>
      </trkpt>
      <trkpt lat="44.62347" lon="6.68319">
        <ele>1627.02</ele>
        <time>2018-08-25T09:12:31Z</time>
      </trkpt>
      <trkpt lat="44.62328" lon="6.68316">
        <ele>1628.7</ele>
        <time>2018-08-25T09:12:32Z</time>
      </trkpt>
      <trkpt lat="44.62308" lon="6.68313">
        <ele>1629.21</ele>
        <time>2018-08-25T09:12:33Z</time>
      </trkpt>
      <trkpt lat="44.62287" lon="6.6831">
        <ele>1629.36</ele>
        <time>2018-08-25T09:12:34Z</time>
      </trkpt>
      <trkpt lat="44.62266" lon="6.68308">
        <ele>1629.4</ele>
        <time>2018-08-25T09:12:35Z</time>
      </trkpt>
      <trkpt lat="44.62246" lon="6.68305">
        <ele>1630.12</ele>
        <time>2018-08-25T09:12:36Z</time>
      </trkpt>
      <trkpt lat="44.62228" lon="6.68301">
        <ele>1631.73</ele>
        <time>2018-08-25T09:12:37Z</time>
      </trkpt>
      <trkpt lat="44.62198" lon="6.68293">
        <ele>1633.76</ele>
        <time>2018-08-25T09:12:39Z</time>
      </trkpt>
      <trkpt lat="44.62175" lon="6.68297">
        <ele>1635.97</ele>
        <time>2018-08-25T09:12:41Z</time>
      </trkpt>
      <trkpt lat="44.62153" lon="6.68317">
        <ele>1638.2</ele>
        <time>2018-08-25T09:12:43Z</time>
      </trkpt>
      <trkpt lat="44.62135" lon="6.68359">
        <ele>1640.71</ele>
        <time>2018-08-25T09:12:45Z</time>
      </trkpt>
      <trkpt lat="44.62124" lon="6.6838">
        <ele>1641.91</ele>
        <time>2018-08-25T09:12:46Z</time>
      </trkpt>
      <trkpt lat="44.6211" lon="6.68396">
        <ele>1643.67</ele>
        <time>2018-08-25T09:12:47Z</time>
      </trkpt>
      <trkpt lat="44.62081" lon="6.68417">
        <ele>1645.96</ele>
        <time>2018-08-25T09:12:49Z</time>
      </trkpt>
      <trkpt lat="44.62046" lon="6.68419">
        <ele>1645.68</ele>
        <time>2018-08-25T09:12:51Z</time>
      </trkpt>
      <trkpt lat="44.6201" lon="6.68393">
        <ele>1646.14</ele>
        <time>2018-08-25T09:12:53Z</time>
      </trkpt>
      <trkpt lat="44.6199" lon="6.6838">
        <ele>1647.04</ele>
        <time>2018-08-25T09:12:54Z</time>
      </trkpt>
      <trkpt lat="44.61973" lon="6.68371">
        <ele>1648.01</ele>
        <time>2018-08-25T09:12:55Z</time>
      </trkpt>
      <trkpt lat="44.61941" lon="6.68361">
        <ele>1648.38</ele>
        <time>2018-08-25T09:12:57Z</time>
      </trkpt>
      <trkpt lat="44.61922" lon="6.6836">
        <ele>1649.81</ele>
        <time>2018-08-25T09:12:58Z</time>
      </trkpt>
      <trkpt lat="44.61908" lon="6.68381">
        <ele>1650.94</ele>
        <time>2018-08-25T09:12:59Z</time>
      </trkpt>
      <trkpt lat="44.61889" lon="6.6839">
        <ele>1651.28</ele>
        <time>2018-08-25T09:13:00Z</time>
      </trkpt>
      <trkpt lat="44.61869" lon="6.68386">
        <ele>1653.48</ele>
        <time>2018-08-25T09:13:01Z</time>
      </trkpt>
      <trkpt lat="44.61849" lon="6.68388">
        <ele>1654.84</ele>
        <time>2018-08-25T09:13:02Z</time>
      </trkpt>
      <trkpt lat="44.61829" lon="6.68397">
        <ele>1655.95</ele>
        <time>2018-08-25T09:13:03Z</time>
      </trkpt>
      <trkpt lat="44.6181" lon="6.68408">
        <ele>1656.98</ele>
        <time>2018-08-25T09:13:04Z</time>
      </trkpt>
      <trkpt lat="44.61792" lon="6.68423">
        <ele>1657.99</ele>
        <time>2018-08-25T09:13:05Z</time>
      </trkpt>
      <trkpt lat="44.61775" lon="6.68439">
        <ele>1658.99</ele>
        <time>2018-08-25T09:13:06Z</time>
      </trkpt>
      <trkpt lat="44.61758" lon="6.68457">
        <ele>1659.99</ele>
        <time>2018-08-25T09:13:07Z</time>
      </trkpt>
      <trkpt lat="44.6174" lon="6.68475">
        <ele>1660.29</ele>
        <time>2018-08-25T09:13:08Z</time>
      </trkpt>
      <trkpt lat="44.61722" lon="6.68491">
        <ele>1660.38</ele>
        <time>2018-08-25T09:13:09Z</time>
      </trkpt>
      <trkpt lat="44.61705" lon="6.68506">
        <ele>1659.71</ele>
        <time>2018-08-25T09:13:10Z</time>
      </trkpt>
      <trkpt lat="44.61686" lon="6.68518">
        <ele>1659.51</ele>
        <time>2018-08-25T09:13:11Z</time>
      </trkpt>
      <trkpt lat="44.61667" lon="6.68524">
        <ele>1659.45</ele>
        <time>2018-08-25T09:13:12Z</time>
      </trkpt>
      <trkpt lat="44.6165" lon="6.68529">
        <ele>1658.73</ele>
        <time>2018-08-25T09:13:13Z</time>
      </trkpt>
      <trkpt lat="44.6162" lon="6.68543">
        <ele>1657.75</ele>
        <time>2018-08-25T09:13:15Z</time>
      </trkpt>
      <trkpt lat="44.61588" lon="6.68564">
        <ele>1657.45</ele>
        <time>2018-08-25T09:13:17Z</time>
      </trkpt>
      <trkpt lat="44.6157" lon="6.68569">
        <ele>1657.43</ele>
        <time>2018-08-25T09:13:18Z</time>
      </trkpt>
      <trkpt lat="44.6155" lon="6.68572">
        <ele>1656.72</ele>
        <time>2018-08-25T09:13:19Z</time>
      </trkpt>
      <trkpt lat="44.6153" lon="6.68571">
        <ele>1655.81</ele>
        <time>2018-08-25T09:13:20Z</time>
      </trkpt>
      <trkpt lat="44.61511" lon="6.68567">
        <ele>1654.14</ele>
        <time>2018-08-25T09:13:21Z</time>
      </trkpt>
      <trkpt lat="44.61491" lon="6.68563">
        <ele>1653.64</ele>
        <time>2018-08-25T09:13:22Z</time>
      </trkpt>
      <trkpt lat="44.6147" lon="6.68561">
        <ele>1652.79</ele>
        <time>2018-08-25T09:13:23Z</time>
      </trkpt>
      <trkpt lat="44.61449" lon="6.68567">
        <ele>1652.53</ele>
        <time>2018-08-25T09:13:24Z</time>
      </trkpt>
      <trkpt lat="44.61429" lon="6.68574">
        <ele>1650.35</ele>
        <time>2018-08-25T09:13:25Z</time>
      </trkpt>
      <trkpt lat="44.61408" lon="6.68581">
        <ele>1649</ele>
        <time>2018-08-25T09:13:26Z</time>
      </trkpt>
      <trkpt lat="44.61391" lon="6.68591">
        <ele>1647.19</ele>
        <time>2018-08-25T09:13:27Z</time>
      </trkpt>
      <trkpt lat="44.61374" lon="6.68604">
        <ele>1645.95</ele>
        <time>2018-08-25T09:13:28Z</time>
      </trkpt>
      <trkpt lat="44.6135" lon="6.68643">
        <ele>1642.95</ele>
        <time>2018-08-25T09:13:30Z</time>
      </trkpt>
      <trkpt lat="44.61337" lon="6.68662">
        <ele>1642.58</ele>
        <time>2018-08-25T09:13:31Z</time>
      </trkpt>
      <trkpt lat="44.61311" lon="6.68695">
        <ele>1642.44</ele>
        <time>2018-08-25T09:13:33Z</time>
      </trkpt>
      <trkpt lat="44.61291" lon="6.68693">
        <ele>1642.43</ele>
        <time>2018-08-25T09:13:34Z</time>
      </trkpt>
      <trkpt lat="44.61259" lon="6.68698">
        <ele>1642.42</ele>
        <time>2018-08-25T09:13:36Z</time>
      </trkpt>
      <trkpt lat="44.6123" lon="6.68704">
        <ele>1642.21</ele>
        <time>2018-08-25T09:13:38Z</time>
      </trkpt>
      <trkpt lat="44.61204" lon="6.68714">
        <ele>1642.4</ele>
        <time>2018-08-25T09:13:40Z</time>
      </trkpt>
      <trkpt lat="44.61181" lon="6.68724">
        <ele>1643.82</ele>
        <time>2018-08-25T09:13:42Z</time>
      </trkpt>
      <trkpt lat="44.61161" lon="6.68734">
        <ele>1644.37</ele>
        <time>2018-08-25T09:13:44Z</time>
      </trkpt>
      <trkpt lat="44.6114" lon="6.68742">
        <ele>1645.12</ele>
        <time>2018-08-25T09:13:46Z</time>
      </trkpt>
      <trkpt lat="44.61122" lon="6.6875">
        <ele>1643.78</ele>
        <time>2018-08-25T09:13:48Z</time>
      </trkpt>
      <trkpt lat="44.61102" lon="6.6876">
        <ele>1644.15</ele>
        <time>2018-08-25T09:13:50Z</time>
      </trkpt>
      <trkpt lat="44.61082" lon="6.6877">
        <ele>1645.31</ele>
        <time>2018-08-25T09:13:52Z</time>
      </trkpt>
      <trkpt lat="44.61061" lon="6.68781">
        <ele>1645.41</ele>
        <time>2018-08-25T09:13:54Z</time>
      </trkpt>
      <trkpt lat="44.6104" lon="6.6879">
        <ele>1647.03</ele>
        <time>2018-08-25T09:13:56Z</time>
      </trkpt>
      <trkpt lat="44.6102" lon="6.68793">
        <ele>1647.39</ele>
        <time>2018-08-25T09:13:58Z</time>
      </trkpt>
      <trkpt lat="44.61003" lon="6.68801">
        <ele>1646.72</ele>
        <time>2018-08-25T09:14:00Z</time>
      </trkpt>
      <trkpt lat="44.60987" lon="6.68827">
        <ele>1646.22</ele>
        <time>2018-08-25T09:14:03Z</time>
      </trkpt>
      <trkpt lat="44.60965" lon="6.68839">
        <ele>1645.65</ele>
        <time>2018-08-25T09:14:06Z</time>
      </trkpt>
      <trkpt lat="44.60939" lon="6.6884">
        <ele>1645.7</ele>
        <time>2018-08-25T09:14:09Z</time>
      </trkpt>
      <trkpt lat="44.60917" lon="6.68842">
        <ele>1645.45</ele>
        <time>2018-08-25T09:14:11Z</time>
      </trkpt>
      <trkpt lat="44.60893" lon="6.68844">
        <ele>1645.42</ele>
        <time>2018-08-25T09:14:13Z</time>
      </trkpt>
      <trkpt lat="44.60871" lon="6.68837">
        <ele>1645.42</ele>
        <time>2018-08-25T09:14:15Z</time>
      </trkpt>
      <trkpt lat="44.6085" lon="6.68833">
        <ele>1643.81</ele>
        <time>2018-08-25T09:14:17Z</time>
      </trkpt>
      <trkpt lat="44.60827" lon="6.68835">
        <ele>1643.46</ele>
        <time>2018-08-25T09:14:19Z</time>
      </trkpt>
      <trkpt lat="44.60804" lon="6.68838">
        <ele>1643.42</ele>
        <time>2018-08-25T09:14:21Z</time>
      </trkpt>
      <trkpt lat="44.60783" lon="6.68835">
        <ele>1643.21</ele>
        <time>2018-08-25T09:14:23Z</time>
      </trkpt>
      <trkpt lat="44.60758" lon="6.68831">
        <ele>1643.4</ele>
        <time>2018-08-25T09:14:25Z</time>
      </trkpt>
      <trkpt lat="44.6073" lon="6.68836">
        <ele>1642.72</ele>
        <time>2018-08-25T09:14:27Z</time>
      </trkpt>
      <trkpt lat="44.60701" lon="6.68847">
        <ele>1642.45</ele>
        <time>2018-08-25T09:14:29Z</time>
      </trkpt>
      <trkpt lat="44.6067" lon="6.6886">
        <ele>1642.21</ele>
        <time>2018-08-25T09:14:31Z</time>
      </trkpt>
      <trkpt lat="44.60652" lon="6.68867">
        <ele>1641.66</ele>
        <time>2018-08-25T09:14:32Z</time>
      </trkpt>
      <trkpt lat="44.60634" lon="6.68876">
        <ele>1640.79</ele>
        <time>2018-08-25T09:14:33Z</time>
      </trkpt>
      <trkpt lat="44.60615" lon="6.68886">
        <ele>1640.53</ele>
        <time>2018-08-25T09:14:34Z</time>
      </trkpt>
      <trkpt lat="44.60595" lon="6.68895">
        <ele>1640.45</ele>
        <time>2018-08-25T09:14:35Z</time>
      </trkpt>
      <trkpt lat="44.60574" lon="6.68904">
        <ele>1641.13</ele>
        <time>2018-08-25T09:14:36Z</time>
      </trkpt>
      <trkpt lat="44.60554" lon="6.68914">
        <ele>1640.63</ele>
        <time>2018-08-25T09:14:37Z</time>
      </trkpt>
      <trkpt lat="44.60534" lon="6.68923">
        <ele>1640.48</ele>
        <time>2018-08-25T09:14:38Z</time>
      </trkpt>
      <trkpt lat="44.60517" lon="6.68929">
        <ele>1639.74</ele>
        <time>2018-08-25T09:14:39Z</time>
      </trkpt>
      <trkpt lat="44.60485" lon="6.68938">
        <ele>1640.36</ele>
        <time>2018-08-25T09:14:41Z</time>
      </trkpt>
      <trkpt lat="44.60457" lon="6.68917">
        <ele>1639.51</ele>
        <time>2018-08-25T09:14:43Z</time>
      </trkpt>
      <trkpt lat="44.60437" lon="6.68885">
        <ele>1640.15</ele>
        <time>2018-08-25T09:14:44Z</time>
      </trkpt>
      <trkpt lat="44.6042" lon="6.6887">
        <ele>1640.34</ele>
        <time>2018-08-25T09:14:45Z</time>
      </trkpt>
      <trkpt lat="44.60389" lon="6.68853">
        <ele>1641.11</ele>
        <time>2018-08-25T09:14:47Z</time>
      </trkpt>
      <trkpt lat="44.60369" lon="6.68852">
        <ele>1641.33</ele>
        <time>2018-08-25T09:14:48Z</time>
      </trkpt>
      <trkpt lat="44.60342" lon="6.68854">
        <ele>1641.39</ele>
        <time>2018-08-25T09:14:49Z</time>
      </trkpt>
      <trkpt lat="44.6032" lon="6.68864">
        <ele>1642.81</ele>
        <time>2018-08-25T09:14:50Z</time>
      </trkpt>
      <trkpt lat="44.60302" lon="6.68878">
        <ele>1645.34</ele>
        <time>2018-08-25T09:14:51Z</time>
      </trkpt>
      <trkpt lat="44.60284" lon="6.68891">
        <ele>1646.8</ele>
        <time>2018-08-25T09:14:52Z</time>
      </trkpt>
      <trkpt lat="44.60265" lon="6.68903">
        <ele>1647.93</ele>
        <time>2018-08-25T09:14:53Z</time>
      </trkpt>
      <trkpt lat="44.60247" lon="6.68913">
        <ele>1648.97</ele>
        <time>2018-08-25T09:14:54Z</time>
      </trkpt>
      <trkpt lat="44.60226" lon="6.68912">
        <ele>1649.29</ele>
        <time>2018-08-25T09:14:55Z</time>
      </trkpt>
      <trkpt lat="44.60206" lon="6.68904">
        <ele>1650.78</ele>
        <time>2018-08-25T09:14:56Z</time>
      </trkpt>
      <trkpt lat="44.60185" lon="6.68906">
        <ele>1651.93</ele>
        <time>2018-08-25T09:14:57Z</time>
      </trkpt>
      <trkpt lat="44.60162" lon="6.68914">
        <ele>1652.97</ele>
        <time>2018-08-25T09:14:58Z</time>
      </trkpt>
      <trkpt lat="44.60139" lon="6.6892">
        <ele>1653.99</ele>
        <time>2018-08-25T09:14:59Z</time>
      </trkpt>
      <trkpt lat="44.60113" lon="6.6893">
        <ele>1655.69</ele>
        <time>2018-08-25T09:15:00Z</time>
      </trkpt>
      <trkpt lat="44.60089" lon="6.68941">
        <ele>1656.9</ele>
        <time>2018-08-25T09:15:01Z</time>
      </trkpt>
      <trkpt lat="44.60062" lon="6.6895">
        <ele>1657.97</ele>
        <time>2018-08-25T09:15:02Z</time>
      </trkpt>
      <trkpt lat="44.60037" lon="6.6896">
        <ele>1658.98</ele>
        <time>2018-08-25T09:15:03Z</time>
      </trkpt>
      <trkpt lat="44.60015" lon="6.6897">
        <ele>1659.29</ele>
        <time>2018-08-25T09:15:04Z</time>
      </trkpt>
      <trkpt lat="44.59994" lon="6.68979">
        <ele>1659.38</ele>
        <time>2018-08-25T09:15:05Z</time>
      </trkpt>
      <trkpt lat="44.59972" lon="6.68984">
        <ele>1660.11</ele>
        <time>2018-08-25T09:15:06Z</time>
      </trkpt>
      <trkpt lat="44.59951" lon="6.68985">
        <ele>1660.33</ele>
        <time>2018-08-25T09:15:07Z</time>
      </trkpt>
      <trkpt lat="44.5993" lon="6.68982">
        <ele>1661.79</ele>
        <time>2018-08-25T09:15:08Z</time>
      </trkpt>
      <trkpt lat="44.59909" lon="6.68978">
        <ele>1662.93</ele>
        <time>2018-08-25T09:15:09Z</time>
      </trkpt>
      <trkpt lat="44.59887" lon="6.68974">
        <ele>1663.97</ele>
        <time>2018-08-25T09:15:10Z</time>
      </trkpt>
      <trkpt lat="44.59867" lon="6.68972">
        <ele>1664.99</ele>
        <time>2018-08-25T09:15:11Z</time>
      </trkpt>
      <trkpt lat="44.59846" lon="6.68971">
        <ele>1666.69</ele>
        <time>2018-08-25T09:15:12Z</time>
      </trkpt>
      <trkpt lat="44.59827" lon="6.68972">
        <ele>1667.9</ele>
        <time>2018-08-25T09:15:13Z</time>
      </trkpt>
      <trkpt lat="44.59808" lon="6.68973">
        <ele>1668.27</ele>
        <time>2018-08-25T09:15:14Z</time>
      </trkpt>
      <trkpt lat="44.59775" lon="6.68977">
        <ele>1669.32</ele>
        <time>2018-08-25T09:15:16Z</time>
      </trkpt>
      <trkpt lat="44.59741" lon="6.68978">
        <ele>1670.32</ele>
        <time>2018-08-25T09:15:18Z</time>
      </trkpt>
      <trkpt lat="44.59709" lon="6.68983">
        <ele>1670.41</ele>
        <time>2018-08-25T09:15:20Z</time>
      </trkpt>
      <trkpt lat="44.59678" lon="6.68991">
        <ele>1668.81</ele>
        <time>2018-08-25T09:15:22Z</time>
      </trkpt>
      <trkpt lat="44.59648" lon="6.68994">
        <ele>1666.85</ele>
        <time>2018-08-25T09:15:24Z</time>
      </trkpt>
      <trkpt lat="44.59619" lon="6.68991">
        <ele>1665.55</ele>
        <time>2018-08-25T09:15:26Z</time>
      </trkpt>
      <trkpt lat="44.59594" lon="6.68987">
        <ele>1663.61</ele>
        <time>2018-08-25T09:15:28Z</time>
      </trkpt>
      <trkpt lat="44.59569" lon="6.68986">
        <ele>1661.83</ele>
        <time>2018-08-25T09:15:30Z</time>
      </trkpt>
      <trkpt lat="44.59545" lon="6.68985">
        <ele>1661.46</ele>
        <time>2018-08-25T09:15:32Z</time>
      </trkpt>
      <trkpt lat="44.59522" lon="6.68986">
        <ele>1659.6</ele>
        <time>2018-08-25T09:15:34Z</time>
      </trkpt>
      <trkpt lat="44.59499" lon="6.68986">
        <ele>1660.14</ele>
        <time>2018-08-25T09:15:36Z</time>
      </trkpt>
      <trkpt lat="44.59475" lon="6.68986">
        <ele>1659.7</ele>
        <time>2018-08-25T09:15:38Z</time>
      </trkpt>
      <trkpt lat="44.59453" lon="6.68983">
        <ele>1660.36</ele>
        <time>2018-08-25T09:15:40Z</time>
      </trkpt>
      <trkpt lat="44.59434" lon="6.6897">
        <ele>1660.42</ele>
        <time>2018-08-25T09:15:42Z</time>
      </trkpt>
      <trkpt lat="44.59416" lon="6.68955">
        <ele>1661.33</ele>
        <time>2018-08-25T09:15:44Z</time>
      </trkpt>
      <trkpt lat="44.59396" lon="6.68942">
        <ele>1661.41</ele>
        <time>2018-08-25T09:15:46Z</time>
      </trkpt>
      <trkpt lat="44.59374" lon="6.68941">
        <ele>1659.6</ele>
        <time>2018-08-25T09:15:48Z</time>
      </trkpt>
      <trkpt lat="44.59352" lon="6.68938">
        <ele>1661.05</ele>
        <time>2018-08-25T09:15:50Z</time>
      </trkpt>
      <trkpt lat="44.5933" lon="6.68931">
        <ele>1662.09</ele>
        <time>2018-08-25T09:15:52Z</time>
      </trkpt>
      <trkpt lat="44.5931" lon="6.68933">
        <ele>1665.61</ele>
        <time>2018-08-25T09:15:54Z</time>
      </trkpt>
      <trkpt lat="44.59287" lon="6.68935">
        <ele>1667.96</ele>
        <time>2018-08-25T09:15:56Z</time>
      </trkpt>
      <trkpt lat="44.59265" lon="6.68928">
        <ele>1669.99</ele>
        <time>2018-08-25T09:15:58Z</time>
      </trkpt>
      <trkpt lat="44.59244" lon="6.68909">
        <ele>1673.6</ele>
        <time>2018-08-25T09:16:00Z</time>
      </trkpt>
      <trkpt lat="44.59222" lon="6.68893">
        <ele>1675.96</ele>
        <time>2018-08-25T09:16:02Z</time>
      </trkpt>
      <trkpt lat="44.59198" lon="6.68882">
        <ele>1677.99</ele>
        <time>2018-08-25T09:16:04Z</time>
      </trkpt>
      <trkpt lat="44.59171" lon="6.68877">
        <ele>1680.69</ele>
        <time>2018-08-25T09:16:06Z</time>
      </trkpt>
      <trkpt lat="44.59145" lon="6.68879">
        <ele>1682.06</ele>
        <time>2018-08-25T09:16:08Z</time>
      </trkpt>
      <trkpt lat="44.5912" lon="6.68871">
        <ele>1683.09</ele>
        <time>2018-08-25T09:16:10Z</time>
      </trkpt>
      <trkpt lat="44.59102" lon="6.68847">
        <ele>1682.9</ele>
        <time>2018-08-25T09:16:12Z</time>
      </trkpt>
      <trkpt lat="44.59103" lon="6.68816">
        <ele>1683.96</ele>
        <time>2018-08-25T09:16:13Z</time>
      </trkpt>
      <trkpt lat="44.59092" lon="6.6878">
        <ele>1684.38</ele>
        <time>2018-08-25T09:16:15Z</time>
      </trkpt>
      <trkpt lat="44.59072" lon="6.68772">
        <ele>1685.11</ele>
        <time>2018-08-25T09:16:16Z</time>
      </trkpt>
      <trkpt lat="44.5904" lon="6.68759">
        <ele>1684.69</ele>
        <time>2018-08-25T09:16:18Z</time>
      </trkpt>
      <trkpt lat="44.59019" lon="6.68757">
        <ele>1685.2</ele>
        <time>2018-08-25T09:16:19Z</time>
      </trkpt>
      <trkpt lat="44.58996" lon="6.68769">
        <ele>1686.76</ele>
        <time>2018-08-25T09:16:20Z</time>
      </trkpt>
      <trkpt lat="44.58973" lon="6.68774">
        <ele>1690.02</ele>
        <time>2018-08-25T09:16:21Z</time>
      </trkpt>
      <trkpt lat="44.58949" lon="6.68774">
        <ele>1693.8</ele>
        <time>2018-08-25T09:16:22Z</time>
      </trkpt>
      <trkpt lat="44.58926" lon="6.68771">
        <ele>1697.04</ele>
        <time>2018-08-25T09:16:23Z</time>
      </trkpt>
      <trkpt lat="44.58903" lon="6.68768">
        <ele>1700.11</ele>
        <time>2018-08-25T09:16:24Z</time>
      </trkpt>
      <trkpt lat="44.58882" lon="6.68766">
        <ele>1703.13</ele>
        <time>2018-08-25T09:16:25Z</time>
      </trkpt>
      <trkpt lat="44.58861" lon="6.68761">
        <ele>1705.43</ele>
        <time>2018-08-25T09:16:26Z</time>
      </trkpt>
      <trkpt lat="44.58841" lon="6.68757">
        <ele>1706.12</ele>
        <time>2018-08-25T09:16:27Z</time>
      </trkpt>
      <trkpt lat="44.58822" lon="6.68748">
        <ele>1706.33</ele>
        <time>2018-08-25T09:16:28Z</time>
      </trkpt>
      <trkpt lat="44.58801" lon="6.68736">
        <ele>1707.09</ele>
        <time>2018-08-25T09:16:29Z</time>
      </trkpt>
      <trkpt lat="44.5878" lon="6.68725">
        <ele>1707.32</ele>
        <time>2018-08-25T09:16:30Z</time>
      </trkpt>
      <trkpt lat="44.5876" lon="6.68715">
        <ele>1710.19</ele>
        <time>2018-08-25T09:16:31Z</time>
      </trkpt>
      <trkpt lat="44.58741" lon="6.68703">
        <ele>1713.85</ele>
        <time>2018-08-25T09:16:32Z</time>
      </trkpt>
      <trkpt lat="44.5872" lon="6.68692">
        <ele>1717.05</ele>
        <time>2018-08-25T09:16:33Z</time>
      </trkpt>
      <trkpt lat="44.587" lon="6.68681">
        <ele>1718.71</ele>
        <time>2018-08-25T09:16:34Z</time>
      </trkpt>
      <trkpt lat="44.58681" lon="6.6867">
        <ele>1719.91</ele>
        <time>2018-08-25T09:16:35Z</time>
      </trkpt>
      <trkpt lat="44.58664" lon="6.68659">
        <ele>1720.97</ele>
        <time>2018-08-25T09:16:36Z</time>
      </trkpt>
      <trkpt lat="44.58647" lon="6.68648">
        <ele>1721.98</ele>
        <time>2018-08-25T09:16:37Z</time>
      </trkpt>
      <trkpt lat="44.58629" lon="6.68635">
        <ele>1722.99</ele>
        <time>2018-08-25T09:16:38Z</time>
      </trkpt>
      <trkpt lat="44.58612" lon="6.68608">
        <ele>1722.59</ele>
        <time>2018-08-25T09:16:39Z</time>
      </trkpt>
      <trkpt lat="44.58601" lon="6.6858">
        <ele>1722.47</ele>
        <time>2018-08-25T09:16:40Z</time>
      </trkpt>
      <trkpt lat="44.58588" lon="6.68556">
        <ele>1723.14</ele>
        <time>2018-08-25T09:16:41Z</time>
      </trkpt>
      <trkpt lat="44.58572" lon="6.68531">
        <ele>1725.44</ele>
        <time>2018-08-25T09:16:42Z</time>
      </trkpt>
      <trkpt lat="44.58555" lon="6.68506">
        <ele>1728.23</ele>
        <time>2018-08-25T09:16:43Z</time>
      </trkpt>
      <trkpt lat="44.58538" lon="6.68481">
        <ele>1731.86</ele>
        <time>2018-08-25T09:16:44Z</time>
      </trkpt>
      <trkpt lat="44.5852" lon="6.68458">
        <ele>1734.35</ele>
        <time>2018-08-25T09:16:45Z</time>
      </trkpt>
      <trkpt lat="44.58502" lon="6.68435">
        <ele>1736.5</ele>
        <time>2018-08-25T09:16:46Z</time>
      </trkpt>
      <trkpt lat="44.58485" lon="6.68414">
        <ele>1738.54</ele>
        <time>2018-08-25T09:16:47Z</time>
      </trkpt>
      <trkpt lat="44.58472" lon="6.68389">
        <ele>1741.26</ele>
        <time>2018-08-25T09:16:48Z</time>
      </trkpt>
      <trkpt lat="44.58457" lon="6.68369">
        <ele>1743.47</ele>
        <time>2018-08-25T09:16:49Z</time>
      </trkpt>
      <trkpt lat="44.58438" lon="6.6835">
        <ele>1744.84</ele>
        <time>2018-08-25T09:16:50Z</time>
      </trkpt>
      <trkpt lat="44.58418" lon="6.68334">
        <ele>1745.95</ele>
        <time>2018-08-25T09:16:51Z</time>
      </trkpt>
      <trkpt lat="44.58397" lon="6.68319">
        <ele>1747.68</ele>
        <time>2018-08-25T09:16:52Z</time>
      </trkpt>
      <trkpt lat="44.58377" lon="6.68303">
        <ele>1749.6</ele>
        <time>2018-08-25T09:16:53Z</time>
      </trkpt>
      <trkpt lat="44.5836" lon="6.68291">
        <ele>1751.57</ele>
        <time>2018-08-25T09:16:54Z</time>
      </trkpt>
      <trkpt lat="44.58341" lon="6.68283">
        <ele>1753.57</ele>
        <time>2018-08-25T09:16:55Z</time>
      </trkpt>
      <trkpt lat="44.5832" lon="6.68278">
        <ele>1754.86</ele>
        <time>2018-08-25T09:16:56Z</time>
      </trkpt>
      <trkpt lat="44.58301" lon="6.68274">
        <ele>1755.25</ele>
        <time>2018-08-25T09:16:57Z</time>
      </trkpt>
      <trkpt lat="44.58281" lon="6.68276">
        <ele>1755.37</ele>
        <time>2018-08-25T09:16:58Z</time>
      </trkpt>
      <trkpt lat="44.58262" lon="6.6828">
        <ele>1756.11</ele>
        <time>2018-08-25T09:16:59Z</time>
      </trkpt>
      <trkpt lat="44.58247" lon="6.68295">
        <ele>1757.03</ele>
        <time>2018-08-25T09:17:00Z</time>
      </trkpt>
      <trkpt lat="44.58225" lon="6.68316">
        <ele>1758.7</ele>
        <time>2018-08-25T09:17:01Z</time>
      </trkpt>
      <trkpt lat="44.58205" lon="6.6833">
        <ele>1760.61</ele>
        <time>2018-08-25T09:17:02Z</time>
      </trkpt>
      <trkpt lat="44.58186" lon="6.68341">
        <ele>1763.28</ele>
        <time>2018-08-25T09:17:03Z</time>
      </trkpt>
      <trkpt lat="44.58153" lon="6.68359">
        <ele>1766.84</ele>
        <time>2018-08-25T09:17:05Z</time>
      </trkpt>
      <trkpt lat="44.58122" lon="6.68381">
        <ele>1769.19</ele>
        <time>2018-08-25T09:17:07Z</time>
      </trkpt>
      <trkpt lat="44.58094" lon="6.68406">
        <ele>1772.62</ele>
        <time>2018-08-25T09:17:09Z</time>
      </trkpt>
      <trkpt lat="44.58066" lon="6.68427">
        <ele>1774.96</ele>
        <time>2018-08-25T09:17:11Z</time>
      </trkpt>
      <trkpt lat="44.58035" lon="6.68439">
        <ele>1777.69</ele>
        <time>2018-08-25T09:17:13Z</time>
      </trkpt>
      <trkpt lat="44.58003" lon="6.68437">
        <ele>1779.97</ele>
        <time>2018-08-25T09:17:15Z</time>
      </trkpt>
      <trkpt lat="44.5797" lon="6.6843">
        <ele>1782.9</ele>
        <time>2018-08-25T09:17:17Z</time>
      </trkpt>
      <trkpt lat="44.57936" lon="6.68422">
        <ele>1785.68</ele>
        <time>2018-08-25T09:17:19Z</time>
      </trkpt>
      <trkpt lat="44.57906" lon="6.68403">
        <ele>1788.66</ele>
        <time>2018-08-25T09:17:21Z</time>
      </trkpt>
      <trkpt lat="44.57884" lon="6.68369">
        <ele>1790.96</ele>
        <time>2018-08-25T09:17:23Z</time>
      </trkpt>
      <trkpt lat="44.57865" lon="6.68333">
        <ele>1793.9</ele>
        <time>2018-08-25T09:17:25Z</time>
      </trkpt>
      <trkpt lat="44.57844" lon="6.68301">
        <ele>1795.28</ele>
        <time>2018-08-25T09:17:27Z</time>
      </trkpt>
      <trkpt lat="44.57821" lon="6.68279">
        <ele>1795.41</ele>
        <time>2018-08-25T09:17:29Z</time>
      </trkpt>
      <trkpt lat="44.57789" lon="6.6829">
        <ele>1797.03</ele>
        <time>2018-08-25T09:17:31Z</time>
      </trkpt>
      <trkpt lat="44.5776" lon="6.6829">
        <ele>1801.31</ele>
        <time>2018-08-25T09:17:33Z</time>
      </trkpt>
      <trkpt lat="44.57732" lon="6.68273">
        <ele>1803.93</ele>
        <time>2018-08-25T09:17:35Z</time>
      </trkpt>
      <trkpt lat="44.57706" lon="6.68251">
        <ele>1808.3</ele>
        <time>2018-08-25T09:17:37Z</time>
      </trkpt>
      <trkpt lat="44.57679" lon="6.68228">
        <ele>1811.63</ele>
        <time>2018-08-25T09:17:39Z</time>
      </trkpt>
      <trkpt lat="44.57651" lon="6.68206">
        <ele>1813.96</ele>
        <time>2018-08-25T09:17:41Z</time>
      </trkpt>
      <trkpt lat="44.57622" lon="6.68199">
        <ele>1815.29</ele>
        <time>2018-08-25T09:17:43Z</time>
      </trkpt>
      <trkpt lat="44.5759" lon="6.68208">
        <ele>1817.93</ele>
        <time>2018-08-25T09:17:45Z</time>
      </trkpt>
      <trkpt lat="44.57561" lon="6.68208">
        <ele>1820.69</ele>
        <time>2018-08-25T09:17:47Z</time>
      </trkpt>
      <trkpt lat="44.57529" lon="6.682">
        <ele>1823.87</ele>
        <time>2018-08-25T09:17:49Z</time>
      </trkpt>
      <trkpt lat="44.57498" lon="6.68185">
        <ele>1826.89</ele>
        <time>2018-08-25T09:17:51Z</time>
      </trkpt>
      <trkpt lat="44.57467" lon="6.6818">
        <ele>1828.98</ele>
        <time>2018-08-25T09:17:53Z</time>
      </trkpt>
      <trkpt lat="44.57437" lon="6.68187">
        <ele>1831.9</ele>
        <time>2018-08-25T09:17:55Z</time>
      </trkpt>
      <trkpt lat="44.57407" lon="6.68193">
        <ele>1835.59</ele>
        <time>2018-08-25T09:17:57Z</time>
      </trkpt>
      <trkpt lat="44.57378" lon="6.68196">
        <ele>1839.57</ele>
        <time>2018-08-25T09:17:59Z</time>
      </trkpt>
      <trkpt lat="44.57352" lon="6.68187">
        <ele>1841.95</ele>
        <time>2018-08-25T09:18:01Z</time>
      </trkpt>
      <trkpt lat="44.57335" lon="6.68165">
        <ele>1846.51</ele>
        <time>2018-08-25T09:18:03Z</time>
      </trkpt>
      <trkpt lat="44.57324" lon="6.68134">
        <ele>1849.65</ele>
        <time>2018-08-25T09:18:05Z</time>
      </trkpt>
      <trkpt lat="44.57317" lon="6.68106">
        <ele>1851.26</ele>
        <time>2018-08-25T09:18:07Z</time>
      </trkpt>
      <trkpt lat="44.5731" lon="6.68083">
        <ele>1853.02</ele>
        <time>2018-08-25T09:18:09Z</time>
      </trkpt>
      <trkpt lat="44.573" lon="6.68049">
        <ele>1855.99</ele>
        <time>2018-08-25T09:18:12Z</time>
      </trkpt>
      <trkpt lat="44.5729" lon="6.68025">
        <ele>1856.38</ele>
        <time>2018-08-25T09:18:14Z</time>
      </trkpt>
      <trkpt lat="44.57275" lon="6.68007">
        <ele>1856.42</ele>
        <time>2018-08-25T09:18:16Z</time>
      </trkpt>
      <trkpt lat="44.57256" lon="6.67999">
        <ele>1856.42</ele>
        <time>2018-08-25T09:18:18Z</time>
      </trkpt>
      <trkpt lat="44.57235" lon="6.68">
        <ele>1857.33</ele>
        <time>2018-08-25T09:18:20Z</time>
      </trkpt>
      <trkpt lat="44.57212" lon="6.68002">
        <ele>1858.32</ele>
        <time>2018-08-25T09:18:22Z</time>
      </trkpt>
      <trkpt lat="44.5719" lon="6.68012">
        <ele>1860.72</ele>
        <time>2018-08-25T09:18:24Z</time>
      </trkpt>
      <trkpt lat="44.57171" lon="6.68033">
        <ele>1861.36</ele>
        <time>2018-08-25T09:18:26Z</time>
      </trkpt>
      <trkpt lat="44.5716" lon="6.68064">
        <ele>1861.63</ele>
        <time>2018-08-25T09:18:28Z</time>
      </trkpt>
      <trkpt lat="44.57158" lon="6.68102">
        <ele>1863.75</ele>
        <time>2018-08-25T09:18:30Z</time>
      </trkpt>
      <trkpt lat="44.57161" lon="6.68139">
        <ele>1866.67</ele>
        <time>2018-08-25T09:18:32Z</time>
      </trkpt>
      <trkpt lat="44.5716" lon="6.68176">
        <ele>1868.96</ele>
        <time>2018-08-25T09:18:34Z</time>
      </trkpt>
      <trkpt lat="44.57147" lon="6.68202">
        <ele>1871.9</ele>
        <time>2018-08-25T09:18:36Z</time>
      </trkpt>
      <trkpt lat="44.57128" lon="6.68227">
        <ele>1873.98</ele>
        <time>2018-08-25T09:18:38Z</time>
      </trkpt>
      <trkpt lat="44.57108" lon="6.68254">
        <ele>1875.99</ele>
        <time>2018-08-25T09:18:40Z</time>
      </trkpt>
      <trkpt lat="44.57083" lon="6.68272">
        <ele>1879.39</ele>
        <time>2018-08-25T09:18:42Z</time>
      </trkpt>
      <trkpt lat="44.57055" lon="6.68274">
        <ele>1882.85</ele>
        <time>2018-08-25T09:18:44Z</time>
      </trkpt>
      <trkpt lat="44.57028" lon="6.68268">
        <ele>1884.98</ele>
        <time>2018-08-25T09:18:46Z</time>
      </trkpt>
      <trkpt lat="44.57002" lon="6.68258">
        <ele>1888.39</ele>
        <time>2018-08-25T09:18:48Z</time>
      </trkpt>
      <trkpt lat="44.56975" lon="6.68253">
        <ele>1889.33</ele>
        <time>2018-08-25T09:18:50Z</time>
      </trkpt>
      <trkpt lat="44.56951" lon="6.68261">
        <ele>1890.32</ele>
        <time>2018-08-25T09:18:52Z</time>
      </trkpt>
      <trkpt lat="44.56932" lon="6.68288">
        <ele>1892.93</ele>
        <time>2018-08-25T09:18:54Z</time>
      </trkpt>
      <trkpt lat="44.56916" lon="6.68311">
        <ele>1894.99</ele>
        <time>2018-08-25T09:18:56Z</time>
      </trkpt>
      <trkpt lat="44.56911" lon="6.68342">
        <ele>1896.99</ele>
        <time>2018-08-25T09:18:58Z</time>
      </trkpt>
      <trkpt lat="44.56921" lon="6.68371">
        <ele>1898.08</ele>
        <time>2018-08-25T09:19:00Z</time>
      </trkpt>
      <trkpt lat="44.56936" lon="6.68401">
        <ele>1899.3</ele>
        <time>2018-08-25T09:19:02Z</time>
      </trkpt>
      <trkpt lat="44.56944" lon="6.68433">
        <ele>1901.02</ele>
        <time>2018-08-25T09:19:04Z</time>
      </trkpt>
      <trkpt lat="44.56941" lon="6.68468">
        <ele>1902.38</ele>
        <time>2018-08-25T09:19:07Z</time>
      </trkpt>
      <trkpt lat="44.56913" lon="6.68476">
        <ele>1903.11</ele>
        <time>2018-08-25T09:19:08Z</time>
      </trkpt>
      <trkpt lat="44.56862" lon="6.68486">
        <ele>1904.09</ele>
        <time>2018-08-25T09:19:10Z</time>
      </trkpt>
      <trkpt lat="44.56829" lon="6.68496">
        <ele>1907.4</ele>
        <time>2018-08-25T09:19:12Z</time>
      </trkpt>
      <trkpt lat="44.56795" lon="6.68504">
        <ele>1911.34</ele>
        <time>2018-08-25T09:19:14Z</time>
      </trkpt>
      <trkpt lat="44.56766" lon="6.68501">
        <ele>1915.75</ele>
        <time>2018-08-25T09:19:16Z</time>
      </trkpt>
      <trkpt lat="44.56736" lon="6.68494">
        <ele>1918.88</ele>
        <time>2018-08-25T09:19:18Z</time>
      </trkpt>
      <trkpt lat="44.56707" lon="6.68498">
        <ele>1921.89</ele>
        <time>2018-08-25T09:19:20Z</time>
      </trkpt>
      <trkpt lat="44.56683" lon="6.68524">
        <ele>1924.89</ele>
        <time>2018-08-25T09:19:22Z</time>
      </trkpt>
      <trkpt lat="44.56665" lon="6.68557">
        <ele>1926.98</ele>
        <time>2018-08-25T09:19:24Z</time>
      </trkpt>
      <trkpt lat="44.56644" lon="6.68588">
        <ele>1928.99</ele>
        <time>2018-08-25T09:19:26Z</time>
      </trkpt>
      <trkpt lat="44.56616" lon="6.68618">
        <ele>1930.29</ele>
        <time>2018-08-25T09:19:28Z</time>
      </trkpt>
      <trkpt lat="44.566" lon="6.68635">
        <ele>1930.38</ele>
        <time>2018-08-25T09:19:29Z</time>
      </trkpt>
      <trkpt lat="44.56584" lon="6.68651">
        <ele>1931.11</ele>
        <time>2018-08-25T09:19:30Z</time>
      </trkpt>
      <trkpt lat="44.56568" lon="6.68667">
        <ele>1932.73</ele>
        <time>2018-08-25T09:19:31Z</time>
      </trkpt>
      <trkpt lat="44.56553" lon="6.68685">
        <ele>1933.21</ele>
        <time>2018-08-25T09:19:32Z</time>
      </trkpt>
      <trkpt lat="44.56539" lon="6.68704">
        <ele>1934.06</ele>
        <time>2018-08-25T09:19:33Z</time>
      </trkpt>
      <trkpt lat="44.56524" lon="6.68724">
        <ele>1935.01</ele>
        <time>2018-08-25T09:19:34Z</time>
      </trkpt>
      <trkpt lat="44.56507" lon="6.6874">
        <ele>1936.7</ele>
        <time>2018-08-25T09:19:35Z</time>
      </trkpt>
      <trkpt lat="44.56491" lon="6.68755">
        <ele>1937.9</ele>
        <time>2018-08-25T09:19:36Z</time>
      </trkpt>
      <trkpt lat="44.56468" lon="6.68756">
        <ele>1938.97</ele>
        <time>2018-08-25T09:19:37Z</time>
      </trkpt>
      <trkpt lat="44.56448" lon="6.6876">
        <ele>1941.38</ele>
        <time>2018-08-25T09:19:38Z</time>
      </trkpt>
      <trkpt lat="44.56428" lon="6.68764">
        <ele>1942.81</ele>
        <time>2018-08-25T09:19:39Z</time>
      </trkpt>
      <trkpt lat="44.5641" lon="6.68778">
        <ele>1943.94</ele>
        <time>2018-08-25T09:19:40Z</time>
      </trkpt>
      <trkpt lat="44.56393" lon="6.68795">
        <ele>1945.68</ele>
        <time>2018-08-25T09:19:41Z</time>
      </trkpt>
      <trkpt lat="44.56377" lon="6.68815">
        <ele>1947.6</ele>
        <time>2018-08-25T09:19:42Z</time>
      </trkpt>
      <trkpt lat="44.56361" lon="6.68839">
        <ele>1948.87</ele>
        <time>2018-08-25T09:19:43Z</time>
      </trkpt>
      <trkpt lat="44.56345" lon="6.68861">
        <ele>1949.96</ele>
        <time>2018-08-25T09:19:44Z</time>
      </trkpt>
      <trkpt lat="44.5633" lon="6.68882">
        <ele>1951.68</ele>
        <time>2018-08-25T09:19:45Z</time>
      </trkpt>
      <trkpt lat="44.56315" lon="6.689">
        <ele>1952.9</ele>
        <time>2018-08-25T09:19:46Z</time>
      </trkpt>
      <trkpt lat="44.56299" lon="6.68917">
        <ele>1953.26</ele>
        <time>2018-08-25T09:19:47Z</time>
      </trkpt>
      <trkpt lat="44.56283" lon="6.6893">
        <ele>1953.37</ele>
        <time>2018-08-25T09:19:48Z</time>
      </trkpt>
      <trkpt lat="44.56264" lon="6.6894">
        <ele>1954.11</ele>
        <time>2018-08-25T09:19:49Z</time>
      </trkpt>
      <trkpt lat="44.56244" lon="6.68946">
        <ele>1954.33</ele>
        <time>2018-08-25T09:19:50Z</time>
      </trkpt>
      <trkpt lat="44.56224" lon="6.68952">
        <ele>1954.39</ele>
        <time>2018-08-25T09:19:51Z</time>
      </trkpt>
      <trkpt lat="44.56202" lon="6.68959">
        <ele>1954.41</ele>
        <time>2018-08-25T09:19:52Z</time>
      </trkpt>
      <trkpt lat="44.5618" lon="6.68968">
        <ele>1954.42</ele>
        <time>2018-08-25T09:19:53Z</time>
      </trkpt>
      <trkpt lat="44.56158" lon="6.68983">
        <ele>1954.42</ele>
        <time>2018-08-25T09:19:54Z</time>
      </trkpt>
      <trkpt lat="44.56137" lon="6.68999">
        <ele>1954.42</ele>
        <time>2018-08-25T09:19:55Z</time>
      </trkpt>
      <trkpt lat="44.56116" lon="6.69016">
        <ele>1954.42</ele>
        <time>2018-08-25T09:19:56Z</time>
      </trkpt>
      <trkpt lat="44.56094" lon="6.69034">
        <ele>1955.12</ele>
        <time>2018-08-25T09:19:57Z</time>
      </trkpt>
      <trkpt lat="44.56074" lon="6.69053">
        <ele>1956.03</ele>
        <time>2018-08-25T09:19:58Z</time>
      </trkpt>
      <trkpt lat="44.56054" lon="6.69075">
        <ele>1957</ele>
        <time>2018-08-25T09:19:59Z</time>
      </trkpt>
      <trkpt lat="44.56037" lon="6.69098">
        <ele>1958</ele>
        <time>2018-08-25T09:20:00Z</time>
      </trkpt>
      <trkpt lat="44.56021" lon="6.69124">
        <ele>1958.99</ele>
        <time>2018-08-25T09:20:01Z</time>
      </trkpt>
      <trkpt lat="44.56008" lon="6.69152">
        <ele>1959.29</ele>
        <time>2018-08-25T09:20:02Z</time>
      </trkpt>
      <trkpt lat="44.55995" lon="6.69178">
        <ele>1960.08</ele>
        <time>2018-08-25T09:20:03Z</time>
      </trkpt>
      <trkpt lat="44.55974" lon="6.69194">
        <ele>1963.12</ele>
        <time>2018-08-25T09:20:04Z</time>
      </trkpt>
      <trkpt lat="44.55957" lon="6.69218">
        <ele>1965.43</ele>
        <time>2018-08-25T09:20:05Z</time>
      </trkpt>
      <trkpt lat="44.55939" lon="6.69242">
        <ele>1966.82</ele>
        <time>2018-08-25T09:20:06Z</time>
      </trkpt>
      <trkpt lat="44.55919" lon="6.69264">
        <ele>1967.94</ele>
        <time>2018-08-25T09:20:07Z</time>
      </trkpt>
      <trkpt lat="44.55896" lon="6.69284">
        <ele>1969.68</ele>
        <time>2018-08-25T09:20:08Z</time>
      </trkpt>
      <trkpt lat="44.55875" lon="6.69303">
        <ele>1970.9</ele>
        <time>2018-08-25T09:20:09Z</time>
      </trkpt>
      <trkpt lat="44.55853" lon="6.6932">
        <ele>1974.76</ele>
        <time>2018-08-25T09:20:10Z</time>
      </trkpt>
      <trkpt lat="44.55833" lon="6.69339">
        <ele>1977.32</ele>
        <time>2018-08-25T09:20:11Z</time>
      </trkpt>
      <trkpt lat="44.55814" lon="6.69358">
        <ele>1980.89</ele>
        <time>2018-08-25T09:20:12Z</time>
      </trkpt>
      <trkpt lat="44.55793" lon="6.69376">
        <ele>1982.66</ele>
        <time>2018-08-25T09:20:13Z</time>
      </trkpt>
      <trkpt lat="44.55774" lon="6.69394">
        <ele>1983.89</ele>
        <time>2018-08-25T09:20:14Z</time>
      </trkpt>
      <trkpt lat="44.55755" lon="6.69412">
        <ele>1985.66</ele>
        <time>2018-08-25T09:20:15Z</time>
      </trkpt>
      <trkpt lat="44.55737" lon="6.69434">
        <ele>1986.89</ele>
        <time>2018-08-25T09:20:16Z</time>
      </trkpt>
      <trkpt lat="44.55722" lon="6.69459">
        <ele>1987.96</ele>
        <time>2018-08-25T09:20:17Z</time>
      </trkpt>
      <trkpt lat="44.55709" lon="6.69489">
        <ele>1988.98</ele>
        <time>2018-08-25T09:20:18Z</time>
      </trkpt>
      <trkpt lat="44.55696" lon="6.69515">
        <ele>1989.29</ele>
        <time>2018-08-25T09:20:19Z</time>
      </trkpt>
      <trkpt lat="44.55687" lon="6.69542">
        <ele>1990.08</ele>
        <time>2018-08-25T09:20:20Z</time>
      </trkpt>
      <trkpt lat="44.55678" lon="6.69569">
        <ele>1990.32</ele>
        <time>2018-08-25T09:20:21Z</time>
      </trkpt>
      <trkpt lat="44.55671" lon="6.69596">
        <ele>1990.39</ele>
        <time>2018-08-25T09:20:22Z</time>
      </trkpt>
      <trkpt lat="44.55663" lon="6.69623">
        <ele>1990.41</ele>
        <time>2018-08-25T09:20:23Z</time>
      </trkpt>
      <trkpt lat="44.55655" lon="6.6965">
        <ele>1990.42</ele>
        <time>2018-08-25T09:20:24Z</time>
      </trkpt>
      <trkpt lat="44.55648" lon="6.69676">
        <ele>1991.12</ele>
        <time>2018-08-25T09:20:25Z</time>
      </trkpt>
      <trkpt lat="44.5564" lon="6.69703">
        <ele>1991.33</ele>
        <time>2018-08-25T09:20:26Z</time>
      </trkpt>
      <trkpt lat="44.55631" lon="6.69727">
        <ele>1991.39</ele>
        <time>2018-08-25T09:20:27Z</time>
      </trkpt>
      <trkpt lat="44.55617" lon="6.69746">
        <ele>1992.81</ele>
        <time>2018-08-25T09:20:28Z</time>
      </trkpt>
      <trkpt lat="44.55603" lon="6.69768">
        <ele>1993.94</ele>
        <time>2018-08-25T09:20:29Z</time>
      </trkpt>
      <trkpt lat="44.55588" lon="6.69788">
        <ele>1994.28</ele>
        <time>2018-08-25T09:20:30Z</time>
      </trkpt>
      <trkpt lat="44.55573" lon="6.69809">
        <ele>1995.08</ele>
        <time>2018-08-25T09:20:31Z</time>
      </trkpt>
      <trkpt lat="44.55557" lon="6.6983">
        <ele>1996.02</ele>
        <time>2018-08-25T09:20:32Z</time>
      </trkpt>
      <trkpt lat="44.55539" lon="6.69846">
        <ele>1996.3</ele>
        <time>2018-08-25T09:20:33Z</time>
      </trkpt>
      <trkpt lat="44.55519" lon="6.69859">
        <ele>1997.08</ele>
        <time>2018-08-25T09:20:34Z</time>
      </trkpt>
      <trkpt lat="44.55497" lon="6.69869">
        <ele>1998.02</ele>
        <time>2018-08-25T09:20:35Z</time>
      </trkpt>
      <trkpt lat="44.55475" lon="6.69876">
        <ele>1999</ele>
        <time>2018-08-25T09:20:36Z</time>
      </trkpt>
      <trkpt lat="44.55452" lon="6.69881">
        <ele>1999.29</ele>
        <time>2018-08-25T09:20:37Z</time>
      </trkpt>
      <trkpt lat="44.55429" lon="6.69885">
        <ele>2000.08</ele>
        <time>2018-08-25T09:20:38Z</time>
      </trkpt>
      <trkpt lat="44.55406" lon="6.69891">
        <ele>2001.02</ele>
        <time>2018-08-25T09:20:39Z</time>
      </trkpt>
      <trkpt lat="44.55383" lon="6.69895">
        <ele>2002</ele>
        <time>2018-08-25T09:20:40Z</time>
      </trkpt>
      <trkpt lat="44.55361" lon="6.69902">
        <ele>2002.29</ele>
        <time>2018-08-25T09:20:41Z</time>
      </trkpt>
      <trkpt lat="44.55339" lon="6.6991">
        <ele>2003.08</ele>
        <time>2018-08-25T09:20:42Z</time>
      </trkpt>
      <trkpt lat="44.55321" lon="6.69923">
        <ele>2002.62</ele>
        <time>2018-08-25T09:20:43Z</time>
      </trkpt>
      <trkpt lat="44.55303" lon="6.69936">
        <ele>2003.18</ele>
        <time>2018-08-25T09:20:44Z</time>
      </trkpt>
      <trkpt lat="44.55287" lon="6.69951">
        <ele>2003.35</ele>
        <time>2018-08-25T09:20:45Z</time>
      </trkpt>
      <trkpt lat="44.55265" lon="6.69995">
        <ele>2006.42</ele>
        <time>2018-08-25T09:20:47Z</time>
      </trkpt>
      <trkpt lat="44.55244" lon="6.70032">
        <ele>2010.55</ele>
        <time>2018-08-25T09:20:49Z</time>
      </trkpt>
      <trkpt lat="44.55221" lon="6.70065">
        <ele>2012.95</ele>
        <time>2018-08-25T09:20:51Z</time>
      </trkpt>
      <trkpt lat="44.55192" lon="6.70061">
        <ele>2013.17</ele>
        <time>2018-08-25T09:20:53Z</time>
      </trkpt>
      <trkpt lat="44.55169" lon="6.70052">
        <ele>2013.35</ele>
        <time>2018-08-25T09:20:54Z</time>
      </trkpt>
      <trkpt lat="44.55146" lon="6.70047">
        <ele>2013.4</ele>
        <time>2018-08-25T09:20:55Z</time>
      </trkpt>
      <trkpt lat="44.55124" lon="6.70043">
        <ele>2014.11</ele>
        <time>2018-08-25T09:20:56Z</time>
      </trkpt>
      <trkpt lat="44.55103" lon="6.70046">
        <ele>2015.03</ele>
        <time>2018-08-25T09:20:57Z</time>
      </trkpt>
      <trkpt lat="44.5508" lon="6.70052">
        <ele>2016.7</ele>
        <time>2018-08-25T09:20:58Z</time>
      </trkpt>
      <trkpt lat="44.55058" lon="6.70072">
        <ele>2017.91</ele>
        <time>2018-08-25T09:20:59Z</time>
      </trkpt>
      <trkpt lat="44.55034" lon="6.70091">
        <ele>2022.47</ele>
        <time>2018-08-25T09:21:00Z</time>
      </trkpt>
      <trkpt lat="44.55012" lon="6.70106">
        <ele>2025.93</ele>
        <time>2018-08-25T09:21:01Z</time>
      </trkpt>
      <trkpt lat="44.54991" lon="6.7012">
        <ele>2029.78</ele>
        <time>2018-08-25T09:21:02Z</time>
      </trkpt>
      <trkpt lat="44.54972" lon="6.70135">
        <ele>2033.03</ele>
        <time>2018-08-25T09:21:03Z</time>
      </trkpt>
      <trkpt lat="44.54952" lon="6.70153">
        <ele>2034.7</ele>
        <time>2018-08-25T09:21:04Z</time>
      </trkpt>
      <trkpt lat="44.54936" lon="6.7017">
        <ele>2036.61</ele>
        <time>2018-08-25T09:21:05Z</time>
      </trkpt>
      <trkpt lat="44.54917" lon="6.70184">
        <ele>2039.28</ele>
        <time>2018-08-25T09:21:06Z</time>
      </trkpt>
      <trkpt lat="44.54898" lon="6.70197">
        <ele>2041.48</ele>
        <time>2018-08-25T09:21:07Z</time>
      </trkpt>
      <trkpt lat="44.54878" lon="6.70211">
        <ele>2042.84</ele>
        <time>2018-08-25T09:21:08Z</time>
      </trkpt>
      <trkpt lat="44.54859" lon="6.70228">
        <ele>2044.65</ele>
        <time>2018-08-25T09:21:09Z</time>
      </trkpt>
      <trkpt lat="44.54841" lon="6.70247">
        <ele>2046.59</ele>
        <time>2018-08-25T09:21:10Z</time>
      </trkpt>
      <trkpt lat="44.54824" lon="6.70263">
        <ele>2048.57</ele>
        <time>2018-08-25T09:21:11Z</time>
      </trkpt>
      <trkpt lat="44.54806" lon="6.70274">
        <ele>2049.87</ele>
        <time>2018-08-25T09:21:12Z</time>
      </trkpt>
      <trkpt lat="44.54789" lon="6.70284">
        <ele>2050.95</ele>
        <time>2018-08-25T09:21:13Z</time>
      </trkpt>
      <trkpt lat="44.5477" lon="6.70291">
        <ele>2051.98</ele>
        <time>2018-08-25T09:21:14Z</time>
      </trkpt>
      <trkpt lat="44.54752" lon="6.70292">
        <ele>2052.29</ele>
        <time>2018-08-25T09:21:15Z</time>
      </trkpt>
      <trkpt lat="44.5473" lon="6.70282">
        <ele>2053.08</ele>
        <time>2018-08-25T09:21:16Z</time>
      </trkpt>
      <trkpt lat="44.54708" lon="6.70273">
        <ele>2054.02</ele>
        <time>2018-08-25T09:21:17Z</time>
      </trkpt>
      <trkpt lat="44.54687" lon="6.70259">
        <ele>2054.3</ele>
        <time>2018-08-25T09:21:18Z</time>
      </trkpt>
      <trkpt lat="44.54665" lon="6.70252">
        <ele>2054.38</ele>
        <time>2018-08-25T09:21:19Z</time>
      </trkpt>
      <trkpt lat="44.54641" lon="6.70245">
        <ele>2054.41</ele>
        <time>2018-08-25T09:21:20Z</time>
      </trkpt>
      <trkpt lat="44.54622" lon="6.70243">
        <ele>2055.82</ele>
        <time>2018-08-25T09:21:21Z</time>
      </trkpt>
      <trkpt lat="44.54602" lon="6.70243">
        <ele>2056.94</ele>
        <time>2018-08-25T09:21:22Z</time>
      </trkpt>
      <trkpt lat="44.54584" lon="6.70242">
        <ele>2057.28</ele>
        <time>2018-08-25T09:21:23Z</time>
      </trkpt>
      <trkpt lat="44.54549" lon="6.70232">
        <ele>2059.72</ele>
        <time>2018-08-25T09:21:25Z</time>
      </trkpt>
      <trkpt lat="44.54531" lon="6.7023">
        <ele>2061.61</ele>
        <time>2018-08-25T09:21:26Z</time>
      </trkpt>
      <trkpt lat="44.54511" lon="6.70232">
        <ele>2063.58</ele>
        <time>2018-08-25T09:21:27Z</time>
      </trkpt>
      <trkpt lat="44.54489" lon="6.70236">
        <ele>2064.87</ele>
        <time>2018-08-25T09:21:28Z</time>
      </trkpt>
      <trkpt lat="44.54468" lon="6.70244">
        <ele>2065.96</ele>
        <time>2018-08-25T09:21:29Z</time>
      </trkpt>
      <trkpt lat="44.54447" lon="6.70248">
        <ele>2068.38</ele>
        <time>2018-08-25T09:21:30Z</time>
      </trkpt>
      <trkpt lat="44.54427" lon="6.70249">
        <ele>2071.21</ele>
        <time>2018-08-25T09:21:31Z</time>
      </trkpt>
      <trkpt lat="44.54407" lon="6.70249">
        <ele>2073.46</ele>
        <time>2018-08-25T09:21:32Z</time>
      </trkpt>
      <trkpt lat="44.54387" lon="6.70251">
        <ele>2075.53</ele>
        <time>2018-08-25T09:21:33Z</time>
      </trkpt>
      <trkpt lat="44.54368" lon="6.70259">
        <ele>2076.85</ele>
        <time>2018-08-25T09:21:34Z</time>
      </trkpt>
      <trkpt lat="44.54349" lon="6.70268">
        <ele>2076.55</ele>
        <time>2018-08-25T09:21:35Z</time>
      </trkpt>
      <trkpt lat="44.54327" lon="6.70272">
        <ele>2076.46</ele>
        <time>2018-08-25T09:21:36Z</time>
      </trkpt>
      <trkpt lat="44.54307" lon="6.70272">
        <ele>2077.83</ele>
        <time>2018-08-25T09:21:37Z</time>
      </trkpt>
      <trkpt lat="44.54288" lon="6.70275">
        <ele>2078.94</ele>
        <time>2018-08-25T09:21:38Z</time>
      </trkpt>
      <trkpt lat="44.54267" lon="6.70285">
        <ele>2079.98</ele>
        <time>2018-08-25T09:21:39Z</time>
      </trkpt>
      <trkpt lat="44.54247" lon="6.70292">
        <ele>2081.69</ele>
        <time>2018-08-25T09:21:40Z</time>
      </trkpt>
      <trkpt lat="44.54226" lon="6.70298">
        <ele>2082.9</ele>
        <time>2018-08-25T09:21:41Z</time>
      </trkpt>
      <trkpt lat="44.54204" lon="6.70302">
        <ele>2083.27</ele>
        <time>2018-08-25T09:21:42Z</time>
      </trkpt>
      <trkpt lat="44.54184" lon="6.70275">
        <ele>2085.47</ele>
        <time>2018-08-25T09:21:43Z</time>
      </trkpt>
      <trkpt lat="44.54163" lon="6.70264">
        <ele>2086.14</ele>
        <time>2018-08-25T09:21:44Z</time>
      </trkpt>
      <trkpt lat="44.54141" lon="6.70261">
        <ele>2087.74</ele>
        <time>2018-08-25T09:21:45Z</time>
      </trkpt>
      <trkpt lat="44.54121" lon="6.7026">
        <ele>2088.92</ele>
        <time>2018-08-25T09:21:46Z</time>
      </trkpt>
      <trkpt lat="44.54102" lon="6.7026">
        <ele>2089.97</ele>
        <time>2018-08-25T09:21:47Z</time>
      </trkpt>
      <trkpt lat="44.54083" lon="6.70258">
        <ele>2091.69</ele>
        <time>2018-08-25T09:21:48Z</time>
      </trkpt>
      <trkpt lat="44.5405" lon="6.7025">
        <ele>2095.57</ele>
        <time>2018-08-25T09:21:50Z</time>
      </trkpt>
      <trkpt lat="44.54021" lon="6.70234">
        <ele>2097.04</ele>
        <time>2018-08-25T09:21:52Z</time>
      </trkpt>
      <trkpt lat="44.53997" lon="6.70221">
        <ele>2099</ele>
        <time>2018-08-25T09:21:54Z</time>
      </trkpt>
      <trkpt lat="44.53976" lon="6.70222">
        <ele>2100.78</ele>
        <time>2018-08-25T09:21:56Z</time>
      </trkpt>
      <trkpt lat="44.53955" lon="6.70228">
        <ele>2103.67</ele>
        <time>2018-08-25T09:21:58Z</time>
      </trkpt>
      <trkpt lat="44.53936" lon="6.70235">
        <ele>2105.05</ele>
        <time>2018-08-25T09:22:00Z</time>
      </trkpt>
      <trkpt lat="44.53914" lon="6.70249">
        <ele>2107.08</ele>
        <time>2018-08-25T09:22:03Z</time>
      </trkpt>
      <trkpt lat="44.53898" lon="6.7026">
        <ele>2110.08</ele>
        <time>2018-08-25T09:22:07Z</time>
      </trkpt>
      <trkpt lat="44.53881" lon="6.7027">
        <ele>2111.12</ele>
        <time>2018-08-25T09:22:12Z</time>
      </trkpt>
      <trkpt lat="44.53865" lon="6.70288">
        <ele>2114.66</ele>
        <time>2018-08-25T09:35:05Z</time>
      </trkpt>
      <trkpt lat="44.53844" lon="6.70292">
        <ele>2111.22</ele>
        <time>2018-08-25T09:35:07Z</time>
      </trkpt>
      <trkpt lat="44.53822" lon="6.70295">
        <ele>2109.79</ele>
        <time>2018-08-25T09:35:09Z</time>
      </trkpt>
      <trkpt lat="44.53797" lon="6.70297">
        <ele>2108.75</ele>
        <time>2018-08-25T09:35:11Z</time>
      </trkpt>
      <trkpt lat="44.53771" lon="6.70296">
        <ele>2107.75</ele>
        <time>2018-08-25T09:35:13Z</time>
      </trkpt>
      <trkpt lat="44.53748" lon="6.70297">
        <ele>2106.75</ele>
        <time>2018-08-25T09:35:15Z</time>
      </trkpt>
      <trkpt lat="44.5373" lon="6.70302">
        <ele>2103.91</ele>
        <time>2018-08-25T09:35:18Z</time>
      </trkpt>
      <trkpt lat="44.53708" lon="6.70314">
        <ele>2102.73</ele>
        <time>2018-08-25T09:35:40Z</time>
      </trkpt>
      <trkpt lat="44.53683" lon="6.70326">
        <ele>2100.55</ele>
        <time>2018-08-25T09:35:43Z</time>
      </trkpt>
      <trkpt lat="44.53664" lon="6.70331">
        <ele>2098.82</ele>
        <time>2018-08-25T09:35:45Z</time>
      </trkpt>
      <trkpt lat="44.53641" lon="6.70334">
        <ele>2095.91</ele>
        <time>2018-08-25T09:35:48Z</time>
      </trkpt>
      <trkpt lat="44.53621" lon="6.7034">
        <ele>2093.06</ele>
        <time>2018-08-25T09:35:51Z</time>
      </trkpt>
      <trkpt lat="44.53601" lon="6.70357">
        <ele>2091.95</ele>
        <time>2018-08-25T09:35:54Z</time>
      </trkpt>
      <trkpt lat="44.53585" lon="6.7038">
        <ele>2089.65</ele>
        <time>2018-08-25T09:35:56Z</time>
      </trkpt>
      <trkpt lat="44.53567" lon="6.70408">
        <ele>2088.74</ele>
        <time>2018-08-25T09:35:58Z</time>
      </trkpt>
      <trkpt lat="44.53547" lon="6.7044">
        <ele>2086.84</ele>
        <time>2018-08-25T09:36:00Z</time>
      </trkpt>
      <trkpt lat="44.53527" lon="6.70468">
        <ele>2085.76</ele>
        <time>2018-08-25T09:36:02Z</time>
      </trkpt>
      <trkpt lat="44.53501" lon="6.70484">
        <ele>2083.84</ele>
        <time>2018-08-25T09:36:04Z</time>
      </trkpt>
      <trkpt lat="44.53473" lon="6.70486">
        <ele>2082.55</ele>
        <time>2018-08-25T09:36:06Z</time>
      </trkpt>
      <trkpt lat="44.53444" lon="6.70471">
        <ele>2077.81</ele>
        <time>2018-08-25T09:36:08Z</time>
      </trkpt>
      <trkpt lat="44.53411" lon="6.70457">
        <ele>2074.03</ele>
        <time>2018-08-25T09:36:10Z</time>
      </trkpt>
      <trkpt lat="44.53391" lon="6.70455">
        <ele>2072.2</ele>
        <time>2018-08-25T09:36:11Z</time>
      </trkpt>
      <trkpt lat="44.53357" lon="6.70464">
        <ele>2065.75</ele>
        <time>2018-08-25T09:36:13Z</time>
      </trkpt>
      <trkpt lat="44.53328" lon="6.70471">
        <ele>2062.23</ele>
        <time>2018-08-25T09:36:15Z</time>
      </trkpt>
      <trkpt lat="44.53307" lon="6.70456">
        <ele>2059.18</ele>
        <time>2018-08-25T09:36:17Z</time>
      </trkpt>
      <trkpt lat="44.53294" lon="6.70423">
        <ele>2055.97</ele>
        <time>2018-08-25T09:36:19Z</time>
      </trkpt>
      <trkpt lat="44.53282" lon="6.70378">
        <ele>2052.46</ele>
        <time>2018-08-25T09:36:21Z</time>
      </trkpt>
      <trkpt lat="44.53263" lon="6.70337">
        <ele>2048.29</ele>
        <time>2018-08-25T09:36:23Z</time>
      </trkpt>
      <trkpt lat="44.53245" lon="6.70296">
        <ele>2044.49</ele>
        <time>2018-08-25T09:36:25Z</time>
      </trkpt>
      <trkpt lat="44.5323" lon="6.7025">
        <ele>2040.3</ele>
        <time>2018-08-25T09:36:27Z</time>
      </trkpt>
      <trkpt lat="44.5322" lon="6.70209">
        <ele>2036.28</ele>
        <time>2018-08-25T09:36:29Z</time>
      </trkpt>
      <trkpt lat="44.53211" lon="6.70175">
        <ele>2033.89</ele>
        <time>2018-08-25T09:36:31Z</time>
      </trkpt>
      <trkpt lat="44.53202" lon="6.70151">
        <ele>2031.85</ele>
        <time>2018-08-25T09:36:33Z</time>
      </trkpt>
      <trkpt lat="44.53182" lon="6.70139">
        <ele>2030.73</ele>
        <time>2018-08-25T09:36:36Z</time>
      </trkpt>
      <trkpt lat="44.53174" lon="6.70165">
        <ele>2029.52</ele>
        <time>2018-08-25T09:36:39Z</time>
      </trkpt>
      <trkpt lat="44.53182" lon="6.7019">
        <ele>2027.82</ele>
        <time>2018-08-25T09:36:41Z</time>
      </trkpt>
      <trkpt lat="44.53196" lon="6.70225">
        <ele>2025.15</ele>
        <time>2018-08-25T09:36:43Z</time>
      </trkpt>
      <trkpt lat="44.5321" lon="6.70271">
        <ele>2021.97</ele>
        <time>2018-08-25T09:36:45Z</time>
      </trkpt>
      <trkpt lat="44.53214" lon="6.70297">
        <ele>2020.88</ele>
        <time>2018-08-25T09:36:46Z</time>
      </trkpt>
      <trkpt lat="44.53215" lon="6.70323">
        <ele>2019.16</ele>
        <time>2018-08-25T09:36:47Z</time>
      </trkpt>
      <trkpt lat="44.53213" lon="6.70349">
        <ele>2017.94</ele>
        <time>2018-08-25T09:36:48Z</time>
      </trkpt>
      <trkpt lat="44.53209" lon="6.70399">
        <ele>2014.95</ele>
        <time>2018-08-25T09:36:50Z</time>
      </trkpt>
      <trkpt lat="44.53206" lon="6.70442">
        <ele>2013.56</ele>
        <time>2018-08-25T09:36:52Z</time>
      </trkpt>
      <trkpt lat="44.53212" lon="6.70482">
        <ele>2012.03</ele>
        <time>2018-08-25T09:36:54Z</time>
      </trkpt>
      <trkpt lat="44.53225" lon="6.70526">
        <ele>2008.96</ele>
        <time>2018-08-25T09:36:56Z</time>
      </trkpt>
      <trkpt lat="44.53229" lon="6.70551">
        <ele>2007.18</ele>
        <time>2018-08-25T09:36:57Z</time>
      </trkpt>
      <trkpt lat="44.5323" lon="6.70578">
        <ele>2005.25</ele>
        <time>2018-08-25T09:36:58Z</time>
      </trkpt>
      <trkpt lat="44.53231" lon="6.70606">
        <ele>2004.67</ele>
        <time>2018-08-25T09:36:59Z</time>
      </trkpt>
      <trkpt lat="44.53229" lon="6.70635">
        <ele>2003.1</ele>
        <time>2018-08-25T09:37:00Z</time>
      </trkpt>
      <trkpt lat="44.53228" lon="6.70663">
        <ele>2001.22</ele>
        <time>2018-08-25T09:37:01Z</time>
      </trkpt>
      <trkpt lat="44.53228" lon="6.7069">
        <ele>1999.26</ele>
        <time>2018-08-25T09:37:02Z</time>
      </trkpt>
      <trkpt lat="44.53231" lon="6.70735">
        <ele>1996.19</ele>
        <time>2018-08-25T09:37:04Z</time>
      </trkpt>
      <trkpt lat="44.53237" lon="6.70764">
        <ele>1995.49</ele>
        <time>2018-08-25T09:37:06Z</time>
      </trkpt>
      <trkpt lat="44.53264" lon="6.70778">
        <ele>1993.12</ele>
        <time>2018-08-25T09:37:08Z</time>
      </trkpt>
      <trkpt lat="44.53283" lon="6.70802">
        <ele>1989.96</ele>
        <time>2018-08-25T09:37:10Z</time>
      </trkpt>
      <trkpt lat="44.53286" lon="6.70837">
        <ele>1986.25</ele>
        <time>2018-08-25T09:37:12Z</time>
      </trkpt>
      <trkpt lat="44.53272" lon="6.70878">
        <ele>1983.89</ele>
        <time>2018-08-25T09:37:14Z</time>
      </trkpt>
      <trkpt lat="44.53247" lon="6.70915">
        <ele>1982.76</ele>
        <time>2018-08-25T09:37:16Z</time>
      </trkpt>
      <trkpt lat="44.53236" lon="6.70936">
        <ele>1981.82</ele>
        <time>2018-08-25T09:37:17Z</time>
      </trkpt>
      <trkpt lat="44.53212" lon="6.70973">
        <ele>1978.03</ele>
        <time>2018-08-25T09:37:19Z</time>
      </trkpt>
      <trkpt lat="44.53194" lon="6.70984">
        <ele>1976.2</ele>
        <time>2018-08-25T09:37:20Z</time>
      </trkpt>
      <trkpt lat="44.53177" lon="6.70997">
        <ele>1974.26</ele>
        <time>2018-08-25T09:37:21Z</time>
      </trkpt>
      <trkpt lat="44.53162" lon="6.71011">
        <ele>1973.67</ele>
        <time>2018-08-25T09:37:22Z</time>
      </trkpt>
      <trkpt lat="44.53147" lon="6.71026">
        <ele>1972.8</ele>
        <time>2018-08-25T09:37:23Z</time>
      </trkpt>
      <trkpt lat="44.53124" lon="6.7106">
        <ele>1963.98</ele>
        <time>2018-08-25T09:37:25Z</time>
      </trkpt>
      <trkpt lat="44.53108" lon="6.71101">
        <ele>1959.34</ele>
        <time>2018-08-25T09:37:27Z</time>
      </trkpt>
      <trkpt lat="44.53104" lon="6.71149">
        <ele>1955.98</ele>
        <time>2018-08-25T09:37:29Z</time>
      </trkpt>
      <trkpt lat="44.53112" lon="6.71196">
        <ele>1953.16</ele>
        <time>2018-08-25T09:37:31Z</time>
      </trkpt>
      <trkpt lat="44.53126" lon="6.71239">
        <ele>1949.27</ele>
        <time>2018-08-25T09:37:33Z</time>
      </trkpt>
      <trkpt lat="44.53135" lon="6.71277">
        <ele>1946.89</ele>
        <time>2018-08-25T09:37:35Z</time>
      </trkpt>
      <trkpt lat="44.53136" lon="6.71313">
        <ele>1945.55</ele>
        <time>2018-08-25T09:37:37Z</time>
      </trkpt>
      <trkpt lat="44.53116" lon="6.71325">
        <ele>1942.99</ele>
        <time>2018-08-25T09:37:40Z</time>
      </trkpt>
      <trkpt lat="44.53096" lon="6.71306">
        <ele>1943.17</ele>
        <time>2018-08-25T09:37:42Z</time>
      </trkpt>
      <trkpt lat="44.53086" lon="6.71278">
        <ele>1941.95</ele>
        <time>2018-08-25T09:37:43Z</time>
      </trkpt>
      <trkpt lat="44.53068" lon="6.71239">
        <ele>1940.18</ele>
        <time>2018-08-25T09:37:44Z</time>
      </trkpt>
      <trkpt lat="44.53059" lon="6.71215">
        <ele>1937.55</ele>
        <time>2018-08-25T09:37:45Z</time>
      </trkpt>
      <trkpt lat="44.53049" lon="6.7119">
        <ele>1934.66</ele>
        <time>2018-08-25T09:37:46Z</time>
      </trkpt>
      <trkpt lat="44.53044" lon="6.71166">
        <ele>1932.39</ele>
        <time>2018-08-25T09:37:47Z</time>
      </trkpt>
      <trkpt lat="44.53041" lon="6.71141">
        <ele>1929.61</ele>
        <time>2018-08-25T09:37:48Z</time>
      </trkpt>
      <trkpt lat="44.53046" lon="6.71096">
        <ele>1925.1</ele>
        <time>2018-08-25T09:37:50Z</time>
      </trkpt>
      <trkpt lat="44.53057" lon="6.71068">
        <ele>1923.57</ele>
        <time>2018-08-25T09:37:52Z</time>
      </trkpt>
      <trkpt lat="44.53071" lon="6.71043">
        <ele>1921.48</ele>
        <time>2018-08-25T09:37:55Z</time>
      </trkpt>
      <trkpt lat="44.53082" lon="6.7102">
        <ele>1918.73</ele>
        <time>2018-08-25T09:38:00Z</time>
      </trkpt>
      <trkpt lat="44.53072" lon="6.70991">
        <ele>1917.45</ele>
        <time>2018-08-25T09:38:04Z</time>
      </trkpt>
      <trkpt lat="44.53048" lon="6.71008">
        <ele>1916.51</ele>
        <time>2018-08-25T09:38:07Z</time>
      </trkpt>
      <trkpt lat="44.53038" lon="6.71037">
        <ele>1915.03</ele>
        <time>2018-08-25T09:38:09Z</time>
      </trkpt>
      <trkpt lat="44.53023" lon="6.71067">
        <ele>1911.75</ele>
        <time>2018-08-25T09:38:11Z</time>
      </trkpt>
      <trkpt lat="44.53004" lon="6.71097">
        <ele>1910.75</ele>
        <time>2018-08-25T09:38:13Z</time>
      </trkpt>
      <trkpt lat="44.52982" lon="6.71128">
        <ele>1909.54</ele>
        <time>2018-08-25T09:38:15Z</time>
      </trkpt>
      <trkpt lat="44.52965" lon="6.71162">
        <ele>1906.42</ele>
        <time>2018-08-25T09:38:17Z</time>
      </trkpt>
      <trkpt lat="44.52954" lon="6.71201">
        <ele>1902.29</ele>
        <time>2018-08-25T09:38:19Z</time>
      </trkpt>
      <trkpt lat="44.52947" lon="6.71243">
        <ele>1898.98</ele>
        <time>2018-08-25T09:38:21Z</time>
      </trkpt>
      <trkpt lat="44.52947" lon="6.71284">
        <ele>1896.16</ele>
        <time>2018-08-25T09:38:23Z</time>
      </trkpt>
      <trkpt lat="44.52956" lon="6.71323">
        <ele>1891.36</ele>
        <time>2018-08-25T09:38:25Z</time>
      </trkpt>
      <trkpt lat="44.52959" lon="6.71362">
        <ele>1887.29</ele>
        <time>2018-08-25T09:38:27Z</time>
      </trkpt>
      <trkpt lat="44.5295" lon="6.714">
        <ele>1883.28</ele>
        <time>2018-08-25T09:38:29Z</time>
      </trkpt>
      <trkpt lat="44.52944" lon="6.71441">
        <ele>1880.19</ele>
        <time>2018-08-25T09:38:31Z</time>
      </trkpt>
      <trkpt lat="44.52941" lon="6.71489">
        <ele>1876.97</ele>
        <time>2018-08-25T09:38:33Z</time>
      </trkpt>
      <trkpt lat="44.52938" lon="6.71515">
        <ele>1875.19</ele>
        <time>2018-08-25T09:38:34Z</time>
      </trkpt>
      <trkpt lat="44.52936" lon="6.7154">
        <ele>1873.25</ele>
        <time>2018-08-25T09:38:35Z</time>
      </trkpt>
      <trkpt lat="44.52933" lon="6.71566">
        <ele>1871.27</ele>
        <time>2018-08-25T09:38:36Z</time>
      </trkpt>
      <trkpt lat="44.52929" lon="6.71612">
        <ele>1869.1</ele>
        <time>2018-08-25T09:38:38Z</time>
      </trkpt>
      <trkpt lat="44.52931" lon="6.7166">
        <ele>1865.26</ele>
        <time>2018-08-25T09:38:40Z</time>
      </trkpt>
      <trkpt lat="44.52936" lon="6.71704">
        <ele>1861.28</ele>
        <time>2018-08-25T09:38:42Z</time>
      </trkpt>
      <trkpt lat="44.52931" lon="6.71749">
        <ele>1857.49</ele>
        <time>2018-08-25T09:38:44Z</time>
      </trkpt>
      <trkpt lat="44.52924" lon="6.71798">
        <ele>1853.3</ele>
        <time>2018-08-25T09:38:46Z</time>
      </trkpt>
      <trkpt lat="44.52921" lon="6.71823">
        <ele>1850.58</ele>
        <time>2018-08-25T09:38:47Z</time>
      </trkpt>
      <trkpt lat="44.52919" lon="6.71849">
        <ele>1848.37</ele>
        <time>2018-08-25T09:38:48Z</time>
      </trkpt>
      <trkpt lat="44.52917" lon="6.71875">
        <ele>1846.31</ele>
        <time>2018-08-25T09:38:49Z</time>
      </trkpt>
      <trkpt lat="44.52914" lon="6.71901">
        <ele>1844.99</ele>
        <time>2018-08-25T09:38:50Z</time>
      </trkpt>
      <trkpt lat="44.5291" lon="6.71927">
        <ele>1842.49</ele>
        <time>2018-08-25T09:38:51Z</time>
      </trkpt>
      <trkpt lat="44.52906" lon="6.71953">
        <ele>1840.34</ele>
        <time>2018-08-25T09:38:52Z</time>
      </trkpt>
      <trkpt lat="44.52903" lon="6.71979">
        <ele>1838.3</ele>
        <time>2018-08-25T09:38:53Z</time>
      </trkpt>
      <trkpt lat="44.529" lon="6.72006">
        <ele>1836.28</ele>
        <time>2018-08-25T09:38:54Z</time>
      </trkpt>
      <trkpt lat="44.52898" lon="6.72032">
        <ele>1834.28</ele>
        <time>2018-08-25T09:38:55Z</time>
      </trkpt>
      <trkpt lat="44.52895" lon="6.72059">
        <ele>1832.28</ele>
        <time>2018-08-25T09:38:56Z</time>
      </trkpt>
      <trkpt lat="44.52891" lon="6.72084">
        <ele>1830.28</ele>
        <time>2018-08-25T09:38:57Z</time>
      </trkpt>
      <trkpt lat="44.52886" lon="6.7211">
        <ele>1827.58</ele>
        <time>2018-08-25T09:38:58Z</time>
      </trkpt>
      <trkpt lat="44.52881" lon="6.72158">
        <ele>1822.4</ele>
        <time>2018-08-25T09:39:00Z</time>
      </trkpt>
      <trkpt lat="44.52883" lon="6.72198">
        <ele>1819.9</ele>
        <time>2018-08-25T09:39:02Z</time>
      </trkpt>
      <trkpt lat="44.52876" lon="6.72222">
        <ele>1817.85</ele>
        <time>2018-08-25T09:39:04Z</time>
      </trkpt>
      <trkpt lat="44.52855" lon="6.72218">
        <ele>1814.79</ele>
        <time>2018-08-25T09:39:07Z</time>
      </trkpt>
      <trkpt lat="44.52863" lon="6.72183">
        <ele>1812.14</ele>
        <time>2018-08-25T09:39:09Z</time>
      </trkpt>
      <trkpt lat="44.52861" lon="6.72142">
        <ele>1808.97</ele>
        <time>2018-08-25T09:39:11Z</time>
      </trkpt>
      <trkpt lat="44.52854" lon="6.72094">
        <ele>1805.95</ele>
        <time>2018-08-25T09:39:13Z</time>
      </trkpt>
      <trkpt lat="44.52852" lon="6.72066">
        <ele>1803.48</ele>
        <time>2018-08-25T09:39:14Z</time>
      </trkpt>
      <trkpt lat="44.52848" lon="6.72039">
        <ele>1801.34</ele>
        <time>2018-08-25T09:39:15Z</time>
      </trkpt>
      <trkpt lat="44.52843" lon="6.7201">
        <ele>1798.6</ele>
        <time>2018-08-25T09:39:16Z</time>
      </trkpt>
      <trkpt lat="44.52838" lon="6.71982">
        <ele>1796.37</ele>
        <time>2018-08-25T09:39:17Z</time>
      </trkpt>
      <trkpt lat="44.52833" lon="6.71953">
        <ele>1793.61</ele>
        <time>2018-08-25T09:39:18Z</time>
      </trkpt>
      <trkpt lat="44.52827" lon="6.71924">
        <ele>1790.68</ele>
        <time>2018-08-25T09:39:19Z</time>
      </trkpt>
      <trkpt lat="44.52821" lon="6.71897">
        <ele>1788.4</ele>
        <time>2018-08-25T09:39:20Z</time>
      </trkpt>
      <trkpt lat="44.52814" lon="6.7187">
        <ele>1786.31</ele>
        <time>2018-08-25T09:39:21Z</time>
      </trkpt>
      <trkpt lat="44.52808" lon="6.71844">
        <ele>1784.29</ele>
        <time>2018-08-25T09:39:22Z</time>
      </trkpt>
      <trkpt lat="44.52804" lon="6.71797">
        <ele>1779.37</ele>
        <time>2018-08-25T09:39:24Z</time>
      </trkpt>
      <trkpt lat="44.52804" lon="6.71757">
        <ele>1775.99</ele>
        <time>2018-08-25T09:39:26Z</time>
      </trkpt>
      <trkpt lat="44.52792" lon="6.7172">
        <ele>1773.16</ele>
        <time>2018-08-25T09:39:28Z</time>
      </trkpt>
      <trkpt lat="44.52771" lon="6.71688">
        <ele>1770.67</ele>
        <time>2018-08-25T09:39:30Z</time>
      </trkpt>
      <trkpt lat="44.52757" lon="6.71649">
        <ele>1769.04</ele>
        <time>2018-08-25T09:39:32Z</time>
      </trkpt>
      <trkpt lat="44.52742" lon="6.71605">
        <ele>1765.47</ele>
        <time>2018-08-25T09:39:34Z</time>
      </trkpt>
      <trkpt lat="44.52725" lon="6.71564">
        <ele>1759.9</ele>
        <time>2018-08-25T09:39:36Z</time>
      </trkpt>
      <trkpt lat="44.52718" lon="6.71526">
        <ele>1755.33</ele>
        <time>2018-08-25T09:39:38Z</time>
      </trkpt>
      <trkpt lat="44.52702" lon="6.71501">
        <ele>1752.56</ele>
        <time>2018-08-25T09:39:41Z</time>
      </trkpt>
      <trkpt lat="44.52691" lon="6.71529">
        <ele>1750.11</ele>
        <time>2018-08-25T09:39:44Z</time>
      </trkpt>
      <trkpt lat="44.52694" lon="6.71564">
        <ele>1747.17</ele>
        <time>2018-08-25T09:39:46Z</time>
      </trkpt>
      <trkpt lat="44.52693" lon="6.7161">
        <ele>1743.48</ele>
        <time>2018-08-25T09:39:48Z</time>
      </trkpt>
      <trkpt lat="44.52693" lon="6.71636">
        <ele>1742.04</ele>
        <time>2018-08-25T09:39:49Z</time>
      </trkpt>
      <trkpt lat="44.52692" lon="6.71664">
        <ele>1740.91</ele>
        <time>2018-08-25T09:39:50Z</time>
      </trkpt>
      <trkpt lat="44.52691" lon="6.71693">
        <ele>1739.87</ele>
        <time>2018-08-25T09:39:51Z</time>
      </trkpt>
      <trkpt lat="44.52684" lon="6.71734">
        <ele>1736.94</ele>
        <time>2018-08-25T09:39:53Z</time>
      </trkpt>
      <trkpt lat="44.52687" lon="6.71762">
        <ele>1734.86</ele>
        <time>2018-08-25T09:39:55Z</time>
      </trkpt>
      <trkpt lat="44.52705" lon="6.71788">
        <ele>1732.15</ele>
        <time>2018-08-25T09:39:57Z</time>
      </trkpt>
      <trkpt lat="44.52697" lon="6.71817">
        <ele>1727.88</ele>
        <time>2018-08-25T09:40:00Z</time>
      </trkpt>
      <trkpt lat="44.52677" lon="6.71829">
        <ele>1723.54</ele>
        <time>2018-08-25T09:40:02Z</time>
      </trkpt>
      <trkpt lat="44.5266" lon="6.71855">
        <ele>1720</ele>
        <time>2018-08-25T09:40:04Z</time>
      </trkpt>
      <trkpt lat="44.52643" lon="6.71893">
        <ele>1720.17</ele>
        <time>2018-08-25T09:40:06Z</time>
      </trkpt>
      <trkpt lat="44.52636" lon="6.71924">
        <ele>1720.35</ele>
        <time>2018-08-25T09:40:07Z</time>
      </trkpt>
      <trkpt lat="44.52629" lon="6.71956">
        <ele>1716.9</ele>
        <time>2018-08-25T09:40:08Z</time>
      </trkpt>
      <trkpt lat="44.52619" lon="6.71985">
        <ele>1714.46</ele>
        <time>2018-08-25T09:40:09Z</time>
      </trkpt>
      <trkpt lat="44.52609" lon="6.72011">
        <ele>1711.63</ele>
        <time>2018-08-25T09:40:10Z</time>
      </trkpt>
      <trkpt lat="44.52599" lon="6.72038">
        <ele>1708.68</ele>
        <time>2018-08-25T09:40:11Z</time>
      </trkpt>
      <trkpt lat="44.52592" lon="6.72069">
        <ele>1706.4</ele>
        <time>2018-08-25T09:40:12Z</time>
      </trkpt>
      <trkpt lat="44.52585" lon="6.72101">
        <ele>1703.61</ele>
        <time>2018-08-25T09:40:13Z</time>
      </trkpt>
      <trkpt lat="44.52577" lon="6.7213">
        <ele>1700.68</ele>
        <time>2018-08-25T09:40:14Z</time>
      </trkpt>
      <trkpt lat="44.5257" lon="6.7216">
        <ele>1697.7</ele>
        <time>2018-08-25T09:40:15Z</time>
      </trkpt>
      <trkpt lat="44.52564" lon="6.7219">
        <ele>1696.8</ele>
        <time>2018-08-25T09:40:16Z</time>
      </trkpt>
      <trkpt lat="44.52557" lon="6.72219">
        <ele>1693.04</ele>
        <time>2018-08-25T09:40:17Z</time>
      </trkpt>
      <trkpt lat="44.52549" lon="6.72248">
        <ele>1690.51</ele>
        <time>2018-08-25T09:40:18Z</time>
      </trkpt>
      <trkpt lat="44.52544" lon="6.72277">
        <ele>1687.65</ele>
        <time>2018-08-25T09:40:19Z</time>
      </trkpt>
      <trkpt lat="44.5254" lon="6.72305">
        <ele>1685.39</ele>
        <time>2018-08-25T09:40:20Z</time>
      </trkpt>
      <trkpt lat="44.52536" lon="6.72331">
        <ele>1684.01</ele>
        <time>2018-08-25T09:40:21Z</time>
      </trkpt>
      <trkpt lat="44.52531" lon="6.72378">
        <ele>1681.86</ele>
        <time>2018-08-25T09:40:23Z</time>
      </trkpt>
      <trkpt lat="44.52537" lon="6.72429">
        <ele>1680.76</ele>
        <time>2018-08-25T09:40:25Z</time>
      </trkpt>
      <trkpt lat="44.5254" lon="6.72457">
        <ele>1679.12</ele>
        <time>2018-08-25T09:40:26Z</time>
      </trkpt>
      <trkpt lat="44.5254" lon="6.72484">
        <ele>1678.63</ele>
        <time>2018-08-25T09:40:27Z</time>
      </trkpt>
      <trkpt lat="44.52539" lon="6.72509">
        <ele>1677.78</ele>
        <time>2018-08-25T09:40:28Z</time>
      </trkpt>
      <trkpt lat="44.52547" lon="6.72556">
        <ele>1676.75</ele>
        <time>2018-08-25T09:40:30Z</time>
      </trkpt>
      <trkpt lat="44.52559" lon="6.72597">
        <ele>1674.84</ele>
        <time>2018-08-25T09:40:32Z</time>
      </trkpt>
      <trkpt lat="44.52576" lon="6.72621">
        <ele>1674.46</ele>
        <time>2018-08-25T09:40:34Z</time>
      </trkpt>
      <trkpt lat="44.5261" lon="6.72612">
        <ele>1673.93</ele>
        <time>2018-08-25T09:40:36Z</time>
      </trkpt>
      <trkpt lat="44.5263" lon="6.72613">
        <ele>1672.77</ele>
        <time>2018-08-25T09:40:38Z</time>
      </trkpt>
      <trkpt lat="44.52636" lon="6.72641">
        <ele>1671.03</ele>
        <time>2018-08-25T09:40:41Z</time>
      </trkpt>
      <trkpt lat="44.52623" lon="6.72658">
        <ele>1670.6</ele>
        <time>2018-08-25T09:40:42Z</time>
      </trkpt>
      <trkpt lat="44.52608" lon="6.72679">
        <ele>1669.78</ele>
        <time>2018-08-25T09:40:43Z</time>
      </trkpt>
      <trkpt lat="44.52578" lon="6.72692">
        <ele>1669.45</ele>
        <time>2018-08-25T09:40:45Z</time>
      </trkpt>
      <trkpt lat="44.52551" lon="6.72701">
        <ele>1667.81</ele>
        <time>2018-08-25T09:40:47Z</time>
      </trkpt>
      <trkpt lat="44.52531" lon="6.72723">
        <ele>1668.37</ele>
        <time>2018-08-25T09:40:49Z</time>
      </trkpt>
      <trkpt lat="44.52526" lon="6.7278">
        <ele>1669.12</ele>
        <time>2018-08-25T09:40:51Z</time>
      </trkpt>
      <trkpt lat="44.52521" lon="6.72805">
        <ele>1668.63</ele>
        <time>2018-08-25T09:40:52Z</time>
      </trkpt>
      <trkpt lat="44.52508" lon="6.7285">
        <ele>1667.74</ele>
        <time>2018-08-25T09:40:54Z</time>
      </trkpt>
      <trkpt lat="44.52505" lon="6.72886">
        <ele>1666.54</ele>
        <time>2018-08-25T09:40:56Z</time>
      </trkpt>
      <trkpt lat="44.52504" lon="6.72929">
        <ele>1666.43</ele>
        <time>2018-08-25T09:40:58Z</time>
      </trkpt>
      <trkpt lat="44.52504" lon="6.72975">
        <ele>1666.42</ele>
        <time>2018-08-25T09:41:00Z</time>
      </trkpt>
      <trkpt lat="44.52506" lon="6.73026">
        <ele>1665.72</ele>
        <time>2018-08-25T09:41:02Z</time>
      </trkpt>
      <trkpt lat="44.52504" lon="6.73052">
        <ele>1665.51</ele>
        <time>2018-08-25T09:41:03Z</time>
      </trkpt>
      <trkpt lat="44.52498" lon="6.731">
        <ele>1665.43</ele>
        <time>2018-08-25T09:41:05Z</time>
      </trkpt>
      <trkpt lat="44.52492" lon="6.73145">
        <ele>1664.51</ele>
        <time>2018-08-25T09:41:07Z</time>
      </trkpt>
      <trkpt lat="44.52489" lon="6.73187">
        <ele>1663.52</ele>
        <time>2018-08-25T09:41:09Z</time>
      </trkpt>
      <trkpt lat="44.52484" lon="6.73221">
        <ele>1661.61</ele>
        <time>2018-08-25T09:41:11Z</time>
      </trkpt>
      <trkpt lat="44.52465" lon="6.73239">
        <ele>1659.83</ele>
        <time>2018-08-25T09:41:13Z</time>
      </trkpt>
      <trkpt lat="44.52441" lon="6.7325">
        <ele>1660.37</ele>
        <time>2018-08-25T09:41:15Z</time>
      </trkpt>
      <trkpt lat="44.52413" lon="6.73258">
        <ele>1657.41</ele>
        <time>2018-08-25T09:41:17Z</time>
      </trkpt>
      <trkpt lat="44.52386" lon="6.73279">
        <ele>1653.5</ele>
        <time>2018-08-25T09:41:19Z</time>
      </trkpt>
      <trkpt lat="44.52364" lon="6.73309">
        <ele>1650</ele>
        <time>2018-08-25T09:41:21Z</time>
      </trkpt>
      <trkpt lat="44.52346" lon="6.73342">
        <ele>1646.25</ele>
        <time>2018-08-25T09:41:23Z</time>
      </trkpt>
      <trkpt lat="44.52332" lon="6.73377">
        <ele>1642.28</ele>
        <time>2018-08-25T09:41:25Z</time>
      </trkpt>
      <trkpt lat="44.52325" lon="6.73413">
        <ele>1639.89</ele>
        <time>2018-08-25T09:41:27Z</time>
      </trkpt>
      <trkpt lat="44.52324" lon="6.73446">
        <ele>1638.55</ele>
        <time>2018-08-25T09:41:29Z</time>
      </trkpt>
      <trkpt lat="44.52328" lon="6.73475">
        <ele>1638.43</ele>
        <time>2018-08-25T09:41:31Z</time>
      </trkpt>
      <trkpt lat="44.52336" lon="6.7351">
        <ele>1638.42</ele>
        <time>2018-08-25T09:41:34Z</time>
      </trkpt>
      <trkpt lat="44.52334" lon="6.73535">
        <ele>1637.93</ele>
        <time>2018-08-25T09:41:36Z</time>
      </trkpt>
      <trkpt lat="44.52327" lon="6.73576">
        <ele>1634.95</ele>
        <time>2018-08-25T09:41:38Z</time>
      </trkpt>
      <trkpt lat="44.52321" lon="6.73602">
        <ele>1633.18</ele>
        <time>2018-08-25T09:41:39Z</time>
      </trkpt>
      <trkpt lat="44.52314" lon="6.73626">
        <ele>1631.95</ele>
        <time>2018-08-25T09:41:40Z</time>
      </trkpt>
      <trkpt lat="44.52304" lon="6.73672">
        <ele>1628.95</ele>
        <time>2018-08-25T09:41:42Z</time>
      </trkpt>
      <trkpt lat="44.52296" lon="6.73713">
        <ele>1627.56</ele>
        <time>2018-08-25T09:41:44Z</time>
      </trkpt>
      <trkpt lat="44.52296" lon="6.73755">
        <ele>1625.82</ele>
        <time>2018-08-25T09:41:46Z</time>
      </trkpt>
      <trkpt lat="44.52302" lon="6.7378">
        <ele>1624.14</ele>
        <time>2018-08-25T09:41:47Z</time>
      </trkpt>
      <trkpt lat="44.52307" lon="6.73807">
        <ele>1622.24</ele>
        <time>2018-08-25T09:41:48Z</time>
      </trkpt>
      <trkpt lat="44.52311" lon="6.73833">
        <ele>1620.27</ele>
        <time>2018-08-25T09:41:49Z</time>
      </trkpt>
      <trkpt lat="44.52312" lon="6.73859">
        <ele>1619.67</ele>
        <time>2018-08-25T09:41:50Z</time>
      </trkpt>
      <trkpt lat="44.523" lon="6.73905">
        <ele>1616.92</ele>
        <time>2018-08-25T09:41:52Z</time>
      </trkpt>
      <trkpt lat="44.5228" lon="6.73941">
        <ele>1614.86</ele>
        <time>2018-08-25T09:41:54Z</time>
      </trkpt>
      <trkpt lat="44.52253" lon="6.73962">
        <ele>1614.46</ele>
        <time>2018-08-25T09:41:56Z</time>
      </trkpt>
      <trkpt lat="44.52233" lon="6.73965">
        <ele>1614.43</ele>
        <time>2018-08-25T09:41:57Z</time>
      </trkpt>
      <trkpt lat="44.5221" lon="6.73961">
        <ele>1612.32</ele>
        <time>2018-08-25T09:41:58Z</time>
      </trkpt>
      <trkpt lat="44.52183" lon="6.73989">
        <ele>1608.98</ele>
        <time>2018-08-25T09:42:00Z</time>
      </trkpt>
      <trkpt lat="44.52172" lon="6.74011">
        <ele>1607.89</ele>
        <time>2018-08-25T09:42:01Z</time>
      </trkpt>
      <trkpt lat="44.5216" lon="6.74032">
        <ele>1606.86</ele>
        <time>2018-08-25T09:42:02Z</time>
      </trkpt>
      <trkpt lat="44.52137" lon="6.74064">
        <ele>1603.03</ele>
        <time>2018-08-25T09:42:04Z</time>
      </trkpt>
      <trkpt lat="44.52113" lon="6.74085">
        <ele>1600.66</ele>
        <time>2018-08-25T09:42:06Z</time>
      </trkpt>
      <trkpt lat="44.52074" lon="6.74071">
        <ele>1600.44</ele>
        <time>2018-08-25T09:42:08Z</time>
      </trkpt>
      <trkpt lat="44.52055" lon="6.74063">
        <ele>1600.43</ele>
        <time>2018-08-25T09:42:09Z</time>
      </trkpt>
      <trkpt lat="44.52028" lon="6.7406">
        <ele>1602.03</ele>
        <time>2018-08-25T09:42:11Z</time>
      </trkpt>
      <trkpt lat="44.52009" lon="6.74098">
        <ele>1599.17</ele>
        <time>2018-08-25T09:42:13Z</time>
      </trkpt>
      <trkpt lat="44.52007" lon="6.74131">
        <ele>1596.18</ele>
        <time>2018-08-25T09:42:15Z</time>
      </trkpt>
      <trkpt lat="44.52017" lon="6.74174">
        <ele>1592.27</ele>
        <time>2018-08-25T09:42:17Z</time>
      </trkpt>
      <trkpt lat="44.52022" lon="6.74201">
        <ele>1590.98</ele>
        <time>2018-08-25T09:42:18Z</time>
      </trkpt>
      <trkpt lat="44.52026" lon="6.74229">
        <ele>1589.89</ele>
        <time>2018-08-25T09:42:19Z</time>
      </trkpt>
      <trkpt lat="44.5203" lon="6.74255">
        <ele>1588.16</ele>
        <time>2018-08-25T09:42:20Z</time>
      </trkpt>
      <trkpt lat="44.52032" lon="6.74282">
        <ele>1586.24</ele>
        <time>2018-08-25T09:42:21Z</time>
      </trkpt>
      <trkpt lat="44.52031" lon="6.74308">
        <ele>1584.27</ele>
        <time>2018-08-25T09:42:22Z</time>
      </trkpt>
      <trkpt lat="44.52026" lon="6.74335">
        <ele>1582.97</ele>
        <time>2018-08-25T09:42:23Z</time>
      </trkpt>
      <trkpt lat="44.52017" lon="6.74359">
        <ele>1581.19</ele>
        <time>2018-08-25T09:42:24Z</time>
      </trkpt>
      <trkpt lat="44.52005" lon="6.7438">
        <ele>1579.25</ele>
        <time>2018-08-25T09:42:25Z</time>
      </trkpt>
      <trkpt lat="44.51993" lon="6.74401">
        <ele>1577.97</ele>
        <time>2018-08-25T09:42:26Z</time>
      </trkpt>
      <trkpt lat="44.51978" lon="6.7442">
        <ele>1576.89</ele>
        <time>2018-08-25T09:42:27Z</time>
      </trkpt>
      <trkpt lat="44.51956" lon="6.74435">
        <ele>1574.46</ele>
        <time>2018-08-25T09:42:28Z</time>
      </trkpt>
      <trkpt lat="44.51937" lon="6.74452">
        <ele>1572.33</ele>
        <time>2018-08-25T09:42:29Z</time>
      </trkpt>
      <trkpt lat="44.51917" lon="6.74468">
        <ele>1569.59</ele>
        <time>2018-08-25T09:42:30Z</time>
      </trkpt>
      <trkpt lat="44.51899" lon="6.74485">
        <ele>1566.67</ele>
        <time>2018-08-25T09:42:31Z</time>
      </trkpt>
      <trkpt lat="44.51881" lon="6.74501">
        <ele>1564.4</ele>
        <time>2018-08-25T09:42:32Z</time>
      </trkpt>
      <trkpt lat="44.51863" lon="6.74515">
        <ele>1563.01</ele>
        <time>2018-08-25T09:42:33Z</time>
      </trkpt>
      <trkpt lat="44.51847" lon="6.7453">
        <ele>1561.2</ele>
        <time>2018-08-25T09:42:34Z</time>
      </trkpt>
      <trkpt lat="44.51831" lon="6.74545">
        <ele>1560.65</ele>
        <time>2018-08-25T09:42:35Z</time>
      </trkpt>
      <trkpt lat="44.51817" lon="6.74563">
        <ele>1558.39</ele>
        <time>2018-08-25T09:42:36Z</time>
      </trkpt>
      <trkpt lat="44.51803" lon="6.74584">
        <ele>1555.61</ele>
        <time>2018-08-25T09:42:37Z</time>
      </trkpt>
      <trkpt lat="44.51788" lon="6.7461">
        <ele>1553.38</ele>
        <time>2018-08-25T09:42:38Z</time>
      </trkpt>
      <trkpt lat="44.51772" lon="6.74638">
        <ele>1552.01</ele>
        <time>2018-08-25T09:42:39Z</time>
      </trkpt>
      <trkpt lat="44.51757" lon="6.74668">
        <ele>1548.8</ele>
        <time>2018-08-25T09:42:40Z</time>
      </trkpt>
      <trkpt lat="44.51741" lon="6.74698">
        <ele>1546.43</ele>
        <time>2018-08-25T09:42:41Z</time>
      </trkpt>
      <trkpt lat="44.51729" lon="6.74727">
        <ele>1544.32</ele>
        <time>2018-08-25T09:42:42Z</time>
      </trkpt>
      <trkpt lat="44.5172" lon="6.74755">
        <ele>1541.59</ele>
        <time>2018-08-25T09:42:43Z</time>
      </trkpt>
      <trkpt lat="44.51713" lon="6.74785">
        <ele>1539.37</ele>
        <time>2018-08-25T09:42:44Z</time>
      </trkpt>
      <trkpt lat="44.51708" lon="6.74816">
        <ele>1537.31</ele>
        <time>2018-08-25T09:42:45Z</time>
      </trkpt>
      <trkpt lat="44.51706" lon="6.74849">
        <ele>1534.59</ele>
        <time>2018-08-25T09:42:46Z</time>
      </trkpt>
      <trkpt lat="44.51705" lon="6.74882">
        <ele>1532.37</ele>
        <time>2018-08-25T09:42:47Z</time>
      </trkpt>
      <trkpt lat="44.51708" lon="6.74915">
        <ele>1529.61</ele>
        <time>2018-08-25T09:42:48Z</time>
      </trkpt>
      <trkpt lat="44.51716" lon="6.74947">
        <ele>1528.08</ele>
        <time>2018-08-25T09:42:49Z</time>
      </trkpt>
      <trkpt lat="44.51725" lon="6.74977">
        <ele>1526.22</ele>
        <time>2018-08-25T09:42:50Z</time>
      </trkpt>
      <trkpt lat="44.51736" lon="6.75007">
        <ele>1524.41</ele>
        <time>2018-08-25T09:42:51Z</time>
      </trkpt>
      <trkpt lat="44.51748" lon="6.75036">
        <ele>1521.77</ele>
        <time>2018-08-25T09:42:52Z</time>
      </trkpt>
      <trkpt lat="44.51759" lon="6.75063">
        <ele>1519.58</ele>
        <time>2018-08-25T09:42:53Z</time>
      </trkpt>
      <trkpt lat="44.5177" lon="6.7509">
        <ele>1518.22</ele>
        <time>2018-08-25T09:42:54Z</time>
      </trkpt>
      <trkpt lat="44.51781" lon="6.75115">
        <ele>1516.41</ele>
        <time>2018-08-25T09:42:55Z</time>
      </trkpt>
      <trkpt lat="44.51789" lon="6.75138">
        <ele>1514.47</ele>
        <time>2018-08-25T09:42:56Z</time>
      </trkpt>
      <trkpt lat="44.518" lon="6.75176">
        <ele>1510.49</ele>
        <time>2018-08-25T09:42:58Z</time>
      </trkpt>
      <trkpt lat="44.51801" lon="6.75212">
        <ele>1509.02</ele>
        <time>2018-08-25T09:43:00Z</time>
      </trkpt>
      <trkpt lat="44.51798" lon="6.75246">
        <ele>1506.36</ele>
        <time>2018-08-25T09:43:02Z</time>
      </trkpt>
      <trkpt lat="44.51788" lon="6.75269">
        <ele>1503.4</ele>
        <time>2018-08-25T09:43:04Z</time>
      </trkpt>
      <trkpt lat="44.51763" lon="6.75267">
        <ele>1501.69</ele>
        <time>2018-08-25T09:43:07Z</time>
      </trkpt>
      <trkpt lat="44.51761" lon="6.75234">
        <ele>1500.94</ele>
        <time>2018-08-25T09:43:09Z</time>
      </trkpt>
      <trkpt lat="44.5176" lon="6.75198">
        <ele>1499.06</ele>
        <time>2018-08-25T09:43:11Z</time>
      </trkpt>
      <trkpt lat="44.51751" lon="6.7516">
        <ele>1497.07</ele>
        <time>2018-08-25T09:43:13Z</time>
      </trkpt>
      <trkpt lat="44.51733" lon="6.7513">
        <ele>1495.07</ele>
        <time>2018-08-25T09:43:15Z</time>
      </trkpt>
      <trkpt lat="44.51709" lon="6.7511">
        <ele>1493.07</ele>
        <time>2018-08-25T09:43:17Z</time>
      </trkpt>
      <trkpt lat="44.51679" lon="6.75098">
        <ele>1489.67</ele>
        <time>2018-08-25T09:43:19Z</time>
      </trkpt>
      <trkpt lat="44.5165" lon="6.75091">
        <ele>1488.03</ele>
        <time>2018-08-25T09:43:21Z</time>
      </trkpt>
      <trkpt lat="44.51622" lon="6.75085">
        <ele>1486.07</ele>
        <time>2018-08-25T09:43:23Z</time>
      </trkpt>
      <trkpt lat="44.51595" lon="6.75077">
        <ele>1483.16</ele>
        <time>2018-08-25T09:43:25Z</time>
      </trkpt>
      <trkpt lat="44.51568" lon="6.7506">
        <ele>1481.29</ele>
        <time>2018-08-25T09:43:27Z</time>
      </trkpt>
      <trkpt lat="44.51544" lon="6.75037">
        <ele>1478.18</ele>
        <time>2018-08-25T09:43:29Z</time>
      </trkpt>
      <trkpt lat="44.51523" lon="6.7501">
        <ele>1475.38</ele>
        <time>2018-08-25T09:43:31Z</time>
      </trkpt>
      <trkpt lat="44.51505" lon="6.74978">
        <ele>1473.11</ele>
        <time>2018-08-25T09:43:33Z</time>
      </trkpt>
      <trkpt lat="44.5149" lon="6.74944">
        <ele>1470.17</ele>
        <time>2018-08-25T09:43:35Z</time>
      </trkpt>
      <trkpt lat="44.51478" lon="6.74915">
        <ele>1467.88</ele>
        <time>2018-08-25T09:43:37Z</time>
      </trkpt>
      <trkpt lat="44.51465" lon="6.74884">
        <ele>1464.85</ele>
        <time>2018-08-25T09:43:40Z</time>
      </trkpt>
      <trkpt lat="44.51459" lon="6.74847">
        <ele>1462.85</ele>
        <time>2018-08-25T09:43:42Z</time>
      </trkpt>
      <trkpt lat="44.51459" lon="6.74822">
        <ele>1461.85</ele>
        <time>2018-08-25T09:43:43Z</time>
      </trkpt>
      <trkpt lat="44.51462" lon="6.74792">
        <ele>1461.55</ele>
        <time>2018-08-25T09:43:44Z</time>
      </trkpt>
      <trkpt lat="44.51466" lon="6.74761">
        <ele>1460.76</ele>
        <time>2018-08-25T09:43:45Z</time>
      </trkpt>
      <trkpt lat="44.51469" lon="6.74732">
        <ele>1460.52</ele>
        <time>2018-08-25T09:43:46Z</time>
      </trkpt>
      <trkpt lat="44.51472" lon="6.74704">
        <ele>1460.45</ele>
        <time>2018-08-25T09:43:47Z</time>
      </trkpt>
      <trkpt lat="44.51484" lon="6.74657">
        <ele>1459.51</ele>
        <time>2018-08-25T09:43:49Z</time>
      </trkpt>
      <trkpt lat="44.51495" lon="6.74635">
        <ele>1460.15</ele>
        <time>2018-08-25T09:43:50Z</time>
      </trkpt>
      <trkpt lat="44.51508" lon="6.74614">
        <ele>1460.34</ele>
        <time>2018-08-25T09:43:51Z</time>
      </trkpt>
      <trkpt lat="44.51519" lon="6.74593">
        <ele>1459.7</ele>
        <time>2018-08-25T09:43:52Z</time>
      </trkpt>
      <trkpt lat="44.51528" lon="6.7457">
        <ele>1459.5</ele>
        <time>2018-08-25T09:43:53Z</time>
      </trkpt>
      <trkpt lat="44.51534" lon="6.74546">
        <ele>1458.75</ele>
        <time>2018-08-25T09:43:54Z</time>
      </trkpt>
      <trkpt lat="44.51541" lon="6.74522">
        <ele>1458.52</ele>
        <time>2018-08-25T09:43:55Z</time>
      </trkpt>
      <trkpt lat="44.51549" lon="6.74499">
        <ele>1458.45</ele>
        <time>2018-08-25T09:43:56Z</time>
      </trkpt>
      <trkpt lat="44.51561" lon="6.74458">
        <ele>1457.72</ele>
        <time>2018-08-25T09:43:58Z</time>
      </trkpt>
      <trkpt lat="44.51562" lon="6.74423">
        <ele>1456.54</ele>
        <time>2018-08-25T09:44:00Z</time>
      </trkpt>
      <trkpt lat="44.51551" lon="6.74394">
        <ele>1456.22</ele>
        <time>2018-08-25T09:44:02Z</time>
      </trkpt>
      <trkpt lat="44.51512" lon="6.74387">
        <ele>1453.67</ele>
        <time>2018-08-25T09:44:04Z</time>
      </trkpt>
      <trkpt lat="44.51481" lon="6.7439">
        <ele>1453.5</ele>
        <time>2018-08-25T09:44:05Z</time>
      </trkpt>
      <trkpt lat="44.51448" lon="6.74403">
        <ele>1452.74</ele>
        <time>2018-08-25T09:44:06Z</time>
      </trkpt>
      <trkpt lat="44.51421" lon="6.74405">
        <ele>1451.12</ele>
        <time>2018-08-25T09:44:07Z</time>
      </trkpt>
      <trkpt lat="44.51395" lon="6.74409">
        <ele>1449.93</ele>
        <time>2018-08-25T09:44:08Z</time>
      </trkpt>
      <trkpt lat="44.51368" lon="6.74412">
        <ele>1448.87</ele>
        <time>2018-08-25T09:44:09Z</time>
      </trkpt>
      <trkpt lat="44.51341" lon="6.74415">
        <ele>1448.56</ele>
        <time>2018-08-25T09:44:10Z</time>
      </trkpt>
      <trkpt lat="44.51316" lon="6.74418">
        <ele>1447.76</ele>
        <time>2018-08-25T09:44:11Z</time>
      </trkpt>
      <trkpt lat="44.51291" lon="6.7442">
        <ele>1446.82</ele>
        <time>2018-08-25T09:44:12Z</time>
      </trkpt>
      <trkpt lat="44.51266" lon="6.74422">
        <ele>1446.54</ele>
        <time>2018-08-25T09:44:13Z</time>
      </trkpt>
      <trkpt lat="44.51243" lon="6.74425">
        <ele>1445.76</ele>
        <time>2018-08-25T09:44:14Z</time>
      </trkpt>
      <trkpt lat="44.51221" lon="6.74427">
        <ele>1444.12</ele>
        <time>2018-08-25T09:44:15Z</time>
      </trkpt>
      <trkpt lat="44.51198" lon="6.74425">
        <ele>1443.63</ele>
        <time>2018-08-25T09:44:16Z</time>
      </trkpt>
      <trkpt lat="44.51177" lon="6.74421">
        <ele>1443.48</ele>
        <time>2018-08-25T09:44:17Z</time>
      </trkpt>
      <trkpt lat="44.51156" lon="6.74419">
        <ele>1442.04</ele>
        <time>2018-08-25T09:44:18Z</time>
      </trkpt>
      <trkpt lat="44.51136" lon="6.74423">
        <ele>1440.91</ele>
        <time>2018-08-25T09:44:19Z</time>
      </trkpt>
      <trkpt lat="44.51118" lon="6.74432">
        <ele>1439.87</ele>
        <time>2018-08-25T09:44:20Z</time>
      </trkpt>
      <trkpt lat="44.51101" lon="6.74448">
        <ele>1440.25</ele>
        <time>2018-08-25T09:44:21Z</time>
      </trkpt>
      <trkpt lat="44.51085" lon="6.74467">
        <ele>1439.67</ele>
        <time>2018-08-25T09:44:22Z</time>
      </trkpt>
      <trkpt lat="44.5107" lon="6.74487">
        <ele>1439.5</ele>
        <time>2018-08-25T09:44:23Z</time>
      </trkpt>
      <trkpt lat="44.51056" lon="6.74508">
        <ele>1439.44</ele>
        <time>2018-08-25T09:44:24Z</time>
      </trkpt>
      <trkpt lat="44.51045" lon="6.7453">
        <ele>1438.03</ele>
        <time>2018-08-25T09:44:25Z</time>
      </trkpt>
      <trkpt lat="44.51035" lon="6.74554">
        <ele>1436.9</ele>
        <time>2018-08-25T09:44:26Z</time>
      </trkpt>
      <trkpt lat="44.51028" lon="6.74579">
        <ele>1436.57</ele>
        <time>2018-08-25T09:44:27Z</time>
      </trkpt>
      <trkpt lat="44.51021" lon="6.74603">
        <ele>1437.16</ele>
        <time>2018-08-25T09:44:28Z</time>
      </trkpt>
      <trkpt lat="44.51007" lon="6.74644">
        <ele>1436</ele>
        <time>2018-08-25T09:44:30Z</time>
      </trkpt>
      <trkpt lat="44.50995" lon="6.74683">
        <ele>1434.56</ele>
        <time>2018-08-25T09:44:32Z</time>
      </trkpt>
      <trkpt lat="44.50977" lon="6.74699">
        <ele>1434.43</ele>
        <time>2018-08-25T09:44:34Z</time>
      </trkpt>
      <trkpt lat="44.5096" lon="6.74689">
        <ele>1434.42</ele>
        <time>2018-08-25T09:44:35Z</time>
      </trkpt>
      <trkpt lat="44.50942" lon="6.74677">
        <ele>1434.42</ele>
        <time>2018-08-25T09:44:36Z</time>
      </trkpt>
      <trkpt lat="44.50914" lon="6.74658">
        <ele>1433.72</ele>
        <time>2018-08-25T09:44:37Z</time>
      </trkpt>
      <trkpt lat="44.50896" lon="6.74645">
        <ele>1434.91</ele>
        <time>2018-08-25T09:44:38Z</time>
      </trkpt>
      <trkpt lat="44.50862" lon="6.74631">
        <ele>1435.38</ele>
        <time>2018-08-25T09:44:40Z</time>
      </trkpt>
      <trkpt lat="44.5064" lon="6.74545">
        <ele>1435.41</ele>
        <time>2018-08-25T09:44:51Z</time>
      </trkpt>
      <trkpt lat="44.50618" lon="6.74537">
        <ele>1435.42</ele>
        <time>2018-08-25T09:44:52Z</time>
      </trkpt>
      <trkpt lat="44.50597" lon="6.7453">
        <ele>1435.42</ele>
        <time>2018-08-25T09:44:53Z</time>
      </trkpt>
      <trkpt lat="44.50574" lon="6.74522">
        <ele>1434.72</ele>
        <time>2018-08-25T09:44:54Z</time>
      </trkpt>
      <trkpt lat="44.50553" lon="6.74514">
        <ele>1434.51</ele>
        <time>2018-08-25T09:44:55Z</time>
      </trkpt>
      <trkpt lat="44.50533" lon="6.74507">
        <ele>1435.15</ele>
        <time>2018-08-25T09:44:56Z</time>
      </trkpt>
      <trkpt lat="44.50501" lon="6.74495">
        <ele>1433.58</ele>
        <time>2018-08-25T09:44:58Z</time>
      </trkpt>
      <trkpt lat="44.5047" lon="6.74486">
        <ele>1433.43</ele>
        <time>2018-08-25T09:45:00Z</time>
      </trkpt>
      <trkpt lat="44.50365" lon="6.74312">
        <ele>1427.83</ele>
        <time>2018-08-25T09:45:12Z</time>
      </trkpt>
      <trkpt lat="44.50343" lon="6.74302">
        <ele>1426.14</ele>
        <time>2018-08-25T09:45:13Z</time>
      </trkpt>
      <trkpt lat="44.50324" lon="6.74295">
        <ele>1425.64</ele>
        <time>2018-08-25T09:45:14Z</time>
      </trkpt>
      <trkpt lat="44.503" lon="6.74273">
        <ele>1418.72</ele>
        <time>2018-08-25T09:45:16Z</time>
      </trkpt>
      <trkpt lat="44.50283" lon="6.74238">
        <ele>1414.53</ele>
        <time>2018-08-25T09:45:18Z</time>
      </trkpt>
      <trkpt lat="44.50282" lon="6.74173">
        <ele>1414.01</ele>
        <time>2018-08-25T09:45:20Z</time>
      </trkpt>
      <trkpt lat="44.50274" lon="6.74148">
        <ele>1410.1</ele>
        <time>2018-08-25T09:45:21Z</time>
      </trkpt>
      <trkpt lat="44.50264" lon="6.74122">
        <ele>1404.72</ele>
        <time>2018-08-25T09:45:22Z</time>
      </trkpt>
      <trkpt lat="44.50241" lon="6.74087">
        <ele>1400.11</ele>
        <time>2018-08-25T09:45:24Z</time>
      </trkpt>
      <trkpt lat="44.5021" lon="6.74068">
        <ele>1394.16</ele>
        <time>2018-08-25T09:45:26Z</time>
      </trkpt>
      <trkpt lat="44.50191" lon="6.74064">
        <ele>1392.24</ele>
        <time>2018-08-25T09:45:27Z</time>
      </trkpt>
      <trkpt lat="44.50169" lon="6.74063">
        <ele>1390.27</ele>
        <time>2018-08-25T09:45:28Z</time>
      </trkpt>
      <trkpt lat="44.50147" lon="6.74063">
        <ele>1388.97</ele>
        <time>2018-08-25T09:45:29Z</time>
      </trkpt>
      <trkpt lat="44.50126" lon="6.74063">
        <ele>1388.59</ele>
        <time>2018-08-25T09:45:30Z</time>
      </trkpt>
      <trkpt lat="44.50107" lon="6.74061">
        <ele>1387.77</ele>
        <time>2018-08-25T09:45:31Z</time>
      </trkpt>
      <trkpt lat="44.50088" lon="6.74056">
        <ele>1386.13</ele>
        <time>2018-08-25T09:45:32Z</time>
      </trkpt>
      <trkpt lat="44.50056" lon="6.7404">
        <ele>1383.87</ele>
        <time>2018-08-25T09:45:34Z</time>
      </trkpt>
      <trkpt lat="44.50039" lon="6.74029">
        <ele>1383.56</ele>
        <time>2018-08-25T09:45:35Z</time>
      </trkpt>
      <trkpt lat="44.5002" lon="6.74015">
        <ele>1382.76</ele>
        <time>2018-08-25T09:45:36Z</time>
      </trkpt>
      <trkpt lat="44.49999" lon="6.73998">
        <ele>1382.52</ele>
        <time>2018-08-25T09:45:37Z</time>
      </trkpt>
      <trkpt lat="44.49978" lon="6.73978">
        <ele>1381.75</ele>
        <time>2018-08-25T09:45:38Z</time>
      </trkpt>
      <trkpt lat="44.49959" lon="6.7396">
        <ele>1380.82</ele>
        <time>2018-08-25T09:45:39Z</time>
      </trkpt>
      <trkpt lat="44.49937" lon="6.73945">
        <ele>1380.54</ele>
        <time>2018-08-25T09:45:40Z</time>
      </trkpt>
      <trkpt lat="44.49915" lon="6.73936">
        <ele>1380.46</ele>
        <time>2018-08-25T09:45:41Z</time>
      </trkpt>
      <trkpt lat="44.49891" lon="6.7393">
        <ele>1381.13</ele>
        <time>2018-08-25T09:45:42Z</time>
      </trkpt>
      <trkpt lat="44.49867" lon="6.73925">
        <ele>1380.63</ele>
        <time>2018-08-25T09:45:43Z</time>
      </trkpt>
      <trkpt lat="44.49844" lon="6.73921">
        <ele>1381.18</ele>
        <time>2018-08-25T09:45:44Z</time>
      </trkpt>
      <trkpt lat="44.49821" lon="6.73918">
        <ele>1381.35</ele>
        <time>2018-08-25T09:45:45Z</time>
      </trkpt>
      <trkpt lat="44.49799" lon="6.73921">
        <ele>1380.7</ele>
        <time>2018-08-25T09:45:46Z</time>
      </trkpt>
      <trkpt lat="44.49776" lon="6.73931">
        <ele>1380.5</ele>
        <time>2018-08-25T09:45:47Z</time>
      </trkpt>
      <trkpt lat="44.49751" lon="6.73947">
        <ele>1380.45</ele>
        <time>2018-08-25T09:45:48Z</time>
      </trkpt>
      <trkpt lat="44.49724" lon="6.73968">
        <ele>1380.43</ele>
        <time>2018-08-25T09:45:49Z</time>
      </trkpt>
      <trkpt lat="44.49698" lon="6.73991">
        <ele>1379.72</ele>
        <time>2018-08-25T09:45:50Z</time>
      </trkpt>
      <trkpt lat="44.49673" lon="6.74014">
        <ele>1380.21</ele>
        <time>2018-08-25T09:45:51Z</time>
      </trkpt>
      <trkpt lat="44.49649" lon="6.74037">
        <ele>1379.66</ele>
        <time>2018-08-25T09:45:52Z</time>
      </trkpt>
      <trkpt lat="44.49625" lon="6.74054">
        <ele>1380.19</ele>
        <time>2018-08-25T09:45:53Z</time>
      </trkpt>
      <trkpt lat="44.49601" lon="6.74069">
        <ele>1380.35</ele>
        <time>2018-08-25T09:45:54Z</time>
      </trkpt>
      <trkpt lat="44.49576" lon="6.74082">
        <ele>1381.8</ele>
        <time>2018-08-25T09:45:55Z</time>
      </trkpt>
      <trkpt lat="44.49551" lon="6.74092">
        <ele>1382.23</ele>
        <time>2018-08-25T09:45:56Z</time>
      </trkpt>
      <trkpt lat="44.49525" lon="6.74099">
        <ele>1382.37</ele>
        <time>2018-08-25T09:45:57Z</time>
      </trkpt>
      <trkpt lat="44.49499" lon="6.74106">
        <ele>1381.7</ele>
        <time>2018-08-25T09:45:58Z</time>
      </trkpt>
      <trkpt lat="44.49471" lon="6.74113">
        <ele>1381.51</ele>
        <time>2018-08-25T09:45:59Z</time>
      </trkpt>
      <trkpt lat="44.49445" lon="6.74121">
        <ele>1382.15</ele>
        <time>2018-08-25T09:46:00Z</time>
      </trkpt>
      <trkpt lat="44.49417" lon="6.74129">
        <ele>1380.94</ele>
        <time>2018-08-25T09:46:01Z</time>
      </trkpt>
      <trkpt lat="44.4939" lon="6.7414">
        <ele>1379.88</ele>
        <time>2018-08-25T09:46:02Z</time>
      </trkpt>
      <trkpt lat="44.49364" lon="6.74154">
        <ele>1377.46</ele>
        <time>2018-08-25T09:46:03Z</time>
      </trkpt>
      <trkpt lat="44.4934" lon="6.74168">
        <ele>1376.03</ele>
        <time>2018-08-25T09:46:04Z</time>
      </trkpt>
      <trkpt lat="44.49316" lon="6.74184">
        <ele>1375.6</ele>
        <time>2018-08-25T09:46:05Z</time>
      </trkpt>
      <trkpt lat="44.49292" lon="6.74199">
        <ele>1374.78</ele>
        <time>2018-08-25T09:46:06Z</time>
      </trkpt>
      <trkpt lat="44.49268" lon="6.74206">
        <ele>1373.83</ele>
        <time>2018-08-25T09:46:07Z</time>
      </trkpt>
      <trkpt lat="44.49243" lon="6.7421">
        <ele>1372.84</ele>
        <time>2018-08-25T09:46:08Z</time>
      </trkpt>
      <trkpt lat="44.49217" lon="6.74214">
        <ele>1372.55</ele>
        <time>2018-08-25T09:46:09Z</time>
      </trkpt>
      <trkpt lat="44.4919" lon="6.74217">
        <ele>1372.46</ele>
        <time>2018-08-25T09:46:10Z</time>
      </trkpt>
      <trkpt lat="44.49167" lon="6.74215">
        <ele>1373.13</ele>
        <time>2018-08-25T09:46:11Z</time>
      </trkpt>
      <trkpt lat="44.49147" lon="6.74217">
        <ele>1371.23</ele>
        <time>2018-08-25T09:46:12Z</time>
      </trkpt>
      <trkpt lat="44.49126" lon="6.74224">
        <ele>1368.57</ele>
        <time>2018-08-25T09:46:13Z</time>
      </trkpt>
      <trkpt lat="44.49108" lon="6.74236">
        <ele>1367.06</ele>
        <time>2018-08-25T09:46:14Z</time>
      </trkpt>
      <trkpt lat="44.49089" lon="6.74252">
        <ele>1366.61</ele>
        <time>2018-08-25T09:46:15Z</time>
      </trkpt>
      <trkpt lat="44.49071" lon="6.74271">
        <ele>1367.18</ele>
        <time>2018-08-25T09:46:16Z</time>
      </trkpt>
      <trkpt lat="44.49051" lon="6.74291">
        <ele>1367.35</ele>
        <time>2018-08-25T09:46:17Z</time>
      </trkpt>
      <trkpt lat="44.49033" lon="6.74304">
        <ele>1366.7</ele>
        <time>2018-08-25T09:46:18Z</time>
      </trkpt>
      <trkpt lat="44.49014" lon="6.74317">
        <ele>1366.5</ele>
        <time>2018-08-25T09:46:19Z</time>
      </trkpt>
      <trkpt lat="44.48991" lon="6.74324">
        <ele>1365.05</ele>
        <time>2018-08-25T09:46:20Z</time>
      </trkpt>
      <trkpt lat="44.48968" lon="6.74328">
        <ele>1363.91</ele>
        <time>2018-08-25T09:46:21Z</time>
      </trkpt>
      <trkpt lat="44.48948" lon="6.74339">
        <ele>1361.47</ele>
        <time>2018-08-25T09:46:22Z</time>
      </trkpt>
      <trkpt lat="44.48931" lon="6.74355">
        <ele>1360.03</ele>
        <time>2018-08-25T09:46:23Z</time>
      </trkpt>
      <trkpt lat="44.48915" lon="6.74377">
        <ele>1358.91</ele>
        <time>2018-08-25T09:46:24Z</time>
      </trkpt>
      <trkpt lat="44.48901" lon="6.74402">
        <ele>1357.17</ele>
        <time>2018-08-25T09:46:25Z</time>
      </trkpt>
      <trkpt lat="44.48887" lon="6.74429">
        <ele>1355.94</ele>
        <time>2018-08-25T09:46:26Z</time>
      </trkpt>
      <trkpt lat="44.48872" lon="6.74456">
        <ele>1355.58</ele>
        <time>2018-08-25T09:46:27Z</time>
      </trkpt>
      <trkpt lat="44.48858" lon="6.74483">
        <ele>1355.47</ele>
        <time>2018-08-25T09:46:28Z</time>
      </trkpt>
      <trkpt lat="44.4884" lon="6.74507">
        <ele>1355.44</ele>
        <time>2018-08-25T09:46:29Z</time>
      </trkpt>
      <trkpt lat="44.48823" lon="6.7453">
        <ele>1355.43</ele>
        <time>2018-08-25T09:46:30Z</time>
      </trkpt>
      <trkpt lat="44.48798" lon="6.74544">
        <ele>1355.42</ele>
        <time>2018-08-25T09:46:31Z</time>
      </trkpt>
      <trkpt lat="44.48776" lon="6.74561">
        <ele>1354.02</ele>
        <time>2018-08-25T09:46:32Z</time>
      </trkpt>
      <trkpt lat="44.48755" lon="6.74576">
        <ele>1354.3</ele>
        <time>2018-08-25T09:46:33Z</time>
      </trkpt>
      <trkpt lat="44.48733" lon="6.74586">
        <ele>1353.69</ele>
        <time>2018-08-25T09:46:34Z</time>
      </trkpt>
      <trkpt lat="44.48714" lon="6.74599">
        <ele>1352.8</ele>
        <time>2018-08-25T09:46:35Z</time>
      </trkpt>
      <trkpt lat="44.48695" lon="6.74617">
        <ele>1352.53</ele>
        <time>2018-08-25T09:46:36Z</time>
      </trkpt>
      <trkpt lat="44.48677" lon="6.74637">
        <ele>1351.76</ele>
        <time>2018-08-25T09:46:37Z</time>
      </trkpt>
      <trkpt lat="44.48659" lon="6.74659">
        <ele>1351.52</ele>
        <time>2018-08-25T09:46:38Z</time>
      </trkpt>
      <trkpt lat="44.48643" lon="6.74686">
        <ele>1352.15</ele>
        <time>2018-08-25T09:46:39Z</time>
      </trkpt>
      <trkpt lat="44.48628" lon="6.7471">
        <ele>1352.34</ele>
        <time>2018-08-25T09:46:40Z</time>
      </trkpt>
      <trkpt lat="44.48612" lon="6.74731">
        <ele>1352.4</ele>
        <time>2018-08-25T09:46:41Z</time>
      </trkpt>
      <trkpt lat="44.48598" lon="6.74748">
        <ele>1351.71</ele>
        <time>2018-08-25T09:46:42Z</time>
      </trkpt>
      <trkpt lat="44.48579" lon="6.74757">
        <ele>1350.81</ele>
        <time>2018-08-25T09:46:43Z</time>
      </trkpt>
      <trkpt lat="44.48557" lon="6.74762">
        <ele>1349.84</ele>
        <time>2018-08-25T09:46:44Z</time>
      </trkpt>
      <trkpt lat="44.48536" lon="6.74772">
        <ele>1349.55</ele>
        <time>2018-08-25T09:46:45Z</time>
      </trkpt>
      <trkpt lat="44.48514" lon="6.74782">
        <ele>1348.76</ele>
        <time>2018-08-25T09:46:46Z</time>
      </trkpt>
      <trkpt lat="44.48491" lon="6.74797">
        <ele>1349.22</ele>
        <time>2018-08-25T09:46:47Z</time>
      </trkpt>
      <trkpt lat="44.48466" lon="6.74814">
        <ele>1348.66</ele>
        <time>2018-08-25T09:46:48Z</time>
      </trkpt>
      <trkpt lat="44.48443" lon="6.74834">
        <ele>1347.79</ele>
        <time>2018-08-25T09:46:49Z</time>
      </trkpt>
      <trkpt lat="44.4842" lon="6.74857">
        <ele>1346.13</ele>
        <time>2018-08-25T09:46:50Z</time>
      </trkpt>
      <trkpt lat="44.48399" lon="6.7488">
        <ele>1346.33</ele>
        <time>2018-08-25T09:46:51Z</time>
      </trkpt>
      <trkpt lat="44.4838" lon="6.74906">
        <ele>1346.4</ele>
        <time>2018-08-25T09:46:52Z</time>
      </trkpt>
      <trkpt lat="44.48363" lon="6.74934">
        <ele>1346.41</ele>
        <time>2018-08-25T09:46:53Z</time>
      </trkpt>
      <trkpt lat="44.48346" lon="6.74958">
        <ele>1345.72</ele>
        <time>2018-08-25T09:46:54Z</time>
      </trkpt>
      <trkpt lat="44.48326" lon="6.74981">
        <ele>1345.51</ele>
        <time>2018-08-25T09:46:55Z</time>
      </trkpt>
      <trkpt lat="44.48303" lon="6.75004">
        <ele>1344.2</ele>
        <time>2018-08-25T09:46:56Z</time>
      </trkpt>
      <trkpt lat="44.48281" lon="6.75027">
        <ele>1343.81</ele>
        <time>2018-08-25T09:46:57Z</time>
      </trkpt>
      <trkpt lat="44.48258" lon="6.7505">
        <ele>1343.69</ele>
        <time>2018-08-25T09:46:58Z</time>
      </trkpt>
      <trkpt lat="44.48236" lon="6.75075">
        <ele>1343.66</ele>
        <time>2018-08-25T09:46:59Z</time>
      </trkpt>
      <trkpt lat="44.48215" lon="6.751">
        <ele>1344.34</ele>
        <time>2018-08-25T09:47:00Z</time>
      </trkpt>
      <trkpt lat="44.48193" lon="6.75125">
        <ele>1343.85</ele>
        <time>2018-08-25T09:47:01Z</time>
      </trkpt>
      <trkpt lat="44.4817" lon="6.75149">
        <ele>1343.7</ele>
        <time>2018-08-25T09:47:02Z</time>
      </trkpt>
      <trkpt lat="44.48149" lon="6.75175">
        <ele>1343.66</ele>
        <time>2018-08-25T09:47:03Z</time>
      </trkpt>
      <trkpt lat="44.48129" lon="6.75202">
        <ele>1342.95</ele>
        <time>2018-08-25T09:47:04Z</time>
      </trkpt>
      <trkpt lat="44.4811" lon="6.75234">
        <ele>1340.63</ele>
        <time>2018-08-25T09:47:05Z</time>
      </trkpt>
      <trkpt lat="44.4809" lon="6.75262">
        <ele>1339.94</ele>
        <time>2018-08-25T09:47:06Z</time>
      </trkpt>
      <trkpt lat="44.48075" lon="6.75289">
        <ele>1340.43</ele>
        <time>2018-08-25T09:47:07Z</time>
      </trkpt>
      <trkpt lat="44.48062" lon="6.75317">
        <ele>1337.08</ele>
        <time>2018-08-25T09:47:08Z</time>
      </trkpt>
      <trkpt lat="44.48051" lon="6.75346">
        <ele>1334.67</ele>
        <time>2018-08-25T09:47:09Z</time>
      </trkpt>
      <trkpt lat="44.48042" lon="6.75377">
        <ele>1333.25</ele>
        <time>2018-08-25T09:47:10Z</time>
      </trkpt>
      <trkpt lat="44.48035" lon="6.75413">
        <ele>1332.82</ele>
        <time>2018-08-25T09:47:11Z</time>
      </trkpt>
      <trkpt lat="44.48028" lon="6.75448">
        <ele>1333.39</ele>
        <time>2018-08-25T09:47:12Z</time>
      </trkpt>
      <trkpt lat="44.48019" lon="6.75483">
        <ele>1333.57</ele>
        <time>2018-08-25T09:47:13Z</time>
      </trkpt>
      <trkpt lat="44.4801" lon="6.75518">
        <ele>1334.32</ele>
        <time>2018-08-25T09:47:14Z</time>
      </trkpt>
      <trkpt lat="44.48" lon="6.75552">
        <ele>1334.54</ele>
        <time>2018-08-25T09:47:15Z</time>
      </trkpt>
      <trkpt lat="44.47981" lon="6.75575">
        <ele>1333.91</ele>
        <time>2018-08-25T09:47:16Z</time>
      </trkpt>
      <trkpt lat="44.47965" lon="6.75602">
        <ele>1333.02</ele>
        <time>2018-08-25T09:47:17Z</time>
      </trkpt>
      <trkpt lat="44.47948" lon="6.7563">
        <ele>1332.05</ele>
        <time>2018-08-25T09:47:18Z</time>
      </trkpt>
      <trkpt lat="44.47925" lon="6.75651">
        <ele>1331.76</ele>
        <time>2018-08-25T09:47:19Z</time>
      </trkpt>
      <trkpt lat="44.47904" lon="6.75672">
        <ele>1330.98</ele>
        <time>2018-08-25T09:47:20Z</time>
      </trkpt>
      <trkpt lat="44.47881" lon="6.75693">
        <ele>1330.04</ele>
        <time>2018-08-25T09:47:21Z</time>
      </trkpt>
      <trkpt lat="44.47858" lon="6.75717">
        <ele>1329.76</ele>
        <time>2018-08-25T09:47:22Z</time>
      </trkpt>
      <trkpt lat="44.47836" lon="6.75742">
        <ele>1328.98</ele>
        <time>2018-08-25T09:47:23Z</time>
      </trkpt>
      <trkpt lat="44.47816" lon="6.75769">
        <ele>1327.34</ele>
        <time>2018-08-25T09:47:24Z</time>
      </trkpt>
      <trkpt lat="44.47797" lon="6.75796">
        <ele>1326.15</ele>
        <time>2018-08-25T09:47:25Z</time>
      </trkpt>
      <trkpt lat="44.47781" lon="6.75825">
        <ele>1323.69</ele>
        <time>2018-08-25T09:47:26Z</time>
      </trkpt>
      <trkpt lat="44.47766" lon="6.75855">
        <ele>1322.26</ele>
        <time>2018-08-25T09:47:27Z</time>
      </trkpt>
      <trkpt lat="44.47751" lon="6.75884">
        <ele>1321.12</ele>
        <time>2018-08-25T09:47:28Z</time>
      </trkpt>
      <trkpt lat="44.47735" lon="6.75912">
        <ele>1321.49</ele>
        <time>2018-08-25T09:47:29Z</time>
      </trkpt>
      <trkpt lat="44.47723" lon="6.75938">
        <ele>1321.59</ele>
        <time>2018-08-25T09:47:30Z</time>
      </trkpt>
      <trkpt lat="44.47711" lon="6.75962">
        <ele>1322.33</ele>
        <time>2018-08-25T09:47:31Z</time>
      </trkpt>
      <trkpt lat="44.477" lon="6.75985">
        <ele>1323.25</ele>
        <time>2018-08-25T09:47:32Z</time>
      </trkpt>
      <trkpt lat="44.47682" lon="6.76022">
        <ele>1324.51</ele>
        <time>2018-08-25T09:47:34Z</time>
      </trkpt>
      <trkpt lat="44.47668" lon="6.7604">
        <ele>1324.6</ele>
        <time>2018-08-25T09:47:35Z</time>
      </trkpt>
      <trkpt lat="44.47643" lon="6.76066">
        <ele>1323.94</ele>
        <time>2018-08-25T09:47:37Z</time>
      </trkpt>
      <trkpt lat="44.47615" lon="6.76087">
        <ele>1320.45</ele>
        <time>2018-08-25T09:47:39Z</time>
      </trkpt>
      <trkpt lat="44.47583" lon="6.76103">
        <ele>1319.5</ele>
        <time>2018-08-25T09:47:41Z</time>
      </trkpt>
      <trkpt lat="44.47552" lon="6.76119">
        <ele>1320.54</ele>
        <time>2018-08-25T09:47:43Z</time>
      </trkpt>
      <trkpt lat="44.47521" lon="6.76133">
        <ele>1322.24</ele>
        <time>2018-08-25T09:47:45Z</time>
      </trkpt>
      <trkpt lat="44.4749" lon="6.76152">
        <ele>1321.69</ele>
        <time>2018-08-25T09:47:47Z</time>
      </trkpt>
      <trkpt lat="44.47459" lon="6.76168">
        <ele>1321.64</ele>
        <time>2018-08-25T09:47:49Z</time>
      </trkpt>
      <trkpt lat="44.47429" lon="6.76188">
        <ele>1320.73</ele>
        <time>2018-08-25T09:47:51Z</time>
      </trkpt>
      <trkpt lat="44.47396" lon="6.76208">
        <ele>1319.04</ele>
        <time>2018-08-25T09:47:53Z</time>
      </trkpt>
      <trkpt lat="44.47364" lon="6.76226">
        <ele>1319.38</ele>
        <time>2018-08-25T09:47:55Z</time>
      </trkpt>
      <trkpt lat="44.47331" lon="6.76245">
        <ele>1319.62</ele>
        <time>2018-08-25T09:47:57Z</time>
      </trkpt>
      <trkpt lat="44.47301" lon="6.76263">
        <ele>1320.34</ele>
        <time>2018-08-25T09:47:59Z</time>
      </trkpt>
      <trkpt lat="44.47273" lon="6.76279">
        <ele>1320.4</ele>
        <time>2018-08-25T09:48:01Z</time>
      </trkpt>
      <trkpt lat="44.47251" lon="6.76297">
        <ele>1320.62</ele>
        <time>2018-08-25T09:48:03Z</time>
      </trkpt>
      <trkpt lat="44.47234" lon="6.76311">
        <ele>1319.03</ele>
        <time>2018-08-25T09:48:06Z</time>
      </trkpt>
      <trkpt lat="44.4721" lon="6.76322">
        <ele>1317.61</ele>
        <time>2018-08-25T09:48:09Z</time>
      </trkpt>
      <trkpt lat="44.47193" lon="6.76333">
        <ele>1316.73</ele>
        <time>2018-08-25T09:48:11Z</time>
      </trkpt>
      <trkpt lat="44.47175" lon="6.76347">
        <ele>1315.95</ele>
        <time>2018-08-25T09:48:13Z</time>
      </trkpt>
      <trkpt lat="44.47155" lon="6.76363">
        <ele>1314.97</ele>
        <time>2018-08-25T09:48:15Z</time>
      </trkpt>
      <trkpt lat="44.4713" lon="6.76376">
        <ele>1313.76</ele>
        <time>2018-08-25T09:48:17Z</time>
      </trkpt>
      <trkpt lat="44.47102" lon="6.76381">
        <ele>1313.65</ele>
        <time>2018-08-25T09:48:19Z</time>
      </trkpt>
      <trkpt lat="44.47071" lon="6.76363">
        <ele>1312.73</ele>
        <time>2018-08-25T09:48:21Z</time>
      </trkpt>
      <trkpt lat="44.4704" lon="6.76337">
        <ele>1310.34</ele>
        <time>2018-08-25T09:48:23Z</time>
      </trkpt>
      <trkpt lat="44.47023" lon="6.76326">
        <ele>1309.85</ele>
        <time>2018-08-25T09:48:24Z</time>
      </trkpt>
      <trkpt lat="44.47004" lon="6.76316">
        <ele>1309</ele>
        <time>2018-08-25T09:48:25Z</time>
      </trkpt>
      <trkpt lat="44.46985" lon="6.76305">
        <ele>1308.05</ele>
        <time>2018-08-25T09:48:26Z</time>
      </trkpt>
      <trkpt lat="44.46965" lon="6.76294">
        <ele>1307.76</ele>
        <time>2018-08-25T09:48:27Z</time>
      </trkpt>
      <trkpt lat="44.46945" lon="6.76284">
        <ele>1307.68</ele>
        <time>2018-08-25T09:48:28Z</time>
      </trkpt>
      <trkpt lat="44.46924" lon="6.76273">
        <ele>1306.95</ele>
        <time>2018-08-25T09:48:29Z</time>
      </trkpt>
      <trkpt lat="44.46903" lon="6.76263">
        <ele>1306.03</ele>
        <time>2018-08-25T09:48:30Z</time>
      </trkpt>
      <trkpt lat="44.46883" lon="6.76252">
        <ele>1305.06</ele>
        <time>2018-08-25T09:48:31Z</time>
      </trkpt>
      <trkpt lat="44.46862" lon="6.76241">
        <ele>1304.77</ele>
        <time>2018-08-25T09:48:32Z</time>
      </trkpt>
      <trkpt lat="44.46841" lon="6.7623">
        <ele>1303.98</ele>
        <time>2018-08-25T09:48:33Z</time>
      </trkpt>
      <trkpt lat="44.46821" lon="6.7622">
        <ele>1303.74</ele>
        <time>2018-08-25T09:48:34Z</time>
      </trkpt>
      <trkpt lat="44.46801" lon="6.7621">
        <ele>1303.67</ele>
        <time>2018-08-25T09:48:35Z</time>
      </trkpt>
      <trkpt lat="44.46782" lon="6.76201">
        <ele>1302.25</ele>
        <time>2018-08-25T09:48:36Z</time>
      </trkpt>
      <trkpt lat="44.46765" lon="6.76191">
        <ele>1301.82</ele>
        <time>2018-08-25T09:48:37Z</time>
      </trkpt>
      <trkpt lat="44.46747" lon="6.7618">
        <ele>1300.99</ele>
        <time>2018-08-25T09:48:38Z</time>
      </trkpt>
      <trkpt lat="44.46733" lon="6.76163">
        <ele>1298.65</ele>
        <time>2018-08-25T09:48:39Z</time>
      </trkpt>
      <trkpt lat="44.4672" lon="6.76141">
        <ele>1297.94</ele>
        <time>2018-08-25T09:48:40Z</time>
      </trkpt>
      <trkpt lat="44.46707" lon="6.76115">
        <ele>1297.03</ele>
        <time>2018-08-25T09:48:41Z</time>
      </trkpt>
      <trkpt lat="44.46695" lon="6.76086">
        <ele>1296.06</ele>
        <time>2018-08-25T09:48:42Z</time>
      </trkpt>
      <trkpt lat="44.46682" lon="6.76059">
        <ele>1296.47</ele>
        <time>2018-08-25T09:48:43Z</time>
      </trkpt>
      <trkpt lat="44.46669" lon="6.76032">
        <ele>1295.89</ele>
        <time>2018-08-25T09:48:44Z</time>
      </trkpt>
      <trkpt lat="44.46654" lon="6.76006">
        <ele>1295.01</ele>
        <time>2018-08-25T09:48:45Z</time>
      </trkpt>
      <trkpt lat="44.46638" lon="6.7598">
        <ele>1294.05</ele>
        <time>2018-08-25T09:48:46Z</time>
      </trkpt>
      <trkpt lat="44.46623" lon="6.75954">
        <ele>1293.76</ele>
        <time>2018-08-25T09:48:47Z</time>
      </trkpt>
      <trkpt lat="44.46609" lon="6.75928">
        <ele>1293.68</ele>
        <time>2018-08-25T09:48:48Z</time>
      </trkpt>
      <trkpt lat="44.46596" lon="6.75902">
        <ele>1292.95</ele>
        <time>2018-08-25T09:48:49Z</time>
      </trkpt>
      <trkpt lat="44.46583" lon="6.75875">
        <ele>1292.73</ele>
        <time>2018-08-25T09:48:50Z</time>
      </trkpt>
      <trkpt lat="44.4657" lon="6.75849">
        <ele>1291.97</ele>
        <time>2018-08-25T09:48:51Z</time>
      </trkpt>
      <trkpt lat="44.46557" lon="6.75825">
        <ele>1291.04</ele>
        <time>2018-08-25T09:48:52Z</time>
      </trkpt>
      <trkpt lat="44.46544" lon="6.75799">
        <ele>1290.06</ele>
        <time>2018-08-25T09:48:53Z</time>
      </trkpt>
      <trkpt lat="44.46532" lon="6.75774">
        <ele>1289.07</ele>
        <time>2018-08-25T09:48:54Z</time>
      </trkpt>
      <trkpt lat="44.46519" lon="6.75748">
        <ele>1288.07</ele>
        <time>2018-08-25T09:48:55Z</time>
      </trkpt>
      <trkpt lat="44.46508" lon="6.75721">
        <ele>1286.37</ele>
        <time>2018-08-25T09:48:56Z</time>
      </trkpt>
      <trkpt lat="44.46498" lon="6.75694">
        <ele>1286.56</ele>
        <time>2018-08-25T09:48:57Z</time>
      </trkpt>
      <trkpt lat="44.4649" lon="6.75667">
        <ele>1285.92</ele>
        <time>2018-08-25T09:48:58Z</time>
      </trkpt>
      <trkpt lat="44.46488" lon="6.75639">
        <ele>1287.12</ele>
        <time>2018-08-25T09:48:59Z</time>
      </trkpt>
      <trkpt lat="44.46496" lon="6.75609">
        <ele>1287.48</ele>
        <time>2018-08-25T09:49:00Z</time>
      </trkpt>
      <trkpt lat="44.465" lon="6.75578">
        <ele>1287.59</ele>
        <time>2018-08-25T09:49:01Z</time>
      </trkpt>
      <trkpt lat="44.46505" lon="6.75547">
        <ele>1288.33</ele>
        <time>2018-08-25T09:49:02Z</time>
      </trkpt>
      <trkpt lat="44.4651" lon="6.75518">
        <ele>1288.55</ele>
        <time>2018-08-25T09:49:03Z</time>
      </trkpt>
      <trkpt lat="44.46513" lon="6.75488">
        <ele>1288.61</ele>
        <time>2018-08-25T09:49:04Z</time>
      </trkpt>
      <trkpt lat="44.46518" lon="6.75459">
        <ele>1288.63</ele>
        <time>2018-08-25T09:49:05Z</time>
      </trkpt>
      <trkpt lat="44.46522" lon="6.75429">
        <ele>1287.94</ele>
        <time>2018-08-25T09:49:06Z</time>
      </trkpt>
      <trkpt lat="44.46525" lon="6.75401">
        <ele>1287.73</ele>
        <time>2018-08-25T09:49:07Z</time>
      </trkpt>
      <trkpt lat="44.46526" lon="6.75371">
        <ele>1287.67</ele>
        <time>2018-08-25T09:49:08Z</time>
      </trkpt>
      <trkpt lat="44.46524" lon="6.75343">
        <ele>1286.95</ele>
        <time>2018-08-25T09:49:09Z</time>
      </trkpt>
      <trkpt lat="44.4652" lon="6.75315">
        <ele>1286.73</ele>
        <time>2018-08-25T09:49:10Z</time>
      </trkpt>
      <trkpt lat="44.46512" lon="6.7529">
        <ele>1287.37</ele>
        <time>2018-08-25T09:49:11Z</time>
      </trkpt>
      <trkpt lat="44.465" lon="6.75265">
        <ele>1287.56</ele>
        <time>2018-08-25T09:49:12Z</time>
      </trkpt>
      <trkpt lat="44.46488" lon="6.75242">
        <ele>1287.62</ele>
        <time>2018-08-25T09:49:13Z</time>
      </trkpt>
      <trkpt lat="44.46476" lon="6.75219">
        <ele>1287.63</ele>
        <time>2018-08-25T09:49:14Z</time>
      </trkpt>
      <trkpt lat="44.46463" lon="6.75198">
        <ele>1288.34</ele>
        <time>2018-08-25T09:49:15Z</time>
      </trkpt>
      <trkpt lat="44.46449" lon="6.75177">
        <ele>1288.55</ele>
        <time>2018-08-25T09:49:16Z</time>
      </trkpt>
      <trkpt lat="44.46434" lon="6.75158">
        <ele>1288.61</ele>
        <time>2018-08-25T09:49:17Z</time>
      </trkpt>
      <trkpt lat="44.46419" lon="6.7514">
        <ele>1288.63</ele>
        <time>2018-08-25T09:49:18Z</time>
      </trkpt>
      <trkpt lat="44.46404" lon="6.75121">
        <ele>1287.94</ele>
        <time>2018-08-25T09:49:19Z</time>
      </trkpt>
      <trkpt lat="44.46389" lon="6.75103">
        <ele>1288.43</ele>
        <time>2018-08-25T09:49:20Z</time>
      </trkpt>
      <trkpt lat="44.46376" lon="6.75084">
        <ele>1289.28</ele>
        <time>2018-08-25T09:49:21Z</time>
      </trkpt>
      <trkpt lat="44.46361" lon="6.75066">
        <ele>1289.53</ele>
        <time>2018-08-25T09:49:22Z</time>
      </trkpt>
      <trkpt lat="44.46345" lon="6.75049">
        <ele>1288.91</ele>
        <time>2018-08-25T09:49:23Z</time>
      </trkpt>
      <trkpt lat="44.46328" lon="6.75034">
        <ele>1288.72</ele>
        <time>2018-08-25T09:49:24Z</time>
      </trkpt>
      <trkpt lat="44.4631" lon="6.75025">
        <ele>1288.66</ele>
        <time>2018-08-25T09:49:25Z</time>
      </trkpt>
      <trkpt lat="44.46291" lon="6.75019">
        <ele>1287.95</ele>
        <time>2018-08-25T09:49:26Z</time>
      </trkpt>
      <trkpt lat="44.46272" lon="6.75013">
        <ele>1288.43</ele>
        <time>2018-08-25T09:49:27Z</time>
      </trkpt>
      <trkpt lat="44.46254" lon="6.75004">
        <ele>1287.88</ele>
        <time>2018-08-25T09:49:28Z</time>
      </trkpt>
      <trkpt lat="44.46237" lon="6.7499">
        <ele>1287.56</ele>
        <time>2018-08-25T09:49:29Z</time>
      </trkpt>
      <trkpt lat="44.4622" lon="6.74974">
        <ele>1288.16</ele>
        <time>2018-08-25T09:49:30Z</time>
      </trkpt>
      <trkpt lat="44.46204" lon="6.74954">
        <ele>1287.64</ele>
        <time>2018-08-25T09:49:31Z</time>
      </trkpt>
      <trkpt lat="44.46187" lon="6.74931">
        <ele>1287.49</ele>
        <time>2018-08-25T09:49:32Z</time>
      </trkpt>
      <trkpt lat="44.4617" lon="6.74908">
        <ele>1288.14</ele>
        <time>2018-08-25T09:49:33Z</time>
      </trkpt>
      <trkpt lat="44.46154" lon="6.74884">
        <ele>1288.34</ele>
        <time>2018-08-25T09:49:34Z</time>
      </trkpt>
      <trkpt lat="44.46139" lon="6.74861">
        <ele>1288.4</ele>
        <time>2018-08-25T09:49:35Z</time>
      </trkpt>
      <trkpt lat="44.46124" lon="6.74837">
        <ele>1288.41</ele>
        <time>2018-08-25T09:49:36Z</time>
      </trkpt>
      <trkpt lat="44.46109" lon="6.74813">
        <ele>1288.42</ele>
        <time>2018-08-25T09:49:37Z</time>
      </trkpt>
      <trkpt lat="44.46094" lon="6.74791">
        <ele>1288.42</ele>
        <time>2018-08-25T09:49:38Z</time>
      </trkpt>
      <trkpt lat="44.46078" lon="6.7477">
        <ele>1288.42</ele>
        <time>2018-08-25T09:49:39Z</time>
      </trkpt>
      <trkpt lat="44.46062" lon="6.74751">
        <ele>1287.72</ele>
        <time>2018-08-25T09:49:40Z</time>
      </trkpt>
      <trkpt lat="44.46044" lon="6.74734">
        <ele>1286.81</ele>
        <time>2018-08-25T09:49:41Z</time>
      </trkpt>
      <trkpt lat="44.46027" lon="6.74718">
        <ele>1286.54</ele>
        <time>2018-08-25T09:49:42Z</time>
      </trkpt>
      <trkpt lat="44.4601" lon="6.74705">
        <ele>1287.16</ele>
        <time>2018-08-25T09:49:43Z</time>
      </trkpt>
      <trkpt lat="44.45992" lon="6.74695">
        <ele>1286.64</ele>
        <time>2018-08-25T09:49:44Z</time>
      </trkpt>
      <trkpt lat="44.45974" lon="6.74687">
        <ele>1286.49</ele>
        <time>2018-08-25T09:49:45Z</time>
      </trkpt>
      <trkpt lat="44.45939" lon="6.74675">
        <ele>1286.43</ele>
        <time>2018-08-25T09:49:47Z</time>
      </trkpt>
      <trkpt lat="44.45905" lon="6.7467">
        <ele>1285.93</ele>
        <time>2018-08-25T09:49:49Z</time>
      </trkpt>
      <trkpt lat="44.45873" lon="6.74669">
        <ele>1285.47</ele>
        <time>2018-08-25T09:49:51Z</time>
      </trkpt>
      <trkpt lat="44.45847" lon="6.74658">
        <ele>1283.82</ele>
        <time>2018-08-25T09:49:53Z</time>
      </trkpt>
      <trkpt lat="44.45827" lon="6.74635">
        <ele>1282.76</ele>
        <time>2018-08-25T09:49:55Z</time>
      </trkpt>
      <trkpt lat="44.45819" lon="6.74601">
        <ele>1283.15</ele>
        <time>2018-08-25T09:49:57Z</time>
      </trkpt>
      <trkpt lat="44.45816" lon="6.74573">
        <ele>1284.31</ele>
        <time>2018-08-25T09:49:59Z</time>
      </trkpt>
      <trkpt lat="44.4581" lon="6.74541">
        <ele>1283.78</ele>
        <time>2018-08-25T09:50:02Z</time>
      </trkpt>
      <trkpt lat="44.45802" lon="6.74518">
        <ele>1283.45</ele>
        <time>2018-08-25T09:50:04Z</time>
      </trkpt>
      <trkpt lat="44.45789" lon="6.74494">
        <ele>1283.42</ele>
        <time>2018-08-25T09:50:06Z</time>
      </trkpt>
      <trkpt lat="44.4577" lon="6.74474">
        <ele>1281.81</ele>
        <time>2018-08-25T09:50:08Z</time>
      </trkpt>
      <trkpt lat="44.45747" lon="6.74455">
        <ele>1281.67</ele>
        <time>2018-08-25T09:50:10Z</time>
      </trkpt>
      <trkpt lat="44.4572" lon="6.74436">
        <ele>1280.74</ele>
        <time>2018-08-25T09:50:12Z</time>
      </trkpt>
      <trkpt lat="44.45692" lon="6.74418">
        <ele>1279.75</ele>
        <time>2018-08-25T09:50:14Z</time>
      </trkpt>
      <trkpt lat="44.45661" lon="6.74409">
        <ele>1278.75</ele>
        <time>2018-08-25T09:50:16Z</time>
      </trkpt>
      <trkpt lat="44.4563" lon="6.74409">
        <ele>1277.54</ele>
        <time>2018-08-25T09:50:18Z</time>
      </trkpt>
      <trkpt lat="44.45599" lon="6.74409">
        <ele>1275.82</ele>
        <time>2018-08-25T09:50:20Z</time>
      </trkpt>
      <trkpt lat="44.45567" lon="6.74398">
        <ele>1275.46</ele>
        <time>2018-08-25T09:50:22Z</time>
      </trkpt>
      <trkpt lat="44.45539" lon="6.74378">
        <ele>1276.33</ele>
        <time>2018-08-25T09:50:24Z</time>
      </trkpt>
      <trkpt lat="44.45521" lon="6.74371">
        <ele>1275.69</ele>
        <time>2018-08-25T09:50:25Z</time>
      </trkpt>
      <trkpt lat="44.45499" lon="6.7437">
        <ele>1275.5</ele>
        <time>2018-08-25T09:50:26Z</time>
      </trkpt>
      <trkpt lat="44.45476" lon="6.74366">
        <ele>1275.45</ele>
        <time>2018-08-25T09:50:27Z</time>
      </trkpt>
      <trkpt lat="44.45452" lon="6.74365">
        <ele>1274.73</ele>
        <time>2018-08-25T09:50:28Z</time>
      </trkpt>
      <trkpt lat="44.45429" lon="6.74364">
        <ele>1274.51</ele>
        <time>2018-08-25T09:50:29Z</time>
      </trkpt>
      <trkpt lat="44.45405" lon="6.74365">
        <ele>1273.75</ele>
        <time>2018-08-25T09:50:30Z</time>
      </trkpt>
      <trkpt lat="44.45383" lon="6.74372">
        <ele>1272.12</ele>
        <time>2018-08-25T09:50:31Z</time>
      </trkpt>
      <trkpt lat="44.45361" lon="6.74378">
        <ele>1272.33</ele>
        <time>2018-08-25T09:50:32Z</time>
      </trkpt>
      <trkpt lat="44.45343" lon="6.74382">
        <ele>1271.69</ele>
        <time>2018-08-25T09:50:33Z</time>
      </trkpt>
      <trkpt lat="44.45323" lon="6.74385">
        <ele>1272.2</ele>
        <time>2018-08-25T09:50:34Z</time>
      </trkpt>
      <trkpt lat="44.45303" lon="6.74381">
        <ele>1271.66</ele>
        <time>2018-08-25T09:50:35Z</time>
      </trkpt>
      <trkpt lat="44.45283" lon="6.74371">
        <ele>1270.79</ele>
        <time>2018-08-25T09:50:36Z</time>
      </trkpt>
      <trkpt lat="44.45269" lon="6.74351">
        <ele>1270.53</ele>
        <time>2018-08-25T09:50:37Z</time>
      </trkpt>
      <trkpt lat="44.45259" lon="6.74322">
        <ele>1269.75</ele>
        <time>2018-08-25T09:50:38Z</time>
      </trkpt>
      <trkpt lat="44.45241" lon="6.74303">
        <ele>1269.52</ele>
        <time>2018-08-25T09:50:39Z</time>
      </trkpt>
      <trkpt lat="44.45221" lon="6.74285">
        <ele>1270.85</ele>
        <time>2018-08-25T09:50:40Z</time>
      </trkpt>
      <trkpt lat="44.452" lon="6.74267">
        <ele>1271.95</ele>
        <time>2018-08-25T09:50:41Z</time>
      </trkpt>
      <trkpt lat="44.45176" lon="6.7425">
        <ele>1272.28</ele>
        <time>2018-08-25T09:50:42Z</time>
      </trkpt>
      <trkpt lat="44.4515" lon="6.7423">
        <ele>1271.68</ele>
        <time>2018-08-25T09:50:43Z</time>
      </trkpt>
      <trkpt lat="44.45126" lon="6.74211">
        <ele>1271.5</ele>
        <time>2018-08-25T09:50:44Z</time>
      </trkpt>
      <trkpt lat="44.45106" lon="6.74189">
        <ele>1271.44</ele>
        <time>2018-08-25T09:50:45Z</time>
      </trkpt>
      <trkpt lat="44.45086" lon="6.74168">
        <ele>1272.83</ele>
        <time>2018-08-25T09:50:46Z</time>
      </trkpt>
      <trkpt lat="44.45067" lon="6.74148">
        <ele>1271.84</ele>
        <time>2018-08-25T09:50:47Z</time>
      </trkpt>
      <trkpt lat="44.45049" lon="6.74127">
        <ele>1270.85</ele>
        <time>2018-08-25T09:50:48Z</time>
      </trkpt>
      <trkpt lat="44.4503" lon="6.74107">
        <ele>1271.25</ele>
        <time>2018-08-25T09:50:49Z</time>
      </trkpt>
      <trkpt lat="44.45011" lon="6.74088">
        <ele>1269.97</ele>
        <time>2018-08-25T09:50:50Z</time>
      </trkpt>
      <trkpt lat="44.44992" lon="6.74073">
        <ele>1268.89</ele>
        <time>2018-08-25T09:50:51Z</time>
      </trkpt>
      <trkpt lat="44.44973" lon="6.7406">
        <ele>1269.26</ele>
        <time>2018-08-25T09:50:52Z</time>
      </trkpt>
      <trkpt lat="44.44952" lon="6.74052">
        <ele>1270.07</ele>
        <time>2018-08-25T09:50:53Z</time>
      </trkpt>
      <trkpt lat="44.44927" lon="6.74051">
        <ele>1268.22</ele>
        <time>2018-08-25T09:50:54Z</time>
      </trkpt>
      <trkpt lat="44.44903" lon="6.74045">
        <ele>1267.66</ele>
        <time>2018-08-25T09:50:55Z</time>
      </trkpt>
      <trkpt lat="44.4488" lon="6.74039">
        <ele>1268.19</ele>
        <time>2018-08-25T09:50:56Z</time>
      </trkpt>
      <trkpt lat="44.44855" lon="6.74033">
        <ele>1268.35</ele>
        <time>2018-08-25T09:50:57Z</time>
      </trkpt>
      <trkpt lat="44.4483" lon="6.74026">
        <ele>1269.1</ele>
        <time>2018-08-25T09:50:58Z</time>
      </trkpt>
      <trkpt lat="44.44807" lon="6.74021">
        <ele>1269.32</ele>
        <time>2018-08-25T09:50:59Z</time>
      </trkpt>
      <trkpt lat="44.44784" lon="6.74018">
        <ele>1269.39</ele>
        <time>2018-08-25T09:51:00Z</time>
      </trkpt>
      <trkpt lat="44.44761" lon="6.74018">
        <ele>1268.71</ele>
        <time>2018-08-25T09:51:01Z</time>
      </trkpt>
      <trkpt lat="44.4474" lon="6.74028">
        <ele>1267.81</ele>
        <time>2018-08-25T09:51:02Z</time>
      </trkpt>
      <trkpt lat="44.44719" lon="6.74041">
        <ele>1266.84</ele>
        <time>2018-08-25T09:51:03Z</time>
      </trkpt>
      <trkpt lat="44.44698" lon="6.74058">
        <ele>1265.85</ele>
        <time>2018-08-25T09:51:04Z</time>
      </trkpt>
      <trkpt lat="44.44678" lon="6.74078">
        <ele>1265.55</ele>
        <time>2018-08-25T09:51:05Z</time>
      </trkpt>
      <trkpt lat="44.44657" lon="6.74098">
        <ele>1266.16</ele>
        <time>2018-08-25T09:51:06Z</time>
      </trkpt>
      <trkpt lat="44.44637" lon="6.74118">
        <ele>1266.34</ele>
        <time>2018-08-25T09:51:07Z</time>
      </trkpt>
      <trkpt lat="44.44616" lon="6.74137">
        <ele>1266.4</ele>
        <time>2018-08-25T09:51:08Z</time>
      </trkpt>
      <trkpt lat="44.44597" lon="6.74158">
        <ele>1266.41</ele>
        <time>2018-08-25T09:51:09Z</time>
      </trkpt>
      <trkpt lat="44.44577" lon="6.74177">
        <ele>1267.12</ele>
        <time>2018-08-25T09:51:10Z</time>
      </trkpt>
      <trkpt lat="44.44557" lon="6.74195">
        <ele>1268.03</ele>
        <time>2018-08-25T09:51:11Z</time>
      </trkpt>
      <trkpt lat="44.44535" lon="6.74211">
        <ele>1267.6</ele>
        <time>2018-08-25T09:51:12Z</time>
      </trkpt>
      <trkpt lat="44.44514" lon="6.74224">
        <ele>1267.48</ele>
        <time>2018-08-25T09:51:13Z</time>
      </trkpt>
      <trkpt lat="44.44493" lon="6.74238">
        <ele>1267.44</ele>
        <time>2018-08-25T09:51:14Z</time>
      </trkpt>
      <trkpt lat="44.44473" lon="6.7425">
        <ele>1268.13</ele>
        <time>2018-08-25T09:51:15Z</time>
      </trkpt>
      <trkpt lat="44.44452" lon="6.74258">
        <ele>1268.33</ele>
        <time>2018-08-25T09:51:16Z</time>
      </trkpt>
      <trkpt lat="44.44432" lon="6.74265">
        <ele>1267.69</ele>
        <time>2018-08-25T09:51:17Z</time>
      </trkpt>
      <trkpt lat="44.44411" lon="6.74262">
        <ele>1268.9</ele>
        <time>2018-08-25T09:51:18Z</time>
      </trkpt>
      <trkpt lat="44.4439" lon="6.74261">
        <ele>1268.57</ele>
        <time>2018-08-25T09:51:19Z</time>
      </trkpt>
      <trkpt lat="44.44368" lon="6.74244">
        <ele>1267.76</ele>
        <time>2018-08-25T09:51:20Z</time>
      </trkpt>
      <trkpt lat="44.44347" lon="6.7423">
        <ele>1266.82</ele>
        <time>2018-08-25T09:51:21Z</time>
      </trkpt>
      <trkpt lat="44.44326" lon="6.7422">
        <ele>1267.24</ele>
        <time>2018-08-25T09:51:22Z</time>
      </trkpt>
      <trkpt lat="44.44304" lon="6.74214">
        <ele>1266.67</ele>
        <time>2018-08-25T09:51:23Z</time>
      </trkpt>
      <trkpt lat="44.44282" lon="6.74211">
        <ele>1265.79</ele>
        <time>2018-08-25T09:51:24Z</time>
      </trkpt>
      <trkpt lat="44.44258" lon="6.74208">
        <ele>1265.53</ele>
        <time>2018-08-25T09:51:25Z</time>
      </trkpt>
      <trkpt lat="44.44235" lon="6.74204">
        <ele>1265.45</ele>
        <time>2018-08-25T09:51:26Z</time>
      </trkpt>
      <trkpt lat="44.44211" lon="6.74201">
        <ele>1265.43</ele>
        <time>2018-08-25T09:51:27Z</time>
      </trkpt>
      <trkpt lat="44.44188" lon="6.74196">
        <ele>1265.42</ele>
        <time>2018-08-25T09:51:28Z</time>
      </trkpt>
      <trkpt lat="44.44165" lon="6.74197">
        <ele>1264.72</ele>
        <time>2018-08-25T09:51:29Z</time>
      </trkpt>
      <trkpt lat="44.44145" lon="6.74203">
        <ele>1264.51</ele>
        <time>2018-08-25T09:51:30Z</time>
      </trkpt>
      <trkpt lat="44.44126" lon="6.74216">
        <ele>1264.45</ele>
        <time>2018-08-25T09:51:31Z</time>
      </trkpt>
      <trkpt lat="44.44106" lon="6.74234">
        <ele>1264.43</ele>
        <time>2018-08-25T09:51:32Z</time>
      </trkpt>
      <trkpt lat="44.44087" lon="6.74255">
        <ele>1264.42</ele>
        <time>2018-08-25T09:51:33Z</time>
      </trkpt>
      <trkpt lat="44.44067" lon="6.74268">
        <ele>1262.32</ele>
        <time>2018-08-25T09:51:34Z</time>
      </trkpt>
      <trkpt lat="44.44045" lon="6.74276">
        <ele>1261.69</ele>
        <time>2018-08-25T09:51:35Z</time>
      </trkpt>
      <trkpt lat="44.44023" lon="6.74282">
        <ele>1260.8</ele>
        <time>2018-08-25T09:51:36Z</time>
      </trkpt>
      <trkpt lat="44.44004" lon="6.74278">
        <ele>1260.54</ele>
        <time>2018-08-25T09:51:37Z</time>
      </trkpt>
      <trkpt lat="44.43975" lon="6.7429">
        <ele>1259.73</ele>
        <time>2018-08-25T09:51:39Z</time>
      </trkpt>
      <trkpt lat="44.4395" lon="6.74319">
        <ele>1258.54</ele>
        <time>2018-08-25T09:51:41Z</time>
      </trkpt>
      <trkpt lat="44.43929" lon="6.74351">
        <ele>1260.04</ele>
        <time>2018-08-25T09:51:43Z</time>
      </trkpt>
      <trkpt lat="44.43906" lon="6.74381">
        <ele>1260.18</ele>
        <time>2018-08-25T09:51:45Z</time>
      </trkpt>
      <trkpt lat="44.4388" lon="6.74395">
        <ele>1259.49</ele>
        <time>2018-08-25T09:51:47Z</time>
      </trkpt>
      <trkpt lat="44.43853" lon="6.74403">
        <ele>1261.04</ele>
        <time>2018-08-25T09:51:49Z</time>
      </trkpt>
      <trkpt lat="44.43833" lon="6.74402">
        <ele>1261.31</ele>
        <time>2018-08-25T09:51:50Z</time>
      </trkpt>
      <trkpt lat="44.43811" lon="6.74403">
        <ele>1261.39</ele>
        <time>2018-08-25T09:51:51Z</time>
      </trkpt>
      <trkpt lat="44.43792" lon="6.74406">
        <ele>1262.81</ele>
        <time>2018-08-25T09:51:52Z</time>
      </trkpt>
      <trkpt lat="44.43773" lon="6.74411">
        <ele>1263.24</ele>
        <time>2018-08-25T09:51:53Z</time>
      </trkpt>
      <trkpt lat="44.43744" lon="6.74414">
        <ele>1263.4</ele>
        <time>2018-08-25T09:51:55Z</time>
      </trkpt>
      <trkpt lat="44.43712" lon="6.74408">
        <ele>1263.42</ele>
        <time>2018-08-25T09:51:57Z</time>
      </trkpt>
      <trkpt lat="44.43689" lon="6.74398">
        <ele>1263.42</ele>
        <time>2018-08-25T09:51:58Z</time>
      </trkpt>
      <trkpt lat="44.43667" lon="6.7439">
        <ele>1262.72</ele>
        <time>2018-08-25T09:51:59Z</time>
      </trkpt>
      <trkpt lat="44.43647" lon="6.7438">
        <ele>1261.81</ele>
        <time>2018-08-25T09:52:00Z</time>
      </trkpt>
      <trkpt lat="44.43628" lon="6.74375">
        <ele>1260.14</ele>
        <time>2018-08-25T09:52:01Z</time>
      </trkpt>
      <trkpt lat="44.43609" lon="6.74375">
        <ele>1259.64</ele>
        <time>2018-08-25T09:52:02Z</time>
      </trkpt>
      <trkpt lat="44.43591" lon="6.74376">
        <ele>1258.79</ele>
        <time>2018-08-25T09:52:03Z</time>
      </trkpt>
      <trkpt lat="44.43572" lon="6.74385">
        <ele>1257.83</ele>
        <time>2018-08-25T09:52:04Z</time>
      </trkpt>
      <trkpt lat="44.43551" lon="6.74396">
        <ele>1258.24</ele>
        <time>2018-08-25T09:52:05Z</time>
      </trkpt>
      <trkpt lat="44.4353" lon="6.74403">
        <ele>1258.37</ele>
        <time>2018-08-25T09:52:06Z</time>
      </trkpt>
      <trkpt lat="44.43506" lon="6.74396">
        <ele>1257.71</ele>
        <time>2018-08-25T09:52:07Z</time>
      </trkpt>
      <trkpt lat="44.43484" lon="6.74393">
        <ele>1256.81</ele>
        <time>2018-08-25T09:52:08Z</time>
      </trkpt>
      <trkpt lat="44.43465" lon="6.74389">
        <ele>1255.84</ele>
        <time>2018-08-25T09:52:09Z</time>
      </trkpt>
      <trkpt lat="44.43447" lon="6.74385">
        <ele>1255.55</ele>
        <time>2018-08-25T09:52:10Z</time>
      </trkpt>
      <trkpt lat="44.43417" lon="6.74368">
        <ele>1254.73</ele>
        <time>2018-08-25T09:52:12Z</time>
      </trkpt>
      <trkpt lat="44.434" lon="6.74319">
        <ele>1253.26</ele>
        <time>2018-08-25T09:52:14Z</time>
      </trkpt>
      <trkpt lat="44.43392" lon="6.74288">
        <ele>1252.67</ele>
        <time>2018-08-25T09:52:15Z</time>
      </trkpt>
      <trkpt lat="44.43389" lon="6.74235">
        <ele>1253.9</ele>
        <time>2018-08-25T09:52:16Z</time>
      </trkpt>
      <trkpt lat="44.4338" lon="6.74199">
        <ele>1253.56</ele>
        <time>2018-08-25T09:52:17Z</time>
      </trkpt>
      <trkpt lat="44.43372" lon="6.74167">
        <ele>1251.36</ele>
        <time>2018-08-25T09:52:18Z</time>
      </trkpt>
      <trkpt lat="44.43361" lon="6.74139">
        <ele>1249.3</ele>
        <time>2018-08-25T09:52:19Z</time>
      </trkpt>
      <trkpt lat="44.43345" lon="6.74112">
        <ele>1247.99</ele>
        <time>2018-08-25T09:52:20Z</time>
      </trkpt>
      <trkpt lat="44.43327" lon="6.74093">
        <ele>1247.59</ele>
        <time>2018-08-25T09:52:21Z</time>
      </trkpt>
      <trkpt lat="44.43307" lon="6.74076">
        <ele>1245.37</ele>
        <time>2018-08-25T09:52:22Z</time>
      </trkpt>
      <trkpt lat="44.43286" lon="6.74059">
        <ele>1243.31</ele>
        <time>2018-08-25T09:52:23Z</time>
      </trkpt>
      <trkpt lat="44.43268" lon="6.74039">
        <ele>1242.69</ele>
        <time>2018-08-25T09:52:24Z</time>
      </trkpt>
      <trkpt lat="44.43251" lon="6.74016">
        <ele>1243.2</ele>
        <time>2018-08-25T09:52:25Z</time>
      </trkpt>
      <trkpt lat="44.43237" lon="6.73989">
        <ele>1241.95</ele>
        <time>2018-08-25T09:52:26Z</time>
      </trkpt>
      <trkpt lat="44.43224" lon="6.73962">
        <ele>1240.88</ele>
        <time>2018-08-25T09:52:27Z</time>
      </trkpt>
      <trkpt lat="44.4321" lon="6.73934">
        <ele>1240.56</ele>
        <time>2018-08-25T09:52:28Z</time>
      </trkpt>
      <trkpt lat="44.43195" lon="6.73908">
        <ele>1238.36</ele>
        <time>2018-08-25T09:52:29Z</time>
      </trkpt>
      <trkpt lat="44.4318" lon="6.73886">
        <ele>1237.7</ele>
        <time>2018-08-25T09:52:30Z</time>
      </trkpt>
      <trkpt lat="44.43161" lon="6.73871">
        <ele>1237.51</ele>
        <time>2018-08-25T09:52:31Z</time>
      </trkpt>
      <trkpt lat="44.4314" lon="6.7386">
        <ele>1237.45</ele>
        <time>2018-08-25T09:52:32Z</time>
      </trkpt>
      <trkpt lat="44.43118" lon="6.73852">
        <ele>1237.43</ele>
        <time>2018-08-25T09:52:33Z</time>
      </trkpt>
      <trkpt lat="44.43098" lon="6.73844">
        <ele>1236.02</ele>
        <time>2018-08-25T09:52:34Z</time>
      </trkpt>
      <trkpt lat="44.43081" lon="6.7382">
        <ele>1235.6</ele>
        <time>2018-08-25T09:52:35Z</time>
      </trkpt>
      <trkpt lat="44.43066" lon="6.73795">
        <ele>1234.78</ele>
        <time>2018-08-25T09:52:36Z</time>
      </trkpt>
      <trkpt lat="44.43052" lon="6.73767">
        <ele>1234.53</ele>
        <time>2018-08-25T09:52:37Z</time>
      </trkpt>
      <trkpt lat="44.43038" lon="6.73739">
        <ele>1233.75</ele>
        <time>2018-08-25T09:52:38Z</time>
      </trkpt>
      <trkpt lat="44.43023" lon="6.73713">
        <ele>1234.22</ele>
        <time>2018-08-25T09:52:39Z</time>
      </trkpt>
      <trkpt lat="44.43006" lon="6.7369">
        <ele>1233.66</ele>
        <time>2018-08-25T09:52:40Z</time>
      </trkpt>
      <trkpt lat="44.42987" lon="6.7367">
        <ele>1232.79</ele>
        <time>2018-08-25T09:52:41Z</time>
      </trkpt>
      <trkpt lat="44.42967" lon="6.7365">
        <ele>1232.53</ele>
        <time>2018-08-25T09:52:42Z</time>
      </trkpt>
      <trkpt lat="44.42943" lon="6.73641">
        <ele>1231.75</ele>
        <time>2018-08-25T09:52:43Z</time>
      </trkpt>
      <trkpt lat="44.42918" lon="6.73634">
        <ele>1232.22</ele>
        <time>2018-08-25T09:52:44Z</time>
      </trkpt>
      <trkpt lat="44.42893" lon="6.73632">
        <ele>1232.36</ele>
        <time>2018-08-25T09:52:45Z</time>
      </trkpt>
      <trkpt lat="44.42869" lon="6.7363">
        <ele>1231.7</ele>
        <time>2018-08-25T09:52:46Z</time>
      </trkpt>
      <trkpt lat="44.42846" lon="6.73631">
        <ele>1231.51</ele>
        <time>2018-08-25T09:52:47Z</time>
      </trkpt>
      <trkpt lat="44.42821" lon="6.73652">
        <ele>1230.05</ele>
        <time>2018-08-25T09:52:48Z</time>
      </trkpt>
      <trkpt lat="44.42797" lon="6.73663">
        <ele>1229.61</ele>
        <time>2018-08-25T09:52:49Z</time>
      </trkpt>
      <trkpt lat="44.42773" lon="6.73673">
        <ele>1230.18</ele>
        <time>2018-08-25T09:52:50Z</time>
      </trkpt>
      <trkpt lat="44.42748" lon="6.73683">
        <ele>1229.65</ele>
        <time>2018-08-25T09:52:51Z</time>
      </trkpt>
      <trkpt lat="44.42725" lon="6.73692">
        <ele>1230.19</ele>
        <time>2018-08-25T09:52:52Z</time>
      </trkpt>
      <trkpt lat="44.427" lon="6.73696">
        <ele>1230.35</ele>
        <time>2018-08-25T09:52:53Z</time>
      </trkpt>
      <trkpt lat="44.42675" lon="6.73696">
        <ele>1230.4</ele>
        <time>2018-08-25T09:52:54Z</time>
      </trkpt>
      <trkpt lat="44.42654" lon="6.73698">
        <ele>1231.81</ele>
        <time>2018-08-25T09:52:55Z</time>
      </trkpt>
      <trkpt lat="44.42633" lon="6.73701">
        <ele>1231.54</ele>
        <time>2018-08-25T09:52:56Z</time>
      </trkpt>
      <trkpt lat="44.42598" lon="6.73701">
        <ele>1232.34</ele>
        <time>2018-08-25T09:52:58Z</time>
      </trkpt>
      <trkpt lat="44.42564" lon="6.73702">
        <ele>1228.98</ele>
        <time>2018-08-25T09:53:00Z</time>
      </trkpt>
      <trkpt lat="44.4253" lon="6.73704">
        <ele>1227.77</ele>
        <time>2018-08-25T09:53:02Z</time>
      </trkpt>
      <trkpt lat="44.42496" lon="6.73707">
        <ele>1225.84</ele>
        <time>2018-08-25T09:53:04Z</time>
      </trkpt>
      <trkpt lat="44.42464" lon="6.7371">
        <ele>1225.67</ele>
        <time>2018-08-25T09:53:06Z</time>
      </trkpt>
      <trkpt lat="44.42438" lon="6.73711">
        <ele>1224.53</ele>
        <time>2018-08-25T09:53:08Z</time>
      </trkpt>
      <trkpt lat="44.42413" lon="6.73713">
        <ele>1224.43</ele>
        <time>2018-08-25T09:53:10Z</time>
      </trkpt>
      <trkpt lat="44.42388" lon="6.73714">
        <ele>1224.63</ele>
        <time>2018-08-25T09:53:12Z</time>
      </trkpt>
      <trkpt lat="44.42361" lon="6.73716">
        <ele>1226.05</ele>
        <time>2018-08-25T09:53:14Z</time>
      </trkpt>
      <trkpt lat="44.42335" lon="6.73717">
        <ele>1225.48</ele>
        <time>2018-08-25T09:53:16Z</time>
      </trkpt>
      <trkpt lat="44.42308" lon="6.73718">
        <ele>1225.43</ele>
        <time>2018-08-25T09:53:18Z</time>
      </trkpt>
      <trkpt lat="44.42282" lon="6.73719">
        <ele>1223.6</ele>
        <time>2018-08-25T09:53:20Z</time>
      </trkpt>
      <trkpt lat="44.42256" lon="6.73719">
        <ele>1223.23</ele>
        <time>2018-08-25T09:53:22Z</time>
      </trkpt>
      <trkpt lat="44.4223" lon="6.73719">
        <ele>1222.7</ele>
        <time>2018-08-25T09:53:24Z</time>
      </trkpt>
      <trkpt lat="44.42205" lon="6.73717">
        <ele>1220.84</ele>
        <time>2018-08-25T09:53:26Z</time>
      </trkpt>
      <trkpt lat="44.42179" lon="6.73712">
        <ele>1218.85</ele>
        <time>2018-08-25T09:53:28Z</time>
      </trkpt>
      <trkpt lat="44.42154" lon="6.73706">
        <ele>1218.46</ele>
        <time>2018-08-25T09:53:30Z</time>
      </trkpt>
      <trkpt lat="44.42131" lon="6.73697">
        <ele>1217.72</ele>
        <time>2018-08-25T09:53:32Z</time>
      </trkpt>
      <trkpt lat="44.42108" lon="6.73688">
        <ele>1217.45</ele>
        <time>2018-08-25T09:53:34Z</time>
      </trkpt>
      <trkpt lat="44.42085" lon="6.73676">
        <ele>1217.42</ele>
        <time>2018-08-25T09:53:36Z</time>
      </trkpt>
      <trkpt lat="44.42063" lon="6.73664">
        <ele>1217.42</ele>
        <time>2018-08-25T09:53:38Z</time>
      </trkpt>
      <trkpt lat="44.42043" lon="6.7365">
        <ele>1217.42</ele>
        <time>2018-08-25T09:53:40Z</time>
      </trkpt>
      <trkpt lat="44.42028" lon="6.73635">
        <ele>1216.72</ele>
        <time>2018-08-25T09:53:42Z</time>
      </trkpt>
      <trkpt lat="44.42015" lon="6.73615">
        <ele>1215.75</ele>
        <time>2018-08-25T09:53:44Z</time>
      </trkpt>
      <trkpt lat="44.42013" lon="6.73588">
        <ele>1216.36</ele>
        <time>2018-08-25T09:53:46Z</time>
      </trkpt>
      <trkpt lat="44.42012" lon="6.73561">
        <ele>1216.42</ele>
        <time>2018-08-25T09:53:48Z</time>
      </trkpt>
      <trkpt lat="44.42005" lon="6.73532">
        <ele>1215.72</ele>
        <time>2018-08-25T09:53:51Z</time>
      </trkpt>
      <trkpt lat="44.41997" lon="6.73505">
        <ele>1217.1</ele>
        <time>2018-08-25T09:53:55Z</time>
      </trkpt>
      <trkpt lat="44.41991" lon="6.73481">
        <ele>1216.63</ele>
        <time>2018-08-25T09:54:01Z</time>
      </trkpt>
      <trkpt lat="44.41996" lon="6.73514">
        <ele>1216.42</ele>
        <time>2018-08-25T09:54:12Z</time>
      </trkpt>
      <trkpt lat="44.42008" lon="6.73556">
        <ele>1218.03</ele>
        <time>2018-08-25T09:54:14Z</time>
      </trkpt>
      <trkpt lat="44.4201" lon="6.73595">
        <ele>1217.69</ele>
        <time>2018-08-25T09:54:16Z</time>
      </trkpt>
      <trkpt lat="44.42018" lon="6.73629">
        <ele>1218.35</ele>
        <time>2018-08-25T09:54:18Z</time>
      </trkpt>
      <trkpt lat="44.42034" lon="6.7365">
        <ele>1219.33</ele>
        <time>2018-08-25T09:54:20Z</time>
      </trkpt>
      <trkpt lat="44.42051" lon="6.73666">
        <ele>1220.33</ele>
        <time>2018-08-25T09:54:23Z</time>
      </trkpt>
      <trkpt lat="44.42066" lon="6.7368">
        <ele>1221.48</ele>
        <time>2018-08-25T09:54:28Z</time>
      </trkpt>
      <trkpt lat="44.42055" lon="6.7366">
        <ele>1221.63</ele>
        <time>2018-08-25T09:55:38Z</time>
      </trkpt>
      <trkpt lat="44.42034" lon="6.73644">
        <ele>1220.52</ele>
        <time>2018-08-25T09:55:41Z</time>
      </trkpt>
      <trkpt lat="44.4202" lon="6.73627">
        <ele>1219.73</ele>
        <time>2018-08-25T09:55:43Z</time>
      </trkpt>
      <trkpt lat="44.42014" lon="6.73591">
        <ele>1218.52</ele>
        <time>2018-08-25T09:55:46Z</time>
      </trkpt>
      <trkpt lat="44.42012" lon="6.73563">
        <ele>1219.13</ele>
        <time>2018-08-25T09:55:48Z</time>
      </trkpt>
      <trkpt lat="44.42005" lon="6.73534">
        <ele>1218.69</ele>
        <time>2018-08-25T09:55:50Z</time>
      </trkpt>
      <trkpt lat="44.41996" lon="6.73506">
        <ele>1218.66</ele>
        <time>2018-08-25T09:55:52Z</time>
      </trkpt>
      <trkpt lat="44.41987" lon="6.73477">
        <ele>1217.53</ele>
        <time>2018-08-25T09:55:54Z</time>
      </trkpt>
      <trkpt lat="44.41976" lon="6.7345">
        <ele>1216.73</ele>
        <time>2018-08-25T09:55:56Z</time>
      </trkpt>
      <trkpt lat="44.41964" lon="6.73424">
        <ele>1217.15</ele>
        <time>2018-08-25T09:55:58Z</time>
      </trkpt>
      <trkpt lat="44.41952" lon="6.73397">
        <ele>1216.28</ele>
        <time>2018-08-25T09:56:00Z</time>
      </trkpt>
      <trkpt lat="44.41939" lon="6.7337">
        <ele>1216.41</ele>
        <time>2018-08-25T09:56:02Z</time>
      </trkpt>
      <trkpt lat="44.41919" lon="6.73349">
        <ele>1216.21</ele>
        <time>2018-08-25T09:56:04Z</time>
      </trkpt>
      <trkpt lat="44.41898" lon="6.73333">
        <ele>1215.49</ele>
        <time>2018-08-25T09:56:06Z</time>
      </trkpt>
      <trkpt lat="44.41879" lon="6.73313">
        <ele>1214.52</ele>
        <time>2018-08-25T09:56:08Z</time>
      </trkpt>
      <trkpt lat="44.41869" lon="6.7328">
        <ele>1212.82</ele>
        <time>2018-08-25T09:56:10Z</time>
      </trkpt>
      <trkpt lat="44.41862" lon="6.73243">
        <ele>1213.37</ele>
        <time>2018-08-25T09:56:12Z</time>
      </trkpt>
      <trkpt lat="44.41854" lon="6.73204">
        <ele>1213.42</ele>
        <time>2018-08-25T09:56:14Z</time>
      </trkpt>
      <trkpt lat="44.41845" lon="6.73164">
        <ele>1213.42</ele>
        <time>2018-08-25T09:56:16Z</time>
      </trkpt>
      <trkpt lat="44.41832" lon="6.73125">
        <ele>1213.42</ele>
        <time>2018-08-25T09:56:18Z</time>
      </trkpt>
      <trkpt lat="44.41816" lon="6.7309">
        <ele>1212.72</ele>
        <time>2018-08-25T09:56:20Z</time>
      </trkpt>
      <trkpt lat="44.41796" lon="6.73058">
        <ele>1214.06</ele>
        <time>2018-08-25T09:56:22Z</time>
      </trkpt>
      <trkpt lat="44.41775" lon="6.73027">
        <ele>1213.48</ele>
        <time>2018-08-25T09:56:24Z</time>
      </trkpt>
      <trkpt lat="44.41755" lon="6.72997">
        <ele>1213.22</ele>
        <time>2018-08-25T09:56:26Z</time>
      </trkpt>
      <trkpt lat="44.41735" lon="6.72966">
        <ele>1213.4</ele>
        <time>2018-08-25T09:56:28Z</time>
      </trkpt>
      <trkpt lat="44.41715" lon="6.72937">
        <ele>1213.42</ele>
        <time>2018-08-25T09:56:30Z</time>
      </trkpt>
      <trkpt lat="44.41695" lon="6.72907">
        <ele>1213.42</ele>
        <time>2018-08-25T09:56:32Z</time>
      </trkpt>
      <trkpt lat="44.41673" lon="6.72879">
        <ele>1214.33</ele>
        <time>2018-08-25T09:56:34Z</time>
      </trkpt>
      <trkpt lat="44.41647" lon="6.72857">
        <ele>1214.41</ele>
        <time>2018-08-25T09:56:36Z</time>
      </trkpt>
      <trkpt lat="44.41618" lon="6.72841">
        <ele>1213.72</ele>
        <time>2018-08-25T09:56:38Z</time>
      </trkpt>
      <trkpt lat="44.41587" lon="6.72833">
        <ele>1212.54</ele>
        <time>2018-08-25T09:56:40Z</time>
      </trkpt>
      <trkpt lat="44.41557" lon="6.72826">
        <ele>1213.13</ele>
        <time>2018-08-25T09:56:42Z</time>
      </trkpt>
      <trkpt lat="44.41529" lon="6.72821">
        <ele>1213.39</ele>
        <time>2018-08-25T09:56:44Z</time>
      </trkpt>
      <trkpt lat="44.41503" lon="6.72824">
        <ele>1214.12</ele>
        <time>2018-08-25T09:56:46Z</time>
      </trkpt>
      <trkpt lat="44.41478" lon="6.72835">
        <ele>1213.69</ele>
        <time>2018-08-25T09:56:48Z</time>
      </trkpt>
      <trkpt lat="44.41451" lon="6.72846">
        <ele>1214.36</ele>
        <time>2018-08-25T09:56:50Z</time>
      </trkpt>
      <trkpt lat="44.41424" lon="6.72858">
        <ele>1215.12</ele>
        <time>2018-08-25T09:56:52Z</time>
      </trkpt>
      <trkpt lat="44.41397" lon="6.7287">
        <ele>1217</ele>
        <time>2018-08-25T09:56:54Z</time>
      </trkpt>
      <trkpt lat="44.41371" lon="6.72882">
        <ele>1218.29</ele>
        <time>2018-08-25T09:56:56Z</time>
      </trkpt>
      <trkpt lat="44.41346" lon="6.72892">
        <ele>1220.02</ele>
        <time>2018-08-25T09:56:58Z</time>
      </trkpt>
      <trkpt lat="44.41317" lon="6.72901">
        <ele>1220.17</ele>
        <time>2018-08-25T09:57:00Z</time>
      </trkpt>
      <trkpt lat="44.41285" lon="6.72906">
        <ele>1220.4</ele>
        <time>2018-08-25T09:57:02Z</time>
      </trkpt>
      <trkpt lat="44.41251" lon="6.72901">
        <ele>1219.72</ele>
        <time>2018-08-25T09:57:04Z</time>
      </trkpt>
      <trkpt lat="44.41232" lon="6.72896">
        <ele>1219.51</ele>
        <time>2018-08-25T09:57:05Z</time>
      </trkpt>
      <trkpt lat="44.41212" lon="6.72891">
        <ele>1218.05</ele>
        <time>2018-08-25T09:57:06Z</time>
      </trkpt>
      <trkpt lat="44.4119" lon="6.72885">
        <ele>1218.31</ele>
        <time>2018-08-25T09:57:07Z</time>
      </trkpt>
      <trkpt lat="44.41169" lon="6.72878">
        <ele>1217.69</ele>
        <time>2018-08-25T09:57:08Z</time>
      </trkpt>
      <trkpt lat="44.41147" lon="6.7287">
        <ele>1216.8</ele>
        <time>2018-08-25T09:57:09Z</time>
      </trkpt>
      <trkpt lat="44.41126" lon="6.72861">
        <ele>1216.54</ele>
        <time>2018-08-25T09:57:10Z</time>
      </trkpt>
      <trkpt lat="44.41105" lon="6.72851">
        <ele>1215.76</ele>
        <time>2018-08-25T09:57:11Z</time>
      </trkpt>
      <trkpt lat="44.41086" lon="6.7284">
        <ele>1215.52</ele>
        <time>2018-08-25T09:57:12Z</time>
      </trkpt>
      <trkpt lat="44.41067" lon="6.72828">
        <ele>1215.45</ele>
        <time>2018-08-25T09:57:13Z</time>
      </trkpt>
      <trkpt lat="44.4105" lon="6.72816">
        <ele>1215.43</ele>
        <time>2018-08-25T09:57:14Z</time>
      </trkpt>
      <trkpt lat="44.41032" lon="6.72797">
        <ele>1214.72</ele>
        <time>2018-08-25T09:57:15Z</time>
      </trkpt>
      <trkpt lat="44.41016" lon="6.72781">
        <ele>1215.21</ele>
        <time>2018-08-25T09:57:16Z</time>
      </trkpt>
      <trkpt lat="44.41" lon="6.72762">
        <ele>1214.66</ele>
        <time>2018-08-25T09:57:17Z</time>
      </trkpt>
      <trkpt lat="44.40984" lon="6.72741">
        <ele>1214.49</ele>
        <time>2018-08-25T09:57:18Z</time>
      </trkpt>
      <trkpt lat="44.40968" lon="6.7272">
        <ele>1215.14</ele>
        <time>2018-08-25T09:57:19Z</time>
      </trkpt>
      <trkpt lat="44.40951" lon="6.72697">
        <ele>1215.34</ele>
        <time>2018-08-25T09:57:20Z</time>
      </trkpt>
      <trkpt lat="44.40936" lon="6.72674">
        <ele>1215.4</ele>
        <time>2018-08-25T09:57:21Z</time>
      </trkpt>
      <trkpt lat="44.40921" lon="6.72649">
        <ele>1215.41</ele>
        <time>2018-08-25T09:57:22Z</time>
      </trkpt>
      <trkpt lat="44.40907" lon="6.72622">
        <ele>1215.42</ele>
        <time>2018-08-25T09:57:23Z</time>
      </trkpt>
      <trkpt lat="44.40893" lon="6.72595">
        <ele>1214.72</ele>
        <time>2018-08-25T09:57:24Z</time>
      </trkpt>
      <trkpt lat="44.4088" lon="6.72568">
        <ele>1215.21</ele>
        <time>2018-08-25T09:57:25Z</time>
      </trkpt>
      <trkpt lat="44.40866" lon="6.72539">
        <ele>1215.36</ele>
        <time>2018-08-25T09:57:26Z</time>
      </trkpt>
      <trkpt lat="44.40853" lon="6.7251">
        <ele>1215.4</ele>
        <time>2018-08-25T09:57:27Z</time>
      </trkpt>
      <trkpt lat="44.40839" lon="6.72482">
        <ele>1214.72</ele>
        <time>2018-08-25T09:57:28Z</time>
      </trkpt>
      <trkpt lat="44.40827" lon="6.72453">
        <ele>1214.51</ele>
        <time>2018-08-25T09:57:29Z</time>
      </trkpt>
      <trkpt lat="44.40813" lon="6.72425">
        <ele>1214.45</ele>
        <time>2018-08-25T09:57:30Z</time>
      </trkpt>
      <trkpt lat="44.408" lon="6.72396">
        <ele>1214.43</ele>
        <time>2018-08-25T09:57:31Z</time>
      </trkpt>
      <trkpt lat="44.40787" lon="6.72367">
        <ele>1214.42</ele>
        <time>2018-08-25T09:57:32Z</time>
      </trkpt>
      <trkpt lat="44.40773" lon="6.72339">
        <ele>1213.72</ele>
        <time>2018-08-25T09:57:33Z</time>
      </trkpt>
      <trkpt lat="44.40759" lon="6.72311">
        <ele>1213.51</ele>
        <time>2018-08-25T09:57:34Z</time>
      </trkpt>
      <trkpt lat="44.40746" lon="6.72283">
        <ele>1213.45</ele>
        <time>2018-08-25T09:57:35Z</time>
      </trkpt>
      <trkpt lat="44.40733" lon="6.72255">
        <ele>1213.43</ele>
        <time>2018-08-25T09:57:36Z</time>
      </trkpt>
      <trkpt lat="44.4072" lon="6.72227">
        <ele>1213.42</ele>
        <time>2018-08-25T09:57:37Z</time>
      </trkpt>
      <trkpt lat="44.40709" lon="6.72198">
        <ele>1213.42</ele>
        <time>2018-08-25T09:57:38Z</time>
      </trkpt>
      <trkpt lat="44.407" lon="6.72169">
        <ele>1212.72</ele>
        <time>2018-08-25T09:57:39Z</time>
      </trkpt>
      <trkpt lat="44.4069" lon="6.72139">
        <ele>1212.51</ele>
        <time>2018-08-25T09:57:40Z</time>
      </trkpt>
      <trkpt lat="44.40681" lon="6.72109">
        <ele>1211.75</ele>
        <time>2018-08-25T09:57:41Z</time>
      </trkpt>
      <trkpt lat="44.40672" lon="6.72079">
        <ele>1212.22</ele>
        <time>2018-08-25T09:57:42Z</time>
      </trkpt>
      <trkpt lat="44.40662" lon="6.72049">
        <ele>1211.66</ele>
        <time>2018-08-25T09:57:43Z</time>
      </trkpt>
      <trkpt lat="44.40653" lon="6.72018">
        <ele>1211.49</ele>
        <time>2018-08-25T09:57:44Z</time>
      </trkpt>
      <trkpt lat="44.40644" lon="6.71988">
        <ele>1210.74</ele>
        <time>2018-08-25T09:57:45Z</time>
      </trkpt>
      <trkpt lat="44.40635" lon="6.71957">
        <ele>1210.52</ele>
        <time>2018-08-25T09:57:46Z</time>
      </trkpt>
      <trkpt lat="44.40626" lon="6.71927">
        <ele>1210.45</ele>
        <time>2018-08-25T09:57:47Z</time>
      </trkpt>
      <trkpt lat="44.40617" lon="6.71897">
        <ele>1209.73</ele>
        <time>2018-08-25T09:57:48Z</time>
      </trkpt>
      <trkpt lat="44.40608" lon="6.71868">
        <ele>1208.81</ele>
        <time>2018-08-25T09:57:49Z</time>
      </trkpt>
      <trkpt lat="44.40599" lon="6.71839">
        <ele>1208.54</ele>
        <time>2018-08-25T09:57:50Z</time>
      </trkpt>
      <trkpt lat="44.40591" lon="6.71811">
        <ele>1208.46</ele>
        <time>2018-08-25T09:57:51Z</time>
      </trkpt>
      <trkpt lat="44.40585" lon="6.7178">
        <ele>1207.03</ele>
        <time>2018-08-25T09:57:52Z</time>
      </trkpt>
      <trkpt lat="44.4058" lon="6.71749">
        <ele>1206.6</ele>
        <time>2018-08-25T09:57:53Z</time>
      </trkpt>
      <trkpt lat="44.40576" lon="6.71717">
        <ele>1205.78</ele>
        <time>2018-08-25T09:57:54Z</time>
      </trkpt>
      <trkpt lat="44.40571" lon="6.71687">
        <ele>1205.53</ele>
        <time>2018-08-25T09:57:55Z</time>
      </trkpt>
      <trkpt lat="44.40566" lon="6.71658">
        <ele>1204.05</ele>
        <time>2018-08-25T09:57:56Z</time>
      </trkpt>
      <trkpt lat="44.40561" lon="6.7163">
        <ele>1202.91</ele>
        <time>2018-08-25T09:57:57Z</time>
      </trkpt>
      <trkpt lat="44.40555" lon="6.71598">
        <ele>1201.87</ele>
        <time>2018-08-25T09:57:58Z</time>
      </trkpt>
      <trkpt lat="44.4055" lon="6.71565">
        <ele>1200.86</ele>
        <time>2018-08-25T09:57:59Z</time>
      </trkpt>
      <trkpt lat="44.40546" lon="6.71531">
        <ele>1199.85</ele>
        <time>2018-08-25T09:58:00Z</time>
      </trkpt>
      <trkpt lat="44.40541" lon="6.71496">
        <ele>1198.85</ele>
        <time>2018-08-25T09:58:01Z</time>
      </trkpt>
      <trkpt lat="44.40536" lon="6.7146">
        <ele>1198.55</ele>
        <time>2018-08-25T09:58:02Z</time>
      </trkpt>
      <trkpt lat="44.4053" lon="6.71425">
        <ele>1197.76</ele>
        <time>2018-08-25T09:58:03Z</time>
      </trkpt>
      <trkpt lat="44.40524" lon="6.7139">
        <ele>1196.82</ele>
        <time>2018-08-25T09:58:04Z</time>
      </trkpt>
      <trkpt lat="44.40519" lon="6.71356">
        <ele>1195.84</ele>
        <time>2018-08-25T09:58:05Z</time>
      </trkpt>
      <trkpt lat="44.40514" lon="6.71322">
        <ele>1194.85</ele>
        <time>2018-08-25T09:58:06Z</time>
      </trkpt>
      <trkpt lat="44.40508" lon="6.71287">
        <ele>1193.85</ele>
        <time>2018-08-25T09:58:07Z</time>
      </trkpt>
      <trkpt lat="44.40502" lon="6.71253">
        <ele>1192.85</ele>
        <time>2018-08-25T09:58:08Z</time>
      </trkpt>
      <trkpt lat="44.40497" lon="6.71219">
        <ele>1191.85</ele>
        <time>2018-08-25T09:58:09Z</time>
      </trkpt>
      <trkpt lat="44.40492" lon="6.71185">
        <ele>1190.85</ele>
        <time>2018-08-25T09:58:10Z</time>
      </trkpt>
      <trkpt lat="44.40488" lon="6.71151">
        <ele>1189.85</ele>
        <time>2018-08-25T09:58:11Z</time>
      </trkpt>
      <trkpt lat="44.40487" lon="6.71116">
        <ele>1189.55</ele>
        <time>2018-08-25T09:58:12Z</time>
      </trkpt>
      <trkpt lat="44.40486" lon="6.71082">
        <ele>1188.76</ele>
        <time>2018-08-25T09:58:13Z</time>
      </trkpt>
      <trkpt lat="44.40486" lon="6.71046">
        <ele>1188.52</ele>
        <time>2018-08-25T09:58:14Z</time>
      </trkpt>
      <trkpt lat="44.40486" lon="6.71011">
        <ele>1188.45</ele>
        <time>2018-08-25T09:58:15Z</time>
      </trkpt>
      <trkpt lat="44.40486" lon="6.70976">
        <ele>1187.73</ele>
        <time>2018-08-25T09:58:16Z</time>
      </trkpt>
      <trkpt lat="44.40486" lon="6.70941">
        <ele>1186.81</ele>
        <time>2018-08-25T09:58:17Z</time>
      </trkpt>
      <trkpt lat="44.40486" lon="6.70906">
        <ele>1185.84</ele>
        <time>2018-08-25T09:58:18Z</time>
      </trkpt>
      <trkpt lat="44.40486" lon="6.70871">
        <ele>1184.85</ele>
        <time>2018-08-25T09:58:19Z</time>
      </trkpt>
      <trkpt lat="44.40486" lon="6.70836">
        <ele>1183.85</ele>
        <time>2018-08-25T09:58:20Z</time>
      </trkpt>
      <trkpt lat="44.40486" lon="6.70802">
        <ele>1183.55</ele>
        <time>2018-08-25T09:58:21Z</time>
      </trkpt>
      <trkpt lat="44.40486" lon="6.70767">
        <ele>1183.46</ele>
        <time>2018-08-25T09:58:22Z</time>
      </trkpt>
      <trkpt lat="44.40486" lon="6.70733">
        <ele>1182.73</ele>
        <time>2018-08-25T09:58:23Z</time>
      </trkpt>
      <trkpt lat="44.40485" lon="6.70699">
        <ele>1182.51</ele>
        <time>2018-08-25T09:58:24Z</time>
      </trkpt>
      <trkpt lat="44.40485" lon="6.70665">
        <ele>1181.75</ele>
        <time>2018-08-25T09:58:25Z</time>
      </trkpt>
      <trkpt lat="44.40484" lon="6.70632">
        <ele>1181.52</ele>
        <time>2018-08-25T09:58:26Z</time>
      </trkpt>
      <trkpt lat="44.40483" lon="6.70599">
        <ele>1180.75</ele>
        <time>2018-08-25T09:58:27Z</time>
      </trkpt>
      <trkpt lat="44.4048" lon="6.70567">
        <ele>1180.52</ele>
        <time>2018-08-25T09:58:28Z</time>
      </trkpt>
      <trkpt lat="44.40475" lon="6.70536">
        <ele>1180.45</ele>
        <time>2018-08-25T09:58:29Z</time>
      </trkpt>
      <trkpt lat="44.40466" lon="6.70506">
        <ele>1180.43</ele>
        <time>2018-08-25T09:58:30Z</time>
      </trkpt>
      <trkpt lat="44.40458" lon="6.70476">
        <ele>1179.72</ele>
        <time>2018-08-25T09:58:31Z</time>
      </trkpt>
      <trkpt lat="44.40451" lon="6.70447">
        <ele>1179.51</ele>
        <time>2018-08-25T09:58:32Z</time>
      </trkpt>
      <trkpt lat="44.40443" lon="6.70417">
        <ele>1179.45</ele>
        <time>2018-08-25T09:58:33Z</time>
      </trkpt>
      <trkpt lat="44.40435" lon="6.70388">
        <ele>1179.43</ele>
        <time>2018-08-25T09:58:34Z</time>
      </trkpt>
      <trkpt lat="44.40428" lon="6.70359">
        <ele>1179.42</ele>
        <time>2018-08-25T09:58:35Z</time>
      </trkpt>
      <trkpt lat="44.40421" lon="6.70332">
        <ele>1179.42</ele>
        <time>2018-08-25T09:58:36Z</time>
      </trkpt>
      <trkpt lat="44.40413" lon="6.70304">
        <ele>1179.42</ele>
        <time>2018-08-25T09:58:37Z</time>
      </trkpt>
      <trkpt lat="44.40406" lon="6.70277">
        <ele>1179.42</ele>
        <time>2018-08-25T09:58:38Z</time>
      </trkpt>
      <trkpt lat="44.40398" lon="6.70252">
        <ele>1179.42</ele>
        <time>2018-08-25T09:58:39Z</time>
      </trkpt>
      <trkpt lat="44.40387" lon="6.70231">
        <ele>1180.12</ele>
        <time>2018-08-25T09:58:40Z</time>
      </trkpt>
      <trkpt lat="44.4036" lon="6.70199">
        <ele>1181.09</ele>
        <time>2018-08-25T09:58:42Z</time>
      </trkpt>
      <trkpt lat="44.40343" lon="6.7019">
        <ele>1180.62</ele>
        <time>2018-08-25T09:58:43Z</time>
      </trkpt>
      <trkpt lat="44.40322" lon="6.70182">
        <ele>1180.48</ele>
        <time>2018-08-25T09:58:44Z</time>
      </trkpt>
      <trkpt lat="44.40301" lon="6.70173">
        <ele>1181.14</ele>
        <time>2018-08-25T09:58:45Z</time>
      </trkpt>
      <trkpt lat="44.40278" lon="6.70162">
        <ele>1182.04</ele>
        <time>2018-08-25T09:58:46Z</time>
      </trkpt>
      <trkpt lat="44.40255" lon="6.70154">
        <ele>1181.61</ele>
        <time>2018-08-25T09:58:47Z</time>
      </trkpt>
      <trkpt lat="44.40232" lon="6.70144">
        <ele>1180.78</ele>
        <time>2018-08-25T09:58:48Z</time>
      </trkpt>
      <trkpt lat="44.40214" lon="6.7013">
        <ele>1180.53</ele>
        <time>2018-08-25T09:58:49Z</time>
      </trkpt>
      <trkpt lat="44.40198" lon="6.70111">
        <ele>1179.75</ele>
        <time>2018-08-25T09:58:50Z</time>
      </trkpt>
      <trkpt lat="44.40185" lon="6.70087">
        <ele>1179.52</ele>
        <time>2018-08-25T09:58:51Z</time>
      </trkpt>
      <trkpt lat="44.40172" lon="6.70065">
        <ele>1180.15</ele>
        <time>2018-08-25T09:58:52Z</time>
      </trkpt>
      <trkpt lat="44.40162" lon="6.70034">
        <ele>1180.34</ele>
        <time>2018-08-25T09:58:53Z</time>
      </trkpt>
      <trkpt lat="44.40151" lon="6.70005">
        <ele>1180.4</ele>
        <time>2018-08-25T09:58:54Z</time>
      </trkpt>
      <trkpt lat="44.4014" lon="6.69973">
        <ele>1179.71</ele>
        <time>2018-08-25T09:58:55Z</time>
      </trkpt>
      <trkpt lat="44.4013" lon="6.69942">
        <ele>1179.51</ele>
        <time>2018-08-25T09:58:56Z</time>
      </trkpt>
      <trkpt lat="44.40119" lon="6.69909">
        <ele>1178.75</ele>
        <time>2018-08-25T09:58:57Z</time>
      </trkpt>
      <trkpt lat="44.40109" lon="6.69877">
        <ele>1178.52</ele>
        <time>2018-08-25T09:58:58Z</time>
      </trkpt>
      <trkpt lat="44.40098" lon="6.69846">
        <ele>1178.45</ele>
        <time>2018-08-25T09:58:59Z</time>
      </trkpt>
      <trkpt lat="44.40087" lon="6.69814">
        <ele>1178.43</ele>
        <time>2018-08-25T09:59:00Z</time>
      </trkpt>
      <trkpt lat="44.40077" lon="6.69784">
        <ele>1177.72</ele>
        <time>2018-08-25T09:59:01Z</time>
      </trkpt>
      <trkpt lat="44.40066" lon="6.69754">
        <ele>1178.21</ele>
        <time>2018-08-25T09:59:02Z</time>
      </trkpt>
      <trkpt lat="44.40056" lon="6.69724">
        <ele>1178.36</ele>
        <time>2018-08-25T09:59:03Z</time>
      </trkpt>
      <trkpt lat="44.40046" lon="6.69695">
        <ele>1178.4</ele>
        <time>2018-08-25T09:59:04Z</time>
      </trkpt>
      <trkpt lat="44.40035" lon="6.69666">
        <ele>1178.42</ele>
        <time>2018-08-25T09:59:05Z</time>
      </trkpt>
      <trkpt lat="44.40026" lon="6.69638">
        <ele>1178.42</ele>
        <time>2018-08-25T09:59:06Z</time>
      </trkpt>
      <trkpt lat="44.40016" lon="6.69611">
        <ele>1178.42</ele>
        <time>2018-08-25T09:59:07Z</time>
      </trkpt>
      <trkpt lat="44.40007" lon="6.69584">
        <ele>1177.72</ele>
        <time>2018-08-25T09:59:08Z</time>
      </trkpt>
      <trkpt lat="44.39998" lon="6.69557">
        <ele>1177.51</ele>
        <time>2018-08-25T09:59:09Z</time>
      </trkpt>
      <trkpt lat="44.39988" lon="6.69531">
        <ele>1177.45</ele>
        <time>2018-08-25T09:59:10Z</time>
      </trkpt>
      <trkpt lat="44.39979" lon="6.69504">
        <ele>1177.43</ele>
        <time>2018-08-25T09:59:11Z</time>
      </trkpt>
      <trkpt lat="44.3997" lon="6.69478">
        <ele>1177.42</ele>
        <time>2018-08-25T09:59:12Z</time>
      </trkpt>
      <trkpt lat="44.39959" lon="6.69451">
        <ele>1177.42</ele>
        <time>2018-08-25T09:59:13Z</time>
      </trkpt>
      <trkpt lat="44.39946" lon="6.69427">
        <ele>1177.42</ele>
        <time>2018-08-25T09:59:14Z</time>
      </trkpt>
      <trkpt lat="44.39932" lon="6.69407">
        <ele>1177.42</ele>
        <time>2018-08-25T09:59:15Z</time>
      </trkpt>
      <trkpt lat="44.39915" lon="6.69389">
        <ele>1177.42</ele>
        <time>2018-08-25T09:59:16Z</time>
      </trkpt>
      <trkpt lat="44.39897" lon="6.69374">
        <ele>1177.42</ele>
        <time>2018-08-25T09:59:17Z</time>
      </trkpt>
      <trkpt lat="44.39878" lon="6.69359">
        <ele>1177.42</ele>
        <time>2018-08-25T09:59:18Z</time>
      </trkpt>
      <trkpt lat="44.39859" lon="6.69344">
        <ele>1176.72</ele>
        <time>2018-08-25T09:59:19Z</time>
      </trkpt>
      <trkpt lat="44.3984" lon="6.69329">
        <ele>1176.51</ele>
        <time>2018-08-25T09:59:20Z</time>
      </trkpt>
      <trkpt lat="44.39821" lon="6.69312">
        <ele>1176.45</ele>
        <time>2018-08-25T09:59:21Z</time>
      </trkpt>
      <trkpt lat="44.39802" lon="6.69296">
        <ele>1176.43</ele>
        <time>2018-08-25T09:59:22Z</time>
      </trkpt>
      <trkpt lat="44.39782" lon="6.6928">
        <ele>1175.72</ele>
        <time>2018-08-25T09:59:23Z</time>
      </trkpt>
      <trkpt lat="44.39762" lon="6.69263">
        <ele>1175.51</ele>
        <time>2018-08-25T09:59:24Z</time>
      </trkpt>
      <trkpt lat="44.39743" lon="6.69247">
        <ele>1174.75</ele>
        <time>2018-08-25T09:59:25Z</time>
      </trkpt>
      <trkpt lat="44.39723" lon="6.6923">
        <ele>1175.22</ele>
        <time>2018-08-25T09:59:26Z</time>
      </trkpt>
      <trkpt lat="44.39704" lon="6.69213">
        <ele>1175.36</ele>
        <time>2018-08-25T09:59:27Z</time>
      </trkpt>
      <trkpt lat="44.39684" lon="6.69196">
        <ele>1175.4</ele>
        <time>2018-08-25T09:59:28Z</time>
      </trkpt>
      <trkpt lat="44.39664" lon="6.6918">
        <ele>1175.42</ele>
        <time>2018-08-25T09:59:29Z</time>
      </trkpt>
      <trkpt lat="44.39645" lon="6.69163">
        <ele>1174.72</ele>
        <time>2018-08-25T09:59:30Z</time>
      </trkpt>
      <trkpt lat="44.39625" lon="6.69147">
        <ele>1173.81</ele>
        <time>2018-08-25T09:59:31Z</time>
      </trkpt>
      <trkpt lat="44.39606" lon="6.6913">
        <ele>1173.54</ele>
        <time>2018-08-25T09:59:32Z</time>
      </trkpt>
      <trkpt lat="44.39587" lon="6.69114">
        <ele>1173.46</ele>
        <time>2018-08-25T09:59:33Z</time>
      </trkpt>
      <trkpt lat="44.39569" lon="6.69096">
        <ele>1173.43</ele>
        <time>2018-08-25T09:59:34Z</time>
      </trkpt>
      <trkpt lat="44.39551" lon="6.69076">
        <ele>1173.42</ele>
        <time>2018-08-25T09:59:35Z</time>
      </trkpt>
      <trkpt lat="44.39533" lon="6.69055">
        <ele>1172.72</ele>
        <time>2018-08-25T09:59:36Z</time>
      </trkpt>
      <trkpt lat="44.39515" lon="6.69036">
        <ele>1172.51</ele>
        <time>2018-08-25T09:59:37Z</time>
      </trkpt>
      <trkpt lat="44.39497" lon="6.69013">
        <ele>1172.45</ele>
        <time>2018-08-25T09:59:38Z</time>
      </trkpt>
      <trkpt lat="44.39479" lon="6.68993">
        <ele>1172.43</ele>
        <time>2018-08-25T09:59:39Z</time>
      </trkpt>
      <trkpt lat="44.39461" lon="6.68971">
        <ele>1173.12</ele>
        <time>2018-08-25T09:59:40Z</time>
      </trkpt>
      <trkpt lat="44.39444" lon="6.68948">
        <ele>1173.33</ele>
        <time>2018-08-25T09:59:41Z</time>
      </trkpt>
      <trkpt lat="44.39429" lon="6.68925">
        <ele>1173.39</ele>
        <time>2018-08-25T09:59:42Z</time>
      </trkpt>
      <trkpt lat="44.39414" lon="6.68901">
        <ele>1173.41</ele>
        <time>2018-08-25T09:59:43Z</time>
      </trkpt>
      <trkpt lat="44.39399" lon="6.68877">
        <ele>1172.72</ele>
        <time>2018-08-25T09:59:44Z</time>
      </trkpt>
      <trkpt lat="44.39384" lon="6.68852">
        <ele>1173.21</ele>
        <time>2018-08-25T09:59:45Z</time>
      </trkpt>
      <trkpt lat="44.39369" lon="6.68829">
        <ele>1173.36</ele>
        <time>2018-08-25T09:59:46Z</time>
      </trkpt>
      <trkpt lat="44.39354" lon="6.68805">
        <ele>1172.7</ele>
        <time>2018-08-25T09:59:47Z</time>
      </trkpt>
      <trkpt lat="44.3934" lon="6.68781">
        <ele>1173.21</ele>
        <time>2018-08-25T09:59:48Z</time>
      </trkpt>
      <trkpt lat="44.39325" lon="6.68759">
        <ele>1173.36</ele>
        <time>2018-08-25T09:59:49Z</time>
      </trkpt>
      <trkpt lat="44.39311" lon="6.68736">
        <ele>1173.4</ele>
        <time>2018-08-25T09:59:50Z</time>
      </trkpt>
      <trkpt lat="44.39297" lon="6.68714">
        <ele>1173.42</ele>
        <time>2018-08-25T09:59:51Z</time>
      </trkpt>
      <trkpt lat="44.39284" lon="6.68691">
        <ele>1172.72</ele>
        <time>2018-08-25T09:59:52Z</time>
      </trkpt>
      <trkpt lat="44.39271" lon="6.68668">
        <ele>1172.51</ele>
        <time>2018-08-25T09:59:53Z</time>
      </trkpt>
      <trkpt lat="44.39259" lon="6.68644">
        <ele>1172.45</ele>
        <time>2018-08-25T09:59:54Z</time>
      </trkpt>
      <trkpt lat="44.39248" lon="6.68617">
        <ele>1172.43</ele>
        <time>2018-08-25T09:59:55Z</time>
      </trkpt>
      <trkpt lat="44.39239" lon="6.68588">
        <ele>1172.42</ele>
        <time>2018-08-25T09:59:56Z</time>
      </trkpt>
      <trkpt lat="44.39231" lon="6.6856">
        <ele>1172.42</ele>
        <time>2018-08-25T09:59:57Z</time>
      </trkpt>
      <trkpt lat="44.39223" lon="6.68531">
        <ele>1172.42</ele>
        <time>2018-08-25T09:59:58Z</time>
      </trkpt>
      <trkpt lat="44.39216" lon="6.68501">
        <ele>1172.42</ele>
        <time>2018-08-25T09:59:59Z</time>
      </trkpt>
      <trkpt lat="44.39208" lon="6.68473">
        <ele>1172.42</ele>
        <time>2018-08-25T10:00:00Z</time>
      </trkpt>
      <trkpt lat="44.392" lon="6.68444">
        <ele>1172.42</ele>
        <time>2018-08-25T10:00:01Z</time>
      </trkpt>
      <trkpt lat="44.39191" lon="6.68415">
        <ele>1172.42</ele>
        <time>2018-08-25T10:00:02Z</time>
      </trkpt>
      <trkpt lat="44.39184" lon="6.68387">
        <ele>1172.42</ele>
        <time>2018-08-25T10:00:03Z</time>
      </trkpt>
      <trkpt lat="44.39176" lon="6.68358">
        <ele>1172.42</ele>
        <time>2018-08-25T10:00:04Z</time>
      </trkpt>
      <trkpt lat="44.39169" lon="6.68328">
        <ele>1172.42</ele>
        <time>2018-08-25T10:00:05Z</time>
      </trkpt>
      <trkpt lat="44.39164" lon="6.68297">
        <ele>1172.42</ele>
        <time>2018-08-25T10:00:06Z</time>
      </trkpt>
      <trkpt lat="44.39161" lon="6.68266">
        <ele>1171.72</ele>
        <time>2018-08-25T10:00:07Z</time>
      </trkpt>
      <trkpt lat="44.3916" lon="6.68235">
        <ele>1171.51</ele>
        <time>2018-08-25T10:00:08Z</time>
      </trkpt>
      <trkpt lat="44.39158" lon="6.68202">
        <ele>1171.45</ele>
        <time>2018-08-25T10:00:09Z</time>
      </trkpt>
      <trkpt lat="44.39157" lon="6.68169">
        <ele>1171.43</ele>
        <time>2018-08-25T10:00:10Z</time>
      </trkpt>
      <trkpt lat="44.39157" lon="6.68136">
        <ele>1171.42</ele>
        <time>2018-08-25T10:00:11Z</time>
      </trkpt>
      <trkpt lat="44.39157" lon="6.68104">
        <ele>1170.72</ele>
        <time>2018-08-25T10:00:12Z</time>
      </trkpt>
      <trkpt lat="44.39157" lon="6.68072">
        <ele>1170.51</ele>
        <time>2018-08-25T10:00:13Z</time>
      </trkpt>
      <trkpt lat="44.39156" lon="6.6804">
        <ele>1169.75</ele>
        <time>2018-08-25T10:00:14Z</time>
      </trkpt>
      <trkpt lat="44.39155" lon="6.6801">
        <ele>1169.52</ele>
        <time>2018-08-25T10:00:15Z</time>
      </trkpt>
      <trkpt lat="44.39154" lon="6.67981">
        <ele>1169.45</ele>
        <time>2018-08-25T10:00:16Z</time>
      </trkpt>
      <trkpt lat="44.39154" lon="6.67952">
        <ele>1168.73</ele>
        <time>2018-08-25T10:00:17Z</time>
      </trkpt>
      <trkpt lat="44.39153" lon="6.67923">
        <ele>1167.81</ele>
        <time>2018-08-25T10:00:18Z</time>
      </trkpt>
      <trkpt lat="44.39152" lon="6.67894">
        <ele>1166.84</ele>
        <time>2018-08-25T10:00:19Z</time>
      </trkpt>
      <trkpt lat="44.39151" lon="6.67864">
        <ele>1166.55</ele>
        <time>2018-08-25T10:00:20Z</time>
      </trkpt>
      <trkpt lat="44.3915" lon="6.67834">
        <ele>1166.46</ele>
        <time>2018-08-25T10:00:21Z</time>
      </trkpt>
      <trkpt lat="44.39149" lon="6.67806">
        <ele>1166.43</ele>
        <time>2018-08-25T10:00:22Z</time>
      </trkpt>
      <trkpt lat="44.39149" lon="6.67776">
        <ele>1166.42</ele>
        <time>2018-08-25T10:00:23Z</time>
      </trkpt>
      <trkpt lat="44.39148" lon="6.67746">
        <ele>1165.72</ele>
        <time>2018-08-25T10:00:24Z</time>
      </trkpt>
      <trkpt lat="44.39147" lon="6.67715">
        <ele>1165.51</ele>
        <time>2018-08-25T10:00:25Z</time>
      </trkpt>
      <trkpt lat="44.39147" lon="6.67684">
        <ele>1165.45</ele>
        <time>2018-08-25T10:00:26Z</time>
      </trkpt>
      <trkpt lat="44.39146" lon="6.67654">
        <ele>1165.43</ele>
        <time>2018-08-25T10:00:27Z</time>
      </trkpt>
      <trkpt lat="44.39145" lon="6.67623">
        <ele>1164.72</ele>
        <time>2018-08-25T10:00:28Z</time>
      </trkpt>
      <trkpt lat="44.39145" lon="6.67592">
        <ele>1163.81</ele>
        <time>2018-08-25T10:00:29Z</time>
      </trkpt>
      <trkpt lat="44.39145" lon="6.67563">
        <ele>1162.14</ele>
        <time>2018-08-25T10:00:30Z</time>
      </trkpt>
      <trkpt lat="44.39145" lon="6.67534">
        <ele>1161.64</ele>
        <time>2018-08-25T10:00:31Z</time>
      </trkpt>
      <trkpt lat="44.39144" lon="6.67508">
        <ele>1160.09</ele>
        <time>2018-08-25T10:00:32Z</time>
      </trkpt>
      <trkpt lat="44.39144" lon="6.67482">
        <ele>1159.62</ele>
        <time>2018-08-25T10:00:33Z</time>
      </trkpt>
      <trkpt lat="44.39142" lon="6.67436">
        <ele>1158.74</ele>
        <time>2018-08-25T10:00:35Z</time>
      </trkpt>
      <trkpt lat="44.39142" lon="6.67395">
        <ele>1157.54</ele>
        <time>2018-08-25T10:00:37Z</time>
      </trkpt>
      <trkpt lat="44.39141" lon="6.67355">
        <ele>1157.43</ele>
        <time>2018-08-25T10:00:39Z</time>
      </trkpt>
      <trkpt lat="44.3914" lon="6.67314">
        <ele>1157.42</ele>
        <time>2018-08-25T10:00:41Z</time>
      </trkpt>
      <trkpt lat="44.3914" lon="6.67274">
        <ele>1156.51</ele>
        <time>2018-08-25T10:00:43Z</time>
      </trkpt>
      <trkpt lat="44.39139" lon="6.67237">
        <ele>1156.43</ele>
        <time>2018-08-25T10:00:45Z</time>
      </trkpt>
      <trkpt lat="44.39138" lon="6.672">
        <ele>1155.51</ele>
        <time>2018-08-25T10:00:47Z</time>
      </trkpt>
      <trkpt lat="44.39137" lon="6.6716">
        <ele>1153.82</ele>
        <time>2018-08-25T10:00:49Z</time>
      </trkpt>
      <trkpt lat="44.39134" lon="6.6712">
        <ele>1153.46</ele>
        <time>2018-08-25T10:00:51Z</time>
      </trkpt>
      <trkpt lat="44.39127" lon="6.67082">
        <ele>1153.42</ele>
        <time>2018-08-25T10:00:53Z</time>
      </trkpt>
      <trkpt lat="44.39111" lon="6.67046">
        <ele>1152.51</ele>
        <time>2018-08-25T10:00:55Z</time>
      </trkpt>
      <trkpt lat="44.39086" lon="6.67013">
        <ele>1153.13</ele>
        <time>2018-08-25T10:00:57Z</time>
      </trkpt>
      <trkpt lat="44.39061" lon="6.66991">
        <ele>1152.48</ele>
        <time>2018-08-25T10:00:59Z</time>
      </trkpt>
      <trkpt lat="44.39043" lon="6.66968">
        <ele>1152.64</ele>
        <time>2018-08-25T10:01:01Z</time>
      </trkpt>
      <trkpt lat="44.39033" lon="6.6694">
        <ele>1152.44</ele>
        <time>2018-08-25T10:01:03Z</time>
      </trkpt>
      <trkpt lat="44.39025" lon="6.6691">
        <ele>1151.51</ele>
        <time>2018-08-25T10:01:05Z</time>
      </trkpt>
      <trkpt lat="44.39019" lon="6.6688">
        <ele>1150.73</ele>
        <time>2018-08-25T10:01:07Z</time>
      </trkpt>
      <trkpt lat="44.39012" lon="6.66853">
        <ele>1149.75</ele>
        <time>2018-08-25T10:01:09Z</time>
      </trkpt>
      <trkpt lat="44.39006" lon="6.66827">
        <ele>1149.45</ele>
        <time>2018-08-25T10:01:11Z</time>
      </trkpt>
      <trkpt lat="44.39002" lon="6.668">
        <ele>1147.81</ele>
        <time>2018-08-25T10:01:13Z</time>
      </trkpt>
      <trkpt lat="44.39001" lon="6.66772">
        <ele>1147.46</ele>
        <time>2018-08-25T10:01:15Z</time>
      </trkpt>
      <trkpt lat="44.39004" lon="6.66744">
        <ele>1146.51</ele>
        <time>2018-08-25T10:01:17Z</time>
      </trkpt>
      <trkpt lat="44.39009" lon="6.66713">
        <ele>1146.43</ele>
        <time>2018-08-25T10:01:19Z</time>
      </trkpt>
      <trkpt lat="44.39012" lon="6.66681">
        <ele>1146.42</ele>
        <time>2018-08-25T10:01:21Z</time>
      </trkpt>
      <trkpt lat="44.39013" lon="6.6665">
        <ele>1145.72</ele>
        <time>2018-08-25T10:01:23Z</time>
      </trkpt>
      <trkpt lat="44.39006" lon="6.66618">
        <ele>1145.45</ele>
        <time>2018-08-25T10:01:25Z</time>
      </trkpt>
      <trkpt lat="44.38992" lon="6.6659">
        <ele>1142.9</ele>
        <time>2018-08-25T10:01:27Z</time>
      </trkpt>
      <trkpt lat="44.3898" lon="6.66561">
        <ele>1141.76</ele>
        <time>2018-08-25T10:01:29Z</time>
      </trkpt>
      <trkpt lat="44.38969" lon="6.66526">
        <ele>1141.45</ele>
        <time>2018-08-25T10:01:31Z</time>
      </trkpt>
      <trkpt lat="44.38951" lon="6.66486">
        <ele>1141.42</ele>
        <time>2018-08-25T10:01:33Z</time>
      </trkpt>
      <trkpt lat="44.38929" lon="6.6645">
        <ele>1140.72</ele>
        <time>2018-08-25T10:01:35Z</time>
      </trkpt>
      <trkpt lat="44.38909" lon="6.66413">
        <ele>1139.75</ele>
        <time>2018-08-25T10:01:37Z</time>
      </trkpt>
      <trkpt lat="44.389" lon="6.66389">
        <ele>1138.12</ele>
        <time>2018-08-25T10:01:38Z</time>
      </trkpt>
      <trkpt lat="44.38891" lon="6.66366">
        <ele>1137.63</ele>
        <time>2018-08-25T10:01:39Z</time>
      </trkpt>
      <trkpt lat="44.38884" lon="6.66342">
        <ele>1136.78</ele>
        <time>2018-08-25T10:01:40Z</time>
      </trkpt>
      <trkpt lat="44.38872" lon="6.66302">
        <ele>1137.36</ele>
        <time>2018-08-25T10:01:42Z</time>
      </trkpt>
      <trkpt lat="44.38861" lon="6.6627">
        <ele>1137.42</ele>
        <time>2018-08-25T10:01:44Z</time>
      </trkpt>
      <trkpt lat="44.38852" lon="6.6624">
        <ele>1136.51</ele>
        <time>2018-08-25T10:01:46Z</time>
      </trkpt>
      <trkpt lat="44.38847" lon="6.6621">
        <ele>1135.73</ele>
        <time>2018-08-25T10:01:48Z</time>
      </trkpt>
      <trkpt lat="44.3884" lon="6.66172">
        <ele>1135.45</ele>
        <time>2018-08-25T10:01:50Z</time>
      </trkpt>
      <trkpt lat="44.38836" lon="6.66132">
        <ele>1134.51</ele>
        <time>2018-08-25T10:01:52Z</time>
      </trkpt>
      <trkpt lat="44.38834" lon="6.66097">
        <ele>1133.73</ele>
        <time>2018-08-25T10:01:54Z</time>
      </trkpt>
      <trkpt lat="44.3883" lon="6.66065">
        <ele>1133.45</ele>
        <time>2018-08-25T10:01:56Z</time>
      </trkpt>
      <trkpt lat="44.38826" lon="6.66033">
        <ele>1133.42</ele>
        <time>2018-08-25T10:01:58Z</time>
      </trkpt>
      <trkpt lat="44.38821" lon="6.65999">
        <ele>1133.42</ele>
        <time>2018-08-25T10:02:00Z</time>
      </trkpt>
      <trkpt lat="44.38818" lon="6.65967">
        <ele>1132.51</ele>
        <time>2018-08-25T10:02:02Z</time>
      </trkpt>
      <trkpt lat="44.38813" lon="6.65933">
        <ele>1132.43</ele>
        <time>2018-08-25T10:02:04Z</time>
      </trkpt>
      <trkpt lat="44.3881" lon="6.65899">
        <ele>1132.42</ele>
        <time>2018-08-25T10:02:06Z</time>
      </trkpt>
      <trkpt lat="44.38805" lon="6.65866">
        <ele>1130.6</ele>
        <time>2018-08-25T10:02:08Z</time>
      </trkpt>
      <trkpt lat="44.38801" lon="6.65836">
        <ele>1130.44</ele>
        <time>2018-08-25T10:02:10Z</time>
      </trkpt>
      <trkpt lat="44.38798" lon="6.65807">
        <ele>1130.42</ele>
        <time>2018-08-25T10:02:12Z</time>
      </trkpt>
      <trkpt lat="44.38795" lon="6.65779">
        <ele>1129.72</ele>
        <time>2018-08-25T10:02:14Z</time>
      </trkpt>
      <trkpt lat="44.38791" lon="6.65753">
        <ele>1129.24</ele>
        <time>2018-08-25T10:02:16Z</time>
      </trkpt>
      <trkpt lat="44.38775" lon="6.65725">
        <ele>1131.24</ele>
        <time>2018-08-25T10:02:19Z</time>
      </trkpt>
      <trkpt lat="44.38751" lon="6.65719">
        <ele>1131.63</ele>
        <time>2018-08-25T10:02:22Z</time>
      </trkpt>
      <trkpt lat="44.38726" lon="6.65727">
        <ele>1131.15</ele>
        <time>2018-08-25T10:02:25Z</time>
      </trkpt>
      <trkpt lat="44.38704" lon="6.65724">
        <ele>1132.11</ele>
        <time>2018-08-25T10:02:28Z</time>
      </trkpt>
      <trkpt lat="44.38695" lon="6.65695">
        <ele>1131.5</ele>
        <time>2018-08-25T10:02:31Z</time>
      </trkpt>
      <trkpt lat="44.38691" lon="6.65669">
        <ele>1130.73</ele>
        <time>2018-08-25T10:02:33Z</time>
      </trkpt>
      <trkpt lat="44.38687" lon="6.65641">
        <ele>1130.45</ele>
        <time>2018-08-25T10:02:35Z</time>
      </trkpt>
      <trkpt lat="44.38684" lon="6.65614">
        <ele>1130.42</ele>
        <time>2018-08-25T10:02:37Z</time>
      </trkpt>
      <trkpt lat="44.3868" lon="6.65588">
        <ele>1129.51</ele>
        <time>2018-08-25T10:02:39Z</time>
      </trkpt>
      <trkpt lat="44.38675" lon="6.65553">
        <ele>1129</ele>
        <time>2018-08-25T10:02:42Z</time>
      </trkpt>
      <trkpt lat="44.38671" lon="6.65522">
        <ele>1127.53</ele>
        <time>2018-08-25T10:02:45Z</time>
      </trkpt>
      <trkpt lat="44.38668" lon="6.65494">
        <ele>1127.13</ele>
        <time>2018-08-25T10:02:49Z</time>
      </trkpt>
      <trkpt lat="44.38666" lon="6.65469">
        <ele>1129.09</ele>
        <time>2018-08-25T10:02:52Z</time>
      </trkpt>
      <trkpt lat="44.38663" lon="6.65439">
        <ele>1129.21</ele>
        <time>2018-08-25T10:02:56Z</time>
      </trkpt>
      <trkpt lat="44.3866" lon="6.65413">
        <ele>1128.71</ele>
        <time>2018-08-25T10:03:01Z</time>
      </trkpt>
      <trkpt lat="44.38653" lon="6.65382">
        <ele>1128.42</ele>
        <time>2018-08-25T10:03:08Z</time>
      </trkpt>
      <trkpt lat="44.38646" lon="6.65353">
        <ele>1127.22</ele>
        <time>2018-08-25T10:03:12Z</time>
      </trkpt>
      <trkpt lat="44.38641" lon="6.65323">
        <ele>1127.34</ele>
        <time>2018-08-25T10:03:16Z</time>
      </trkpt>
      <trkpt lat="44.38636" lon="6.65293">
        <ele>1126.45</ele>
        <time>2018-08-25T10:03:20Z</time>
      </trkpt>
      <trkpt lat="44.38629" lon="6.65266">
        <ele>1125.43</ele>
        <time>2018-08-25T10:03:24Z</time>
      </trkpt>
      <trkpt lat="44.3862" lon="6.65243">
        <ele>1126.48</ele>
        <time>2018-08-25T10:03:29Z</time>
      </trkpt>
      <trkpt lat="44.3861" lon="6.65215">
        <ele>1125.74</ele>
        <time>2018-08-25T10:03:33Z</time>
      </trkpt>
      <trkpt lat="44.38605" lon="6.65187">
        <ele>1124.52</ele>
        <time>2018-08-25T10:03:38Z</time>
      </trkpt>
      <trkpt lat="44.386" lon="6.65159">
        <ele>1123.99</ele>
        <time>2018-08-25T10:03:42Z</time>
      </trkpt>
      <trkpt lat="44.38594" lon="6.65128">
        <ele>1123.44</ele>
        <time>2018-08-25T10:03:45Z</time>
      </trkpt>
      <trkpt lat="44.38588" lon="6.65091">
        <ele>1123.42</ele>
        <time>2018-08-25T10:03:48Z</time>
      </trkpt>
      <trkpt lat="44.38583" lon="6.65064">
        <ele>1123.42</ele>
        <time>2018-08-25T10:03:50Z</time>
      </trkpt>
      <trkpt lat="44.38576" lon="6.6504">
        <ele>1123.42</ele>
        <time>2018-08-25T10:03:52Z</time>
      </trkpt>
      <trkpt lat="44.38568" lon="6.65015">
        <ele>1124.33</ele>
        <time>2018-08-25T10:03:54Z</time>
      </trkpt>
      <trkpt lat="44.38558" lon="6.64993">
        <ele>1124.41</ele>
        <time>2018-08-25T10:03:56Z</time>
      </trkpt>
      <trkpt lat="44.38547" lon="6.64969">
        <ele>1124.42</ele>
        <time>2018-08-25T10:03:58Z</time>
      </trkpt>
      <trkpt lat="44.38536" lon="6.64943">
        <ele>1125.33</ele>
        <time>2018-08-25T10:04:00Z</time>
      </trkpt>
      <trkpt lat="44.38525" lon="6.64919">
        <ele>1127.23</ele>
        <time>2018-08-25T10:04:02Z</time>
      </trkpt>
      <trkpt lat="44.38512" lon="6.64895">
        <ele>1126.49</ele>
        <time>2018-08-25T10:04:04Z</time>
      </trkpt>
      <trkpt lat="44.385" lon="6.64876">
        <ele>1127.13</ele>
        <time>2018-08-25T10:04:06Z</time>
      </trkpt>
      <trkpt lat="44.38477" lon="6.6486">
        <ele>1130.27</ele>
        <time>2018-08-25T10:04:09Z</time>
      </trkpt>
      <trkpt lat="44.3846" lon="6.64849">
        <ele>1130.41</ele>
        <time>2018-08-25T10:04:11Z</time>
      </trkpt>
      <trkpt lat="44.3845" lon="6.64827">
        <ele>1131.33</ele>
        <time>2018-08-25T10:04:13Z</time>
      </trkpt>
      <trkpt lat="44.3845" lon="6.64794">
        <ele>1130.71</ele>
        <time>2018-08-25T10:04:15Z</time>
      </trkpt>
      <trkpt lat="44.38456" lon="6.64758">
        <ele>1128.84</ele>
        <time>2018-08-25T10:04:17Z</time>
      </trkpt>
      <trkpt lat="44.38455" lon="6.64718">
        <ele>1127.76</ele>
        <time>2018-08-25T10:04:19Z</time>
      </trkpt>
      <trkpt lat="44.3845" lon="6.64676">
        <ele>1126.75</ele>
        <time>2018-08-25T10:04:21Z</time>
      </trkpt>
      <trkpt lat="44.38445" lon="6.64634">
        <ele>1125.54</ele>
        <time>2018-08-25T10:04:23Z</time>
      </trkpt>
      <trkpt lat="44.38441" lon="6.64591">
        <ele>1125.43</ele>
        <time>2018-08-25T10:04:25Z</time>
      </trkpt>
      <trkpt lat="44.38436" lon="6.64554">
        <ele>1124.51</ele>
        <time>2018-08-25T10:04:27Z</time>
      </trkpt>
      <trkpt lat="44.38431" lon="6.64518">
        <ele>1124.43</ele>
        <time>2018-08-25T10:04:29Z</time>
      </trkpt>
      <trkpt lat="44.38425" lon="6.64486">
        <ele>1123.51</ele>
        <time>2018-08-25T10:04:31Z</time>
      </trkpt>
      <trkpt lat="44.3842" lon="6.64457">
        <ele>1122.73</ele>
        <time>2018-08-25T10:04:33Z</time>
      </trkpt>
      <trkpt lat="44.38414" lon="6.64429">
        <ele>1122.45</ele>
        <time>2018-08-25T10:04:35Z</time>
      </trkpt>
      <trkpt lat="44.38409" lon="6.64401">
        <ele>1122.42</ele>
        <time>2018-08-25T10:04:37Z</time>
      </trkpt>
      <trkpt lat="44.38403" lon="6.64367">
        <ele>1121.51</ele>
        <time>2018-08-25T10:04:39Z</time>
      </trkpt>
      <trkpt lat="44.38394" lon="6.64326">
        <ele>1119.12</ele>
        <time>2018-08-25T10:04:41Z</time>
      </trkpt>
      <trkpt lat="44.38389" lon="6.6428">
        <ele>1117.57</ele>
        <time>2018-08-25T10:04:43Z</time>
      </trkpt>
      <trkpt lat="44.38382" lon="6.64231">
        <ele>1116.73</ele>
        <time>2018-08-25T10:04:45Z</time>
      </trkpt>
      <trkpt lat="44.3838" lon="6.64206">
        <ele>1117.22</ele>
        <time>2018-08-25T10:04:46Z</time>
      </trkpt>
      <trkpt lat="44.38377" lon="6.6418">
        <ele>1116.66</ele>
        <time>2018-08-25T10:04:47Z</time>
      </trkpt>
      <trkpt lat="44.38374" lon="6.64154">
        <ele>1116.49</ele>
        <time>2018-08-25T10:04:48Z</time>
      </trkpt>
      <trkpt lat="44.3837" lon="6.64127">
        <ele>1115.74</ele>
        <time>2018-08-25T10:04:49Z</time>
      </trkpt>
      <trkpt lat="44.38366" lon="6.641">
        <ele>1115.52</ele>
        <time>2018-08-25T10:04:50Z</time>
      </trkpt>
      <trkpt lat="44.38362" lon="6.64073">
        <ele>1116.15</ele>
        <time>2018-08-25T10:04:51Z</time>
      </trkpt>
      <trkpt lat="44.38358" lon="6.64047">
        <ele>1115.64</ele>
        <time>2018-08-25T10:04:52Z</time>
      </trkpt>
      <trkpt lat="44.38354" lon="6.64021">
        <ele>1115.49</ele>
        <time>2018-08-25T10:04:53Z</time>
      </trkpt>
      <trkpt lat="44.3835" lon="6.63994">
        <ele>1114.74</ele>
        <time>2018-08-25T10:04:54Z</time>
      </trkpt>
      <trkpt lat="44.38345" lon="6.63967">
        <ele>1114.52</ele>
        <time>2018-08-25T10:04:55Z</time>
      </trkpt>
      <trkpt lat="44.38341" lon="6.63941">
        <ele>1114.45</ele>
        <time>2018-08-25T10:04:56Z</time>
      </trkpt>
      <trkpt lat="44.38337" lon="6.63914">
        <ele>1114.43</ele>
        <time>2018-08-25T10:04:57Z</time>
      </trkpt>
      <trkpt lat="44.38334" lon="6.63888">
        <ele>1114.42</ele>
        <time>2018-08-25T10:04:58Z</time>
      </trkpt>
      <trkpt lat="44.3833" lon="6.63862">
        <ele>1115.12</ele>
        <time>2018-08-25T10:04:59Z</time>
      </trkpt>
      <trkpt lat="44.38327" lon="6.63836">
        <ele>1115.33</ele>
        <time>2018-08-25T10:05:00Z</time>
      </trkpt>
      <trkpt lat="44.38323" lon="6.63811">
        <ele>1115.39</ele>
        <time>2018-08-25T10:05:01Z</time>
      </trkpt>
      <trkpt lat="44.38319" lon="6.63785">
        <ele>1115.41</ele>
        <time>2018-08-25T10:05:02Z</time>
      </trkpt>
      <trkpt lat="44.38311" lon="6.63739">
        <ele>1115.21</ele>
        <time>2018-08-25T10:05:04Z</time>
      </trkpt>
      <trkpt lat="44.38305" lon="6.63696">
        <ele>1114.49</ele>
        <time>2018-08-25T10:05:06Z</time>
      </trkpt>
      <trkpt lat="44.38301" lon="6.63649">
        <ele>1114.43</ele>
        <time>2018-08-25T10:05:08Z</time>
      </trkpt>
      <trkpt lat="44.38299" lon="6.63623">
        <ele>1115.12</ele>
        <time>2018-08-25T10:05:09Z</time>
      </trkpt>
      <trkpt lat="44.38298" lon="6.63596">
        <ele>1114.63</ele>
        <time>2018-08-25T10:05:10Z</time>
      </trkpt>
      <trkpt lat="44.38297" lon="6.6357">
        <ele>1114.48</ele>
        <time>2018-08-25T10:05:11Z</time>
      </trkpt>
      <trkpt lat="44.38296" lon="6.63544">
        <ele>1115.14</ele>
        <time>2018-08-25T10:05:12Z</time>
      </trkpt>
      <trkpt lat="44.38294" lon="6.63495">
        <ele>1115.4</ele>
        <time>2018-08-25T10:05:14Z</time>
      </trkpt>
      <trkpt lat="44.38292" lon="6.6345">
        <ele>1115.42</ele>
        <time>2018-08-25T10:05:16Z</time>
      </trkpt>
      <trkpt lat="44.38287" lon="6.63404">
        <ele>1117.03</ele>
        <time>2018-08-25T10:05:18Z</time>
      </trkpt>
      <trkpt lat="44.38282" lon="6.63378">
        <ele>1117.3</ele>
        <time>2018-08-25T10:05:19Z</time>
      </trkpt>
      <trkpt lat="44.38273" lon="6.63331">
        <ele>1117.41</ele>
        <time>2018-08-25T10:05:21Z</time>
      </trkpt>
      <trkpt lat="44.38265" lon="6.63295">
        <ele>1116.72</ele>
        <time>2018-08-25T10:05:23Z</time>
      </trkpt>
      <trkpt lat="44.38253" lon="6.63259">
        <ele>1115.75</ele>
        <time>2018-08-25T10:05:25Z</time>
      </trkpt>
      <trkpt lat="44.3824" lon="6.63219">
        <ele>1117.06</ele>
        <time>2018-08-25T10:05:27Z</time>
      </trkpt>
      <trkpt lat="44.38227" lon="6.63172">
        <ele>1117.39</ele>
        <time>2018-08-25T10:05:29Z</time>
      </trkpt>
      <trkpt lat="44.38219" lon="6.63147">
        <ele>1117.41</ele>
        <time>2018-08-25T10:05:30Z</time>
      </trkpt>
      <trkpt lat="44.38211" lon="6.63124">
        <ele>1118.12</ele>
        <time>2018-08-25T10:05:31Z</time>
      </trkpt>
      <trkpt lat="44.38197" lon="6.63103">
        <ele>1117.63</ele>
        <time>2018-08-25T10:05:32Z</time>
      </trkpt>
      <trkpt lat="44.38184" lon="6.63083">
        <ele>1116.78</ele>
        <time>2018-08-25T10:05:33Z</time>
      </trkpt>
      <trkpt lat="44.38169" lon="6.63064">
        <ele>1115.13</ele>
        <time>2018-08-25T10:05:34Z</time>
      </trkpt>
      <trkpt lat="44.38154" lon="6.63046">
        <ele>1114.63</ele>
        <time>2018-08-25T10:05:35Z</time>
      </trkpt>
      <trkpt lat="44.3814" lon="6.63028">
        <ele>1114.48</ele>
        <time>2018-08-25T10:05:36Z</time>
      </trkpt>
      <trkpt lat="44.38125" lon="6.63011">
        <ele>1114.44</ele>
        <time>2018-08-25T10:05:37Z</time>
      </trkpt>
      <trkpt lat="44.38109" lon="6.62993">
        <ele>1114.43</ele>
        <time>2018-08-25T10:05:38Z</time>
      </trkpt>
      <trkpt lat="44.38094" lon="6.62976">
        <ele>1115.12</ele>
        <time>2018-08-25T10:05:39Z</time>
      </trkpt>
      <trkpt lat="44.38079" lon="6.62961">
        <ele>1115.33</ele>
        <time>2018-08-25T10:05:40Z</time>
      </trkpt>
      <trkpt lat="44.38061" lon="6.62947">
        <ele>1116.09</ele>
        <time>2018-08-25T10:05:41Z</time>
      </trkpt>
      <trkpt lat="44.38043" lon="6.62936">
        <ele>1117.72</ele>
        <time>2018-08-25T10:05:42Z</time>
      </trkpt>
      <trkpt lat="44.38024" lon="6.62924">
        <ele>1118.21</ele>
        <time>2018-08-25T10:05:43Z</time>
      </trkpt>
      <trkpt lat="44.38006" lon="6.62914">
        <ele>1119.06</ele>
        <time>2018-08-25T10:05:44Z</time>
      </trkpt>
      <trkpt lat="44.37988" lon="6.62904">
        <ele>1120.01</ele>
        <time>2018-08-25T10:05:45Z</time>
      </trkpt>
      <trkpt lat="44.3797" lon="6.62894">
        <ele>1120.3</ele>
        <time>2018-08-25T10:05:46Z</time>
      </trkpt>
      <trkpt lat="44.37952" lon="6.62884">
        <ele>1120.38</ele>
        <time>2018-08-25T10:05:47Z</time>
      </trkpt>
      <trkpt lat="44.37934" lon="6.62875">
        <ele>1120.41</ele>
        <time>2018-08-25T10:05:48Z</time>
      </trkpt>
      <trkpt lat="44.37917" lon="6.62866">
        <ele>1121.12</ele>
        <time>2018-08-25T10:05:49Z</time>
      </trkpt>
      <trkpt lat="44.37899" lon="6.62857">
        <ele>1122.03</ele>
        <time>2018-08-25T10:05:50Z</time>
      </trkpt>
      <trkpt lat="44.37881" lon="6.62849">
        <ele>1123</ele>
        <time>2018-08-25T10:05:51Z</time>
      </trkpt>
      <trkpt lat="44.37862" lon="6.62843">
        <ele>1124</ele>
        <time>2018-08-25T10:05:52Z</time>
      </trkpt>
      <trkpt lat="44.37844" lon="6.62838">
        <ele>1124.99</ele>
        <time>2018-08-25T10:05:53Z</time>
      </trkpt>
      <trkpt lat="44.37824" lon="6.62834">
        <ele>1125.99</ele>
        <time>2018-08-25T10:05:54Z</time>
      </trkpt>
      <trkpt lat="44.37805" lon="6.62829">
        <ele>1126.29</ele>
        <time>2018-08-25T10:05:55Z</time>
      </trkpt>
      <trkpt lat="44.37785" lon="6.62824">
        <ele>1126.38</ele>
        <time>2018-08-25T10:05:56Z</time>
      </trkpt>
      <trkpt lat="44.37765" lon="6.6282">
        <ele>1126.41</ele>
        <time>2018-08-25T10:05:57Z</time>
      </trkpt>
      <trkpt lat="44.37746" lon="6.62815">
        <ele>1126.42</ele>
        <time>2018-08-25T10:05:58Z</time>
      </trkpt>
      <trkpt lat="44.37726" lon="6.6281">
        <ele>1126.42</ele>
        <time>2018-08-25T10:05:59Z</time>
      </trkpt>
      <trkpt lat="44.37708" lon="6.62804">
        <ele>1126.42</ele>
        <time>2018-08-25T10:06:00Z</time>
      </trkpt>
      <trkpt lat="44.37689" lon="6.62799">
        <ele>1127.12</ele>
        <time>2018-08-25T10:06:01Z</time>
      </trkpt>
      <trkpt lat="44.3767" lon="6.62793">
        <ele>1127.33</ele>
        <time>2018-08-25T10:06:02Z</time>
      </trkpt>
      <trkpt lat="44.37651" lon="6.62788">
        <ele>1127.39</ele>
        <time>2018-08-25T10:06:03Z</time>
      </trkpt>
      <trkpt lat="44.37633" lon="6.62783">
        <ele>1127.41</ele>
        <time>2018-08-25T10:06:04Z</time>
      </trkpt>
      <trkpt lat="44.37615" lon="6.62778">
        <ele>1128.12</ele>
        <time>2018-08-25T10:06:05Z</time>
      </trkpt>
      <trkpt lat="44.37583" lon="6.62768">
        <ele>1130</ele>
        <time>2018-08-25T10:06:07Z</time>
      </trkpt>
      <trkpt lat="44.37559" lon="6.62763">
        <ele>1130.59</ele>
        <time>2018-08-25T10:06:09Z</time>
      </trkpt>
      <trkpt lat="44.37529" lon="6.62769">
        <ele>1132.05</ele>
        <time>2018-08-25T10:06:11Z</time>
      </trkpt>
      <trkpt lat="44.37494" lon="6.6277">
        <ele>1133.09</ele>
        <time>2018-08-25T10:06:13Z</time>
      </trkpt>
      <trkpt lat="44.37475" lon="6.62771">
        <ele>1134.02</ele>
        <time>2018-08-25T10:06:14Z</time>
      </trkpt>
      <trkpt lat="44.37456" lon="6.62772">
        <ele>1135</ele>
        <time>2018-08-25T10:06:15Z</time>
      </trkpt>
      <trkpt lat="44.37437" lon="6.62772">
        <ele>1135.99</ele>
        <time>2018-08-25T10:06:16Z</time>
      </trkpt>
      <trkpt lat="44.37418" lon="6.62773">
        <ele>1136.29</ele>
        <time>2018-08-25T10:06:17Z</time>
      </trkpt>
      <trkpt lat="44.37399" lon="6.62774">
        <ele>1137.08</ele>
        <time>2018-08-25T10:06:18Z</time>
      </trkpt>
      <trkpt lat="44.37379" lon="6.62774">
        <ele>1138.02</ele>
        <time>2018-08-25T10:06:19Z</time>
      </trkpt>
      <trkpt lat="44.3736" lon="6.62774">
        <ele>1139.7</ele>
        <time>2018-08-25T10:06:20Z</time>
      </trkpt>
      <trkpt lat="44.3734" lon="6.62774">
        <ele>1140.2</ele>
        <time>2018-08-25T10:06:21Z</time>
      </trkpt>
      <trkpt lat="44.3732" lon="6.62774">
        <ele>1141.06</ele>
        <time>2018-08-25T10:06:22Z</time>
      </trkpt>
      <trkpt lat="44.373" lon="6.62775">
        <ele>1142.01</ele>
        <time>2018-08-25T10:06:23Z</time>
      </trkpt>
      <trkpt lat="44.3728" lon="6.62776">
        <ele>1143</ele>
        <time>2018-08-25T10:06:24Z</time>
      </trkpt>
      <trkpt lat="44.37259" lon="6.62777">
        <ele>1143.29</ele>
        <time>2018-08-25T10:06:25Z</time>
      </trkpt>
      <trkpt lat="44.37238" lon="6.62777">
        <ele>1144.08</ele>
        <time>2018-08-25T10:06:26Z</time>
      </trkpt>
      <trkpt lat="44.37218" lon="6.62778">
        <ele>1144.32</ele>
        <time>2018-08-25T10:06:27Z</time>
      </trkpt>
      <trkpt lat="44.37197" lon="6.6278">
        <ele>1145.09</ele>
        <time>2018-08-25T10:06:28Z</time>
      </trkpt>
      <trkpt lat="44.37176" lon="6.6278">
        <ele>1146.02</ele>
        <time>2018-08-25T10:06:29Z</time>
      </trkpt>
      <trkpt lat="44.37154" lon="6.62781">
        <ele>1146.3</ele>
        <time>2018-08-25T10:06:30Z</time>
      </trkpt>
      <trkpt lat="44.37132" lon="6.62783">
        <ele>1147.09</ele>
        <time>2018-08-25T10:06:31Z</time>
      </trkpt>
      <trkpt lat="44.37109" lon="6.62784">
        <ele>1147.32</ele>
        <time>2018-08-25T10:06:32Z</time>
      </trkpt>
      <trkpt lat="44.37085" lon="6.62784">
        <ele>1147.39</ele>
        <time>2018-08-25T10:06:33Z</time>
      </trkpt>
      <trkpt lat="44.3706" lon="6.62784">
        <ele>1148.11</ele>
        <time>2018-08-25T10:06:34Z</time>
      </trkpt>
      <trkpt lat="44.37036" lon="6.62784">
        <ele>1149.03</ele>
        <time>2018-08-25T10:06:35Z</time>
      </trkpt>
      <trkpt lat="44.37011" lon="6.62785">
        <ele>1150.7</ele>
        <time>2018-08-25T10:06:36Z</time>
      </trkpt>
      <trkpt lat="44.36986" lon="6.62786">
        <ele>1150.51</ele>
        <time>2018-08-25T10:06:37Z</time>
      </trkpt>
      <trkpt lat="44.36961" lon="6.62786">
        <ele>1151.85</ele>
        <time>2018-08-25T10:06:38Z</time>
      </trkpt>
      <trkpt lat="44.36936" lon="6.62788">
        <ele>1152.95</ele>
        <time>2018-08-25T10:06:39Z</time>
      </trkpt>
      <trkpt lat="44.3691" lon="6.62789">
        <ele>1153.98</ele>
        <time>2018-08-25T10:06:40Z</time>
      </trkpt>
      <trkpt lat="44.36885" lon="6.6279">
        <ele>1154.29</ele>
        <time>2018-08-25T10:06:41Z</time>
      </trkpt>
      <trkpt lat="44.36859" lon="6.6279">
        <ele>1155.08</ele>
        <time>2018-08-25T10:06:42Z</time>
      </trkpt>
      <trkpt lat="44.36834" lon="6.6279">
        <ele>1156.02</ele>
        <time>2018-08-25T10:06:43Z</time>
      </trkpt>
      <trkpt lat="44.36809" lon="6.62791">
        <ele>1156.3</ele>
        <time>2018-08-25T10:06:44Z</time>
      </trkpt>
      <trkpt lat="44.36785" lon="6.62791">
        <ele>1157.08</ele>
        <time>2018-08-25T10:06:45Z</time>
      </trkpt>
      <trkpt lat="44.3676" lon="6.6279">
        <ele>1157.32</ele>
        <time>2018-08-25T10:06:46Z</time>
      </trkpt>
      <trkpt lat="44.36735" lon="6.62789">
        <ele>1156.69</ele>
        <time>2018-08-25T10:06:47Z</time>
      </trkpt>
      <trkpt lat="44.36711" lon="6.62788">
        <ele>1156.5</ele>
        <time>2018-08-25T10:06:48Z</time>
      </trkpt>
      <trkpt lat="44.36686" lon="6.62787">
        <ele>1155.75</ele>
        <time>2018-08-25T10:06:49Z</time>
      </trkpt>
      <trkpt lat="44.3666" lon="6.62786">
        <ele>1156.92</ele>
        <time>2018-08-25T10:06:50Z</time>
      </trkpt>
      <trkpt lat="44.36635" lon="6.62785">
        <ele>1157.27</ele>
        <time>2018-08-25T10:06:51Z</time>
      </trkpt>
      <trkpt lat="44.36608" lon="6.62784">
        <ele>1158.08</ele>
        <time>2018-08-25T10:06:52Z</time>
      </trkpt>
      <trkpt lat="44.36583" lon="6.62783">
        <ele>1158.32</ele>
        <time>2018-08-25T10:06:53Z</time>
      </trkpt>
      <trkpt lat="44.36557" lon="6.62782">
        <ele>1159.09</ele>
        <time>2018-08-25T10:06:54Z</time>
      </trkpt>
      <trkpt lat="44.36532" lon="6.62781">
        <ele>1158.62</ele>
        <time>2018-08-25T10:06:55Z</time>
      </trkpt>
      <trkpt lat="44.36507" lon="6.6278">
        <ele>1157.78</ele>
        <time>2018-08-25T10:06:56Z</time>
      </trkpt>
      <trkpt lat="44.36482" lon="6.62779">
        <ele>1158.23</ele>
        <time>2018-08-25T10:06:57Z</time>
      </trkpt>
      <trkpt lat="44.36457" lon="6.62777">
        <ele>1159.06</ele>
        <time>2018-08-25T10:06:58Z</time>
      </trkpt>
      <trkpt lat="44.36434" lon="6.62776">
        <ele>1160.01</ele>
        <time>2018-08-25T10:06:59Z</time>
      </trkpt>
      <trkpt lat="44.3641" lon="6.62773">
        <ele>1160.3</ele>
        <time>2018-08-25T10:07:00Z</time>
      </trkpt>
      <trkpt lat="44.36389" lon="6.6277">
        <ele>1160.38</ele>
        <time>2018-08-25T10:07:01Z</time>
      </trkpt>
      <trkpt lat="44.36371" lon="6.62765">
        <ele>1161.11</ele>
        <time>2018-08-25T10:07:02Z</time>
      </trkpt>
      <trkpt lat="44.36339" lon="6.62758">
        <ele>1161.39</ele>
        <time>2018-08-25T10:07:04Z</time>
      </trkpt>
      <trkpt lat="44.36309" lon="6.6275">
        <ele>1161.42</ele>
        <time>2018-08-25T10:07:06Z</time>
      </trkpt>
      <trkpt lat="44.36281" lon="6.62739">
        <ele>1163.24</ele>
        <time>2018-08-25T10:07:08Z</time>
      </trkpt>
      <trkpt lat="44.36252" lon="6.62724">
        <ele>1164.31</ele>
        <time>2018-08-25T10:07:10Z</time>
      </trkpt>
      <trkpt lat="44.36222" lon="6.62709">
        <ele>1166.02</ele>
        <time>2018-08-25T10:07:12Z</time>
      </trkpt>
      <trkpt lat="44.36193" lon="6.62697">
        <ele>1168.91</ele>
        <time>2018-08-25T10:07:14Z</time>
      </trkpt>
      <trkpt lat="44.36165" lon="6.62682">
        <ele>1169.16</ele>
        <time>2018-08-25T10:07:16Z</time>
      </trkpt>
      <trkpt lat="44.3614" lon="6.62658">
        <ele>1171.71</ele>
        <time>2018-08-25T10:07:18Z</time>
      </trkpt>
      <trkpt lat="44.36121" lon="6.62625">
        <ele>1173.97</ele>
        <time>2018-08-25T10:07:20Z</time>
      </trkpt>
      <trkpt lat="44.36105" lon="6.62595">
        <ele>1175.99</ele>
        <time>2018-08-25T10:07:22Z</time>
      </trkpt>
      <trkpt lat="44.3609" lon="6.62569">
        <ele>1176.17</ele>
        <time>2018-08-25T10:07:24Z</time>
      </trkpt>
      <trkpt lat="44.36077" lon="6.62545">
        <ele>1178.22</ele>
        <time>2018-08-25T10:07:26Z</time>
      </trkpt>
      <trkpt lat="44.36061" lon="6.62523">
        <ele>1180.01</ele>
        <time>2018-08-25T10:07:28Z</time>
      </trkpt>
      <trkpt lat="44.36043" lon="6.625">
        <ele>1181.29</ele>
        <time>2018-08-25T10:07:30Z</time>
      </trkpt>
      <trkpt lat="44.36017" lon="6.62483">
        <ele>1181.41</ele>
        <time>2018-08-25T10:07:32Z</time>
      </trkpt>
      <trkpt lat="44.35983" lon="6.62472">
        <ele>1183.73</ele>
        <time>2018-08-25T10:07:34Z</time>
      </trkpt>
      <trkpt lat="44.35965" lon="6.62463">
        <ele>1184.21</ele>
        <time>2018-08-25T10:07:35Z</time>
      </trkpt>
      <trkpt lat="44.35947" lon="6.6245">
        <ele>1184.36</ele>
        <time>2018-08-25T10:07:36Z</time>
      </trkpt>
      <trkpt lat="44.35928" lon="6.62435">
        <ele>1186.5</ele>
        <time>2018-08-25T10:07:37Z</time>
      </trkpt>
      <trkpt lat="44.35907" lon="6.62424">
        <ele>1187.85</ele>
        <time>2018-08-25T10:07:38Z</time>
      </trkpt>
      <trkpt lat="44.35885" lon="6.62417">
        <ele>1188.25</ele>
        <time>2018-08-25T10:07:39Z</time>
      </trkpt>
      <trkpt lat="44.35864" lon="6.62408">
        <ele>1188.37</ele>
        <time>2018-08-25T10:07:40Z</time>
      </trkpt>
      <trkpt lat="44.35843" lon="6.62398">
        <ele>1189.11</ele>
        <time>2018-08-25T10:07:41Z</time>
      </trkpt>
      <trkpt lat="44.35824" lon="6.62384">
        <ele>1190.03</ele>
        <time>2018-08-25T10:07:42Z</time>
      </trkpt>
      <trkpt lat="44.35804" lon="6.6237">
        <ele>1191.7</ele>
        <time>2018-08-25T10:07:43Z</time>
      </trkpt>
      <trkpt lat="44.35784" lon="6.62356">
        <ele>1192.21</ele>
        <time>2018-08-25T10:07:44Z</time>
      </trkpt>
      <trkpt lat="44.35764" lon="6.62343">
        <ele>1193.76</ele>
        <time>2018-08-25T10:07:45Z</time>
      </trkpt>
      <trkpt lat="44.35745" lon="6.62331">
        <ele>1194.92</ele>
        <time>2018-08-25T10:07:46Z</time>
      </trkpt>
      <trkpt lat="44.35727" lon="6.62321">
        <ele>1195.97</ele>
        <time>2018-08-25T10:07:47Z</time>
      </trkpt>
      <trkpt lat="44.35693" lon="6.62305">
        <ele>1198.2</ele>
        <time>2018-08-25T10:07:49Z</time>
      </trkpt>
      <trkpt lat="44.35666" lon="6.62294">
        <ele>1200.71</ele>
        <time>2018-08-25T10:07:51Z</time>
      </trkpt>
      <trkpt lat="44.35643" lon="6.62283">
        <ele>1202.97</ele>
        <time>2018-08-25T10:07:53Z</time>
      </trkpt>
      <trkpt lat="44.35617" lon="6.62266">
        <ele>1205.69</ele>
        <time>2018-08-25T10:07:55Z</time>
      </trkpt>
      <trkpt lat="44.35591" lon="6.6225">
        <ele>1207.27</ele>
        <time>2018-08-25T10:07:57Z</time>
      </trkpt>
      <trkpt lat="44.35556" lon="6.62239">
        <ele>1208.32</ele>
        <time>2018-08-25T10:07:59Z</time>
      </trkpt>
      <trkpt lat="44.35525" lon="6.62235">
        <ele>1210.02</ele>
        <time>2018-08-25T10:08:01Z</time>
      </trkpt>
      <trkpt lat="44.35501" lon="6.6223">
        <ele>1212</ele>
        <time>2018-08-25T10:08:03Z</time>
      </trkpt>
      <trkpt lat="44.35479" lon="6.62212">
        <ele>1213.99</ele>
        <time>2018-08-25T10:08:05Z</time>
      </trkpt>
      <trkpt lat="44.35454" lon="6.62178">
        <ele>1215.08</ele>
        <time>2018-08-25T10:08:07Z</time>
      </trkpt>
      <trkpt lat="44.35438" lon="6.62163">
        <ele>1215.32</ele>
        <time>2018-08-25T10:08:08Z</time>
      </trkpt>
      <trkpt lat="44.35422" lon="6.62149">
        <ele>1215.39</ele>
        <time>2018-08-25T10:08:09Z</time>
      </trkpt>
      <trkpt lat="44.35401" lon="6.62145">
        <ele>1216.81</ele>
        <time>2018-08-25T10:08:10Z</time>
      </trkpt>
      <trkpt lat="44.35379" lon="6.62138">
        <ele>1217.94</ele>
        <time>2018-08-25T10:08:11Z</time>
      </trkpt>
      <trkpt lat="44.35356" lon="6.62134">
        <ele>1218.28</ele>
        <time>2018-08-25T10:08:12Z</time>
      </trkpt>
      <trkpt lat="44.35336" lon="6.62128">
        <ele>1219.08</ele>
        <time>2018-08-25T10:08:13Z</time>
      </trkpt>
      <trkpt lat="44.35316" lon="6.62121">
        <ele>1218.62</ele>
        <time>2018-08-25T10:08:14Z</time>
      </trkpt>
      <trkpt lat="44.35298" lon="6.62113">
        <ele>1218.48</ele>
        <time>2018-08-25T10:08:15Z</time>
      </trkpt>
      <trkpt lat="44.35271" lon="6.62083">
        <ele>1218.64</ele>
        <time>2018-08-25T10:08:17Z</time>
      </trkpt>
      <trkpt lat="44.35258" lon="6.62064">
        <ele>1218.49</ele>
        <time>2018-08-25T10:08:18Z</time>
      </trkpt>
      <trkpt lat="44.3523" lon="6.62035">
        <ele>1219.13</ele>
        <time>2018-08-25T10:08:20Z</time>
      </trkpt>
      <trkpt lat="44.35211" lon="6.62025">
        <ele>1218.63</ele>
        <time>2018-08-25T10:08:21Z</time>
      </trkpt>
      <trkpt lat="44.35191" lon="6.62018">
        <ele>1218.48</ele>
        <time>2018-08-25T10:08:22Z</time>
      </trkpt>
      <trkpt lat="44.3517" lon="6.62013">
        <ele>1217.74</ele>
        <time>2018-08-25T10:08:23Z</time>
      </trkpt>
      <trkpt lat="44.3515" lon="6.62014">
        <ele>1218.22</ele>
        <time>2018-08-25T10:08:24Z</time>
      </trkpt>
      <trkpt lat="44.3513" lon="6.6201">
        <ele>1219.06</ele>
        <time>2018-08-25T10:08:25Z</time>
      </trkpt>
      <trkpt lat="44.35111" lon="6.62001">
        <ele>1220.01</ele>
        <time>2018-08-25T10:08:26Z</time>
      </trkpt>
      <trkpt lat="44.35094" lon="6.61986">
        <ele>1220.3</ele>
        <time>2018-08-25T10:08:27Z</time>
      </trkpt>
      <trkpt lat="44.35076" lon="6.61969">
        <ele>1220.38</ele>
        <time>2018-08-25T10:08:28Z</time>
      </trkpt>
      <trkpt lat="44.35058" lon="6.61952">
        <ele>1220.41</ele>
        <time>2018-08-25T10:08:29Z</time>
      </trkpt>
      <trkpt lat="44.35039" lon="6.61939">
        <ele>1220.42</ele>
        <time>2018-08-25T10:08:30Z</time>
      </trkpt>
      <trkpt lat="44.35017" lon="6.6193">
        <ele>1219.72</ele>
        <time>2018-08-25T10:08:31Z</time>
      </trkpt>
      <trkpt lat="44.34996" lon="6.61925">
        <ele>1218.11</ele>
        <time>2018-08-25T10:08:32Z</time>
      </trkpt>
      <trkpt lat="44.34973" lon="6.61923">
        <ele>1217.63</ele>
        <time>2018-08-25T10:08:33Z</time>
      </trkpt>
      <trkpt lat="44.3495" lon="6.61924">
        <ele>1218.18</ele>
        <time>2018-08-25T10:08:34Z</time>
      </trkpt>
      <trkpt lat="44.34926" lon="6.61931">
        <ele>1219.05</ele>
        <time>2018-08-25T10:08:35Z</time>
      </trkpt>
      <trkpt lat="44.34903" lon="6.61939">
        <ele>1220.01</ele>
        <time>2018-08-25T10:08:36Z</time>
      </trkpt>
      <trkpt lat="44.34881" lon="6.61949">
        <ele>1221</ele>
        <time>2018-08-25T10:08:37Z</time>
      </trkpt>
      <trkpt lat="44.34858" lon="6.6196">
        <ele>1221.29</ele>
        <time>2018-08-25T10:08:38Z</time>
      </trkpt>
      <trkpt lat="44.34835" lon="6.61969">
        <ele>1221.38</ele>
        <time>2018-08-25T10:08:39Z</time>
      </trkpt>
      <trkpt lat="44.34809" lon="6.6197">
        <ele>1221.41</ele>
        <time>2018-08-25T10:08:40Z</time>
      </trkpt>
      <trkpt lat="44.34783" lon="6.61972">
        <ele>1222.12</ele>
        <time>2018-08-25T10:08:41Z</time>
      </trkpt>
      <trkpt lat="44.34758" lon="6.61977">
        <ele>1223.03</ele>
        <time>2018-08-25T10:08:42Z</time>
      </trkpt>
      <trkpt lat="44.34732" lon="6.61983">
        <ele>1223.3</ele>
        <time>2018-08-25T10:08:43Z</time>
      </trkpt>
      <trkpt lat="44.34709" lon="6.61992">
        <ele>1222.69</ele>
        <time>2018-08-25T10:08:44Z</time>
      </trkpt>
      <trkpt lat="44.34686" lon="6.62">
        <ele>1222.5</ele>
        <time>2018-08-25T10:08:45Z</time>
      </trkpt>
      <trkpt lat="44.34665" lon="6.62009">
        <ele>1223.14</ele>
        <time>2018-08-25T10:08:46Z</time>
      </trkpt>
      <trkpt lat="44.34629" lon="6.62008">
        <ele>1224.31</ele>
        <time>2018-08-25T10:08:48Z</time>
      </trkpt>
      <trkpt lat="44.34611" lon="6.62003">
        <ele>1224.39</ele>
        <time>2018-08-25T10:08:49Z</time>
      </trkpt>
      <trkpt lat="44.34579" lon="6.61988">
        <ele>1224.42</ele>
        <time>2018-08-25T10:08:51Z</time>
      </trkpt>
      <trkpt lat="44.34561" lon="6.61985">
        <ele>1225.12</ele>
        <time>2018-08-25T10:08:52Z</time>
      </trkpt>
      <trkpt lat="44.34542" lon="6.61981">
        <ele>1225.33</ele>
        <time>2018-08-25T10:08:53Z</time>
      </trkpt>
      <trkpt lat="44.34523" lon="6.61982">
        <ele>1226.09</ele>
        <time>2018-08-25T10:08:54Z</time>
      </trkpt>
      <trkpt lat="44.34504" lon="6.61975">
        <ele>1227.02</ele>
        <time>2018-08-25T10:08:55Z</time>
      </trkpt>
      <trkpt lat="44.34486" lon="6.61968">
        <ele>1227.3</ele>
        <time>2018-08-25T10:08:56Z</time>
      </trkpt>
      <trkpt lat="44.34467" lon="6.61966">
        <ele>1227.39</ele>
        <time>2018-08-25T10:08:57Z</time>
      </trkpt>
      <trkpt lat="44.34447" lon="6.61965">
        <ele>1228.81</ele>
        <time>2018-08-25T10:08:58Z</time>
      </trkpt>
      <trkpt lat="44.34425" lon="6.61966">
        <ele>1229.94</ele>
        <time>2018-08-25T10:08:59Z</time>
      </trkpt>
      <trkpt lat="44.34402" lon="6.61963">
        <ele>1230.28</ele>
        <time>2018-08-25T10:09:00Z</time>
      </trkpt>
      <trkpt lat="44.34379" lon="6.61959">
        <ele>1231.78</ele>
        <time>2018-08-25T10:09:01Z</time>
      </trkpt>
      <trkpt lat="44.34358" lon="6.61955">
        <ele>1232.23</ele>
        <time>2018-08-25T10:09:02Z</time>
      </trkpt>
      <trkpt lat="44.34341" lon="6.6195">
        <ele>1233.76</ele>
        <time>2018-08-25T10:09:03Z</time>
      </trkpt>
      <trkpt lat="44.34312" lon="6.61925">
        <ele>1234.57</ele>
        <time>2018-08-25T10:09:05Z</time>
      </trkpt>
      <trkpt lat="44.34294" lon="6.61914">
        <ele>1234.47</ele>
        <time>2018-08-25T10:09:06Z</time>
      </trkpt>
      <trkpt lat="44.34274" lon="6.61907">
        <ele>1235.13</ele>
        <time>2018-08-25T10:09:07Z</time>
      </trkpt>
      <trkpt lat="44.34254" lon="6.61903">
        <ele>1234.64</ele>
        <time>2018-08-25T10:09:08Z</time>
      </trkpt>
      <trkpt lat="44.34233" lon="6.61904">
        <ele>1235.19</ele>
        <time>2018-08-25T10:09:09Z</time>
      </trkpt>
      <trkpt lat="44.3421" lon="6.61911">
        <ele>1234.65</ele>
        <time>2018-08-25T10:09:10Z</time>
      </trkpt>
      <trkpt lat="44.34187" lon="6.61918">
        <ele>1235.89</ele>
        <time>2018-08-25T10:09:11Z</time>
      </trkpt>
      <trkpt lat="44.34163" lon="6.61922">
        <ele>1235.56</ele>
        <time>2018-08-25T10:09:12Z</time>
      </trkpt>
      <trkpt lat="44.34141" lon="6.61926">
        <ele>1236.16</ele>
        <time>2018-08-25T10:09:13Z</time>
      </trkpt>
      <trkpt lat="44.3412" lon="6.61926">
        <ele>1236.34</ele>
        <time>2018-08-25T10:09:14Z</time>
      </trkpt>
      <trkpt lat="44.34101" lon="6.61926">
        <ele>1237.1</ele>
        <time>2018-08-25T10:09:15Z</time>
      </trkpt>
      <trkpt lat="44.34078" lon="6.61898">
        <ele>1237.18</ele>
        <time>2018-08-25T10:09:17Z</time>
      </trkpt>
      <trkpt lat="44.34061" lon="6.61857">
        <ele>1237.4</ele>
        <time>2018-08-25T10:09:19Z</time>
      </trkpt>
      <trkpt lat="44.3405" lon="6.61834">
        <ele>1237.41</ele>
        <time>2018-08-25T10:09:20Z</time>
      </trkpt>
      <trkpt lat="44.34031" lon="6.61815">
        <ele>1238.12</ele>
        <time>2018-08-25T10:09:21Z</time>
      </trkpt>
      <trkpt lat="44.34011" lon="6.61797">
        <ele>1239.03</ele>
        <time>2018-08-25T10:09:22Z</time>
      </trkpt>
      <trkpt lat="44.33991" lon="6.61782">
        <ele>1240</ele>
        <time>2018-08-25T10:09:23Z</time>
      </trkpt>
      <trkpt lat="44.33969" lon="6.61771">
        <ele>1240.3</ele>
        <time>2018-08-25T10:09:24Z</time>
      </trkpt>
      <trkpt lat="44.33948" lon="6.61763">
        <ele>1240.38</ele>
        <time>2018-08-25T10:09:25Z</time>
      </trkpt>
      <trkpt lat="44.33926" lon="6.61757">
        <ele>1240.41</ele>
        <time>2018-08-25T10:09:26Z</time>
      </trkpt>
      <trkpt lat="44.339" lon="6.61736">
        <ele>1241.12</ele>
        <time>2018-08-25T10:09:28Z</time>
      </trkpt>
      <trkpt lat="44.33877" lon="6.61707">
        <ele>1241.6</ele>
        <time>2018-08-25T10:09:30Z</time>
      </trkpt>
      <trkpt lat="44.3387" lon="6.61682">
        <ele>1242.14</ele>
        <time>2018-08-25T10:09:32Z</time>
      </trkpt>
      <trkpt lat="44.33857" lon="6.61654">
        <ele>1243.1</ele>
        <time>2018-08-25T10:09:34Z</time>
      </trkpt>
      <trkpt lat="44.33835" lon="6.6163">
        <ele>1244.09</ele>
        <time>2018-08-25T10:09:36Z</time>
      </trkpt>
      <trkpt lat="44.33816" lon="6.61626">
        <ele>1244.32</ele>
        <time>2018-08-25T10:09:37Z</time>
      </trkpt>
      <trkpt lat="44.33791" lon="6.61641">
        <ele>1243.69</ele>
        <time>2018-08-25T10:09:38Z</time>
      </trkpt>
      <trkpt lat="44.33773" lon="6.61641">
        <ele>1242.1</ele>
        <time>2018-08-25T10:09:39Z</time>
      </trkpt>
      <trkpt lat="44.33739" lon="6.61643">
        <ele>1244</ele>
        <time>2018-08-25T10:09:41Z</time>
      </trkpt>
      <trkpt lat="44.33709" lon="6.61636">
        <ele>1246.2</ele>
        <time>2018-08-25T10:09:43Z</time>
      </trkpt>
      <trkpt lat="44.33682" lon="6.61623">
        <ele>1247.31</ele>
        <time>2018-08-25T10:09:45Z</time>
      </trkpt>
      <trkpt lat="44.33649" lon="6.61619">
        <ele>1248.32</ele>
        <time>2018-08-25T10:09:47Z</time>
      </trkpt>
      <trkpt lat="44.33619" lon="6.6162">
        <ele>1248.41</ele>
        <time>2018-08-25T10:09:49Z</time>
      </trkpt>
      <trkpt lat="44.33592" lon="6.61618">
        <ele>1249.33</ele>
        <time>2018-08-25T10:09:51Z</time>
      </trkpt>
      <trkpt lat="44.33578" lon="6.61583">
        <ele>1251.02</ele>
        <time>2018-08-25T10:09:53Z</time>
      </trkpt>
      <trkpt lat="44.33555" lon="6.61561">
        <ele>1251.6</ele>
        <time>2018-08-25T10:09:55Z</time>
      </trkpt>
      <trkpt lat="44.33529" lon="6.61539">
        <ele>1253.96</ele>
        <time>2018-08-25T10:09:57Z</time>
      </trkpt>
      <trkpt lat="44.33511" lon="6.61528">
        <ele>1253.58</ele>
        <time>2018-08-25T10:09:58Z</time>
      </trkpt>
      <trkpt lat="44.33494" lon="6.61514">
        <ele>1253.47</ele>
        <time>2018-08-25T10:09:59Z</time>
      </trkpt>
      <trkpt lat="44.33477" lon="6.61502">
        <ele>1252.74</ele>
        <time>2018-08-25T10:10:00Z</time>
      </trkpt>
      <trkpt lat="44.33449" lon="6.6148">
        <ele>1253.15</ele>
        <time>2018-08-25T10:10:02Z</time>
      </trkpt>
      <trkpt lat="44.33421" lon="6.61461">
        <ele>1254.1</ele>
        <time>2018-08-25T10:10:04Z</time>
      </trkpt>
      <trkpt lat="44.33396" lon="6.6146">
        <ele>1255.3</ele>
        <time>2018-08-25T10:10:06Z</time>
      </trkpt>
      <trkpt lat="44.33377" lon="6.61456">
        <ele>1256.81</ele>
        <time>2018-08-25T10:10:08Z</time>
      </trkpt>
      <trkpt lat="44.33356" lon="6.61454">
        <ele>1258.28</ele>
        <time>2018-08-25T10:10:10Z</time>
      </trkpt>
      <trkpt lat="44.33337" lon="6.61448">
        <ele>1259.82</ele>
        <time>2018-08-25T10:10:13Z</time>
      </trkpt>
      <trkpt lat="44.33321" lon="6.61424">
        <ele>1262.99</ele>
        <time>2018-08-25T10:10:16Z</time>
      </trkpt>
      <trkpt lat="44.33296" lon="6.61399">
        <ele>1264.11</ele>
        <time>2018-08-25T10:10:19Z</time>
      </trkpt>
      <trkpt lat="44.33267" lon="6.61398">
        <ele>1263.69</ele>
        <time>2018-08-25T10:10:21Z</time>
      </trkpt>
      <trkpt lat="44.33238" lon="6.61386">
        <ele>1264.85</ele>
        <time>2018-08-25T10:10:23Z</time>
      </trkpt>
      <trkpt lat="44.3321" lon="6.61376">
        <ele>1266.28</ele>
        <time>2018-08-25T10:10:25Z</time>
      </trkpt>
      <trkpt lat="44.33182" lon="6.6139">
        <ele>1268.51</ele>
        <time>2018-08-25T10:10:27Z</time>
      </trkpt>
      <trkpt lat="44.33157" lon="6.61414">
        <ele>1271.86</ele>
        <time>2018-08-25T10:10:29Z</time>
      </trkpt>
      <trkpt lat="44.33135" lon="6.61438">
        <ele>1271.18</ele>
        <time>2018-08-25T10:10:31Z</time>
      </trkpt>
      <trkpt lat="44.33109" lon="6.61446">
        <ele>1269.79</ele>
        <time>2018-08-25T10:10:33Z</time>
      </trkpt>
      <trkpt lat="44.3308" lon="6.61445">
        <ele>1268.54</ele>
        <time>2018-08-25T10:10:35Z</time>
      </trkpt>
      <trkpt lat="44.33052" lon="6.61443">
        <ele>1269.83</ele>
        <time>2018-08-25T10:10:37Z</time>
      </trkpt>
      <trkpt lat="44.3303" lon="6.61425">
        <ele>1271.07</ele>
        <time>2018-08-25T10:10:39Z</time>
      </trkpt>
      <trkpt lat="44.33013" lon="6.61412">
        <ele>1273</ele>
        <time>2018-08-25T10:10:41Z</time>
      </trkpt>
      <trkpt lat="44.3299" lon="6.61402">
        <ele>1274.57</ele>
        <time>2018-08-25T10:10:43Z</time>
      </trkpt>
      <trkpt lat="44.32963" lon="6.61381">
        <ele>1276.95</ele>
        <time>2018-08-25T10:10:45Z</time>
      </trkpt>
      <trkpt lat="44.32938" lon="6.61359">
        <ele>1278.99</ele>
        <time>2018-08-25T10:10:47Z</time>
      </trkpt>
      <trkpt lat="44.32908" lon="6.61348">
        <ele>1280.08</ele>
        <time>2018-08-25T10:10:49Z</time>
      </trkpt>
      <trkpt lat="44.32875" lon="6.61349">
        <ele>1283.89</ele>
        <time>2018-08-25T10:10:51Z</time>
      </trkpt>
      <trkpt lat="44.3284" lon="6.61352">
        <ele>1282.06</ele>
        <time>2018-08-25T10:10:53Z</time>
      </trkpt>
      <trkpt lat="44.32807" lon="6.61349">
        <ele>1283.79</ele>
        <time>2018-08-25T10:10:55Z</time>
      </trkpt>
      <trkpt lat="44.32787" lon="6.61335">
        <ele>1286.88</ele>
        <time>2018-08-25T10:10:57Z</time>
      </trkpt>
      <trkpt lat="44.32755" lon="6.61332">
        <ele>1288.77</ele>
        <time>2018-08-25T10:10:59Z</time>
      </trkpt>
      <trkpt lat="44.32726" lon="6.61348">
        <ele>1290.27</ele>
        <time>2018-08-25T10:11:01Z</time>
      </trkpt>
      <trkpt lat="44.32698" lon="6.61366">
        <ele>1290.41</ele>
        <time>2018-08-25T10:11:03Z</time>
      </trkpt>
      <trkpt lat="44.32669" lon="6.61366">
        <ele>1289.51</ele>
        <time>2018-08-25T10:11:05Z</time>
      </trkpt>
      <trkpt lat="44.32645" lon="6.61353">
        <ele>1291.74</ele>
        <time>2018-08-25T10:11:07Z</time>
      </trkpt>
      <trkpt lat="44.32624" lon="6.61345">
        <ele>1291.45</ele>
        <time>2018-08-25T10:11:09Z</time>
      </trkpt>
      <trkpt lat="44.32606" lon="6.61347">
        <ele>1291.42</ele>
        <time>2018-08-25T10:11:11Z</time>
      </trkpt>
      <trkpt lat="44.32587" lon="6.61368">
        <ele>1292.12</ele>
        <time>2018-08-25T10:11:13Z</time>
      </trkpt>
      <trkpt lat="44.32561" lon="6.61381">
        <ele>1292.6</ele>
        <time>2018-08-25T10:11:15Z</time>
      </trkpt>
      <trkpt lat="44.32532" lon="6.61378">
        <ele>1294.05</ele>
        <time>2018-08-25T10:11:17Z</time>
      </trkpt>
      <trkpt lat="44.32508" lon="6.61381">
        <ele>1298.1</ele>
        <time>2018-08-25T10:11:19Z</time>
      </trkpt>
      <trkpt lat="44.32484" lon="6.61384">
        <ele>1298.39</ele>
        <time>2018-08-25T10:11:21Z</time>
      </trkpt>
      <trkpt lat="44.32457" lon="6.61385">
        <ele>1301.43</ele>
        <time>2018-08-25T10:11:23Z</time>
      </trkpt>
      <trkpt lat="44.32431" lon="6.614">
        <ele>1302.82</ele>
        <time>2018-08-25T10:11:25Z</time>
      </trkpt>
      <trkpt lat="44.32406" lon="6.61419">
        <ele>1304.07</ele>
        <time>2018-08-25T10:11:27Z</time>
      </trkpt>
      <trkpt lat="44.32379" lon="6.61444">
        <ele>1306.7</ele>
        <time>2018-08-25T10:11:29Z</time>
      </trkpt>
      <trkpt lat="44.32349" lon="6.61468">
        <ele>1308.97</ele>
        <time>2018-08-25T10:11:31Z</time>
      </trkpt>
      <trkpt lat="44.3232" lon="6.61486">
        <ele>1309.38</ele>
        <time>2018-08-25T10:11:33Z</time>
      </trkpt>
      <trkpt lat="44.3229" lon="6.61496">
        <ele>1311.03</ele>
        <time>2018-08-25T10:11:35Z</time>
      </trkpt>
      <trkpt lat="44.32265" lon="6.61508">
        <ele>1310.69</ele>
        <time>2018-08-25T10:11:37Z</time>
      </trkpt>
      <trkpt lat="44.32245" lon="6.61529">
        <ele>1312.05</ele>
        <time>2018-08-25T10:11:39Z</time>
      </trkpt>
      <trkpt lat="44.32228" lon="6.61551">
        <ele>1311.48</ele>
        <time>2018-08-25T10:11:41Z</time>
      </trkpt>
      <trkpt lat="44.32229" lon="6.61578">
        <ele>1313.04</ele>
        <time>2018-08-25T10:11:43Z</time>
      </trkpt>
      <trkpt lat="44.32234" lon="6.61609">
        <ele>1314.3</ele>
        <time>2018-08-25T10:11:45Z</time>
      </trkpt>
      <trkpt lat="44.32239" lon="6.61641">
        <ele>1315.32</ele>
        <time>2018-08-25T10:11:47Z</time>
      </trkpt>
      <trkpt lat="44.32241" lon="6.6167">
        <ele>1315.41</ele>
        <time>2018-08-25T10:11:49Z</time>
      </trkpt>
      <trkpt lat="44.3223" lon="6.61696">
        <ele>1314.72</ele>
        <time>2018-08-25T10:11:51Z</time>
      </trkpt>
      <trkpt lat="44.32204" lon="6.61711">
        <ele>1315.15</ele>
        <time>2018-08-25T10:11:53Z</time>
      </trkpt>
      <trkpt lat="44.3218" lon="6.61731">
        <ele>1314.49</ele>
        <time>2018-08-25T10:11:55Z</time>
      </trkpt>
      <trkpt lat="44.32157" lon="6.6175">
        <ele>1316.25</ele>
        <time>2018-08-25T10:11:57Z</time>
      </trkpt>
      <trkpt lat="44.32136" lon="6.61764">
        <ele>1316.41</ele>
        <time>2018-08-25T10:11:59Z</time>
      </trkpt>
      <trkpt lat="44.3212" lon="6.61785">
        <ele>1317.33</ele>
        <time>2018-08-25T10:12:01Z</time>
      </trkpt>
      <trkpt lat="44.32107" lon="6.61814">
        <ele>1318.32</ele>
        <time>2018-08-25T10:12:03Z</time>
      </trkpt>
      <trkpt lat="44.3209" lon="6.61835">
        <ele>1317.71</ele>
        <time>2018-08-25T10:12:05Z</time>
      </trkpt>
      <trkpt lat="44.32073" lon="6.61856">
        <ele>1322.28</ele>
        <time>2018-08-25T10:12:07Z</time>
      </trkpt>
      <trkpt lat="44.32059" lon="6.61881">
        <ele>1324.23</ele>
        <time>2018-08-25T10:12:09Z</time>
      </trkpt>
      <trkpt lat="44.32052" lon="6.6193">
        <ele>1326.71</ele>
        <time>2018-08-25T10:12:11Z</time>
      </trkpt>
      <trkpt lat="44.32045" lon="6.6197">
        <ele>1326.45</ele>
        <time>2018-08-25T10:12:13Z</time>
      </trkpt>
      <trkpt lat="44.32041" lon="6.62012">
        <ele>1328.03</ele>
        <time>2018-08-25T10:12:15Z</time>
      </trkpt>
      <trkpt lat="44.32039" lon="6.62063">
        <ele>1330.7</ele>
        <time>2018-08-25T10:12:17Z</time>
      </trkpt>
      <trkpt lat="44.32038" lon="6.62092">
        <ele>1331.9</ele>
        <time>2018-08-25T10:12:18Z</time>
      </trkpt>
      <trkpt lat="44.32036" lon="6.62121">
        <ele>1333.67</ele>
        <time>2018-08-25T10:12:19Z</time>
      </trkpt>
      <trkpt lat="44.32034" lon="6.62151">
        <ele>1334.19</ele>
        <time>2018-08-25T10:12:20Z</time>
      </trkpt>
      <trkpt lat="44.3203" lon="6.62182">
        <ele>1334.35</ele>
        <time>2018-08-25T10:12:21Z</time>
      </trkpt>
      <trkpt lat="44.32025" lon="6.62213">
        <ele>1336.5</ele>
        <time>2018-08-25T10:12:22Z</time>
      </trkpt>
      <trkpt lat="44.32021" lon="6.62244">
        <ele>1338.54</ele>
        <time>2018-08-25T10:12:23Z</time>
      </trkpt>
      <trkpt lat="44.32016" lon="6.62293">
        <ele>1342.56</ele>
        <time>2018-08-25T10:12:25Z</time>
      </trkpt>
      <trkpt lat="44.32009" lon="6.62337">
        <ele>1345.16</ele>
        <time>2018-08-25T10:12:27Z</time>
      </trkpt>
      <trkpt lat="44.32004" lon="6.62364">
        <ele>1347.5</ele>
        <time>2018-08-25T10:12:29Z</time>
      </trkpt>
      <trkpt lat="44.32017" lon="6.62396">
        <ele>1349.8</ele>
        <time>2018-08-25T10:12:32Z</time>
      </trkpt>
      <trkpt lat="44.32026" lon="6.62428">
        <ele>1351.06</ele>
        <time>2018-08-25T10:12:34Z</time>
      </trkpt>
      <trkpt lat="44.32035" lon="6.62459">
        <ele>1352.3</ele>
        <time>2018-08-25T10:12:36Z</time>
      </trkpt>
      <trkpt lat="44.32032" lon="6.62489">
        <ele>1351.29</ele>
        <time>2018-08-25T10:12:38Z</time>
      </trkpt>
      <trkpt lat="44.32026" lon="6.62521">
        <ele>1352.11</ele>
        <time>2018-08-25T10:12:40Z</time>
      </trkpt>
      <trkpt lat="44.32021" lon="6.62551">
        <ele>1354</ele>
        <time>2018-08-25T10:12:42Z</time>
      </trkpt>
      <trkpt lat="44.32018" lon="6.62585">
        <ele>1357.6</ele>
        <time>2018-08-25T10:12:44Z</time>
      </trkpt>
      <trkpt lat="44.32014" lon="6.62619">
        <ele>1359.75</ele>
        <time>2018-08-25T10:12:46Z</time>
      </trkpt>
      <trkpt lat="44.31995" lon="6.62645">
        <ele>1364.77</ele>
        <time>2018-08-25T10:12:48Z</time>
      </trkpt>
      <trkpt lat="44.31983" lon="6.62672">
        <ele>1367.88</ele>
        <time>2018-08-25T10:12:50Z</time>
      </trkpt>
      <trkpt lat="44.31969" lon="6.62701">
        <ele>1369.98</ele>
        <time>2018-08-25T10:12:52Z</time>
      </trkpt>
      <trkpt lat="44.3195" lon="6.62731">
        <ele>1370.38</ele>
        <time>2018-08-25T10:12:54Z</time>
      </trkpt>
      <trkpt lat="44.31929" lon="6.62762">
        <ele>1373.64</ele>
        <time>2018-08-25T10:12:56Z</time>
      </trkpt>
      <trkpt lat="44.31911" lon="6.62799">
        <ele>1376.87</ele>
        <time>2018-08-25T10:12:58Z</time>
      </trkpt>
      <trkpt lat="44.31899" lon="6.62847">
        <ele>1378.98</ele>
        <time>2018-08-25T10:13:00Z</time>
      </trkpt>
      <trkpt lat="44.31893" lon="6.62874">
        <ele>1381.39</ele>
        <time>2018-08-25T10:13:01Z</time>
      </trkpt>
      <trkpt lat="44.31887" lon="6.629">
        <ele>1383.51</ele>
        <time>2018-08-25T10:13:02Z</time>
      </trkpt>
      <trkpt lat="44.31882" lon="6.62925">
        <ele>1384.85</ele>
        <time>2018-08-25T10:13:03Z</time>
      </trkpt>
      <trkpt lat="44.31871" lon="6.62967">
        <ele>1385.37</ele>
        <time>2018-08-25T10:13:05Z</time>
      </trkpt>
      <trkpt lat="44.31858" lon="6.62995">
        <ele>1386.54</ele>
        <time>2018-08-25T10:13:07Z</time>
      </trkpt>
      <trkpt lat="44.31854" lon="6.63025">
        <ele>1388.04</ele>
        <time>2018-08-25T10:13:09Z</time>
      </trkpt>
      <trkpt lat="44.31861" lon="6.63049">
        <ele>1389.71</ele>
        <time>2018-08-25T10:13:10Z</time>
      </trkpt>
      <trkpt lat="44.31871" lon="6.63091">
        <ele>1391.06</ele>
        <time>2018-08-25T10:13:12Z</time>
      </trkpt>
      <trkpt lat="44.31879" lon="6.63132">
        <ele>1392.09</ele>
        <time>2018-08-25T10:13:14Z</time>
      </trkpt>
      <trkpt lat="44.31878" lon="6.63176">
        <ele>1392.39</ele>
        <time>2018-08-25T10:13:16Z</time>
      </trkpt>
      <trkpt lat="44.3187" lon="6.63221">
        <ele>1394.24</ele>
        <time>2018-08-25T10:13:18Z</time>
      </trkpt>
      <trkpt lat="44.31861" lon="6.63261">
        <ele>1396.01</ele>
        <time>2018-08-25T10:13:20Z</time>
      </trkpt>
      <trkpt lat="44.31861" lon="6.63307">
        <ele>1397.99</ele>
        <time>2018-08-25T10:13:22Z</time>
      </trkpt>
      <trkpt lat="44.31865" lon="6.63355">
        <ele>1400.69</ele>
        <time>2018-08-25T10:13:24Z</time>
      </trkpt>
      <trkpt lat="44.31864" lon="6.63404">
        <ele>1401.36</ele>
        <time>2018-08-25T10:13:26Z</time>
      </trkpt>
      <trkpt lat="44.31861" lon="6.63429">
        <ele>1402.1</ele>
        <time>2018-08-25T10:13:27Z</time>
      </trkpt>
      <trkpt lat="44.31854" lon="6.63456">
        <ele>1402.33</ele>
        <time>2018-08-25T10:13:28Z</time>
      </trkpt>
      <trkpt lat="44.31842" lon="6.63492">
        <ele>1403.11</ele>
        <time>2018-08-25T10:13:30Z</time>
      </trkpt>
      <trkpt lat="44.31838" lon="6.63537">
        <ele>1403.39</ele>
        <time>2018-08-25T10:13:32Z</time>
      </trkpt>
      <trkpt lat="44.31835" lon="6.63583">
        <ele>1404.12</ele>
        <time>2018-08-25T10:13:34Z</time>
      </trkpt>
      <trkpt lat="44.31834" lon="6.63609">
        <ele>1404.33</ele>
        <time>2018-08-25T10:13:35Z</time>
      </trkpt>
      <trkpt lat="44.31833" lon="6.63636">
        <ele>1405.09</ele>
        <time>2018-08-25T10:13:36Z</time>
      </trkpt>
      <trkpt lat="44.31829" lon="6.63662">
        <ele>1405.32</ele>
        <time>2018-08-25T10:13:37Z</time>
      </trkpt>
      <trkpt lat="44.31826" lon="6.63689">
        <ele>1405.39</ele>
        <time>2018-08-25T10:13:38Z</time>
      </trkpt>
      <trkpt lat="44.31826" lon="6.63739">
        <ele>1406.33</ele>
        <time>2018-08-25T10:13:40Z</time>
      </trkpt>
      <trkpt lat="44.31827" lon="6.63767">
        <ele>1407.79</ele>
        <time>2018-08-25T10:13:41Z</time>
      </trkpt>
      <trkpt lat="44.31829" lon="6.63796">
        <ele>1408.93</ele>
        <time>2018-08-25T10:13:42Z</time>
      </trkpt>
      <trkpt lat="44.31831" lon="6.63825">
        <ele>1409.27</ele>
        <time>2018-08-25T10:13:43Z</time>
      </trkpt>
      <trkpt lat="44.31831" lon="6.63853">
        <ele>1410.08</ele>
        <time>2018-08-25T10:13:44Z</time>
      </trkpt>
      <trkpt lat="44.31831" lon="6.63881">
        <ele>1411.72</ele>
        <time>2018-08-25T10:13:45Z</time>
      </trkpt>
      <trkpt lat="44.31833" lon="6.63908">
        <ele>1413.61</ele>
        <time>2018-08-25T10:13:46Z</time>
      </trkpt>
      <trkpt lat="44.31834" lon="6.63935">
        <ele>1414.18</ele>
        <time>2018-08-25T10:13:47Z</time>
      </trkpt>
      <trkpt lat="44.31836" lon="6.63962">
        <ele>1416.45</ele>
        <time>2018-08-25T10:13:48Z</time>
      </trkpt>
      <trkpt lat="44.31839" lon="6.63989">
        <ele>1418.53</ele>
        <time>2018-08-25T10:13:49Z</time>
      </trkpt>
      <trkpt lat="44.31843" lon="6.64017">
        <ele>1419.15</ele>
        <time>2018-08-25T10:13:50Z</time>
      </trkpt>
      <trkpt lat="44.31847" lon="6.64044">
        <ele>1420.04</ele>
        <time>2018-08-25T10:13:51Z</time>
      </trkpt>
      <trkpt lat="44.31848" lon="6.64073">
        <ele>1421.01</ele>
        <time>2018-08-25T10:13:52Z</time>
      </trkpt>
      <trkpt lat="44.31846" lon="6.64103">
        <ele>1422</ele>
        <time>2018-08-25T10:13:53Z</time>
      </trkpt>
      <trkpt lat="44.31844" lon="6.64133">
        <ele>1422.99</ele>
        <time>2018-08-25T10:13:54Z</time>
      </trkpt>
      <trkpt lat="44.31842" lon="6.64166">
        <ele>1423.99</ele>
        <time>2018-08-25T10:13:55Z</time>
      </trkpt>
      <trkpt lat="44.31842" lon="6.64196">
        <ele>1424.99</ele>
        <time>2018-08-25T10:13:56Z</time>
      </trkpt>
      <trkpt lat="44.31841" lon="6.64224">
        <ele>1425.99</ele>
        <time>2018-08-25T10:13:57Z</time>
      </trkpt>
      <trkpt lat="44.31844" lon="6.64252">
        <ele>1426.29</ele>
        <time>2018-08-25T10:13:58Z</time>
      </trkpt>
      <trkpt lat="44.31847" lon="6.6428">
        <ele>1427.78</ele>
        <time>2018-08-25T10:13:59Z</time>
      </trkpt>
      <trkpt lat="44.3185" lon="6.64306">
        <ele>1429.63</ele>
        <time>2018-08-25T10:14:00Z</time>
      </trkpt>
      <trkpt lat="44.31858" lon="6.64347">
        <ele>1431.96</ele>
        <time>2018-08-25T10:14:02Z</time>
      </trkpt>
      <trkpt lat="44.31872" lon="6.64376">
        <ele>1433.29</ele>
        <time>2018-08-25T10:14:04Z</time>
      </trkpt>
      <trkpt lat="44.31875" lon="6.64408">
        <ele>1435.72</ele>
        <time>2018-08-25T10:14:06Z</time>
      </trkpt>
      <trkpt lat="44.3189" lon="6.64444">
        <ele>1437.97</ele>
        <time>2018-08-25T10:14:08Z</time>
      </trkpt>
      <trkpt lat="44.31901" lon="6.64484">
        <ele>1438.38</ele>
        <time>2018-08-25T10:14:10Z</time>
      </trkpt>
      <trkpt lat="44.31902" lon="6.64512">
        <ele>1439.81</ele>
        <time>2018-08-25T10:14:11Z</time>
      </trkpt>
      <trkpt lat="44.31903" lon="6.64539">
        <ele>1440.94</ele>
        <time>2018-08-25T10:14:12Z</time>
      </trkpt>
      <trkpt lat="44.31903" lon="6.64569">
        <ele>1441.98</ele>
        <time>2018-08-25T10:14:13Z</time>
      </trkpt>
      <trkpt lat="44.31903" lon="6.64598">
        <ele>1442.29</ele>
        <time>2018-08-25T10:14:14Z</time>
      </trkpt>
      <trkpt lat="44.31903" lon="6.64625">
        <ele>1443.78</ele>
        <time>2018-08-25T10:14:15Z</time>
      </trkpt>
      <trkpt lat="44.31904" lon="6.64652">
        <ele>1444.93</ele>
        <time>2018-08-25T10:14:16Z</time>
      </trkpt>
      <trkpt lat="44.31906" lon="6.64678">
        <ele>1445.97</ele>
        <time>2018-08-25T10:14:17Z</time>
      </trkpt>
      <trkpt lat="44.31909" lon="6.64704">
        <ele>1447.69</ele>
        <time>2018-08-25T10:14:18Z</time>
      </trkpt>
      <trkpt lat="44.31913" lon="6.64732">
        <ele>1449.6</ele>
        <time>2018-08-25T10:14:19Z</time>
      </trkpt>
      <trkpt lat="44.31917" lon="6.64759">
        <ele>1451.57</ele>
        <time>2018-08-25T10:14:20Z</time>
      </trkpt>
      <trkpt lat="44.31922" lon="6.64786">
        <ele>1451.47</ele>
        <time>2018-08-25T10:14:21Z</time>
      </trkpt>
      <trkpt lat="44.31925" lon="6.64813">
        <ele>1452.83</ele>
        <time>2018-08-25T10:14:22Z</time>
      </trkpt>
      <trkpt lat="44.31926" lon="6.6484">
        <ele>1453.25</ele>
        <time>2018-08-25T10:14:23Z</time>
      </trkpt>
      <trkpt lat="44.31927" lon="6.64866">
        <ele>1452.67</ele>
        <time>2018-08-25T10:14:24Z</time>
      </trkpt>
      <trkpt lat="44.31928" lon="6.64917">
        <ele>1454.05</ele>
        <time>2018-08-25T10:14:26Z</time>
      </trkpt>
      <trkpt lat="44.31933" lon="6.64965">
        <ele>1455.09</ele>
        <time>2018-08-25T10:14:28Z</time>
      </trkpt>
      <trkpt lat="44.31934" lon="6.6501">
        <ele>1455.39</ele>
        <time>2018-08-25T10:14:30Z</time>
      </trkpt>
      <trkpt lat="44.31936" lon="6.65056">
        <ele>1457.24</ele>
        <time>2018-08-25T10:14:32Z</time>
      </trkpt>
      <trkpt lat="44.3194" lon="6.65101">
        <ele>1458.8</ele>
        <time>2018-08-25T10:14:34Z</time>
      </trkpt>
      <trkpt lat="44.31949" lon="6.65148">
        <ele>1460.07</ele>
        <time>2018-08-25T10:14:36Z</time>
      </trkpt>
      <trkpt lat="44.31959" lon="6.65192">
        <ele>1462.7</ele>
        <time>2018-08-25T10:14:38Z</time>
      </trkpt>
      <trkpt lat="44.3197" lon="6.65234">
        <ele>1464.27</ele>
        <time>2018-08-25T10:14:40Z</time>
      </trkpt>
      <trkpt lat="44.3197" lon="6.65277">
        <ele>1465.11</ele>
        <time>2018-08-25T10:14:42Z</time>
      </trkpt>
      <trkpt lat="44.31969" lon="6.65324">
        <ele>1466.09</ele>
        <time>2018-08-25T10:14:44Z</time>
      </trkpt>
      <trkpt lat="44.31966" lon="6.65373">
        <ele>1466.39</ele>
        <time>2018-08-25T10:14:46Z</time>
      </trkpt>
      <trkpt lat="44.31966" lon="6.65422">
        <ele>1467.12</ele>
        <time>2018-08-25T10:14:48Z</time>
      </trkpt>
      <trkpt lat="44.31965" lon="6.65469">
        <ele>1469</ele>
        <time>2018-08-25T10:14:50Z</time>
      </trkpt>
      <trkpt lat="44.31963" lon="6.65515">
        <ele>1470.99</ele>
        <time>2018-08-25T10:14:52Z</time>
      </trkpt>
      <trkpt lat="44.31967" lon="6.65555">
        <ele>1474.6</ele>
        <time>2018-08-25T10:14:54Z</time>
      </trkpt>
      <trkpt lat="44.31969" lon="6.65592">
        <ele>1476.26</ele>
        <time>2018-08-25T10:14:56Z</time>
      </trkpt>
      <trkpt lat="44.31972" lon="6.6563">
        <ele>1479.63</ele>
        <time>2018-08-25T10:14:58Z</time>
      </trkpt>
      <trkpt lat="44.31983" lon="6.65654">
        <ele>1484.06</ele>
        <time>2018-08-25T10:15:00Z</time>
      </trkpt>
      <trkpt lat="44.32001" lon="6.6567">
        <ele>1486</ele>
        <time>2018-08-25T10:15:02Z</time>
      </trkpt>
      <trkpt lat="44.32019" lon="6.65687">
        <ele>1487.08</ele>
        <time>2018-08-25T10:15:04Z</time>
      </trkpt>
      <trkpt lat="44.32036" lon="6.65703">
        <ele>1489.91</ele>
        <time>2018-08-25T10:15:06Z</time>
      </trkpt>
      <trkpt lat="44.3205" lon="6.65725">
        <ele>1490.38</ele>
        <time>2018-08-25T10:15:08Z</time>
      </trkpt>
      <trkpt lat="44.32058" lon="6.65753">
        <ele>1491.82</ele>
        <time>2018-08-25T10:15:10Z</time>
      </trkpt>
      <trkpt lat="44.32064" lon="6.65783">
        <ele>1492.37</ele>
        <time>2018-08-25T10:15:12Z</time>
      </trkpt>
      <trkpt lat="44.32083" lon="6.65818">
        <ele>1494.03</ele>
        <time>2018-08-25T10:15:14Z</time>
      </trkpt>
      <trkpt lat="44.32101" lon="6.65856">
        <ele>1495.3</ele>
        <time>2018-08-25T10:15:16Z</time>
      </trkpt>
      <trkpt lat="44.32126" lon="6.65888">
        <ele>1498.63</ele>
        <time>2018-08-25T10:15:18Z</time>
      </trkpt>
      <trkpt lat="44.32152" lon="6.65922">
        <ele>1501.87</ele>
        <time>2018-08-25T10:15:20Z</time>
      </trkpt>
      <trkpt lat="44.32175" lon="6.65957">
        <ele>1504.68</ele>
        <time>2018-08-25T10:15:22Z</time>
      </trkpt>
      <trkpt lat="44.32193" lon="6.6599">
        <ele>1507.87</ele>
        <time>2018-08-25T10:15:24Z</time>
      </trkpt>
      <trkpt lat="44.32209" lon="6.66018">
        <ele>1510.68</ele>
        <time>2018-08-25T10:15:26Z</time>
      </trkpt>
      <trkpt lat="44.32229" lon="6.66039">
        <ele>1512.05</ele>
        <time>2018-08-25T10:15:28Z</time>
      </trkpt>
      <trkpt lat="44.3225" lon="6.66043">
        <ele>1514.91</ele>
        <time>2018-08-25T10:15:30Z</time>
      </trkpt>
      <trkpt lat="44.32268" lon="6.66035">
        <ele>1516.77</ele>
        <time>2018-08-25T10:15:32Z</time>
      </trkpt>
      <trkpt lat="44.32282" lon="6.66053">
        <ele>1518.31</ele>
        <time>2018-08-25T10:15:35Z</time>
      </trkpt>
      <trkpt lat="44.32276" lon="6.6608">
        <ele>1519.11</ele>
        <time>2018-08-25T10:15:37Z</time>
      </trkpt>
      <trkpt lat="44.32271" lon="6.66109">
        <ele>1520.09</ele>
        <time>2018-08-25T10:15:39Z</time>
      </trkpt>
      <trkpt lat="44.32271" lon="6.66143">
        <ele>1522</ele>
        <time>2018-08-25T10:15:41Z</time>
      </trkpt>
      <trkpt lat="44.32279" lon="6.66174">
        <ele>1524.69</ele>
        <time>2018-08-25T10:15:43Z</time>
      </trkpt>
      <trkpt lat="44.3229" lon="6.66208">
        <ele>1526.06</ele>
        <time>2018-08-25T10:15:45Z</time>
      </trkpt>
      <trkpt lat="44.3229" lon="6.66245">
        <ele>1528.7</ele>
        <time>2018-08-25T10:15:47Z</time>
      </trkpt>
      <trkpt lat="44.32295" lon="6.66279">
        <ele>1530.97</ele>
        <time>2018-08-25T10:15:49Z</time>
      </trkpt>
      <trkpt lat="44.32306" lon="6.66311">
        <ele>1531.38</ele>
        <time>2018-08-25T10:15:51Z</time>
      </trkpt>
      <trkpt lat="44.32309" lon="6.66344">
        <ele>1532.33</ele>
        <time>2018-08-25T10:15:53Z</time>
      </trkpt>
      <trkpt lat="44.32312" lon="6.66378">
        <ele>1534.02</ele>
        <time>2018-08-25T10:15:55Z</time>
      </trkpt>
      <trkpt lat="44.32314" lon="6.66413">
        <ele>1535.09</ele>
        <time>2018-08-25T10:15:57Z</time>
      </trkpt>
      <trkpt lat="44.32316" lon="6.66456">
        <ele>1537.91</ele>
        <time>2018-08-25T10:15:59Z</time>
      </trkpt>
      <trkpt lat="44.32315" lon="6.66481">
        <ele>1538.97</ele>
        <time>2018-08-25T10:16:00Z</time>
      </trkpt>
      <trkpt lat="44.32314" lon="6.6651">
        <ele>1540.69</ele>
        <time>2018-08-25T10:16:01Z</time>
      </trkpt>
      <trkpt lat="44.32312" lon="6.66538">
        <ele>1541.9</ele>
        <time>2018-08-25T10:16:02Z</time>
      </trkpt>
      <trkpt lat="44.3231" lon="6.66565">
        <ele>1542.26</ele>
        <time>2018-08-25T10:16:03Z</time>
      </trkpt>
      <trkpt lat="44.32306" lon="6.66603">
        <ele>1543.32</ele>
        <time>2018-08-25T10:16:05Z</time>
      </trkpt>
      <trkpt lat="44.32309" lon="6.66634">
        <ele>1544.18</ele>
        <time>2018-08-25T10:16:08Z</time>
      </trkpt>
      <trkpt lat="44.32321" lon="6.66614">
        <ele>1544.19</ele>
        <time>2018-08-25T10:16:10Z</time>
      </trkpt>
      <trkpt lat="44.32317" lon="6.66589">
        <ele>1545.05</ele>
        <time>2018-08-25T10:16:11Z</time>
      </trkpt>
      <trkpt lat="44.32318" lon="6.66547">
        <ele>1547.41</ele>
        <time>2018-08-25T10:16:12Z</time>
      </trkpt>
      <trkpt lat="44.32323" lon="6.66519">
        <ele>1548.82</ele>
        <time>2018-08-25T10:16:13Z</time>
      </trkpt>
      <trkpt lat="44.32327" lon="6.66494">
        <ele>1550.64</ele>
        <time>2018-08-25T10:16:14Z</time>
      </trkpt>
      <trkpt lat="44.32336" lon="6.6645">
        <ele>1552.75</ele>
        <time>2018-08-25T10:16:16Z</time>
      </trkpt>
      <trkpt lat="44.32344" lon="6.66426">
        <ele>1554.27</ele>
        <time>2018-08-25T10:16:18Z</time>
      </trkpt>
      <trkpt lat="44.32349" lon="6.66457">
        <ele>1558.11</ele>
        <time>2018-08-25T10:16:26Z</time>
      </trkpt>
      <trkpt lat="44.32342" lon="6.66497">
        <ele>1559.09</ele>
        <time>2018-08-25T10:16:28Z</time>
      </trkpt>
      <trkpt lat="44.32338" lon="6.66539">
        <ele>1561.7</ele>
        <time>2018-08-25T10:16:30Z</time>
      </trkpt>
      <trkpt lat="44.32334" lon="6.66579">
        <ele>1563.76</ele>
        <time>2018-08-25T10:16:32Z</time>
      </trkpt>
      <trkpt lat="44.32337" lon="6.66617">
        <ele>1564.36</ele>
        <time>2018-08-25T10:16:34Z</time>
      </trkpt>
      <trkpt lat="44.32346" lon="6.66656">
        <ele>1565.12</ele>
        <time>2018-08-25T10:16:36Z</time>
      </trkpt>
      <trkpt lat="44.3235" lon="6.66701">
        <ele>1566.3</ele>
        <time>2018-08-25T10:16:38Z</time>
      </trkpt>
      <trkpt lat="44.32344" lon="6.66738">
        <ele>1568.02</ele>
        <time>2018-08-25T10:16:40Z</time>
      </trkpt>
      <trkpt lat="44.3233" lon="6.66766">
        <ele>1569.29</ele>
        <time>2018-08-25T10:16:42Z</time>
      </trkpt>
      <trkpt lat="44.32309" lon="6.66787">
        <ele>1570.81</ele>
        <time>2018-08-25T10:16:44Z</time>
      </trkpt>
      <trkpt lat="44.32279" lon="6.66794">
        <ele>1575.5</ele>
        <time>2018-08-25T10:16:46Z</time>
      </trkpt>
      <trkpt lat="44.32251" lon="6.66812">
        <ele>1577.04</ele>
        <time>2018-08-25T10:16:48Z</time>
      </trkpt>
      <trkpt lat="44.32231" lon="6.66842">
        <ele>1577.18</ele>
        <time>2018-08-25T10:16:50Z</time>
      </trkpt>
      <trkpt lat="44.3221" lon="6.66875">
        <ele>1578.31</ele>
        <time>2018-08-25T10:16:52Z</time>
      </trkpt>
      <trkpt lat="44.32185" lon="6.66899">
        <ele>1580.93</ele>
        <time>2018-08-25T10:16:54Z</time>
      </trkpt>
      <trkpt lat="44.32166" lon="6.66939">
        <ele>1582.08</ele>
        <time>2018-08-25T10:16:56Z</time>
      </trkpt>
      <trkpt lat="44.32153" lon="6.66983">
        <ele>1583.09</ele>
        <time>2018-08-25T10:16:58Z</time>
      </trkpt>
      <trkpt lat="44.32148" lon="6.6701">
        <ele>1582.62</ele>
        <time>2018-08-25T10:16:59Z</time>
      </trkpt>
      <trkpt lat="44.32147" lon="6.67059">
        <ele>1584.75</ele>
        <time>2018-08-25T10:17:01Z</time>
      </trkpt>
      <trkpt lat="44.32155" lon="6.67105">
        <ele>1588.79</ele>
        <time>2018-08-25T10:17:03Z</time>
      </trkpt>
      <trkpt lat="44.3216" lon="6.6715">
        <ele>1592.58</ele>
        <time>2018-08-25T10:17:05Z</time>
      </trkpt>
      <trkpt lat="44.32158" lon="6.67175">
        <ele>1594.57</ele>
        <time>2018-08-25T10:17:06Z</time>
      </trkpt>
      <trkpt lat="44.32155" lon="6.67202">
        <ele>1595.17</ele>
        <time>2018-08-25T10:17:07Z</time>
      </trkpt>
      <trkpt lat="44.32151" lon="6.67231">
        <ele>1596.74</ele>
        <time>2018-08-25T10:17:08Z</time>
      </trkpt>
      <trkpt lat="44.32149" lon="6.67262">
        <ele>1597.92</ele>
        <time>2018-08-25T10:17:09Z</time>
      </trkpt>
      <trkpt lat="44.32147" lon="6.67293">
        <ele>1598.27</ele>
        <time>2018-08-25T10:17:10Z</time>
      </trkpt>
      <trkpt lat="44.32142" lon="6.67323">
        <ele>1599.08</ele>
        <time>2018-08-25T10:17:11Z</time>
      </trkpt>
      <trkpt lat="44.32136" lon="6.67353">
        <ele>1600.02</ele>
        <time>2018-08-25T10:17:12Z</time>
      </trkpt>
      <trkpt lat="44.3213" lon="6.67383">
        <ele>1601</ele>
        <time>2018-08-25T10:17:13Z</time>
      </trkpt>
      <trkpt lat="44.32127" lon="6.67411">
        <ele>1601.29</ele>
        <time>2018-08-25T10:17:14Z</time>
      </trkpt>
      <trkpt lat="44.32123" lon="6.67436">
        <ele>1602.08</ele>
        <time>2018-08-25T10:17:15Z</time>
      </trkpt>
      <trkpt lat="44.3211" lon="6.67476">
        <ele>1601.69</ele>
        <time>2018-08-25T10:17:17Z</time>
      </trkpt>
      <trkpt lat="44.3209" lon="6.67485">
        <ele>1601.5</ele>
        <time>2018-08-25T10:17:18Z</time>
      </trkpt>
      <trkpt lat="44.32068" lon="6.67515">
        <ele>1603.04</ele>
        <time>2018-08-25T10:17:20Z</time>
      </trkpt>
      <trkpt lat="44.32054" lon="6.67551">
        <ele>1604.09</ele>
        <time>2018-08-25T10:17:22Z</time>
      </trkpt>
      <trkpt lat="44.32045" lon="6.67593">
        <ele>1605.09</ele>
        <time>2018-08-25T10:17:24Z</time>
      </trkpt>
      <trkpt lat="44.32039" lon="6.67635">
        <ele>1606.09</ele>
        <time>2018-08-25T10:17:26Z</time>
      </trkpt>
      <trkpt lat="44.3204" lon="6.67682">
        <ele>1608.91</ele>
        <time>2018-08-25T10:17:28Z</time>
      </trkpt>
      <trkpt lat="44.32042" lon="6.67728">
        <ele>1610.08</ele>
        <time>2018-08-25T10:17:30Z</time>
      </trkpt>
      <trkpt lat="44.32043" lon="6.67774">
        <ele>1610.39</ele>
        <time>2018-08-25T10:17:32Z</time>
      </trkpt>
      <trkpt lat="44.32035" lon="6.67818">
        <ele>1611.33</ele>
        <time>2018-08-25T10:17:34Z</time>
      </trkpt>
      <trkpt lat="44.3202" lon="6.67836">
        <ele>1612.09</ele>
        <time>2018-08-25T10:17:35Z</time>
      </trkpt>
      <trkpt lat="44.31994" lon="6.67866">
        <ele>1612.39</ele>
        <time>2018-08-25T10:17:37Z</time>
      </trkpt>
      <trkpt lat="44.31972" lon="6.67898">
        <ele>1615.85</ele>
        <time>2018-08-25T10:17:39Z</time>
      </trkpt>
      <trkpt lat="44.31955" lon="6.67936">
        <ele>1617.07</ele>
        <time>2018-08-25T10:17:41Z</time>
      </trkpt>
      <trkpt lat="44.31953" lon="6.67971">
        <ele>1617.6</ele>
        <time>2018-08-25T10:17:43Z</time>
      </trkpt>
      <trkpt lat="44.31959" lon="6.68">
        <ele>1619.26</ele>
        <time>2018-08-25T10:17:45Z</time>
      </trkpt>
      <trkpt lat="44.31948" lon="6.68033">
        <ele>1619.56</ele>
        <time>2018-08-25T10:17:48Z</time>
      </trkpt>
      <trkpt lat="44.31934" lon="6.68051">
        <ele>1620.34</ele>
        <time>2018-08-25T10:17:50Z</time>
      </trkpt>
      <trkpt lat="44.31911" lon="6.68072">
        <ele>1621.32</ele>
        <time>2018-08-25T10:17:52Z</time>
      </trkpt>
      <trkpt lat="44.31896" lon="6.681">
        <ele>1622.11</ele>
        <time>2018-08-25T10:17:54Z</time>
      </trkpt>
      <trkpt lat="44.31895" lon="6.68132">
        <ele>1623.09</ele>
        <time>2018-08-25T10:17:56Z</time>
      </trkpt>
      <trkpt lat="44.319" lon="6.68163">
        <ele>1624.72</ele>
        <time>2018-08-25T10:17:57Z</time>
      </trkpt>
      <trkpt lat="44.31896" lon="6.68213">
        <ele>1625.36</ele>
        <time>2018-08-25T10:17:59Z</time>
      </trkpt>
      <trkpt lat="44.31891" lon="6.68246">
        <ele>1626.8</ele>
        <time>2018-08-25T10:18:00Z</time>
      </trkpt>
      <trkpt lat="44.31886" lon="6.68276">
        <ele>1628.64</ele>
        <time>2018-08-25T10:18:01Z</time>
      </trkpt>
      <trkpt lat="44.31881" lon="6.68307">
        <ele>1629.89</ele>
        <time>2018-08-25T10:18:02Z</time>
      </trkpt>
      <trkpt lat="44.31877" lon="6.68337">
        <ele>1630.96</ele>
        <time>2018-08-25T10:18:03Z</time>
      </trkpt>
      <trkpt lat="44.31875" lon="6.68364">
        <ele>1631.28</ele>
        <time>2018-08-25T10:18:04Z</time>
      </trkpt>
      <trkpt lat="44.31868" lon="6.68412">
        <ele>1633.93</ele>
        <time>2018-08-25T10:18:06Z</time>
      </trkpt>
      <trkpt lat="44.31866" lon="6.68451">
        <ele>1635.99</ele>
        <time>2018-08-25T10:18:08Z</time>
      </trkpt>
      <trkpt lat="44.31867" lon="6.68496">
        <ele>1637.08</ele>
        <time>2018-08-25T10:18:10Z</time>
      </trkpt>
      <trkpt lat="44.31864" lon="6.68521">
        <ele>1637.32</ele>
        <time>2018-08-25T10:18:11Z</time>
      </trkpt>
      <trkpt lat="44.31861" lon="6.68547">
        <ele>1638.79</ele>
        <time>2018-08-25T10:18:12Z</time>
      </trkpt>
      <trkpt lat="44.31857" lon="6.68573">
        <ele>1639.23</ele>
        <time>2018-08-25T10:18:13Z</time>
      </trkpt>
      <trkpt lat="44.31854" lon="6.68617">
        <ele>1639.4</ele>
        <time>2018-08-25T10:18:15Z</time>
      </trkpt>
      <trkpt lat="44.31861" lon="6.68658">
        <ele>1641.03</ele>
        <time>2018-08-25T10:18:17Z</time>
      </trkpt>
      <trkpt lat="44.31874" lon="6.68696">
        <ele>1641.39</ele>
        <time>2018-08-25T10:18:19Z</time>
      </trkpt>
      <trkpt lat="44.31893" lon="6.68731">
        <ele>1642.33</ele>
        <time>2018-08-25T10:18:21Z</time>
      </trkpt>
      <trkpt lat="44.3191" lon="6.6877">
        <ele>1640.8</ele>
        <time>2018-08-25T10:18:23Z</time>
      </trkpt>
      <trkpt lat="44.31923" lon="6.68812">
        <ele>1641.37</ele>
        <time>2018-08-25T10:18:25Z</time>
      </trkpt>
      <trkpt lat="44.31938" lon="6.68854">
        <ele>1642.33</ele>
        <time>2018-08-25T10:18:27Z</time>
      </trkpt>
      <trkpt lat="44.3195" lon="6.68892">
        <ele>1641.71</ele>
        <time>2018-08-25T10:18:29Z</time>
      </trkpt>
      <trkpt lat="44.31948" lon="6.68933">
        <ele>1642.36</ele>
        <time>2018-08-25T10:18:31Z</time>
      </trkpt>
      <trkpt lat="44.31938" lon="6.68971">
        <ele>1643.12</ele>
        <time>2018-08-25T10:18:33Z</time>
      </trkpt>
      <trkpt lat="44.31929" lon="6.69008">
        <ele>1644.3</ele>
        <time>2018-08-25T10:18:35Z</time>
      </trkpt>
      <trkpt lat="44.31924" lon="6.6904">
        <ele>1643.5</ele>
        <time>2018-08-25T10:18:37Z</time>
      </trkpt>
      <trkpt lat="44.31919" lon="6.69069">
        <ele>1645.04</ele>
        <time>2018-08-25T10:18:39Z</time>
      </trkpt>
      <trkpt lat="44.31908" lon="6.6909">
        <ele>1646.09</ele>
        <time>2018-08-25T10:18:41Z</time>
      </trkpt>
      <trkpt lat="44.31893" lon="6.69112">
        <ele>1647.32</ele>
        <time>2018-08-25T10:18:44Z</time>
      </trkpt>
      <trkpt lat="44.31887" lon="6.69143">
        <ele>1649.09</ele>
        <time>2018-08-25T10:18:47Z</time>
      </trkpt>
      <trkpt lat="44.31883" lon="6.69174">
        <ele>1650.32</ele>
        <time>2018-08-25T10:18:50Z</time>
      </trkpt>
      <trkpt lat="44.31882" lon="6.69202">
        <ele>1650.42</ele>
        <time>2018-08-25T10:18:53Z</time>
      </trkpt>
      <trkpt lat="44.31882" lon="6.69233">
        <ele>1650.42</ele>
        <time>2018-08-25T10:18:57Z</time>
      </trkpt>
      <trkpt lat="44.31884" lon="6.6926">
        <ele>1652.39</ele>
        <time>2018-08-25T10:19:02Z</time>
      </trkpt>
      <trkpt lat="44.3189" lon="6.69284">
        <ele>1652.15</ele>
        <time>2018-08-25T10:19:05Z</time>
      </trkpt>
      <trkpt lat="44.31899" lon="6.69308">
        <ele>1653.8</ele>
        <time>2018-08-25T10:19:07Z</time>
      </trkpt>
      <trkpt lat="44.31913" lon="6.6933">
        <ele>1655.27</ele>
        <time>2018-08-25T10:19:09Z</time>
      </trkpt>
      <trkpt lat="44.31927" lon="6.69357">
        <ele>1655.41</ele>
        <time>2018-08-25T10:19:11Z</time>
      </trkpt>
      <trkpt lat="44.31933" lon="6.6939">
        <ele>1656.12</ele>
        <time>2018-08-25T10:19:13Z</time>
      </trkpt>
      <trkpt lat="44.31941" lon="6.69425">
        <ele>1656.18</ele>
        <time>2018-08-25T10:19:15Z</time>
      </trkpt>
      <trkpt lat="44.31953" lon="6.6946">
        <ele>1656.4</ele>
        <time>2018-08-25T10:19:17Z</time>
      </trkpt>
      <trkpt lat="44.3197" lon="6.69492">
        <ele>1657.33</ele>
        <time>2018-08-25T10:19:19Z</time>
      </trkpt>
      <trkpt lat="44.31995" lon="6.69518">
        <ele>1657.41</ele>
        <time>2018-08-25T10:19:21Z</time>
      </trkpt>
      <trkpt lat="44.32023" lon="6.69545">
        <ele>1657.42</ele>
        <time>2018-08-25T10:19:23Z</time>
      </trkpt>
      <trkpt lat="44.32046" lon="6.69574">
        <ele>1658.33</ele>
        <time>2018-08-25T10:19:25Z</time>
      </trkpt>
      <trkpt lat="44.32059" lon="6.69614">
        <ele>1659.11</ele>
        <time>2018-08-25T10:19:27Z</time>
      </trkpt>
      <trkpt lat="44.32068" lon="6.69655">
        <ele>1660.3</ele>
        <time>2018-08-25T10:19:29Z</time>
      </trkpt>
      <trkpt lat="44.3209" lon="6.69685">
        <ele>1660.2</ele>
        <time>2018-08-25T10:19:31Z</time>
      </trkpt>
      <trkpt lat="44.3211" lon="6.69716">
        <ele>1661.31</ele>
        <time>2018-08-25T10:19:33Z</time>
      </trkpt>
      <trkpt lat="44.32114" lon="6.69741">
        <ele>1662.09</ele>
        <time>2018-08-25T10:19:34Z</time>
      </trkpt>
      <trkpt lat="44.32118" lon="6.69766">
        <ele>1662.32</ele>
        <time>2018-08-25T10:19:35Z</time>
      </trkpt>
      <trkpt lat="44.32123" lon="6.69793">
        <ele>1663.09</ele>
        <time>2018-08-25T10:19:36Z</time>
      </trkpt>
      <trkpt lat="44.32127" lon="6.69821">
        <ele>1664.02</ele>
        <time>2018-08-25T10:19:37Z</time>
      </trkpt>
      <trkpt lat="44.32133" lon="6.6985">
        <ele>1664.3</ele>
        <time>2018-08-25T10:19:38Z</time>
      </trkpt>
      <trkpt lat="44.32139" lon="6.69879">
        <ele>1665.09</ele>
        <time>2018-08-25T10:19:39Z</time>
      </trkpt>
      <trkpt lat="44.32146" lon="6.69909">
        <ele>1665.32</ele>
        <time>2018-08-25T10:19:40Z</time>
      </trkpt>
      <trkpt lat="44.32153" lon="6.69938">
        <ele>1665.39</ele>
        <time>2018-08-25T10:19:41Z</time>
      </trkpt>
      <trkpt lat="44.32156" lon="6.69964">
        <ele>1666.81</ele>
        <time>2018-08-25T10:19:42Z</time>
      </trkpt>
      <trkpt lat="44.3216" lon="6.69991">
        <ele>1667.24</ele>
        <time>2018-08-25T10:19:43Z</time>
      </trkpt>
      <trkpt lat="44.32168" lon="6.70019">
        <ele>1669.47</ele>
        <time>2018-08-25T10:19:44Z</time>
      </trkpt>
      <trkpt lat="44.32174" lon="6.70046">
        <ele>1670.83</ele>
        <time>2018-08-25T10:19:45Z</time>
      </trkpt>
      <trkpt lat="44.3218" lon="6.70074">
        <ele>1671.95</ele>
        <time>2018-08-25T10:19:46Z</time>
      </trkpt>
      <trkpt lat="44.32186" lon="6.70102">
        <ele>1672.98</ele>
        <time>2018-08-25T10:19:47Z</time>
      </trkpt>
      <trkpt lat="44.32194" lon="6.70128">
        <ele>1673.29</ele>
        <time>2018-08-25T10:19:48Z</time>
      </trkpt>
      <trkpt lat="44.32199" lon="6.70156">
        <ele>1674.08</ele>
        <time>2018-08-25T10:19:49Z</time>
      </trkpt>
      <trkpt lat="44.32203" lon="6.70183">
        <ele>1675.72</ele>
        <time>2018-08-25T10:19:50Z</time>
      </trkpt>
      <trkpt lat="44.32206" lon="6.70211">
        <ele>1676.21</ele>
        <time>2018-08-25T10:19:51Z</time>
      </trkpt>
      <trkpt lat="44.32207" lon="6.70238">
        <ele>1677.06</ele>
        <time>2018-08-25T10:19:52Z</time>
      </trkpt>
      <trkpt lat="44.32208" lon="6.70264">
        <ele>1678.01</ele>
        <time>2018-08-25T10:19:53Z</time>
      </trkpt>
      <trkpt lat="44.32205" lon="6.70289">
        <ele>1679.7</ele>
        <time>2018-08-25T10:19:54Z</time>
      </trkpt>
      <trkpt lat="44.32201" lon="6.70314">
        <ele>1680.9</ele>
        <time>2018-08-25T10:19:55Z</time>
      </trkpt>
      <trkpt lat="44.32192" lon="6.70356">
        <ele>1681.37</ele>
        <time>2018-08-25T10:19:57Z</time>
      </trkpt>
      <trkpt lat="44.32181" lon="6.70385">
        <ele>1681.42</ele>
        <time>2018-08-25T10:19:59Z</time>
      </trkpt>
      <trkpt lat="44.32158" lon="6.70392">
        <ele>1683.73</ele>
        <time>2018-08-25T10:20:01Z</time>
      </trkpt>
      <trkpt lat="44.32144" lon="6.70419">
        <ele>1686.67</ele>
        <time>2018-08-25T10:20:03Z</time>
      </trkpt>
      <trkpt lat="44.32138" lon="6.70453">
        <ele>1687.35</ele>
        <time>2018-08-25T10:20:05Z</time>
      </trkpt>
      <trkpt lat="44.32136" lon="6.70491">
        <ele>1689.02</ele>
        <time>2018-08-25T10:20:07Z</time>
      </trkpt>
      <trkpt lat="44.3214" lon="6.70536">
        <ele>1692.61</ele>
        <time>2018-08-25T10:20:09Z</time>
      </trkpt>
      <trkpt lat="44.32139" lon="6.70562">
        <ele>1694.58</ele>
        <time>2018-08-25T10:20:10Z</time>
      </trkpt>
      <trkpt lat="44.32138" lon="6.70589">
        <ele>1695.87</ele>
        <time>2018-08-25T10:20:11Z</time>
      </trkpt>
      <trkpt lat="44.32137" lon="6.70616">
        <ele>1697.66</ele>
        <time>2018-08-25T10:20:12Z</time>
      </trkpt>
      <trkpt lat="44.32135" lon="6.70643">
        <ele>1700.29</ele>
        <time>2018-08-25T10:20:13Z</time>
      </trkpt>
      <trkpt lat="44.32134" lon="6.70668">
        <ele>1701.78</ele>
        <time>2018-08-25T10:20:14Z</time>
      </trkpt>
      <trkpt lat="44.32134" lon="6.70716">
        <ele>1705.37</ele>
        <time>2018-08-25T10:20:16Z</time>
      </trkpt>
      <trkpt lat="44.32137" lon="6.70758">
        <ele>1708.85</ele>
        <time>2018-08-25T10:20:18Z</time>
      </trkpt>
      <trkpt lat="44.32152" lon="6.70799">
        <ele>1710.98</ele>
        <time>2018-08-25T10:20:20Z</time>
      </trkpt>
      <trkpt lat="44.32163" lon="6.70844">
        <ele>1711.38</ele>
        <time>2018-08-25T10:20:22Z</time>
      </trkpt>
      <trkpt lat="44.32163" lon="6.7088">
        <ele>1713.94</ele>
        <time>2018-08-25T10:20:24Z</time>
      </trkpt>
      <trkpt lat="44.32177" lon="6.70905">
        <ele>1714.17</ele>
        <time>2018-08-25T10:20:26Z</time>
      </trkpt>
      <trkpt lat="44.32188" lon="6.70933">
        <ele>1715.32</ele>
        <time>2018-08-25T10:20:29Z</time>
      </trkpt>
      <trkpt lat="44.32181" lon="6.70961">
        <ele>1716.54</ele>
        <time>2018-08-25T10:20:32Z</time>
      </trkpt>
      <trkpt lat="44.32159" lon="6.70965">
        <ele>1716.46</ele>
        <time>2018-08-25T10:20:33Z</time>
      </trkpt>
      <trkpt lat="44.32137" lon="6.70984">
        <ele>1714.6</ele>
        <time>2018-08-25T10:20:35Z</time>
      </trkpt>
      <trkpt lat="44.32121" lon="6.71019">
        <ele>1715.84</ele>
        <time>2018-08-25T10:20:37Z</time>
      </trkpt>
      <trkpt lat="44.32117" lon="6.71063">
        <ele>1716.16</ele>
        <time>2018-08-25T10:20:39Z</time>
      </trkpt>
      <trkpt lat="44.32105" lon="6.71102">
        <ele>1718.01</ele>
        <time>2018-08-25T10:20:41Z</time>
      </trkpt>
      <trkpt lat="44.32098" lon="6.7114">
        <ele>1717.47</ele>
        <time>2018-08-25T10:20:43Z</time>
      </trkpt>
      <trkpt lat="44.32102" lon="6.71183">
        <ele>1718.34</ele>
        <time>2018-08-25T10:20:45Z</time>
      </trkpt>
      <trkpt lat="44.3209" lon="6.71222">
        <ele>1718.41</ele>
        <time>2018-08-25T10:20:47Z</time>
      </trkpt>
      <trkpt lat="44.32067" lon="6.71254">
        <ele>1718.63</ele>
        <time>2018-08-25T10:20:49Z</time>
      </trkpt>
      <trkpt lat="44.32049" lon="6.71294">
        <ele>1719.14</ele>
        <time>2018-08-25T10:20:51Z</time>
      </trkpt>
      <trkpt lat="44.32044" lon="6.71341">
        <ele>1720.31</ele>
        <time>2018-08-25T10:20:53Z</time>
      </trkpt>
      <trkpt lat="44.32035" lon="6.71387">
        <ele>1723.63</ele>
        <time>2018-08-25T10:20:55Z</time>
      </trkpt>
      <trkpt lat="44.32023" lon="6.71426">
        <ele>1725.26</ele>
        <time>2018-08-25T10:20:57Z</time>
      </trkpt>
      <trkpt lat="44.32012" lon="6.71457">
        <ele>1728.63</ele>
        <time>2018-08-25T10:20:59Z</time>
      </trkpt>
      <trkpt lat="44.32011" lon="6.71488">
        <ele>1730.26</ele>
        <time>2018-08-25T10:21:01Z</time>
      </trkpt>
      <trkpt lat="44.32026" lon="6.71513">
        <ele>1732.02</ele>
        <time>2018-08-25T10:21:03Z</time>
      </trkpt>
      <trkpt lat="44.32032" lon="6.7154">
        <ele>1732.59</ele>
        <time>2018-08-25T10:21:05Z</time>
      </trkpt>
      <trkpt lat="44.3202" lon="6.71564">
        <ele>1733.13</ele>
        <time>2018-08-25T10:21:08Z</time>
      </trkpt>
      <trkpt lat="44.31996" lon="6.71567">
        <ele>1735.7</ele>
        <time>2018-08-25T10:21:10Z</time>
      </trkpt>
      <trkpt lat="44.31979" lon="6.71588">
        <ele>1737.27</ele>
        <time>2018-08-25T10:21:12Z</time>
      </trkpt>
      <trkpt lat="44.3197" lon="6.71623">
        <ele>1739.02</ele>
        <time>2018-08-25T10:21:14Z</time>
      </trkpt>
      <trkpt lat="44.31956" lon="6.71656">
        <ele>1740.99</ele>
        <time>2018-08-25T10:21:16Z</time>
      </trkpt>
      <trkpt lat="44.31939" lon="6.71685">
        <ele>1742.08</ele>
        <time>2018-08-25T10:21:18Z</time>
      </trkpt>
      <trkpt lat="44.31928" lon="6.71719">
        <ele>1741.27</ele>
        <time>2018-08-25T10:21:20Z</time>
      </trkpt>
      <trkpt lat="44.31926" lon="6.7176">
        <ele>1743.02</ele>
        <time>2018-08-25T10:21:22Z</time>
      </trkpt>
      <trkpt lat="44.3193" lon="6.71803">
        <ele>1745.9</ele>
        <time>2018-08-25T10:21:24Z</time>
      </trkpt>
      <trkpt lat="44.31938" lon="6.7184">
        <ele>1747.28</ele>
        <time>2018-08-25T10:21:26Z</time>
      </trkpt>
      <trkpt lat="44.31942" lon="6.71866">
        <ele>1746.44</ele>
        <time>2018-08-25T10:21:32Z</time>
      </trkpt>
      <trkpt lat="44.31941" lon="6.71896">
        <ele>1747.39</ele>
        <time>2018-08-25T10:21:38Z</time>
      </trkpt>
      <trkpt lat="44.31933" lon="6.71931">
        <ele>1747.42</ele>
        <time>2018-08-25T10:21:41Z</time>
      </trkpt>
      <trkpt lat="44.31934" lon="6.71961">
        <ele>1748.33</ele>
        <time>2018-08-25T10:21:43Z</time>
      </trkpt>
      <trkpt lat="44.3194" lon="6.71998">
        <ele>1749.11</ele>
        <time>2018-08-25T10:21:45Z</time>
      </trkpt>
      <trkpt lat="44.31949" lon="6.72039">
        <ele>1748.48</ele>
        <time>2018-08-25T10:21:47Z</time>
      </trkpt>
      <trkpt lat="44.31958" lon="6.72087">
        <ele>1746.82</ele>
        <time>2018-08-25T10:21:49Z</time>
      </trkpt>
      <trkpt lat="44.31957" lon="6.72135">
        <ele>1745.76</ele>
        <time>2018-08-25T10:21:51Z</time>
      </trkpt>
      <trkpt lat="44.31953" lon="6.72184">
        <ele>1744.75</ele>
        <time>2018-08-25T10:21:53Z</time>
      </trkpt>
      <trkpt lat="44.31949" lon="6.72229">
        <ele>1743.75</ele>
        <time>2018-08-25T10:21:55Z</time>
      </trkpt>
      <trkpt lat="44.31945" lon="6.72269">
        <ele>1744.36</ele>
        <time>2018-08-25T10:21:57Z</time>
      </trkpt>
      <trkpt lat="44.31937" lon="6.72303">
        <ele>1743.51</ele>
        <time>2018-08-25T10:21:59Z</time>
      </trkpt>
      <trkpt lat="44.31918" lon="6.72325">
        <ele>1743.43</ele>
        <time>2018-08-25T10:22:01Z</time>
      </trkpt>
      <trkpt lat="44.3189" lon="6.72345">
        <ele>1742.51</ele>
        <time>2018-08-25T10:22:03Z</time>
      </trkpt>
      <trkpt lat="44.31877" lon="6.72385">
        <ele>1744.95</ele>
        <time>2018-08-25T10:22:05Z</time>
      </trkpt>
      <trkpt lat="44.31869" lon="6.72434">
        <ele>1745.38</ele>
        <time>2018-08-25T10:22:07Z</time>
      </trkpt>
      <trkpt lat="44.31864" lon="6.7246">
        <ele>1746.11</ele>
        <time>2018-08-25T10:22:08Z</time>
      </trkpt>
      <trkpt lat="44.31857" lon="6.72486">
        <ele>1747.03</ele>
        <time>2018-08-25T10:22:09Z</time>
      </trkpt>
      <trkpt lat="44.31848" lon="6.72511">
        <ele>1747.3</ele>
        <time>2018-08-25T10:22:10Z</time>
      </trkpt>
      <trkpt lat="44.31839" lon="6.72534">
        <ele>1748.09</ele>
        <time>2018-08-25T10:22:11Z</time>
      </trkpt>
      <trkpt lat="44.31831" lon="6.72559">
        <ele>1748.32</ele>
        <time>2018-08-25T10:22:12Z</time>
      </trkpt>
      <trkpt lat="44.31823" lon="6.72584">
        <ele>1748.39</ele>
        <time>2018-08-25T10:22:13Z</time>
      </trkpt>
      <trkpt lat="44.31816" lon="6.72608">
        <ele>1749.11</ele>
        <time>2018-08-25T10:22:14Z</time>
      </trkpt>
      <trkpt lat="44.31808" lon="6.72633">
        <ele>1750.03</ele>
        <time>2018-08-25T10:22:15Z</time>
      </trkpt>
      <trkpt lat="44.31802" lon="6.72658">
        <ele>1751</ele>
        <time>2018-08-25T10:22:16Z</time>
      </trkpt>
      <trkpt lat="44.31797" lon="6.72684">
        <ele>1752</ele>
        <time>2018-08-25T10:22:17Z</time>
      </trkpt>
      <trkpt lat="44.31793" lon="6.72709">
        <ele>1752.29</ele>
        <time>2018-08-25T10:22:18Z</time>
      </trkpt>
      <trkpt lat="44.31789" lon="6.72735">
        <ele>1753.08</ele>
        <time>2018-08-25T10:22:19Z</time>
      </trkpt>
      <trkpt lat="44.31785" lon="6.72761">
        <ele>1754.02</ele>
        <time>2018-08-25T10:22:20Z</time>
      </trkpt>
      <trkpt lat="44.31779" lon="6.72784">
        <ele>1755</ele>
        <time>2018-08-25T10:22:21Z</time>
      </trkpt>
      <trkpt lat="44.31762" lon="6.72825">
        <ele>1756.08</ele>
        <time>2018-08-25T10:22:23Z</time>
      </trkpt>
      <trkpt lat="44.31739" lon="6.72865">
        <ele>1756.18</ele>
        <time>2018-08-25T10:22:25Z</time>
      </trkpt>
      <trkpt lat="44.31728" lon="6.72887">
        <ele>1757.05</ele>
        <time>2018-08-25T10:22:26Z</time>
      </trkpt>
      <trkpt lat="44.31716" lon="6.72911">
        <ele>1757.31</ele>
        <time>2018-08-25T10:22:27Z</time>
      </trkpt>
      <trkpt lat="44.31702" lon="6.72934">
        <ele>1758.09</ele>
        <time>2018-08-25T10:22:28Z</time>
      </trkpt>
      <trkpt lat="44.31688" lon="6.72955">
        <ele>1758.32</ele>
        <time>2018-08-25T10:22:29Z</time>
      </trkpt>
      <trkpt lat="44.31672" lon="6.72976">
        <ele>1758.39</ele>
        <time>2018-08-25T10:22:30Z</time>
      </trkpt>
      <trkpt lat="44.31658" lon="6.72996">
        <ele>1758.41</ele>
        <time>2018-08-25T10:22:31Z</time>
      </trkpt>
      <trkpt lat="44.31643" lon="6.73016">
        <ele>1759.12</ele>
        <time>2018-08-25T10:22:32Z</time>
      </trkpt>
      <trkpt lat="44.31629" lon="6.73037">
        <ele>1759.33</ele>
        <time>2018-08-25T10:22:33Z</time>
      </trkpt>
      <trkpt lat="44.31615" lon="6.73058">
        <ele>1759.39</ele>
        <time>2018-08-25T10:22:34Z</time>
      </trkpt>
      <trkpt lat="44.31602" lon="6.73081">
        <ele>1760.11</ele>
        <time>2018-08-25T10:22:35Z</time>
      </trkpt>
      <trkpt lat="44.3159" lon="6.73103">
        <ele>1761.03</ele>
        <time>2018-08-25T10:22:36Z</time>
      </trkpt>
      <trkpt lat="44.31578" lon="6.73125">
        <ele>1761.3</ele>
        <time>2018-08-25T10:22:37Z</time>
      </trkpt>
      <trkpt lat="44.31565" lon="6.73147">
        <ele>1761.39</ele>
        <time>2018-08-25T10:22:38Z</time>
      </trkpt>
      <trkpt lat="44.31547" lon="6.73189">
        <ele>1761.42</ele>
        <time>2018-08-25T10:22:40Z</time>
      </trkpt>
      <trkpt lat="44.31538" lon="6.73212">
        <ele>1760.72</ele>
        <time>2018-08-25T10:22:41Z</time>
      </trkpt>
      <trkpt lat="44.31529" lon="6.73236">
        <ele>1761.21</ele>
        <time>2018-08-25T10:22:42Z</time>
      </trkpt>
      <trkpt lat="44.31519" lon="6.73259">
        <ele>1760.66</ele>
        <time>2018-08-25T10:22:43Z</time>
      </trkpt>
      <trkpt lat="44.31508" lon="6.73282">
        <ele>1760.49</ele>
        <time>2018-08-25T10:22:44Z</time>
      </trkpt>
      <trkpt lat="44.31495" lon="6.73303">
        <ele>1760.44</ele>
        <time>2018-08-25T10:22:45Z</time>
      </trkpt>
      <trkpt lat="44.31482" lon="6.73324">
        <ele>1760.43</ele>
        <time>2018-08-25T10:22:46Z</time>
      </trkpt>
      <trkpt lat="44.31468" lon="6.73342">
        <ele>1760.42</ele>
        <time>2018-08-25T10:22:47Z</time>
      </trkpt>
      <trkpt lat="44.31454" lon="6.7336">
        <ele>1760.42</ele>
        <time>2018-08-25T10:22:48Z</time>
      </trkpt>
      <trkpt lat="44.31429" lon="6.73394">
        <ele>1761.33</ele>
        <time>2018-08-25T10:22:50Z</time>
      </trkpt>
      <trkpt lat="44.31417" lon="6.73415">
        <ele>1762.09</ele>
        <time>2018-08-25T10:22:51Z</time>
      </trkpt>
      <trkpt lat="44.31407" lon="6.73436">
        <ele>1762.32</ele>
        <time>2018-08-25T10:22:52Z</time>
      </trkpt>
      <trkpt lat="44.31396" lon="6.73458">
        <ele>1762.39</ele>
        <time>2018-08-25T10:22:53Z</time>
      </trkpt>
      <trkpt lat="44.31386" lon="6.7348">
        <ele>1762.41</ele>
        <time>2018-08-25T10:22:54Z</time>
      </trkpt>
      <trkpt lat="44.31372" lon="6.73499">
        <ele>1762.42</ele>
        <time>2018-08-25T10:22:55Z</time>
      </trkpt>
      <trkpt lat="44.3136" lon="6.7352">
        <ele>1762.42</ele>
        <time>2018-08-25T10:22:56Z</time>
      </trkpt>
      <trkpt lat="44.3135" lon="6.73543">
        <ele>1761.72</ele>
        <time>2018-08-25T10:22:57Z</time>
      </trkpt>
      <trkpt lat="44.31339" lon="6.73565">
        <ele>1762.21</ele>
        <time>2018-08-25T10:22:58Z</time>
      </trkpt>
      <trkpt lat="44.31329" lon="6.73588">
        <ele>1762.36</ele>
        <time>2018-08-25T10:22:59Z</time>
      </trkpt>
      <trkpt lat="44.31319" lon="6.7361">
        <ele>1762.4</ele>
        <time>2018-08-25T10:23:00Z</time>
      </trkpt>
      <trkpt lat="44.3131" lon="6.73634">
        <ele>1761.72</ele>
        <time>2018-08-25T10:23:01Z</time>
      </trkpt>
      <trkpt lat="44.31299" lon="6.73656">
        <ele>1762.21</ele>
        <time>2018-08-25T10:23:02Z</time>
      </trkpt>
      <trkpt lat="44.3129" lon="6.73678">
        <ele>1762.36</ele>
        <time>2018-08-25T10:23:03Z</time>
      </trkpt>
      <trkpt lat="44.31279" lon="6.737">
        <ele>1763.1</ele>
        <time>2018-08-25T10:23:04Z</time>
      </trkpt>
      <trkpt lat="44.31269" lon="6.73721">
        <ele>1763.33</ele>
        <time>2018-08-25T10:23:05Z</time>
      </trkpt>
      <trkpt lat="44.31259" lon="6.73741">
        <ele>1764.09</ele>
        <time>2018-08-25T10:23:06Z</time>
      </trkpt>
      <trkpt lat="44.31239" lon="6.73782">
        <ele>1765.79</ele>
        <time>2018-08-25T10:23:08Z</time>
      </trkpt>
      <trkpt lat="44.31225" lon="6.73819">
        <ele>1767.27</ele>
        <time>2018-08-25T10:23:10Z</time>
      </trkpt>
      <trkpt lat="44.31215" lon="6.73852">
        <ele>1769.02</ele>
        <time>2018-08-25T10:23:12Z</time>
      </trkpt>
      <trkpt lat="44.31209" lon="6.73882">
        <ele>1769.38</ele>
        <time>2018-08-25T10:23:14Z</time>
      </trkpt>
      <trkpt lat="44.31205" lon="6.73908">
        <ele>1770.12</ele>
        <time>2018-08-25T10:23:16Z</time>
      </trkpt>
      <trkpt lat="44.31203" lon="6.73934">
        <ele>1773.21</ele>
        <time>2018-08-25T10:24:19Z</time>
      </trkpt>
      <trkpt lat="44.31192" lon="6.73961">
        <ele>1775.33</ele>
        <time>2018-08-25T10:24:24Z</time>
      </trkpt>
      <trkpt lat="44.31179" lon="6.73983">
        <ele>1772.82</ele>
        <time>2018-08-25T10:24:28Z</time>
      </trkpt>
      <trkpt lat="44.31173" lon="6.74011">
        <ele>1774.82</ele>
        <time>2018-08-25T10:24:32Z</time>
      </trkpt>
      <trkpt lat="44.31172" lon="6.74037">
        <ele>1774.49</ele>
        <time>2018-08-25T10:24:35Z</time>
      </trkpt>
      <trkpt lat="44.31169" lon="6.74063">
        <ele>1776.11</ele>
        <time>2018-08-25T10:24:39Z</time>
      </trkpt>
      <trkpt lat="44.31173" lon="6.7409">
        <ele>1776.13</ele>
        <time>2018-08-25T10:24:44Z</time>
      </trkpt>
      <trkpt lat="44.31181" lon="6.74117">
        <ele>1780.06</ele>
        <time>2018-08-25T10:24:48Z</time>
      </trkpt>
      <trkpt lat="44.31193" lon="6.74141">
        <ele>1781.82</ele>
        <time>2018-08-25T10:24:52Z</time>
      </trkpt>
      <trkpt lat="44.31202" lon="6.74167">
        <ele>1786.88</ele>
        <time>2018-08-25T10:24:56Z</time>
      </trkpt>
      <trkpt lat="44.31212" lon="6.74188">
        <ele>1817.72</ele>
        <time>2018-08-25T10:59:17Z</time>
      </trkpt>
      <trkpt lat="44.31231" lon="6.74188">
        <ele>1815.79</ele>
        <time>2018-08-25T10:59:28Z</time>
      </trkpt>
      <trkpt lat="44.31251" lon="6.74193">
        <ele>1812.45</ele>
        <time>2018-08-25T10:59:32Z</time>
      </trkpt>
      <trkpt lat="44.3127" lon="6.7421">
        <ele>1812.33</ele>
        <time>2018-08-25T10:59:37Z</time>
      </trkpt>
      <trkpt lat="44.31287" lon="6.74228">
        <ele>1812.06</ele>
        <time>2018-08-25T10:59:42Z</time>
      </trkpt>
      <trkpt lat="44.31288" lon="6.74257">
        <ele>1814.81</ele>
        <time>2018-08-25T10:59:47Z</time>
      </trkpt>
      <trkpt lat="44.31288" lon="6.74284">
        <ele>1817.08</ele>
        <time>2018-08-25T10:59:50Z</time>
      </trkpt>
      <trkpt lat="44.31288" lon="6.74312">
        <ele>1817.62</ele>
        <time>2018-08-25T10:59:53Z</time>
      </trkpt>
      <trkpt lat="44.31286" lon="6.7434">
        <ele>1817.64</ele>
        <time>2018-08-25T10:59:56Z</time>
      </trkpt>
      <trkpt lat="44.31281" lon="6.74364">
        <ele>1818.34</ele>
        <time>2018-08-25T10:59:59Z</time>
      </trkpt>
      <trkpt lat="44.31275" lon="6.74389">
        <ele>1819.33</ele>
        <time>2018-08-25T11:00:02Z</time>
      </trkpt>
      <trkpt lat="44.31269" lon="6.74414">
        <ele>1820.95</ele>
        <time>2018-08-25T11:00:06Z</time>
      </trkpt>
      <trkpt lat="44.31264" lon="6.74442">
        <ele>1824.12</ele>
        <time>2018-08-25T11:00:15Z</time>
      </trkpt>
      <trkpt lat="44.3126" lon="6.74472">
        <ele>1826.94</ele>
        <time>2018-08-25T11:00:19Z</time>
      </trkpt>
      <trkpt lat="44.3125" lon="6.74497">
        <ele>1830.02</ele>
        <time>2018-08-25T11:00:23Z</time>
      </trkpt>
      <trkpt lat="44.31241" lon="6.74522">
        <ele>1831.33</ele>
        <time>2018-08-25T11:00:27Z</time>
      </trkpt>
      <trkpt lat="44.31236" lon="6.74548">
        <ele>1832.41</ele>
        <time>2018-08-25T11:00:31Z</time>
      </trkpt>
      <trkpt lat="44.3125" lon="6.74564">
        <ele>1831.75</ele>
        <time>2018-08-25T11:00:38Z</time>
      </trkpt>
      <trkpt lat="44.31255" lon="6.74538">
        <ele>1828.91</ele>
        <time>2018-08-25T11:00:41Z</time>
      </trkpt>
      <trkpt lat="44.3127" lon="6.74517">
        <ele>1827.39</ele>
        <time>2018-08-25T11:00:45Z</time>
      </trkpt>
      <trkpt lat="44.31286" lon="6.74505">
        <ele>1829.32</ele>
        <time>2018-08-25T11:00:49Z</time>
      </trkpt>
      <trkpt lat="44.31304" lon="6.74495">
        <ele>1831.32</ele>
        <time>2018-08-25T11:00:53Z</time>
      </trkpt>
      <trkpt lat="44.31314" lon="6.7447">
        <ele>1833.03</ele>
        <time>2018-08-25T11:00:57Z</time>
      </trkpt>
      <trkpt lat="44.31323" lon="6.74446">
        <ele>1833.13</ele>
        <time>2018-08-25T11:01:02Z</time>
      </trkpt>
      <trkpt lat="44.31339" lon="6.7443">
        <ele>1833.44</ele>
        <time>2018-08-25T11:01:06Z</time>
      </trkpt>
      <trkpt lat="44.31355" lon="6.74417">
        <ele>1834.39</ele>
        <time>2018-08-25T11:01:09Z</time>
      </trkpt>
      <trkpt lat="44.31376" lon="6.74406">
        <ele>1835.41</ele>
        <time>2018-08-25T11:01:13Z</time>
      </trkpt>
      <trkpt lat="44.31395" lon="6.74391">
        <ele>1835.34</ele>
        <time>2018-08-25T11:01:17Z</time>
      </trkpt>
      <trkpt lat="44.31411" lon="6.7437">
        <ele>1836.6</ele>
        <time>2018-08-25T11:01:21Z</time>
      </trkpt>
      <trkpt lat="44.31427" lon="6.74346">
        <ele>1837.19</ele>
        <time>2018-08-25T11:01:25Z</time>
      </trkpt>
      <trkpt lat="44.3144" lon="6.74328">
        <ele>1837.41</ele>
        <time>2018-08-25T11:01:28Z</time>
      </trkpt>
      <trkpt lat="44.31449" lon="6.74303">
        <ele>1838.33</ele>
        <time>2018-08-25T11:01:33Z</time>
      </trkpt>
      <trkpt lat="44.31454" lon="6.74273">
        <ele>1838.42</ele>
        <time>2018-08-25T11:01:38Z</time>
      </trkpt>
      <trkpt lat="44.31468" lon="6.74296">
        <ele>1844.12</ele>
        <time>2018-08-25T11:01:49Z</time>
      </trkpt>
      <trkpt lat="44.31469" lon="6.74321">
        <ele>1844.42</ele>
        <time>2018-08-25T11:01:53Z</time>
      </trkpt>
      <trkpt lat="44.31462" lon="6.74348">
        <ele>1845.12</ele>
        <time>2018-08-25T11:01:58Z</time>
      </trkpt>
      <trkpt lat="44.31448" lon="6.74369">
        <ele>1847.11</ele>
        <time>2018-08-25T11:02:03Z</time>
      </trkpt>
      <trkpt lat="44.31435" lon="6.74399">
        <ele>1848.2</ele>
        <time>2018-08-25T11:02:07Z</time>
      </trkpt>
      <trkpt lat="44.31426" lon="6.74428">
        <ele>1850.94</ele>
        <time>2018-08-25T11:02:10Z</time>
      </trkpt>
      <trkpt lat="44.31419" lon="6.74458">
        <ele>1853.99</ele>
        <time>2018-08-25T11:02:13Z</time>
      </trkpt>
      <trkpt lat="44.31414" lon="6.74482">
        <ele>1856.29</ele>
        <time>2018-08-25T11:02:16Z</time>
      </trkpt>
      <trkpt lat="44.31409" lon="6.74513">
        <ele>1856.42</ele>
        <time>2018-08-25T11:02:20Z</time>
      </trkpt>
      <trkpt lat="44.31403" lon="6.74541">
        <ele>1856.42</ele>
        <time>2018-08-25T11:02:24Z</time>
      </trkpt>
      <trkpt lat="44.31398" lon="6.74566">
        <ele>1855.45</ele>
        <time>2018-08-25T11:02:28Z</time>
      </trkpt>
      <trkpt lat="44.31387" lon="6.74589">
        <ele>1855.64</ele>
        <time>2018-08-25T11:02:32Z</time>
      </trkpt>
      <trkpt lat="44.31375" lon="6.7461">
        <ele>1862.61</ele>
        <time>2018-08-25T11:02:36Z</time>
      </trkpt>
      <trkpt lat="44.31368" lon="6.74639">
        <ele>1869.55</ele>
        <time>2018-08-25T11:02:41Z</time>
      </trkpt>
      <trkpt lat="44.31367" lon="6.74667">
        <ele>1870.1</ele>
        <time>2018-08-25T11:02:45Z</time>
      </trkpt>
      <trkpt lat="44.31365" lon="6.74692">
        <ele>1873.33</ele>
        <time>2018-08-25T11:02:52Z</time>
      </trkpt>
      <trkpt lat="44.31363" lon="6.74718">
        <ele>1877.37</ele>
        <time>2018-08-25T11:02:58Z</time>
      </trkpt>
      <trkpt lat="44.31364" lon="6.74744">
        <ele>1878.39</ele>
        <time>2018-08-25T11:03:03Z</time>
      </trkpt>
      <trkpt lat="44.3137" lon="6.74771">
        <ele>1881.09</ele>
        <time>2018-08-25T11:03:09Z</time>
      </trkpt>
      <trkpt lat="44.31382" lon="6.7479">
        <ele>1882.32</ele>
        <time>2018-08-25T11:03:14Z</time>
      </trkpt>
      <trkpt lat="44.31392" lon="6.74814">
        <ele>1883.12</ele>
        <time>2018-08-25T11:03:19Z</time>
      </trkpt>
      <trkpt lat="44.31404" lon="6.74836">
        <ele>1885.09</ele>
        <time>2018-08-25T11:03:24Z</time>
      </trkpt>
      <trkpt lat="44.31415" lon="6.74862">
        <ele>1887.09</ele>
        <time>2018-08-25T11:03:30Z</time>
      </trkpt>
      <trkpt lat="44.31423" lon="6.74887">
        <ele>1888.12</ele>
        <time>2018-08-25T11:03:35Z</time>
      </trkpt>
      <trkpt lat="44.31427" lon="6.74915">
        <ele>1890.33</ele>
        <time>2018-08-25T11:03:40Z</time>
      </trkpt>
      <trkpt lat="44.31422" lon="6.74944">
        <ele>1890.42</ele>
        <time>2018-08-25T11:03:45Z</time>
      </trkpt>
      <trkpt lat="44.31422" lon="6.74971">
        <ele>1893</ele>
        <time>2018-08-25T11:03:50Z</time>
      </trkpt>
      <trkpt lat="44.31432" lon="6.74993">
        <ele>1898.97</ele>
        <time>2018-08-25T11:03:55Z</time>
      </trkpt>
      <trkpt lat="44.31445" lon="6.75013">
        <ele>1902.6</ele>
        <time>2018-08-25T11:04:00Z</time>
      </trkpt>
      <trkpt lat="44.31459" lon="6.75037">
        <ele>1906.31</ele>
        <time>2018-08-25T11:04:05Z</time>
      </trkpt>
      <trkpt lat="44.3147" lon="6.75063">
        <ele>1908.54</ele>
        <time>2018-08-25T11:04:09Z</time>
      </trkpt>
      <trkpt lat="44.3148" lon="6.75084">
        <ele>1909.55</ele>
        <time>2018-08-25T11:04:12Z</time>
      </trkpt>
      <trkpt lat="44.31494" lon="6.75106">
        <ele>1911.31</ele>
        <time>2018-08-25T11:04:15Z</time>
      </trkpt>
      <trkpt lat="44.31504" lon="6.75134">
        <ele>1913.58</ele>
        <time>2018-08-25T11:04:19Z</time>
      </trkpt>
      <trkpt lat="44.31512" lon="6.75159">
        <ele>1914.61</ele>
        <time>2018-08-25T11:04:23Z</time>
      </trkpt>
      <trkpt lat="44.3152" lon="6.75186">
        <ele>1914.23</ele>
        <time>2018-08-25T11:04:27Z</time>
      </trkpt>
      <trkpt lat="44.31532" lon="6.75207">
        <ele>1916.34</ele>
        <time>2018-08-25T11:04:32Z</time>
      </trkpt>
      <trkpt lat="44.31542" lon="6.75232">
        <ele>1918.35</ele>
        <time>2018-08-25T11:04:37Z</time>
      </trkpt>
      <trkpt lat="44.3155" lon="6.75208">
        <ele>1921.25</ele>
        <time>2018-08-25T11:04:47Z</time>
      </trkpt>
      <trkpt lat="44.3155" lon="6.75178">
        <ele>1921.46</ele>
        <time>2018-08-25T11:04:53Z</time>
      </trkpt>
      <trkpt lat="44.31548" lon="6.7515">
        <ele>1916.38</ele>
        <time>2018-08-25T11:05:06Z</time>
      </trkpt>
      <trkpt lat="44.31549" lon="6.75125">
        <ele>1917.42</ele>
        <time>2018-08-25T11:05:10Z</time>
      </trkpt>
      <trkpt lat="44.31549" lon="6.75099">
        <ele>1917.43</ele>
        <time>2018-08-25T11:05:14Z</time>
      </trkpt>
      <trkpt lat="44.31546" lon="6.75073">
        <ele>1918.55</ele>
        <time>2018-08-25T11:05:18Z</time>
      </trkpt>
      <trkpt lat="44.31563" lon="6.75091">
        <ele>1933.18</ele>
        <time>2018-08-25T11:05:30Z</time>
      </trkpt>
      <trkpt lat="44.31568" lon="6.75118">
        <ele>1934.75</ele>
        <time>2018-08-25T11:05:33Z</time>
      </trkpt>
      <trkpt lat="44.31577" lon="6.75142">
        <ele>1935.34</ele>
        <time>2018-08-25T11:05:36Z</time>
      </trkpt>
      <trkpt lat="44.31585" lon="6.75169">
        <ele>1939.19</ele>
        <time>2018-08-25T11:05:39Z</time>
      </trkpt>
      <trkpt lat="44.31589" lon="6.75195">
        <ele>1939.35</ele>
        <time>2018-08-25T11:05:42Z</time>
      </trkpt>
      <trkpt lat="44.31601" lon="6.75222">
        <ele>1940.05</ele>
        <time>2018-08-25T11:05:46Z</time>
      </trkpt>
      <trkpt lat="44.31611" lon="6.75249">
        <ele>1943.14</ele>
        <time>2018-08-25T11:05:50Z</time>
      </trkpt>
      <trkpt lat="44.31619" lon="6.7528">
        <ele>1948.19</ele>
        <time>2018-08-25T11:05:55Z</time>
      </trkpt>
      <trkpt lat="44.31627" lon="6.75303">
        <ele>1951.4</ele>
        <time>2018-08-25T11:06:01Z</time>
      </trkpt>
      <trkpt lat="44.31631" lon="6.75334">
        <ele>1952.61</ele>
        <time>2018-08-25T11:06:05Z</time>
      </trkpt>
      <trkpt lat="44.31633" lon="6.75366">
        <ele>1954.54</ele>
        <time>2018-08-25T11:06:09Z</time>
      </trkpt>
      <trkpt lat="44.31628" lon="6.75398">
        <ele>1954.64</ele>
        <time>2018-08-25T11:06:13Z</time>
      </trkpt>
      <trkpt lat="44.31624" lon="6.75428">
        <ele>1960.8</ele>
        <time>2018-08-25T11:06:18Z</time>
      </trkpt>
      <trkpt lat="44.31619" lon="6.75455">
        <ele>1964.24</ele>
        <time>2018-08-25T11:06:22Z</time>
      </trkpt>
      <trkpt lat="44.3162" lon="6.7548">
        <ele>1968.64</ele>
        <time>2018-08-25T11:07:15Z</time>
      </trkpt>
      <trkpt lat="44.31624" lon="6.75506">
        <ele>1971.52</ele>
        <time>2018-08-25T11:07:25Z</time>
      </trkpt>
      <trkpt lat="44.31632" lon="6.75531">
        <ele>1972.53</ele>
        <time>2018-08-25T11:07:29Z</time>
      </trkpt>
      <trkpt lat="44.31636" lon="6.75558">
        <ele>1974.31</ele>
        <time>2018-08-25T11:07:33Z</time>
      </trkpt>
      <trkpt lat="44.31644" lon="6.75584">
        <ele>1977.25</ele>
        <time>2018-08-25T11:07:38Z</time>
      </trkpt>
      <trkpt lat="44.31657" lon="6.75604">
        <ele>1979.33</ele>
        <time>2018-08-25T11:07:43Z</time>
      </trkpt>
      <trkpt lat="44.31669" lon="6.7563">
        <ele>1980.4</ele>
        <time>2018-08-25T11:07:47Z</time>
      </trkpt>
      <trkpt lat="44.31675" lon="6.75659">
        <ele>1982.54</ele>
        <time>2018-08-25T11:07:51Z</time>
      </trkpt>
      <trkpt lat="44.31673" lon="6.75688">
        <ele>1983.61</ele>
        <time>2018-08-25T11:07:55Z</time>
      </trkpt>
      <trkpt lat="44.3168" lon="6.75716">
        <ele>1984.55</ele>
        <time>2018-08-25T11:07:59Z</time>
      </trkpt>
      <trkpt lat="44.31689" lon="6.75741">
        <ele>1985.36</ele>
        <time>2018-08-25T11:08:03Z</time>
      </trkpt>
      <trkpt lat="44.31703" lon="6.75761">
        <ele>1987.33</ele>
        <time>2018-08-25T11:08:07Z</time>
      </trkpt>
      <trkpt lat="44.31705" lon="6.75787">
        <ele>1989.31</ele>
        <time>2018-08-25T11:08:11Z</time>
      </trkpt>
      <trkpt lat="44.31705" lon="6.75813">
        <ele>1990.61</ele>
        <time>2018-08-25T11:08:15Z</time>
      </trkpt>
      <trkpt lat="44.3171" lon="6.75845">
        <ele>1992.31</ele>
        <time>2018-08-25T11:08:19Z</time>
      </trkpt>
      <trkpt lat="44.31715" lon="6.75871">
        <ele>1994.3</ele>
        <time>2018-08-25T11:08:22Z</time>
      </trkpt>
      <trkpt lat="44.31723" lon="6.75895">
        <ele>1997.21</ele>
        <time>2018-08-25T11:08:25Z</time>
      </trkpt>
      <trkpt lat="44.3173" lon="6.75921">
        <ele>1999.51</ele>
        <time>2018-08-25T11:08:28Z</time>
      </trkpt>
      <trkpt lat="44.31737" lon="6.75948">
        <ele>2002.22</ele>
        <time>2018-08-25T11:08:31Z</time>
      </trkpt>
      <trkpt lat="44.31744" lon="6.75973">
        <ele>2003.54</ele>
        <time>2018-08-25T11:08:34Z</time>
      </trkpt>
      <trkpt lat="44.3175" lon="6.75998">
        <ele>2003.64</ele>
        <time>2018-08-25T11:08:37Z</time>
      </trkpt>
      <trkpt lat="44.31755" lon="6.76024">
        <ele>2006.22</ele>
        <time>2018-08-25T11:08:40Z</time>
      </trkpt>
      <trkpt lat="44.31757" lon="6.76055">
        <ele>2009.24</ele>
        <time>2018-08-25T11:08:44Z</time>
      </trkpt>
      <trkpt lat="44.31762" lon="6.76086">
        <ele>2011.52</ele>
        <time>2018-08-25T11:08:48Z</time>
      </trkpt>
      <trkpt lat="44.31769" lon="6.76112">
        <ele>2013.33</ele>
        <time>2018-08-25T11:08:52Z</time>
      </trkpt>
      <trkpt lat="44.3178" lon="6.76135">
        <ele>2014.61</ele>
        <time>2018-08-25T11:08:56Z</time>
      </trkpt>
      <trkpt lat="44.31795" lon="6.76156">
        <ele>2017.33</ele>
        <time>2018-08-25T11:09:01Z</time>
      </trkpt>
      <trkpt lat="44.31803" lon="6.7618">
        <ele>2018.55</ele>
        <time>2018-08-25T11:09:05Z</time>
      </trkpt>
      <trkpt lat="44.31816" lon="6.76201">
        <ele>2018.66</ele>
        <time>2018-08-25T11:09:09Z</time>
      </trkpt>
      <trkpt lat="44.31826" lon="6.76224">
        <ele>2019.61</ele>
        <time>2018-08-25T11:09:14Z</time>
      </trkpt>
      <trkpt lat="44.31831" lon="6.7625">
        <ele>2020.61</ele>
        <time>2018-08-25T11:09:19Z</time>
      </trkpt>
      <trkpt lat="44.31836" lon="6.76279">
        <ele>2021.53</ele>
        <time>2018-08-25T11:09:25Z</time>
      </trkpt>
      <trkpt lat="44.31841" lon="6.76305">
        <ele>2025.54</ele>
        <time>2018-08-25T11:09:31Z</time>
      </trkpt>
      <trkpt lat="44.3184" lon="6.76334">
        <ele>2026.64</ele>
        <time>2018-08-25T11:09:37Z</time>
      </trkpt>
      <trkpt lat="44.31843" lon="6.76361">
        <ele>2026.87</ele>
        <time>2018-08-25T11:09:43Z</time>
      </trkpt>
      <trkpt lat="44.31848" lon="6.76387">
        <ele>2028.7</ele>
        <time>2018-08-25T11:09:50Z</time>
      </trkpt>
      <trkpt lat="44.31854" lon="6.76415">
        <ele>2030.52</ele>
        <time>2018-08-25T11:09:54Z</time>
      </trkpt>
      <trkpt lat="44.31858" lon="6.76444">
        <ele>2032.34</ele>
        <time>2018-08-25T11:09:59Z</time>
      </trkpt>
      <trkpt lat="44.31861" lon="6.76473">
        <ele>2035.86</ele>
        <time>2018-08-25T11:10:04Z</time>
      </trkpt>
      <trkpt lat="44.31872" lon="6.76498">
        <ele>2037.63</ele>
        <time>2018-08-25T11:10:09Z</time>
      </trkpt>
      <trkpt lat="44.31877" lon="6.76527">
        <ele>2038.36</ele>
        <time>2018-08-25T11:10:14Z</time>
      </trkpt>
      <trkpt lat="44.31884" lon="6.76553">
        <ele>2038.85</ele>
        <time>2018-08-25T11:10:18Z</time>
      </trkpt>
      <trkpt lat="44.3189" lon="6.76583">
        <ele>2039.85</ele>
        <time>2018-08-25T11:10:23Z</time>
      </trkpt>
      <trkpt lat="44.31893" lon="6.76612">
        <ele>2041.32</ele>
        <time>2018-08-25T11:10:28Z</time>
      </trkpt>
      <trkpt lat="44.31892" lon="6.76648">
        <ele>2042.55</ele>
        <time>2018-08-25T11:10:32Z</time>
      </trkpt>
      <trkpt lat="44.31896" lon="6.76682">
        <ele>2042.85</ele>
        <time>2018-08-25T11:10:35Z</time>
      </trkpt>
      <trkpt lat="44.31897" lon="6.7671">
        <ele>2041.95</ele>
        <time>2018-08-25T11:10:38Z</time>
      </trkpt>
      <trkpt lat="44.31903" lon="6.7674">
        <ele>2044.86</ele>
        <time>2018-08-25T11:10:42Z</time>
      </trkpt>
      <trkpt lat="44.31906" lon="6.76764">
        <ele>2047.52</ele>
        <time>2018-08-25T11:10:48Z</time>
      </trkpt>
      <trkpt lat="44.31892" lon="6.76787">
        <ele>2047.64</ele>
        <time>2018-08-25T11:10:53Z</time>
      </trkpt>
      <trkpt lat="44.31882" lon="6.76807">
        <ele>2048.61</ele>
        <time>2018-08-25T11:10:56Z</time>
      </trkpt>
      <trkpt lat="44.31871" lon="6.76828">
        <ele>2051.22</ele>
        <time>2018-08-25T11:11:00Z</time>
      </trkpt>
      <trkpt lat="44.31866" lon="6.76855">
        <ele>2053.52</ele>
        <time>2018-08-25T11:11:04Z</time>
      </trkpt>
      <trkpt lat="44.31869" lon="6.76884">
        <ele>2058.12</ele>
        <time>2018-08-25T11:11:08Z</time>
      </trkpt>
      <trkpt lat="44.31875" lon="6.7691">
        <ele>2061.27</ele>
        <time>2018-08-25T11:11:11Z</time>
      </trkpt>
      <trkpt lat="44.31872" lon="6.76936">
        <ele>2062.55</ele>
        <time>2018-08-25T11:11:15Z</time>
      </trkpt>
      <trkpt lat="44.31857" lon="6.76953">
        <ele>2064.37</ele>
        <time>2018-08-25T11:12:36Z</time>
      </trkpt>
      <trkpt lat="44.31846" lon="6.76974">
        <ele>2067.37</ele>
        <time>2018-08-25T11:12:41Z</time>
      </trkpt>
      <trkpt lat="44.31835" lon="6.76998">
        <ele>2069.31</ele>
        <time>2018-08-25T11:12:45Z</time>
      </trkpt>
      <trkpt lat="44.31819" lon="6.77023">
        <ele>2070.61</ele>
        <time>2018-08-25T11:12:49Z</time>
      </trkpt>
      <trkpt lat="44.318" lon="6.77041">
        <ele>2074.51</ele>
        <time>2018-08-25T11:12:53Z</time>
      </trkpt>
      <trkpt lat="44.31789" lon="6.77065">
        <ele>2075.55</ele>
        <time>2018-08-25T11:12:56Z</time>
      </trkpt>
      <trkpt lat="44.31782" lon="6.77088">
        <ele>2074.73</ele>
        <time>2018-08-25T11:12:59Z</time>
      </trkpt>
      <trkpt lat="44.31767" lon="6.77108">
        <ele>2076.54</ele>
        <time>2018-08-25T11:13:03Z</time>
      </trkpt>
      <trkpt lat="44.31747" lon="6.77116">
        <ele>2079.5</ele>
        <time>2018-08-25T11:13:07Z</time>
      </trkpt>
      <trkpt lat="44.31732" lon="6.77136">
        <ele>2079.93</ele>
        <time>2018-08-25T11:13:11Z</time>
      </trkpt>
      <trkpt lat="44.31749" lon="6.7715">
        <ele>2079.94</ele>
        <time>2018-08-25T11:13:19Z</time>
      </trkpt>
      <trkpt lat="44.31769" lon="6.77148">
        <ele>2077.97</ele>
        <time>2018-08-25T11:13:23Z</time>
      </trkpt>
      <trkpt lat="44.31788" lon="6.77152">
        <ele>2078.34</ele>
        <time>2018-08-25T11:13:27Z</time>
      </trkpt>
      <trkpt lat="44.31806" lon="6.77158">
        <ele>2079.27</ele>
        <time>2018-08-25T11:13:30Z</time>
      </trkpt>
      <trkpt lat="44.31826" lon="6.77152">
        <ele>2080.63</ele>
        <time>2018-08-25T11:13:34Z</time>
      </trkpt>
      <trkpt lat="44.31846" lon="6.77144">
        <ele>2081.82</ele>
        <time>2018-08-25T11:13:38Z</time>
      </trkpt>
      <trkpt lat="44.31868" lon="6.77144">
        <ele>2081.85</ele>
        <time>2018-08-25T11:13:42Z</time>
      </trkpt>
      <trkpt lat="44.31886" lon="6.77138">
        <ele>2082.82</ele>
        <time>2018-08-25T11:13:46Z</time>
      </trkpt>
      <trkpt lat="44.31878" lon="6.77161">
        <ele>2084</ele>
        <time>2018-08-25T11:14:52Z</time>
      </trkpt>
      <trkpt lat="44.31861" lon="6.77178">
        <ele>2086.44</ele>
        <time>2018-08-25T11:14:55Z</time>
      </trkpt>
      <trkpt lat="44.31848" lon="6.77198">
        <ele>2087.54</ele>
        <time>2018-08-25T11:14:58Z</time>
      </trkpt>
      <trkpt lat="44.31835" lon="6.77217">
        <ele>2092.4</ele>
        <time>2018-08-25T11:15:02Z</time>
      </trkpt>
      <trkpt lat="44.31825" lon="6.77243">
        <ele>2093.42</ele>
        <time>2018-08-25T11:15:06Z</time>
      </trkpt>
      <trkpt lat="44.31811" lon="6.77266">
        <ele>2095.46</ele>
        <time>2018-08-25T11:15:10Z</time>
      </trkpt>
      <trkpt lat="44.318" lon="6.77291">
        <ele>2098.81</ele>
        <time>2018-08-25T11:15:14Z</time>
      </trkpt>
      <trkpt lat="44.31788" lon="6.77316">
        <ele>2101.22</ele>
        <time>2018-08-25T11:15:18Z</time>
      </trkpt>
      <trkpt lat="44.31777" lon="6.77342">
        <ele>2100.66</ele>
        <time>2018-08-25T11:15:21Z</time>
      </trkpt>
      <trkpt lat="44.31762" lon="6.77366">
        <ele>2102.25</ele>
        <time>2018-08-25T11:15:24Z</time>
      </trkpt>
      <trkpt lat="44.3175" lon="6.77398">
        <ele>2102.69</ele>
        <time>2018-08-25T11:15:27Z</time>
      </trkpt>
      <trkpt lat="44.31741" lon="6.77425">
        <ele>2105.86</ele>
        <time>2018-08-25T11:15:30Z</time>
      </trkpt>
      <trkpt lat="44.31731" lon="6.77446">
        <ele>2104.95</ele>
        <time>2018-08-25T11:15:33Z</time>
      </trkpt>
      <trkpt lat="44.31715" lon="6.77459">
        <ele>2107.93</ele>
        <time>2018-08-25T11:15:37Z</time>
      </trkpt>
      <trkpt lat="44.31709" lon="6.77484">
        <ele>2110.55</ele>
        <time>2018-08-25T11:15:42Z</time>
      </trkpt>
      <trkpt lat="44.31708" lon="6.77514">
        <ele>2111.53</ele>
        <time>2018-08-25T11:15:46Z</time>
      </trkpt>
      <trkpt lat="44.31702" lon="6.7754">
        <ele>2112.61</ele>
        <time>2018-08-25T11:15:49Z</time>
      </trkpt>
      <trkpt lat="44.31695" lon="6.77565">
        <ele>2113.55</ele>
        <time>2018-08-25T11:15:52Z</time>
      </trkpt>
      <trkpt lat="44.31685" lon="6.7759">
        <ele>2115.31</ele>
        <time>2018-08-25T11:15:56Z</time>
      </trkpt>
      <trkpt lat="44.31674" lon="6.77614">
        <ele>2111.92</ele>
        <time>2018-08-25T11:16:00Z</time>
      </trkpt>
      <trkpt lat="44.31665" lon="6.77641">
        <ele>2115.43</ele>
        <time>2018-08-25T11:16:04Z</time>
      </trkpt>
      <trkpt lat="44.31665" lon="6.7767">
        <ele>2117.33</ele>
        <time>2018-08-25T11:16:10Z</time>
      </trkpt>
      <trkpt lat="44.31653" lon="6.77701">
        <ele>2119.25</ele>
        <time>2018-08-25T11:16:14Z</time>
      </trkpt>
      <trkpt lat="44.31649" lon="6.77735">
        <ele>2122.21</ele>
        <time>2018-08-25T11:16:17Z</time>
      </trkpt>
      <trkpt lat="44.31643" lon="6.7776">
        <ele>2122.6</ele>
        <time>2018-08-25T11:16:19Z</time>
      </trkpt>
      <trkpt lat="44.31635" lon="6.77783">
        <ele>2124.25</ele>
        <time>2018-08-25T11:16:21Z</time>
      </trkpt>
      <trkpt lat="44.31623" lon="6.77803">
        <ele>2125.39</ele>
        <time>2018-08-25T11:16:24Z</time>
      </trkpt>
      <trkpt lat="44.31621" lon="6.77829">
        <ele>2125.63</ele>
        <time>2018-08-25T11:16:27Z</time>
      </trkpt>
      <trkpt lat="44.31623" lon="6.77864">
        <ele>2128.22</ele>
        <time>2018-08-25T11:16:30Z</time>
      </trkpt>
      <trkpt lat="44.3162" lon="6.77896">
        <ele>2128.63</ele>
        <time>2018-08-25T11:16:33Z</time>
      </trkpt>
      <trkpt lat="44.31615" lon="6.77926">
        <ele>2127.73</ele>
        <time>2018-08-25T11:16:36Z</time>
      </trkpt>
      <trkpt lat="44.31614" lon="6.77956">
        <ele>2127.92</ele>
        <time>2018-08-25T11:16:39Z</time>
      </trkpt>
      <trkpt lat="44.31616" lon="6.77985">
        <ele>2128.62</ele>
        <time>2018-08-25T11:16:42Z</time>
      </trkpt>
      <trkpt lat="44.31611" lon="6.78009">
        <ele>2128.64</ele>
        <time>2018-08-25T11:16:46Z</time>
      </trkpt>
      <trkpt lat="44.316" lon="6.78031">
        <ele>2131.24</ele>
        <time>2018-08-25T11:16:51Z</time>
      </trkpt>
      <trkpt lat="44.31591" lon="6.78059">
        <ele>2132.34</ele>
        <time>2018-08-25T11:16:56Z</time>
      </trkpt>
      <trkpt lat="44.31591" lon="6.78087">
        <ele>2137.21</ele>
        <time>2018-08-25T11:17:02Z</time>
      </trkpt>
      <trkpt lat="44.31596" lon="6.78113">
        <ele>2139.55</ele>
        <time>2018-08-25T11:17:07Z</time>
      </trkpt>
      <trkpt lat="44.31596" lon="6.78142">
        <ele>2141.33</ele>
        <time>2018-08-25T11:17:12Z</time>
      </trkpt>
      <trkpt lat="44.31589" lon="6.78168">
        <ele>2141.63</ele>
        <time>2018-08-25T11:17:17Z</time>
      </trkpt>
      <trkpt lat="44.31581" lon="6.78193">
        <ele>2141.64</ele>
        <time>2018-08-25T11:17:21Z</time>
      </trkpt>
      <trkpt lat="44.31573" lon="6.78218">
        <ele>2142.55</ele>
        <time>2018-08-25T11:17:25Z</time>
      </trkpt>
      <trkpt lat="44.31565" lon="6.78241">
        <ele>2143.55</ele>
        <time>2018-08-25T11:17:29Z</time>
      </trkpt>
      <trkpt lat="44.31553" lon="6.78263">
        <ele>2146.09</ele>
        <time>2018-08-25T11:17:33Z</time>
      </trkpt>
      <trkpt lat="44.31543" lon="6.78284">
        <ele>2146.64</ele>
        <time>2018-08-25T11:17:37Z</time>
      </trkpt>
      <trkpt lat="44.31529" lon="6.78306">
        <ele>2149.03</ele>
        <time>2018-08-25T11:17:41Z</time>
      </trkpt>
      <trkpt lat="44.31519" lon="6.78328">
        <ele>2150.53</ele>
        <time>2018-08-25T11:17:45Z</time>
      </trkpt>
      <trkpt lat="44.31515" lon="6.78358">
        <ele>2151.64</ele>
        <time>2018-08-25T11:17:50Z</time>
      </trkpt>
      <trkpt lat="44.31507" lon="6.78381">
        <ele>2153.33</ele>
        <time>2018-08-25T11:17:54Z</time>
      </trkpt>
      <trkpt lat="44.31489" lon="6.78399">
        <ele>2156.5</ele>
        <time>2018-08-25T11:17:59Z</time>
      </trkpt>
      <trkpt lat="44.31475" lon="6.7842">
        <ele>2159.54</ele>
        <time>2018-08-25T11:18:05Z</time>
      </trkpt>
      <trkpt lat="44.31469" lon="6.78446">
        <ele>2160.61</ele>
        <time>2018-08-25T11:18:11Z</time>
      </trkpt>
      <trkpt lat="44.31468" lon="6.78474">
        <ele>2158.94</ele>
        <time>2018-08-25T11:18:16Z</time>
      </trkpt>
      <trkpt lat="44.31461" lon="6.78498">
        <ele>2158.85</ele>
        <time>2018-08-25T11:18:21Z</time>
      </trkpt>
      <trkpt lat="44.31455" lon="6.78525">
        <ele>2159.63</ele>
        <time>2018-08-25T11:18:26Z</time>
      </trkpt>
      <trkpt lat="44.31446" lon="6.78549">
        <ele>2161.54</ele>
        <time>2018-08-25T11:18:31Z</time>
      </trkpt>
      <trkpt lat="44.31438" lon="6.78577">
        <ele>2162.33</ele>
        <time>2018-08-25T11:18:36Z</time>
      </trkpt>
      <trkpt lat="44.31434" lon="6.78603">
        <ele>2164.33</ele>
        <time>2018-08-25T11:18:41Z</time>
      </trkpt>
      <trkpt lat="44.31431" lon="6.78633">
        <ele>2165.63</ele>
        <time>2018-08-25T11:18:46Z</time>
      </trkpt>
      <trkpt lat="44.31427" lon="6.7866">
        <ele>2168.63</ele>
        <time>2018-08-25T11:18:52Z</time>
      </trkpt>
      <trkpt lat="44.3141" lon="6.7865">
        <ele>2174.64</ele>
        <time>2018-08-25T11:27:02Z</time>
      </trkpt>
      <trkpt lat="44.31415" lon="6.78622">
        <ele>2174.37</ele>
        <time>2018-08-25T11:27:07Z</time>
      </trkpt>
      <trkpt lat="44.31411" lon="6.78589">
        <ele>2175.61</ele>
        <time>2018-08-25T11:27:11Z</time>
      </trkpt>
      <trkpt lat="44.31414" lon="6.78564">
        <ele>2178.22</ele>
        <time>2018-08-25T11:27:14Z</time>
      </trkpt>
      <trkpt lat="44.31407" lon="6.78533">
        <ele>2180.54</ele>
        <time>2018-08-25T11:27:18Z</time>
      </trkpt>
      <trkpt lat="44.31394" lon="6.78511">
        <ele>2181.55</ele>
        <time>2018-08-25T11:27:21Z</time>
      </trkpt>
      <trkpt lat="44.31377" lon="6.78496">
        <ele>2183.52</ele>
        <time>2018-08-25T11:27:24Z</time>
      </trkpt>
      <trkpt lat="44.31359" lon="6.78485">
        <ele>2186.22</ele>
        <time>2018-08-25T11:27:30Z</time>
      </trkpt>
      <trkpt lat="44.3134" lon="6.78482">
        <ele>2188.34</ele>
        <time>2018-08-25T11:27:35Z</time>
      </trkpt>
      <trkpt lat="44.3135" lon="6.78505">
        <ele>2188.61</ele>
        <time>2018-08-25T11:27:49Z</time>
      </trkpt>
      <trkpt lat="44.31357" lon="6.78531">
        <ele>2191.27</ele>
        <time>2018-08-25T11:30:28Z</time>
      </trkpt>
      <trkpt lat="44.31365" lon="6.78554">
        <ele>2194.51</ele>
        <time>2018-08-25T11:30:32Z</time>
      </trkpt>
      <trkpt lat="44.31368" lon="6.78583">
        <ele>2195.63</ele>
        <time>2018-08-25T11:30:36Z</time>
      </trkpt>
      <trkpt lat="44.31373" lon="6.78612">
        <ele>2197.25</ele>
        <time>2018-08-25T11:30:40Z</time>
      </trkpt>
      <trkpt lat="44.3137" lon="6.78639">
        <ele>2199.31</ele>
        <time>2018-08-25T11:30:44Z</time>
      </trkpt>
      <trkpt lat="44.31363" lon="6.78666">
        <ele>2201.25</ele>
        <time>2018-08-25T11:30:54Z</time>
      </trkpt>
      <trkpt lat="44.31356" lon="6.78693">
        <ele>2207.18</ele>
        <time>2018-08-25T11:30:59Z</time>
      </trkpt>
      <trkpt lat="44.3135" lon="6.78723">
        <ele>2210.3</ele>
        <time>2018-08-25T11:31:04Z</time>
      </trkpt>
      <trkpt lat="44.31345" lon="6.78751">
        <ele>2215.34</ele>
        <time>2018-08-25T11:37:10Z</time>
      </trkpt>
      <trkpt lat="44.31341" lon="6.78776">
        <ele>2217.52</ele>
        <time>2018-08-25T11:37:15Z</time>
      </trkpt>
      <trkpt lat="44.31344" lon="6.78804">
        <ele>2218.71</ele>
        <time>2018-08-25T11:37:20Z</time>
      </trkpt>
      <trkpt lat="44.31347" lon="6.78833">
        <ele>2217.64</ele>
        <time>2018-08-25T11:37:25Z</time>
      </trkpt>
      <trkpt lat="44.31353" lon="6.78859">
        <ele>2217.64</ele>
        <time>2018-08-25T11:37:31Z</time>
      </trkpt>
      <trkpt lat="44.31366" lon="6.78881">
        <ele>2220.6</ele>
        <time>2018-08-25T11:37:37Z</time>
      </trkpt>
      <trkpt lat="44.31381" lon="6.78898">
        <ele>2222.54</ele>
        <time>2018-08-25T11:37:42Z</time>
      </trkpt>
      <trkpt lat="44.31392" lon="6.78922">
        <ele>2222.66</ele>
        <time>2018-08-25T11:37:48Z</time>
      </trkpt>
      <trkpt lat="44.31409" lon="6.78941">
        <ele>2224.25</ele>
        <time>2018-08-25T11:37:54Z</time>
      </trkpt>
      <trkpt lat="44.31421" lon="6.78964">
        <ele>2227.31</ele>
        <time>2018-08-25T11:37:59Z</time>
      </trkpt>
      <trkpt lat="44.31439" lon="6.78978">
        <ele>2229.47</ele>
        <time>2018-08-25T11:38:05Z</time>
      </trkpt>
      <trkpt lat="44.31456" lon="6.78987">
        <ele>2231.31</ele>
        <time>2018-08-25T11:38:10Z</time>
      </trkpt>
      <trkpt lat="44.31472" lon="6.79">
        <ele>2233.37</ele>
        <time>2018-08-25T11:38:14Z</time>
      </trkpt>
      <trkpt lat="44.31488" lon="6.79012">
        <ele>2236.5</ele>
        <time>2018-08-25T11:38:19Z</time>
      </trkpt>
      <trkpt lat="44.31506" lon="6.7902">
        <ele>2235.94</ele>
        <time>2018-08-25T11:38:24Z</time>
      </trkpt>
      <trkpt lat="44.31525" lon="6.7902">
        <ele>2237.82</ele>
        <time>2018-08-25T11:38:29Z</time>
      </trkpt>
      <trkpt lat="44.31543" lon="6.79013">
        <ele>2222.58</ele>
        <time>2018-08-25T11:41:09Z</time>
      </trkpt>
      <trkpt lat="44.3156" lon="6.78998">
        <ele>2241.23</ele>
        <time>2018-08-25T12:09:27Z</time>
      </trkpt>
      <trkpt lat="44.31577" lon="6.7898">
        <ele>2245.48</ele>
        <time>2018-08-25T12:09:31Z</time>
      </trkpt>
      <trkpt lat="44.31595" lon="6.78963">
        <ele>2246.05</ele>
        <time>2018-08-25T12:09:35Z</time>
      </trkpt>
      <trkpt lat="44.31607" lon="6.78944">
        <ele>2246.64</ele>
        <time>2018-08-25T12:09:39Z</time>
      </trkpt>
      <trkpt lat="44.3162" lon="6.78922">
        <ele>2248.33</ele>
        <time>2018-08-25T12:09:43Z</time>
      </trkpt>
      <trkpt lat="44.31633" lon="6.78902">
        <ele>2251.37</ele>
        <time>2018-08-25T12:09:47Z</time>
      </trkpt>
      <trkpt lat="44.31645" lon="6.78881">
        <ele>2252.61</ele>
        <time>2018-08-25T12:09:51Z</time>
      </trkpt>
      <trkpt lat="44.31661" lon="6.78862">
        <ele>2253.56</ele>
        <time>2018-08-25T12:09:56Z</time>
      </trkpt>
      <trkpt lat="44.3168" lon="6.78841">
        <ele>2254.61</ele>
        <time>2018-08-25T12:10:39Z</time>
      </trkpt>
      <trkpt lat="44.31698" lon="6.78828">
        <ele>2255.26</ele>
        <time>2018-08-25T12:10:43Z</time>
      </trkpt>
      <trkpt lat="44.31718" lon="6.78823">
        <ele>2257.36</ele>
        <time>2018-08-25T12:10:48Z</time>
      </trkpt>
      <trkpt lat="44.31724" lon="6.78854">
        <ele>2261.91</ele>
        <time>2018-08-25T12:10:53Z</time>
      </trkpt>
      <trkpt lat="44.31731" lon="6.78879">
        <ele>2262.56</ele>
        <time>2018-08-25T12:10:56Z</time>
      </trkpt>
      <trkpt lat="44.31748" lon="6.78898">
        <ele>2264.04</ele>
        <time>2018-08-25T12:10:59Z</time>
      </trkpt>
      <trkpt lat="44.31761" lon="6.78923">
        <ele>2265.63</ele>
        <time>2018-08-25T12:11:03Z</time>
      </trkpt>
      <trkpt lat="44.31773" lon="6.78942">
        <ele>2265.64</ele>
        <time>2018-08-25T12:11:06Z</time>
      </trkpt>
      <trkpt lat="44.31789" lon="6.78961">
        <ele>2270.91</ele>
        <time>2018-08-25T12:11:11Z</time>
      </trkpt>
      <trkpt lat="44.3177" lon="6.78953">
        <ele>2271.64</ele>
        <time>2018-08-25T12:18:17Z</time>
      </trkpt>
      <trkpt lat="44.31749" lon="6.78944">
        <ele>2271.73</ele>
        <time>2018-08-25T12:18:22Z</time>
      </trkpt>
      <trkpt lat="44.31731" lon="6.78947">
        <ele>2273.27</ele>
        <time>2018-08-25T12:18:26Z</time>
      </trkpt>
      <trkpt lat="44.31714" lon="6.78957">
        <ele>2275.81</ele>
        <time>2018-08-25T12:18:30Z</time>
      </trkpt>
      <trkpt lat="44.31697" lon="6.78967">
        <ele>2276.13</ele>
        <time>2018-08-25T12:18:33Z</time>
      </trkpt>
      <trkpt lat="44.31678" lon="6.78983">
        <ele>2277.61</ele>
        <time>2018-08-25T12:18:38Z</time>
      </trkpt>
      <trkpt lat="44.31664" lon="6.79006">
        <ele>2280.6</ele>
        <time>2018-08-25T12:18:44Z</time>
      </trkpt>
      <trkpt lat="44.31654" lon="6.79033">
        <ele>2283.31</ele>
        <time>2018-08-25T12:18:49Z</time>
      </trkpt>
      <trkpt lat="44.31645" lon="6.7906">
        <ele>2286.3</ele>
        <time>2018-08-25T12:18:56Z</time>
      </trkpt>
      <trkpt lat="44.31635" lon="6.79085">
        <ele>2289.62</ele>
        <time>2018-08-25T12:19:02Z</time>
      </trkpt>
      <trkpt lat="44.31627" lon="6.79109">
        <ele>2288.44</ele>
        <time>2018-08-25T12:19:07Z</time>
      </trkpt>
      <trkpt lat="44.31614" lon="6.79128">
        <ele>2288.34</ele>
        <time>2018-08-25T12:19:12Z</time>
      </trkpt>
      <trkpt lat="44.31597" lon="6.7914">
        <ele>2291.24</ele>
        <time>2018-08-25T12:19:17Z</time>
      </trkpt>
      <trkpt lat="44.31578" lon="6.79155">
        <ele>2291.37</ele>
        <time>2018-08-25T12:19:23Z</time>
      </trkpt>
      <trkpt lat="44.31561" lon="6.79176">
        <ele>2292.34</ele>
        <time>2018-08-25T12:19:28Z</time>
      </trkpt>
      <trkpt lat="44.31546" lon="6.79195">
        <ele>2295.51</ele>
        <time>2018-08-25T12:19:34Z</time>
      </trkpt>
      <trkpt lat="44.31534" lon="6.79219">
        <ele>2295.65</ele>
        <time>2018-08-25T12:19:39Z</time>
      </trkpt>
      <trkpt lat="44.31522" lon="6.7924">
        <ele>2298.29</ele>
        <time>2018-08-25T12:19:44Z</time>
      </trkpt>
      <trkpt lat="44.31514" lon="6.79263">
        <ele>2307.21</ele>
        <time>2018-08-25T12:19:51Z</time>
      </trkpt>
      <trkpt lat="44.3153" lon="6.79283">
        <ele>2309.57</ele>
        <time>2018-08-25T12:19:56Z</time>
      </trkpt>
      <trkpt lat="44.31547" lon="6.79298">
        <ele>2312.3</ele>
        <time>2018-08-25T12:20:01Z</time>
      </trkpt>
      <trkpt lat="44.31561" lon="6.79316">
        <ele>2313.85</ele>
        <time>2018-08-25T12:20:06Z</time>
      </trkpt>
      <trkpt lat="44.31576" lon="6.79331">
        <ele>2317.22</ele>
        <time>2018-08-25T12:20:12Z</time>
      </trkpt>
      <trkpt lat="44.31593" lon="6.79344">
        <ele>2318.45</ele>
        <time>2018-08-25T12:20:19Z</time>
      </trkpt>
      <trkpt lat="44.31612" lon="6.79342">
        <ele>2322.49</ele>
        <time>2018-08-25T12:20:25Z</time>
      </trkpt>
      <trkpt lat="44.31627" lon="6.7936">
        <ele>2325.33</ele>
        <time>2018-08-25T12:20:31Z</time>
      </trkpt>
      <trkpt lat="44.31632" lon="6.79388">
        <ele>2326.36</ele>
        <time>2018-08-25T12:20:36Z</time>
      </trkpt>
      <trkpt lat="44.31639" lon="6.79412">
        <ele>2327.61</ele>
        <time>2018-08-25T12:20:40Z</time>
      </trkpt>
      <trkpt lat="44.31652" lon="6.79435">
        <ele>2329.82</ele>
        <time>2018-08-25T12:20:45Z</time>
      </trkpt>
      <trkpt lat="44.3167" lon="6.79452">
        <ele>2331.53</ele>
        <time>2018-08-25T12:20:50Z</time>
      </trkpt>
      <trkpt lat="44.31688" lon="6.79465">
        <ele>2334.51</ele>
        <time>2018-08-25T12:20:55Z</time>
      </trkpt>
      <trkpt lat="44.31696" lon="6.79489">
        <ele>2332.95</ele>
        <time>2018-08-25T12:21:03Z</time>
      </trkpt>
      <trkpt lat="44.31677" lon="6.79485">
        <ele>2334.4</ele>
        <time>2018-08-25T12:21:09Z</time>
      </trkpt>
      <trkpt lat="44.31681" lon="6.79515">
        <ele>2338.23</ele>
        <time>2018-08-25T12:21:13Z</time>
      </trkpt>
      <trkpt lat="44.31698" lon="6.79536">
        <ele>2340.31</ele>
        <time>2018-08-25T12:21:17Z</time>
      </trkpt>
      <trkpt lat="44.31715" lon="6.79547">
        <ele>2344.83</ele>
        <time>2018-08-25T12:21:21Z</time>
      </trkpt>
      <trkpt lat="44.31733" lon="6.79554">
        <ele>2351.8</ele>
        <time>2018-08-25T12:21:26Z</time>
      </trkpt>
      <trkpt lat="44.3175" lon="6.79565">
        <ele>2350.43</ele>
        <time>2018-08-25T12:21:31Z</time>
      </trkpt>
      <trkpt lat="44.31772" lon="6.79567">
        <ele>2352.25</ele>
        <time>2018-08-25T12:21:36Z</time>
      </trkpt>
      <trkpt lat="44.31795" lon="6.79559">
        <ele>2355.54</ele>
        <time>2018-08-25T12:21:41Z</time>
      </trkpt>
      <trkpt lat="44.31814" lon="6.79547">
        <ele>2356.9</ele>
        <time>2018-08-25T12:21:45Z</time>
      </trkpt>
      <trkpt lat="44.3183" lon="6.79527">
        <ele>2356.69</ele>
        <time>2018-08-25T12:21:49Z</time>
      </trkpt>
      <trkpt lat="44.31838" lon="6.79502">
        <ele>2360.04</ele>
        <time>2018-08-25T12:21:54Z</time>
      </trkpt>
      <trkpt lat="44.31854" lon="6.79482">
        <ele>2356.56</ele>
        <time>2018-08-25T12:22:00Z</time>
      </trkpt>
      <trkpt lat="44.31874" lon="6.7948">
        <ele>2359.31</ele>
        <time>2018-08-25T12:22:05Z</time>
      </trkpt>
      <trkpt lat="44.31894" lon="6.79469">
        <ele>2362.25</ele>
        <time>2018-08-25T12:22:10Z</time>
      </trkpt>
      <trkpt lat="44.31904" lon="6.79442">
        <ele>2363.25</ele>
        <time>2018-08-25T12:22:15Z</time>
      </trkpt>
      <trkpt lat="44.31909" lon="6.79416">
        <ele>2367.91</ele>
        <time>2018-08-25T12:22:19Z</time>
      </trkpt>
      <trkpt lat="44.31922" lon="6.79394">
        <ele>2369.27</ele>
        <time>2018-08-25T12:22:23Z</time>
      </trkpt>
      <trkpt lat="44.31923" lon="6.79367">
        <ele>2373.67</ele>
        <time>2018-08-25T12:22:27Z</time>
      </trkpt>
      <trkpt lat="44.3192" lon="6.79339">
        <ele>2374.55</ele>
        <time>2018-08-25T12:22:33Z</time>
      </trkpt>
      <trkpt lat="44.31936" lon="6.79319">
        <ele>2378.59</ele>
        <time>2018-08-25T12:22:38Z</time>
      </trkpt>
      <trkpt lat="44.31946" lon="6.79293">
        <ele>2380.34</ele>
        <time>2018-08-25T12:22:43Z</time>
      </trkpt>
      <trkpt lat="44.31941" lon="6.79267">
        <ele>2380.35</ele>
        <time>2018-08-25T12:22:47Z</time>
      </trkpt>
      <trkpt lat="44.31943" lon="6.7924">
        <ele>2381.34</ele>
        <time>2018-08-25T12:22:53Z</time>
      </trkpt>
      <trkpt lat="44.31965" lon="6.7924">
        <ele>2380.66</ele>
        <time>2018-08-25T12:22:57Z</time>
      </trkpt>
      <trkpt lat="44.31986" lon="6.79243">
        <ele>2380.35</ele>
        <time>2018-08-25T12:23:01Z</time>
      </trkpt>
      <trkpt lat="44.32007" lon="6.79244">
        <ele>2381.55</ele>
        <time>2018-08-25T12:23:05Z</time>
      </trkpt>
      <trkpt lat="44.32027" lon="6.79235">
        <ele>2385.24</ele>
        <time>2018-08-25T12:23:10Z</time>
      </trkpt>
      <trkpt lat="44.32045" lon="6.79238">
        <ele>2387.62</ele>
        <time>2018-08-25T12:23:15Z</time>
      </trkpt>
      <trkpt lat="44.32065" lon="6.79238">
        <ele>2390.54</ele>
        <time>2018-08-25T12:23:21Z</time>
      </trkpt>
      <trkpt lat="44.32047" lon="6.79245">
        <ele>2392.63</ele>
        <time>2018-08-25T12:23:28Z</time>
      </trkpt>
      <trkpt lat="44.32029" lon="6.79256">
        <ele>2392.93</ele>
        <time>2018-08-25T12:23:32Z</time>
      </trkpt>
      <trkpt lat="44.32013" lon="6.79267">
        <ele>2393.41</ele>
        <time>2018-08-25T12:23:36Z</time>
      </trkpt>
      <trkpt lat="44.31995" lon="6.79274">
        <ele>2394.34</ele>
        <time>2018-08-25T12:23:40Z</time>
      </trkpt>
      <trkpt lat="44.31977" lon="6.7928">
        <ele>2400.36</ele>
        <time>2018-08-25T12:24:30Z</time>
      </trkpt>
      <trkpt lat="44.31985" lon="6.79312">
        <ele>2396.37</ele>
        <time>2018-08-25T12:33:32Z</time>
      </trkpt>
      <trkpt lat="44.31991" lon="6.79342">
        <ele>2399.31</ele>
        <time>2018-08-25T12:33:37Z</time>
      </trkpt>
      <trkpt lat="44.32004" lon="6.7936">
        <ele>2399.64</ele>
        <time>2018-08-25T12:33:42Z</time>
      </trkpt>
      <trkpt lat="44.3202" lon="6.79375">
        <ele>2400.85</ele>
        <time>2018-08-25T12:33:47Z</time>
      </trkpt>
      <trkpt lat="44.32019" lon="6.79403">
        <ele>2401.64</ele>
        <time>2018-08-25T12:33:53Z</time>
      </trkpt>
      <trkpt lat="44.32008" lon="6.79431">
        <ele>2401.64</ele>
        <time>2018-08-25T12:33:57Z</time>
      </trkpt>
      <trkpt lat="44.31995" lon="6.79453">
        <ele>2403.33</ele>
        <time>2018-08-25T12:34:01Z</time>
      </trkpt>
      <trkpt lat="44.31987" lon="6.7948">
        <ele>2401.33</ele>
        <time>2018-08-25T12:34:05Z</time>
      </trkpt>
      <trkpt lat="44.31989" lon="6.79505">
        <ele>2401.24</ele>
        <time>2018-08-25T12:34:09Z</time>
      </trkpt>
      <trkpt lat="44.31999" lon="6.79528">
        <ele>2402.61</ele>
        <time>2018-08-25T12:34:14Z</time>
      </trkpt>
      <trkpt lat="44.32014" lon="6.79548">
        <ele>2402.64</ele>
        <time>2018-08-25T12:34:20Z</time>
      </trkpt>
      <trkpt lat="44.32021" lon="6.79573">
        <ele>2407.82</ele>
        <time>2018-08-25T12:35:22Z</time>
      </trkpt>
      <trkpt lat="44.3204" lon="6.79589">
        <ele>2405.97</ele>
        <time>2018-08-25T12:35:28Z</time>
      </trkpt>
      <trkpt lat="44.32055" lon="6.79605">
        <ele>2404.95</ele>
        <time>2018-08-25T12:35:31Z</time>
      </trkpt>
      <trkpt lat="44.32073" lon="6.79628">
        <ele>2404.65</ele>
        <time>2018-08-25T12:35:34Z</time>
      </trkpt>
      <trkpt lat="44.32088" lon="6.79646">
        <ele>2404.64</ele>
        <time>2018-08-25T12:35:36Z</time>
      </trkpt>
      <trkpt lat="44.32103" lon="6.7966">
        <ele>2405.55</ele>
        <time>2018-08-25T12:35:38Z</time>
      </trkpt>
      <trkpt lat="44.3212" lon="6.79671">
        <ele>2406.54</ele>
        <time>2018-08-25T12:35:40Z</time>
      </trkpt>
      <trkpt lat="44.32137" lon="6.7968">
        <ele>2408.24</ele>
        <time>2018-08-25T12:35:42Z</time>
      </trkpt>
      <trkpt lat="44.3216" lon="6.79695">
        <ele>2409.54</ele>
        <time>2018-08-25T12:35:45Z</time>
      </trkpt>
      <trkpt lat="44.32183" lon="6.79699">
        <ele>2411.31</ele>
        <time>2018-08-25T12:35:48Z</time>
      </trkpt>
      <trkpt lat="44.32203" lon="6.79692">
        <ele>2414.21</ele>
        <time>2018-08-25T12:35:51Z</time>
      </trkpt>
      <trkpt lat="44.32221" lon="6.79684">
        <ele>2419.34</ele>
        <time>2018-08-25T12:36:52Z</time>
      </trkpt>
      <trkpt lat="44.32244" lon="6.79688">
        <ele>2420.61</ele>
        <time>2018-08-25T12:36:56Z</time>
      </trkpt>
      <trkpt lat="44.32264" lon="6.79694">
        <ele>2422.31</ele>
        <time>2018-08-25T12:36:59Z</time>
      </trkpt>
      <trkpt lat="44.32282" lon="6.79704">
        <ele>2423.27</ele>
        <time>2018-08-25T12:37:02Z</time>
      </trkpt>
      <trkpt lat="44.323" lon="6.79717">
        <ele>2424.54</ele>
        <time>2018-08-25T12:37:05Z</time>
      </trkpt>
      <trkpt lat="44.32318" lon="6.79731">
        <ele>2426.52</ele>
        <time>2018-08-25T12:37:08Z</time>
      </trkpt>
      <trkpt lat="44.32335" lon="6.79749">
        <ele>2427.61</ele>
        <time>2018-08-25T12:37:11Z</time>
      </trkpt>
      <trkpt lat="44.3235" lon="6.79768">
        <ele>2428.55</ele>
        <time>2018-08-25T12:37:14Z</time>
      </trkpt>
      <trkpt lat="44.32366" lon="6.79783">
        <ele>2430.31</ele>
        <time>2018-08-25T12:37:17Z</time>
      </trkpt>
      <trkpt lat="44.32383" lon="6.79802">
        <ele>2432.52</ele>
        <time>2018-08-25T12:37:21Z</time>
      </trkpt>
      <trkpt lat="44.324" lon="6.7982">
        <ele>2434.54</ele>
        <time>2018-08-25T12:37:25Z</time>
      </trkpt>
      <trkpt lat="44.32416" lon="6.79833">
        <ele>2437.3</ele>
        <time>2018-08-25T12:37:31Z</time>
      </trkpt>
      <trkpt lat="44.32395" lon="6.79813">
        <ele>2434.97</ele>
        <time>2018-08-25T12:37:41Z</time>
      </trkpt>
      <trkpt lat="44.32374" lon="6.79791">
        <ele>2432.98</ele>
        <time>2018-08-25T12:37:44Z</time>
      </trkpt>
      <trkpt lat="44.32359" lon="6.79776">
        <ele>2431.76</ele>
        <time>2018-08-25T12:37:46Z</time>
      </trkpt>
      <trkpt lat="44.32343" lon="6.79759">
        <ele>2429.13</ele>
        <time>2018-08-25T12:37:48Z</time>
      </trkpt>
      <trkpt lat="44.32329" lon="6.79743">
        <ele>2427.98</ele>
        <time>2018-08-25T12:37:50Z</time>
      </trkpt>
      <trkpt lat="44.32307" lon="6.79723">
        <ele>2425.07</ele>
        <time>2018-08-25T12:37:53Z</time>
      </trkpt>
      <trkpt lat="44.32284" lon="6.79706">
        <ele>2424.65</ele>
        <time>2018-08-25T12:37:56Z</time>
      </trkpt>
      <trkpt lat="44.32259" lon="6.79695">
        <ele>2422.97</ele>
        <time>2018-08-25T12:37:59Z</time>
      </trkpt>
      <trkpt lat="44.32241" lon="6.7969">
        <ele>2422.67</ele>
        <time>2018-08-25T12:38:01Z</time>
      </trkpt>
      <trkpt lat="44.32219" lon="6.79687">
        <ele>2420.27</ele>
        <time>2018-08-25T12:38:04Z</time>
      </trkpt>
      <trkpt lat="44.32195" lon="6.79694">
        <ele>2418.05</ele>
        <time>2018-08-25T12:38:07Z</time>
      </trkpt>
      <trkpt lat="44.32171" lon="6.79699">
        <ele>2415.98</ele>
        <time>2018-08-25T12:38:10Z</time>
      </trkpt>
      <trkpt lat="44.32146" lon="6.79684">
        <ele>2413.07</ele>
        <time>2018-08-25T12:38:13Z</time>
      </trkpt>
      <trkpt lat="44.32127" lon="6.79673">
        <ele>2410.16</ele>
        <time>2018-08-25T12:38:15Z</time>
      </trkpt>
      <trkpt lat="44.32109" lon="6.79663">
        <ele>2408.78</ele>
        <time>2018-08-25T12:38:17Z</time>
      </trkpt>
      <trkpt lat="44.32093" lon="6.7965">
        <ele>2406.13</ele>
        <time>2018-08-25T12:38:19Z</time>
      </trkpt>
      <trkpt lat="44.32075" lon="6.79631">
        <ele>2404.77</ele>
        <time>2018-08-25T12:38:21Z</time>
      </trkpt>
      <trkpt lat="44.32059" lon="6.79611">
        <ele>2404.65</ele>
        <time>2018-08-25T12:38:23Z</time>
      </trkpt>
      <trkpt lat="44.32045" lon="6.79595">
        <ele>2403.94</ele>
        <time>2018-08-25T12:38:25Z</time>
      </trkpt>
      <trkpt lat="44.32024" lon="6.79584">
        <ele>2403.65</ele>
        <time>2018-08-25T12:38:28Z</time>
      </trkpt>
      <trkpt lat="44.32003" lon="6.79596">
        <ele>2402.73</ele>
        <time>2018-08-25T12:38:31Z</time>
      </trkpt>
      <trkpt lat="44.31978" lon="6.79606">
        <ele>2402.64</ele>
        <time>2018-08-25T12:38:34Z</time>
      </trkpt>
      <trkpt lat="44.31958" lon="6.79612">
        <ele>2401.73</ele>
        <time>2018-08-25T12:38:37Z</time>
      </trkpt>
      <trkpt lat="44.31942" lon="6.79627">
        <ele>2401.65</ele>
        <time>2018-08-25T12:38:39Z</time>
      </trkpt>
      <trkpt lat="44.31917" lon="6.79636">
        <ele>2400.67</ele>
        <time>2018-08-25T12:38:42Z</time>
      </trkpt>
      <trkpt lat="44.31888" lon="6.79635">
        <ele>2400.85</ele>
        <time>2018-08-25T12:38:44Z</time>
      </trkpt>
      <trkpt lat="44.3186" lon="6.79643">
        <ele>2402.06</ele>
        <time>2018-08-25T12:38:46Z</time>
      </trkpt>
      <trkpt lat="44.31834" lon="6.79658">
        <ele>2403.5</ele>
        <time>2018-08-25T12:38:48Z</time>
      </trkpt>
      <trkpt lat="44.31807" lon="6.79673">
        <ele>2405.24</ele>
        <time>2018-08-25T12:38:50Z</time>
      </trkpt>
      <trkpt lat="44.31781" lon="6.79685">
        <ele>2407.91</ele>
        <time>2018-08-25T12:38:52Z</time>
      </trkpt>
      <trkpt lat="44.31756" lon="6.79691">
        <ele>2410.88</ele>
        <time>2018-08-25T12:38:54Z</time>
      </trkpt>
      <trkpt lat="44.31731" lon="6.79693">
        <ele>2414.09</ele>
        <time>2018-08-25T12:38:56Z</time>
      </trkpt>
      <trkpt lat="44.31706" lon="6.79691">
        <ele>2416.2</ele>
        <time>2018-08-25T12:38:58Z</time>
      </trkpt>
      <trkpt lat="44.31683" lon="6.79684">
        <ele>2417.51</ele>
        <time>2018-08-25T12:39:00Z</time>
      </trkpt>
      <trkpt lat="44.31659" lon="6.79669">
        <ele>2419.94</ele>
        <time>2018-08-25T12:39:02Z</time>
      </trkpt>
      <trkpt lat="44.31638" lon="6.79646">
        <ele>2423.8</ele>
        <time>2018-08-25T12:39:04Z</time>
      </trkpt>
      <trkpt lat="44.31617" lon="6.79625">
        <ele>2426.87</ele>
        <time>2018-08-25T12:39:06Z</time>
      </trkpt>
      <trkpt lat="44.31596" lon="6.79616">
        <ele>2428.27</ele>
        <time>2018-08-25T12:39:08Z</time>
      </trkpt>
      <trkpt lat="44.31573" lon="6.79615">
        <ele>2430.22</ele>
        <time>2018-08-25T12:39:10Z</time>
      </trkpt>
      <trkpt lat="44.31551" lon="6.79605">
        <ele>2432.21</ele>
        <time>2018-08-25T12:39:12Z</time>
      </trkpt>
      <trkpt lat="44.31535" lon="6.7959">
        <ele>2434.21</ele>
        <time>2018-08-25T12:39:14Z</time>
      </trkpt>
      <trkpt lat="44.31521" lon="6.79616">
        <ele>2437.61</ele>
        <time>2018-08-25T12:39:19Z</time>
      </trkpt>
      <trkpt lat="44.3152" lon="6.79644">
        <ele>2439.25</ele>
        <time>2018-08-25T12:39:21Z</time>
      </trkpt>
      <trkpt lat="44.31519" lon="6.79672">
        <ele>2441.21</ele>
        <time>2018-08-25T12:39:23Z</time>
      </trkpt>
      <trkpt lat="44.31511" lon="6.79703">
        <ele>2443.51</ele>
        <time>2018-08-25T12:39:26Z</time>
      </trkpt>
      <trkpt lat="44.31493" lon="6.79725">
        <ele>2441.05</ele>
        <time>2018-08-25T12:39:29Z</time>
      </trkpt>
      <trkpt lat="44.31476" lon="6.79736">
        <ele>2438.74</ele>
        <time>2018-08-25T12:39:33Z</time>
      </trkpt>
      <trkpt lat="44.31458" lon="6.79719">
        <ele>2435.04</ele>
        <time>2018-08-25T12:39:39Z</time>
      </trkpt>
      <trkpt lat="44.31446" lon="6.79696">
        <ele>2433.73</ele>
        <time>2018-08-25T12:39:43Z</time>
      </trkpt>
      <trkpt lat="44.31428" lon="6.79691">
        <ele>2431.97</ele>
        <time>2018-08-25T12:39:46Z</time>
      </trkpt>
      <trkpt lat="44.31406" lon="6.7969">
        <ele>2429.77</ele>
        <time>2018-08-25T12:39:49Z</time>
      </trkpt>
      <trkpt lat="44.31385" lon="6.79677">
        <ele>2427.97</ele>
        <time>2018-08-25T12:39:52Z</time>
      </trkpt>
      <trkpt lat="44.31404" lon="6.79689">
        <ele>2429.32</ele>
        <time>2018-08-25T12:40:05Z</time>
      </trkpt>
      <trkpt lat="44.31431" lon="6.79691">
        <ele>2432.21</ele>
        <time>2018-08-25T12:40:08Z</time>
      </trkpt>
      <trkpt lat="44.31452" lon="6.79707">
        <ele>2434.94</ele>
        <time>2018-08-25T12:40:11Z</time>
      </trkpt>
      <trkpt lat="44.31464" lon="6.79727">
        <ele>2436.98</ele>
        <time>2018-08-25T12:40:13Z</time>
      </trkpt>
      <trkpt lat="44.31487" lon="6.7973">
        <ele>2440.21</ele>
        <time>2018-08-25T12:40:16Z</time>
      </trkpt>
      <trkpt lat="44.31501" lon="6.79713">
        <ele>2442.21</ele>
        <time>2018-08-25T12:40:18Z</time>
      </trkpt>
      <trkpt lat="44.31516" lon="6.79685">
        <ele>2443.6</ele>
        <time>2018-08-25T12:40:21Z</time>
      </trkpt>
      <trkpt lat="44.31519" lon="6.79653">
        <ele>2441.82</ele>
        <time>2018-08-25T12:40:23Z</time>
      </trkpt>
      <trkpt lat="44.31521" lon="6.79615">
        <ele>2440.05</ele>
        <time>2018-08-25T12:40:25Z</time>
      </trkpt>
      <trkpt lat="44.31525" lon="6.79587">
        <ele>2437.07</ele>
        <time>2018-08-25T12:40:28Z</time>
      </trkpt>
      <trkpt lat="44.31543" lon="6.79598">
        <ele>2434.07</ele>
        <time>2018-08-25T12:40:31Z</time>
      </trkpt>
      <trkpt lat="44.31564" lon="6.79613">
        <ele>2432.77</ele>
        <time>2018-08-25T12:40:33Z</time>
      </trkpt>
      <trkpt lat="44.31589" lon="6.79616">
        <ele>2430.13</ele>
        <time>2018-08-25T12:40:35Z</time>
      </trkpt>
      <trkpt lat="44.3161" lon="6.79621">
        <ele>2428.07</ele>
        <time>2018-08-25T12:40:37Z</time>
      </trkpt>
      <trkpt lat="44.31633" lon="6.7964">
        <ele>2426.07</ele>
        <time>2018-08-25T12:40:39Z</time>
      </trkpt>
      <trkpt lat="44.31654" lon="6.79662">
        <ele>2424.07</ele>
        <time>2018-08-25T12:40:41Z</time>
      </trkpt>
      <trkpt lat="44.31674" lon="6.79678">
        <ele>2422.77</ele>
        <time>2018-08-25T12:40:43Z</time>
      </trkpt>
      <trkpt lat="44.31698" lon="6.79688">
        <ele>2420.13</ele>
        <time>2018-08-25T12:40:45Z</time>
      </trkpt>
      <trkpt lat="44.31724" lon="6.79692">
        <ele>2417.16</ele>
        <time>2018-08-25T12:40:47Z</time>
      </trkpt>
      <trkpt lat="44.31745" lon="6.79692">
        <ele>2414.38</ele>
        <time>2018-08-25T12:40:49Z</time>
      </trkpt>
      <trkpt lat="44.31764" lon="6.79691">
        <ele>2411.99</ele>
        <time>2018-08-25T12:40:52Z</time>
      </trkpt>
      <trkpt lat="44.31782" lon="6.79685">
        <ele>2409.94</ele>
        <time>2018-08-25T12:40:57Z</time>
      </trkpt>
      <trkpt lat="44.31808" lon="6.79673">
        <ele>2408.85</ele>
        <time>2018-08-25T12:41:21Z</time>
      </trkpt>
      <trkpt lat="44.31832" lon="6.7966">
        <ele>2407.05</ele>
        <time>2018-08-25T12:41:23Z</time>
      </trkpt>
      <trkpt lat="44.31855" lon="6.79645">
        <ele>2405.07</ele>
        <time>2018-08-25T12:41:25Z</time>
      </trkpt>
      <trkpt lat="44.31883" lon="6.79635">
        <ele>2402.37</ele>
        <time>2018-08-25T12:41:27Z</time>
      </trkpt>
      <trkpt lat="44.31912" lon="6.79631">
        <ele>2400.8</ele>
        <time>2018-08-25T12:41:29Z</time>
      </trkpt>
      <trkpt lat="44.31933" lon="6.79629">
        <ele>2401.35</ele>
        <time>2018-08-25T12:41:31Z</time>
      </trkpt>
      <trkpt lat="44.31956" lon="6.79612">
        <ele>2400.72</ele>
        <time>2018-08-25T12:41:34Z</time>
      </trkpt>
      <trkpt lat="44.31979" lon="6.79603">
        <ele>2401.34</ele>
        <time>2018-08-25T12:41:37Z</time>
      </trkpt>
      <trkpt lat="44.32005" lon="6.79599">
        <ele>2400.02</ele>
        <time>2018-08-25T12:41:40Z</time>
      </trkpt>
      <trkpt lat="44.32026" lon="6.79588">
        <ele>2401.53</ele>
        <time>2018-08-25T12:41:43Z</time>
      </trkpt>
      <trkpt lat="44.32046" lon="6.79597">
        <ele>2403.31</ele>
        <time>2018-08-25T12:41:46Z</time>
      </trkpt>
      <trkpt lat="44.32066" lon="6.79621">
        <ele>2404.6</ele>
        <time>2018-08-25T12:41:49Z</time>
      </trkpt>
      <trkpt lat="44.32083" lon="6.79642">
        <ele>2404.64</ele>
        <time>2018-08-25T12:41:51Z</time>
      </trkpt>
      <trkpt lat="44.321" lon="6.79659">
        <ele>2405.55</ele>
        <time>2018-08-25T12:41:53Z</time>
      </trkpt>
      <trkpt lat="44.32117" lon="6.79669">
        <ele>2407.24</ele>
        <time>2018-08-25T12:41:55Z</time>
      </trkpt>
      <trkpt lat="44.32138" lon="6.79682">
        <ele>2409.51</ele>
        <time>2018-08-25T12:41:58Z</time>
      </trkpt>
      <trkpt lat="44.32158" lon="6.79695">
        <ele>2411.52</ele>
        <time>2018-08-25T12:42:01Z</time>
      </trkpt>
      <trkpt lat="44.32181" lon="6.79701">
        <ele>2414.49</ele>
        <time>2018-08-25T12:42:04Z</time>
      </trkpt>
      <trkpt lat="44.32203" lon="6.79692">
        <ele>2417.92</ele>
        <time>2018-08-25T12:42:07Z</time>
      </trkpt>
      <trkpt lat="44.32225" lon="6.79687">
        <ele>2419.32</ele>
        <time>2018-08-25T12:42:10Z</time>
      </trkpt>
      <trkpt lat="44.32249" lon="6.79691">
        <ele>2421.51</ele>
        <time>2018-08-25T12:42:13Z</time>
      </trkpt>
      <trkpt lat="44.32275" lon="6.797">
        <ele>2424.22</ele>
        <time>2018-08-25T12:42:16Z</time>
      </trkpt>
      <trkpt lat="44.32291" lon="6.79712">
        <ele>2426.21</ele>
        <time>2018-08-25T12:42:18Z</time>
      </trkpt>
      <trkpt lat="44.32309" lon="6.79723">
        <ele>2427.51</ele>
        <time>2018-08-25T12:42:20Z</time>
      </trkpt>
      <trkpt lat="44.32324" lon="6.79738">
        <ele>2428.54</ele>
        <time>2018-08-25T12:42:22Z</time>
      </trkpt>
      <trkpt lat="44.32341" lon="6.79757">
        <ele>2430.24</ele>
        <time>2018-08-25T12:42:24Z</time>
      </trkpt>
      <trkpt lat="44.32358" lon="6.79776">
        <ele>2432.21</ele>
        <time>2018-08-25T12:42:26Z</time>
      </trkpt>
      <trkpt lat="44.32374" lon="6.79792">
        <ele>2434</ele>
        <time>2018-08-25T12:42:28Z</time>
      </trkpt>
      <trkpt lat="44.32393" lon="6.7981">
        <ele>2435.39</ele>
        <time>2018-08-25T12:42:31Z</time>
      </trkpt>
      <trkpt lat="44.3241" lon="6.79829">
        <ele>2436.63</ele>
        <time>2018-08-25T12:42:35Z</time>
      </trkpt>
      <trkpt lat="44.32426" lon="6.79853">
        <ele>2438.6</ele>
        <time>2018-08-25T12:42:39Z</time>
      </trkpt>
      <trkpt lat="44.3244" lon="6.79873">
        <ele>2441.86</ele>
        <time>2018-08-25T12:42:41Z</time>
      </trkpt>
      <trkpt lat="44.32449" lon="6.79895">
        <ele>2443.48</ele>
        <time>2018-08-25T12:42:43Z</time>
      </trkpt>
      <trkpt lat="44.32463" lon="6.79926">
        <ele>2445.31</ele>
        <time>2018-08-25T12:42:46Z</time>
      </trkpt>
      <trkpt lat="44.32476" lon="6.79956">
        <ele>2449.82</ele>
        <time>2018-08-25T12:42:49Z</time>
      </trkpt>
      <trkpt lat="44.3249" lon="6.79979">
        <ele>2451.59</ele>
        <time>2018-08-25T12:42:52Z</time>
      </trkpt>
      <trkpt lat="44.32509" lon="6.79987">
        <ele>2453.04</ele>
        <time>2018-08-25T12:42:55Z</time>
      </trkpt>
      <trkpt lat="44.32529" lon="6.79987">
        <ele>2453.38</ele>
        <time>2018-08-25T12:42:57Z</time>
      </trkpt>
      <trkpt lat="44.32548" lon="6.79988">
        <ele>2455.02</ele>
        <time>2018-08-25T12:42:59Z</time>
      </trkpt>
      <trkpt lat="44.32566" lon="6.79984">
        <ele>2456.28</ele>
        <time>2018-08-25T12:43:01Z</time>
      </trkpt>
      <trkpt lat="44.32589" lon="6.79979">
        <ele>2458.3</ele>
        <time>2018-08-25T12:43:04Z</time>
      </trkpt>
      <trkpt lat="44.32606" lon="6.79969">
        <ele>2461.49</ele>
        <time>2018-08-25T12:43:07Z</time>
      </trkpt>
      <trkpt lat="44.32623" lon="6.79958">
        <ele>2464.51</ele>
        <time>2018-08-25T12:43:11Z</time>
      </trkpt>
      <trkpt lat="44.32644" lon="6.79978">
        <ele>2467.24</ele>
        <time>2018-08-25T12:43:15Z</time>
      </trkpt>
      <trkpt lat="44.3266" lon="6.79995">
        <ele>2469.91</ele>
        <time>2018-08-25T12:43:17Z</time>
      </trkpt>
      <trkpt lat="44.32673" lon="6.80013">
        <ele>2472.18</ele>
        <time>2018-08-25T12:43:19Z</time>
      </trkpt>
      <trkpt lat="44.32685" lon="6.80031">
        <ele>2474.21</ele>
        <time>2018-08-25T12:43:21Z</time>
      </trkpt>
      <trkpt lat="44.32705" lon="6.80057">
        <ele>2477.42</ele>
        <time>2018-08-25T12:43:24Z</time>
      </trkpt>
      <trkpt lat="44.32724" lon="6.80079">
        <ele>2482.04</ele>
        <time>2018-08-25T12:43:27Z</time>
      </trkpt>
      <trkpt lat="44.3274" lon="6.80101">
        <ele>2482.29</ele>
        <time>2018-08-25T12:43:30Z</time>
      </trkpt>
      <trkpt lat="44.32746" lon="6.80124">
        <ele>2483.1</ele>
        <time>2018-08-25T12:43:32Z</time>
      </trkpt>
      <trkpt lat="44.32756" lon="6.80154">
        <ele>2487.88</ele>
        <time>2018-08-25T12:43:35Z</time>
      </trkpt>
      <trkpt lat="44.32765" lon="6.80183">
        <ele>2487.35</ele>
        <time>2018-08-25T12:43:39Z</time>
      </trkpt>
      <trkpt lat="44.3278" lon="6.80204">
        <ele>2489.52</ele>
        <time>2018-08-25T12:43:42Z</time>
      </trkpt>
      <trkpt lat="44.32798" lon="6.80212">
        <ele>2489.15</ele>
        <time>2018-08-25T12:43:45Z</time>
      </trkpt>
      <trkpt lat="44.32818" lon="6.80215">
        <ele>2488.44</ele>
        <time>2018-08-25T12:43:48Z</time>
      </trkpt>
      <trkpt lat="44.32841" lon="6.80225">
        <ele>2493.59</ele>
        <time>2018-08-25T12:43:51Z</time>
      </trkpt>
      <trkpt lat="44.32863" lon="6.8024">
        <ele>2499.78</ele>
        <time>2018-08-25T12:43:54Z</time>
      </trkpt>
      <trkpt lat="44.32882" lon="6.8025">
        <ele>2503.26</ele>
        <time>2018-08-25T12:43:57Z</time>
      </trkpt>
      <trkpt lat="44.32872" lon="6.80274">
        <ele>2507.3</ele>
        <time>2018-08-25T12:44:04Z</time>
      </trkpt>
      <trkpt lat="44.32851" lon="6.80273">
        <ele>2507.61</ele>
        <time>2018-08-25T12:44:06Z</time>
      </trkpt>
      <trkpt lat="44.32829" lon="6.80271">
        <ele>2508.55</ele>
        <time>2018-08-25T12:44:08Z</time>
      </trkpt>
      <trkpt lat="44.32808" lon="6.80265">
        <ele>2510.03</ele>
        <time>2018-08-25T12:44:10Z</time>
      </trkpt>
      <trkpt lat="44.32787" lon="6.80261">
        <ele>2512.2</ele>
        <time>2018-08-25T12:44:12Z</time>
      </trkpt>
      <trkpt lat="44.3276" lon="6.80252">
        <ele>2514.3</ele>
        <time>2018-08-25T12:44:15Z</time>
      </trkpt>
      <trkpt lat="44.32737" lon="6.80242">
        <ele>2516.24</ele>
        <time>2018-08-25T12:44:18Z</time>
      </trkpt>
      <trkpt lat="44.32711" lon="6.80244">
        <ele>2516.84</ele>
        <time>2018-08-25T12:44:21Z</time>
      </trkpt>
      <trkpt lat="44.32691" lon="6.80244">
        <ele>2520.47</ele>
        <time>2018-08-25T12:44:24Z</time>
      </trkpt>
      <trkpt lat="44.32688" lon="6.80272">
        <ele>2521.4</ele>
        <time>2018-08-25T12:44:31Z</time>
      </trkpt>
      <trkpt lat="44.32699" lon="6.80302">
        <ele>2520.93</ele>
        <time>2018-08-25T12:44:34Z</time>
      </trkpt>
      <trkpt lat="44.32714" lon="6.80327">
        <ele>2523.02</ele>
        <time>2018-08-25T12:44:37Z</time>
      </trkpt>
      <trkpt lat="44.32738" lon="6.80342">
        <ele>2528.09</ele>
        <time>2018-08-25T12:44:40Z</time>
      </trkpt>
      <trkpt lat="44.32757" lon="6.80353">
        <ele>2530.2</ele>
        <time>2018-08-25T12:44:42Z</time>
      </trkpt>
      <trkpt lat="44.32781" lon="6.80371">
        <ele>2532.51</ele>
        <time>2018-08-25T12:44:45Z</time>
      </trkpt>
      <trkpt lat="44.32799" lon="6.80389">
        <ele>2535.15</ele>
        <time>2018-08-25T12:44:47Z</time>
      </trkpt>
      <trkpt lat="44.32816" lon="6.80404">
        <ele>2538.12</ele>
        <time>2018-08-25T12:44:49Z</time>
      </trkpt>
      <trkpt lat="44.32834" lon="6.80425">
        <ele>2542.18</ele>
        <time>2018-08-25T12:44:52Z</time>
      </trkpt>
      <trkpt lat="44.32851" lon="6.80438">
        <ele>2544</ele>
        <time>2018-08-25T12:44:54Z</time>
      </trkpt>
      <trkpt lat="44.32867" lon="6.80451">
        <ele>2546.19</ele>
        <time>2018-08-25T12:44:56Z</time>
      </trkpt>
      <trkpt lat="44.32887" lon="6.80463">
        <ele>2549.21</ele>
        <time>2018-08-25T12:44:59Z</time>
      </trkpt>
      <trkpt lat="44.3291" lon="6.80464">
        <ele>2554.3</ele>
        <time>2018-08-25T12:45:02Z</time>
      </trkpt>
      <trkpt lat="44.32932" lon="6.80467">
        <ele>2554.9</ele>
        <time>2018-08-25T12:45:05Z</time>
      </trkpt>
      <trkpt lat="44.32954" lon="6.80469">
        <ele>2555.35</ele>
        <time>2018-08-25T12:45:08Z</time>
      </trkpt>
      <trkpt lat="44.32976" lon="6.8047">
        <ele>2554.72</ele>
        <time>2018-08-25T12:45:11Z</time>
      </trkpt>
      <trkpt lat="44.32999" lon="6.80455">
        <ele>2558.26</ele>
        <time>2018-08-25T12:45:14Z</time>
      </trkpt>
      <trkpt lat="44.33016" lon="6.80444">
        <ele>2559.54</ele>
        <time>2018-08-25T12:45:17Z</time>
      </trkpt>
      <trkpt lat="44.33037" lon="6.80443">
        <ele>2563.89</ele>
        <time>2018-08-25T12:45:20Z</time>
      </trkpt>
      <trkpt lat="44.33055" lon="6.80457">
        <ele>2565.59</ele>
        <time>2018-08-25T12:45:23Z</time>
      </trkpt>
      <trkpt lat="44.33072" lon="6.80468">
        <ele>2569.63</ele>
        <time>2018-08-25T12:45:40Z</time>
      </trkpt>
      <trkpt lat="44.33091" lon="6.80477">
        <ele>2571.24</ele>
        <time>2018-08-25T12:45:45Z</time>
      </trkpt>
      <trkpt lat="44.33116" lon="6.80477">
        <ele>2570.38</ele>
        <time>2018-08-25T12:45:48Z</time>
      </trkpt>
      <trkpt lat="44.3314" lon="6.80481">
        <ele>2572.31</ele>
        <time>2018-08-25T12:45:51Z</time>
      </trkpt>
      <trkpt lat="44.33161" lon="6.80483">
        <ele>2575.3</ele>
        <time>2018-08-25T12:45:55Z</time>
      </trkpt>
      <trkpt lat="44.33177" lon="6.80497">
        <ele>2578</ele>
        <time>2018-08-25T12:45:58Z</time>
      </trkpt>
      <trkpt lat="44.33194" lon="6.80516">
        <ele>2581.14</ele>
        <time>2018-08-25T12:46:01Z</time>
      </trkpt>
      <trkpt lat="44.33211" lon="6.80536">
        <ele>2582.54</ele>
        <time>2018-08-25T12:46:04Z</time>
      </trkpt>
      <trkpt lat="44.33231" lon="6.80548">
        <ele>2585.98</ele>
        <time>2018-08-25T12:46:07Z</time>
      </trkpt>
      <trkpt lat="44.3325" lon="6.80556">
        <ele>2588.23</ele>
        <time>2018-08-25T12:46:10Z</time>
      </trkpt>
      <trkpt lat="44.33268" lon="6.80569">
        <ele>2590.24</ele>
        <time>2018-08-25T12:46:13Z</time>
      </trkpt>
      <trkpt lat="44.33288" lon="6.80579">
        <ele>2593.3</ele>
        <time>2018-08-25T12:46:17Z</time>
      </trkpt>
      <trkpt lat="44.33303" lon="6.80564">
        <ele>2593.57</ele>
        <time>2018-08-25T12:46:20Z</time>
      </trkpt>
      <trkpt lat="44.33314" lon="6.80544">
        <ele>2595.04</ele>
        <time>2018-08-25T12:46:23Z</time>
      </trkpt>
      <trkpt lat="44.33335" lon="6.8053">
        <ele>2598.14</ele>
        <time>2018-08-25T12:46:26Z</time>
      </trkpt>
      <trkpt lat="44.33357" lon="6.80515">
        <ele>2601.91</ele>
        <time>2018-08-25T12:46:29Z</time>
      </trkpt>
      <trkpt lat="44.33379" lon="6.80508">
        <ele>2603.32</ele>
        <time>2018-08-25T12:46:32Z</time>
      </trkpt>
      <trkpt lat="44.33399" lon="6.80506">
        <ele>2604.6</ele>
        <time>2018-08-25T12:46:35Z</time>
      </trkpt>
      <trkpt lat="44.33419" lon="6.80523">
        <ele>2606.46</ele>
        <time>2018-08-25T12:46:39Z</time>
      </trkpt>
      <trkpt lat="44.33433" lon="6.80539">
        <ele>2609.22</ele>
        <time>2018-08-25T12:46:42Z</time>
      </trkpt>
      <trkpt lat="44.3343" lon="6.80567">
        <ele>2612.54</ele>
        <time>2018-08-25T12:46:47Z</time>
      </trkpt>
      <trkpt lat="44.33431" lon="6.80594">
        <ele>2614.31</ele>
        <time>2018-08-25T12:46:51Z</time>
      </trkpt>
      <trkpt lat="44.3345" lon="6.8059">
        <ele>2617.27</ele>
        <time>2018-08-25T12:46:56Z</time>
      </trkpt>
      <trkpt lat="44.33469" lon="6.80609">
        <ele>2618.34</ele>
        <time>2018-08-25T12:47:01Z</time>
      </trkpt>
      <trkpt lat="44.33484" lon="6.80632">
        <ele>2621.21</ele>
        <time>2018-08-25T12:47:04Z</time>
      </trkpt>
      <trkpt lat="44.33502" lon="6.80629">
        <ele>2622.6</ele>
        <time>2018-08-25T12:47:07Z</time>
      </trkpt>
      <trkpt lat="44.33519" lon="6.80602">
        <ele>2624.31</ele>
        <time>2018-08-25T12:47:10Z</time>
      </trkpt>
      <trkpt lat="44.3353" lon="6.80577">
        <ele>2626.01</ele>
        <time>2018-08-25T12:47:12Z</time>
      </trkpt>
      <trkpt lat="44.33542" lon="6.80551">
        <ele>2627.28</ele>
        <time>2018-08-25T12:47:14Z</time>
      </trkpt>
      <trkpt lat="44.33551" lon="6.80524">
        <ele>2627.61</ele>
        <time>2018-08-25T12:47:16Z</time>
      </trkpt>
      <trkpt lat="44.33557" lon="6.80495">
        <ele>2628.34</ele>
        <time>2018-08-25T12:47:18Z</time>
      </trkpt>
      <trkpt lat="44.33566" lon="6.80467">
        <ele>2628.61</ele>
        <time>2018-08-25T12:47:20Z</time>
      </trkpt>
      <trkpt lat="44.33573" lon="6.80438">
        <ele>2629.34</ele>
        <time>2018-08-25T12:47:22Z</time>
      </trkpt>
      <trkpt lat="44.33579" lon="6.80411">
        <ele>2631.43</ele>
        <time>2018-08-25T12:47:24Z</time>
      </trkpt>
      <trkpt lat="44.33584" lon="6.80384">
        <ele>2631.62</ele>
        <time>2018-08-25T12:47:26Z</time>
      </trkpt>
      <trkpt lat="44.33588" lon="6.80349">
        <ele>2632.55</ele>
        <time>2018-08-25T12:47:29Z</time>
      </trkpt>
      <trkpt lat="44.33585" lon="6.80319">
        <ele>2631.66</ele>
        <time>2018-08-25T12:47:32Z</time>
      </trkpt>
      <trkpt lat="44.33595" lon="6.8029">
        <ele>2633.31</ele>
        <time>2018-08-25T12:47:35Z</time>
      </trkpt>
      <trkpt lat="44.33599" lon="6.80256">
        <ele>2634.39</ele>
        <time>2018-08-25T12:47:38Z</time>
      </trkpt>
      <trkpt lat="44.33611" lon="6.80233">
        <ele>2634.63</ele>
        <time>2018-08-25T12:47:41Z</time>
      </trkpt>
      <trkpt lat="44.33617" lon="6.80206">
        <ele>2635.55</ele>
        <time>2018-08-25T12:47:46Z</time>
      </trkpt>
      <trkpt lat="44.33626" lon="6.80183">
        <ele>2634.87</ele>
        <time>2018-08-25T12:47:49Z</time>
      </trkpt>
      <trkpt lat="44.33629" lon="6.80147">
        <ele>2634.31</ele>
        <time>2018-08-25T12:47:52Z</time>
      </trkpt>
      <trkpt lat="44.33636" lon="6.80122">
        <ele>2636.22</ele>
        <time>2018-08-25T12:47:54Z</time>
      </trkpt>
      <trkpt lat="44.33649" lon="6.80096">
        <ele>2637.81</ele>
        <time>2018-08-25T12:47:57Z</time>
      </trkpt>
      <trkpt lat="44.33663" lon="6.80076">
        <ele>2640.19</ele>
        <time>2018-08-25T12:48:02Z</time>
      </trkpt>
      <trkpt lat="44.33681" lon="6.80088">
        <ele>2643.51</ele>
        <time>2018-08-25T12:48:06Z</time>
      </trkpt>
      <trkpt lat="44.33699" lon="6.80104">
        <ele>2646.22</ele>
        <time>2018-08-25T12:48:09Z</time>
      </trkpt>
      <trkpt lat="44.33715" lon="6.80117">
        <ele>2649.21</ele>
        <time>2018-08-25T12:48:12Z</time>
      </trkpt>
      <trkpt lat="44.3373" lon="6.80136">
        <ele>2649.63</ele>
        <time>2018-08-25T12:48:15Z</time>
      </trkpt>
      <trkpt lat="44.33742" lon="6.80156">
        <ele>2651.25</ele>
        <time>2018-08-25T12:48:18Z</time>
      </trkpt>
      <trkpt lat="44.33758" lon="6.80175">
        <ele>2650.65</ele>
        <time>2018-08-25T12:48:23Z</time>
      </trkpt>
      <trkpt lat="44.33739" lon="6.80162">
        <ele>2650.59</ele>
        <time>2018-08-25T12:48:32Z</time>
      </trkpt>
      <trkpt lat="44.33719" lon="6.80139">
        <ele>2653.16</ele>
        <time>2018-08-25T12:48:34Z</time>
      </trkpt>
      <trkpt lat="44.33696" lon="6.80125">
        <ele>2655.21</ele>
        <time>2018-08-25T12:48:36Z</time>
      </trkpt>
      <trkpt lat="44.33669" lon="6.80139">
        <ele>2654.93</ele>
        <time>2018-08-25T12:48:39Z</time>
      </trkpt>
      <trkpt lat="44.33668" lon="6.80178">
        <ele>2655.37</ele>
        <time>2018-08-25T12:48:41Z</time>
      </trkpt>
      <trkpt lat="44.33673" lon="6.80224">
        <ele>2655.41</ele>
        <time>2018-08-25T12:48:43Z</time>
      </trkpt>
      <trkpt lat="44.33674" lon="6.80267">
        <ele>2658.84</ele>
        <time>2018-08-25T12:48:45Z</time>
      </trkpt>
      <trkpt lat="44.33672" lon="6.80296">
        <ele>2661.88</ele>
        <time>2018-08-25T12:48:47Z</time>
      </trkpt>
      <trkpt lat="44.33671" lon="6.80335">
        <ele>2665.55</ele>
        <time>2018-08-25T12:49:17Z</time>
      </trkpt>
      <trkpt lat="44.33671" lon="6.80362">
        <ele>2665.42</ele>
        <time>2018-08-25T12:49:19Z</time>
      </trkpt>
      <trkpt lat="44.33669" lon="6.804">
        <ele>2667.44</ele>
        <time>2018-08-25T12:49:21Z</time>
      </trkpt>
      <trkpt lat="44.33661" lon="6.80442">
        <ele>2669.23</ele>
        <time>2018-08-25T12:49:23Z</time>
      </trkpt>
      <trkpt lat="44.33659" lon="6.80486">
        <ele>2671.21</ele>
        <time>2018-08-25T12:49:25Z</time>
      </trkpt>
      <trkpt lat="44.33662" lon="6.80536">
        <ele>2671.81</ele>
        <time>2018-08-25T12:49:27Z</time>
      </trkpt>
      <trkpt lat="44.33659" lon="6.80562">
        <ele>2672.39</ele>
        <time>2018-08-25T12:49:28Z</time>
      </trkpt>
      <trkpt lat="44.33654" lon="6.8059">
        <ele>2673.27</ele>
        <time>2018-08-25T12:49:29Z</time>
      </trkpt>
      <trkpt lat="44.3365" lon="6.80621">
        <ele>2674.23</ele>
        <time>2018-08-25T12:49:30Z</time>
      </trkpt>
      <trkpt lat="44.33646" lon="6.80654">
        <ele>2674.52</ele>
        <time>2018-08-25T12:49:31Z</time>
      </trkpt>
      <trkpt lat="44.33643" lon="6.80687">
        <ele>2674.6</ele>
        <time>2018-08-25T12:49:32Z</time>
      </trkpt>
      <trkpt lat="44.3364" lon="6.80719">
        <ele>2674.63</ele>
        <time>2018-08-25T12:49:33Z</time>
      </trkpt>
      <trkpt lat="44.33637" lon="6.80749">
        <ele>2675.34</ele>
        <time>2018-08-25T12:49:34Z</time>
      </trkpt>
      <trkpt lat="44.3363" lon="6.80778">
        <ele>2674.85</ele>
        <time>2018-08-25T12:49:35Z</time>
      </trkpt>
      <trkpt lat="44.3362" lon="6.80806">
        <ele>2674.7</ele>
        <time>2018-08-25T12:49:36Z</time>
      </trkpt>
      <trkpt lat="44.3361" lon="6.80832">
        <ele>2675.36</ele>
        <time>2018-08-25T12:49:37Z</time>
      </trkpt>
      <trkpt lat="44.33595" lon="6.80857">
        <ele>2675.56</ele>
        <time>2018-08-25T12:49:38Z</time>
      </trkpt>
      <trkpt lat="44.33581" lon="6.80881">
        <ele>2676.31</ele>
        <time>2018-08-25T12:49:39Z</time>
      </trkpt>
      <trkpt lat="44.33567" lon="6.80905">
        <ele>2676.54</ele>
        <time>2018-08-25T12:49:40Z</time>
      </trkpt>
      <trkpt lat="44.33554" lon="6.80929">
        <ele>2676.61</ele>
        <time>2018-08-25T12:49:41Z</time>
      </trkpt>
      <trkpt lat="44.33539" lon="6.80949">
        <ele>2677.33</ele>
        <time>2018-08-25T12:49:42Z</time>
      </trkpt>
      <trkpt lat="44.33524" lon="6.80968">
        <ele>2677.55</ele>
        <time>2018-08-25T12:49:43Z</time>
      </trkpt>
      <trkpt lat="44.33506" lon="6.80984">
        <ele>2678.31</ele>
        <time>2018-08-25T12:49:44Z</time>
      </trkpt>
      <trkpt lat="44.33489" lon="6.80998">
        <ele>2677.84</ele>
        <time>2018-08-25T12:49:45Z</time>
      </trkpt>
      <trkpt lat="44.3347" lon="6.81012">
        <ele>2677.7</ele>
        <time>2018-08-25T12:49:46Z</time>
      </trkpt>
      <trkpt lat="44.3345" lon="6.81022">
        <ele>2679.06</ele>
        <time>2018-08-25T12:49:47Z</time>
      </trkpt>
      <trkpt lat="44.33429" lon="6.81031">
        <ele>2680.17</ele>
        <time>2018-08-25T12:49:48Z</time>
      </trkpt>
      <trkpt lat="44.33409" lon="6.81043">
        <ele>2681.9</ele>
        <time>2018-08-25T12:49:49Z</time>
      </trkpt>
      <trkpt lat="44.33388" lon="6.81053">
        <ele>2683.12</ele>
        <time>2018-08-25T12:49:50Z</time>
      </trkpt>
      <trkpt lat="44.33367" lon="6.81061">
        <ele>2684.88</ele>
        <time>2018-08-25T12:49:51Z</time>
      </trkpt>
      <trkpt lat="44.33344" lon="6.81063">
        <ele>2686.81</ele>
        <time>2018-08-25T12:49:52Z</time>
      </trkpt>
      <trkpt lat="44.33323" lon="6.81063">
        <ele>2688.09</ele>
        <time>2018-08-25T12:49:53Z</time>
      </trkpt>
      <trkpt lat="44.33301" lon="6.81064">
        <ele>2689.18</ele>
        <time>2018-08-25T12:49:54Z</time>
      </trkpt>
      <trkpt lat="44.33282" lon="6.81066">
        <ele>2689.5</ele>
        <time>2018-08-25T12:49:55Z</time>
      </trkpt>
      <trkpt lat="44.33264" lon="6.81073">
        <ele>2689.6</ele>
        <time>2018-08-25T12:49:56Z</time>
      </trkpt>
      <trkpt lat="44.33232" lon="6.81079">
        <ele>2691.04</ele>
        <time>2018-08-25T12:49:58Z</time>
      </trkpt>
      <trkpt lat="44.33197" lon="6.81066">
        <ele>2693.2</ele>
        <time>2018-08-25T12:50:00Z</time>
      </trkpt>
      <trkpt lat="44.3318" lon="6.81057">
        <ele>2693.51</ele>
        <time>2018-08-25T12:50:01Z</time>
      </trkpt>
      <trkpt lat="44.33164" lon="6.81037">
        <ele>2694.3</ele>
        <time>2018-08-25T12:50:02Z</time>
      </trkpt>
      <trkpt lat="44.33149" lon="6.81015">
        <ele>2695.94</ele>
        <time>2018-08-25T12:50:03Z</time>
      </trkpt>
      <trkpt lat="44.33133" lon="6.80995">
        <ele>2697.13</ele>
        <time>2018-08-25T12:50:04Z</time>
      </trkpt>
      <trkpt lat="44.33118" lon="6.80976">
        <ele>2698.89</ele>
        <time>2018-08-25T12:50:05Z</time>
      </trkpt>
      <trkpt lat="44.33103" lon="6.8096">
        <ele>2700.11</ele>
        <time>2018-08-25T12:50:06Z</time>
      </trkpt>
      <trkpt lat="44.33088" lon="6.80944">
        <ele>2701.88</ele>
        <time>2018-08-25T12:50:07Z</time>
      </trkpt>
      <trkpt lat="44.33061" lon="6.80915">
        <ele>2704.18</ele>
        <time>2018-08-25T12:50:09Z</time>
      </trkpt>
      <trkpt lat="44.33042" lon="6.80888">
        <ele>2706.21</ele>
        <time>2018-08-25T12:50:11Z</time>
      </trkpt>
      <trkpt lat="44.33025" lon="6.80866">
        <ele>2707.51</ele>
        <time>2018-08-25T12:50:13Z</time>
      </trkpt>
      <trkpt lat="44.33008" lon="6.80849">
        <ele>2707.63</ele>
        <time>2018-08-25T12:50:15Z</time>
      </trkpt>
      <trkpt lat="44.32992" lon="6.80834">
        <ele>2707.64</ele>
        <time>2018-08-25T12:50:17Z</time>
      </trkpt>
      <trkpt lat="44.32975" lon="6.80819">
        <ele>2707.85</ele>
        <time>2018-08-25T12:50:19Z</time>
      </trkpt>
      <trkpt lat="44.32956" lon="6.80807">
        <ele>2708.57</ele>
        <time>2018-08-25T12:50:21Z</time>
      </trkpt>
      <trkpt lat="44.32931" lon="6.80797">
        <ele>2708.63</ele>
        <time>2018-08-25T12:50:23Z</time>
      </trkpt>
      <trkpt lat="44.32903" lon="6.80786">
        <ele>2708.64</ele>
        <time>2018-08-25T12:50:25Z</time>
      </trkpt>
      <trkpt lat="44.32871" lon="6.80779">
        <ele>2707.94</ele>
        <time>2018-08-25T12:50:27Z</time>
      </trkpt>
      <trkpt lat="44.32839" lon="6.80779">
        <ele>2708.37</ele>
        <time>2018-08-25T12:50:29Z</time>
      </trkpt>
      <trkpt lat="44.32806" lon="6.80789">
        <ele>2708.62</ele>
        <time>2018-08-25T12:50:31Z</time>
      </trkpt>
      <trkpt lat="44.32775" lon="6.80797">
        <ele>2709.55</ele>
        <time>2018-08-25T12:50:33Z</time>
      </trkpt>
      <trkpt lat="44.32745" lon="6.80789">
        <ele>2710.33</ele>
        <time>2018-08-25T12:50:35Z</time>
      </trkpt>
      <trkpt lat="44.32714" lon="6.8077">
        <ele>2709.7</ele>
        <time>2018-08-25T12:50:37Z</time>
      </trkpt>
      <trkpt lat="44.3269" lon="6.80753">
        <ele>2710.35</ele>
        <time>2018-08-25T12:50:39Z</time>
      </trkpt>
      <trkpt lat="44.32674" lon="6.80741">
        <ele>2710.61</ele>
        <time>2018-08-25T12:50:41Z</time>
      </trkpt>
      <trkpt lat="44.32658" lon="6.80721">
        <ele>2711.55</ele>
        <time>2018-08-25T12:50:44Z</time>
      </trkpt>
      <trkpt lat="44.32642" lon="6.80702">
        <ele>2710.66</ele>
        <time>2018-08-25T12:50:47Z</time>
      </trkpt>
      <trkpt lat="44.32619" lon="6.80685">
        <ele>2710.64</ele>
        <time>2018-08-25T12:50:50Z</time>
      </trkpt>
      <trkpt lat="44.32599" lon="6.80662">
        <ele>2710.64</ele>
        <time>2018-08-25T12:50:52Z</time>
      </trkpt>
      <trkpt lat="44.32583" lon="6.8063">
        <ele>2710.64</ele>
        <time>2018-08-25T12:50:54Z</time>
      </trkpt>
      <trkpt lat="44.32572" lon="6.8061">
        <ele>2712.25</ele>
        <time>2018-08-25T12:50:56Z</time>
      </trkpt>
      <trkpt lat="44.32549" lon="6.8062">
        <ele>2716.64</ele>
        <time>2018-08-25T12:53:14Z</time>
      </trkpt>
      <trkpt lat="44.32526" lon="6.80639">
        <ele>2717.34</ele>
        <time>2018-08-25T12:53:17Z</time>
      </trkpt>
      <trkpt lat="44.32506" lon="6.80649">
        <ele>2719.92</ele>
        <time>2018-08-25T12:53:19Z</time>
      </trkpt>
      <trkpt lat="44.32485" lon="6.80648">
        <ele>2722.19</ele>
        <time>2018-08-25T12:53:21Z</time>
      </trkpt>
      <trkpt lat="44.32464" lon="6.80637">
        <ele>2723.3</ele>
        <time>2018-08-25T12:53:23Z</time>
      </trkpt>
      <trkpt lat="44.32442" lon="6.80627">
        <ele>2725.92</ele>
        <time>2018-08-25T12:53:25Z</time>
      </trkpt>
      <trkpt lat="44.32419" lon="6.80622">
        <ele>2728.19</ele>
        <time>2018-08-25T12:53:27Z</time>
      </trkpt>
      <trkpt lat="44.32395" lon="6.8062">
        <ele>2730.91</ele>
        <time>2018-08-25T12:53:29Z</time>
      </trkpt>
      <trkpt lat="44.3237" lon="6.80613">
        <ele>2733.18</ele>
        <time>2018-08-25T12:53:31Z</time>
      </trkpt>
      <trkpt lat="44.32346" lon="6.80597">
        <ele>2736.12</ele>
        <time>2018-08-25T12:53:33Z</time>
      </trkpt>
      <trkpt lat="44.32322" lon="6.80576">
        <ele>2738.2</ele>
        <time>2018-08-25T12:53:35Z</time>
      </trkpt>
      <trkpt lat="44.32299" lon="6.80556">
        <ele>2742.52</ele>
        <time>2018-08-25T12:53:37Z</time>
      </trkpt>
      <trkpt lat="44.32278" lon="6.80546">
        <ele>2745.85</ele>
        <time>2018-08-25T12:53:39Z</time>
      </trkpt>
      <trkpt lat="44.32257" lon="6.80539">
        <ele>2747.97</ele>
        <time>2018-08-25T12:53:41Z</time>
      </trkpt>
      <trkpt lat="44.3224" lon="6.80518">
        <ele>2750.19</ele>
        <time>2018-08-25T12:53:43Z</time>
      </trkpt>
      <trkpt lat="44.32227" lon="6.80492">
        <ele>2753.82</ele>
        <time>2018-08-25T12:53:45Z</time>
      </trkpt>
      <trkpt lat="44.32213" lon="6.8047">
        <ele>2756.88</ele>
        <time>2018-08-25T12:53:47Z</time>
      </trkpt>
      <trkpt lat="44.32197" lon="6.80455">
        <ele>2759.18</ele>
        <time>2018-08-25T12:53:49Z</time>
      </trkpt>
      <trkpt lat="44.32177" lon="6.80451">
        <ele>2762.12</ele>
        <time>2018-08-25T12:53:51Z</time>
      </trkpt>
      <trkpt lat="44.32153" lon="6.80457">
        <ele>2764.9</ele>
        <time>2018-08-25T12:53:53Z</time>
      </trkpt>
      <trkpt lat="44.32125" lon="6.80455">
        <ele>2768.09</ele>
        <time>2018-08-25T12:53:55Z</time>
      </trkpt>
      <trkpt lat="44.32094" lon="6.80454">
        <ele>2771.81</ele>
        <time>2018-08-25T12:53:57Z</time>
      </trkpt>
      <trkpt lat="44.32067" lon="6.80441">
        <ele>2775.79</ele>
        <time>2018-08-25T12:53:59Z</time>
      </trkpt>
      <trkpt lat="44.32045" lon="6.80433">
        <ele>2778.17</ele>
        <time>2018-08-25T12:54:01Z</time>
      </trkpt>
      <trkpt lat="44.32035" lon="6.8046">
        <ele>2782.21</ele>
        <time>2018-08-25T12:54:05Z</time>
      </trkpt>
      <trkpt lat="44.32042" lon="6.80485">
        <ele>2784.21</ele>
        <time>2018-08-25T12:54:07Z</time>
      </trkpt>
      <trkpt lat="44.32048" lon="6.80513">
        <ele>2787.12</ele>
        <time>2018-08-25T12:54:09Z</time>
      </trkpt>
      <trkpt lat="44.32053" lon="6.80544">
        <ele>2789.2</ele>
        <time>2018-08-25T12:54:11Z</time>
      </trkpt>
      <trkpt lat="44.32062" lon="6.80577">
        <ele>2792.82</ele>
        <time>2018-08-25T12:54:13Z</time>
      </trkpt>
      <trkpt lat="44.32072" lon="6.80607">
        <ele>2796.09</ele>
        <time>2018-08-25T12:54:15Z</time>
      </trkpt>
      <trkpt lat="44.32076" lon="6.80635">
        <ele>2799.11</ele>
        <time>2018-08-25T12:54:17Z</time>
      </trkpt>
      <trkpt lat="44.32073" lon="6.80661">
        <ele>2800.5</ele>
        <time>2018-08-25T12:54:19Z</time>
      </trkpt>
      <trkpt lat="44.32061" lon="6.80687">
        <ele>2801.61</ele>
        <time>2018-08-25T12:54:22Z</time>
      </trkpt>
      <trkpt lat="44.3205" lon="6.80709">
        <ele>2801.64</ele>
        <time>2018-08-25T12:54:27Z</time>
      </trkpt>
      <trkpt lat="44.32049" lon="6.80734">
        <ele>2802.64</ele>
        <time>2018-08-25T12:54:32Z</time>
      </trkpt>
      <trkpt lat="44.32057" lon="6.80758">
        <ele>2803.66</ele>
        <time>2018-08-25T13:05:33Z</time>
      </trkpt>
      <trkpt lat="44.3207" lon="6.80781">
        <ele>2801.95</ele>
        <time>2018-08-25T13:05:37Z</time>
      </trkpt>
      <trkpt lat="44.32075" lon="6.80808">
        <ele>2800.04</ele>
        <time>2018-08-25T13:05:40Z</time>
      </trkpt>
      <trkpt lat="44.32085" lon="6.80834">
        <ele>2798.04</ele>
        <time>2018-08-25T13:05:43Z</time>
      </trkpt>
      <trkpt lat="44.32103" lon="6.80857">
        <ele>2794.37</ele>
        <time>2018-08-25T13:05:46Z</time>
      </trkpt>
      <trkpt lat="44.32115" lon="6.80875">
        <ele>2792.31</ele>
        <time>2018-08-25T13:05:48Z</time>
      </trkpt>
      <trkpt lat="44.32126" lon="6.80899">
        <ele>2790.09</ele>
        <time>2018-08-25T13:05:50Z</time>
      </trkpt>
      <trkpt lat="44.32138" lon="6.80923">
        <ele>2787.16</ele>
        <time>2018-08-25T13:05:52Z</time>
      </trkpt>
      <trkpt lat="44.32154" lon="6.80948">
        <ele>2784.07</ele>
        <time>2018-08-25T13:05:55Z</time>
      </trkpt>
      <trkpt lat="44.32172" lon="6.80939">
        <ele>2781.98</ele>
        <time>2018-08-25T13:05:58Z</time>
      </trkpt>
      <trkpt lat="44.3219" lon="6.80909">
        <ele>2777.39</ele>
        <time>2018-08-25T13:06:01Z</time>
      </trkpt>
      <trkpt lat="44.32206" lon="6.80881">
        <ele>2774.4</ele>
        <time>2018-08-25T13:06:03Z</time>
      </trkpt>
      <trkpt lat="44.32223" lon="6.80849">
        <ele>2770.49</ele>
        <time>2018-08-25T13:06:05Z</time>
      </trkpt>
      <trkpt lat="44.32245" lon="6.80818">
        <ele>2766.5</ele>
        <time>2018-08-25T13:06:07Z</time>
      </trkpt>
      <trkpt lat="44.3227" lon="6.80787">
        <ele>2761.59</ele>
        <time>2018-08-25T13:06:09Z</time>
      </trkpt>
      <trkpt lat="44.32297" lon="6.80762">
        <ele>2757.3</ele>
        <time>2018-08-25T13:06:11Z</time>
      </trkpt>
      <trkpt lat="44.32324" lon="6.8074">
        <ele>2754.18</ele>
        <time>2018-08-25T13:06:13Z</time>
      </trkpt>
      <trkpt lat="44.32349" lon="6.80724">
        <ele>2749.77</ele>
        <time>2018-08-25T13:06:15Z</time>
      </trkpt>
      <trkpt lat="44.32375" lon="6.80711">
        <ele>2745.73</ele>
        <time>2018-08-25T13:06:17Z</time>
      </trkpt>
      <trkpt lat="44.32402" lon="6.80696">
        <ele>2742.43</ele>
        <time>2018-08-25T13:06:19Z</time>
      </trkpt>
      <trkpt lat="44.32431" lon="6.80684">
        <ele>2739.19</ele>
        <time>2018-08-25T13:06:21Z</time>
      </trkpt>
      <trkpt lat="44.32462" lon="6.80677">
        <ele>2735.47</ele>
        <time>2018-08-25T13:06:23Z</time>
      </trkpt>
      <trkpt lat="44.32495" lon="6.80673">
        <ele>2732.19</ele>
        <time>2018-08-25T13:06:25Z</time>
      </trkpt>
      <trkpt lat="44.32529" lon="6.80675">
        <ele>2729.17</ele>
        <time>2018-08-25T13:06:27Z</time>
      </trkpt>
      <trkpt lat="44.32563" lon="6.80682">
        <ele>2727.08</ele>
        <time>2018-08-25T13:06:29Z</time>
      </trkpt>
      <trkpt lat="44.32592" lon="6.80691">
        <ele>2725.07</ele>
        <time>2018-08-25T13:06:31Z</time>
      </trkpt>
      <trkpt lat="44.32615" lon="6.80705">
        <ele>2722.16</ele>
        <time>2018-08-25T13:06:33Z</time>
      </trkpt>
      <trkpt lat="44.32631" lon="6.80726">
        <ele>2720.99</ele>
        <time>2018-08-25T13:06:35Z</time>
      </trkpt>
      <trkpt lat="44.32646" lon="6.80746">
        <ele>2720.71</ele>
        <time>2018-08-25T13:06:39Z</time>
      </trkpt>
      <trkpt lat="44.32668" lon="6.80764">
        <ele>2717.67</ele>
        <time>2018-08-25T13:06:53Z</time>
      </trkpt>
      <trkpt lat="44.32691" lon="6.80784">
        <ele>2715.97</ele>
        <time>2018-08-25T13:06:56Z</time>
      </trkpt>
      <trkpt lat="44.32709" lon="6.80798">
        <ele>2714.06</ele>
        <time>2018-08-25T13:06:58Z</time>
      </trkpt>
      <trkpt lat="44.32725" lon="6.80816">
        <ele>2712.07</ele>
        <time>2018-08-25T13:07:00Z</time>
      </trkpt>
      <trkpt lat="44.32744" lon="6.80841">
        <ele>2709.16</ele>
        <time>2018-08-25T13:07:02Z</time>
      </trkpt>
      <trkpt lat="44.32765" lon="6.80868">
        <ele>2707.08</ele>
        <time>2018-08-25T13:07:04Z</time>
      </trkpt>
      <trkpt lat="44.32788" lon="6.80894">
        <ele>2704.86</ele>
        <time>2018-08-25T13:07:06Z</time>
      </trkpt>
      <trkpt lat="44.32815" lon="6.80913">
        <ele>2703.05</ele>
        <time>2018-08-25T13:07:08Z</time>
      </trkpt>
      <trkpt lat="44.32841" lon="6.80935">
        <ele>2701.07</ele>
        <time>2018-08-25T13:07:10Z</time>
      </trkpt>
      <trkpt lat="44.32863" lon="6.80968">
        <ele>2698.16</ele>
        <time>2018-08-25T13:07:12Z</time>
      </trkpt>
      <trkpt lat="44.32888" lon="6.81001">
        <ele>2695.17</ele>
        <time>2018-08-25T13:07:14Z</time>
      </trkpt>
      <trkpt lat="44.32914" lon="6.81032">
        <ele>2691.47</ele>
        <time>2018-08-25T13:07:16Z</time>
      </trkpt>
      <trkpt lat="44.32936" lon="6.81054">
        <ele>2689.8</ele>
        <time>2018-08-25T13:07:18Z</time>
      </trkpt>
      <trkpt lat="44.32969" lon="6.81057">
        <ele>2687.13</ele>
        <time>2018-08-25T13:07:20Z</time>
      </trkpt>
      <trkpt lat="44.33003" lon="6.81069">
        <ele>2685.07</ele>
        <time>2018-08-25T13:07:22Z</time>
      </trkpt>
      <trkpt lat="44.33036" lon="6.81086">
        <ele>2682.16</ele>
        <time>2018-08-25T13:07:24Z</time>
      </trkpt>
      <trkpt lat="44.33061" lon="6.81115">
        <ele>2679.38</ele>
        <time>2018-08-25T13:07:26Z</time>
      </trkpt>
      <trkpt lat="44.3308" lon="6.81156">
        <ele>2677.8</ele>
        <time>2018-08-25T13:07:28Z</time>
      </trkpt>
      <trkpt lat="44.33085" lon="6.8118">
        <ele>2676.99</ele>
        <time>2018-08-25T13:07:29Z</time>
      </trkpt>
      <trkpt lat="44.33089" lon="6.81205">
        <ele>2675.34</ele>
        <time>2018-08-25T13:07:30Z</time>
      </trkpt>
      <trkpt lat="44.3309" lon="6.81231">
        <ele>2674.15</ele>
        <time>2018-08-25T13:07:31Z</time>
      </trkpt>
      <trkpt lat="44.3309" lon="6.81257">
        <ele>2672.39</ele>
        <time>2018-08-25T13:07:32Z</time>
      </trkpt>
      <trkpt lat="44.33089" lon="6.81284">
        <ele>2670.47</ele>
        <time>2018-08-25T13:07:33Z</time>
      </trkpt>
      <trkpt lat="44.33085" lon="6.81309">
        <ele>2668.49</ele>
        <time>2018-08-25T13:07:34Z</time>
      </trkpt>
      <trkpt lat="44.33079" lon="6.81333">
        <ele>2667.19</ele>
        <time>2018-08-25T13:07:35Z</time>
      </trkpt>
      <trkpt lat="44.3307" lon="6.81356">
        <ele>2666.11</ele>
        <time>2018-08-25T13:07:36Z</time>
      </trkpt>
      <trkpt lat="44.33063" lon="6.81379">
        <ele>2665.08</ele>
        <time>2018-08-25T13:07:37Z</time>
      </trkpt>
      <trkpt lat="44.33057" lon="6.81404">
        <ele>2663.37</ele>
        <time>2018-08-25T13:07:38Z</time>
      </trkpt>
      <trkpt lat="44.33052" lon="6.8143">
        <ele>2661.46</ele>
        <time>2018-08-25T13:07:39Z</time>
      </trkpt>
      <trkpt lat="44.3305" lon="6.81456">
        <ele>2659.49</ele>
        <time>2018-08-25T13:07:40Z</time>
      </trkpt>
      <trkpt lat="44.33048" lon="6.81485">
        <ele>2657.49</ele>
        <time>2018-08-25T13:07:41Z</time>
      </trkpt>
      <trkpt lat="44.33047" lon="6.81514">
        <ele>2656.2</ele>
        <time>2018-08-25T13:07:42Z</time>
      </trkpt>
      <trkpt lat="44.33046" lon="6.81543">
        <ele>2654.41</ele>
        <time>2018-08-25T13:07:43Z</time>
      </trkpt>
      <trkpt lat="44.33046" lon="6.81573">
        <ele>2652.47</ele>
        <time>2018-08-25T13:07:44Z</time>
      </trkpt>
      <trkpt lat="44.33046" lon="6.81602">
        <ele>2649.79</ele>
        <time>2018-08-25T13:07:45Z</time>
      </trkpt>
      <trkpt lat="44.33048" lon="6.81629">
        <ele>2647.58</ele>
        <time>2018-08-25T13:07:46Z</time>
      </trkpt>
      <trkpt lat="44.33052" lon="6.8167">
        <ele>2645.11</ele>
        <time>2018-08-25T13:07:48Z</time>
      </trkpt>
      <trkpt lat="44.33065" lon="6.81697">
        <ele>2643.07</ele>
        <time>2018-08-25T13:07:50Z</time>
      </trkpt>
      <trkpt lat="44.33081" lon="6.81722">
        <ele>2641.07</ele>
        <time>2018-08-25T13:07:52Z</time>
      </trkpt>
      <trkpt lat="44.33085" lon="6.81754">
        <ele>2639.77</ele>
        <time>2018-08-25T13:07:54Z</time>
      </trkpt>
      <trkpt lat="44.33081" lon="6.81798">
        <ele>2641.26</ele>
        <time>2018-08-25T13:07:56Z</time>
      </trkpt>
      <trkpt lat="44.33074" lon="6.8184">
        <ele>2640.21</ele>
        <time>2018-08-25T13:07:58Z</time>
      </trkpt>
      <trkpt lat="44.33067" lon="6.81871">
        <ele>2638.99</ele>
        <time>2018-08-25T13:08:00Z</time>
      </trkpt>
      <trkpt lat="44.33073" lon="6.81897">
        <ele>2635.45</ele>
        <time>2018-08-25T13:08:02Z</time>
      </trkpt>
      <trkpt lat="44.33074" lon="6.81931">
        <ele>2633.31</ele>
        <time>2018-08-25T13:08:04Z</time>
      </trkpt>
      <trkpt lat="44.33068" lon="6.81974">
        <ele>2629.48</ele>
        <time>2018-08-25T13:08:06Z</time>
      </trkpt>
      <trkpt lat="44.33065" lon="6.82021">
        <ele>2626.41</ele>
        <time>2018-08-25T13:08:08Z</time>
      </trkpt>
      <trkpt lat="44.33057" lon="6.82065">
        <ele>2622.49</ele>
        <time>2018-08-25T13:08:10Z</time>
      </trkpt>
      <trkpt lat="44.3305" lon="6.82098">
        <ele>2620.11</ele>
        <time>2018-08-25T13:08:12Z</time>
      </trkpt>
      <trkpt lat="44.33054" lon="6.82127">
        <ele>2618.77</ele>
        <time>2018-08-25T13:08:14Z</time>
      </trkpt>
      <trkpt lat="44.33078" lon="6.82154">
        <ele>2617.04</ele>
        <time>2018-08-25T13:08:16Z</time>
      </trkpt>
      <trkpt lat="44.33097" lon="6.82183">
        <ele>2612.55</ele>
        <time>2018-08-25T13:08:18Z</time>
      </trkpt>
      <trkpt lat="44.33099" lon="6.82224">
        <ele>2609.41</ele>
        <time>2018-08-25T13:08:20Z</time>
      </trkpt>
      <trkpt lat="44.33094" lon="6.82272">
        <ele>2607.8</ele>
        <time>2018-08-25T13:08:22Z</time>
      </trkpt>
      <trkpt lat="44.33103" lon="6.82324">
        <ele>2604.64</ele>
        <time>2018-08-25T13:08:24Z</time>
      </trkpt>
      <trkpt lat="44.33105" lon="6.82352">
        <ele>2603.24</ele>
        <time>2018-08-25T13:08:25Z</time>
      </trkpt>
      <trkpt lat="44.33103" lon="6.82378">
        <ele>2601.42</ele>
        <time>2018-08-25T13:08:26Z</time>
      </trkpt>
      <trkpt lat="44.33101" lon="6.82404">
        <ele>2600.87</ele>
        <time>2018-08-25T13:08:27Z</time>
      </trkpt>
      <trkpt lat="44.33105" lon="6.82449">
        <ele>2597.44</ele>
        <time>2018-08-25T13:08:29Z</time>
      </trkpt>
      <trkpt lat="44.33118" lon="6.82494">
        <ele>2594.4</ele>
        <time>2018-08-25T13:08:31Z</time>
      </trkpt>
      <trkpt lat="44.33127" lon="6.82518">
        <ele>2592.47</ele>
        <time>2018-08-25T13:08:32Z</time>
      </trkpt>
      <trkpt lat="44.33138" lon="6.82539">
        <ele>2590.49</ele>
        <time>2018-08-25T13:08:33Z</time>
      </trkpt>
      <trkpt lat="44.3315" lon="6.8256">
        <ele>2588.49</ele>
        <time>2018-08-25T13:08:34Z</time>
      </trkpt>
      <trkpt lat="44.33166" lon="6.826">
        <ele>2585.41</ele>
        <time>2018-08-25T13:08:36Z</time>
      </trkpt>
      <trkpt lat="44.33179" lon="6.82624">
        <ele>2584.01</ele>
        <time>2018-08-25T13:08:38Z</time>
      </trkpt>
      <trkpt lat="44.33198" lon="6.82626">
        <ele>2582.76</ele>
        <time>2018-08-25T13:08:40Z</time>
      </trkpt>
      <trkpt lat="44.3322" lon="6.82617">
        <ele>2581.74</ele>
        <time>2018-08-25T13:08:42Z</time>
      </trkpt>
      <trkpt lat="44.33242" lon="6.82625">
        <ele>2580.74</ele>
        <time>2018-08-25T13:08:44Z</time>
      </trkpt>
      <trkpt lat="44.33263" lon="6.82643">
        <ele>2578.83</ele>
        <time>2018-08-25T13:08:46Z</time>
      </trkpt>
      <trkpt lat="44.33288" lon="6.82649">
        <ele>2577.05</ele>
        <time>2018-08-25T13:08:48Z</time>
      </trkpt>
      <trkpt lat="44.33317" lon="6.82636">
        <ele>2576.68</ele>
        <time>2018-08-25T13:08:50Z</time>
      </trkpt>
      <trkpt lat="44.33344" lon="6.8261">
        <ele>2575.94</ele>
        <time>2018-08-25T13:08:52Z</time>
      </trkpt>
      <trkpt lat="44.33365" lon="6.82585">
        <ele>2574.06</ele>
        <time>2018-08-25T13:08:54Z</time>
      </trkpt>
      <trkpt lat="44.33388" lon="6.82581">
        <ele>2571.16</ele>
        <time>2018-08-25T13:08:56Z</time>
      </trkpt>
      <trkpt lat="44.33412" lon="6.82594">
        <ele>2569.08</ele>
        <time>2018-08-25T13:08:58Z</time>
      </trkpt>
      <trkpt lat="44.33439" lon="6.82589">
        <ele>2567.07</ele>
        <time>2018-08-25T13:09:00Z</time>
      </trkpt>
      <trkpt lat="44.33464" lon="6.82599">
        <ele>2566.68</ele>
        <time>2018-08-25T13:09:02Z</time>
      </trkpt>
      <trkpt lat="44.33487" lon="6.8263">
        <ele>2565.73</ele>
        <time>2018-08-25T13:09:04Z</time>
      </trkpt>
      <trkpt lat="44.335" lon="6.82647">
        <ele>2564.97</ele>
        <time>2018-08-25T13:09:05Z</time>
      </trkpt>
      <trkpt lat="44.33515" lon="6.82666">
        <ele>2564.04</ele>
        <time>2018-08-25T13:09:06Z</time>
      </trkpt>
      <trkpt lat="44.3353" lon="6.82684">
        <ele>2562.36</ele>
        <time>2018-08-25T13:09:07Z</time>
      </trkpt>
      <trkpt lat="44.33548" lon="6.827">
        <ele>2561.16</ele>
        <time>2018-08-25T13:09:08Z</time>
      </trkpt>
      <trkpt lat="44.33566" lon="6.82715">
        <ele>2560.79</ele>
        <time>2018-08-25T13:09:09Z</time>
      </trkpt>
      <trkpt lat="44.33585" lon="6.82731">
        <ele>2559.29</ele>
        <time>2018-08-25T13:09:10Z</time>
      </trkpt>
      <trkpt lat="44.33603" lon="6.82749">
        <ele>2558.13</ele>
        <time>2018-08-25T13:09:11Z</time>
      </trkpt>
      <trkpt lat="44.3362" lon="6.82767">
        <ele>2556.39</ele>
        <time>2018-08-25T13:09:12Z</time>
      </trkpt>
      <trkpt lat="44.33636" lon="6.82789">
        <ele>2554.46</ele>
        <time>2018-08-25T13:09:13Z</time>
      </trkpt>
      <trkpt lat="44.3365" lon="6.82812">
        <ele>2552.49</ele>
        <time>2018-08-25T13:09:14Z</time>
      </trkpt>
      <trkpt lat="44.33662" lon="6.82835">
        <ele>2551.19</ele>
        <time>2018-08-25T13:09:15Z</time>
      </trkpt>
      <trkpt lat="44.33674" lon="6.82859">
        <ele>2549.41</ele>
        <time>2018-08-25T13:09:16Z</time>
      </trkpt>
      <trkpt lat="44.33684" lon="6.82882">
        <ele>2548.17</ele>
        <time>2018-08-25T13:09:17Z</time>
      </trkpt>
      <trkpt lat="44.33696" lon="6.82904">
        <ele>2547.1</ele>
        <time>2018-08-25T13:09:18Z</time>
      </trkpt>
      <trkpt lat="44.33708" lon="6.82924">
        <ele>2545.38</ele>
        <time>2018-08-25T13:09:19Z</time>
      </trkpt>
      <trkpt lat="44.33721" lon="6.82943">
        <ele>2544.16</ele>
        <time>2018-08-25T13:09:20Z</time>
      </trkpt>
      <trkpt lat="44.33736" lon="6.82963">
        <ele>2542.4</ele>
        <time>2018-08-25T13:09:21Z</time>
      </trkpt>
      <trkpt lat="44.3375" lon="6.82982">
        <ele>2540.47</ele>
        <time>2018-08-25T13:09:22Z</time>
      </trkpt>
      <trkpt lat="44.33766" lon="6.83">
        <ele>2538.49</ele>
        <time>2018-08-25T13:09:23Z</time>
      </trkpt>
      <trkpt lat="44.33781" lon="6.83018">
        <ele>2537.19</ele>
        <time>2018-08-25T13:09:24Z</time>
      </trkpt>
      <trkpt lat="44.33795" lon="6.83036">
        <ele>2536.81</ele>
        <time>2018-08-25T13:09:25Z</time>
      </trkpt>
      <trkpt lat="44.3381" lon="6.83053">
        <ele>2535.29</ele>
        <time>2018-08-25T13:09:26Z</time>
      </trkpt>
      <trkpt lat="44.33825" lon="6.83069">
        <ele>2534.14</ele>
        <time>2018-08-25T13:09:27Z</time>
      </trkpt>
      <trkpt lat="44.33855" lon="6.83092">
        <ele>2532.07</ele>
        <time>2018-08-25T13:09:29Z</time>
      </trkpt>
      <trkpt lat="44.33873" lon="6.831">
        <ele>2531.07</ele>
        <time>2018-08-25T13:09:30Z</time>
      </trkpt>
      <trkpt lat="44.33893" lon="6.83106">
        <ele>2530.07</ele>
        <time>2018-08-25T13:09:31Z</time>
      </trkpt>
      <trkpt lat="44.33914" lon="6.83111">
        <ele>2528.37</ele>
        <time>2018-08-25T13:09:32Z</time>
      </trkpt>
      <trkpt lat="44.33935" lon="6.83118">
        <ele>2527.16</ele>
        <time>2018-08-25T13:09:33Z</time>
      </trkpt>
      <trkpt lat="44.33954" lon="6.83127">
        <ele>2526.1</ele>
        <time>2018-08-25T13:09:34Z</time>
      </trkpt>
      <trkpt lat="44.33974" lon="6.83137">
        <ele>2525.78</ele>
        <time>2018-08-25T13:09:35Z</time>
      </trkpt>
      <trkpt lat="44.33991" lon="6.83149">
        <ele>2524.98</ele>
        <time>2018-08-25T13:09:36Z</time>
      </trkpt>
      <trkpt lat="44.34022" lon="6.8317">
        <ele>2522.15</ele>
        <time>2018-08-25T13:09:38Z</time>
      </trkpt>
      <trkpt lat="44.34045" lon="6.83193">
        <ele>2519.38</ele>
        <time>2018-08-25T13:09:40Z</time>
      </trkpt>
      <trkpt lat="44.34058" lon="6.83221">
        <ele>2518.71</ele>
        <time>2018-08-25T13:09:42Z</time>
      </trkpt>
      <trkpt lat="44.34041" lon="6.83245">
        <ele>2517.04</ele>
        <time>2018-08-25T13:09:44Z</time>
      </trkpt>
      <trkpt lat="44.34024" lon="6.83266">
        <ele>2515.07</ele>
        <time>2018-08-25T13:09:46Z</time>
      </trkpt>
      <trkpt lat="44.34021" lon="6.83304">
        <ele>2514.68</ele>
        <time>2018-08-25T13:09:48Z</time>
      </trkpt>
      <trkpt lat="44.34013" lon="6.83348">
        <ele>2513.03</ele>
        <time>2018-08-25T13:09:50Z</time>
      </trkpt>
      <trkpt lat="44.34004" lon="6.83392">
        <ele>2511.07</ele>
        <time>2018-08-25T13:09:52Z</time>
      </trkpt>
      <trkpt lat="44.34007" lon="6.8344">
        <ele>2508.16</ele>
        <time>2018-08-25T13:09:54Z</time>
      </trkpt>
      <trkpt lat="44.3401" lon="6.83465">
        <ele>2507.1</ele>
        <time>2018-08-25T13:09:55Z</time>
      </trkpt>
      <trkpt lat="44.3401" lon="6.8351">
        <ele>2505.07</ele>
        <time>2018-08-25T13:09:57Z</time>
      </trkpt>
      <trkpt lat="44.34015" lon="6.83544">
        <ele>2503.07</ele>
        <time>2018-08-25T13:09:59Z</time>
      </trkpt>
      <trkpt lat="44.34031" lon="6.8357">
        <ele>2502.68</ele>
        <time>2018-08-25T13:10:01Z</time>
      </trkpt>
      <trkpt lat="44.34043" lon="6.83596">
        <ele>2501.03</ele>
        <time>2018-08-25T13:10:03Z</time>
      </trkpt>
      <trkpt lat="44.34044" lon="6.83625">
        <ele>2499.98</ele>
        <time>2018-08-25T13:10:05Z</time>
      </trkpt>
      <trkpt lat="44.3404" lon="6.83654">
        <ele>2498.76</ele>
        <time>2018-08-25T13:10:07Z</time>
      </trkpt>
      <trkpt lat="44.34042" lon="6.83682">
        <ele>2497.95</ele>
        <time>2018-08-25T13:10:09Z</time>
      </trkpt>
      <trkpt lat="44.34052" lon="6.83714">
        <ele>2497.67</ele>
        <time>2018-08-25T13:10:11Z</time>
      </trkpt>
      <trkpt lat="44.34066" lon="6.83735">
        <ele>2496.95</ele>
        <time>2018-08-25T13:10:12Z</time>
      </trkpt>
      <trkpt lat="44.34083" lon="6.83767">
        <ele>2496.67</ele>
        <time>2018-08-25T13:10:14Z</time>
      </trkpt>
      <trkpt lat="44.34087" lon="6.83796">
        <ele>2494.82</ele>
        <time>2018-08-25T13:10:16Z</time>
      </trkpt>
      <trkpt lat="44.34078" lon="6.83821">
        <ele>2494.66</ele>
        <time>2018-08-25T13:10:18Z</time>
      </trkpt>
      <trkpt lat="44.34061" lon="6.8385">
        <ele>2492.12</ele>
        <time>2018-08-25T13:10:20Z</time>
      </trkpt>
      <trkpt lat="44.34059" lon="6.83895">
        <ele>2489.86</ele>
        <time>2018-08-25T13:10:22Z</time>
      </trkpt>
      <trkpt lat="44.34062" lon="6.83932">
        <ele>2488.05</ele>
        <time>2018-08-25T13:10:24Z</time>
      </trkpt>
      <trkpt lat="44.34079" lon="6.83981">
        <ele>2486.07</ele>
        <time>2018-08-25T13:10:26Z</time>
      </trkpt>
      <trkpt lat="44.34086" lon="6.84004">
        <ele>2485.07</ele>
        <time>2018-08-25T13:10:27Z</time>
      </trkpt>
      <trkpt lat="44.34087" lon="6.84047">
        <ele>2481.67</ele>
        <time>2018-08-25T13:10:29Z</time>
      </trkpt>
      <trkpt lat="44.34072" lon="6.84089">
        <ele>2480.73</ele>
        <time>2018-08-25T13:10:31Z</time>
      </trkpt>
      <trkpt lat="44.34059" lon="6.84128">
        <ele>2479.04</ele>
        <time>2018-08-25T13:10:33Z</time>
      </trkpt>
      <trkpt lat="44.34057" lon="6.84172">
        <ele>2477.07</ele>
        <time>2018-08-25T13:10:35Z</time>
      </trkpt>
      <trkpt lat="44.34055" lon="6.84218">
        <ele>2475.07</ele>
        <time>2018-08-25T13:10:37Z</time>
      </trkpt>
      <trkpt lat="44.34053" lon="6.8426">
        <ele>2472.37</ele>
        <time>2018-08-25T13:10:39Z</time>
      </trkpt>
      <trkpt lat="44.34056" lon="6.84296">
        <ele>2474.23</ele>
        <time>2018-08-25T13:10:41Z</time>
      </trkpt>
      <trkpt lat="44.34084" lon="6.84336">
        <ele>2473.69</ele>
        <time>2018-08-25T13:10:43Z</time>
      </trkpt>
      <trkpt lat="44.34099" lon="6.84355">
        <ele>2472.26</ele>
        <time>2018-08-25T13:10:44Z</time>
      </trkpt>
      <trkpt lat="44.34118" lon="6.84371">
        <ele>2470.42</ele>
        <time>2018-08-25T13:10:45Z</time>
      </trkpt>
      <trkpt lat="44.34136" lon="6.84389">
        <ele>2467.78</ele>
        <time>2018-08-25T13:10:46Z</time>
      </trkpt>
      <trkpt lat="44.34153" lon="6.84407">
        <ele>2465.58</ele>
        <time>2018-08-25T13:10:47Z</time>
      </trkpt>
      <trkpt lat="44.3417" lon="6.84427">
        <ele>2463.52</ele>
        <time>2018-08-25T13:10:48Z</time>
      </trkpt>
      <trkpt lat="44.34184" lon="6.84447">
        <ele>2460.8</ele>
        <time>2018-08-25T13:10:49Z</time>
      </trkpt>
      <trkpt lat="44.34195" lon="6.84471">
        <ele>2459.29</ele>
        <time>2018-08-25T13:10:50Z</time>
      </trkpt>
      <trkpt lat="44.34204" lon="6.84497">
        <ele>2457.43</ele>
        <time>2018-08-25T13:10:51Z</time>
      </trkpt>
      <trkpt lat="44.34214" lon="6.84524">
        <ele>2456.18</ele>
        <time>2018-08-25T13:10:52Z</time>
      </trkpt>
      <trkpt lat="44.34224" lon="6.84546">
        <ele>2454.4</ele>
        <time>2018-08-25T13:10:53Z</time>
      </trkpt>
      <trkpt lat="44.34235" lon="6.84582">
        <ele>2452.8</ele>
        <time>2018-08-25T13:10:55Z</time>
      </trkpt>
      <trkpt lat="44.34225" lon="6.84609">
        <ele>2450.83</ele>
        <time>2018-08-25T13:10:57Z</time>
      </trkpt>
      <trkpt lat="44.34201" lon="6.84638">
        <ele>2449.05</ele>
        <time>2018-08-25T13:10:59Z</time>
      </trkpt>
      <trkpt lat="44.34178" lon="6.84668">
        <ele>2446.16</ele>
        <time>2018-08-25T13:11:01Z</time>
      </trkpt>
      <trkpt lat="44.34162" lon="6.84698">
        <ele>2445.69</ele>
        <time>2018-08-25T13:11:03Z</time>
      </trkpt>
      <trkpt lat="44.34156" lon="6.84729">
        <ele>2444.24</ele>
        <time>2018-08-25T13:11:05Z</time>
      </trkpt>
      <trkpt lat="44.3414" lon="6.84743">
        <ele>2442.99</ele>
        <time>2018-08-25T13:11:07Z</time>
      </trkpt>
      <trkpt lat="44.34112" lon="6.84748">
        <ele>2440.85</ele>
        <time>2018-08-25T13:11:09Z</time>
      </trkpt>
      <trkpt lat="44.34088" lon="6.8476">
        <ele>2440.66</ele>
        <time>2018-08-25T13:11:11Z</time>
      </trkpt>
      <trkpt lat="44.34074" lon="6.84778">
        <ele>2439.95</ele>
        <time>2018-08-25T13:11:12Z</time>
      </trkpt>
      <trkpt lat="44.34059" lon="6.84793">
        <ele>2439.03</ele>
        <time>2018-08-25T13:11:13Z</time>
      </trkpt>
      <trkpt lat="44.34041" lon="6.84825">
        <ele>2437.98</ele>
        <time>2018-08-25T13:11:15Z</time>
      </trkpt>
      <trkpt lat="44.3403" lon="6.84866">
        <ele>2436.76</ele>
        <time>2018-08-25T13:11:17Z</time>
      </trkpt>
      <trkpt lat="44.34022" lon="6.84901">
        <ele>2434.34</ele>
        <time>2018-08-25T13:11:19Z</time>
      </trkpt>
      <trkpt lat="44.34023" lon="6.84933">
        <ele>2433</ele>
        <time>2018-08-25T13:11:21Z</time>
      </trkpt>
      <trkpt lat="44.34016" lon="6.84969">
        <ele>2432.67</ele>
        <time>2018-08-25T13:11:23Z</time>
      </trkpt>
      <trkpt lat="44.33991" lon="6.84993">
        <ele>2431.03</ele>
        <time>2018-08-25T13:11:25Z</time>
      </trkpt>
      <trkpt lat="44.33974" lon="6.85002">
        <ele>2429.36</ele>
        <time>2018-08-25T13:11:26Z</time>
      </trkpt>
      <trkpt lat="44.33947" lon="6.85017">
        <ele>2428</ele>
        <time>2018-08-25T13:11:28Z</time>
      </trkpt>
      <trkpt lat="44.33924" lon="6.85008">
        <ele>2425.65</ele>
        <time>2018-08-25T13:11:29Z</time>
      </trkpt>
      <trkpt lat="44.33889" lon="6.85011">
        <ele>2422.21</ele>
        <time>2018-08-25T13:11:31Z</time>
      </trkpt>
      <trkpt lat="44.33869" lon="6.85023">
        <ele>2420.41</ele>
        <time>2018-08-25T13:11:32Z</time>
      </trkpt>
      <trkpt lat="44.33848" lon="6.85036">
        <ele>2419.17</ele>
        <time>2018-08-25T13:11:33Z</time>
      </trkpt>
      <trkpt lat="44.33828" lon="6.85045">
        <ele>2416.7</ele>
        <time>2018-08-25T13:11:34Z</time>
      </trkpt>
      <trkpt lat="44.33808" lon="6.85053">
        <ele>2414.56</ele>
        <time>2018-08-25T13:11:35Z</time>
      </trkpt>
      <trkpt lat="44.33789" lon="6.85054">
        <ele>2413.22</ele>
        <time>2018-08-25T13:11:36Z</time>
      </trkpt>
      <trkpt lat="44.33771" lon="6.85047">
        <ele>2412.11</ele>
        <time>2018-08-25T13:11:37Z</time>
      </trkpt>
      <trkpt lat="44.33753" lon="6.85041">
        <ele>2410.38</ele>
        <time>2018-08-25T13:11:38Z</time>
      </trkpt>
      <trkpt lat="44.33718" lon="6.8504">
        <ele>2407.4</ele>
        <time>2018-08-25T13:11:40Z</time>
      </trkpt>
      <trkpt lat="44.33698" lon="6.85039">
        <ele>2404.77</ele>
        <time>2018-08-25T13:11:41Z</time>
      </trkpt>
      <trkpt lat="44.33679" lon="6.85032">
        <ele>2403.28</ele>
        <time>2018-08-25T13:11:42Z</time>
      </trkpt>
      <trkpt lat="44.33651" lon="6.85015">
        <ele>2399.48</ele>
        <time>2018-08-25T13:11:44Z</time>
      </trkpt>
      <trkpt lat="44.33628" lon="6.85009">
        <ele>2396.2</ele>
        <time>2018-08-25T13:11:46Z</time>
      </trkpt>
      <trkpt lat="44.33606" lon="6.85021">
        <ele>2393.17</ele>
        <time>2018-08-25T13:11:48Z</time>
      </trkpt>
      <trkpt lat="44.33597" lon="6.85046">
        <ele>2392.1</ele>
        <time>2018-08-25T13:11:49Z</time>
      </trkpt>
      <trkpt lat="44.33569" lon="6.85068">
        <ele>2386.43</ele>
        <time>2018-08-25T13:11:51Z</time>
      </trkpt>
      <trkpt lat="44.33534" lon="6.85076">
        <ele>2385.01</ele>
        <time>2018-08-25T13:11:53Z</time>
      </trkpt>
      <trkpt lat="44.3351" lon="6.8506">
        <ele>2382.65</ele>
        <time>2018-08-25T13:11:54Z</time>
      </trkpt>
      <trkpt lat="44.33492" lon="6.85051">
        <ele>2379.84</ele>
        <time>2018-08-25T13:11:55Z</time>
      </trkpt>
      <trkpt lat="44.33462" lon="6.8504">
        <ele>2374.41</ele>
        <time>2018-08-25T13:11:57Z</time>
      </trkpt>
      <trkpt lat="44.33427" lon="6.85037">
        <ele>2368.88</ele>
        <time>2018-08-25T13:11:59Z</time>
      </trkpt>
      <trkpt lat="44.33407" lon="6.85036">
        <ele>2366.61</ele>
        <time>2018-08-25T13:12:00Z</time>
      </trkpt>
      <trkpt lat="44.33387" lon="6.85035">
        <ele>2365.23</ele>
        <time>2018-08-25T13:12:01Z</time>
      </trkpt>
      <trkpt lat="44.33368" lon="6.85037">
        <ele>2362.72</ele>
        <time>2018-08-25T13:12:02Z</time>
      </trkpt>
      <trkpt lat="44.33349" lon="6.8504">
        <ele>2360.56</ele>
        <time>2018-08-25T13:12:03Z</time>
      </trkpt>
      <trkpt lat="44.33316" lon="6.85054">
        <ele>2357.2</ele>
        <time>2018-08-25T13:12:05Z</time>
      </trkpt>
      <trkpt lat="44.33293" lon="6.85072">
        <ele>2354.87</ele>
        <time>2018-08-25T13:12:07Z</time>
      </trkpt>
      <trkpt lat="44.33279" lon="6.85101">
        <ele>2352.14</ele>
        <time>2018-08-25T13:12:09Z</time>
      </trkpt>
      <trkpt lat="44.33275" lon="6.85133">
        <ele>2349.86</ele>
        <time>2018-08-25T13:12:11Z</time>
      </trkpt>
      <trkpt lat="44.33277" lon="6.85177">
        <ele>2346.44</ele>
        <time>2018-08-25T13:12:13Z</time>
      </trkpt>
      <trkpt lat="44.33273" lon="6.85217">
        <ele>2343.19</ele>
        <time>2018-08-25T13:12:15Z</time>
      </trkpt>
      <trkpt lat="44.33257" lon="6.85257">
        <ele>2339.47</ele>
        <time>2018-08-25T13:12:17Z</time>
      </trkpt>
      <trkpt lat="44.33243" lon="6.85287">
        <ele>2337.1</ele>
        <time>2018-08-25T13:12:19Z</time>
      </trkpt>
      <trkpt lat="44.33244" lon="6.85321">
        <ele>2335.07</ele>
        <time>2018-08-25T13:12:21Z</time>
      </trkpt>
      <trkpt lat="44.33237" lon="6.8536">
        <ele>2332.16</ele>
        <time>2018-08-25T13:12:23Z</time>
      </trkpt>
      <trkpt lat="44.33226" lon="6.85406">
        <ele>2330.08</ele>
        <time>2018-08-25T13:12:25Z</time>
      </trkpt>
      <trkpt lat="44.33215" lon="6.8545">
        <ele>2328.07</ele>
        <time>2018-08-25T13:12:27Z</time>
      </trkpt>
      <trkpt lat="44.33207" lon="6.85481">
        <ele>2325.16</ele>
        <time>2018-08-25T13:12:29Z</time>
      </trkpt>
      <trkpt lat="44.33215" lon="6.85515">
        <ele>2323.08</ele>
        <time>2018-08-25T13:12:31Z</time>
      </trkpt>
      <trkpt lat="44.33228" lon="6.8556">
        <ele>2321.77</ele>
        <time>2018-08-25T13:12:33Z</time>
      </trkpt>
      <trkpt lat="44.33233" lon="6.85588">
        <ele>2320.98</ele>
        <time>2018-08-25T13:12:34Z</time>
      </trkpt>
      <trkpt lat="44.33238" lon="6.85616">
        <ele>2320.74</ele>
        <time>2018-08-25T13:12:35Z</time>
      </trkpt>
      <trkpt lat="44.3324" lon="6.85645">
        <ele>2319.97</ele>
        <time>2018-08-25T13:12:36Z</time>
      </trkpt>
      <trkpt lat="44.3324" lon="6.85674">
        <ele>2318.34</ele>
        <time>2018-08-25T13:12:37Z</time>
      </trkpt>
      <trkpt lat="44.3324" lon="6.85702">
        <ele>2317.15</ele>
        <time>2018-08-25T13:12:38Z</time>
      </trkpt>
      <trkpt lat="44.33238" lon="6.8573">
        <ele>2316.09</ele>
        <time>2018-08-25T13:12:39Z</time>
      </trkpt>
      <trkpt lat="44.33237" lon="6.85757">
        <ele>2314.38</ele>
        <time>2018-08-25T13:12:40Z</time>
      </trkpt>
      <trkpt lat="44.33235" lon="6.85785">
        <ele>2312.46</ele>
        <time>2018-08-25T13:12:41Z</time>
      </trkpt>
      <trkpt lat="44.33232" lon="6.85812">
        <ele>2311.19</ele>
        <time>2018-08-25T13:12:42Z</time>
      </trkpt>
      <trkpt lat="44.33226" lon="6.85838">
        <ele>2309.4</ele>
        <time>2018-08-25T13:12:43Z</time>
      </trkpt>
      <trkpt lat="44.33221" lon="6.85865">
        <ele>2308.17</ele>
        <time>2018-08-25T13:12:44Z</time>
      </trkpt>
      <trkpt lat="44.33218" lon="6.85892">
        <ele>2307.1</ele>
        <time>2018-08-25T13:12:45Z</time>
      </trkpt>
      <trkpt lat="44.33212" lon="6.85918">
        <ele>2306.08</ele>
        <time>2018-08-25T13:12:46Z</time>
      </trkpt>
      <trkpt lat="44.33206" lon="6.85943">
        <ele>2304.37</ele>
        <time>2018-08-25T13:12:47Z</time>
      </trkpt>
      <trkpt lat="44.33198" lon="6.85966">
        <ele>2303.16</ele>
        <time>2018-08-25T13:12:48Z</time>
      </trkpt>
      <trkpt lat="44.33189" lon="6.85989">
        <ele>2301.4</ele>
        <time>2018-08-25T13:12:49Z</time>
      </trkpt>
      <trkpt lat="44.33171" lon="6.86023">
        <ele>2298.19</ele>
        <time>2018-08-25T13:12:51Z</time>
      </trkpt>
      <trkpt lat="44.3316" lon="6.86046">
        <ele>2298.18</ele>
        <time>2018-08-25T13:12:53Z</time>
      </trkpt>
      <trkpt lat="44.33166" lon="6.8607">
        <ele>2297.9</ele>
        <time>2018-08-25T13:12:55Z</time>
      </trkpt>
      <trkpt lat="44.33179" lon="6.86096">
        <ele>2295.35</ele>
        <time>2018-08-25T13:12:57Z</time>
      </trkpt>
      <trkpt lat="44.33201" lon="6.8612">
        <ele>2292.39</ele>
        <time>2018-08-25T13:12:59Z</time>
      </trkpt>
      <trkpt lat="44.33223" lon="6.86148">
        <ele>2290.31</ele>
        <time>2018-08-25T13:13:01Z</time>
      </trkpt>
      <trkpt lat="44.33244" lon="6.86181">
        <ele>2288.09</ele>
        <time>2018-08-25T13:13:03Z</time>
      </trkpt>
      <trkpt lat="44.33266" lon="6.86214">
        <ele>2286.07</ele>
        <time>2018-08-25T13:13:05Z</time>
      </trkpt>
      <trkpt lat="44.3329" lon="6.8624">
        <ele>2284.07</ele>
        <time>2018-08-25T13:13:07Z</time>
      </trkpt>
      <trkpt lat="44.33314" lon="6.86264">
        <ele>2281.37</ele>
        <time>2018-08-25T13:13:09Z</time>
      </trkpt>
      <trkpt lat="44.33338" lon="6.86289">
        <ele>2279.8</ele>
        <time>2018-08-25T13:13:11Z</time>
      </trkpt>
      <trkpt lat="44.33362" lon="6.86313">
        <ele>2277.34</ele>
        <time>2018-08-25T13:13:13Z</time>
      </trkpt>
      <trkpt lat="44.33383" lon="6.86339">
        <ele>2274.18</ele>
        <time>2018-08-25T13:13:15Z</time>
      </trkpt>
      <trkpt lat="44.3339" lon="6.86371">
        <ele>2272.99</ele>
        <time>2018-08-25T13:13:17Z</time>
      </trkpt>
      <trkpt lat="44.33386" lon="6.86404">
        <ele>2272.67</ele>
        <time>2018-08-25T13:13:19Z</time>
      </trkpt>
      <trkpt lat="44.3338" lon="6.86432">
        <ele>2272.64</ele>
        <time>2018-08-25T13:13:21Z</time>
      </trkpt>
      <trkpt lat="44.33374" lon="6.86457">
        <ele>2272.64</ele>
        <time>2018-08-25T13:13:23Z</time>
      </trkpt>
      <trkpt lat="44.33372" lon="6.86493">
        <ele>2272.64</ele>
        <time>2018-08-25T13:13:26Z</time>
      </trkpt>
      <trkpt lat="44.33374" lon="6.86529">
        <ele>2271.03</ele>
        <time>2018-08-25T13:13:29Z</time>
      </trkpt>
      <trkpt lat="44.33375" lon="6.86557">
        <ele>2269.77</ele>
        <time>2018-08-25T13:13:31Z</time>
      </trkpt>
      <trkpt lat="44.33373" lon="6.86587">
        <ele>2268.74</ele>
        <time>2018-08-25T13:13:33Z</time>
      </trkpt>
      <trkpt lat="44.33365" lon="6.86617">
        <ele>2267.74</ele>
        <time>2018-08-25T13:13:35Z</time>
      </trkpt>
      <trkpt lat="44.3335" lon="6.86647">
        <ele>2266.04</ele>
        <time>2018-08-25T13:13:37Z</time>
      </trkpt>
      <trkpt lat="44.33333" lon="6.86677">
        <ele>2263.16</ele>
        <time>2018-08-25T13:13:39Z</time>
      </trkpt>
      <trkpt lat="44.33325" lon="6.8671">
        <ele>2261.08</ele>
        <time>2018-08-25T13:13:41Z</time>
      </trkpt>
      <trkpt lat="44.33326" lon="6.8675">
        <ele>2259.07</ele>
        <time>2018-08-25T13:13:43Z</time>
      </trkpt>
      <trkpt lat="44.33333" lon="6.86778">
        <ele>2258.07</ele>
        <time>2018-08-25T13:13:44Z</time>
      </trkpt>
      <trkpt lat="44.33336" lon="6.86819">
        <ele>2255.16</ele>
        <time>2018-08-25T13:13:46Z</time>
      </trkpt>
      <trkpt lat="44.33329" lon="6.86859">
        <ele>2253.78</ele>
        <time>2018-08-25T13:13:48Z</time>
      </trkpt>
      <trkpt lat="44.33311" lon="6.86877">
        <ele>2250.64</ele>
        <time>2018-08-25T13:13:50Z</time>
      </trkpt>
      <trkpt lat="44.33294" lon="6.86868">
        <ele>2249.24</ele>
        <time>2018-08-25T13:13:51Z</time>
      </trkpt>
      <trkpt lat="44.3328" lon="6.86852">
        <ele>2247.99</ele>
        <time>2018-08-25T13:13:53Z</time>
      </trkpt>
      <trkpt lat="44.33285" lon="6.86827">
        <ele>2246.06</ele>
        <time>2018-08-25T13:13:55Z</time>
      </trkpt>
      <trkpt lat="44.33297" lon="6.86798">
        <ele>2243.16</ele>
        <time>2018-08-25T13:13:57Z</time>
      </trkpt>
      <trkpt lat="44.33295" lon="6.86762">
        <ele>2241.08</ele>
        <time>2018-08-25T13:13:59Z</time>
      </trkpt>
      <trkpt lat="44.33279" lon="6.86737">
        <ele>2239.07</ele>
        <time>2018-08-25T13:14:01Z</time>
      </trkpt>
      <trkpt lat="44.33259" lon="6.86729">
        <ele>2237.07</ele>
        <time>2018-08-25T13:14:03Z</time>
      </trkpt>
      <trkpt lat="44.3323" lon="6.86735">
        <ele>2233.46</ele>
        <time>2018-08-25T13:14:05Z</time>
      </trkpt>
      <trkpt lat="44.3321" lon="6.86715">
        <ele>2231.1</ele>
        <time>2018-08-25T13:14:07Z</time>
      </trkpt>
      <trkpt lat="44.33192" lon="6.86683">
        <ele>2229.77</ele>
        <time>2018-08-25T13:14:09Z</time>
      </trkpt>
      <trkpt lat="44.33182" lon="6.86658">
        <ele>2229.86</ele>
        <time>2018-08-25T13:14:11Z</time>
      </trkpt>
      <trkpt lat="44.33162" lon="6.86665">
        <ele>2226.83</ele>
        <time>2018-08-25T13:14:15Z</time>
      </trkpt>
      <trkpt lat="44.33175" lon="6.86727">
        <ele>2226.43</ele>
        <time>2018-08-25T13:14:18Z</time>
      </trkpt>
      <trkpt lat="44.33178" lon="6.86773">
        <ele>2223.4</ele>
        <time>2018-08-25T13:14:20Z</time>
      </trkpt>
      <trkpt lat="44.33173" lon="6.8682">
        <ele>2219.7</ele>
        <time>2018-08-25T13:14:22Z</time>
      </trkpt>
      <trkpt lat="44.33146" lon="6.8685">
        <ele>2217.83</ele>
        <time>2018-08-25T13:14:24Z</time>
      </trkpt>
      <trkpt lat="44.33111" lon="6.86859">
        <ele>2216.3</ele>
        <time>2018-08-25T13:14:25Z</time>
      </trkpt>
      <trkpt lat="44.33088" lon="6.86862">
        <ele>2213.74</ele>
        <time>2018-08-25T13:14:26Z</time>
      </trkpt>
      <trkpt lat="44.33067" lon="6.86866">
        <ele>2211.57</ele>
        <time>2018-08-25T13:14:27Z</time>
      </trkpt>
      <trkpt lat="44.33044" lon="6.86873">
        <ele>2209.52</ele>
        <time>2018-08-25T13:14:28Z</time>
      </trkpt>
      <trkpt lat="44.33022" lon="6.86874">
        <ele>2206.8</ele>
        <time>2018-08-25T13:14:29Z</time>
      </trkpt>
      <trkpt lat="44.33" lon="6.86868">
        <ele>2204.59</ele>
        <time>2018-08-25T13:14:30Z</time>
      </trkpt>
      <trkpt lat="44.32977" lon="6.86859">
        <ele>2202.52</ele>
        <time>2018-08-25T13:14:31Z</time>
      </trkpt>
      <trkpt lat="44.32954" lon="6.8685">
        <ele>2199.81</ele>
        <time>2018-08-25T13:14:32Z</time>
      </trkpt>
      <trkpt lat="44.32932" lon="6.86844">
        <ele>2196.89</ele>
        <time>2018-08-25T13:14:33Z</time>
      </trkpt>
      <trkpt lat="44.32913" lon="6.86838">
        <ele>2194.61</ele>
        <time>2018-08-25T13:14:34Z</time>
      </trkpt>
      <trkpt lat="44.32883" lon="6.86826">
        <ele>2191.21</ele>
        <time>2018-08-25T13:14:36Z</time>
      </trkpt>
      <trkpt lat="44.32865" lon="6.86803">
        <ele>2188.07</ele>
        <time>2018-08-25T13:14:39Z</time>
      </trkpt>
      <trkpt lat="44.32889" lon="6.86811">
        <ele>2186.74</ele>
        <time>2018-08-25T13:14:42Z</time>
      </trkpt>
      <trkpt lat="44.3292" lon="6.86818">
        <ele>2185.74</ele>
        <time>2018-08-25T13:14:44Z</time>
      </trkpt>
      <trkpt lat="44.32938" lon="6.86816">
        <ele>2185.67</ele>
        <time>2018-08-25T13:14:45Z</time>
      </trkpt>
      <trkpt lat="44.32957" lon="6.86811">
        <ele>2184.95</ele>
        <time>2018-08-25T13:14:46Z</time>
      </trkpt>
      <trkpt lat="44.32975" lon="6.86805">
        <ele>2184.73</ele>
        <time>2018-08-25T13:14:47Z</time>
      </trkpt>
      <trkpt lat="44.33005" lon="6.86788">
        <ele>2183.04</ele>
        <time>2018-08-25T13:14:49Z</time>
      </trkpt>
      <trkpt lat="44.3302" lon="6.86763">
        <ele>2181.77</ele>
        <time>2018-08-25T13:14:51Z</time>
      </trkpt>
      <trkpt lat="44.33021" lon="6.86736">
        <ele>2181.65</ele>
        <time>2018-08-25T13:14:53Z</time>
      </trkpt>
      <trkpt lat="44.33" lon="6.86706">
        <ele>2180.94</ele>
        <time>2018-08-25T13:14:54Z</time>
      </trkpt>
      <trkpt lat="44.32991" lon="6.86683">
        <ele>2180.03</ele>
        <time>2018-08-25T13:14:55Z</time>
      </trkpt>
      <trkpt lat="44.32981" lon="6.86657">
        <ele>2178.36</ele>
        <time>2018-08-25T13:14:56Z</time>
      </trkpt>
      <trkpt lat="44.3297" lon="6.86631">
        <ele>2177.16</ele>
        <time>2018-08-25T13:14:57Z</time>
      </trkpt>
      <trkpt lat="44.32961" lon="6.86606">
        <ele>2175.39</ele>
        <time>2018-08-25T13:14:58Z</time>
      </trkpt>
      <trkpt lat="44.32951" lon="6.8658">
        <ele>2173.47</ele>
        <time>2018-08-25T13:14:59Z</time>
      </trkpt>
      <trkpt lat="44.3294" lon="6.86557">
        <ele>2172.19</ele>
        <time>2018-08-25T13:15:00Z</time>
      </trkpt>
      <trkpt lat="44.32925" lon="6.86536">
        <ele>2170.4</ele>
        <time>2018-08-25T13:15:01Z</time>
      </trkpt>
      <trkpt lat="44.32911" lon="6.86515">
        <ele>2169.17</ele>
        <time>2018-08-25T13:15:02Z</time>
      </trkpt>
      <trkpt lat="44.32897" lon="6.86495">
        <ele>2167.4</ele>
        <time>2018-08-25T13:15:03Z</time>
      </trkpt>
      <trkpt lat="44.32877" lon="6.8646">
        <ele>2166.01</ele>
        <time>2018-08-25T13:15:05Z</time>
      </trkpt>
      <trkpt lat="44.32873" lon="6.86427">
        <ele>2164.06</ele>
        <time>2018-08-25T13:15:07Z</time>
      </trkpt>
      <trkpt lat="44.32885" lon="6.86384">
        <ele>2161.58</ele>
        <time>2018-08-25T13:15:09Z</time>
      </trkpt>
      <trkpt lat="44.32881" lon="6.86338">
        <ele>2158.2</ele>
        <time>2018-08-25T13:15:11Z</time>
      </trkpt>
      <trkpt lat="44.32884" lon="6.863">
        <ele>2154.26</ele>
        <time>2018-08-25T13:15:13Z</time>
      </trkpt>
      <trkpt lat="44.32877" lon="6.86269">
        <ele>2151.07</ele>
        <time>2018-08-25T13:15:16Z</time>
      </trkpt>
      <trkpt lat="44.3285" lon="6.86295">
        <ele>2148.76</ele>
        <time>2018-08-25T13:15:20Z</time>
      </trkpt>
      <trkpt lat="44.32837" lon="6.86322">
        <ele>2148.68</ele>
        <time>2018-08-25T13:15:21Z</time>
      </trkpt>
      <trkpt lat="44.3283" lon="6.86347">
        <ele>2147.95</ele>
        <time>2018-08-25T13:15:22Z</time>
      </trkpt>
      <trkpt lat="44.32805" lon="6.86369">
        <ele>2144.24</ele>
        <time>2018-08-25T13:15:24Z</time>
      </trkpt>
      <trkpt lat="44.32777" lon="6.86373">
        <ele>2140.68</ele>
        <time>2018-08-25T13:15:26Z</time>
      </trkpt>
      <trkpt lat="44.3275" lon="6.86406">
        <ele>2137.91</ele>
        <time>2018-08-25T13:15:28Z</time>
      </trkpt>
      <trkpt lat="44.32737" lon="6.86427">
        <ele>2137.02</ele>
        <time>2018-08-25T13:15:29Z</time>
      </trkpt>
      <trkpt lat="44.32725" lon="6.8645">
        <ele>2136.05</ele>
        <time>2018-08-25T13:15:30Z</time>
      </trkpt>
      <trkpt lat="44.32708" lon="6.86493">
        <ele>2132.25</ele>
        <time>2018-08-25T13:15:32Z</time>
      </trkpt>
      <trkpt lat="44.32686" lon="6.865">
        <ele>2125.45</ele>
        <time>2018-08-25T13:15:35Z</time>
      </trkpt>
      <trkpt lat="44.32684" lon="6.86462">
        <ele>2121.17</ele>
        <time>2018-08-25T13:15:38Z</time>
      </trkpt>
      <trkpt lat="44.32699" lon="6.86427">
        <ele>2119.08</ele>
        <time>2018-08-25T13:15:40Z</time>
      </trkpt>
      <trkpt lat="44.32709" lon="6.86384">
        <ele>2115.46</ele>
        <time>2018-08-25T13:15:42Z</time>
      </trkpt>
      <trkpt lat="44.32709" lon="6.86341">
        <ele>2111.49</ele>
        <time>2018-08-25T13:15:44Z</time>
      </trkpt>
      <trkpt lat="44.3272" lon="6.86316">
        <ele>2108.2</ele>
        <time>2018-08-25T13:15:46Z</time>
      </trkpt>
      <trkpt lat="44.32744" lon="6.8629">
        <ele>2105.17</ele>
        <time>2018-08-25T13:15:48Z</time>
      </trkpt>
      <trkpt lat="44.32756" lon="6.86269">
        <ele>2103.4</ele>
        <time>2018-08-25T13:15:49Z</time>
      </trkpt>
      <trkpt lat="44.32769" lon="6.86247">
        <ele>2101.47</ele>
        <time>2018-08-25T13:15:50Z</time>
      </trkpt>
      <trkpt lat="44.32783" lon="6.86228">
        <ele>2100.19</ele>
        <time>2018-08-25T13:15:51Z</time>
      </trkpt>
      <trkpt lat="44.32801" lon="6.8619">
        <ele>2096.47</ele>
        <time>2018-08-25T13:15:53Z</time>
      </trkpt>
      <trkpt lat="44.32803" lon="6.86139">
        <ele>2092.49</ele>
        <time>2018-08-25T13:15:55Z</time>
      </trkpt>
      <trkpt lat="44.32804" lon="6.86112">
        <ele>2091.2</ele>
        <time>2018-08-25T13:15:56Z</time>
      </trkpt>
      <trkpt lat="44.32811" lon="6.86068">
        <ele>2089.08</ele>
        <time>2018-08-25T13:15:58Z</time>
      </trkpt>
      <trkpt lat="44.32814" lon="6.86027">
        <ele>2086.16</ele>
        <time>2018-08-25T13:16:00Z</time>
      </trkpt>
      <trkpt lat="44.32812" lon="6.86002">
        <ele>2085.1</ele>
        <time>2018-08-25T13:16:01Z</time>
      </trkpt>
      <trkpt lat="44.32806" lon="6.85967">
        <ele>2082.16</ele>
        <time>2018-08-25T13:16:03Z</time>
      </trkpt>
      <trkpt lat="44.32783" lon="6.85973">
        <ele>2079.74</ele>
        <time>2018-08-25T13:16:07Z</time>
      </trkpt>
      <trkpt lat="44.32781" lon="6.86014">
        <ele>2078.95</ele>
        <time>2018-08-25T13:16:09Z</time>
      </trkpt>
      <trkpt lat="44.32777" lon="6.86047">
        <ele>2076.63</ele>
        <time>2018-08-25T13:16:10Z</time>
      </trkpt>
      <trkpt lat="44.3277" lon="6.86076">
        <ele>2075.24</ele>
        <time>2018-08-25T13:16:11Z</time>
      </trkpt>
      <trkpt lat="44.3276" lon="6.86105">
        <ele>2073.42</ele>
        <time>2018-08-25T13:16:12Z</time>
      </trkpt>
      <trkpt lat="44.32745" lon="6.86134">
        <ele>2072.17</ele>
        <time>2018-08-25T13:16:13Z</time>
      </trkpt>
      <trkpt lat="44.32729" lon="6.86159">
        <ele>2071.8</ele>
        <time>2018-08-25T13:16:14Z</time>
      </trkpt>
      <trkpt lat="44.32714" lon="6.86181">
        <ele>2070.99</ele>
        <time>2018-08-25T13:16:15Z</time>
      </trkpt>
      <trkpt lat="44.32699" lon="6.86199">
        <ele>2070.04</ele>
        <time>2018-08-25T13:16:16Z</time>
      </trkpt>
      <trkpt lat="44.32668" lon="6.86219">
        <ele>2067.16</ele>
        <time>2018-08-25T13:16:18Z</time>
      </trkpt>
      <trkpt lat="44.32635" lon="6.86231">
        <ele>2063.68</ele>
        <time>2018-08-25T13:16:20Z</time>
      </trkpt>
      <trkpt lat="44.32617" lon="6.86244">
        <ele>2060.21</ele>
        <time>2018-08-25T13:16:22Z</time>
      </trkpt>
      <trkpt lat="44.32623" lon="6.86216">
        <ele>2056.95</ele>
        <time>2018-08-25T13:16:27Z</time>
      </trkpt>
      <trkpt lat="44.32649" lon="6.86196">
        <ele>2055.06</ele>
        <time>2018-08-25T13:16:29Z</time>
      </trkpt>
      <trkpt lat="44.32666" lon="6.86162">
        <ele>2052.37</ele>
        <time>2018-08-25T13:16:31Z</time>
      </trkpt>
      <trkpt lat="44.3268" lon="6.86116">
        <ele>2049.4</ele>
        <time>2018-08-25T13:16:33Z</time>
      </trkpt>
      <trkpt lat="44.32691" lon="6.86094">
        <ele>2048.17</ele>
        <time>2018-08-25T13:16:34Z</time>
      </trkpt>
      <trkpt lat="44.32709" lon="6.86057">
        <ele>2045.17</ele>
        <time>2018-08-25T13:16:36Z</time>
      </trkpt>
      <trkpt lat="44.32711" lon="6.8601">
        <ele>2042.87</ele>
        <time>2018-08-25T13:16:38Z</time>
      </trkpt>
      <trkpt lat="44.32708" lon="6.8598">
        <ele>2041.31</ele>
        <time>2018-08-25T13:16:39Z</time>
      </trkpt>
      <trkpt lat="44.32706" lon="6.8595">
        <ele>2039.44</ele>
        <time>2018-08-25T13:16:40Z</time>
      </trkpt>
      <trkpt lat="44.32706" lon="6.85919">
        <ele>2037.48</ele>
        <time>2018-08-25T13:16:41Z</time>
      </trkpt>
      <trkpt lat="44.32708" lon="6.85888">
        <ele>2036.19</ele>
        <time>2018-08-25T13:16:42Z</time>
      </trkpt>
      <trkpt lat="44.32707" lon="6.85859">
        <ele>2034.41</ele>
        <time>2018-08-25T13:16:43Z</time>
      </trkpt>
      <trkpt lat="44.32704" lon="6.8583">
        <ele>2032.47</ele>
        <time>2018-08-25T13:16:44Z</time>
      </trkpt>
      <trkpt lat="44.327" lon="6.85801">
        <ele>2030.49</ele>
        <time>2018-08-25T13:16:45Z</time>
      </trkpt>
      <trkpt lat="44.32698" lon="6.85775">
        <ele>2029.19</ele>
        <time>2018-08-25T13:16:46Z</time>
      </trkpt>
      <trkpt lat="44.327" lon="6.85724">
        <ele>2026.17</ele>
        <time>2018-08-25T13:16:48Z</time>
      </trkpt>
      <trkpt lat="44.32707" lon="6.85697">
        <ele>2025.1</ele>
        <time>2018-08-25T13:16:49Z</time>
      </trkpt>
      <trkpt lat="44.32714" lon="6.8567">
        <ele>2024.08</ele>
        <time>2018-08-25T13:16:50Z</time>
      </trkpt>
      <trkpt lat="44.32723" lon="6.85641">
        <ele>2022.37</ele>
        <time>2018-08-25T13:16:51Z</time>
      </trkpt>
      <trkpt lat="44.32731" lon="6.85613">
        <ele>2021.16</ele>
        <time>2018-08-25T13:16:52Z</time>
      </trkpt>
      <trkpt lat="44.32738" lon="6.85586">
        <ele>2019.4</ele>
        <time>2018-08-25T13:16:53Z</time>
      </trkpt>
      <trkpt lat="44.32744" lon="6.8556">
        <ele>2016.77</ele>
        <time>2018-08-25T13:16:54Z</time>
      </trkpt>
      <trkpt lat="44.32748" lon="6.85535">
        <ele>2015.28</ele>
        <time>2018-08-25T13:16:55Z</time>
      </trkpt>
      <trkpt lat="44.32742" lon="6.85494">
        <ele>2013.09</ele>
        <time>2018-08-25T13:16:57Z</time>
      </trkpt>
      <trkpt lat="44.32726" lon="6.85447">
        <ele>2010.37</ele>
        <time>2018-08-25T13:16:59Z</time>
      </trkpt>
      <trkpt lat="44.32718" lon="6.85421">
        <ele>2007.76</ele>
        <time>2018-08-25T13:17:00Z</time>
      </trkpt>
      <trkpt lat="44.32707" lon="6.85395">
        <ele>2004.88</ele>
        <time>2018-08-25T13:17:01Z</time>
      </trkpt>
      <trkpt lat="44.32694" lon="6.85373">
        <ele>2003.31</ele>
        <time>2018-08-25T13:17:02Z</time>
      </trkpt>
      <trkpt lat="44.32682" lon="6.85354">
        <ele>2002.14</ele>
        <time>2018-08-25T13:17:03Z</time>
      </trkpt>
      <trkpt lat="44.32669" lon="6.85321">
        <ele>1999.17</ele>
        <time>2018-08-25T13:17:05Z</time>
      </trkpt>
      <trkpt lat="44.32669" lon="6.85276">
        <ele>1996.17</ele>
        <time>2018-08-25T13:17:07Z</time>
      </trkpt>
      <trkpt lat="44.3267" lon="6.85239">
        <ele>1993.38</ele>
        <time>2018-08-25T13:17:09Z</time>
      </trkpt>
      <trkpt lat="44.32649" lon="6.85229">
        <ele>1990</ele>
        <time>2018-08-25T13:17:13Z</time>
      </trkpt>
      <trkpt lat="44.32642" lon="6.85283">
        <ele>1989.46</ele>
        <time>2018-08-25T13:17:15Z</time>
      </trkpt>
      <trkpt lat="44.32633" lon="6.85308">
        <ele>1988.89</ele>
        <time>2018-08-25T13:17:16Z</time>
      </trkpt>
      <trkpt lat="44.32615" lon="6.85347">
        <ele>1987.05</ele>
        <time>2018-08-25T13:17:18Z</time>
      </trkpt>
      <trkpt lat="44.32603" lon="6.854">
        <ele>1984.37</ele>
        <time>2018-08-25T13:17:20Z</time>
      </trkpt>
      <trkpt lat="44.32599" lon="6.85426">
        <ele>1981.76</ele>
        <time>2018-08-25T13:17:21Z</time>
      </trkpt>
      <trkpt lat="44.32601" lon="6.85473">
        <ele>1979.34</ele>
        <time>2018-08-25T13:17:23Z</time>
      </trkpt>
      <trkpt lat="44.32597" lon="6.85511">
        <ele>1976.18</ele>
        <time>2018-08-25T13:17:25Z</time>
      </trkpt>
      <trkpt lat="44.32576" lon="6.85542">
        <ele>1974.08</ele>
        <time>2018-08-25T13:17:27Z</time>
      </trkpt>
      <trkpt lat="44.32541" lon="6.85571">
        <ele>1972.28</ele>
        <time>2018-08-25T13:17:29Z</time>
      </trkpt>
      <trkpt lat="44.32514" lon="6.85606">
        <ele>1969.18</ele>
        <time>2018-08-25T13:17:31Z</time>
      </trkpt>
      <trkpt lat="44.32504" lon="6.8563">
        <ele>1968.1</ele>
        <time>2018-08-25T13:17:32Z</time>
      </trkpt>
      <trkpt lat="44.32492" lon="6.85654">
        <ele>1966.38</ele>
        <time>2018-08-25T13:17:33Z</time>
      </trkpt>
      <trkpt lat="44.32481" lon="6.85676">
        <ele>1965.16</ele>
        <time>2018-08-25T13:17:34Z</time>
      </trkpt>
      <trkpt lat="44.32472" lon="6.85699">
        <ele>1964.1</ele>
        <time>2018-08-25T13:17:35Z</time>
      </trkpt>
      <trkpt lat="44.32456" lon="6.85736">
        <ele>1961.37</ele>
        <time>2018-08-25T13:17:37Z</time>
      </trkpt>
      <trkpt lat="44.32443" lon="6.85771">
        <ele>1959.1</ele>
        <time>2018-08-25T13:17:39Z</time>
      </trkpt>
      <trkpt lat="44.32433" lon="6.85805">
        <ele>1957.07</ele>
        <time>2018-08-25T13:17:41Z</time>
      </trkpt>
      <trkpt lat="44.32434" lon="6.85848">
        <ele>1953.46</ele>
        <time>2018-08-25T13:17:43Z</time>
      </trkpt>
      <trkpt lat="44.32431" lon="6.85894">
        <ele>1951.1</ele>
        <time>2018-08-25T13:17:45Z</time>
      </trkpt>
      <trkpt lat="44.32414" lon="6.85933">
        <ele>1948.86</ele>
        <time>2018-08-25T13:17:47Z</time>
      </trkpt>
      <trkpt lat="44.32392" lon="6.85957">
        <ele>1944.53</ele>
        <time>2018-08-25T13:17:49Z</time>
      </trkpt>
      <trkpt lat="44.32375" lon="6.85987">
        <ele>1942.11</ele>
        <time>2018-08-25T13:17:51Z</time>
      </trkpt>
      <trkpt lat="44.32364" lon="6.86026">
        <ele>1940.98</ele>
        <time>2018-08-25T13:17:53Z</time>
      </trkpt>
      <trkpt lat="44.32364" lon="6.86052">
        <ele>1940.04</ele>
        <time>2018-08-25T13:17:54Z</time>
      </trkpt>
      <trkpt lat="44.3236" lon="6.8608">
        <ele>1938.36</ele>
        <time>2018-08-25T13:17:55Z</time>
      </trkpt>
      <trkpt lat="44.32351" lon="6.86104">
        <ele>1937.16</ele>
        <time>2018-08-25T13:17:56Z</time>
      </trkpt>
      <trkpt lat="44.3234" lon="6.86125">
        <ele>1935.39</ele>
        <time>2018-08-25T13:17:57Z</time>
      </trkpt>
      <trkpt lat="44.32317" lon="6.86155">
        <ele>1933.31</ele>
        <time>2018-08-25T13:17:59Z</time>
      </trkpt>
      <trkpt lat="44.32293" lon="6.86168">
        <ele>1930.18</ele>
        <time>2018-08-25T13:18:01Z</time>
      </trkpt>
      <trkpt lat="44.32274" lon="6.86181">
        <ele>1926.8</ele>
        <time>2018-08-25T13:18:04Z</time>
      </trkpt>
      <trkpt lat="44.32283" lon="6.86217">
        <ele>1923.07</ele>
        <time>2018-08-25T13:18:08Z</time>
      </trkpt>
      <trkpt lat="44.32298" lon="6.86252">
        <ele>1921.28</ele>
        <time>2018-08-25T13:18:10Z</time>
      </trkpt>
      <trkpt lat="44.32291" lon="6.86288">
        <ele>1918.18</ele>
        <time>2018-08-25T13:18:12Z</time>
      </trkpt>
      <trkpt lat="44.32276" lon="6.86325">
        <ele>1915.38</ele>
        <time>2018-08-25T13:18:14Z</time>
      </trkpt>
      <trkpt lat="44.32269" lon="6.86365">
        <ele>1913.1</ele>
        <time>2018-08-25T13:18:16Z</time>
      </trkpt>
      <trkpt lat="44.3226" lon="6.8639">
        <ele>1910.37</ele>
        <time>2018-08-25T13:18:18Z</time>
      </trkpt>
      <trkpt lat="44.32248" lon="6.86368">
        <ele>1905.16</ele>
        <time>2018-08-25T13:18:22Z</time>
      </trkpt>
      <trkpt lat="44.32246" lon="6.86321">
        <ele>1903.29</ele>
        <time>2018-08-25T13:18:24Z</time>
      </trkpt>
      <trkpt lat="44.32235" lon="6.86281">
        <ele>1900.18</ele>
        <time>2018-08-25T13:18:26Z</time>
      </trkpt>
      <trkpt lat="44.32211" lon="6.86256">
        <ele>1897.17</ele>
        <time>2018-08-25T13:18:28Z</time>
      </trkpt>
      <trkpt lat="44.3219" lon="6.86229">
        <ele>1895.29</ele>
        <time>2018-08-25T13:18:30Z</time>
      </trkpt>
      <trkpt lat="44.32172" lon="6.86193">
        <ele>1893.09</ele>
        <time>2018-08-25T13:18:32Z</time>
      </trkpt>
      <trkpt lat="44.3216" lon="6.86164">
        <ele>1891.07</ele>
        <time>2018-08-25T13:18:34Z</time>
      </trkpt>
      <trkpt lat="44.3217" lon="6.86135">
        <ele>1889.68</ele>
        <time>2018-08-25T13:18:37Z</time>
      </trkpt>
      <trkpt lat="44.32186" lon="6.86123">
        <ele>1888.03</ele>
        <time>2018-08-25T13:18:39Z</time>
      </trkpt>
      <trkpt lat="44.32207" lon="6.861">
        <ele>1886.74</ele>
        <time>2018-08-25T13:18:42Z</time>
      </trkpt>
      <trkpt lat="44.32219" lon="6.86066">
        <ele>1885.03</ele>
        <time>2018-08-25T13:18:45Z</time>
      </trkpt>
      <trkpt lat="44.32226" lon="6.86029">
        <ele>1883.04</ele>
        <time>2018-08-25T13:18:48Z</time>
      </trkpt>
      <trkpt lat="44.32233" lon="6.86002">
        <ele>1881.98</ele>
        <time>2018-08-25T13:18:50Z</time>
      </trkpt>
      <trkpt lat="44.32252" lon="6.85975">
        <ele>1880.06</ele>
        <time>2018-08-25T13:18:52Z</time>
      </trkpt>
      <trkpt lat="44.32265" lon="6.85946">
        <ele>1877.86</ele>
        <time>2018-08-25T13:18:54Z</time>
      </trkpt>
      <trkpt lat="44.32259" lon="6.85922">
        <ele>1874.75</ele>
        <time>2018-08-25T13:18:58Z</time>
      </trkpt>
      <trkpt lat="44.32233" lon="6.85948">
        <ele>1874.65</ele>
        <time>2018-08-25T13:19:00Z</time>
      </trkpt>
      <trkpt lat="44.32212" lon="6.85983">
        <ele>1873.03</ele>
        <time>2018-08-25T13:19:02Z</time>
      </trkpt>
      <trkpt lat="44.32186" lon="6.86009">
        <ele>1870.16</ele>
        <time>2018-08-25T13:19:04Z</time>
      </trkpt>
      <trkpt lat="44.32159" lon="6.86025">
        <ele>1868.08</ele>
        <time>2018-08-25T13:19:06Z</time>
      </trkpt>
      <trkpt lat="44.32144" lon="6.86047">
        <ele>1866.07</ele>
        <time>2018-08-25T13:19:08Z</time>
      </trkpt>
      <trkpt lat="44.32134" lon="6.86081">
        <ele>1864.07</ele>
        <time>2018-08-25T13:19:10Z</time>
      </trkpt>
      <trkpt lat="44.32121" lon="6.86112">
        <ele>1861.86</ele>
        <time>2018-08-25T13:19:12Z</time>
      </trkpt>
      <trkpt lat="44.32102" lon="6.8613">
        <ele>1859.14</ele>
        <time>2018-08-25T13:19:14Z</time>
      </trkpt>
      <trkpt lat="44.3209" lon="6.86151">
        <ele>1856.38</ele>
        <time>2018-08-25T13:19:16Z</time>
      </trkpt>
      <trkpt lat="44.32095" lon="6.86192">
        <ele>1852.49</ele>
        <time>2018-08-25T13:19:18Z</time>
      </trkpt>
      <trkpt lat="44.32098" lon="6.86237">
        <ele>1849.2</ele>
        <time>2018-08-25T13:19:20Z</time>
      </trkpt>
      <trkpt lat="44.32101" lon="6.86287">
        <ele>1846.17</ele>
        <time>2018-08-25T13:19:22Z</time>
      </trkpt>
      <trkpt lat="44.32103" lon="6.86312">
        <ele>1844.4</ele>
        <time>2018-08-25T13:19:23Z</time>
      </trkpt>
      <trkpt lat="44.32107" lon="6.86361">
        <ele>1840.49</ele>
        <time>2018-08-25T13:19:25Z</time>
      </trkpt>
      <trkpt lat="44.3211" lon="6.86411">
        <ele>1836.5</ele>
        <time>2018-08-25T13:19:27Z</time>
      </trkpt>
      <trkpt lat="44.32106" lon="6.86451">
        <ele>1834.11</ele>
        <time>2018-08-25T13:19:29Z</time>
      </trkpt>
      <trkpt lat="44.32099" lon="6.86487">
        <ele>1832.77</ele>
        <time>2018-08-25T13:19:31Z</time>
      </trkpt>
      <trkpt lat="44.32098" lon="6.86529">
        <ele>1830.55</ele>
        <time>2018-08-25T13:19:33Z</time>
      </trkpt>
      <trkpt lat="44.32087" lon="6.8656">
        <ele>1827.62</ele>
        <time>2018-08-25T13:19:35Z</time>
      </trkpt>
      <trkpt lat="44.32068" lon="6.86591">
        <ele>1825.12</ele>
        <time>2018-08-25T13:19:37Z</time>
      </trkpt>
      <trkpt lat="44.32052" lon="6.86635">
        <ele>1821.67</ele>
        <time>2018-08-25T13:19:39Z</time>
      </trkpt>
      <trkpt lat="44.32044" lon="6.8666">
        <ele>1820.25</ele>
        <time>2018-08-25T13:19:40Z</time>
      </trkpt>
      <trkpt lat="44.32037" lon="6.86689">
        <ele>1817.72</ele>
        <time>2018-08-25T13:19:41Z</time>
      </trkpt>
      <trkpt lat="44.32031" lon="6.8672">
        <ele>1814.86</ele>
        <time>2018-08-25T13:19:42Z</time>
      </trkpt>
      <trkpt lat="44.32027" lon="6.86751">
        <ele>1812.61</ele>
        <time>2018-08-25T13:19:43Z</time>
      </trkpt>
      <trkpt lat="44.32023" lon="6.86779">
        <ele>1810.53</ele>
        <time>2018-08-25T13:19:44Z</time>
      </trkpt>
      <trkpt lat="44.32019" lon="6.86822">
        <ele>1806.5</ele>
        <time>2018-08-25T13:19:46Z</time>
      </trkpt>
      <trkpt lat="44.32007" lon="6.86785">
        <ele>1799.28</ele>
        <time>2018-08-25T13:19:53Z</time>
      </trkpt>
      <trkpt lat="44.32007" lon="6.86757">
        <ele>1798.13</ele>
        <time>2018-08-25T13:19:54Z</time>
      </trkpt>
      <trkpt lat="44.32005" lon="6.86729">
        <ele>1796.39</ele>
        <time>2018-08-25T13:19:55Z</time>
      </trkpt>
      <trkpt lat="44.32005" lon="6.86703">
        <ele>1795.16</ele>
        <time>2018-08-25T13:19:56Z</time>
      </trkpt>
      <trkpt lat="44.32008" lon="6.8666">
        <ele>1793.08</ele>
        <time>2018-08-25T13:19:58Z</time>
      </trkpt>
      <trkpt lat="44.32002" lon="6.86627">
        <ele>1790.83</ele>
        <time>2018-08-25T13:20:01Z</time>
      </trkpt>
      <trkpt lat="44.31991" lon="6.86659">
        <ele>1789.4</ele>
        <time>2018-08-25T13:20:04Z</time>
      </trkpt>
      <trkpt lat="44.31986" lon="6.86697">
        <ele>1788.71</ele>
        <time>2018-08-25T13:20:06Z</time>
      </trkpt>
      <trkpt lat="44.31985" lon="6.86732">
        <ele>1787.26</ele>
        <time>2018-08-25T13:20:07Z</time>
      </trkpt>
      <trkpt lat="44.31981" lon="6.86774">
        <ele>1784.18</ele>
        <time>2018-08-25T13:20:09Z</time>
      </trkpt>
      <trkpt lat="44.31975" lon="6.86806">
        <ele>1782.99</ele>
        <time>2018-08-25T13:20:11Z</time>
      </trkpt>
      <trkpt lat="44.31971" lon="6.86851">
        <ele>1781.27</ele>
        <time>2018-08-25T13:20:13Z</time>
      </trkpt>
      <trkpt lat="44.31968" lon="6.86878">
        <ele>1780.13</ele>
        <time>2018-08-25T13:20:14Z</time>
      </trkpt>
      <trkpt lat="44.31967" lon="6.86909">
        <ele>1778.39</ele>
        <time>2018-08-25T13:20:15Z</time>
      </trkpt>
      <trkpt lat="44.31964" lon="6.8694">
        <ele>1777.16</ele>
        <time>2018-08-25T13:20:16Z</time>
      </trkpt>
      <trkpt lat="44.31961" lon="6.86972">
        <ele>1776.1</ele>
        <time>2018-08-25T13:20:17Z</time>
      </trkpt>
      <trkpt lat="44.31959" lon="6.87004">
        <ele>1775.08</ele>
        <time>2018-08-25T13:20:18Z</time>
      </trkpt>
      <trkpt lat="44.31958" lon="6.87035">
        <ele>1774.77</ele>
        <time>2018-08-25T13:20:19Z</time>
      </trkpt>
      <trkpt lat="44.31957" lon="6.87065">
        <ele>1773.28</ele>
        <time>2018-08-25T13:20:20Z</time>
      </trkpt>
      <trkpt lat="44.31958" lon="6.87096">
        <ele>1771.43</ele>
        <time>2018-08-25T13:20:21Z</time>
      </trkpt>
      <trkpt lat="44.31958" lon="6.87127">
        <ele>1770.88</ele>
        <time>2018-08-25T13:20:22Z</time>
      </trkpt>
      <trkpt lat="44.31964" lon="6.87164">
        <ele>1768.61</ele>
        <time>2018-08-25T13:20:23Z</time>
      </trkpt>
      <trkpt lat="44.31969" lon="6.87201">
        <ele>1765.83</ele>
        <time>2018-08-25T13:20:24Z</time>
      </trkpt>
      <trkpt lat="44.31973" lon="6.87237">
        <ele>1762.9</ele>
        <time>2018-08-25T13:20:25Z</time>
      </trkpt>
      <trkpt lat="44.31979" lon="6.87271">
        <ele>1761.32</ele>
        <time>2018-08-25T13:20:26Z</time>
      </trkpt>
      <trkpt lat="44.31984" lon="6.87305">
        <ele>1758.74</ele>
        <time>2018-08-25T13:20:27Z</time>
      </trkpt>
      <trkpt lat="44.31988" lon="6.87339">
        <ele>1756.57</ele>
        <time>2018-08-25T13:20:28Z</time>
      </trkpt>
      <trkpt lat="44.31992" lon="6.87371">
        <ele>1755.22</ele>
        <time>2018-08-25T13:20:29Z</time>
      </trkpt>
      <trkpt lat="44.31996" lon="6.87401">
        <ele>1752.71</ele>
        <time>2018-08-25T13:20:30Z</time>
      </trkpt>
      <trkpt lat="44.32" lon="6.87429">
        <ele>1750.56</ele>
        <time>2018-08-25T13:20:31Z</time>
      </trkpt>
      <trkpt lat="44.32003" lon="6.87456">
        <ele>1748.52</ele>
        <time>2018-08-25T13:20:32Z</time>
      </trkpt>
      <trkpt lat="44.32007" lon="6.8748">
        <ele>1747.2</ele>
        <time>2018-08-25T13:20:33Z</time>
      </trkpt>
      <trkpt lat="44.32017" lon="6.87506">
        <ele>1746.11</ele>
        <time>2018-08-25T13:20:34Z</time>
      </trkpt>
      <trkpt lat="44.32028" lon="6.87532">
        <ele>1743.68</ele>
        <time>2018-08-25T13:20:35Z</time>
      </trkpt>
      <trkpt lat="44.32037" lon="6.87558">
        <ele>1741.55</ele>
        <time>2018-08-25T13:20:36Z</time>
      </trkpt>
      <trkpt lat="44.32044" lon="6.87584">
        <ele>1739.51</ele>
        <time>2018-08-25T13:20:37Z</time>
      </trkpt>
      <trkpt lat="44.32051" lon="6.87609">
        <ele>1738.2</ele>
        <time>2018-08-25T13:20:38Z</time>
      </trkpt>
      <trkpt lat="44.32063" lon="6.87652">
        <ele>1735.17</ele>
        <time>2018-08-25T13:20:40Z</time>
      </trkpt>
      <trkpt lat="44.32068" lon="6.87686">
        <ele>1733.08</ele>
        <time>2018-08-25T13:20:42Z</time>
      </trkpt>
      <trkpt lat="44.32078" lon="6.87719">
        <ele>1731.77</ele>
        <time>2018-08-25T13:20:44Z</time>
      </trkpt>
      <trkpt lat="44.32093" lon="6.87748">
        <ele>1730.04</ele>
        <time>2018-08-25T13:20:46Z</time>
      </trkpt>
      <trkpt lat="44.32109" lon="6.87787">
        <ele>1727.16</ele>
        <time>2018-08-25T13:20:48Z</time>
      </trkpt>
      <trkpt lat="44.32116" lon="6.87813">
        <ele>1725.39</ele>
        <time>2018-08-25T13:20:49Z</time>
      </trkpt>
      <trkpt lat="44.32123" lon="6.87838">
        <ele>1724.17</ele>
        <time>2018-08-25T13:20:50Z</time>
      </trkpt>
      <trkpt lat="44.32134" lon="6.87864">
        <ele>1722.4</ele>
        <time>2018-08-25T13:20:51Z</time>
      </trkpt>
      <trkpt lat="44.32144" lon="6.87891">
        <ele>1720.47</ele>
        <time>2018-08-25T13:20:52Z</time>
      </trkpt>
      <trkpt lat="44.3215" lon="6.87918">
        <ele>1718.49</ele>
        <time>2018-08-25T13:20:53Z</time>
      </trkpt>
      <trkpt lat="44.32154" lon="6.87944">
        <ele>1717.19</ele>
        <time>2018-08-25T13:20:54Z</time>
      </trkpt>
      <trkpt lat="44.32159" lon="6.87968">
        <ele>1716.11</ele>
        <time>2018-08-25T13:20:55Z</time>
      </trkpt>
      <trkpt lat="44.32167" lon="6.87992">
        <ele>1715.08</ele>
        <time>2018-08-25T13:20:56Z</time>
      </trkpt>
      <trkpt lat="44.32176" lon="6.88014">
        <ele>1714.07</ele>
        <time>2018-08-25T13:20:57Z</time>
      </trkpt>
      <trkpt lat="44.32184" lon="6.8804">
        <ele>1713.07</ele>
        <time>2018-08-25T13:20:58Z</time>
      </trkpt>
      <trkpt lat="44.3219" lon="6.88066">
        <ele>1711.37</ele>
        <time>2018-08-25T13:20:59Z</time>
      </trkpt>
      <trkpt lat="44.32195" lon="6.88093">
        <ele>1709.46</ele>
        <time>2018-08-25T13:21:00Z</time>
      </trkpt>
      <trkpt lat="44.32203" lon="6.88119">
        <ele>1708.19</ele>
        <time>2018-08-25T13:21:01Z</time>
      </trkpt>
      <trkpt lat="44.32212" lon="6.88146">
        <ele>1706.4</ele>
        <time>2018-08-25T13:21:02Z</time>
      </trkpt>
      <trkpt lat="44.32222" lon="6.88172">
        <ele>1704.47</ele>
        <time>2018-08-25T13:21:03Z</time>
      </trkpt>
      <trkpt lat="44.3223" lon="6.88195">
        <ele>1703.19</ele>
        <time>2018-08-25T13:21:04Z</time>
      </trkpt>
      <trkpt lat="44.32246" lon="6.88232">
        <ele>1700.17</ele>
        <time>2018-08-25T13:21:06Z</time>
      </trkpt>
      <trkpt lat="44.3227" lon="6.88254">
        <ele>1697.17</ele>
        <time>2018-08-25T13:21:08Z</time>
      </trkpt>
      <trkpt lat="44.32296" lon="6.88276">
        <ele>1694.17</ele>
        <time>2018-08-25T13:21:10Z</time>
      </trkpt>
      <trkpt lat="44.32322" lon="6.88313">
        <ele>1692.08</ele>
        <time>2018-08-25T13:21:12Z</time>
      </trkpt>
      <trkpt lat="44.32345" lon="6.88341">
        <ele>1689.16</ele>
        <time>2018-08-25T13:21:14Z</time>
      </trkpt>
      <trkpt lat="44.32356" lon="6.88368">
        <ele>1686.17</ele>
        <time>2018-08-25T13:21:16Z</time>
      </trkpt>
      <trkpt lat="44.32358" lon="6.88402">
        <ele>1684.99</ele>
        <time>2018-08-25T13:21:18Z</time>
      </trkpt>
      <trkpt lat="44.32352" lon="6.88437">
        <ele>1683.97</ele>
        <time>2018-08-25T13:21:20Z</time>
      </trkpt>
      <trkpt lat="44.32334" lon="6.88467">
        <ele>1682.97</ele>
        <time>2018-08-25T13:21:22Z</time>
      </trkpt>
      <trkpt lat="44.32311" lon="6.88499">
        <ele>1680.15</ele>
        <time>2018-08-25T13:21:24Z</time>
      </trkpt>
      <trkpt lat="44.3229" lon="6.88531">
        <ele>1675.77</ele>
        <time>2018-08-25T13:21:26Z</time>
      </trkpt>
      <trkpt lat="44.32268" lon="6.88563">
        <ele>1673.34</ele>
        <time>2018-08-25T13:21:28Z</time>
      </trkpt>
      <trkpt lat="44.32246" lon="6.88595">
        <ele>1669.48</ele>
        <time>2018-08-25T13:21:30Z</time>
      </trkpt>
      <trkpt lat="44.32224" lon="6.88627">
        <ele>1668.02</ele>
        <time>2018-08-25T13:21:32Z</time>
      </trkpt>
      <trkpt lat="44.32203" lon="6.8866">
        <ele>1666.76</ele>
        <time>2018-08-25T13:21:34Z</time>
      </trkpt>
      <trkpt lat="44.32183" lon="6.88692">
        <ele>1666.65</ele>
        <time>2018-08-25T13:21:36Z</time>
      </trkpt>
      <trkpt lat="44.32167" lon="6.88728">
        <ele>1666.64</ele>
        <time>2018-08-25T13:21:38Z</time>
      </trkpt>
      <trkpt lat="44.32153" lon="6.88763">
        <ele>1666.64</ele>
        <time>2018-08-25T13:21:40Z</time>
      </trkpt>
      <trkpt lat="44.32139" lon="6.88798">
        <ele>1665.94</ele>
        <time>2018-08-25T13:21:42Z</time>
      </trkpt>
      <trkpt lat="44.32126" lon="6.88834">
        <ele>1665.88</ele>
        <time>2018-08-25T13:21:44Z</time>
      </trkpt>
      <trkpt lat="44.3211" lon="6.88869">
        <ele>1664.96</ele>
        <time>2018-08-25T13:21:46Z</time>
      </trkpt>
      <trkpt lat="44.32094" lon="6.88907">
        <ele>1663.06</ele>
        <time>2018-08-25T13:21:48Z</time>
      </trkpt>
      <trkpt lat="44.32077" lon="6.88946">
        <ele>1661.07</ele>
        <time>2018-08-25T13:21:50Z</time>
      </trkpt>
      <trkpt lat="44.32065" lon="6.88986">
        <ele>1659.28</ele>
        <time>2018-08-25T13:21:52Z</time>
      </trkpt>
      <trkpt lat="44.32058" lon="6.89031">
        <ele>1657.09</ele>
        <time>2018-08-25T13:21:54Z</time>
      </trkpt>
      <trkpt lat="44.32058" lon="6.89057">
        <ele>1656.77</ele>
        <time>2018-08-25T13:21:55Z</time>
      </trkpt>
      <trkpt lat="44.32055" lon="6.89083">
        <ele>1655.98</ele>
        <time>2018-08-25T13:21:56Z</time>
      </trkpt>
      <trkpt lat="44.32051" lon="6.89109">
        <ele>1655.74</ele>
        <time>2018-08-25T13:21:57Z</time>
      </trkpt>
      <trkpt lat="44.32048" lon="6.89135">
        <ele>1654.27</ele>
        <time>2018-08-25T13:21:58Z</time>
      </trkpt>
      <trkpt lat="44.32045" lon="6.89162">
        <ele>1653.13</ele>
        <time>2018-08-25T13:21:59Z</time>
      </trkpt>
      <trkpt lat="44.32042" lon="6.89188">
        <ele>1652.09</ele>
        <time>2018-08-25T13:22:00Z</time>
      </trkpt>
      <trkpt lat="44.32039" lon="6.89215">
        <ele>1651.07</ele>
        <time>2018-08-25T13:22:01Z</time>
      </trkpt>
      <trkpt lat="44.32035" lon="6.8924">
        <ele>1650.07</ele>
        <time>2018-08-25T13:22:02Z</time>
      </trkpt>
      <trkpt lat="44.32028" lon="6.89283">
        <ele>1648.77</ele>
        <time>2018-08-25T13:22:04Z</time>
      </trkpt>
      <trkpt lat="44.32015" lon="6.8932">
        <ele>1646.34</ele>
        <time>2018-08-25T13:22:06Z</time>
      </trkpt>
      <trkpt lat="44.32" lon="6.89356">
        <ele>1644.09</ele>
        <time>2018-08-25T13:22:08Z</time>
      </trkpt>
      <trkpt lat="44.31982" lon="6.89386">
        <ele>1642.07</ele>
        <time>2018-08-25T13:22:10Z</time>
      </trkpt>
      <trkpt lat="44.31963" lon="6.89408">
        <ele>1640.07</ele>
        <time>2018-08-25T13:22:12Z</time>
      </trkpt>
      <trkpt lat="44.31954" lon="6.89441">
        <ele>1638.98</ele>
        <time>2018-08-25T13:22:14Z</time>
      </trkpt>
      <trkpt lat="44.31943" lon="6.89477">
        <ele>1637.06</ele>
        <time>2018-08-25T13:22:16Z</time>
      </trkpt>
      <trkpt lat="44.31924" lon="6.89511">
        <ele>1635.98</ele>
        <time>2018-08-25T13:22:18Z</time>
      </trkpt>
      <trkpt lat="44.31905" lon="6.89548">
        <ele>1634.06</ele>
        <time>2018-08-25T13:22:20Z</time>
      </trkpt>
      <trkpt lat="44.31891" lon="6.89591">
        <ele>1632.07</ele>
        <time>2018-08-25T13:22:22Z</time>
      </trkpt>
      <trkpt lat="44.31881" lon="6.89639">
        <ele>1630.98</ele>
        <time>2018-08-25T13:22:24Z</time>
      </trkpt>
      <trkpt lat="44.31872" lon="6.89686">
        <ele>1629.06</ele>
        <time>2018-08-25T13:22:26Z</time>
      </trkpt>
      <trkpt lat="44.31854" lon="6.89727">
        <ele>1626.16</ele>
        <time>2018-08-25T13:22:28Z</time>
      </trkpt>
      <trkpt lat="44.31843" lon="6.89747">
        <ele>1625.8</ele>
        <time>2018-08-25T13:22:29Z</time>
      </trkpt>
      <trkpt lat="44.31827" lon="6.89762">
        <ele>1623.59</ele>
        <time>2018-08-25T13:22:30Z</time>
      </trkpt>
      <trkpt lat="44.31801" lon="6.89794">
        <ele>1621.82</ele>
        <time>2018-08-25T13:22:32Z</time>
      </trkpt>
      <trkpt lat="44.31788" lon="6.89817">
        <ele>1619.59</ele>
        <time>2018-08-25T13:22:33Z</time>
      </trkpt>
      <trkpt lat="44.31776" lon="6.89836">
        <ele>1618.23</ele>
        <time>2018-08-25T13:22:34Z</time>
      </trkpt>
      <trkpt lat="44.31764" lon="6.89877">
        <ele>1616.08</ele>
        <time>2018-08-25T13:22:36Z</time>
      </trkpt>
      <trkpt lat="44.31738" lon="6.89912">
        <ele>1613.16</ele>
        <time>2018-08-25T13:22:38Z</time>
      </trkpt>
      <trkpt lat="44.31712" lon="6.89944">
        <ele>1608.35</ele>
        <time>2018-08-25T13:22:40Z</time>
      </trkpt>
      <trkpt lat="44.31698" lon="6.8996">
        <ele>1606.45</ele>
        <time>2018-08-25T13:22:41Z</time>
      </trkpt>
      <trkpt lat="44.31666" lon="6.89981">
        <ele>1604.1</ele>
        <time>2018-08-25T13:22:43Z</time>
      </trkpt>
      <trkpt lat="44.31636" lon="6.90003">
        <ele>1600.67</ele>
        <time>2018-08-25T13:22:45Z</time>
      </trkpt>
      <trkpt lat="44.31609" lon="6.90032">
        <ele>1599.03</ele>
        <time>2018-08-25T13:22:47Z</time>
      </trkpt>
      <trkpt lat="44.31579" lon="6.90056">
        <ele>1597.77</ele>
        <time>2018-08-25T13:22:49Z</time>
      </trkpt>
      <trkpt lat="44.31561" lon="6.90062">
        <ele>1596.98</ele>
        <time>2018-08-25T13:22:50Z</time>
      </trkpt>
      <trkpt lat="44.31537" lon="6.90055">
        <ele>1593.94</ele>
        <time>2018-08-25T13:22:51Z</time>
      </trkpt>
      <trkpt lat="44.31517" lon="6.90056">
        <ele>1592.33</ele>
        <time>2018-08-25T13:22:52Z</time>
      </trkpt>
      <trkpt lat="44.31498" lon="6.90061">
        <ele>1590.45</ele>
        <time>2018-08-25T13:22:53Z</time>
      </trkpt>
      <trkpt lat="44.3148" lon="6.90068">
        <ele>1588.48</ele>
        <time>2018-08-25T13:22:54Z</time>
      </trkpt>
      <trkpt lat="44.31446" lon="6.90085">
        <ele>1583.38</ele>
        <time>2018-08-25T13:22:56Z</time>
      </trkpt>
      <trkpt lat="44.31413" lon="6.90092">
        <ele>1580.19</ele>
        <time>2018-08-25T13:22:58Z</time>
      </trkpt>
      <trkpt lat="44.31377" lon="6.90088">
        <ele>1578.99</ele>
        <time>2018-08-25T13:23:00Z</time>
      </trkpt>
      <trkpt lat="44.31359" lon="6.90084">
        <ele>1578.04</ele>
        <time>2018-08-25T13:23:01Z</time>
      </trkpt>
      <trkpt lat="44.31341" lon="6.90079">
        <ele>1577.06</ele>
        <time>2018-08-25T13:23:02Z</time>
      </trkpt>
      <trkpt lat="44.31306" lon="6.90067">
        <ele>1575.07</ele>
        <time>2018-08-25T13:23:04Z</time>
      </trkpt>
      <trkpt lat="44.31272" lon="6.90055">
        <ele>1573.07</ele>
        <time>2018-08-25T13:23:06Z</time>
      </trkpt>
      <trkpt lat="44.31242" lon="6.90043">
        <ele>1571.77</ele>
        <time>2018-08-25T13:23:08Z</time>
      </trkpt>
      <trkpt lat="44.31218" lon="6.90044">
        <ele>1569.13</ele>
        <time>2018-08-25T13:23:10Z</time>
      </trkpt>
      <trkpt lat="44.31192" lon="6.9006">
        <ele>1567.77</ele>
        <time>2018-08-25T13:23:12Z</time>
      </trkpt>
      <trkpt lat="44.31163" lon="6.90065">
        <ele>1566.95</ele>
        <time>2018-08-25T13:23:14Z</time>
      </trkpt>
      <trkpt lat="44.31135" lon="6.90075">
        <ele>1562.54</ele>
        <time>2018-08-25T13:23:16Z</time>
      </trkpt>
      <trkpt lat="44.31112" lon="6.90086">
        <ele>1561.02</ele>
        <time>2018-08-25T13:23:18Z</time>
      </trkpt>
      <trkpt lat="44.3109" lon="6.90094">
        <ele>1559.76</ele>
        <time>2018-08-25T13:23:20Z</time>
      </trkpt>
      <trkpt lat="44.31067" lon="6.90093">
        <ele>1558.25</ele>
        <time>2018-08-25T13:23:22Z</time>
      </trkpt>
      <trkpt lat="44.31044" lon="6.901">
        <ele>1554.47</ele>
        <time>2018-08-25T13:23:24Z</time>
      </trkpt>
      <trkpt lat="44.3102" lon="6.90106">
        <ele>1553.02</ele>
        <time>2018-08-25T13:23:26Z</time>
      </trkpt>
      <trkpt lat="44.30995" lon="6.90124">
        <ele>1549.66</ele>
        <time>2018-08-25T13:23:28Z</time>
      </trkpt>
      <trkpt lat="44.30963" lon="6.90146">
        <ele>1547.82</ele>
        <time>2018-08-25T13:23:30Z</time>
      </trkpt>
      <trkpt lat="44.30946" lon="6.90158">
        <ele>1546.29</ele>
        <time>2018-08-25T13:23:31Z</time>
      </trkpt>
      <trkpt lat="44.3093" lon="6.90169">
        <ele>1545.14</ele>
        <time>2018-08-25T13:23:32Z</time>
      </trkpt>
      <trkpt lat="44.30898" lon="6.90191">
        <ele>1543.07</ele>
        <time>2018-08-25T13:23:34Z</time>
      </trkpt>
      <trkpt lat="44.3087" lon="6.90202">
        <ele>1541.77</ele>
        <time>2018-08-25T13:23:36Z</time>
      </trkpt>
      <trkpt lat="44.30844" lon="6.90207">
        <ele>1540.25</ele>
        <time>2018-08-25T13:23:38Z</time>
      </trkpt>
      <trkpt lat="44.30819" lon="6.90219">
        <ele>1538.79</ele>
        <time>2018-08-25T13:23:40Z</time>
      </trkpt>
      <trkpt lat="44.30792" lon="6.90235">
        <ele>1537.04</ele>
        <time>2018-08-25T13:23:42Z</time>
      </trkpt>
      <trkpt lat="44.30768" lon="6.90246">
        <ele>1535.07</ele>
        <time>2018-08-25T13:23:44Z</time>
      </trkpt>
      <trkpt lat="44.30747" lon="6.90247">
        <ele>1533.77</ele>
        <time>2018-08-25T13:23:46Z</time>
      </trkpt>
      <trkpt lat="44.30728" lon="6.90258">
        <ele>1529.73</ele>
        <time>2018-08-25T13:23:48Z</time>
      </trkpt>
      <trkpt lat="44.30709" lon="6.90277">
        <ele>1527.13</ele>
        <time>2018-08-25T13:23:50Z</time>
      </trkpt>
      <trkpt lat="44.30691" lon="6.90295">
        <ele>1525.77</ele>
        <time>2018-08-25T13:23:52Z</time>
      </trkpt>
      <trkpt lat="44.30667" lon="6.90302">
        <ele>1523.13</ele>
        <time>2018-08-25T13:23:54Z</time>
      </trkpt>
      <trkpt lat="44.30644" lon="6.90308">
        <ele>1521.77</ele>
        <time>2018-08-25T13:23:56Z</time>
      </trkpt>
      <trkpt lat="44.30626" lon="6.9032">
        <ele>1520.95</ele>
        <time>2018-08-25T13:23:58Z</time>
      </trkpt>
      <trkpt lat="44.30613" lon="6.90343">
        <ele>1518.15</ele>
        <time>2018-08-25T13:24:00Z</time>
      </trkpt>
      <trkpt lat="44.30603" lon="6.90381">
        <ele>1516.29</ele>
        <time>2018-08-25T13:24:02Z</time>
      </trkpt>
      <trkpt lat="44.30591" lon="6.90426">
        <ele>1515</ele>
        <time>2018-08-25T13:24:04Z</time>
      </trkpt>
      <trkpt lat="44.3058" lon="6.90462">
        <ele>1513.97</ele>
        <time>2018-08-25T13:24:06Z</time>
      </trkpt>
      <trkpt lat="44.30573" lon="6.90491">
        <ele>1512.06</ele>
        <time>2018-08-25T13:24:08Z</time>
      </trkpt>
      <trkpt lat="44.30564" lon="6.90466">
        <ele>1507.95</ele>
        <time>2018-08-25T13:24:14Z</time>
      </trkpt>
      <trkpt lat="44.30565" lon="6.90431">
        <ele>1506.76</ele>
        <time>2018-08-25T13:24:16Z</time>
      </trkpt>
      <trkpt lat="44.30566" lon="6.90391">
        <ele>1505.74</ele>
        <time>2018-08-25T13:24:18Z</time>
      </trkpt>
      <trkpt lat="44.30571" lon="6.90358">
        <ele>1503.13</ele>
        <time>2018-08-25T13:24:20Z</time>
      </trkpt>
      <trkpt lat="44.30573" lon="6.90332">
        <ele>1500.62</ele>
        <time>2018-08-25T13:24:23Z</time>
      </trkpt>
      <trkpt lat="44.30551" lon="6.90333">
        <ele>1498.76</ele>
        <time>2018-08-25T13:24:26Z</time>
      </trkpt>
      <trkpt lat="44.30548" lon="6.90362">
        <ele>1498.67</ele>
        <time>2018-08-25T13:24:27Z</time>
      </trkpt>
      <trkpt lat="44.30539" lon="6.90396">
        <ele>1497.03</ele>
        <time>2018-08-25T13:24:29Z</time>
      </trkpt>
      <trkpt lat="44.30539" lon="6.9043">
        <ele>1495.07</ele>
        <time>2018-08-25T13:24:31Z</time>
      </trkpt>
      <trkpt lat="44.30536" lon="6.90456">
        <ele>1493.07</ele>
        <time>2018-08-25T13:24:33Z</time>
      </trkpt>
      <trkpt lat="44.30513" lon="6.90463">
        <ele>1491.68</ele>
        <time>2018-08-25T13:24:36Z</time>
      </trkpt>
      <trkpt lat="44.30496" lon="6.9045">
        <ele>1489.12</ele>
        <time>2018-08-25T13:24:38Z</time>
      </trkpt>
      <trkpt lat="44.30475" lon="6.90421">
        <ele>1487.07</ele>
        <time>2018-08-25T13:24:40Z</time>
      </trkpt>
      <trkpt lat="44.30454" lon="6.90394">
        <ele>1485.98</ele>
        <time>2018-08-25T13:24:42Z</time>
      </trkpt>
      <trkpt lat="44.30426" lon="6.90372">
        <ele>1482.66</ele>
        <time>2018-08-25T13:24:44Z</time>
      </trkpt>
      <trkpt lat="44.30398" lon="6.90353">
        <ele>1480.12</ele>
        <time>2018-08-25T13:24:46Z</time>
      </trkpt>
      <trkpt lat="44.30364" lon="6.90345">
        <ele>1478.98</ele>
        <time>2018-08-25T13:24:48Z</time>
      </trkpt>
      <trkpt lat="44.30345" lon="6.9034">
        <ele>1478.04</ele>
        <time>2018-08-25T13:24:49Z</time>
      </trkpt>
      <trkpt lat="44.30327" lon="6.90333">
        <ele>1477.76</ele>
        <time>2018-08-25T13:24:50Z</time>
      </trkpt>
      <trkpt lat="44.30297" lon="6.90325">
        <ele>1471</ele>
        <time>2018-08-25T13:24:52Z</time>
      </trkpt>
      <trkpt lat="44.30271" lon="6.90327">
        <ele>1469.06</ele>
        <time>2018-08-25T13:24:54Z</time>
      </trkpt>
      <trkpt lat="44.30241" lon="6.90338">
        <ele>1467.77</ele>
        <time>2018-08-25T13:24:56Z</time>
      </trkpt>
      <trkpt lat="44.30222" lon="6.90338">
        <ele>1466.28</ele>
        <time>2018-08-25T13:24:57Z</time>
      </trkpt>
      <trkpt lat="44.30204" lon="6.90338">
        <ele>1465.13</ele>
        <time>2018-08-25T13:24:58Z</time>
      </trkpt>
      <trkpt lat="44.3017" lon="6.90332">
        <ele>1463.07</ele>
        <time>2018-08-25T13:25:00Z</time>
      </trkpt>
      <trkpt lat="44.30144" lon="6.90319">
        <ele>1461.07</ele>
        <time>2018-08-25T13:25:02Z</time>
      </trkpt>
      <trkpt lat="44.3013" lon="6.90293">
        <ele>1459.98</ele>
        <time>2018-08-25T13:25:04Z</time>
      </trkpt>
      <trkpt lat="44.30116" lon="6.90263">
        <ele>1456.17</ele>
        <time>2018-08-25T13:25:06Z</time>
      </trkpt>
      <trkpt lat="44.30089" lon="6.90245">
        <ele>1451.35</ele>
        <time>2018-08-25T13:25:08Z</time>
      </trkpt>
      <trkpt lat="44.30056" lon="6.9023">
        <ele>1448.18</ele>
        <time>2018-08-25T13:25:10Z</time>
      </trkpt>
      <trkpt lat="44.30037" lon="6.90221">
        <ele>1447.1</ele>
        <time>2018-08-25T13:25:11Z</time>
      </trkpt>
      <trkpt lat="44.30019" lon="6.90209">
        <ele>1446.08</ele>
        <time>2018-08-25T13:25:12Z</time>
      </trkpt>
      <trkpt lat="44.30003" lon="6.90197">
        <ele>1445.07</ele>
        <time>2018-08-25T13:25:13Z</time>
      </trkpt>
      <trkpt lat="44.29973" lon="6.90186">
        <ele>1442.37</ele>
        <time>2018-08-25T13:25:15Z</time>
      </trkpt>
      <trkpt lat="44.2994" lon="6.90195">
        <ele>1441.01</ele>
        <time>2018-08-25T13:25:17Z</time>
      </trkpt>
      <trkpt lat="44.2991" lon="6.90199">
        <ele>1439.06</ele>
        <time>2018-08-25T13:25:19Z</time>
      </trkpt>
      <trkpt lat="44.29886" lon="6.90184">
        <ele>1439.38</ele>
        <time>2018-08-25T13:25:21Z</time>
      </trkpt>
      <trkpt lat="44.29852" lon="6.90174">
        <ele>1437.8</ele>
        <time>2018-08-25T13:25:23Z</time>
      </trkpt>
      <trkpt lat="44.29833" lon="6.90171">
        <ele>1436.99</ele>
        <time>2018-08-25T13:25:24Z</time>
      </trkpt>
      <trkpt lat="44.29812" lon="6.90166">
        <ele>1435.34</ele>
        <time>2018-08-25T13:25:25Z</time>
      </trkpt>
      <trkpt lat="44.29792" lon="6.90162">
        <ele>1434.85</ele>
        <time>2018-08-25T13:25:26Z</time>
      </trkpt>
      <trkpt lat="44.2977" lon="6.90164">
        <ele>1434</ele>
        <time>2018-08-25T13:25:27Z</time>
      </trkpt>
      <trkpt lat="44.29749" lon="6.90163">
        <ele>1432.35</ele>
        <time>2018-08-25T13:25:28Z</time>
      </trkpt>
      <trkpt lat="44.29727" lon="6.90162">
        <ele>1431.85</ele>
        <time>2018-08-25T13:25:29Z</time>
      </trkpt>
      <trkpt lat="44.29705" lon="6.90163">
        <ele>1430.3</ele>
        <time>2018-08-25T13:25:30Z</time>
      </trkpt>
      <trkpt lat="44.29686" lon="6.90168">
        <ele>1429.84</ele>
        <time>2018-08-25T13:25:31Z</time>
      </trkpt>
      <trkpt lat="44.29655" lon="6.90178">
        <ele>1428.05</ele>
        <time>2018-08-25T13:25:33Z</time>
      </trkpt>
      <trkpt lat="44.2963" lon="6.90183">
        <ele>1427.68</ele>
        <time>2018-08-25T13:25:35Z</time>
      </trkpt>
      <trkpt lat="44.296" lon="6.90178">
        <ele>1426.94</ele>
        <time>2018-08-25T13:25:37Z</time>
      </trkpt>
      <trkpt lat="44.29574" lon="6.90172">
        <ele>1426.67</ele>
        <time>2018-08-25T13:25:39Z</time>
      </trkpt>
      <trkpt lat="44.29547" lon="6.90176">
        <ele>1425.94</ele>
        <time>2018-08-25T13:25:41Z</time>
      </trkpt>
      <trkpt lat="44.29516" lon="6.90185">
        <ele>1424.27</ele>
        <time>2018-08-25T13:25:43Z</time>
      </trkpt>
      <trkpt lat="44.2948" lon="6.90181">
        <ele>1420.48</ele>
        <time>2018-08-25T13:25:45Z</time>
      </trkpt>
      <trkpt lat="44.29444" lon="6.9018">
        <ele>1419.02</ele>
        <time>2018-08-25T13:25:47Z</time>
      </trkpt>
      <trkpt lat="44.29426" lon="6.90182">
        <ele>1416.65</ele>
        <time>2018-08-25T13:25:48Z</time>
      </trkpt>
      <trkpt lat="44.29407" lon="6.90182">
        <ele>1415.24</ele>
        <time>2018-08-25T13:25:49Z</time>
      </trkpt>
      <trkpt lat="44.29388" lon="6.90181">
        <ele>1414.82</ele>
        <time>2018-08-25T13:25:50Z</time>
      </trkpt>
      <trkpt lat="44.29369" lon="6.9018">
        <ele>1414.69</ele>
        <time>2018-08-25T13:25:51Z</time>
      </trkpt>
      <trkpt lat="44.29337" lon="6.90177">
        <ele>1412.12</ele>
        <time>2018-08-25T13:25:53Z</time>
      </trkpt>
      <trkpt lat="44.29306" lon="6.90165">
        <ele>1411.68</ele>
        <time>2018-08-25T13:25:55Z</time>
      </trkpt>
      <trkpt lat="44.29288" lon="6.90155">
        <ele>1411.65</ele>
        <time>2018-08-25T13:25:56Z</time>
      </trkpt>
      <trkpt lat="44.2927" lon="6.90149">
        <ele>1410.94</ele>
        <time>2018-08-25T13:25:57Z</time>
      </trkpt>
      <trkpt lat="44.29238" lon="6.90136">
        <ele>1409.27</ele>
        <time>2018-08-25T13:25:59Z</time>
      </trkpt>
      <trkpt lat="44.29216" lon="6.90129">
        <ele>1408.7</ele>
        <time>2018-08-25T13:26:01Z</time>
      </trkpt>
      <trkpt lat="44.29201" lon="6.9011">
        <ele>1406.34</ele>
        <time>2018-08-25T13:26:03Z</time>
      </trkpt>
      <trkpt lat="44.29171" lon="6.90112">
        <ele>1404.09</ele>
        <time>2018-08-25T13:26:05Z</time>
      </trkpt>
      <trkpt lat="44.29141" lon="6.90113">
        <ele>1399.55</ele>
        <time>2018-08-25T13:26:07Z</time>
      </trkpt>
      <trkpt lat="44.29112" lon="6.90103">
        <ele>1396.41</ele>
        <time>2018-08-25T13:26:09Z</time>
      </trkpt>
      <trkpt lat="44.29089" lon="6.90079">
        <ele>1391.3</ele>
        <time>2018-08-25T13:26:11Z</time>
      </trkpt>
      <trkpt lat="44.29074" lon="6.90053">
        <ele>1386.57</ele>
        <time>2018-08-25T13:26:13Z</time>
      </trkpt>
      <trkpt lat="44.2907" lon="6.90022">
        <ele>1385.72</ele>
        <time>2018-08-25T13:26:15Z</time>
      </trkpt>
      <trkpt lat="44.2906" lon="6.89995">
        <ele>1383.13</ele>
        <time>2018-08-25T13:26:17Z</time>
      </trkpt>
      <trkpt lat="44.29046" lon="6.89979">
        <ele>1381.98</ele>
        <time>2018-08-25T13:26:19Z</time>
      </trkpt>
      <trkpt lat="44.29027" lon="6.89978">
        <ele>1381.67</ele>
        <time>2018-08-25T13:26:21Z</time>
      </trkpt>
      <trkpt lat="44.28995" lon="6.89996">
        <ele>1380.73</ele>
        <time>2018-08-25T13:26:23Z</time>
      </trkpt>
      <trkpt lat="44.28964" lon="6.89995">
        <ele>1379.95</ele>
        <time>2018-08-25T13:26:25Z</time>
      </trkpt>
      <trkpt lat="44.28927" lon="6.89968">
        <ele>1378.48</ele>
        <time>2018-08-25T13:26:27Z</time>
      </trkpt>
      <trkpt lat="44.289" lon="6.89948">
        <ele>1374.5</ele>
        <time>2018-08-25T13:26:29Z</time>
      </trkpt>
      <trkpt lat="44.28878" lon="6.89944">
        <ele>1373.02</ele>
        <time>2018-08-25T13:26:31Z</time>
      </trkpt>
      <trkpt lat="44.28853" lon="6.89952">
        <ele>1371.76</ele>
        <time>2018-08-25T13:26:33Z</time>
      </trkpt>
      <trkpt lat="44.28827" lon="6.8995">
        <ele>1369.13</ele>
        <time>2018-08-25T13:26:35Z</time>
      </trkpt>
      <trkpt lat="44.28804" lon="6.89933">
        <ele>1367.28</ele>
        <time>2018-08-25T13:26:37Z</time>
      </trkpt>
      <trkpt lat="44.28785" lon="6.89931">
        <ele>1365.09</ele>
        <time>2018-08-25T13:26:39Z</time>
      </trkpt>
      <trkpt lat="44.2876" lon="6.89943">
        <ele>1363.77</ele>
        <time>2018-08-25T13:26:41Z</time>
      </trkpt>
      <trkpt lat="44.28735" lon="6.89945">
        <ele>1361.34</ele>
        <time>2018-08-25T13:26:43Z</time>
      </trkpt>
      <trkpt lat="44.28716" lon="6.89932">
        <ele>1359.09</ele>
        <time>2018-08-25T13:26:45Z</time>
      </trkpt>
      <trkpt lat="44.28693" lon="6.89922">
        <ele>1356.07</ele>
        <time>2018-08-25T13:26:48Z</time>
      </trkpt>
      <trkpt lat="44.2868" lon="6.89942">
        <ele>1352.95</ele>
        <time>2018-08-25T13:27:30Z</time>
      </trkpt>
      <trkpt lat="44.28675" lon="6.89966">
        <ele>1350.94</ele>
        <time>2018-08-25T13:27:37Z</time>
      </trkpt>
      <trkpt lat="44.28669" lon="6.90001">
        <ele>1349.68</ele>
        <time>2018-08-25T13:28:30Z</time>
      </trkpt>
      <trkpt lat="44.28658" lon="6.90026">
        <ele>1348.94</ele>
        <time>2018-08-25T13:28:32Z</time>
      </trkpt>
      <trkpt lat="44.28635" lon="6.9004">
        <ele>1347.97</ele>
        <time>2018-08-25T13:28:34Z</time>
      </trkpt>
      <trkpt lat="44.28611" lon="6.9004">
        <ele>1346.76</ele>
        <time>2018-08-25T13:28:36Z</time>
      </trkpt>
      <trkpt lat="44.28586" lon="6.90049">
        <ele>1345.74</ele>
        <time>2018-08-25T13:28:38Z</time>
      </trkpt>
      <trkpt lat="44.2856" lon="6.9005">
        <ele>1345.65</ele>
        <time>2018-08-25T13:28:40Z</time>
      </trkpt>
      <trkpt lat="44.28532" lon="6.90047">
        <ele>1345.85</ele>
        <time>2018-08-25T13:28:42Z</time>
      </trkpt>
      <trkpt lat="44.28503" lon="6.9007">
        <ele>1343.35</ele>
        <time>2018-08-25T13:28:44Z</time>
      </trkpt>
      <trkpt lat="44.28471" lon="6.90094">
        <ele>1341.09</ele>
        <time>2018-08-25T13:28:46Z</time>
      </trkpt>
      <trkpt lat="44.28455" lon="6.90106">
        <ele>1339.38</ele>
        <time>2018-08-25T13:28:47Z</time>
      </trkpt>
      <trkpt lat="44.28438" lon="6.90116">
        <ele>1338.86</ele>
        <time>2018-08-25T13:28:48Z</time>
      </trkpt>
      <trkpt lat="44.28421" lon="6.90127">
        <ele>1337.31</ele>
        <time>2018-08-25T13:28:49Z</time>
      </trkpt>
      <trkpt lat="44.2839" lon="6.90149">
        <ele>1336</ele>
        <time>2018-08-25T13:28:51Z</time>
      </trkpt>
      <trkpt lat="44.28365" lon="6.90179">
        <ele>1334.06</ele>
        <time>2018-08-25T13:28:53Z</time>
      </trkpt>
      <trkpt lat="44.28343" lon="6.902">
        <ele>1331.37</ele>
        <time>2018-08-25T13:28:55Z</time>
      </trkpt>
      <trkpt lat="44.28315" lon="6.90199">
        <ele>1327.98</ele>
        <time>2018-08-25T13:28:57Z</time>
      </trkpt>
      <trkpt lat="44.28284" lon="6.90207">
        <ele>1325.15</ele>
        <time>2018-08-25T13:28:59Z</time>
      </trkpt>
      <trkpt lat="44.28255" lon="6.90233">
        <ele>1321.47</ele>
        <time>2018-08-25T13:29:01Z</time>
      </trkpt>
      <trkpt lat="44.28241" lon="6.90249">
        <ele>1320.19</ele>
        <time>2018-08-25T13:29:02Z</time>
      </trkpt>
      <trkpt lat="44.28225" lon="6.90266">
        <ele>1319.8</ele>
        <time>2018-08-25T13:29:03Z</time>
      </trkpt>
      <trkpt lat="44.2821" lon="6.90281">
        <ele>1318.99</ele>
        <time>2018-08-25T13:29:04Z</time>
      </trkpt>
      <trkpt lat="44.28193" lon="6.90294">
        <ele>1318.04</ele>
        <time>2018-08-25T13:29:05Z</time>
      </trkpt>
      <trkpt lat="44.28176" lon="6.90307">
        <ele>1317.76</ele>
        <time>2018-08-25T13:29:06Z</time>
      </trkpt>
      <trkpt lat="44.28159" lon="6.90319">
        <ele>1316.98</ele>
        <time>2018-08-25T13:29:07Z</time>
      </trkpt>
      <trkpt lat="44.28142" lon="6.90331">
        <ele>1316.04</ele>
        <time>2018-08-25T13:29:08Z</time>
      </trkpt>
      <trkpt lat="44.28109" lon="6.90349">
        <ele>1314.07</ele>
        <time>2018-08-25T13:29:10Z</time>
      </trkpt>
      <trkpt lat="44.28078" lon="6.90366">
        <ele>1312.07</ele>
        <time>2018-08-25T13:29:12Z</time>
      </trkpt>
      <trkpt lat="44.28052" lon="6.90392">
        <ele>1306.57</ele>
        <time>2018-08-25T13:29:14Z</time>
      </trkpt>
      <trkpt lat="44.2804" lon="6.90411">
        <ele>1305.22</ele>
        <time>2018-08-25T13:29:15Z</time>
      </trkpt>
      <trkpt lat="44.28028" lon="6.9043">
        <ele>1304.81</ele>
        <time>2018-08-25T13:29:16Z</time>
      </trkpt>
      <trkpt lat="44.28015" lon="6.9045">
        <ele>1303.99</ele>
        <time>2018-08-25T13:29:17Z</time>
      </trkpt>
      <trkpt lat="44.28002" lon="6.9047">
        <ele>1303.05</ele>
        <time>2018-08-25T13:29:18Z</time>
      </trkpt>
      <trkpt lat="44.2798" lon="6.90508">
        <ele>1301.28</ele>
        <time>2018-08-25T13:29:20Z</time>
      </trkpt>
      <trkpt lat="44.27962" lon="6.90548">
        <ele>1298.6</ele>
        <time>2018-08-25T13:29:22Z</time>
      </trkpt>
      <trkpt lat="44.27953" lon="6.90572">
        <ele>1297.93</ele>
        <time>2018-08-25T13:29:23Z</time>
      </trkpt>
      <trkpt lat="44.27946" lon="6.906">
        <ele>1297.03</ele>
        <time>2018-08-25T13:29:24Z</time>
      </trkpt>
      <trkpt lat="44.27938" lon="6.90624">
        <ele>1297.46</ele>
        <time>2018-08-25T13:29:25Z</time>
      </trkpt>
      <trkpt lat="44.27921" lon="6.90664">
        <ele>1296.01</ele>
        <time>2018-08-25T13:29:27Z</time>
      </trkpt>
      <trkpt lat="44.27901" lon="6.90704">
        <ele>1294.97</ele>
        <time>2018-08-25T13:29:29Z</time>
      </trkpt>
      <trkpt lat="44.27887" lon="6.90727">
        <ele>1293.34</ele>
        <time>2018-08-25T13:29:30Z</time>
      </trkpt>
      <trkpt lat="44.27872" lon="6.90746">
        <ele>1292.15</ele>
        <time>2018-08-25T13:29:31Z</time>
      </trkpt>
      <trkpt lat="44.27857" lon="6.90764">
        <ele>1291.09</ele>
        <time>2018-08-25T13:29:32Z</time>
      </trkpt>
      <trkpt lat="44.27843" lon="6.9078">
        <ele>1290.08</ele>
        <time>2018-08-25T13:29:33Z</time>
      </trkpt>
      <trkpt lat="44.27819" lon="6.90807">
        <ele>1287.86</ele>
        <time>2018-08-25T13:29:35Z</time>
      </trkpt>
      <trkpt lat="44.27803" lon="6.90832">
        <ele>1285.14</ele>
        <time>2018-08-25T13:29:37Z</time>
      </trkpt>
      <trkpt lat="44.27794" lon="6.90869">
        <ele>1282.38</ele>
        <time>2018-08-25T13:29:39Z</time>
      </trkpt>
      <trkpt lat="44.27783" lon="6.9091">
        <ele>1281.01</ele>
        <time>2018-08-25T13:29:41Z</time>
      </trkpt>
      <trkpt lat="44.27765" lon="6.90953">
        <ele>1278.36</ele>
        <time>2018-08-25T13:29:43Z</time>
      </trkpt>
      <trkpt lat="44.27754" lon="6.90973">
        <ele>1277.16</ele>
        <time>2018-08-25T13:29:44Z</time>
      </trkpt>
      <trkpt lat="44.27741" lon="6.90991">
        <ele>1276.8</ele>
        <time>2018-08-25T13:29:45Z</time>
      </trkpt>
      <trkpt lat="44.27713" lon="6.9102">
        <ele>1275.04</ele>
        <time>2018-08-25T13:29:47Z</time>
      </trkpt>
      <trkpt lat="44.27685" lon="6.91039">
        <ele>1273.07</ele>
        <time>2018-08-25T13:29:49Z</time>
      </trkpt>
      <trkpt lat="44.27658" lon="6.9106">
        <ele>1271.07</ele>
        <time>2018-08-25T13:29:51Z</time>
      </trkpt>
      <trkpt lat="44.27635" lon="6.91092">
        <ele>1269.07</ele>
        <time>2018-08-25T13:29:53Z</time>
      </trkpt>
      <trkpt lat="44.2762" lon="6.91141">
        <ele>1267.56</ele>
        <time>2018-08-25T13:29:55Z</time>
      </trkpt>
      <trkpt lat="44.27613" lon="6.91174">
        <ele>1265.52</ele>
        <time>2018-08-25T13:29:56Z</time>
      </trkpt>
      <trkpt lat="44.27603" lon="6.91206">
        <ele>1264.2</ele>
        <time>2018-08-25T13:29:57Z</time>
      </trkpt>
      <trkpt lat="44.27592" lon="6.91237">
        <ele>1261.71</ele>
        <time>2018-08-25T13:29:58Z</time>
      </trkpt>
      <trkpt lat="44.27579" lon="6.91265">
        <ele>1260.26</ele>
        <time>2018-08-25T13:29:59Z</time>
      </trkpt>
      <trkpt lat="44.27565" lon="6.91292">
        <ele>1259.13</ele>
        <time>2018-08-25T13:30:00Z</time>
      </trkpt>
      <trkpt lat="44.27551" lon="6.91318">
        <ele>1257.39</ele>
        <time>2018-08-25T13:30:01Z</time>
      </trkpt>
      <trkpt lat="44.27535" lon="6.91344">
        <ele>1256.86</ele>
        <time>2018-08-25T13:30:02Z</time>
      </trkpt>
      <trkpt lat="44.2752" lon="6.9137">
        <ele>1256.71</ele>
        <time>2018-08-25T13:30:03Z</time>
      </trkpt>
      <trkpt lat="44.27504" lon="6.91395">
        <ele>1255.96</ele>
        <time>2018-08-25T13:30:04Z</time>
      </trkpt>
      <trkpt lat="44.2749" lon="6.91419">
        <ele>1255.74</ele>
        <time>2018-08-25T13:30:05Z</time>
      </trkpt>
      <trkpt lat="44.27475" lon="6.91443">
        <ele>1255.67</ele>
        <time>2018-08-25T13:30:06Z</time>
      </trkpt>
      <trkpt lat="44.27461" lon="6.91466">
        <ele>1255.65</ele>
        <time>2018-08-25T13:30:07Z</time>
      </trkpt>
      <trkpt lat="44.27446" lon="6.91486">
        <ele>1256.34</ele>
        <time>2018-08-25T13:30:08Z</time>
      </trkpt>
      <trkpt lat="44.27433" lon="6.91505">
        <ele>1256.55</ele>
        <time>2018-08-25T13:30:09Z</time>
      </trkpt>
      <trkpt lat="44.2742" lon="6.91523">
        <ele>1255.91</ele>
        <time>2018-08-25T13:30:10Z</time>
      </trkpt>
      <trkpt lat="44.2741" lon="6.91544">
        <ele>1255.02</ele>
        <time>2018-08-25T13:30:11Z</time>
      </trkpt>
      <trkpt lat="44.27401" lon="6.91567">
        <ele>1253.35</ele>
        <time>2018-08-25T13:30:12Z</time>
      </trkpt>
      <trkpt lat="44.27394" lon="6.91592">
        <ele>1251.45</ele>
        <time>2018-08-25T13:30:13Z</time>
      </trkpt>
      <trkpt lat="44.27386" lon="6.91616">
        <ele>1250.18</ele>
        <time>2018-08-25T13:30:14Z</time>
      </trkpt>
      <trkpt lat="44.27377" lon="6.91639">
        <ele>1249.1</ele>
        <time>2018-08-25T13:30:15Z</time>
      </trkpt>
      <trkpt lat="44.27358" lon="6.91681">
        <ele>1247.77</ele>
        <time>2018-08-25T13:30:17Z</time>
      </trkpt>
      <trkpt lat="44.27346" lon="6.91701">
        <ele>1246.98</ele>
        <time>2018-08-25T13:30:18Z</time>
      </trkpt>
      <trkpt lat="44.27329" lon="6.91719">
        <ele>1246.04</ele>
        <time>2018-08-25T13:30:19Z</time>
      </trkpt>
      <trkpt lat="44.27298" lon="6.91714">
        <ele>1243.66</ele>
        <time>2018-08-25T13:30:20Z</time>
      </trkpt>
      <trkpt lat="44.27274" lon="6.91721">
        <ele>1242.25</ele>
        <time>2018-08-25T13:30:21Z</time>
      </trkpt>
      <trkpt lat="44.27254" lon="6.9173">
        <ele>1241.12</ele>
        <time>2018-08-25T13:30:22Z</time>
      </trkpt>
      <trkpt lat="44.27234" lon="6.9174">
        <ele>1240.78</ele>
        <time>2018-08-25T13:30:23Z</time>
      </trkpt>
      <trkpt lat="44.27215" lon="6.91749">
        <ele>1239.98</ele>
        <time>2018-08-25T13:30:24Z</time>
      </trkpt>
      <trkpt lat="44.27187" lon="6.91774">
        <ele>1238.06</ele>
        <time>2018-08-25T13:30:26Z</time>
      </trkpt>
      <trkpt lat="44.27167" lon="6.91808">
        <ele>1235.37</ele>
        <time>2018-08-25T13:30:28Z</time>
      </trkpt>
      <trkpt lat="44.27151" lon="6.91847">
        <ele>1231.7</ele>
        <time>2018-08-25T13:30:30Z</time>
      </trkpt>
      <trkpt lat="44.27145" lon="6.91871">
        <ele>1230.96</ele>
        <time>2018-08-25T13:30:31Z</time>
      </trkpt>
      <trkpt lat="44.27137" lon="6.919">
        <ele>1230.04</ele>
        <time>2018-08-25T13:30:32Z</time>
      </trkpt>
      <trkpt lat="44.27125" lon="6.91928">
        <ele>1229.06</ele>
        <time>2018-08-25T13:30:33Z</time>
      </trkpt>
      <trkpt lat="44.27111" lon="6.91953">
        <ele>1227.37</ele>
        <time>2018-08-25T13:30:34Z</time>
      </trkpt>
      <trkpt lat="44.27097" lon="6.91979">
        <ele>1226.16</ele>
        <time>2018-08-25T13:30:35Z</time>
      </trkpt>
      <trkpt lat="44.27083" lon="6.92002">
        <ele>1225.1</ele>
        <time>2018-08-25T13:30:36Z</time>
      </trkpt>
      <trkpt lat="44.27069" lon="6.92026">
        <ele>1224.08</ele>
        <time>2018-08-25T13:30:37Z</time>
      </trkpt>
      <trkpt lat="44.27055" lon="6.92049">
        <ele>1223.77</ele>
        <time>2018-08-25T13:30:38Z</time>
      </trkpt>
      <trkpt lat="44.27041" lon="6.92072">
        <ele>1223.68</ele>
        <time>2018-08-25T13:30:39Z</time>
      </trkpt>
      <trkpt lat="44.27022" lon="6.92088">
        <ele>1222.95</ele>
        <time>2018-08-25T13:30:40Z</time>
      </trkpt>
      <trkpt lat="44.27004" lon="6.92103">
        <ele>1222.03</ele>
        <time>2018-08-25T13:30:41Z</time>
      </trkpt>
      <trkpt lat="44.26979" lon="6.92103">
        <ele>1222.46</ele>
        <time>2018-08-25T13:30:42Z</time>
      </trkpt>
      <trkpt lat="44.26955" lon="6.92108">
        <ele>1222.59</ele>
        <time>2018-08-25T13:30:43Z</time>
      </trkpt>
      <trkpt lat="44.26931" lon="6.92112">
        <ele>1223.32</ele>
        <time>2018-08-25T13:30:44Z</time>
      </trkpt>
      <trkpt lat="44.26906" lon="6.92114">
        <ele>1222.85</ele>
        <time>2018-08-25T13:30:45Z</time>
      </trkpt>
      <trkpt lat="44.26882" lon="6.92111">
        <ele>1223.4</ele>
        <time>2018-08-25T13:30:46Z</time>
      </trkpt>
      <trkpt lat="44.26858" lon="6.92104">
        <ele>1222.87</ele>
        <time>2018-08-25T13:30:47Z</time>
      </trkpt>
      <trkpt lat="44.26836" lon="6.92095">
        <ele>1222.71</ele>
        <time>2018-08-25T13:30:48Z</time>
      </trkpt>
      <trkpt lat="44.26815" lon="6.92086">
        <ele>1221.96</ele>
        <time>2018-08-25T13:30:49Z</time>
      </trkpt>
      <trkpt lat="44.26795" lon="6.9208">
        <ele>1221.74</ele>
        <time>2018-08-25T13:30:50Z</time>
      </trkpt>
      <trkpt lat="44.26775" lon="6.92078">
        <ele>1221.67</ele>
        <time>2018-08-25T13:30:51Z</time>
      </trkpt>
      <trkpt lat="44.26753" lon="6.92084">
        <ele>1220.95</ele>
        <time>2018-08-25T13:30:52Z</time>
      </trkpt>
      <trkpt lat="44.2673" lon="6.92092">
        <ele>1220.73</ele>
        <time>2018-08-25T13:30:53Z</time>
      </trkpt>
      <trkpt lat="44.26707" lon="6.92102">
        <ele>1220.67</ele>
        <time>2018-08-25T13:30:54Z</time>
      </trkpt>
      <trkpt lat="44.26683" lon="6.9211">
        <ele>1220.65</ele>
        <time>2018-08-25T13:30:55Z</time>
      </trkpt>
      <trkpt lat="44.2666" lon="6.92118">
        <ele>1219.94</ele>
        <time>2018-08-25T13:30:56Z</time>
      </trkpt>
      <trkpt lat="44.26637" lon="6.92125">
        <ele>1219.03</ele>
        <time>2018-08-25T13:30:57Z</time>
      </trkpt>
      <trkpt lat="44.26615" lon="6.92133">
        <ele>1218.76</ele>
        <time>2018-08-25T13:30:58Z</time>
      </trkpt>
      <trkpt lat="44.26592" lon="6.9214">
        <ele>1217.98</ele>
        <time>2018-08-25T13:30:59Z</time>
      </trkpt>
      <trkpt lat="44.2657" lon="6.92147">
        <ele>1217.04</ele>
        <time>2018-08-25T13:31:00Z</time>
      </trkpt>
      <trkpt lat="44.26552" lon="6.92152">
        <ele>1216.06</ele>
        <time>2018-08-25T13:31:01Z</time>
      </trkpt>
      <trkpt lat="44.26514" lon="6.92149">
        <ele>1214.07</ele>
        <time>2018-08-25T13:31:03Z</time>
      </trkpt>
      <trkpt lat="44.26493" lon="6.92145">
        <ele>1213.07</ele>
        <time>2018-08-25T13:31:04Z</time>
      </trkpt>
      <trkpt lat="44.26471" lon="6.92142">
        <ele>1212.07</ele>
        <time>2018-08-25T13:31:05Z</time>
      </trkpt>
      <trkpt lat="44.26448" lon="6.92141">
        <ele>1210.37</ele>
        <time>2018-08-25T13:31:06Z</time>
      </trkpt>
      <trkpt lat="44.26426" lon="6.92139">
        <ele>1208.46</ele>
        <time>2018-08-25T13:31:07Z</time>
      </trkpt>
      <trkpt lat="44.26405" lon="6.92138">
        <ele>1207.19</ele>
        <time>2018-08-25T13:31:08Z</time>
      </trkpt>
      <trkpt lat="44.26387" lon="6.92136">
        <ele>1206.8</ele>
        <time>2018-08-25T13:31:09Z</time>
      </trkpt>
      <trkpt lat="44.26358" lon="6.92134">
        <ele>1205.95</ele>
        <time>2018-08-25T13:31:11Z</time>
      </trkpt>
      <trkpt lat="44.26335" lon="6.92138">
        <ele>1204.06</ele>
        <time>2018-08-25T13:31:13Z</time>
      </trkpt>
      <trkpt lat="44.26311" lon="6.92154">
        <ele>1200.46</ele>
        <time>2018-08-25T13:31:15Z</time>
      </trkpt>
      <trkpt lat="44.26282" lon="6.92159">
        <ele>1199.71</ele>
        <time>2018-08-25T13:31:17Z</time>
      </trkpt>
      <trkpt lat="44.26257" lon="6.92153">
        <ele>1198.74</ele>
        <time>2018-08-25T13:31:19Z</time>
      </trkpt>
      <trkpt lat="44.26235" lon="6.92143">
        <ele>1197.74</ele>
        <time>2018-08-25T13:31:21Z</time>
      </trkpt>
      <trkpt lat="44.26213" lon="6.92135">
        <ele>1196.04</ele>
        <time>2018-08-25T13:31:23Z</time>
      </trkpt>
      <trkpt lat="44.26194" lon="6.92136">
        <ele>1191.27</ele>
        <time>2018-08-25T13:31:25Z</time>
      </trkpt>
      <trkpt lat="44.26173" lon="6.92137">
        <ele>1188.98</ele>
        <time>2018-08-25T13:31:28Z</time>
      </trkpt>
      <trkpt lat="44.26152" lon="6.92155">
        <ele>1186</ele>
        <time>2018-08-25T13:31:32Z</time>
      </trkpt>
      <trkpt lat="44.26129" lon="6.9216">
        <ele>1184.74</ele>
        <time>2018-08-25T13:31:35Z</time>
      </trkpt>
      <trkpt lat="44.26105" lon="6.9216">
        <ele>1182.97</ele>
        <time>2018-08-25T13:31:38Z</time>
      </trkpt>
      <trkpt lat="44.26088" lon="6.92172">
        <ele>1180.15</ele>
        <time>2018-08-25T13:31:40Z</time>
      </trkpt>
      <trkpt lat="44.26071" lon="6.92185">
        <ele>1178.08</ele>
        <time>2018-08-25T13:31:42Z</time>
      </trkpt>
      <trkpt lat="44.26055" lon="6.92195">
        <ele>1177.68</ele>
        <time>2018-08-25T13:31:44Z</time>
      </trkpt>
      <trkpt lat="44.26031" lon="6.9221">
        <ele>1174.42</ele>
        <time>2018-08-25T13:31:47Z</time>
      </trkpt>
      <trkpt lat="44.26016" lon="6.9223">
        <ele>1173.01</ele>
        <time>2018-08-25T13:31:49Z</time>
      </trkpt>
      <trkpt lat="44.26002" lon="6.9225">
        <ele>1171.76</ele>
        <time>2018-08-25T13:31:51Z</time>
      </trkpt>
      <trkpt lat="44.2599" lon="6.92273">
        <ele>1170.95</ele>
        <time>2018-08-25T13:31:53Z</time>
      </trkpt>
      <trkpt lat="44.25981" lon="6.92299">
        <ele>1169.76</ele>
        <time>2018-08-25T13:31:55Z</time>
      </trkpt>
      <trkpt lat="44.25972" lon="6.92323">
        <ele>1168.04</ele>
        <time>2018-08-25T13:31:57Z</time>
      </trkpt>
      <trkpt lat="44.25964" lon="6.9235">
        <ele>1166.98</ele>
        <time>2018-08-25T13:31:59Z</time>
      </trkpt>
      <trkpt lat="44.25958" lon="6.92379">
        <ele>1165.06</ele>
        <time>2018-08-25T13:32:01Z</time>
      </trkpt>
      <trkpt lat="44.25954" lon="6.92409">
        <ele>1163.28</ele>
        <time>2018-08-25T13:32:03Z</time>
      </trkpt>
      <trkpt lat="44.25945" lon="6.92436">
        <ele>1161.09</ele>
        <time>2018-08-25T13:32:05Z</time>
      </trkpt>
      <trkpt lat="44.25941" lon="6.92464">
        <ele>1158.37</ele>
        <time>2018-08-25T13:32:07Z</time>
      </trkpt>
      <trkpt lat="44.25938" lon="6.92495">
        <ele>1156.1</ele>
        <time>2018-08-25T13:32:09Z</time>
      </trkpt>
      <trkpt lat="44.25928" lon="6.92521">
        <ele>1154.77</ele>
        <time>2018-08-25T13:32:11Z</time>
      </trkpt>
      <trkpt lat="44.25913" lon="6.92543">
        <ele>1153.95</ele>
        <time>2018-08-25T13:32:13Z</time>
      </trkpt>
      <trkpt lat="44.25899" lon="6.92564">
        <ele>1154.58</ele>
        <time>2018-08-25T13:32:15Z</time>
      </trkpt>
      <trkpt lat="44.25882" lon="6.92586">
        <ele>1152.97</ele>
        <time>2018-08-25T13:32:18Z</time>
      </trkpt>
      <trkpt lat="44.25867" lon="6.926">
        <ele>1152.65</ele>
        <time>2018-08-25T13:32:21Z</time>
      </trkpt>
      <trkpt lat="44.25848" lon="6.92581">
        <ele>1148.19</ele>
        <time>2018-08-25T13:32:26Z</time>
      </trkpt>
      <trkpt lat="44.25835" lon="6.92556">
        <ele>1146.65</ele>
        <time>2018-08-25T13:32:30Z</time>
      </trkpt>
      <trkpt lat="44.25823" lon="6.92534">
        <ele>1145.88</ele>
        <time>2018-08-25T13:32:33Z</time>
      </trkpt>
      <trkpt lat="44.25811" lon="6.92513">
        <ele>1145.65</ele>
        <time>2018-08-25T13:32:36Z</time>
      </trkpt>
      <trkpt lat="44.25793" lon="6.92504">
        <ele>1145.64</ele>
        <time>2018-08-25T13:32:40Z</time>
      </trkpt>
      <trkpt lat="44.25782" lon="6.92524">
        <ele>1144.94</ele>
        <time>2018-08-25T13:32:44Z</time>
      </trkpt>
      <trkpt lat="44.25769" lon="6.92542">
        <ele>1145.35</ele>
        <time>2018-08-25T13:32:47Z</time>
      </trkpt>
      <trkpt lat="44.2575" lon="6.92563">
        <ele>1146.54</ele>
        <time>2018-08-25T13:32:50Z</time>
      </trkpt>
      <trkpt lat="44.25731" lon="6.92589">
        <ele>1146.85</ele>
        <time>2018-08-25T13:32:53Z</time>
      </trkpt>
      <trkpt lat="44.25712" lon="6.92612">
        <ele>1147.62</ele>
        <time>2018-08-25T13:32:56Z</time>
      </trkpt>
      <trkpt lat="44.25687" lon="6.92622">
        <ele>1147.91</ele>
        <time>2018-08-25T13:32:59Z</time>
      </trkpt>
      <trkpt lat="44.2566" lon="6.92627">
        <ele>1147.65</ele>
        <time>2018-08-25T13:33:02Z</time>
      </trkpt>
      <trkpt lat="44.25634" lon="6.92631">
        <ele>1148.61</ele>
        <time>2018-08-25T13:33:05Z</time>
      </trkpt>
      <trkpt lat="44.25614" lon="6.92627">
        <ele>1148.64</ele>
        <time>2018-08-25T13:33:08Z</time>
      </trkpt>
      <trkpt lat="44.25596" lon="6.92606">
        <ele>1145.96</ele>
        <time>2018-08-25T13:33:12Z</time>
      </trkpt>
      <trkpt lat="44.25584" lon="6.92585">
        <ele>1143.33</ele>
        <time>2018-08-25T13:33:28Z</time>
      </trkpt>
      <trkpt lat="44.25565" lon="6.92575">
        <ele>1150.25</ele>
        <time>2018-08-25T13:42:28Z</time>
      </trkpt>
      <trkpt lat="44.25548" lon="6.92566">
        <ele>1151.59</ele>
        <time>2018-08-25T13:42:33Z</time>
      </trkpt>
      <trkpt lat="44.25529" lon="6.92552">
        <ele>1153.55</ele>
        <time>2018-08-25T13:42:38Z</time>
      </trkpt>
      <trkpt lat="44.25512" lon="6.92535">
        <ele>1152.94</ele>
        <time>2018-08-25T13:42:42Z</time>
      </trkpt>
      <trkpt lat="44.255" lon="6.92515">
        <ele>1152.65</ele>
        <time>2018-08-25T13:42:45Z</time>
      </trkpt>
      <trkpt lat="44.25485" lon="6.92496">
        <ele>1152.85</ele>
        <time>2018-08-25T13:42:48Z</time>
      </trkpt>
      <trkpt lat="44.2547" lon="6.92476">
        <ele>1154.32</ele>
        <time>2018-08-25T13:42:51Z</time>
      </trkpt>
      <trkpt lat="44.25451" lon="6.92461">
        <ele>1153.86</ele>
        <time>2018-08-25T13:42:55Z</time>
      </trkpt>
      <trkpt lat="44.2543" lon="6.92471">
        <ele>1154.89</ele>
        <time>2018-08-25T13:42:58Z</time>
      </trkpt>
      <trkpt lat="44.25407" lon="6.92491">
        <ele>1154.65</ele>
        <time>2018-08-25T13:43:01Z</time>
      </trkpt>
      <trkpt lat="44.25392" lon="6.92508">
        <ele>1156.04</ele>
        <time>2018-08-25T13:43:03Z</time>
      </trkpt>
      <trkpt lat="44.25377" lon="6.92527">
        <ele>1157.5</ele>
        <time>2018-08-25T13:43:05Z</time>
      </trkpt>
      <trkpt lat="44.25361" lon="6.92548">
        <ele>1160.15</ele>
        <time>2018-08-25T13:43:07Z</time>
      </trkpt>
      <trkpt lat="44.25345" lon="6.92569">
        <ele>1160.6</ele>
        <time>2018-08-25T13:43:09Z</time>
      </trkpt>
      <trkpt lat="44.25327" lon="6.92592">
        <ele>1162.25</ele>
        <time>2018-08-25T13:43:11Z</time>
      </trkpt>
      <trkpt lat="44.25308" lon="6.92618">
        <ele>1161.69</ele>
        <time>2018-08-25T13:43:13Z</time>
      </trkpt>
      <trkpt lat="44.25285" lon="6.92642">
        <ele>1162.34</ele>
        <time>2018-08-25T13:43:15Z</time>
      </trkpt>
      <trkpt lat="44.25258" lon="6.92661">
        <ele>1163.52</ele>
        <time>2018-08-25T13:43:17Z</time>
      </trkpt>
      <trkpt lat="44.25231" lon="6.92675">
        <ele>1164.54</ele>
        <time>2018-08-25T13:43:19Z</time>
      </trkpt>
      <trkpt lat="44.25201" lon="6.92686">
        <ele>1164.63</ele>
        <time>2018-08-25T13:43:21Z</time>
      </trkpt>
      <trkpt lat="44.25173" lon="6.92703">
        <ele>1165.55</ele>
        <time>2018-08-25T13:43:23Z</time>
      </trkpt>
      <trkpt lat="44.25143" lon="6.92719">
        <ele>1164.72</ele>
        <time>2018-08-25T13:43:25Z</time>
      </trkpt>
      <trkpt lat="44.25112" lon="6.92741">
        <ele>1163.74</ele>
        <time>2018-08-25T13:43:27Z</time>
      </trkpt>
      <trkpt lat="44.25096" lon="6.92756">
        <ele>1164.37</ele>
        <time>2018-08-25T13:43:28Z</time>
      </trkpt>
      <trkpt lat="44.25081" lon="6.92771">
        <ele>1165.26</ele>
        <time>2018-08-25T13:43:29Z</time>
      </trkpt>
      <trkpt lat="44.25066" lon="6.92786">
        <ele>1165.53</ele>
        <time>2018-08-25T13:43:30Z</time>
      </trkpt>
      <trkpt lat="44.25049" lon="6.92797">
        <ele>1166.31</ele>
        <time>2018-08-25T13:43:31Z</time>
      </trkpt>
      <trkpt lat="44.25033" lon="6.92807">
        <ele>1166.54</ele>
        <time>2018-08-25T13:43:32Z</time>
      </trkpt>
      <trkpt lat="44.25006" lon="6.92834">
        <ele>1168.45</ele>
        <time>2018-08-25T13:43:34Z</time>
      </trkpt>
      <trkpt lat="44.24977" lon="6.92858">
        <ele>1171.97</ele>
        <time>2018-08-25T13:43:36Z</time>
      </trkpt>
      <trkpt lat="44.24951" lon="6.92881">
        <ele>1173.41</ele>
        <time>2018-08-25T13:43:38Z</time>
      </trkpt>
      <trkpt lat="44.24928" lon="6.92905">
        <ele>1176.06</ele>
        <time>2018-08-25T13:43:40Z</time>
      </trkpt>
      <trkpt lat="44.24907" lon="6.92927">
        <ele>1177.41</ele>
        <time>2018-08-25T13:43:42Z</time>
      </trkpt>
      <trkpt lat="44.24884" lon="6.9294">
        <ele>1178.45</ele>
        <time>2018-08-25T13:43:44Z</time>
      </trkpt>
      <trkpt lat="44.24861" lon="6.92963">
        <ele>1179.45</ele>
        <time>2018-08-25T13:43:46Z</time>
      </trkpt>
      <trkpt lat="44.24842" lon="6.92998">
        <ele>1179.54</ele>
        <time>2018-08-25T13:43:48Z</time>
      </trkpt>
      <trkpt lat="44.24825" lon="6.93039">
        <ele>1179.76</ele>
        <time>2018-08-25T13:43:50Z</time>
      </trkpt>
      <trkpt lat="44.24806" lon="6.93078">
        <ele>1179.57</ele>
        <time>2018-08-25T13:43:52Z</time>
      </trkpt>
      <trkpt lat="44.2479" lon="6.93099">
        <ele>1178.15</ele>
        <time>2018-08-25T13:43:53Z</time>
      </trkpt>
      <trkpt lat="44.24775" lon="6.9312">
        <ele>1177.73</ele>
        <time>2018-08-25T13:43:54Z</time>
      </trkpt>
      <trkpt lat="44.24762" lon="6.93142">
        <ele>1177.6</ele>
        <time>2018-08-25T13:43:55Z</time>
      </trkpt>
      <trkpt lat="44.2475" lon="6.93168">
        <ele>1177.56</ele>
        <time>2018-08-25T13:43:56Z</time>
      </trkpt>
      <trkpt lat="44.24739" lon="6.93194">
        <ele>1177.55</ele>
        <time>2018-08-25T13:43:57Z</time>
      </trkpt>
      <trkpt lat="44.24729" lon="6.93217">
        <ele>1177.55</ele>
        <time>2018-08-25T13:43:58Z</time>
      </trkpt>
      <trkpt lat="44.24706" lon="6.93251">
        <ele>1177.55</ele>
        <time>2018-08-25T13:44:00Z</time>
      </trkpt>
      <trkpt lat="44.24692" lon="6.93268">
        <ele>1176.85</ele>
        <time>2018-08-25T13:44:01Z</time>
      </trkpt>
      <trkpt lat="44.24678" lon="6.93288">
        <ele>1176.64</ele>
        <time>2018-08-25T13:44:02Z</time>
      </trkpt>
      <trkpt lat="44.24666" lon="6.93311">
        <ele>1176.57</ele>
        <time>2018-08-25T13:44:03Z</time>
      </trkpt>
      <trkpt lat="44.24656" lon="6.93334">
        <ele>1175.86</ele>
        <time>2018-08-25T13:44:04Z</time>
      </trkpt>
      <trkpt lat="44.24645" lon="6.93354">
        <ele>1175.64</ele>
        <time>2018-08-25T13:44:05Z</time>
      </trkpt>
      <trkpt lat="44.24621" lon="6.93386">
        <ele>1175.56</ele>
        <time>2018-08-25T13:44:07Z</time>
      </trkpt>
      <trkpt lat="44.24596" lon="6.93405">
        <ele>1176.25</ele>
        <time>2018-08-25T13:44:09Z</time>
      </trkpt>
      <trkpt lat="44.24572" lon="6.93407">
        <ele>1177.43</ele>
        <time>2018-08-25T13:44:11Z</time>
      </trkpt>
      <trkpt lat="44.24541" lon="6.93391">
        <ele>1180.06</ele>
        <time>2018-08-25T13:44:13Z</time>
      </trkpt>
      <trkpt lat="44.24511" lon="6.93381">
        <ele>1183.23</ele>
        <time>2018-08-25T13:44:15Z</time>
      </trkpt>
      <trkpt lat="44.24487" lon="6.93389">
        <ele>1184.92</ele>
        <time>2018-08-25T13:44:17Z</time>
      </trkpt>
      <trkpt lat="44.24468" lon="6.93413">
        <ele>1186.19</ele>
        <time>2018-08-25T13:44:19Z</time>
      </trkpt>
      <trkpt lat="44.24459" lon="6.93447">
        <ele>1185.61</ele>
        <time>2018-08-25T13:44:21Z</time>
      </trkpt>
      <trkpt lat="44.24465" lon="6.93479">
        <ele>1188.07</ele>
        <time>2018-08-25T13:44:23Z</time>
      </trkpt>
      <trkpt lat="44.24457" lon="6.93507">
        <ele>1190.33</ele>
        <time>2018-08-25T13:44:25Z</time>
      </trkpt>
      <trkpt lat="44.24443" lon="6.93529">
        <ele>1191.23</ele>
        <time>2018-08-25T13:44:27Z</time>
      </trkpt>
      <trkpt lat="44.24427" lon="6.93547">
        <ele>1192.43</ele>
        <time>2018-08-25T13:44:29Z</time>
      </trkpt>
      <trkpt lat="44.24411" lon="6.93566">
        <ele>1192.54</ele>
        <time>2018-08-25T13:44:31Z</time>
      </trkpt>
      <trkpt lat="44.24397" lon="6.93583">
        <ele>1196.68</ele>
        <time>2018-08-25T13:44:33Z</time>
      </trkpt>
      <trkpt lat="44.24383" lon="6.93602">
        <ele>1199.78</ele>
        <time>2018-08-25T13:44:35Z</time>
      </trkpt>
      <trkpt lat="44.24366" lon="6.93623">
        <ele>1201.18</ele>
        <time>2018-08-25T13:44:37Z</time>
      </trkpt>
      <trkpt lat="44.24349" lon="6.93647">
        <ele>1203.82</ele>
        <time>2018-08-25T13:44:39Z</time>
      </trkpt>
      <trkpt lat="44.24333" lon="6.93669">
        <ele>1206.09</ele>
        <time>2018-08-25T13:44:41Z</time>
      </trkpt>
      <trkpt lat="44.24317" lon="6.93684">
        <ele>1207.42</ele>
        <time>2018-08-25T13:44:43Z</time>
      </trkpt>
      <trkpt lat="44.243" lon="6.93698">
        <ele>1207.54</ele>
        <time>2018-08-25T13:44:46Z</time>
      </trkpt>
      <trkpt lat="44.24276" lon="6.93695">
        <ele>1207.47</ele>
        <time>2018-08-25T13:44:50Z</time>
      </trkpt>
      <trkpt lat="44.24256" lon="6.93703">
        <ele>1206.57</ele>
        <time>2018-08-25T13:44:53Z</time>
      </trkpt>
      <trkpt lat="44.2425" lon="6.93732">
        <ele>1206.61</ele>
        <time>2018-08-25T13:44:56Z</time>
      </trkpt>
      <trkpt lat="44.24232" lon="6.93755">
        <ele>1206.55</ele>
        <time>2018-08-25T13:44:59Z</time>
      </trkpt>
      <trkpt lat="44.24212" lon="6.9377">
        <ele>1205.64</ele>
        <time>2018-08-25T13:45:01Z</time>
      </trkpt>
      <trkpt lat="44.2418" lon="6.93779">
        <ele>1204.65</ele>
        <time>2018-08-25T13:45:03Z</time>
      </trkpt>
      <trkpt lat="44.24161" lon="6.93779">
        <ele>1203.88</ele>
        <time>2018-08-25T13:45:04Z</time>
      </trkpt>
      <trkpt lat="44.24142" lon="6.93779">
        <ele>1202.95</ele>
        <time>2018-08-25T13:45:05Z</time>
      </trkpt>
      <trkpt lat="44.24122" lon="6.9378">
        <ele>1201.97</ele>
        <time>2018-08-25T13:45:06Z</time>
      </trkpt>
      <trkpt lat="44.24102" lon="6.93783">
        <ele>1200.27</ele>
        <time>2018-08-25T13:45:07Z</time>
      </trkpt>
      <trkpt lat="44.24084" lon="6.93789">
        <ele>1199.07</ele>
        <time>2018-08-25T13:45:08Z</time>
      </trkpt>
      <trkpt lat="44.24066" lon="6.938">
        <ele>1197.3</ele>
        <time>2018-08-25T13:45:09Z</time>
      </trkpt>
      <trkpt lat="44.2405" lon="6.93813">
        <ele>1196.07</ele>
        <time>2018-08-25T13:45:10Z</time>
      </trkpt>
      <trkpt lat="44.24035" lon="6.9383">
        <ele>1195.01</ele>
        <time>2018-08-25T13:45:11Z</time>
      </trkpt>
      <trkpt lat="44.24022" lon="6.93852">
        <ele>1193.29</ele>
        <time>2018-08-25T13:45:12Z</time>
      </trkpt>
      <trkpt lat="44.24008" lon="6.93873">
        <ele>1191.37</ele>
        <time>2018-08-25T13:45:13Z</time>
      </trkpt>
      <trkpt lat="44.23994" lon="6.93894">
        <ele>1190.09</ele>
        <time>2018-08-25T13:45:14Z</time>
      </trkpt>
      <trkpt lat="44.23981" lon="6.93915">
        <ele>1188.31</ele>
        <time>2018-08-25T13:45:15Z</time>
      </trkpt>
      <trkpt lat="44.23968" lon="6.93936">
        <ele>1187.08</ele>
        <time>2018-08-25T13:45:16Z</time>
      </trkpt>
      <trkpt lat="44.23954" lon="6.93956">
        <ele>1185.31</ele>
        <time>2018-08-25T13:45:17Z</time>
      </trkpt>
      <trkpt lat="44.23941" lon="6.93976">
        <ele>1184.08</ele>
        <time>2018-08-25T13:45:18Z</time>
      </trkpt>
      <trkpt lat="44.23927" lon="6.93997">
        <ele>1183.01</ele>
        <time>2018-08-25T13:45:19Z</time>
      </trkpt>
      <trkpt lat="44.23912" lon="6.94018">
        <ele>1181.29</ele>
        <time>2018-08-25T13:45:20Z</time>
      </trkpt>
      <trkpt lat="44.23897" lon="6.94038">
        <ele>1178.67</ele>
        <time>2018-08-25T13:45:21Z</time>
      </trkpt>
      <trkpt lat="44.23882" lon="6.94057">
        <ele>1176.48</ele>
        <time>2018-08-25T13:45:22Z</time>
      </trkpt>
      <trkpt lat="44.23867" lon="6.94076">
        <ele>1175.13</ele>
        <time>2018-08-25T13:45:23Z</time>
      </trkpt>
      <trkpt lat="44.23852" lon="6.94093">
        <ele>1174.02</ele>
        <time>2018-08-25T13:45:24Z</time>
      </trkpt>
      <trkpt lat="44.23827" lon="6.94122">
        <ele>1171.98</ele>
        <time>2018-08-25T13:45:26Z</time>
      </trkpt>
      <trkpt lat="44.23809" lon="6.94145">
        <ele>1170.89</ele>
        <time>2018-08-25T13:45:28Z</time>
      </trkpt>
      <trkpt lat="44.23795" lon="6.9417">
        <ele>1170.58</ele>
        <time>2018-08-25T13:45:30Z</time>
      </trkpt>
      <trkpt lat="44.23799" lon="6.94196">
        <ele>1170.55</ele>
        <time>2018-08-25T13:45:32Z</time>
      </trkpt>
      <trkpt lat="44.23821" lon="6.94211">
        <ele>1168.67</ele>
        <time>2018-08-25T13:45:35Z</time>
      </trkpt>
      <trkpt lat="44.23837" lon="6.94198">
        <ele>1167.65</ele>
        <time>2018-08-25T13:45:37Z</time>
      </trkpt>
      <trkpt lat="44.23851" lon="6.94171">
        <ele>1166.86</ele>
        <time>2018-08-25T13:45:39Z</time>
      </trkpt>
      <trkpt lat="44.23866" lon="6.94138">
        <ele>1164.06</ele>
        <time>2018-08-25T13:45:41Z</time>
      </trkpt>
      <trkpt lat="44.2389" lon="6.94102">
        <ele>1161.07</ele>
        <time>2018-08-25T13:45:43Z</time>
      </trkpt>
      <trkpt lat="44.23908" lon="6.94087">
        <ele>1160.01</ele>
        <time>2018-08-25T13:45:44Z</time>
      </trkpt>
      <trkpt lat="44.23928" lon="6.94071">
        <ele>1158.99</ele>
        <time>2018-08-25T13:45:45Z</time>
      </trkpt>
      <trkpt lat="44.23948" lon="6.94054">
        <ele>1157.98</ele>
        <time>2018-08-25T13:45:46Z</time>
      </trkpt>
      <trkpt lat="44.23968" lon="6.94032">
        <ele>1156.98</ele>
        <time>2018-08-25T13:45:47Z</time>
      </trkpt>
      <trkpt lat="44.23986" lon="6.94013">
        <ele>1155.28</ele>
        <time>2018-08-25T13:45:48Z</time>
      </trkpt>
      <trkpt lat="44.24002" lon="6.93995">
        <ele>1154.07</ele>
        <time>2018-08-25T13:45:49Z</time>
      </trkpt>
      <trkpt lat="44.24024" lon="6.93966">
        <ele>1153.8</ele>
        <time>2018-08-25T13:45:51Z</time>
      </trkpt>
      <trkpt lat="44.24044" lon="6.93963">
        <ele>1151.96</ele>
        <time>2018-08-25T13:45:53Z</time>
      </trkpt>
      <trkpt lat="44.2406" lon="6.93978">
        <ele>1150.68</ele>
        <time>2018-08-25T13:45:55Z</time>
      </trkpt>
      <trkpt lat="44.24028" lon="6.94028">
        <ele>1149.15</ele>
        <time>2018-08-25T13:45:58Z</time>
      </trkpt>
      <trkpt lat="44.24013" lon="6.94044">
        <ele>1148.73</ele>
        <time>2018-08-25T13:45:59Z</time>
      </trkpt>
      <trkpt lat="44.23999" lon="6.94063">
        <ele>1147.9</ele>
        <time>2018-08-25T13:46:00Z</time>
      </trkpt>
      <trkpt lat="44.23986" lon="6.94081">
        <ele>1146.25</ele>
        <time>2018-08-25T13:46:01Z</time>
      </trkpt>
      <trkpt lat="44.23972" lon="6.94101">
        <ele>1145.06</ele>
        <time>2018-08-25T13:46:02Z</time>
      </trkpt>
      <trkpt lat="44.23958" lon="6.94121">
        <ele>1144</ele>
        <time>2018-08-25T13:46:03Z</time>
      </trkpt>
      <trkpt lat="44.23945" lon="6.94143">
        <ele>1142.28</ele>
        <time>2018-08-25T13:46:04Z</time>
      </trkpt>
      <trkpt lat="44.23934" lon="6.94167">
        <ele>1141.07</ele>
        <time>2018-08-25T13:46:05Z</time>
      </trkpt>
      <trkpt lat="44.23923" lon="6.9419">
        <ele>1140</ele>
        <time>2018-08-25T13:46:06Z</time>
      </trkpt>
      <trkpt lat="44.23915" lon="6.9422">
        <ele>1138.98</ele>
        <time>2018-08-25T13:46:07Z</time>
      </trkpt>
      <trkpt lat="44.23908" lon="6.94248">
        <ele>1137.98</ele>
        <time>2018-08-25T13:46:08Z</time>
      </trkpt>
      <trkpt lat="44.23901" lon="6.94277">
        <ele>1135.58</ele>
        <time>2018-08-25T13:46:09Z</time>
      </trkpt>
      <trkpt lat="44.23892" lon="6.94305">
        <ele>1133.46</ele>
        <time>2018-08-25T13:46:10Z</time>
      </trkpt>
      <trkpt lat="44.2388" lon="6.94331">
        <ele>1131.42</ele>
        <time>2018-08-25T13:46:11Z</time>
      </trkpt>
      <trkpt lat="44.23866" lon="6.94353">
        <ele>1129.41</ele>
        <time>2018-08-25T13:46:12Z</time>
      </trkpt>
      <trkpt lat="44.2385" lon="6.94375">
        <ele>1128.81</ele>
        <time>2018-08-25T13:46:13Z</time>
      </trkpt>
      <trkpt lat="44.23833" lon="6.94396">
        <ele>1127.93</ele>
        <time>2018-08-25T13:46:14Z</time>
      </trkpt>
      <trkpt lat="44.23814" lon="6.94414">
        <ele>1126.26</ele>
        <time>2018-08-25T13:46:15Z</time>
      </trkpt>
      <trkpt lat="44.23786" lon="6.94412">
        <ele>1124.36</ele>
        <time>2018-08-25T13:46:16Z</time>
      </trkpt>
      <trkpt lat="44.23764" lon="6.94422">
        <ele>1121.69</ele>
        <time>2018-08-25T13:46:17Z</time>
      </trkpt>
      <trkpt lat="44.23741" lon="6.94435">
        <ele>1118.79</ele>
        <time>2018-08-25T13:46:18Z</time>
      </trkpt>
      <trkpt lat="44.2372" lon="6.94449">
        <ele>1117.22</ele>
        <time>2018-08-25T13:46:19Z</time>
      </trkpt>
      <trkpt lat="44.23699" lon="6.94466">
        <ele>1116.05</ele>
        <time>2018-08-25T13:46:20Z</time>
      </trkpt>
      <trkpt lat="44.2368" lon="6.94485">
        <ele>1115</ele>
        <time>2018-08-25T13:46:21Z</time>
      </trkpt>
      <trkpt lat="44.23661" lon="6.94504">
        <ele>1113.98</ele>
        <time>2018-08-25T13:46:22Z</time>
      </trkpt>
      <trkpt lat="44.23643" lon="6.94527">
        <ele>1111.58</ele>
        <time>2018-08-25T13:46:23Z</time>
      </trkpt>
      <trkpt lat="44.23626" lon="6.9455">
        <ele>1109.46</ele>
        <time>2018-08-25T13:46:24Z</time>
      </trkpt>
      <trkpt lat="44.2361" lon="6.94575">
        <ele>1107.42</ele>
        <time>2018-08-25T13:46:25Z</time>
      </trkpt>
      <trkpt lat="44.23594" lon="6.946">
        <ele>1105.41</ele>
        <time>2018-08-25T13:46:26Z</time>
      </trkpt>
      <trkpt lat="44.23579" lon="6.94626">
        <ele>1102.71</ele>
        <time>2018-08-25T13:46:27Z</time>
      </trkpt>
      <trkpt lat="44.23564" lon="6.94653">
        <ele>1100.5</ele>
        <time>2018-08-25T13:46:28Z</time>
      </trkpt>
      <trkpt lat="44.23549" lon="6.94679">
        <ele>1099.13</ele>
        <time>2018-08-25T13:46:29Z</time>
      </trkpt>
      <trkpt lat="44.23533" lon="6.94705">
        <ele>1097.32</ele>
        <time>2018-08-25T13:46:30Z</time>
      </trkpt>
      <trkpt lat="44.23516" lon="6.9473">
        <ele>1095.38</ele>
        <time>2018-08-25T13:46:31Z</time>
      </trkpt>
      <trkpt lat="44.235" lon="6.94754">
        <ele>1093.4</ele>
        <time>2018-08-25T13:46:32Z</time>
      </trkpt>
      <trkpt lat="44.23482" lon="6.94778">
        <ele>1092.1</ele>
        <time>2018-08-25T13:46:33Z</time>
      </trkpt>
      <trkpt lat="44.23464" lon="6.94802">
        <ele>1090.31</ele>
        <time>2018-08-25T13:46:34Z</time>
      </trkpt>
      <trkpt lat="44.23446" lon="6.94825">
        <ele>1088.38</ele>
        <time>2018-08-25T13:46:35Z</time>
      </trkpt>
      <trkpt lat="44.23428" lon="6.94849">
        <ele>1086.4</ele>
        <time>2018-08-25T13:46:36Z</time>
      </trkpt>
      <trkpt lat="44.2341" lon="6.94872">
        <ele>1085.1</ele>
        <time>2018-08-25T13:46:37Z</time>
      </trkpt>
      <trkpt lat="44.23393" lon="6.94895">
        <ele>1084.71</ele>
        <time>2018-08-25T13:46:38Z</time>
      </trkpt>
      <trkpt lat="44.23377" lon="6.94917">
        <ele>1084.6</ele>
        <time>2018-08-25T13:46:39Z</time>
      </trkpt>
      <trkpt lat="44.23361" lon="6.94941">
        <ele>1083.86</ele>
        <time>2018-08-25T13:46:40Z</time>
      </trkpt>
      <trkpt lat="44.23348" lon="6.94967">
        <ele>1082.94</ele>
        <time>2018-08-25T13:46:41Z</time>
      </trkpt>
      <trkpt lat="44.23336" lon="6.94995">
        <ele>1081.27</ele>
        <time>2018-08-25T13:46:42Z</time>
      </trkpt>
      <trkpt lat="44.23323" lon="6.95022">
        <ele>1080.06</ele>
        <time>2018-08-25T13:46:43Z</time>
      </trkpt>
      <trkpt lat="44.2331" lon="6.95051">
        <ele>1079</ele>
        <time>2018-08-25T13:46:44Z</time>
      </trkpt>
      <trkpt lat="44.23297" lon="6.9508">
        <ele>1077.98</ele>
        <time>2018-08-25T13:46:45Z</time>
      </trkpt>
      <trkpt lat="44.23285" lon="6.95109">
        <ele>1076.98</ele>
        <time>2018-08-25T13:46:46Z</time>
      </trkpt>
      <trkpt lat="44.23272" lon="6.95138">
        <ele>1076.68</ele>
        <time>2018-08-25T13:46:47Z</time>
      </trkpt>
      <trkpt lat="44.23259" lon="6.95167">
        <ele>1076.59</ele>
        <time>2018-08-25T13:46:48Z</time>
      </trkpt>
      <trkpt lat="44.23247" lon="6.95197">
        <ele>1075.16</ele>
        <time>2018-08-25T13:46:49Z</time>
      </trkpt>
      <trkpt lat="44.23235" lon="6.95227">
        <ele>1074.73</ele>
        <time>2018-08-25T13:46:50Z</time>
      </trkpt>
      <trkpt lat="44.23224" lon="6.95257">
        <ele>1074.6</ele>
        <time>2018-08-25T13:46:51Z</time>
      </trkpt>
      <trkpt lat="44.23213" lon="6.95287">
        <ele>1073.86</ele>
        <time>2018-08-25T13:46:52Z</time>
      </trkpt>
      <trkpt lat="44.23202" lon="6.95316">
        <ele>1073.64</ele>
        <time>2018-08-25T13:46:53Z</time>
      </trkpt>
      <trkpt lat="44.23192" lon="6.95344">
        <ele>1072.88</ele>
        <time>2018-08-25T13:46:54Z</time>
      </trkpt>
      <trkpt lat="44.23179" lon="6.9537">
        <ele>1072.65</ele>
        <time>2018-08-25T13:46:55Z</time>
      </trkpt>
      <trkpt lat="44.23166" lon="6.95396">
        <ele>1072.58</ele>
        <time>2018-08-25T13:46:56Z</time>
      </trkpt>
      <trkpt lat="44.23152" lon="6.95421">
        <ele>1072.56</ele>
        <time>2018-08-25T13:46:57Z</time>
      </trkpt>
      <trkpt lat="44.23138" lon="6.95445">
        <ele>1071.85</ele>
        <time>2018-08-25T13:46:58Z</time>
      </trkpt>
      <trkpt lat="44.23124" lon="6.95469">
        <ele>1070.94</ele>
        <time>2018-08-25T13:46:59Z</time>
      </trkpt>
      <trkpt lat="44.2311" lon="6.95492">
        <ele>1070.67</ele>
        <time>2018-08-25T13:47:00Z</time>
      </trkpt>
      <trkpt lat="44.23095" lon="6.95516">
        <ele>1070.58</ele>
        <time>2018-08-25T13:47:01Z</time>
      </trkpt>
      <trkpt lat="44.23081" lon="6.95538">
        <ele>1069.86</ele>
        <time>2018-08-25T13:47:02Z</time>
      </trkpt>
      <trkpt lat="44.23066" lon="6.95562">
        <ele>1069.64</ele>
        <time>2018-08-25T13:47:03Z</time>
      </trkpt>
      <trkpt lat="44.23052" lon="6.95587">
        <ele>1068.88</ele>
        <time>2018-08-25T13:47:04Z</time>
      </trkpt>
      <trkpt lat="44.23036" lon="6.95611">
        <ele>1067.95</ele>
        <time>2018-08-25T13:47:05Z</time>
      </trkpt>
      <trkpt lat="44.23022" lon="6.95635">
        <ele>1067.67</ele>
        <time>2018-08-25T13:47:06Z</time>
      </trkpt>
      <trkpt lat="44.23006" lon="6.95659">
        <ele>1066.88</ele>
        <time>2018-08-25T13:47:07Z</time>
      </trkpt>
      <trkpt lat="44.22991" lon="6.95684">
        <ele>1066.65</ele>
        <time>2018-08-25T13:47:08Z</time>
      </trkpt>
      <trkpt lat="44.22976" lon="6.95708">
        <ele>1066.58</ele>
        <time>2018-08-25T13:47:09Z</time>
      </trkpt>
      <trkpt lat="44.22959" lon="6.95731">
        <ele>1066.56</ele>
        <time>2018-08-25T13:47:10Z</time>
      </trkpt>
      <trkpt lat="44.22941" lon="6.95753">
        <ele>1066.55</ele>
        <time>2018-08-25T13:47:11Z</time>
      </trkpt>
      <trkpt lat="44.22922" lon="6.95772">
        <ele>1066.55</ele>
        <time>2018-08-25T13:47:12Z</time>
      </trkpt>
      <trkpt lat="44.22904" lon="6.95789">
        <ele>1065.85</ele>
        <time>2018-08-25T13:47:13Z</time>
      </trkpt>
      <trkpt lat="44.22883" lon="6.95802">
        <ele>1065.64</ele>
        <time>2018-08-25T13:47:14Z</time>
      </trkpt>
      <trkpt lat="44.22861" lon="6.95811">
        <ele>1065.58</ele>
        <time>2018-08-25T13:47:15Z</time>
      </trkpt>
      <trkpt lat="44.22838" lon="6.95819">
        <ele>1065.56</ele>
        <time>2018-08-25T13:47:16Z</time>
      </trkpt>
      <trkpt lat="44.22815" lon="6.95828">
        <ele>1064.85</ele>
        <time>2018-08-25T13:47:17Z</time>
      </trkpt>
      <trkpt lat="44.22793" lon="6.95838">
        <ele>1063.94</ele>
        <time>2018-08-25T13:47:18Z</time>
      </trkpt>
      <trkpt lat="44.22772" lon="6.95853">
        <ele>1063.67</ele>
        <time>2018-08-25T13:47:19Z</time>
      </trkpt>
      <trkpt lat="44.22751" lon="6.95869">
        <ele>1063.58</ele>
        <time>2018-08-25T13:47:20Z</time>
      </trkpt>
      <trkpt lat="44.22731" lon="6.95886">
        <ele>1063.56</ele>
        <time>2018-08-25T13:47:21Z</time>
      </trkpt>
      <trkpt lat="44.2271" lon="6.95903">
        <ele>1063.55</ele>
        <time>2018-08-25T13:47:22Z</time>
      </trkpt>
      <trkpt lat="44.22688" lon="6.95917">
        <ele>1062.85</ele>
        <time>2018-08-25T13:47:23Z</time>
      </trkpt>
      <trkpt lat="44.22666" lon="6.9593">
        <ele>1061.94</ele>
        <time>2018-08-25T13:47:24Z</time>
      </trkpt>
      <trkpt lat="44.22644" lon="6.95942">
        <ele>1061.67</ele>
        <time>2018-08-25T13:47:25Z</time>
      </trkpt>
      <trkpt lat="44.22622" lon="6.95954">
        <ele>1061.58</ele>
        <time>2018-08-25T13:47:26Z</time>
      </trkpt>
      <trkpt lat="44.22601" lon="6.95966">
        <ele>1061.56</ele>
        <time>2018-08-25T13:47:27Z</time>
      </trkpt>
      <trkpt lat="44.22582" lon="6.95978">
        <ele>1060.85</ele>
        <time>2018-08-25T13:47:28Z</time>
      </trkpt>
      <trkpt lat="44.22566" lon="6.95991">
        <ele>1059.94</ele>
        <time>2018-08-25T13:47:29Z</time>
      </trkpt>
      <trkpt lat="44.2255" lon="6.96007">
        <ele>1059.67</ele>
        <time>2018-08-25T13:47:30Z</time>
      </trkpt>
      <trkpt lat="44.22535" lon="6.96024">
        <ele>1058.88</ele>
        <time>2018-08-25T13:47:31Z</time>
      </trkpt>
      <trkpt lat="44.22533" lon="6.96056">
        <ele>1057.95</ele>
        <time>2018-08-25T13:47:32Z</time>
      </trkpt>
      <trkpt lat="44.22528" lon="6.96082">
        <ele>1057.67</ele>
        <time>2018-08-25T13:47:33Z</time>
      </trkpt>
      <trkpt lat="44.22519" lon="6.96129">
        <ele>1056.65</ele>
        <time>2018-08-25T13:47:35Z</time>
      </trkpt>
      <trkpt lat="44.22511" lon="6.96172">
        <ele>1056.56</ele>
        <time>2018-08-25T13:47:37Z</time>
      </trkpt>
      <trkpt lat="44.22504" lon="6.96213">
        <ele>1056.55</ele>
        <time>2018-08-25T13:47:39Z</time>
      </trkpt>
      <trkpt lat="44.22496" lon="6.9625">
        <ele>1056.55</ele>
        <time>2018-08-25T13:47:41Z</time>
      </trkpt>
      <trkpt lat="44.22484" lon="6.96286">
        <ele>1055.64</ele>
        <time>2018-08-25T13:47:43Z</time>
      </trkpt>
      <trkpt lat="44.22467" lon="6.96318">
        <ele>1054.65</ele>
        <time>2018-08-25T13:47:45Z</time>
      </trkpt>
      <trkpt lat="44.2244" lon="6.96343">
        <ele>1055.47</ele>
        <time>2018-08-25T13:47:47Z</time>
      </trkpt>
      <trkpt lat="44.22422" lon="6.96355">
        <ele>1054.82</ele>
        <time>2018-08-25T13:47:48Z</time>
      </trkpt>
      <trkpt lat="44.22402" lon="6.96369">
        <ele>1054.63</ele>
        <time>2018-08-25T13:47:49Z</time>
      </trkpt>
      <trkpt lat="44.2238" lon="6.96384">
        <ele>1053.87</ele>
        <time>2018-08-25T13:47:50Z</time>
      </trkpt>
      <trkpt lat="44.22357" lon="6.96399">
        <ele>1053.65</ele>
        <time>2018-08-25T13:47:51Z</time>
      </trkpt>
      <trkpt lat="44.22334" lon="6.96416">
        <ele>1052.88</ele>
        <time>2018-08-25T13:47:52Z</time>
      </trkpt>
      <trkpt lat="44.22311" lon="6.96433">
        <ele>1052.65</ele>
        <time>2018-08-25T13:47:53Z</time>
      </trkpt>
      <trkpt lat="44.22288" lon="6.9645">
        <ele>1052.58</ele>
        <time>2018-08-25T13:47:54Z</time>
      </trkpt>
      <trkpt lat="44.22265" lon="6.96467">
        <ele>1051.86</ele>
        <time>2018-08-25T13:47:55Z</time>
      </trkpt>
      <trkpt lat="44.22242" lon="6.96484">
        <ele>1052.34</ele>
        <time>2018-08-25T13:47:56Z</time>
      </trkpt>
      <trkpt lat="44.22219" lon="6.96501">
        <ele>1052.49</ele>
        <time>2018-08-25T13:47:57Z</time>
      </trkpt>
      <trkpt lat="44.22197" lon="6.96518">
        <ele>1052.53</ele>
        <time>2018-08-25T13:47:58Z</time>
      </trkpt>
      <trkpt lat="44.22175" lon="6.96535">
        <ele>1052.54</ele>
        <time>2018-08-25T13:47:59Z</time>
      </trkpt>
      <trkpt lat="44.22153" lon="6.96551">
        <ele>1053.25</ele>
        <time>2018-08-25T13:48:00Z</time>
      </trkpt>
      <trkpt lat="44.2213" lon="6.96567">
        <ele>1053.46</ele>
        <time>2018-08-25T13:48:01Z</time>
      </trkpt>
      <trkpt lat="44.22108" lon="6.96585">
        <ele>1053.52</ele>
        <time>2018-08-25T13:48:02Z</time>
      </trkpt>
      <trkpt lat="44.22086" lon="6.96602">
        <ele>1052.84</ele>
        <time>2018-08-25T13:48:03Z</time>
      </trkpt>
      <trkpt lat="44.22064" lon="6.96619">
        <ele>1052.64</ele>
        <time>2018-08-25T13:48:04Z</time>
      </trkpt>
      <trkpt lat="44.22043" lon="6.96636">
        <ele>1051.87</ele>
        <time>2018-08-25T13:48:05Z</time>
      </trkpt>
      <trkpt lat="44.22023" lon="6.96653">
        <ele>1050.95</ele>
        <time>2018-08-25T13:48:06Z</time>
      </trkpt>
      <trkpt lat="44.22003" lon="6.96671">
        <ele>1050.67</ele>
        <time>2018-08-25T13:48:07Z</time>
      </trkpt>
      <trkpt lat="44.21987" lon="6.96696">
        <ele>1050.58</ele>
        <time>2018-08-25T13:48:08Z</time>
      </trkpt>
      <trkpt lat="44.2197" lon="6.9672">
        <ele>1049.86</ele>
        <time>2018-08-25T13:48:09Z</time>
      </trkpt>
      <trkpt lat="44.21954" lon="6.96744">
        <ele>1048.94</ele>
        <time>2018-08-25T13:48:10Z</time>
      </trkpt>
      <trkpt lat="44.21937" lon="6.96766">
        <ele>1047.97</ele>
        <time>2018-08-25T13:48:11Z</time>
      </trkpt>
      <trkpt lat="44.21918" lon="6.96784">
        <ele>1047.67</ele>
        <time>2018-08-25T13:48:12Z</time>
      </trkpt>
      <trkpt lat="44.21898" lon="6.968">
        <ele>1046.89</ele>
        <time>2018-08-25T13:48:13Z</time>
      </trkpt>
      <trkpt lat="44.21878" lon="6.96818">
        <ele>1045.95</ele>
        <time>2018-08-25T13:48:14Z</time>
      </trkpt>
      <trkpt lat="44.21859" lon="6.96839">
        <ele>1045.67</ele>
        <time>2018-08-25T13:48:15Z</time>
      </trkpt>
      <trkpt lat="44.2184" lon="6.96861">
        <ele>1045.58</ele>
        <time>2018-08-25T13:48:16Z</time>
      </trkpt>
      <trkpt lat="44.21819" lon="6.96882">
        <ele>1045.56</ele>
        <time>2018-08-25T13:48:17Z</time>
      </trkpt>
      <trkpt lat="44.21798" lon="6.96903">
        <ele>1044.85</ele>
        <time>2018-08-25T13:48:18Z</time>
      </trkpt>
      <trkpt lat="44.21778" lon="6.96924">
        <ele>1044.64</ele>
        <time>2018-08-25T13:48:19Z</time>
      </trkpt>
      <trkpt lat="44.21758" lon="6.96947">
        <ele>1043.88</ele>
        <time>2018-08-25T13:48:20Z</time>
      </trkpt>
      <trkpt lat="44.21739" lon="6.96971">
        <ele>1043.65</ele>
        <time>2018-08-25T13:48:21Z</time>
      </trkpt>
      <trkpt lat="44.2172" lon="6.96995">
        <ele>1042.88</ele>
        <time>2018-08-25T13:48:22Z</time>
      </trkpt>
      <trkpt lat="44.21701" lon="6.97019">
        <ele>1042.65</ele>
        <time>2018-08-25T13:48:23Z</time>
      </trkpt>
      <trkpt lat="44.2168" lon="6.97042">
        <ele>1041.88</ele>
        <time>2018-08-25T13:48:24Z</time>
      </trkpt>
      <trkpt lat="44.21659" lon="6.97062">
        <ele>1040.95</ele>
        <time>2018-08-25T13:48:25Z</time>
      </trkpt>
      <trkpt lat="44.21636" lon="6.9708">
        <ele>1040.67</ele>
        <time>2018-08-25T13:48:26Z</time>
      </trkpt>
      <trkpt lat="44.21614" lon="6.97093">
        <ele>1040.58</ele>
        <time>2018-08-25T13:48:27Z</time>
      </trkpt>
      <trkpt lat="44.21591" lon="6.97103">
        <ele>1040.56</ele>
        <time>2018-08-25T13:48:28Z</time>
      </trkpt>
      <trkpt lat="44.21568" lon="6.97109">
        <ele>1039.85</ele>
        <time>2018-08-25T13:48:29Z</time>
      </trkpt>
      <trkpt lat="44.21546" lon="6.97117">
        <ele>1038.24</ele>
        <time>2018-08-25T13:48:30Z</time>
      </trkpt>
      <trkpt lat="44.21524" lon="6.97129">
        <ele>1036.36</ele>
        <time>2018-08-25T13:48:31Z</time>
      </trkpt>
      <trkpt lat="44.21502" lon="6.97144">
        <ele>1035.79</ele>
        <time>2018-08-25T13:48:32Z</time>
      </trkpt>
      <trkpt lat="44.21482" lon="6.97164">
        <ele>1034.92</ele>
        <time>2018-08-25T13:48:33Z</time>
      </trkpt>
      <trkpt lat="44.21463" lon="6.97186">
        <ele>1033.96</ele>
        <time>2018-08-25T13:48:34Z</time>
      </trkpt>
      <trkpt lat="44.21444" lon="6.97209">
        <ele>1033.67</ele>
        <time>2018-08-25T13:48:35Z</time>
      </trkpt>
      <trkpt lat="44.21425" lon="6.97233">
        <ele>1032.89</ele>
        <time>2018-08-25T13:48:36Z</time>
      </trkpt>
      <trkpt lat="44.21407" lon="6.97258">
        <ele>1032.65</ele>
        <time>2018-08-25T13:48:37Z</time>
      </trkpt>
      <trkpt lat="44.21388" lon="6.97282">
        <ele>1031.88</ele>
        <time>2018-08-25T13:48:38Z</time>
      </trkpt>
      <trkpt lat="44.2137" lon="6.97307">
        <ele>1030.95</ele>
        <time>2018-08-25T13:48:39Z</time>
      </trkpt>
      <trkpt lat="44.21351" lon="6.97331">
        <ele>1030.67</ele>
        <time>2018-08-25T13:48:40Z</time>
      </trkpt>
      <trkpt lat="44.21332" lon="6.97354">
        <ele>1029.88</ele>
        <time>2018-08-25T13:48:41Z</time>
      </trkpt>
      <trkpt lat="44.21313" lon="6.97376">
        <ele>1028.95</ele>
        <time>2018-08-25T13:48:42Z</time>
      </trkpt>
      <trkpt lat="44.21292" lon="6.97395">
        <ele>1027.97</ele>
        <time>2018-08-25T13:48:43Z</time>
      </trkpt>
      <trkpt lat="44.21269" lon="6.97412">
        <ele>1027.67</ele>
        <time>2018-08-25T13:48:44Z</time>
      </trkpt>
      <trkpt lat="44.21246" lon="6.97425">
        <ele>1026.89</ele>
        <time>2018-08-25T13:48:45Z</time>
      </trkpt>
      <trkpt lat="44.21223" lon="6.97438">
        <ele>1026.65</ele>
        <time>2018-08-25T13:48:46Z</time>
      </trkpt>
      <trkpt lat="44.212" lon="6.97451">
        <ele>1025.88</ele>
        <time>2018-08-25T13:48:47Z</time>
      </trkpt>
      <trkpt lat="44.21176" lon="6.97463">
        <ele>1024.95</ele>
        <time>2018-08-25T13:48:48Z</time>
      </trkpt>
      <trkpt lat="44.21154" lon="6.97476">
        <ele>1024.67</ele>
        <time>2018-08-25T13:48:49Z</time>
      </trkpt>
      <trkpt lat="44.21132" lon="6.9749">
        <ele>1023.88</ele>
        <time>2018-08-25T13:48:50Z</time>
      </trkpt>
      <trkpt lat="44.2111" lon="6.97505">
        <ele>1023.65</ele>
        <time>2018-08-25T13:48:51Z</time>
      </trkpt>
      <trkpt lat="44.21089" lon="6.97521">
        <ele>1023.58</ele>
        <time>2018-08-25T13:48:52Z</time>
      </trkpt>
      <trkpt lat="44.21069" lon="6.97539">
        <ele>1023.56</ele>
        <time>2018-08-25T13:48:53Z</time>
      </trkpt>
      <trkpt lat="44.2105" lon="6.97558">
        <ele>1022.85</ele>
        <time>2018-08-25T13:48:54Z</time>
      </trkpt>
      <trkpt lat="44.21032" lon="6.9758">
        <ele>1022.64</ele>
        <time>2018-08-25T13:48:55Z</time>
      </trkpt>
      <trkpt lat="44.21015" lon="6.97603">
        <ele>1022.58</ele>
        <time>2018-08-25T13:48:56Z</time>
      </trkpt>
      <trkpt lat="44.20998" lon="6.97625">
        <ele>1021.16</ele>
        <time>2018-08-25T13:48:57Z</time>
      </trkpt>
      <trkpt lat="44.20979" lon="6.97645">
        <ele>1020.03</ele>
        <time>2018-08-25T13:48:58Z</time>
      </trkpt>
      <trkpt lat="44.20959" lon="6.97663">
        <ele>1020.39</ele>
        <time>2018-08-25T13:48:59Z</time>
      </trkpt>
      <trkpt lat="44.2094" lon="6.97681">
        <ele>1019.8</ele>
        <time>2018-08-25T13:49:00Z</time>
      </trkpt>
      <trkpt lat="44.20922" lon="6.97702">
        <ele>1018.92</ele>
        <time>2018-08-25T13:49:01Z</time>
      </trkpt>
      <trkpt lat="44.20904" lon="6.97724">
        <ele>1017.96</ele>
        <time>2018-08-25T13:49:02Z</time>
      </trkpt>
      <trkpt lat="44.20888" lon="6.97748">
        <ele>1016.97</ele>
        <time>2018-08-25T13:49:03Z</time>
      </trkpt>
      <trkpt lat="44.20873" lon="6.97773">
        <ele>1016.68</ele>
        <time>2018-08-25T13:49:04Z</time>
      </trkpt>
      <trkpt lat="44.20858" lon="6.97798">
        <ele>1016.59</ele>
        <time>2018-08-25T13:49:05Z</time>
      </trkpt>
      <trkpt lat="44.20842" lon="6.97824">
        <ele>1016.56</ele>
        <time>2018-08-25T13:49:06Z</time>
      </trkpt>
      <trkpt lat="44.20827" lon="6.97848">
        <ele>1017.25</ele>
        <time>2018-08-25T13:49:07Z</time>
      </trkpt>
      <trkpt lat="44.20812" lon="6.97872">
        <ele>1018.16</ele>
        <time>2018-08-25T13:49:08Z</time>
      </trkpt>
      <trkpt lat="44.20795" lon="6.97894">
        <ele>1019.13</ele>
        <time>2018-08-25T13:49:09Z</time>
      </trkpt>
      <trkpt lat="44.20778" lon="6.97913">
        <ele>1019.42</ele>
        <time>2018-08-25T13:49:10Z</time>
      </trkpt>
      <trkpt lat="44.20759" lon="6.97931">
        <ele>1020.21</ele>
        <time>2018-08-25T13:49:11Z</time>
      </trkpt>
      <trkpt lat="44.20741" lon="6.97948">
        <ele>1020.45</ele>
        <time>2018-08-25T13:49:12Z</time>
      </trkpt>
      <trkpt lat="44.20723" lon="6.97967">
        <ele>1020.52</ele>
        <time>2018-08-25T13:49:13Z</time>
      </trkpt>
      <trkpt lat="44.20706" lon="6.97985">
        <ele>1020.54</ele>
        <time>2018-08-25T13:49:14Z</time>
      </trkpt>
      <trkpt lat="44.2069" lon="6.98004">
        <ele>1021.25</ele>
        <time>2018-08-25T13:49:15Z</time>
      </trkpt>
      <trkpt lat="44.20682" lon="6.98042">
        <ele>1020.76</ele>
        <time>2018-08-25T13:49:16Z</time>
      </trkpt>
      <trkpt lat="44.20678" lon="6.98076">
        <ele>1020.61</ele>
        <time>2018-08-25T13:49:17Z</time>
      </trkpt>
      <trkpt lat="44.20679" lon="6.98114">
        <ele>1019.87</ele>
        <time>2018-08-25T13:49:18Z</time>
      </trkpt>
      <trkpt lat="44.20679" lon="6.98148">
        <ele>1018.94</ele>
        <time>2018-08-25T13:49:19Z</time>
      </trkpt>
      <trkpt lat="44.20678" lon="6.98182">
        <ele>1017.97</ele>
        <time>2018-08-25T13:49:20Z</time>
      </trkpt>
      <trkpt lat="44.20678" lon="6.98215">
        <ele>1016.27</ele>
        <time>2018-08-25T13:49:21Z</time>
      </trkpt>
      <trkpt lat="44.20676" lon="6.9825">
        <ele>1015.07</ele>
        <time>2018-08-25T13:49:22Z</time>
      </trkpt>
      <trkpt lat="44.20672" lon="6.98283">
        <ele>1014.7</ele>
        <time>2018-08-25T13:49:23Z</time>
      </trkpt>
      <trkpt lat="44.20665" lon="6.98315">
        <ele>1013.89</ele>
        <time>2018-08-25T13:49:24Z</time>
      </trkpt>
      <trkpt lat="44.20654" lon="6.98343">
        <ele>1013.65</ele>
        <time>2018-08-25T13:49:25Z</time>
      </trkpt>
      <trkpt lat="44.20639" lon="6.98368">
        <ele>1012.18</ele>
        <time>2018-08-25T13:49:26Z</time>
      </trkpt>
      <trkpt lat="44.20621" lon="6.98389">
        <ele>1011.74</ele>
        <time>2018-08-25T13:49:27Z</time>
      </trkpt>
      <trkpt lat="44.20604" lon="6.9841">
        <ele>1011.6</ele>
        <time>2018-08-25T13:49:28Z</time>
      </trkpt>
      <trkpt lat="44.20585" lon="6.98433">
        <ele>1010.87</ele>
        <time>2018-08-25T13:49:29Z</time>
      </trkpt>
      <trkpt lat="44.20567" lon="6.98455">
        <ele>1009.94</ele>
        <time>2018-08-25T13:49:30Z</time>
      </trkpt>
      <trkpt lat="44.20549" lon="6.98477">
        <ele>1009.67</ele>
        <time>2018-08-25T13:49:31Z</time>
      </trkpt>
      <trkpt lat="44.20529" lon="6.98498">
        <ele>1008.88</ele>
        <time>2018-08-25T13:49:32Z</time>
      </trkpt>
      <trkpt lat="44.20509" lon="6.98518">
        <ele>1007.95</ele>
        <time>2018-08-25T13:49:33Z</time>
      </trkpt>
      <trkpt lat="44.2049" lon="6.98538">
        <ele>1006.97</ele>
        <time>2018-08-25T13:49:34Z</time>
      </trkpt>
      <trkpt lat="44.20473" lon="6.9856">
        <ele>1006.67</ele>
        <time>2018-08-25T13:49:35Z</time>
      </trkpt>
      <trkpt lat="44.20456" lon="6.98582">
        <ele>1007.29</ele>
        <time>2018-08-25T13:49:36Z</time>
      </trkpt>
      <trkpt lat="44.20445" lon="6.98613">
        <ele>1006.77</ele>
        <time>2018-08-25T13:49:37Z</time>
      </trkpt>
      <trkpt lat="44.20434" lon="6.9864">
        <ele>1005.21</ele>
        <time>2018-08-25T13:49:38Z</time>
      </trkpt>
      <trkpt lat="44.20422" lon="6.98669">
        <ele>1004.75</ele>
        <time>2018-08-25T13:49:39Z</time>
      </trkpt>
      <trkpt lat="44.20409" lon="6.98698">
        <ele>1003.91</ele>
        <time>2018-08-25T13:49:40Z</time>
      </trkpt>
      <trkpt lat="44.20398" lon="6.98728">
        <ele>1002.96</ele>
        <time>2018-08-25T13:49:41Z</time>
      </trkpt>
      <trkpt lat="44.20385" lon="6.98757">
        <ele>1001.97</ele>
        <time>2018-08-25T13:49:42Z</time>
      </trkpt>
      <trkpt lat="44.20371" lon="6.98785">
        <ele>1001.67</ele>
        <time>2018-08-25T13:49:43Z</time>
      </trkpt>
      <trkpt lat="44.20355" lon="6.98811">
        <ele>1001.59</ele>
        <time>2018-08-25T13:49:44Z</time>
      </trkpt>
      <trkpt lat="44.20341" lon="6.98838">
        <ele>1000.86</ele>
        <time>2018-08-25T13:49:45Z</time>
      </trkpt>
      <trkpt lat="44.20325" lon="6.98865">
        <ele>1000.64</ele>
        <time>2018-08-25T13:49:46Z</time>
      </trkpt>
      <trkpt lat="44.2031" lon="6.98891">
        <ele>999.88</ele>
        <time>2018-08-25T13:49:47Z</time>
      </trkpt>
      <trkpt lat="44.20293" lon="6.98917">
        <ele>999.65</ele>
        <time>2018-08-25T13:49:48Z</time>
      </trkpt>
      <trkpt lat="44.20275" lon="6.9894">
        <ele>999.58</ele>
        <time>2018-08-25T13:49:49Z</time>
      </trkpt>
      <trkpt lat="44.20257" lon="6.98962">
        <ele>998.86</ele>
        <time>2018-08-25T13:49:50Z</time>
      </trkpt>
      <trkpt lat="44.20237" lon="6.9898">
        <ele>999.34</ele>
        <time>2018-08-25T13:49:51Z</time>
      </trkpt>
      <trkpt lat="44.20217" lon="6.98998">
        <ele>999.49</ele>
        <time>2018-08-25T13:49:52Z</time>
      </trkpt>
      <trkpt lat="44.20199" lon="6.99018">
        <ele>998.83</ele>
        <time>2018-08-25T13:49:53Z</time>
      </trkpt>
      <trkpt lat="44.20181" lon="6.99039">
        <ele>998.63</ele>
        <time>2018-08-25T13:49:54Z</time>
      </trkpt>
      <trkpt lat="44.20168" lon="6.99067">
        <ele>998.57</ele>
        <time>2018-08-25T13:49:55Z</time>
      </trkpt>
      <trkpt lat="44.20155" lon="6.99095">
        <ele>998.56</ele>
        <time>2018-08-25T13:49:56Z</time>
      </trkpt>
      <trkpt lat="44.20145" lon="6.99126">
        <ele>997.85</ele>
        <time>2018-08-25T13:49:57Z</time>
      </trkpt>
      <trkpt lat="44.20136" lon="6.99155">
        <ele>996.94</ele>
        <time>2018-08-25T13:49:58Z</time>
      </trkpt>
      <trkpt lat="44.20135" lon="6.9919">
        <ele>995.97</ele>
        <time>2018-08-25T13:49:59Z</time>
      </trkpt>
      <trkpt lat="44.20133" lon="6.99224">
        <ele>995.67</ele>
        <time>2018-08-25T13:50:00Z</time>
      </trkpt>
      <trkpt lat="44.20131" lon="6.99258">
        <ele>994.89</ele>
        <time>2018-08-25T13:50:01Z</time>
      </trkpt>
      <trkpt lat="44.2013" lon="6.99292">
        <ele>993.95</ele>
        <time>2018-08-25T13:50:02Z</time>
      </trkpt>
      <trkpt lat="44.20128" lon="6.99326">
        <ele>992.97</ele>
        <time>2018-08-25T13:50:03Z</time>
      </trkpt>
      <trkpt lat="44.20126" lon="6.9936">
        <ele>992.67</ele>
        <time>2018-08-25T13:50:04Z</time>
      </trkpt>
      <trkpt lat="44.20124" lon="6.99393">
        <ele>991.89</ele>
        <time>2018-08-25T13:50:05Z</time>
      </trkpt>
      <trkpt lat="44.20119" lon="6.99426">
        <ele>991.65</ele>
        <time>2018-08-25T13:50:06Z</time>
      </trkpt>
      <trkpt lat="44.20111" lon="6.99457">
        <ele>990.88</ele>
        <time>2018-08-25T13:50:07Z</time>
      </trkpt>
      <trkpt lat="44.201" lon="6.99487">
        <ele>990.65</ele>
        <time>2018-08-25T13:50:08Z</time>
      </trkpt>
      <trkpt lat="44.20087" lon="6.99514">
        <ele>989.88</ele>
        <time>2018-08-25T13:50:09Z</time>
      </trkpt>
      <trkpt lat="44.20071" lon="6.9954">
        <ele>988.95</ele>
        <time>2018-08-25T13:50:10Z</time>
      </trkpt>
      <trkpt lat="44.20055" lon="6.99565">
        <ele>988.67</ele>
        <time>2018-08-25T13:50:11Z</time>
      </trkpt>
      <trkpt lat="44.20041" lon="6.99591">
        <ele>987.88</ele>
        <time>2018-08-25T13:50:12Z</time>
      </trkpt>
      <trkpt lat="44.2003" lon="6.99618">
        <ele>986.95</ele>
        <time>2018-08-25T13:50:13Z</time>
      </trkpt>
      <trkpt lat="44.2002" lon="6.99646">
        <ele>986.67</ele>
        <time>2018-08-25T13:50:14Z</time>
      </trkpt>
      <trkpt lat="44.20014" lon="6.99677">
        <ele>985.88</ele>
        <time>2018-08-25T13:50:15Z</time>
      </trkpt>
      <trkpt lat="44.20009" lon="6.99708">
        <ele>984.95</ele>
        <time>2018-08-25T13:50:16Z</time>
      </trkpt>
      <trkpt lat="44.20005" lon="6.99739">
        <ele>983.97</ele>
        <time>2018-08-25T13:50:17Z</time>
      </trkpt>
      <trkpt lat="44.20001" lon="6.9977">
        <ele>983.67</ele>
        <time>2018-08-25T13:50:18Z</time>
      </trkpt>
      <trkpt lat="44.19996" lon="6.99801">
        <ele>983.59</ele>
        <time>2018-08-25T13:50:19Z</time>
      </trkpt>
      <trkpt lat="44.1999" lon="6.99831">
        <ele>982.86</ele>
        <time>2018-08-25T13:50:20Z</time>
      </trkpt>
      <trkpt lat="44.19983" lon="6.99861">
        <ele>981.94</ele>
        <time>2018-08-25T13:50:21Z</time>
      </trkpt>
      <trkpt lat="44.19974" lon="6.9989">
        <ele>980.27</ele>
        <time>2018-08-25T13:50:22Z</time>
      </trkpt>
      <trkpt lat="44.19963" lon="6.99918">
        <ele>979.76</ele>
        <time>2018-08-25T13:50:23Z</time>
      </trkpt>
      <trkpt lat="44.19949" lon="6.99946">
        <ele>978.91</ele>
        <time>2018-08-25T13:50:24Z</time>
      </trkpt>
      <trkpt lat="44.19935" lon="6.99971">
        <ele>978.66</ele>
        <time>2018-08-25T13:50:25Z</time>
      </trkpt>
      <trkpt lat="44.19919" lon="6.99997">
        <ele>977.88</ele>
        <time>2018-08-25T13:50:26Z</time>
      </trkpt>
      <trkpt lat="44.19902" lon="7.00022">
        <ele>977.65</ele>
        <time>2018-08-25T13:50:27Z</time>
      </trkpt>
      <trkpt lat="44.19887" lon="7.00046">
        <ele>976.88</ele>
        <time>2018-08-25T13:50:28Z</time>
      </trkpt>
      <trkpt lat="44.19871" lon="7.00071">
        <ele>976.65</ele>
        <time>2018-08-25T13:50:29Z</time>
      </trkpt>
      <trkpt lat="44.19856" lon="7.00097">
        <ele>975.88</ele>
        <time>2018-08-25T13:50:30Z</time>
      </trkpt>
      <trkpt lat="44.19843" lon="7.00123">
        <ele>975.65</ele>
        <time>2018-08-25T13:50:31Z</time>
      </trkpt>
      <trkpt lat="44.19832" lon="7.0015">
        <ele>975.58</ele>
        <time>2018-08-25T13:50:32Z</time>
      </trkpt>
      <trkpt lat="44.19823" lon="7.00178">
        <ele>975.56</ele>
        <time>2018-08-25T13:50:33Z</time>
      </trkpt>
      <trkpt lat="44.19816" lon="7.00207">
        <ele>974.85</ele>
        <time>2018-08-25T13:50:34Z</time>
      </trkpt>
      <trkpt lat="44.1981" lon="7.00238">
        <ele>974.64</ele>
        <time>2018-08-25T13:50:35Z</time>
      </trkpt>
      <trkpt lat="44.19806" lon="7.00268">
        <ele>973.88</ele>
        <time>2018-08-25T13:50:36Z</time>
      </trkpt>
      <trkpt lat="44.19801" lon="7.00299">
        <ele>972.95</ele>
        <time>2018-08-25T13:50:37Z</time>
      </trkpt>
      <trkpt lat="44.19796" lon="7.00329">
        <ele>971.97</ele>
        <time>2018-08-25T13:50:38Z</time>
      </trkpt>
      <trkpt lat="44.1979" lon="7.0036">
        <ele>971.67</ele>
        <time>2018-08-25T13:50:39Z</time>
      </trkpt>
      <trkpt lat="44.19784" lon="7.0039">
        <ele>970.89</ele>
        <time>2018-08-25T13:50:40Z</time>
      </trkpt>
      <trkpt lat="44.19775" lon="7.0042">
        <ele>970.65</ele>
        <time>2018-08-25T13:50:41Z</time>
      </trkpt>
      <trkpt lat="44.19765" lon="7.00448">
        <ele>969.88</ele>
        <time>2018-08-25T13:50:42Z</time>
      </trkpt>
      <trkpt lat="44.19753" lon="7.00475">
        <ele>968.95</ele>
        <time>2018-08-25T13:50:43Z</time>
      </trkpt>
      <trkpt lat="44.19739" lon="7.00501">
        <ele>968.67</ele>
        <time>2018-08-25T13:50:44Z</time>
      </trkpt>
      <trkpt lat="44.19723" lon="7.00524">
        <ele>967.88</ele>
        <time>2018-08-25T13:50:45Z</time>
      </trkpt>
      <trkpt lat="44.19707" lon="7.00545">
        <ele>967.65</ele>
        <time>2018-08-25T13:50:46Z</time>
      </trkpt>
      <trkpt lat="44.19691" lon="7.00566">
        <ele>967.58</ele>
        <time>2018-08-25T13:50:47Z</time>
      </trkpt>
      <trkpt lat="44.19674" lon="7.00588">
        <ele>967.56</ele>
        <time>2018-08-25T13:50:48Z</time>
      </trkpt>
      <trkpt lat="44.19658" lon="7.00609">
        <ele>966.85</ele>
        <time>2018-08-25T13:50:49Z</time>
      </trkpt>
      <trkpt lat="44.19642" lon="7.0063">
        <ele>965.94</ele>
        <time>2018-08-25T13:50:50Z</time>
      </trkpt>
      <trkpt lat="44.19626" lon="7.00651">
        <ele>965.67</ele>
        <time>2018-08-25T13:50:51Z</time>
      </trkpt>
      <trkpt lat="44.19609" lon="7.00671">
        <ele>964.88</ele>
        <time>2018-08-25T13:50:52Z</time>
      </trkpt>
      <trkpt lat="44.19591" lon="7.0069">
        <ele>964.65</ele>
        <time>2018-08-25T13:50:53Z</time>
      </trkpt>
      <trkpt lat="44.19573" lon="7.00707">
        <ele>963.88</ele>
        <time>2018-08-25T13:50:54Z</time>
      </trkpt>
      <trkpt lat="44.19555" lon="7.00724">
        <ele>963.65</ele>
        <time>2018-08-25T13:50:55Z</time>
      </trkpt>
      <trkpt lat="44.19536" lon="7.0074">
        <ele>963.58</ele>
        <time>2018-08-25T13:50:56Z</time>
      </trkpt>
      <trkpt lat="44.19517" lon="7.00755">
        <ele>962.86</ele>
        <time>2018-08-25T13:50:57Z</time>
      </trkpt>
      <trkpt lat="44.19499" lon="7.00772">
        <ele>962.64</ele>
        <time>2018-08-25T13:50:58Z</time>
      </trkpt>
      <trkpt lat="44.19481" lon="7.0079">
        <ele>962.58</ele>
        <time>2018-08-25T13:50:59Z</time>
      </trkpt>
      <trkpt lat="44.19465" lon="7.0081">
        <ele>961.86</ele>
        <time>2018-08-25T13:51:00Z</time>
      </trkpt>
      <trkpt lat="44.19456" lon="7.00838">
        <ele>961.64</ele>
        <time>2018-08-25T13:51:01Z</time>
      </trkpt>
      <trkpt lat="44.19447" lon="7.00867">
        <ele>961.58</ele>
        <time>2018-08-25T13:51:02Z</time>
      </trkpt>
      <trkpt lat="44.1944" lon="7.00896">
        <ele>961.56</ele>
        <time>2018-08-25T13:51:03Z</time>
      </trkpt>
      <trkpt lat="44.19434" lon="7.00926">
        <ele>961.55</ele>
        <time>2018-08-25T13:51:04Z</time>
      </trkpt>
      <trkpt lat="44.19428" lon="7.00957">
        <ele>961.55</ele>
        <time>2018-08-25T13:51:05Z</time>
      </trkpt>
      <trkpt lat="44.19421" lon="7.00988">
        <ele>960.85</ele>
        <time>2018-08-25T13:51:06Z</time>
      </trkpt>
      <trkpt lat="44.19413" lon="7.01016">
        <ele>959.94</ele>
        <time>2018-08-25T13:51:07Z</time>
      </trkpt>
      <trkpt lat="44.19402" lon="7.01044">
        <ele>958.97</ele>
        <time>2018-08-25T13:51:08Z</time>
      </trkpt>
      <trkpt lat="44.19388" lon="7.01069">
        <ele>957.97</ele>
        <time>2018-08-25T13:51:09Z</time>
      </trkpt>
      <trkpt lat="44.19373" lon="7.01093">
        <ele>956.98</ele>
        <time>2018-08-25T13:51:10Z</time>
      </trkpt>
      <trkpt lat="44.19357" lon="7.01118">
        <ele>955.98</ele>
        <time>2018-08-25T13:51:11Z</time>
      </trkpt>
      <trkpt lat="44.19339" lon="7.01146">
        <ele>954.98</ele>
        <time>2018-08-25T13:51:12Z</time>
      </trkpt>
      <trkpt lat="44.19321" lon="7.01177">
        <ele>954.68</ele>
        <time>2018-08-25T13:51:13Z</time>
      </trkpt>
      <trkpt lat="44.19304" lon="7.01209">
        <ele>953.19</ele>
        <time>2018-08-25T13:51:14Z</time>
      </trkpt>
      <trkpt lat="44.19286" lon="7.0124">
        <ele>952.04</ele>
        <time>2018-08-25T13:51:15Z</time>
      </trkpt>
      <trkpt lat="44.19267" lon="7.01271">
        <ele>951.7</ele>
        <time>2018-08-25T13:51:16Z</time>
      </trkpt>
      <trkpt lat="44.1925" lon="7.013">
        <ele>950.89</ele>
        <time>2018-08-25T13:51:17Z</time>
      </trkpt>
      <trkpt lat="44.19234" lon="7.01328">
        <ele>950.65</ele>
        <time>2018-08-25T13:51:18Z</time>
      </trkpt>
      <trkpt lat="44.1922" lon="7.01358">
        <ele>950.58</ele>
        <time>2018-08-25T13:51:19Z</time>
      </trkpt>
      <trkpt lat="44.19207" lon="7.01388">
        <ele>949.86</ele>
        <time>2018-08-25T13:51:20Z</time>
      </trkpt>
      <trkpt lat="44.19194" lon="7.01418">
        <ele>948.94</ele>
        <time>2018-08-25T13:51:21Z</time>
      </trkpt>
      <trkpt lat="44.19181" lon="7.01449">
        <ele>947.97</ele>
        <time>2018-08-25T13:51:22Z</time>
      </trkpt>
      <trkpt lat="44.19167" lon="7.01481">
        <ele>946.97</ele>
        <time>2018-08-25T13:51:23Z</time>
      </trkpt>
      <trkpt lat="44.19154" lon="7.01516">
        <ele>945.28</ele>
        <time>2018-08-25T13:51:24Z</time>
      </trkpt>
      <trkpt lat="44.1914" lon="7.0155">
        <ele>944.77</ele>
        <time>2018-08-25T13:51:25Z</time>
      </trkpt>
      <trkpt lat="44.19127" lon="7.01582">
        <ele>943.91</ele>
        <time>2018-08-25T13:51:26Z</time>
      </trkpt>
      <trkpt lat="44.19114" lon="7.01614">
        <ele>942.26</ele>
        <time>2018-08-25T13:51:27Z</time>
      </trkpt>
      <trkpt lat="44.19102" lon="7.01645">
        <ele>941.06</ele>
        <time>2018-08-25T13:51:28Z</time>
      </trkpt>
      <trkpt lat="44.19088" lon="7.01675">
        <ele>940.7</ele>
        <time>2018-08-25T13:51:29Z</time>
      </trkpt>
      <trkpt lat="44.19073" lon="7.01702">
        <ele>939.89</ele>
        <time>2018-08-25T13:51:30Z</time>
      </trkpt>
      <trkpt lat="44.19056" lon="7.01727">
        <ele>939.65</ele>
        <time>2018-08-25T13:51:31Z</time>
      </trkpt>
      <trkpt lat="44.19038" lon="7.01751">
        <ele>938.88</ele>
        <time>2018-08-25T13:51:32Z</time>
      </trkpt>
      <trkpt lat="44.19022" lon="7.01776">
        <ele>938.65</ele>
        <time>2018-08-25T13:51:33Z</time>
      </trkpt>
      <trkpt lat="44.19008" lon="7.01803">
        <ele>937.88</ele>
        <time>2018-08-25T13:51:34Z</time>
      </trkpt>
      <trkpt lat="44.18995" lon="7.01831">
        <ele>936.95</ele>
        <time>2018-08-25T13:51:35Z</time>
      </trkpt>
      <trkpt lat="44.18985" lon="7.01861">
        <ele>935.97</ele>
        <time>2018-08-25T13:51:36Z</time>
      </trkpt>
      <trkpt lat="44.18974" lon="7.01891">
        <ele>934.97</ele>
        <time>2018-08-25T13:51:37Z</time>
      </trkpt>
      <trkpt lat="44.18967" lon="7.01921">
        <ele>934.68</ele>
        <time>2018-08-25T13:51:38Z</time>
      </trkpt>
      <trkpt lat="44.18968" lon="7.01961">
        <ele>933.19</ele>
        <time>2018-08-25T13:51:39Z</time>
      </trkpt>
      <trkpt lat="44.18968" lon="7.01998">
        <ele>932.04</ele>
        <time>2018-08-25T13:51:40Z</time>
      </trkpt>
      <trkpt lat="44.18968" lon="7.02034">
        <ele>931</ele>
        <time>2018-08-25T13:51:41Z</time>
      </trkpt>
      <trkpt lat="44.18967" lon="7.02071">
        <ele>929.98</ele>
        <time>2018-08-25T13:51:42Z</time>
      </trkpt>
      <trkpt lat="44.18967" lon="7.02107">
        <ele>928.98</ele>
        <time>2018-08-25T13:51:43Z</time>
      </trkpt>
      <trkpt lat="44.18966" lon="7.02144">
        <ele>927.98</ele>
        <time>2018-08-25T13:51:44Z</time>
      </trkpt>
      <trkpt lat="44.18966" lon="7.02179">
        <ele>926.28</ele>
        <time>2018-08-25T13:51:45Z</time>
      </trkpt>
      <trkpt lat="44.18964" lon="7.02215">
        <ele>925.07</ele>
        <time>2018-08-25T13:51:46Z</time>
      </trkpt>
      <trkpt lat="44.18961" lon="7.0225">
        <ele>924.7</ele>
        <time>2018-08-25T13:51:47Z</time>
      </trkpt>
      <trkpt lat="44.18956" lon="7.02285">
        <ele>923.89</ele>
        <time>2018-08-25T13:51:48Z</time>
      </trkpt>
      <trkpt lat="44.1895" lon="7.02319">
        <ele>922.95</ele>
        <time>2018-08-25T13:51:49Z</time>
      </trkpt>
      <trkpt lat="44.18942" lon="7.02352">
        <ele>921.97</ele>
        <time>2018-08-25T13:51:50Z</time>
      </trkpt>
      <trkpt lat="44.18935" lon="7.02385">
        <ele>921.67</ele>
        <time>2018-08-25T13:51:51Z</time>
      </trkpt>
      <trkpt lat="44.18928" lon="7.02416">
        <ele>921.59</ele>
        <time>2018-08-25T13:51:52Z</time>
      </trkpt>
      <trkpt lat="44.18923" lon="7.02447">
        <ele>920.16</ele>
        <time>2018-08-25T13:51:53Z</time>
      </trkpt>
      <trkpt lat="44.18918" lon="7.02477">
        <ele>919.73</ele>
        <time>2018-08-25T13:51:54Z</time>
      </trkpt>
      <trkpt lat="44.18916" lon="7.02508">
        <ele>918.9</ele>
        <time>2018-08-25T13:51:55Z</time>
      </trkpt>
      <trkpt lat="44.18918" lon="7.02537">
        <ele>918.65</ele>
        <time>2018-08-25T13:51:56Z</time>
      </trkpt>
      <trkpt lat="44.18924" lon="7.02569">
        <ele>917.88</ele>
        <time>2018-08-25T13:51:57Z</time>
      </trkpt>
      <trkpt lat="44.18933" lon="7.026">
        <ele>917.65</ele>
        <time>2018-08-25T13:51:58Z</time>
      </trkpt>
      <trkpt lat="44.18944" lon="7.02631">
        <ele>916.88</ele>
        <time>2018-08-25T13:51:59Z</time>
      </trkpt>
      <trkpt lat="44.18956" lon="7.02662">
        <ele>916.65</ele>
        <time>2018-08-25T13:52:00Z</time>
      </trkpt>
      <trkpt lat="44.18967" lon="7.02692">
        <ele>915.88</ele>
        <time>2018-08-25T13:52:01Z</time>
      </trkpt>
      <trkpt lat="44.18978" lon="7.02723">
        <ele>914.95</ele>
        <time>2018-08-25T13:52:02Z</time>
      </trkpt>
      <trkpt lat="44.18989" lon="7.02753">
        <ele>913.97</ele>
        <time>2018-08-25T13:52:03Z</time>
      </trkpt>
      <trkpt lat="44.19001" lon="7.02783">
        <ele>912.97</ele>
        <time>2018-08-25T13:52:04Z</time>
      </trkpt>
      <trkpt lat="44.19011" lon="7.02814">
        <ele>911.98</ele>
        <time>2018-08-25T13:52:05Z</time>
      </trkpt>
      <trkpt lat="44.1902" lon="7.02846">
        <ele>911.68</ele>
        <time>2018-08-25T13:52:06Z</time>
      </trkpt>
      <trkpt lat="44.19027" lon="7.02878">
        <ele>910.89</ele>
        <time>2018-08-25T13:52:07Z</time>
      </trkpt>
      <trkpt lat="44.19035" lon="7.02911">
        <ele>909.95</ele>
        <time>2018-08-25T13:52:08Z</time>
      </trkpt>
      <trkpt lat="44.19041" lon="7.02944">
        <ele>909.67</ele>
        <time>2018-08-25T13:52:09Z</time>
      </trkpt>
      <trkpt lat="44.19047" lon="7.02978">
        <ele>908.88</ele>
        <time>2018-08-25T13:52:10Z</time>
      </trkpt>
      <trkpt lat="44.1905" lon="7.03012">
        <ele>908.65</ele>
        <time>2018-08-25T13:52:11Z</time>
      </trkpt>
      <trkpt lat="44.19052" lon="7.03048">
        <ele>907.88</ele>
        <time>2018-08-25T13:52:12Z</time>
      </trkpt>
      <trkpt lat="44.19052" lon="7.03084">
        <ele>906.95</ele>
        <time>2018-08-25T13:52:13Z</time>
      </trkpt>
      <trkpt lat="44.19052" lon="7.0312">
        <ele>905.97</ele>
        <time>2018-08-25T13:52:14Z</time>
      </trkpt>
      <trkpt lat="44.1905" lon="7.03155">
        <ele>905.67</ele>
        <time>2018-08-25T13:52:15Z</time>
      </trkpt>
      <trkpt lat="44.19046" lon="7.0319">
        <ele>904.89</ele>
        <time>2018-08-25T13:52:16Z</time>
      </trkpt>
      <trkpt lat="44.19043" lon="7.03225">
        <ele>904.65</ele>
        <time>2018-08-25T13:52:17Z</time>
      </trkpt>
      <trkpt lat="44.19038" lon="7.0326">
        <ele>903.88</ele>
        <time>2018-08-25T13:52:18Z</time>
      </trkpt>
      <trkpt lat="44.19033" lon="7.03294">
        <ele>903.65</ele>
        <time>2018-08-25T13:52:19Z</time>
      </trkpt>
      <trkpt lat="44.19028" lon="7.03327">
        <ele>903.58</ele>
        <time>2018-08-25T13:52:20Z</time>
      </trkpt>
      <trkpt lat="44.19022" lon="7.0336">
        <ele>903.56</ele>
        <time>2018-08-25T13:52:21Z</time>
      </trkpt>
      <trkpt lat="44.19014" lon="7.03391">
        <ele>903.55</ele>
        <time>2018-08-25T13:52:22Z</time>
      </trkpt>
      <trkpt lat="44.19006" lon="7.03421">
        <ele>902.85</ele>
        <time>2018-08-25T13:52:23Z</time>
      </trkpt>
      <trkpt lat="44.18999" lon="7.03449">
        <ele>901.94</ele>
        <time>2018-08-25T13:52:24Z</time>
      </trkpt>
      <trkpt lat="44.18994" lon="7.03477">
        <ele>900.97</ele>
        <time>2018-08-25T13:52:25Z</time>
      </trkpt>
      <trkpt lat="44.1899" lon="7.03502">
        <ele>899.97</ele>
        <time>2018-08-25T13:52:26Z</time>
      </trkpt>
      <trkpt lat="44.18983" lon="7.0355">
        <ele>898.68</ele>
        <time>2018-08-25T13:52:28Z</time>
      </trkpt>
      <trkpt lat="44.18975" lon="7.03597">
        <ele>897.65</ele>
        <time>2018-08-25T13:52:30Z</time>
      </trkpt>
      <trkpt lat="44.18965" lon="7.03645">
        <ele>897.56</ele>
        <time>2018-08-25T13:52:32Z</time>
      </trkpt>
      <trkpt lat="44.18953" lon="7.03692">
        <ele>896.85</ele>
        <time>2018-08-25T13:52:34Z</time>
      </trkpt>
      <trkpt lat="44.18946" lon="7.03716">
        <ele>896.64</ele>
        <time>2018-08-25T13:52:35Z</time>
      </trkpt>
      <trkpt lat="44.1894" lon="7.0374">
        <ele>896.58</ele>
        <time>2018-08-25T13:52:36Z</time>
      </trkpt>
      <trkpt lat="44.1893" lon="7.03788">
        <ele>895.64</ele>
        <time>2018-08-25T13:52:38Z</time>
      </trkpt>
      <trkpt lat="44.18919" lon="7.03835">
        <ele>895.35</ele>
        <time>2018-08-25T13:52:40Z</time>
      </trkpt>
      <trkpt lat="44.18908" lon="7.03881">
        <ele>894.62</ele>
        <time>2018-08-25T13:52:42Z</time>
      </trkpt>
      <trkpt lat="44.189" lon="7.03927">
        <ele>894.55</ele>
        <time>2018-08-25T13:52:44Z</time>
      </trkpt>
      <trkpt lat="44.18897" lon="7.03977">
        <ele>894.34</ele>
        <time>2018-08-25T13:52:46Z</time>
      </trkpt>
      <trkpt lat="44.18895" lon="7.04028">
        <ele>892.22</ele>
        <time>2018-08-25T13:52:48Z</time>
      </trkpt>
      <trkpt lat="44.18886" lon="7.04075">
        <ele>890.91</ele>
        <time>2018-08-25T13:52:50Z</time>
      </trkpt>
      <trkpt lat="44.18881" lon="7.04099">
        <ele>890.66</ele>
        <time>2018-08-25T13:52:51Z</time>
      </trkpt>
      <trkpt lat="44.18869" lon="7.04146">
        <ele>890.56</ele>
        <time>2018-08-25T13:52:53Z</time>
      </trkpt>
      <trkpt lat="44.18859" lon="7.04192">
        <ele>889.85</ele>
        <time>2018-08-25T13:52:55Z</time>
      </trkpt>
      <trkpt lat="44.18848" lon="7.04238">
        <ele>888.88</ele>
        <time>2018-08-25T13:52:57Z</time>
      </trkpt>
      <trkpt lat="44.18835" lon="7.04283">
        <ele>888.58</ele>
        <time>2018-08-25T13:52:59Z</time>
      </trkpt>
      <trkpt lat="44.1882" lon="7.04324">
        <ele>886.94</ele>
        <time>2018-08-25T13:53:01Z</time>
      </trkpt>
      <trkpt lat="44.18801" lon="7.0436">
        <ele>886.37</ele>
        <time>2018-08-25T13:53:03Z</time>
      </trkpt>
      <trkpt lat="44.18783" lon="7.04397">
        <ele>884.22</ele>
        <time>2018-08-25T13:53:05Z</time>
      </trkpt>
      <trkpt lat="44.18767" lon="7.04436">
        <ele>881.58</ele>
        <time>2018-08-25T13:53:07Z</time>
      </trkpt>
      <trkpt lat="44.18753" lon="7.04475">
        <ele>880.64</ele>
        <time>2018-08-25T13:53:09Z</time>
      </trkpt>
      <trkpt lat="44.18741" lon="7.04513">
        <ele>881.26</ele>
        <time>2018-08-25T13:53:11Z</time>
      </trkpt>
      <trkpt lat="44.1873" lon="7.04552">
        <ele>880.61</ele>
        <time>2018-08-25T13:53:13Z</time>
      </trkpt>
      <trkpt lat="44.1872" lon="7.04588">
        <ele>879.64</ele>
        <time>2018-08-25T13:53:15Z</time>
      </trkpt>
      <trkpt lat="44.187" lon="7.04612">
        <ele>878.86</ele>
        <time>2018-08-25T13:53:17Z</time>
      </trkpt>
      <trkpt lat="44.18671" lon="7.04627">
        <ele>877.88</ele>
        <time>2018-08-25T13:53:19Z</time>
      </trkpt>
      <trkpt lat="44.18642" lon="7.04645">
        <ele>875.97</ele>
        <time>2018-08-25T13:53:21Z</time>
      </trkpt>
      <trkpt lat="44.18616" lon="7.04673">
        <ele>875.38</ele>
        <time>2018-08-25T13:53:23Z</time>
      </trkpt>
      <trkpt lat="44.18603" lon="7.04709">
        <ele>874.62</ele>
        <time>2018-08-25T13:53:25Z</time>
      </trkpt>
      <trkpt lat="44.18602" lon="7.04754">
        <ele>875.46</ele>
        <time>2018-08-25T13:53:27Z</time>
      </trkpt>
      <trkpt lat="44.18596" lon="7.04794">
        <ele>874.63</ele>
        <time>2018-08-25T13:53:29Z</time>
      </trkpt>
      <trkpt lat="44.18584" lon="7.04831">
        <ele>875.47</ele>
        <time>2018-08-25T13:53:31Z</time>
      </trkpt>
      <trkpt lat="44.18572" lon="7.04868">
        <ele>875.54</ele>
        <time>2018-08-25T13:53:33Z</time>
      </trkpt>
      <trkpt lat="44.18559" lon="7.04903">
        <ele>875.55</ele>
        <time>2018-08-25T13:53:35Z</time>
      </trkpt>
      <trkpt lat="44.18547" lon="7.04938">
        <ele>872.33</ele>
        <time>2018-08-25T13:53:37Z</time>
      </trkpt>
      <trkpt lat="44.18537" lon="7.04969">
        <ele>870.92</ele>
        <time>2018-08-25T13:53:39Z</time>
      </trkpt>
      <trkpt lat="44.18532" lon="7.05006">
        <ele>871.49</ele>
        <time>2018-08-25T13:53:41Z</time>
      </trkpt>
      <trkpt lat="44.18528" lon="7.05044">
        <ele>869.93</ele>
        <time>2018-08-25T13:53:43Z</time>
      </trkpt>
      <trkpt lat="44.18526" lon="7.05082">
        <ele>870.49</ele>
        <time>2018-08-25T13:53:45Z</time>
      </trkpt>
      <trkpt lat="44.18523" lon="7.0512">
        <ele>868.93</ele>
        <time>2018-08-25T13:53:47Z</time>
      </trkpt>
      <trkpt lat="44.18521" lon="7.05159">
        <ele>868.58</ele>
        <time>2018-08-25T13:53:49Z</time>
      </trkpt>
      <trkpt lat="44.18518" lon="7.05197">
        <ele>868.55</ele>
        <time>2018-08-25T13:53:51Z</time>
      </trkpt>
      <trkpt lat="44.18515" lon="7.05234">
        <ele>869.46</ele>
        <time>2018-08-25T13:53:53Z</time>
      </trkpt>
      <trkpt lat="44.18513" lon="7.05271">
        <ele>870.24</ele>
        <time>2018-08-25T13:53:55Z</time>
      </trkpt>
      <trkpt lat="44.18511" lon="7.05308">
        <ele>871.22</ele>
        <time>2018-08-25T13:53:57Z</time>
      </trkpt>
      <trkpt lat="44.18509" lon="7.05342">
        <ele>872.43</ele>
        <time>2018-08-25T13:53:59Z</time>
      </trkpt>
      <trkpt lat="44.18505" lon="7.05375">
        <ele>873.24</ele>
        <time>2018-08-25T13:54:01Z</time>
      </trkpt>
      <trkpt lat="44.18496" lon="7.05409">
        <ele>873.52</ele>
        <time>2018-08-25T13:54:03Z</time>
      </trkpt>
      <trkpt lat="44.18483" lon="7.05437">
        <ele>872.64</ele>
        <time>2018-08-25T13:54:05Z</time>
      </trkpt>
      <trkpt lat="44.18468" lon="7.05453">
        <ele>871.65</ele>
        <time>2018-08-25T13:54:07Z</time>
      </trkpt>
      <trkpt lat="44.18458" lon="7.05476">
        <ele>871.56</ele>
        <time>2018-08-25T13:54:09Z</time>
      </trkpt>
      <trkpt lat="44.18448" lon="7.05504">
        <ele>870.64</ele>
        <time>2018-08-25T13:54:11Z</time>
      </trkpt>
      <trkpt lat="44.18433" lon="7.0553">
        <ele>868.95</ele>
        <time>2018-08-25T13:54:13Z</time>
      </trkpt>
      <trkpt lat="44.18422" lon="7.05553">
        <ele>867.88</ele>
        <time>2018-08-25T13:54:15Z</time>
      </trkpt>
      <trkpt lat="44.1841" lon="7.05576">
        <ele>865.88</ele>
        <time>2018-08-25T13:54:18Z</time>
      </trkpt>
      <trkpt lat="44.18428" lon="7.05583">
        <ele>858.55</ele>
        <time>2018-08-25T13:58:58Z</time>
      </trkpt>
      <trkpt lat="44.18409" lon="7.0558">
        <ele>857.93</ele>
        <time>2018-08-25T14:04:24Z</time>
      </trkpt>
      <trkpt lat="44.18399" lon="7.05601">
        <ele>856.67</ele>
        <time>2018-08-25T14:04:26Z</time>
      </trkpt>
      <trkpt lat="44.18387" lon="7.05627">
        <ele>854.95</ele>
        <time>2018-08-25T14:04:28Z</time>
      </trkpt>
      <trkpt lat="44.18372" lon="7.05658">
        <ele>853.88</ele>
        <time>2018-08-25T14:04:30Z</time>
      </trkpt>
      <trkpt lat="44.18356" lon="7.0569">
        <ele>853.58</ele>
        <time>2018-08-25T14:04:32Z</time>
      </trkpt>
      <trkpt lat="44.18338" lon="7.05726">
        <ele>852.85</ele>
        <time>2018-08-25T14:04:34Z</time>
      </trkpt>
      <trkpt lat="44.18319" lon="7.05763">
        <ele>851.88</ele>
        <time>2018-08-25T14:04:36Z</time>
      </trkpt>
      <trkpt lat="44.18296" lon="7.05801">
        <ele>851.58</ele>
        <time>2018-08-25T14:04:38Z</time>
      </trkpt>
      <trkpt lat="44.18269" lon="7.05834">
        <ele>851.55</ele>
        <time>2018-08-25T14:04:40Z</time>
      </trkpt>
      <trkpt lat="44.18252" lon="7.05849">
        <ele>850.15</ele>
        <time>2018-08-25T14:04:41Z</time>
      </trkpt>
      <trkpt lat="44.18235" lon="7.05864">
        <ele>849.73</ele>
        <time>2018-08-25T14:04:42Z</time>
      </trkpt>
      <trkpt lat="44.1822" lon="7.05879">
        <ele>849.6</ele>
        <time>2018-08-25T14:04:43Z</time>
      </trkpt>
      <trkpt lat="44.18204" lon="7.05893">
        <ele>848.86</ele>
        <time>2018-08-25T14:04:44Z</time>
      </trkpt>
      <trkpt lat="44.18189" lon="7.05909">
        <ele>849.34</ele>
        <time>2018-08-25T14:04:45Z</time>
      </trkpt>
      <trkpt lat="44.18175" lon="7.05927">
        <ele>849.49</ele>
        <time>2018-08-25T14:04:46Z</time>
      </trkpt>
      <trkpt lat="44.18162" lon="7.05949">
        <ele>848.83</ele>
        <time>2018-08-25T14:04:47Z</time>
      </trkpt>
      <trkpt lat="44.1815" lon="7.05971">
        <ele>848.63</ele>
        <time>2018-08-25T14:04:48Z</time>
      </trkpt>
      <trkpt lat="44.18139" lon="7.05995">
        <ele>847.87</ele>
        <time>2018-08-25T14:04:49Z</time>
      </trkpt>
      <trkpt lat="44.18128" lon="7.06019">
        <ele>847.65</ele>
        <time>2018-08-25T14:04:50Z</time>
      </trkpt>
      <trkpt lat="44.18117" lon="7.06042">
        <ele>846.88</ele>
        <time>2018-08-25T14:04:51Z</time>
      </trkpt>
      <trkpt lat="44.18105" lon="7.06065">
        <ele>846.65</ele>
        <time>2018-08-25T14:04:52Z</time>
      </trkpt>
      <trkpt lat="44.18093" lon="7.06087">
        <ele>845.88</ele>
        <time>2018-08-25T14:04:53Z</time>
      </trkpt>
      <trkpt lat="44.1808" lon="7.0611">
        <ele>845.65</ele>
        <time>2018-08-25T14:04:54Z</time>
      </trkpt>
      <trkpt lat="44.18067" lon="7.06131">
        <ele>845.58</ele>
        <time>2018-08-25T14:04:55Z</time>
      </trkpt>
      <trkpt lat="44.18054" lon="7.06152">
        <ele>845.56</ele>
        <time>2018-08-25T14:04:56Z</time>
      </trkpt>
      <trkpt lat="44.18041" lon="7.06173">
        <ele>844.85</ele>
        <time>2018-08-25T14:04:57Z</time>
      </trkpt>
      <trkpt lat="44.18028" lon="7.06194">
        <ele>844.64</ele>
        <time>2018-08-25T14:04:58Z</time>
      </trkpt>
      <trkpt lat="44.18015" lon="7.06215">
        <ele>844.58</ele>
        <time>2018-08-25T14:04:59Z</time>
      </trkpt>
      <trkpt lat="44.18003" lon="7.06236">
        <ele>843.86</ele>
        <time>2018-08-25T14:05:00Z</time>
      </trkpt>
      <trkpt lat="44.17991" lon="7.06257">
        <ele>843.64</ele>
        <time>2018-08-25T14:05:01Z</time>
      </trkpt>
      <trkpt lat="44.1798" lon="7.0628">
        <ele>843.58</ele>
        <time>2018-08-25T14:05:02Z</time>
      </trkpt>
      <trkpt lat="44.1797" lon="7.06303">
        <ele>843.56</ele>
        <time>2018-08-25T14:05:03Z</time>
      </trkpt>
      <trkpt lat="44.17959" lon="7.06327">
        <ele>843.55</ele>
        <time>2018-08-25T14:05:04Z</time>
      </trkpt>
      <trkpt lat="44.1795" lon="7.06351">
        <ele>843.55</ele>
        <time>2018-08-25T14:05:05Z</time>
      </trkpt>
      <trkpt lat="44.17942" lon="7.06375">
        <ele>843.55</ele>
        <time>2018-08-25T14:05:06Z</time>
      </trkpt>
      <trkpt lat="44.17933" lon="7.064">
        <ele>843.55</ele>
        <time>2018-08-25T14:05:07Z</time>
      </trkpt>
      <trkpt lat="44.17925" lon="7.06425">
        <ele>844.95</ele>
        <time>2018-08-25T14:05:08Z</time>
      </trkpt>
      <trkpt lat="44.17917" lon="7.06449">
        <ele>844.67</ele>
        <time>2018-08-25T14:05:09Z</time>
      </trkpt>
      <trkpt lat="44.1791" lon="7.06473">
        <ele>843.88</ele>
        <time>2018-08-25T14:05:10Z</time>
      </trkpt>
      <trkpt lat="44.17903" lon="7.06498">
        <ele>844.35</ele>
        <time>2018-08-25T14:05:11Z</time>
      </trkpt>
      <trkpt lat="44.17897" lon="7.06524">
        <ele>843.79</ele>
        <time>2018-08-25T14:05:12Z</time>
      </trkpt>
      <trkpt lat="44.1789" lon="7.0655">
        <ele>842.92</ele>
        <time>2018-08-25T14:05:13Z</time>
      </trkpt>
      <trkpt lat="44.17882" lon="7.06575">
        <ele>843.36</ele>
        <time>2018-08-25T14:05:14Z</time>
      </trkpt>
      <trkpt lat="44.17872" lon="7.06599">
        <ele>842.79</ele>
        <time>2018-08-25T14:05:15Z</time>
      </trkpt>
      <trkpt lat="44.17861" lon="7.06622">
        <ele>842.62</ele>
        <time>2018-08-25T14:05:16Z</time>
      </trkpt>
      <trkpt lat="44.17848" lon="7.06643">
        <ele>842.57</ele>
        <time>2018-08-25T14:05:17Z</time>
      </trkpt>
      <trkpt lat="44.17835" lon="7.06664">
        <ele>841.85</ele>
        <time>2018-08-25T14:05:18Z</time>
      </trkpt>
      <trkpt lat="44.1782" lon="7.06685">
        <ele>841.64</ele>
        <time>2018-08-25T14:05:19Z</time>
      </trkpt>
      <trkpt lat="44.17806" lon="7.06705">
        <ele>840.88</ele>
        <time>2018-08-25T14:05:20Z</time>
      </trkpt>
      <trkpt lat="44.1779" lon="7.06725">
        <ele>840.65</ele>
        <time>2018-08-25T14:05:21Z</time>
      </trkpt>
      <trkpt lat="44.17774" lon="7.06745">
        <ele>840.58</ele>
        <time>2018-08-25T14:05:22Z</time>
      </trkpt>
      <trkpt lat="44.17758" lon="7.06766">
        <ele>839.86</ele>
        <time>2018-08-25T14:05:23Z</time>
      </trkpt>
      <trkpt lat="44.17743" lon="7.06788">
        <ele>839.64</ele>
        <time>2018-08-25T14:05:24Z</time>
      </trkpt>
      <trkpt lat="44.17728" lon="7.06812">
        <ele>839.58</ele>
        <time>2018-08-25T14:05:25Z</time>
      </trkpt>
      <trkpt lat="44.17715" lon="7.06837">
        <ele>838.16</ele>
        <time>2018-08-25T14:05:26Z</time>
      </trkpt>
      <trkpt lat="44.17703" lon="7.06861">
        <ele>838.43</ele>
        <time>2018-08-25T14:05:27Z</time>
      </trkpt>
      <trkpt lat="44.17691" lon="7.06884">
        <ele>837.81</ele>
        <time>2018-08-25T14:05:28Z</time>
      </trkpt>
      <trkpt lat="44.17681" lon="7.06907">
        <ele>837.63</ele>
        <time>2018-08-25T14:05:29Z</time>
      </trkpt>
      <trkpt lat="44.1767" lon="7.06933">
        <ele>836.87</ele>
        <time>2018-08-25T14:05:30Z</time>
      </trkpt>
      <trkpt lat="44.17659" lon="7.06963">
        <ele>837.35</ele>
        <time>2018-08-25T14:05:31Z</time>
      </trkpt>
      <trkpt lat="44.17648" lon="7.06991">
        <ele>836.79</ele>
        <time>2018-08-25T14:05:32Z</time>
      </trkpt>
      <trkpt lat="44.17643" lon="7.07026">
        <ele>836.62</ele>
        <time>2018-08-25T14:05:33Z</time>
      </trkpt>
      <trkpt lat="44.17636" lon="7.07059">
        <ele>836.57</ele>
        <time>2018-08-25T14:05:34Z</time>
      </trkpt>
      <trkpt lat="44.17629" lon="7.07092">
        <ele>835.85</ele>
        <time>2018-08-25T14:05:35Z</time>
      </trkpt>
      <trkpt lat="44.17625" lon="7.07124">
        <ele>834.94</ele>
        <time>2018-08-25T14:05:36Z</time>
      </trkpt>
      <trkpt lat="44.1762" lon="7.07159">
        <ele>835.37</ele>
        <time>2018-08-25T14:05:37Z</time>
      </trkpt>
      <trkpt lat="44.17614" lon="7.07191">
        <ele>835.49</ele>
        <time>2018-08-25T14:05:38Z</time>
      </trkpt>
      <trkpt lat="44.17608" lon="7.07222">
        <ele>835.53</ele>
        <time>2018-08-25T14:05:39Z</time>
      </trkpt>
      <trkpt lat="44.17608" lon="7.07256">
        <ele>833.44</ele>
        <time>2018-08-25T14:05:40Z</time>
      </trkpt>
      <trkpt lat="44.17611" lon="7.07286">
        <ele>832.82</ele>
        <time>2018-08-25T14:05:41Z</time>
      </trkpt>
      <trkpt lat="44.17614" lon="7.07318">
        <ele>834.03</ele>
        <time>2018-08-25T14:05:42Z</time>
      </trkpt>
      <trkpt lat="44.17619" lon="7.07346">
        <ele>836.49</ele>
        <time>2018-08-25T14:05:43Z</time>
      </trkpt>
      <trkpt lat="44.17617" lon="7.07395">
        <ele>834.23</ele>
        <time>2018-08-25T14:05:45Z</time>
      </trkpt>
      <trkpt lat="44.17615" lon="7.07442">
        <ele>832.91</ele>
        <time>2018-08-25T14:05:47Z</time>
      </trkpt>
      <trkpt lat="44.17608" lon="7.07467">
        <ele>833.36</ele>
        <time>2018-08-25T14:05:48Z</time>
      </trkpt>
      <trkpt lat="44.17593" lon="7.07512">
        <ele>832.62</ele>
        <time>2018-08-25T14:05:50Z</time>
      </trkpt>
      <trkpt lat="44.17582" lon="7.07537">
        <ele>833.27</ele>
        <time>2018-08-25T14:05:51Z</time>
      </trkpt>
      <trkpt lat="44.17574" lon="7.07563">
        <ele>833.46</ele>
        <time>2018-08-25T14:05:52Z</time>
      </trkpt>
      <trkpt lat="44.17564" lon="7.0759">
        <ele>832.82</ele>
        <time>2018-08-25T14:05:53Z</time>
      </trkpt>
      <trkpt lat="44.17555" lon="7.07619">
        <ele>831.23</ele>
        <time>2018-08-25T14:05:54Z</time>
      </trkpt>
      <trkpt lat="44.17546" lon="7.07648">
        <ele>831.45</ele>
        <time>2018-08-25T14:05:55Z</time>
      </trkpt>
      <trkpt lat="44.17538" lon="7.07677">
        <ele>829.42</ele>
        <time>2018-08-25T14:05:56Z</time>
      </trkpt>
      <trkpt lat="44.17531" lon="7.07706">
        <ele>828.81</ele>
        <time>2018-08-25T14:05:57Z</time>
      </trkpt>
      <trkpt lat="44.17521" lon="7.07734">
        <ele>828.63</ele>
        <time>2018-08-25T14:05:58Z</time>
      </trkpt>
      <trkpt lat="44.17512" lon="7.07762">
        <ele>829.27</ele>
        <time>2018-08-25T14:05:59Z</time>
      </trkpt>
      <trkpt lat="44.17501" lon="7.07792">
        <ele>828.77</ele>
        <time>2018-08-25T14:06:00Z</time>
      </trkpt>
      <trkpt lat="44.17491" lon="7.07821">
        <ele>828.61</ele>
        <time>2018-08-25T14:06:01Z</time>
      </trkpt>
      <trkpt lat="44.17476" lon="7.07847">
        <ele>825.07</ele>
        <time>2018-08-25T14:06:02Z</time>
      </trkpt>
      <trkpt lat="44.17463" lon="7.07873">
        <ele>824.7</ele>
        <time>2018-08-25T14:06:03Z</time>
      </trkpt>
      <trkpt lat="44.17448" lon="7.07898">
        <ele>824.59</ele>
        <time>2018-08-25T14:06:04Z</time>
      </trkpt>
      <trkpt lat="44.17435" lon="7.07924">
        <ele>824.56</ele>
        <time>2018-08-25T14:06:05Z</time>
      </trkpt>
      <trkpt lat="44.17415" lon="7.07945">
        <ele>818.95</ele>
        <time>2018-08-25T14:06:06Z</time>
      </trkpt>
      <trkpt lat="44.17397" lon="7.07965">
        <ele>816.57</ele>
        <time>2018-08-25T14:06:07Z</time>
      </trkpt>
      <trkpt lat="44.17383" lon="7.07987">
        <ele>816.55</ele>
        <time>2018-08-25T14:06:08Z</time>
      </trkpt>
      <trkpt lat="44.17369" lon="7.08009">
        <ele>816.55</ele>
        <time>2018-08-25T14:06:09Z</time>
      </trkpt>
      <trkpt lat="44.17348" lon="7.08016">
        <ele>814.45</ele>
        <time>2018-08-25T14:06:10Z</time>
      </trkpt>
      <trkpt lat="44.1733" lon="7.0803">
        <ele>813.12</ele>
        <time>2018-08-25T14:06:11Z</time>
      </trkpt>
      <trkpt lat="44.17311" lon="7.08047">
        <ele>813.42</ele>
        <time>2018-08-25T14:06:12Z</time>
      </trkpt>
      <trkpt lat="44.17296" lon="7.08067">
        <ele>813.51</ele>
        <time>2018-08-25T14:06:13Z</time>
      </trkpt>
      <trkpt lat="44.1728" lon="7.08089">
        <ele>814.24</ele>
        <time>2018-08-25T14:06:14Z</time>
      </trkpt>
      <trkpt lat="44.17266" lon="7.08112">
        <ele>814.45</ele>
        <time>2018-08-25T14:06:15Z</time>
      </trkpt>
      <trkpt lat="44.17259" lon="7.08139">
        <ele>813.82</ele>
        <time>2018-08-25T14:06:16Z</time>
      </trkpt>
      <trkpt lat="44.1726" lon="7.08168">
        <ele>813.63</ele>
        <time>2018-08-25T14:06:17Z</time>
      </trkpt>
      <trkpt lat="44.17273" lon="7.08203">
        <ele>814.27</ele>
        <time>2018-08-25T14:06:18Z</time>
      </trkpt>
      <trkpt lat="44.17269" lon="7.0823">
        <ele>815.17</ele>
        <time>2018-08-25T14:06:19Z</time>
      </trkpt>
      <trkpt lat="44.1726" lon="7.08253">
        <ele>816.83</ele>
        <time>2018-08-25T14:06:20Z</time>
      </trkpt>
      <trkpt lat="44.17249" lon="7.08275">
        <ele>818.03</ele>
        <time>2018-08-25T14:06:21Z</time>
      </trkpt>
      <trkpt lat="44.17236" lon="7.08298">
        <ele>819.09</ele>
        <time>2018-08-25T14:06:22Z</time>
      </trkpt>
      <trkpt lat="44.17224" lon="7.08319">
        <ele>819.41</ele>
        <time>2018-08-25T14:06:23Z</time>
      </trkpt>
      <trkpt lat="44.17212" lon="7.08343">
        <ele>818.81</ele>
        <time>2018-08-25T14:06:24Z</time>
      </trkpt>
      <trkpt lat="44.17198" lon="7.08366">
        <ele>819.33</ele>
        <time>2018-08-25T14:06:25Z</time>
      </trkpt>
      <trkpt lat="44.17185" lon="7.08389">
        <ele>818.78</ele>
        <time>2018-08-25T14:06:26Z</time>
      </trkpt>
      <trkpt lat="44.1717" lon="7.08412">
        <ele>818.62</ele>
        <time>2018-08-25T14:06:27Z</time>
      </trkpt>
      <trkpt lat="44.17154" lon="7.08433">
        <ele>817.87</ele>
        <time>2018-08-25T14:06:28Z</time>
      </trkpt>
      <trkpt lat="44.17139" lon="7.08452">
        <ele>818.34</ele>
        <time>2018-08-25T14:06:29Z</time>
      </trkpt>
      <trkpt lat="44.17124" lon="7.08472">
        <ele>818.49</ele>
        <time>2018-08-25T14:06:30Z</time>
      </trkpt>
      <trkpt lat="44.17107" lon="7.08493">
        <ele>817.83</ele>
        <time>2018-08-25T14:06:31Z</time>
      </trkpt>
      <trkpt lat="44.17091" lon="7.08513">
        <ele>816.93</ele>
        <time>2018-08-25T14:06:32Z</time>
      </trkpt>
      <trkpt lat="44.17073" lon="7.08534">
        <ele>817.36</ele>
        <time>2018-08-25T14:06:33Z</time>
      </trkpt>
      <trkpt lat="44.17056" lon="7.08554">
        <ele>817.49</ele>
        <time>2018-08-25T14:06:34Z</time>
      </trkpt>
      <trkpt lat="44.17039" lon="7.08575">
        <ele>817.53</ele>
        <time>2018-08-25T14:06:35Z</time>
      </trkpt>
      <trkpt lat="44.17025" lon="7.08593">
        <ele>816.84</ele>
        <time>2018-08-25T14:06:36Z</time>
      </trkpt>
      <trkpt lat="44.17006" lon="7.08612">
        <ele>815.94</ele>
        <time>2018-08-25T14:06:37Z</time>
      </trkpt>
      <trkpt lat="44.1699" lon="7.08629">
        <ele>816.36</ele>
        <time>2018-08-25T14:06:38Z</time>
      </trkpt>
      <trkpt lat="44.16971" lon="7.08645">
        <ele>815.79</ele>
        <time>2018-08-25T14:06:39Z</time>
      </trkpt>
      <trkpt lat="44.1695" lon="7.08661">
        <ele>816.32</ele>
        <time>2018-08-25T14:06:40Z</time>
      </trkpt>
      <trkpt lat="44.16929" lon="7.08677">
        <ele>815.78</ele>
        <time>2018-08-25T14:06:41Z</time>
      </trkpt>
      <trkpt lat="44.16908" lon="7.08691">
        <ele>814.22</ele>
        <time>2018-08-25T14:06:42Z</time>
      </trkpt>
      <trkpt lat="44.16888" lon="7.08706">
        <ele>813.75</ele>
        <time>2018-08-25T14:06:43Z</time>
      </trkpt>
      <trkpt lat="44.16866" lon="7.08717">
        <ele>812.21</ele>
        <time>2018-08-25T14:06:44Z</time>
      </trkpt>
      <trkpt lat="44.16846" lon="7.08728">
        <ele>809.65</ele>
        <time>2018-08-25T14:06:45Z</time>
      </trkpt>
      <trkpt lat="44.16826" lon="7.08742">
        <ele>806.78</ele>
        <time>2018-08-25T14:06:46Z</time>
      </trkpt>
      <trkpt lat="44.16804" lon="7.08758">
        <ele>806.62</ele>
        <time>2018-08-25T14:06:47Z</time>
      </trkpt>
      <trkpt lat="44.16783" lon="7.08773">
        <ele>806.57</ele>
        <time>2018-08-25T14:06:48Z</time>
      </trkpt>
      <trkpt lat="44.1676" lon="7.08782">
        <ele>807.25</ele>
        <time>2018-08-25T14:06:49Z</time>
      </trkpt>
      <trkpt lat="44.16738" lon="7.08795">
        <ele>807.46</ele>
        <time>2018-08-25T14:06:50Z</time>
      </trkpt>
      <trkpt lat="44.16714" lon="7.08799">
        <ele>806.82</ele>
        <time>2018-08-25T14:06:51Z</time>
      </trkpt>
      <trkpt lat="44.16692" lon="7.08807">
        <ele>806.63</ele>
        <time>2018-08-25T14:06:52Z</time>
      </trkpt>
      <trkpt lat="44.16667" lon="7.0881">
        <ele>807.27</ele>
        <time>2018-08-25T14:06:53Z</time>
      </trkpt>
      <trkpt lat="44.16643" lon="7.08816">
        <ele>806.77</ele>
        <time>2018-08-25T14:06:54Z</time>
      </trkpt>
      <trkpt lat="44.16615" lon="7.08814">
        <ele>809.41</ele>
        <time>2018-08-25T14:06:55Z</time>
      </trkpt>
      <trkpt lat="44.1659" lon="7.08814">
        <ele>809.51</ele>
        <time>2018-08-25T14:06:56Z</time>
      </trkpt>
      <trkpt lat="44.16565" lon="7.08816">
        <ele>809.54</ele>
        <time>2018-08-25T14:06:57Z</time>
      </trkpt>
      <trkpt lat="44.1654" lon="7.08818">
        <ele>808.14</ele>
        <time>2018-08-25T14:06:58Z</time>
      </trkpt>
      <trkpt lat="44.16516" lon="7.08822">
        <ele>807.03</ele>
        <time>2018-08-25T14:06:59Z</time>
      </trkpt>
      <trkpt lat="44.16492" lon="7.08828">
        <ele>807.39</ele>
        <time>2018-08-25T14:07:00Z</time>
      </trkpt>
      <trkpt lat="44.16469" lon="7.08835">
        <ele>806.8</ele>
        <time>2018-08-25T14:07:01Z</time>
      </trkpt>
      <trkpt lat="44.16448" lon="7.08844">
        <ele>801.72</ele>
        <time>2018-08-25T14:07:02Z</time>
      </trkpt>
      <trkpt lat="44.16424" lon="7.08854">
        <ele>799.5</ele>
        <time>2018-08-25T14:07:03Z</time>
      </trkpt>
      <trkpt lat="44.16405" lon="7.08868">
        <ele>795.33</ele>
        <time>2018-08-25T14:07:04Z</time>
      </trkpt>
      <trkpt lat="44.16384" lon="7.08882">
        <ele>793.38</ele>
        <time>2018-08-25T14:07:05Z</time>
      </trkpt>
      <trkpt lat="44.16365" lon="7.08903">
        <ele>792.8</ele>
        <time>2018-08-25T14:07:06Z</time>
      </trkpt>
      <trkpt lat="44.16345" lon="7.08922">
        <ele>791.92</ele>
        <time>2018-08-25T14:07:07Z</time>
      </trkpt>
      <trkpt lat="44.16325" lon="7.08941">
        <ele>791.66</ele>
        <time>2018-08-25T14:07:08Z</time>
      </trkpt>
      <trkpt lat="44.16307" lon="7.08957">
        <ele>791.58</ele>
        <time>2018-08-25T14:07:09Z</time>
      </trkpt>
      <trkpt lat="44.16292" lon="7.08973">
        <ele>790.16</ele>
        <time>2018-08-25T14:07:10Z</time>
      </trkpt>
      <trkpt lat="44.16261" lon="7.08998">
        <ele>785.47</ele>
        <time>2018-08-25T14:07:12Z</time>
      </trkpt>
      <trkpt lat="44.1623" lon="7.0902">
        <ele>784.63</ele>
        <time>2018-08-25T14:07:14Z</time>
      </trkpt>
      <trkpt lat="44.16193" lon="7.09024">
        <ele>783.65</ele>
        <time>2018-08-25T14:07:16Z</time>
      </trkpt>
      <trkpt lat="44.16171" lon="7.09026">
        <ele>783.58</ele>
        <time>2018-08-25T14:07:17Z</time>
      </trkpt>
      <trkpt lat="44.16147" lon="7.09025">
        <ele>784.26</ele>
        <time>2018-08-25T14:07:18Z</time>
      </trkpt>
      <trkpt lat="44.16121" lon="7.09025">
        <ele>782.36</ele>
        <time>2018-08-25T14:07:19Z</time>
      </trkpt>
      <trkpt lat="44.16094" lon="7.09025">
        <ele>781.79</ele>
        <time>2018-08-25T14:07:20Z</time>
      </trkpt>
      <trkpt lat="44.16066" lon="7.09025">
        <ele>781.62</ele>
        <time>2018-08-25T14:07:21Z</time>
      </trkpt>
      <trkpt lat="44.1604" lon="7.09033">
        <ele>780.87</ele>
        <time>2018-08-25T14:07:22Z</time>
      </trkpt>
      <trkpt lat="44.16013" lon="7.09042">
        <ele>781.34</ele>
        <time>2018-08-25T14:07:23Z</time>
      </trkpt>
      <trkpt lat="44.15986" lon="7.09052">
        <ele>780.79</ele>
        <time>2018-08-25T14:07:24Z</time>
      </trkpt>
      <trkpt lat="44.15959" lon="7.09063">
        <ele>780.62</ele>
        <time>2018-08-25T14:07:25Z</time>
      </trkpt>
      <trkpt lat="44.15933" lon="7.09074">
        <ele>780.57</ele>
        <time>2018-08-25T14:07:26Z</time>
      </trkpt>
      <trkpt lat="44.15908" lon="7.09086">
        <ele>781.25</ele>
        <time>2018-08-25T14:07:27Z</time>
      </trkpt>
      <trkpt lat="44.15881" lon="7.09095">
        <ele>781.46</ele>
        <time>2018-08-25T14:07:28Z</time>
      </trkpt>
      <trkpt lat="44.15857" lon="7.0909">
        <ele>783.62</ele>
        <time>2018-08-25T14:07:29Z</time>
      </trkpt>
      <trkpt lat="44.15834" lon="7.09088">
        <ele>785.67</ele>
        <time>2018-08-25T14:07:30Z</time>
      </trkpt>
      <trkpt lat="44.15811" lon="7.09084">
        <ele>784.88</ele>
        <time>2018-08-25T14:07:31Z</time>
      </trkpt>
      <trkpt lat="44.15785" lon="7.09075">
        <ele>783.95</ele>
        <time>2018-08-25T14:07:32Z</time>
      </trkpt>
      <trkpt lat="44.15759" lon="7.09063">
        <ele>781.57</ele>
        <time>2018-08-25T14:07:33Z</time>
      </trkpt>
      <trkpt lat="44.15734" lon="7.09053">
        <ele>780.15</ele>
        <time>2018-08-25T14:07:34Z</time>
      </trkpt>
      <trkpt lat="44.15709" lon="7.09043">
        <ele>778.33</ele>
        <time>2018-08-25T14:07:35Z</time>
      </trkpt>
      <trkpt lat="44.15684" lon="7.09036">
        <ele>776.38</ele>
        <time>2018-08-25T14:07:36Z</time>
      </trkpt>
      <trkpt lat="44.15658" lon="7.09031">
        <ele>774.4</ele>
        <time>2018-08-25T14:07:37Z</time>
      </trkpt>
      <trkpt lat="44.15633" lon="7.09031">
        <ele>773.8</ele>
        <time>2018-08-25T14:07:38Z</time>
      </trkpt>
      <trkpt lat="44.15611" lon="7.0904">
        <ele>772.22</ele>
        <time>2018-08-25T14:07:39Z</time>
      </trkpt>
      <trkpt lat="44.15587" lon="7.09058">
        <ele>771.05</ele>
        <time>2018-08-25T14:07:40Z</time>
      </trkpt>
      <trkpt lat="44.15565" lon="7.09073">
        <ele>770.7</ele>
        <time>2018-08-25T14:07:41Z</time>
      </trkpt>
      <trkpt lat="44.15543" lon="7.09091">
        <ele>769.89</ele>
        <time>2018-08-25T14:07:42Z</time>
      </trkpt>
      <trkpt lat="44.15521" lon="7.09109">
        <ele>768.25</ele>
        <time>2018-08-25T14:07:43Z</time>
      </trkpt>
      <trkpt lat="44.155" lon="7.09127">
        <ele>765.66</ele>
        <time>2018-08-25T14:07:44Z</time>
      </trkpt>
      <trkpt lat="44.15478" lon="7.09148">
        <ele>763.48</ele>
        <time>2018-08-25T14:07:45Z</time>
      </trkpt>
      <trkpt lat="44.15459" lon="7.09171">
        <ele>762.83</ele>
        <time>2018-08-25T14:07:46Z</time>
      </trkpt>
      <trkpt lat="44.15443" lon="7.09197">
        <ele>760.53</ele>
        <time>2018-08-25T14:07:47Z</time>
      </trkpt>
      <trkpt lat="44.15428" lon="7.09227">
        <ele>759.84</ele>
        <time>2018-08-25T14:07:48Z</time>
      </trkpt>
      <trkpt lat="44.15414" lon="7.09257">
        <ele>756.84</ele>
        <time>2018-08-25T14:07:49Z</time>
      </trkpt>
      <trkpt lat="44.15403" lon="7.09288">
        <ele>753.13</ele>
        <time>2018-08-25T14:07:50Z</time>
      </trkpt>
      <trkpt lat="44.15391" lon="7.09319">
        <ele>751.32</ele>
        <time>2018-08-25T14:07:51Z</time>
      </trkpt>
      <trkpt lat="44.15378" lon="7.09349">
        <ele>750.08</ele>
        <time>2018-08-25T14:07:52Z</time>
      </trkpt>
      <trkpt lat="44.15365" lon="7.09379">
        <ele>749.71</ele>
        <time>2018-08-25T14:07:53Z</time>
      </trkpt>
      <trkpt lat="44.15342" lon="7.09389">
        <ele>748.9</ele>
        <time>2018-08-25T14:07:54Z</time>
      </trkpt>
      <trkpt lat="44.15322" lon="7.09405">
        <ele>748.65</ele>
        <time>2018-08-25T14:07:55Z</time>
      </trkpt>
      <trkpt lat="44.15303" lon="7.09422">
        <ele>748.58</ele>
        <time>2018-08-25T14:07:56Z</time>
      </trkpt>
      <trkpt lat="44.15278" lon="7.0943">
        <ele>747.86</ele>
        <time>2018-08-25T14:07:57Z</time>
      </trkpt>
      <trkpt lat="44.15256" lon="7.09432">
        <ele>747.64</ele>
        <time>2018-08-25T14:07:58Z</time>
      </trkpt>
      <trkpt lat="44.15234" lon="7.0944">
        <ele>747.58</ele>
        <time>2018-08-25T14:07:59Z</time>
      </trkpt>
      <trkpt lat="44.15204" lon="7.09432">
        <ele>746.16</ele>
        <time>2018-08-25T14:08:00Z</time>
      </trkpt>
      <trkpt lat="44.15181" lon="7.09435">
        <ele>743.63</ele>
        <time>2018-08-25T14:08:01Z</time>
      </trkpt>
      <trkpt lat="44.15155" lon="7.09439">
        <ele>743.57</ele>
        <time>2018-08-25T14:08:02Z</time>
      </trkpt>
      <trkpt lat="44.15129" lon="7.09456">
        <ele>743.56</ele>
        <time>2018-08-25T14:08:03Z</time>
      </trkpt>
      <trkpt lat="44.15106" lon="7.09476">
        <ele>743.55</ele>
        <time>2018-08-25T14:08:04Z</time>
      </trkpt>
      <trkpt lat="44.15087" lon="7.09506">
        <ele>744.25</ele>
        <time>2018-08-25T14:08:05Z</time>
      </trkpt>
      <trkpt lat="44.15086" lon="7.0955">
        <ele>743.06</ele>
        <time>2018-08-25T14:08:06Z</time>
      </trkpt>
      <trkpt lat="44.1507" lon="7.09579">
        <ele>742.7</ele>
        <time>2018-08-25T14:08:07Z</time>
      </trkpt>
      <trkpt lat="44.15054" lon="7.09606">
        <ele>742.59</ele>
        <time>2018-08-25T14:08:08Z</time>
      </trkpt>
      <trkpt lat="44.15039" lon="7.09622">
        <ele>742.56</ele>
        <time>2018-08-25T14:08:09Z</time>
      </trkpt>
      <trkpt lat="44.15002" lon="7.09661">
        <ele>742.55</ele>
        <time>2018-08-25T14:08:11Z</time>
      </trkpt>
      <trkpt lat="44.14985" lon="7.09681">
        <ele>742.55</ele>
        <time>2018-08-25T14:08:12Z</time>
      </trkpt>
      <trkpt lat="44.14955" lon="7.0968">
        <ele>741.85</ele>
        <time>2018-08-25T14:08:13Z</time>
      </trkpt>
      <trkpt lat="44.14909" lon="7.09687">
        <ele>740.94</ele>
        <time>2018-08-25T14:08:15Z</time>
      </trkpt>
      <trkpt lat="44.14882" lon="7.09683">
        <ele>740.67</ele>
        <time>2018-08-25T14:08:16Z</time>
      </trkpt>
      <trkpt lat="44.14857" lon="7.09667">
        <ele>740.58</ele>
        <time>2018-08-25T14:08:17Z</time>
      </trkpt>
      <trkpt lat="44.14832" lon="7.09649">
        <ele>739.16</ele>
        <time>2018-08-25T14:08:18Z</time>
      </trkpt>
      <trkpt lat="44.14808" lon="7.09645">
        <ele>738.73</ele>
        <time>2018-08-25T14:08:19Z</time>
      </trkpt>
      <trkpt lat="44.14784" lon="7.09644">
        <ele>737.2</ele>
        <time>2018-08-25T14:08:20Z</time>
      </trkpt>
      <trkpt lat="44.14759" lon="7.09642">
        <ele>736.74</ele>
        <time>2018-08-25T14:08:21Z</time>
      </trkpt>
      <trkpt lat="44.14734" lon="7.0965">
        <ele>735.91</ele>
        <time>2018-08-25T14:08:22Z</time>
      </trkpt>
      <trkpt lat="44.14709" lon="7.09654">
        <ele>735.66</ele>
        <time>2018-08-25T14:08:23Z</time>
      </trkpt>
      <trkpt lat="44.14684" lon="7.09678">
        <ele>734.18</ele>
        <time>2018-08-25T14:08:24Z</time>
      </trkpt>
      <trkpt lat="44.14659" lon="7.09692">
        <ele>733.74</ele>
        <time>2018-08-25T14:08:25Z</time>
      </trkpt>
      <trkpt lat="44.14638" lon="7.09709">
        <ele>732.2</ele>
        <time>2018-08-25T14:08:26Z</time>
      </trkpt>
      <trkpt lat="44.14615" lon="7.09727">
        <ele>731.75</ele>
        <time>2018-08-25T14:08:27Z</time>
      </trkpt>
      <trkpt lat="44.14598" lon="7.0975">
        <ele>731.61</ele>
        <time>2018-08-25T14:08:28Z</time>
      </trkpt>
      <trkpt lat="44.14578" lon="7.0977">
        <ele>730.87</ele>
        <time>2018-08-25T14:08:29Z</time>
      </trkpt>
      <trkpt lat="44.14558" lon="7.09791">
        <ele>730.64</ele>
        <time>2018-08-25T14:08:30Z</time>
      </trkpt>
      <trkpt lat="44.14536" lon="7.09795">
        <ele>729.88</ele>
        <time>2018-08-25T14:08:31Z</time>
      </trkpt>
      <trkpt lat="44.14515" lon="7.09809">
        <ele>729.65</ele>
        <time>2018-08-25T14:08:32Z</time>
      </trkpt>
      <trkpt lat="44.14493" lon="7.09811">
        <ele>728.88</ele>
        <time>2018-08-25T14:08:33Z</time>
      </trkpt>
      <trkpt lat="44.14472" lon="7.0982">
        <ele>727.95</ele>
        <time>2018-08-25T14:08:34Z</time>
      </trkpt>
      <trkpt lat="44.14448" lon="7.09811">
        <ele>727.67</ele>
        <time>2018-08-25T14:08:35Z</time>
      </trkpt>
      <trkpt lat="44.14425" lon="7.09813">
        <ele>727.58</ele>
        <time>2018-08-25T14:08:36Z</time>
      </trkpt>
      <trkpt lat="44.14399" lon="7.09786">
        <ele>726.86</ele>
        <time>2018-08-25T14:08:37Z</time>
      </trkpt>
      <trkpt lat="44.14374" lon="7.09778">
        <ele>726.64</ele>
        <time>2018-08-25T14:08:38Z</time>
      </trkpt>
      <trkpt lat="44.14349" lon="7.09777">
        <ele>727.28</ele>
        <time>2018-08-25T14:08:39Z</time>
      </trkpt>
      <trkpt lat="44.14325" lon="7.09772">
        <ele>727.47</ele>
        <time>2018-08-25T14:08:40Z</time>
      </trkpt>
      <trkpt lat="44.14303" lon="7.09772">
        <ele>726.82</ele>
        <time>2018-08-25T14:08:41Z</time>
      </trkpt>
      <trkpt lat="44.14255" lon="7.0978">
        <ele>726.63</ele>
        <time>2018-08-25T14:08:43Z</time>
      </trkpt>
      <trkpt lat="44.14232" lon="7.09781">
        <ele>726.57</ele>
        <time>2018-08-25T14:08:44Z</time>
      </trkpt>
      <trkpt lat="44.14209" lon="7.09801">
        <ele>727.26</ele>
        <time>2018-08-25T14:08:45Z</time>
      </trkpt>
      <trkpt lat="44.14186" lon="7.09821">
        <ele>726.06</ele>
        <time>2018-08-25T14:08:46Z</time>
      </trkpt>
      <trkpt lat="44.14162" lon="7.09833">
        <ele>725</ele>
        <time>2018-08-25T14:08:47Z</time>
      </trkpt>
      <trkpt lat="44.14139" lon="7.09845">
        <ele>724.68</ele>
        <time>2018-08-25T14:08:48Z</time>
      </trkpt>
      <trkpt lat="44.14121" lon="7.09855">
        <ele>725.29</ele>
        <time>2018-08-25T14:08:49Z</time>
      </trkpt>
      <trkpt lat="44.14101" lon="7.09863">
        <ele>725.47</ele>
        <time>2018-08-25T14:08:50Z</time>
      </trkpt>
      <trkpt lat="44.14082" lon="7.09866">
        <ele>726.22</ele>
        <time>2018-08-25T14:08:51Z</time>
      </trkpt>
      <trkpt lat="44.14062" lon="7.09872">
        <ele>726.45</ele>
        <time>2018-08-25T14:08:52Z</time>
      </trkpt>
      <trkpt lat="44.14042" lon="7.09873">
        <ele>728.62</ele>
        <time>2018-08-25T14:08:53Z</time>
      </trkpt>
      <trkpt lat="44.14007" lon="7.09877">
        <ele>725.82</ele>
        <time>2018-08-25T14:08:55Z</time>
      </trkpt>
      <trkpt lat="44.13988" lon="7.09889">
        <ele>728.43</ele>
        <time>2018-08-25T14:08:56Z</time>
      </trkpt>
      <trkpt lat="44.1397" lon="7.09905">
        <ele>729.21</ele>
        <time>2018-08-25T14:08:57Z</time>
      </trkpt>
      <trkpt lat="44.1395" lon="7.09921">
        <ele>729.45</ele>
        <time>2018-08-25T14:08:58Z</time>
      </trkpt>
      <trkpt lat="44.1393" lon="7.09934">
        <ele>728.12</ele>
        <time>2018-08-25T14:08:59Z</time>
      </trkpt>
      <trkpt lat="44.1391" lon="7.09948">
        <ele>726.32</ele>
        <time>2018-08-25T14:09:00Z</time>
      </trkpt>
      <trkpt lat="44.1389" lon="7.09964">
        <ele>725.78</ele>
        <time>2018-08-25T14:09:01Z</time>
      </trkpt>
      <trkpt lat="44.13871" lon="7.0998">
        <ele>724.92</ele>
        <time>2018-08-25T14:09:02Z</time>
      </trkpt>
      <trkpt lat="44.13852" lon="7.09997">
        <ele>724.66</ele>
        <time>2018-08-25T14:09:03Z</time>
      </trkpt>
      <trkpt lat="44.13834" lon="7.10014">
        <ele>723.88</ele>
        <time>2018-08-25T14:09:04Z</time>
      </trkpt>
      <trkpt lat="44.13802" lon="7.10043">
        <ele>722.88</ele>
        <time>2018-08-25T14:09:06Z</time>
      </trkpt>
      <trkpt lat="44.13781" lon="7.10044">
        <ele>721.25</ele>
        <time>2018-08-25T14:09:07Z</time>
      </trkpt>
      <trkpt lat="44.13762" lon="7.10052">
        <ele>720.76</ele>
        <time>2018-08-25T14:09:08Z</time>
      </trkpt>
      <trkpt lat="44.13731" lon="7.10031">
        <ele>720.61</ele>
        <time>2018-08-25T14:09:09Z</time>
      </trkpt>
      <trkpt lat="44.13707" lon="7.1002">
        <ele>720.57</ele>
        <time>2018-08-25T14:09:10Z</time>
      </trkpt>
      <trkpt lat="44.13684" lon="7.10016">
        <ele>720.55</ele>
        <time>2018-08-25T14:09:11Z</time>
      </trkpt>
      <trkpt lat="44.1366" lon="7.10006">
        <ele>719.15</ele>
        <time>2018-08-25T14:09:12Z</time>
      </trkpt>
      <trkpt lat="44.13637" lon="7.10006">
        <ele>717.33</ele>
        <time>2018-08-25T14:09:13Z</time>
      </trkpt>
      <trkpt lat="44.13614" lon="7.10013">
        <ele>718.18</ele>
        <time>2018-08-25T14:09:14Z</time>
      </trkpt>
      <trkpt lat="44.1359" lon="7.10021">
        <ele>717.74</ele>
        <time>2018-08-25T14:09:15Z</time>
      </trkpt>
      <trkpt lat="44.13568" lon="7.10028">
        <ele>716.91</ele>
        <time>2018-08-25T14:09:16Z</time>
      </trkpt>
      <trkpt lat="44.13545" lon="7.10039">
        <ele>716.66</ele>
        <time>2018-08-25T14:09:17Z</time>
      </trkpt>
      <trkpt lat="44.13522" lon="7.1005">
        <ele>716.58</ele>
        <time>2018-08-25T14:09:18Z</time>
      </trkpt>
      <trkpt lat="44.13499" lon="7.10059">
        <ele>715.86</ele>
        <time>2018-08-25T14:09:19Z</time>
      </trkpt>
      <trkpt lat="44.13477" lon="7.1007">
        <ele>715.64</ele>
        <time>2018-08-25T14:09:20Z</time>
      </trkpt>
      <trkpt lat="44.13453" lon="7.10076">
        <ele>715.58</ele>
        <time>2018-08-25T14:09:21Z</time>
      </trkpt>
      <trkpt lat="44.1343" lon="7.10081">
        <ele>715.56</ele>
        <time>2018-08-25T14:09:22Z</time>
      </trkpt>
      <trkpt lat="44.13409" lon="7.1009">
        <ele>715.55</ele>
        <time>2018-08-25T14:09:23Z</time>
      </trkpt>
      <trkpt lat="44.13386" lon="7.10097">
        <ele>714.85</ele>
        <time>2018-08-25T14:09:24Z</time>
      </trkpt>
      <trkpt lat="44.13362" lon="7.10097">
        <ele>714.64</ele>
        <time>2018-08-25T14:09:25Z</time>
      </trkpt>
      <trkpt lat="44.13338" lon="7.10103">
        <ele>713.88</ele>
        <time>2018-08-25T14:09:26Z</time>
      </trkpt>
      <trkpt lat="44.13314" lon="7.10108">
        <ele>712.95</ele>
        <time>2018-08-25T14:09:27Z</time>
      </trkpt>
      <trkpt lat="44.13288" lon="7.10112">
        <ele>712.67</ele>
        <time>2018-08-25T14:09:28Z</time>
      </trkpt>
      <trkpt lat="44.13264" lon="7.10116">
        <ele>711.88</ele>
        <time>2018-08-25T14:09:29Z</time>
      </trkpt>
      <trkpt lat="44.13239" lon="7.10097">
        <ele>708.85</ele>
        <time>2018-08-25T14:09:30Z</time>
      </trkpt>
      <trkpt lat="44.13213" lon="7.10084">
        <ele>707.94</ele>
        <time>2018-08-25T14:09:31Z</time>
      </trkpt>
      <trkpt lat="44.13191" lon="7.10066">
        <ele>706.27</ele>
        <time>2018-08-25T14:09:32Z</time>
      </trkpt>
      <trkpt lat="44.13167" lon="7.1005">
        <ele>704.36</ele>
        <time>2018-08-25T14:09:33Z</time>
      </trkpt>
      <trkpt lat="44.13143" lon="7.10038">
        <ele>702.39</ele>
        <time>2018-08-25T14:09:34Z</time>
      </trkpt>
      <trkpt lat="44.13119" lon="7.10031">
        <ele>701.1</ele>
        <time>2018-08-25T14:09:35Z</time>
      </trkpt>
      <trkpt lat="44.13096" lon="7.10029">
        <ele>699.31</ele>
        <time>2018-08-25T14:09:36Z</time>
      </trkpt>
      <trkpt lat="44.13072" lon="7.10024">
        <ele>697.38</ele>
        <time>2018-08-25T14:09:37Z</time>
      </trkpt>
      <trkpt lat="44.13049" lon="7.10016">
        <ele>695.4</ele>
        <time>2018-08-25T14:09:38Z</time>
      </trkpt>
      <trkpt lat="44.13028" lon="7.10004">
        <ele>692.7</ele>
        <time>2018-08-25T14:09:39Z</time>
      </trkpt>
      <trkpt lat="44.13007" lon="7.09987">
        <ele>691.19</ele>
        <time>2018-08-25T14:09:40Z</time>
      </trkpt>
      <trkpt lat="44.12986" lon="7.09967">
        <ele>690.04</ele>
        <time>2018-08-25T14:09:41Z</time>
      </trkpt>
      <trkpt lat="44.1297" lon="7.09942">
        <ele>688.3</ele>
        <time>2018-08-25T14:09:42Z</time>
      </trkpt>
      <trkpt lat="44.12955" lon="7.09915">
        <ele>687.07</ele>
        <time>2018-08-25T14:09:43Z</time>
      </trkpt>
      <trkpt lat="44.12939" lon="7.09887">
        <ele>686.71</ele>
        <time>2018-08-25T14:09:44Z</time>
      </trkpt>
      <trkpt lat="44.12925" lon="7.09859">
        <ele>685.2</ele>
        <time>2018-08-25T14:09:45Z</time>
      </trkpt>
      <trkpt lat="44.1291" lon="7.09831">
        <ele>683.34</ele>
        <time>2018-08-25T14:09:46Z</time>
      </trkpt>
      <trkpt lat="44.12895" lon="7.09804">
        <ele>682.79</ele>
        <time>2018-08-25T14:09:47Z</time>
      </trkpt>
      <trkpt lat="44.1288" lon="7.09777">
        <ele>681.92</ele>
        <time>2018-08-25T14:09:48Z</time>
      </trkpt>
      <trkpt lat="44.12865" lon="7.09751">
        <ele>679.56</ele>
        <time>2018-08-25T14:09:49Z</time>
      </trkpt>
      <trkpt lat="44.1285" lon="7.09725">
        <ele>678.85</ele>
        <time>2018-08-25T14:09:50Z</time>
      </trkpt>
      <trkpt lat="44.1283" lon="7.09705">
        <ele>675.84</ele>
        <time>2018-08-25T14:09:51Z</time>
      </trkpt>
      <trkpt lat="44.12813" lon="7.09683">
        <ele>673.54</ele>
        <time>2018-08-25T14:09:52Z</time>
      </trkpt>
      <trkpt lat="44.12796" lon="7.0966">
        <ele>672.84</ele>
        <time>2018-08-25T14:09:53Z</time>
      </trkpt>
      <trkpt lat="44.12779" lon="7.09638">
        <ele>672.64</ele>
        <time>2018-08-25T14:09:54Z</time>
      </trkpt>
      <trkpt lat="44.12766" lon="7.09611">
        <ele>671.87</ele>
        <time>2018-08-25T14:09:55Z</time>
      </trkpt>
      <trkpt lat="44.12751" lon="7.09586">
        <ele>671.65</ele>
        <time>2018-08-25T14:09:56Z</time>
      </trkpt>
      <trkpt lat="44.12735" lon="7.09561">
        <ele>671.58</ele>
        <time>2018-08-25T14:09:57Z</time>
      </trkpt>
      <trkpt lat="44.12729" lon="7.09532">
        <ele>670.86</ele>
        <time>2018-08-25T14:09:58Z</time>
      </trkpt>
      <trkpt lat="44.12718" lon="7.09505">
        <ele>670.64</ele>
        <time>2018-08-25T14:09:59Z</time>
      </trkpt>
      <trkpt lat="44.12707" lon="7.09478">
        <ele>670.58</ele>
        <time>2018-08-25T14:10:00Z</time>
      </trkpt>
      <trkpt lat="44.1269" lon="7.09463">
        <ele>669.86</ele>
        <time>2018-08-25T14:10:01Z</time>
      </trkpt>
      <trkpt lat="44.12677" lon="7.09442">
        <ele>669.64</ele>
        <time>2018-08-25T14:10:02Z</time>
      </trkpt>
      <trkpt lat="44.12663" lon="7.0942">
        <ele>669.58</ele>
        <time>2018-08-25T14:10:03Z</time>
      </trkpt>
      <trkpt lat="44.12641" lon="7.09416">
        <ele>668.86</ele>
        <time>2018-08-25T14:10:04Z</time>
      </trkpt>
      <trkpt lat="44.12623" lon="7.09402">
        <ele>668.64</ele>
        <time>2018-08-25T14:10:05Z</time>
      </trkpt>
      <trkpt lat="44.12602" lon="7.09391">
        <ele>667.18</ele>
        <time>2018-08-25T14:10:06Z</time>
      </trkpt>
      <trkpt lat="44.12583" lon="7.09379">
        <ele>666.04</ele>
        <time>2018-08-25T14:10:07Z</time>
      </trkpt>
      <trkpt lat="44.12564" lon="7.09367">
        <ele>665.69</ele>
        <time>2018-08-25T14:10:08Z</time>
      </trkpt>
      <trkpt lat="44.12541" lon="7.09353">
        <ele>664.19</ele>
        <time>2018-08-25T14:10:09Z</time>
      </trkpt>
      <trkpt lat="44.1252" lon="7.0934">
        <ele>663.04</ele>
        <time>2018-08-25T14:10:10Z</time>
      </trkpt>
      <trkpt lat="44.12501" lon="7.09324">
        <ele>662</ele>
        <time>2018-08-25T14:10:11Z</time>
      </trkpt>
      <trkpt lat="44.12481" lon="7.09301">
        <ele>660.98</ele>
        <time>2018-08-25T14:10:12Z</time>
      </trkpt>
      <trkpt lat="44.12461" lon="7.0928">
        <ele>660.68</ele>
        <time>2018-08-25T14:10:13Z</time>
      </trkpt>
      <trkpt lat="44.12442" lon="7.09258">
        <ele>657.09</ele>
        <time>2018-08-25T14:10:14Z</time>
      </trkpt>
      <trkpt lat="44.12421" lon="7.09242">
        <ele>657.41</ele>
        <time>2018-08-25T14:10:15Z</time>
      </trkpt>
      <trkpt lat="44.124" lon="7.09229">
        <ele>656.81</ele>
        <time>2018-08-25T14:10:16Z</time>
      </trkpt>
      <trkpt lat="44.12378" lon="7.09215">
        <ele>655.93</ele>
        <time>2018-08-25T14:10:17Z</time>
      </trkpt>
      <trkpt lat="44.12354" lon="7.09207">
        <ele>655.66</ele>
        <time>2018-08-25T14:10:18Z</time>
      </trkpt>
      <trkpt lat="44.12328" lon="7.09202">
        <ele>655.58</ele>
        <time>2018-08-25T14:10:19Z</time>
      </trkpt>
      <trkpt lat="44.12302" lon="7.09196">
        <ele>655.56</ele>
        <time>2018-08-25T14:10:20Z</time>
      </trkpt>
      <trkpt lat="44.12278" lon="7.0919">
        <ele>653.45</ele>
        <time>2018-08-25T14:10:21Z</time>
      </trkpt>
      <trkpt lat="44.12253" lon="7.09184">
        <ele>652.82</ele>
        <time>2018-08-25T14:10:22Z</time>
      </trkpt>
      <trkpt lat="44.12226" lon="7.09182">
        <ele>652.63</ele>
        <time>2018-08-25T14:10:23Z</time>
      </trkpt>
      <trkpt lat="44.12202" lon="7.09182">
        <ele>653.27</ele>
        <time>2018-08-25T14:10:24Z</time>
      </trkpt>
      <trkpt lat="44.12177" lon="7.09184">
        <ele>654.17</ele>
        <time>2018-08-25T14:10:25Z</time>
      </trkpt>
      <trkpt lat="44.12154" lon="7.09185">
        <ele>653.03</ele>
        <time>2018-08-25T14:10:26Z</time>
      </trkpt>
      <trkpt lat="44.12131" lon="7.09188">
        <ele>652.69</ele>
        <time>2018-08-25T14:10:27Z</time>
      </trkpt>
      <trkpt lat="44.12107" lon="7.09192">
        <ele>651.89</ele>
        <time>2018-08-25T14:10:28Z</time>
      </trkpt>
      <trkpt lat="44.12084" lon="7.09195">
        <ele>651.65</ele>
        <time>2018-08-25T14:10:29Z</time>
      </trkpt>
      <trkpt lat="44.12059" lon="7.09195">
        <ele>651.58</ele>
        <time>2018-08-25T14:10:30Z</time>
      </trkpt>
      <trkpt lat="44.12036" lon="7.09199">
        <ele>653.66</ele>
        <time>2018-08-25T14:10:31Z</time>
      </trkpt>
      <trkpt lat="44.12013" lon="7.09203">
        <ele>650.08</ele>
        <time>2018-08-25T14:10:32Z</time>
      </trkpt>
      <trkpt lat="44.11989" lon="7.09207">
        <ele>649.01</ele>
        <time>2018-08-25T14:10:33Z</time>
      </trkpt>
      <trkpt lat="44.11965" lon="7.0921">
        <ele>648.69</ele>
        <time>2018-08-25T14:10:34Z</time>
      </trkpt>
      <trkpt lat="44.11943" lon="7.09218">
        <ele>647.19</ele>
        <time>2018-08-25T14:10:35Z</time>
      </trkpt>
      <trkpt lat="44.11918" lon="7.09226">
        <ele>647.44</ele>
        <time>2018-08-25T14:10:36Z</time>
      </trkpt>
      <trkpt lat="44.11894" lon="7.09236">
        <ele>648.22</ele>
        <time>2018-08-25T14:10:37Z</time>
      </trkpt>
      <trkpt lat="44.11871" lon="7.09247">
        <ele>649.15</ele>
        <time>2018-08-25T14:10:38Z</time>
      </trkpt>
      <trkpt lat="44.11849" lon="7.09257">
        <ele>648.73</ele>
        <time>2018-08-25T14:10:39Z</time>
      </trkpt>
      <trkpt lat="44.11828" lon="7.09266">
        <ele>645.8</ele>
        <time>2018-08-25T14:10:40Z</time>
      </trkpt>
      <trkpt lat="44.11806" lon="7.09274">
        <ele>644.92</ele>
        <time>2018-08-25T14:10:41Z</time>
      </trkpt>
      <trkpt lat="44.11785" lon="7.09275">
        <ele>643.26</ele>
        <time>2018-08-25T14:10:42Z</time>
      </trkpt>
      <trkpt lat="44.11764" lon="7.09278">
        <ele>642.06</ele>
        <time>2018-08-25T14:10:43Z</time>
      </trkpt>
      <trkpt lat="44.1174" lon="7.09272">
        <ele>641.7</ele>
        <time>2018-08-25T14:10:44Z</time>
      </trkpt>
      <trkpt lat="44.11725" lon="7.09257">
        <ele>640.89</ele>
        <time>2018-08-25T14:10:45Z</time>
      </trkpt>
      <trkpt lat="44.11691" lon="7.09241">
        <ele>640.37</ele>
        <time>2018-08-25T14:10:47Z</time>
      </trkpt>
      <trkpt lat="44.11673" lon="7.09237">
        <ele>639.79</ele>
        <time>2018-08-25T14:10:48Z</time>
      </trkpt>
      <trkpt lat="44.11653" lon="7.09234">
        <ele>639.62</ele>
        <time>2018-08-25T14:10:49Z</time>
      </trkpt>
      <trkpt lat="44.11631" lon="7.09247">
        <ele>638.17</ele>
        <time>2018-08-25T14:10:50Z</time>
      </trkpt>
      <trkpt lat="44.1161" lon="7.09249">
        <ele>637.73</ele>
        <time>2018-08-25T14:10:51Z</time>
      </trkpt>
      <trkpt lat="44.11601" lon="7.09297">
        <ele>640.4</ele>
        <time>2018-08-25T14:10:52Z</time>
      </trkpt>
      <trkpt lat="44.11587" lon="7.09324">
        <ele>641.9</ele>
        <time>2018-08-25T14:10:53Z</time>
      </trkpt>
      <trkpt lat="44.11573" lon="7.09351">
        <ele>640.96</ele>
        <time>2018-08-25T14:10:54Z</time>
      </trkpt>
      <trkpt lat="44.11557" lon="7.09379">
        <ele>640.67</ele>
        <time>2018-08-25T14:10:55Z</time>
      </trkpt>
      <trkpt lat="44.11543" lon="7.0941">
        <ele>640.58</ele>
        <time>2018-08-25T14:10:56Z</time>
      </trkpt>
      <trkpt lat="44.1153" lon="7.09437">
        <ele>640.56</ele>
        <time>2018-08-25T14:10:57Z</time>
      </trkpt>
      <trkpt lat="44.11519" lon="7.0947">
        <ele>639.85</ele>
        <time>2018-08-25T14:10:58Z</time>
      </trkpt>
      <trkpt lat="44.11508" lon="7.09501">
        <ele>641.04</ele>
        <time>2018-08-25T14:10:59Z</time>
      </trkpt>
      <trkpt lat="44.11495" lon="7.09528">
        <ele>642.1</ele>
        <time>2018-08-25T14:11:00Z</time>
      </trkpt>
      <trkpt lat="44.11481" lon="7.09554">
        <ele>642.41</ele>
        <time>2018-08-25T14:11:01Z</time>
      </trkpt>
      <trkpt lat="44.11465" lon="7.09579">
        <ele>641.81</ele>
        <time>2018-08-25T14:11:02Z</time>
      </trkpt>
      <trkpt lat="44.11446" lon="7.09594">
        <ele>640.93</ele>
        <time>2018-08-25T14:11:03Z</time>
      </trkpt>
      <trkpt lat="44.11426" lon="7.09611">
        <ele>640.66</ele>
        <time>2018-08-25T14:11:04Z</time>
      </trkpt>
      <trkpt lat="44.11405" lon="7.09626">
        <ele>640.58</ele>
        <time>2018-08-25T14:11:05Z</time>
      </trkpt>
      <trkpt lat="44.11384" lon="7.09637">
        <ele>639.16</ele>
        <time>2018-08-25T14:11:06Z</time>
      </trkpt>
      <trkpt lat="44.11364" lon="7.09651">
        <ele>638.03</ele>
        <time>2018-08-25T14:11:07Z</time>
      </trkpt>
      <trkpt lat="44.11343" lon="7.09663">
        <ele>636.99</ele>
        <time>2018-08-25T14:11:08Z</time>
      </trkpt>
      <trkpt lat="44.11323" lon="7.09675">
        <ele>635.28</ele>
        <time>2018-08-25T14:11:09Z</time>
      </trkpt>
      <trkpt lat="44.11303" lon="7.09689">
        <ele>634.07</ele>
        <time>2018-08-25T14:11:10Z</time>
      </trkpt>
      <trkpt lat="44.11286" lon="7.09708">
        <ele>635.1</ele>
        <time>2018-08-25T14:11:11Z</time>
      </trkpt>
      <trkpt lat="44.11268" lon="7.09721">
        <ele>635.41</ele>
        <time>2018-08-25T14:11:12Z</time>
      </trkpt>
      <trkpt lat="44.11252" lon="7.09734">
        <ele>635.51</ele>
        <time>2018-08-25T14:11:13Z</time>
      </trkpt>
      <trkpt lat="44.11234" lon="7.09745">
        <ele>636.24</ele>
        <time>2018-08-25T14:11:14Z</time>
      </trkpt>
      <trkpt lat="44.11214" lon="7.09743">
        <ele>637.15</ele>
        <time>2018-08-25T14:11:15Z</time>
      </trkpt>
      <trkpt lat="44.11196" lon="7.09744">
        <ele>637.43</ele>
        <time>2018-08-25T14:11:16Z</time>
      </trkpt>
      <trkpt lat="44.11178" lon="7.09748">
        <ele>637.51</ele>
        <time>2018-08-25T14:11:17Z</time>
      </trkpt>
      <trkpt lat="44.11143" lon="7.09763">
        <ele>636.84</ele>
        <time>2018-08-25T14:11:19Z</time>
      </trkpt>
      <trkpt lat="44.11111" lon="7.09785">
        <ele>634.05</ele>
        <time>2018-08-25T14:11:21Z</time>
      </trkpt>
      <trkpt lat="44.11094" lon="7.09795">
        <ele>633</ele>
        <time>2018-08-25T14:11:22Z</time>
      </trkpt>
      <trkpt lat="44.1108" lon="7.09827">
        <ele>634.08</ele>
        <time>2018-08-25T14:11:23Z</time>
      </trkpt>
      <trkpt lat="44.11063" lon="7.09848">
        <ele>634.41</ele>
        <time>2018-08-25T14:11:24Z</time>
      </trkpt>
      <trkpt lat="44.11044" lon="7.09868">
        <ele>633.81</ele>
        <time>2018-08-25T14:11:25Z</time>
      </trkpt>
      <trkpt lat="44.11026" lon="7.09892">
        <ele>631.53</ele>
        <time>2018-08-25T14:11:26Z</time>
      </trkpt>
      <trkpt lat="44.1101" lon="7.09915">
        <ele>630.14</ele>
        <time>2018-08-25T14:11:27Z</time>
      </trkpt>
      <trkpt lat="44.10996" lon="7.09941">
        <ele>627.63</ele>
        <time>2018-08-25T14:11:28Z</time>
      </trkpt>
      <trkpt lat="44.10983" lon="7.0997">
        <ele>626.17</ele>
        <time>2018-08-25T14:11:29Z</time>
      </trkpt>
      <trkpt lat="44.10969" lon="7.09999">
        <ele>625.04</ele>
        <time>2018-08-25T14:11:30Z</time>
      </trkpt>
      <trkpt lat="44.10956" lon="7.10029">
        <ele>623.99</ele>
        <time>2018-08-25T14:11:31Z</time>
      </trkpt>
      <trkpt lat="44.10942" lon="7.10058">
        <ele>624.38</ele>
        <time>2018-08-25T14:11:32Z</time>
      </trkpt>
      <trkpt lat="44.10928" lon="7.10089">
        <ele>624.5</ele>
        <time>2018-08-25T14:11:33Z</time>
      </trkpt>
      <trkpt lat="44.10913" lon="7.10115">
        <ele>624.53</ele>
        <time>2018-08-25T14:11:34Z</time>
      </trkpt>
      <trkpt lat="44.10898" lon="7.1014">
        <ele>624.54</ele>
        <time>2018-08-25T14:11:35Z</time>
      </trkpt>
      <trkpt lat="44.10883" lon="7.10165">
        <ele>624.55</ele>
        <time>2018-08-25T14:11:36Z</time>
      </trkpt>
      <trkpt lat="44.10864" lon="7.10186">
        <ele>621.05</ele>
        <time>2018-08-25T14:11:37Z</time>
      </trkpt>
      <trkpt lat="44.10844" lon="7.10206">
        <ele>620.7</ele>
        <time>2018-08-25T14:11:38Z</time>
      </trkpt>
      <trkpt lat="44.10819" lon="7.10209">
        <ele>618.49</ele>
        <time>2018-08-25T14:11:39Z</time>
      </trkpt>
      <trkpt lat="44.10796" lon="7.10219">
        <ele>616.43</ele>
        <time>2018-08-25T14:11:40Z</time>
      </trkpt>
      <trkpt lat="44.10771" lon="7.10224">
        <ele>615.11</ele>
        <time>2018-08-25T14:11:41Z</time>
      </trkpt>
      <trkpt lat="44.10748" lon="7.10231">
        <ele>614.02</ele>
        <time>2018-08-25T14:11:42Z</time>
      </trkpt>
      <trkpt lat="44.10722" lon="7.10225">
        <ele>614.39</ele>
        <time>2018-08-25T14:11:43Z</time>
      </trkpt>
      <trkpt lat="44.10696" lon="7.10225">
        <ele>614.5</ele>
        <time>2018-08-25T14:11:44Z</time>
      </trkpt>
      <trkpt lat="44.10672" lon="7.10222">
        <ele>613.13</ele>
        <time>2018-08-25T14:11:45Z</time>
      </trkpt>
      <trkpt lat="44.10648" lon="7.10219">
        <ele>612.02</ele>
        <time>2018-08-25T14:11:46Z</time>
      </trkpt>
      <trkpt lat="44.10624" lon="7.10217">
        <ele>611.69</ele>
        <time>2018-08-25T14:11:47Z</time>
      </trkpt>
      <trkpt lat="44.10603" lon="7.10203">
        <ele>610.89</ele>
        <time>2018-08-25T14:11:48Z</time>
      </trkpt>
      <trkpt lat="44.10585" lon="7.10198">
        <ele>609.25</ele>
        <time>2018-08-25T14:11:49Z</time>
      </trkpt>
      <trkpt lat="44.10561" lon="7.10199">
        <ele>610.16</ele>
        <time>2018-08-25T14:11:50Z</time>
      </trkpt>
      <trkpt lat="44.10539" lon="7.10202">
        <ele>610.43</ele>
        <time>2018-08-25T14:11:51Z</time>
      </trkpt>
      <trkpt lat="44.10517" lon="7.10207">
        <ele>609.11</ele>
        <time>2018-08-25T14:11:52Z</time>
      </trkpt>
      <trkpt lat="44.10495" lon="7.10212">
        <ele>607.32</ele>
        <time>2018-08-25T14:11:53Z</time>
      </trkpt>
      <trkpt lat="44.10472" lon="7.10218">
        <ele>606.08</ele>
        <time>2018-08-25T14:11:54Z</time>
      </trkpt>
      <trkpt lat="44.1045" lon="7.10224">
        <ele>607.11</ele>
        <time>2018-08-25T14:11:55Z</time>
      </trkpt>
      <trkpt lat="44.10426" lon="7.10236">
        <ele>607.42</ele>
        <time>2018-08-25T14:11:56Z</time>
      </trkpt>
      <trkpt lat="44.10401" lon="7.10245">
        <ele>608.21</ele>
        <time>2018-08-25T14:11:57Z</time>
      </trkpt>
      <trkpt lat="44.10378" lon="7.10257">
        <ele>608.45</ele>
        <time>2018-08-25T14:11:58Z</time>
      </trkpt>
      <trkpt lat="44.10353" lon="7.10265">
        <ele>609.22</ele>
        <time>2018-08-25T14:11:59Z</time>
      </trkpt>
      <trkpt lat="44.10329" lon="7.10272">
        <ele>609.45</ele>
        <time>2018-08-25T14:12:00Z</time>
      </trkpt>
      <trkpt lat="44.10305" lon="7.10279">
        <ele>609.52</ele>
        <time>2018-08-25T14:12:01Z</time>
      </trkpt>
      <trkpt lat="44.10281" lon="7.10284">
        <ele>608.14</ele>
        <time>2018-08-25T14:12:02Z</time>
      </trkpt>
      <trkpt lat="44.10256" lon="7.10291">
        <ele>608.43</ele>
        <time>2018-08-25T14:12:03Z</time>
      </trkpt>
      <trkpt lat="44.10232" lon="7.10297">
        <ele>609.21</ele>
        <time>2018-08-25T14:12:04Z</time>
      </trkpt>
      <trkpt lat="44.10207" lon="7.10302">
        <ele>610.15</ele>
        <time>2018-08-25T14:12:05Z</time>
      </trkpt>
      <trkpt lat="44.10183" lon="7.10309">
        <ele>611.13</ele>
        <time>2018-08-25T14:12:06Z</time>
      </trkpt>
      <trkpt lat="44.10159" lon="7.10314">
        <ele>610.72</ele>
        <time>2018-08-25T14:12:07Z</time>
      </trkpt>
      <trkpt lat="44.10134" lon="7.10319">
        <ele>610.6</ele>
        <time>2018-08-25T14:12:08Z</time>
      </trkpt>
      <trkpt lat="44.1011" lon="7.10325">
        <ele>610.56</ele>
        <time>2018-08-25T14:12:09Z</time>
      </trkpt>
      <trkpt lat="44.10086" lon="7.1033">
        <ele>610.55</ele>
        <time>2018-08-25T14:12:10Z</time>
      </trkpt>
      <trkpt lat="44.10061" lon="7.10335">
        <ele>610.55</ele>
        <time>2018-08-25T14:12:11Z</time>
      </trkpt>
      <trkpt lat="44.10037" lon="7.1034">
        <ele>610.55</ele>
        <time>2018-08-25T14:12:12Z</time>
      </trkpt>
      <trkpt lat="44.10009" lon="7.10342">
        <ele>609.15</ele>
        <time>2018-08-25T14:12:13Z</time>
      </trkpt>
      <trkpt lat="44.09984" lon="7.10347">
        <ele>608.03</ele>
        <time>2018-08-25T14:12:14Z</time>
      </trkpt>
      <trkpt lat="44.09961" lon="7.10354">
        <ele>604.89</ele>
        <time>2018-08-25T14:12:15Z</time>
      </trkpt>
      <trkpt lat="44.09935" lon="7.10357">
        <ele>603.25</ele>
        <time>2018-08-25T14:12:16Z</time>
      </trkpt>
      <trkpt lat="44.0991" lon="7.1036">
        <ele>602.06</ele>
        <time>2018-08-25T14:12:17Z</time>
      </trkpt>
      <trkpt lat="44.09887" lon="7.10362">
        <ele>599.6</ele>
        <time>2018-08-25T14:12:18Z</time>
      </trkpt>
      <trkpt lat="44.09863" lon="7.10364">
        <ele>597.46</ele>
        <time>2018-08-25T14:12:19Z</time>
      </trkpt>
      <trkpt lat="44.09841" lon="7.10365">
        <ele>598.22</ele>
        <time>2018-08-25T14:12:20Z</time>
      </trkpt>
      <trkpt lat="44.09818" lon="7.10367">
        <ele>598.45</ele>
        <time>2018-08-25T14:12:21Z</time>
      </trkpt>
      <trkpt lat="44.09804" lon="7.10396">
        <ele>597.12</ele>
        <time>2018-08-25T14:12:22Z</time>
      </trkpt>
      <trkpt lat="44.09785" lon="7.10416">
        <ele>594.62</ele>
        <time>2018-08-25T14:12:23Z</time>
      </trkpt>
      <trkpt lat="44.09766" lon="7.10436">
        <ele>593.87</ele>
        <time>2018-08-25T14:12:24Z</time>
      </trkpt>
      <trkpt lat="44.09747" lon="7.10455">
        <ele>591.54</ele>
        <time>2018-08-25T14:12:25Z</time>
      </trkpt>
      <trkpt lat="44.09726" lon="7.10472">
        <ele>591.55</ele>
        <time>2018-08-25T14:12:26Z</time>
      </trkpt>
      <trkpt lat="44.09703" lon="7.10479">
        <ele>588.75</ele>
        <time>2018-08-25T14:12:27Z</time>
      </trkpt>
      <trkpt lat="44.09681" lon="7.1049">
        <ele>587.91</ele>
        <time>2018-08-25T14:12:28Z</time>
      </trkpt>
      <trkpt lat="44.09664" lon="7.10501">
        <ele>586.96</ele>
        <time>2018-08-25T14:12:29Z</time>
      </trkpt>
      <trkpt lat="44.09649" lon="7.10514">
        <ele>585.97</ele>
        <time>2018-08-25T14:12:30Z</time>
      </trkpt>
      <trkpt lat="44.09633" lon="7.10528">
        <ele>584.97</ele>
        <time>2018-08-25T14:12:31Z</time>
      </trkpt>
      <trkpt lat="44.09616" lon="7.10548">
        <ele>587.48</ele>
        <time>2018-08-25T14:12:32Z</time>
      </trkpt>
      <trkpt lat="44.09601" lon="7.10566">
        <ele>588.23</ele>
        <time>2018-08-25T14:12:33Z</time>
      </trkpt>
      <trkpt lat="44.09591" lon="7.10588">
        <ele>589.85</ele>
        <time>2018-08-25T14:12:34Z</time>
      </trkpt>
      <trkpt lat="44.09574" lon="7.10605">
        <ele>590.34</ele>
        <time>2018-08-25T14:12:35Z</time>
      </trkpt>
      <trkpt lat="44.09557" lon="7.10619">
        <ele>591.19</ele>
        <time>2018-08-25T14:12:36Z</time>
      </trkpt>
      <trkpt lat="44.09541" lon="7.10634">
        <ele>591.44</ele>
        <time>2018-08-25T14:12:37Z</time>
      </trkpt>
      <trkpt lat="44.09512" lon="7.10629">
        <ele>589.42</ele>
        <time>2018-08-25T14:12:38Z</time>
      </trkpt>
      <trkpt lat="44.09491" lon="7.10636">
        <ele>588.81</ele>
        <time>2018-08-25T14:12:39Z</time>
      </trkpt>
      <trkpt lat="44.09466" lon="7.10629">
        <ele>587.93</ele>
        <time>2018-08-25T14:12:40Z</time>
      </trkpt>
      <trkpt lat="44.09443" lon="7.1063">
        <ele>586.96</ele>
        <time>2018-08-25T14:12:41Z</time>
      </trkpt>
      <trkpt lat="44.0942" lon="7.10633">
        <ele>584.57</ele>
        <time>2018-08-25T14:12:42Z</time>
      </trkpt>
      <trkpt lat="44.09396" lon="7.1064">
        <ele>583.16</ele>
        <time>2018-08-25T14:12:43Z</time>
      </trkpt>
      <trkpt lat="44.0937" lon="7.10644">
        <ele>582.73</ele>
        <time>2018-08-25T14:12:44Z</time>
      </trkpt>
      <trkpt lat="44.09346" lon="7.1065">
        <ele>582.6</ele>
        <time>2018-08-25T14:12:45Z</time>
      </trkpt>
      <trkpt lat="44.09321" lon="7.10656">
        <ele>580.46</ele>
        <time>2018-08-25T14:12:46Z</time>
      </trkpt>
      <trkpt lat="44.09297" lon="7.10667">
        <ele>579.12</ele>
        <time>2018-08-25T14:12:47Z</time>
      </trkpt>
      <trkpt lat="44.09274" lon="7.10679">
        <ele>575.92</ele>
        <time>2018-08-25T14:12:48Z</time>
      </trkpt>
      <trkpt lat="44.09251" lon="7.1069">
        <ele>572.86</ele>
        <time>2018-08-25T14:12:49Z</time>
      </trkpt>
      <trkpt lat="44.09227" lon="7.10703">
        <ele>571.24</ele>
        <time>2018-08-25T14:12:50Z</time>
      </trkpt>
      <trkpt lat="44.09203" lon="7.10715">
        <ele>569.36</ele>
        <time>2018-08-25T14:12:51Z</time>
      </trkpt>
      <trkpt lat="44.09179" lon="7.10727">
        <ele>567.39</ele>
        <time>2018-08-25T14:12:52Z</time>
      </trkpt>
      <trkpt lat="44.09155" lon="7.1074">
        <ele>564</ele>
        <time>2018-08-25T14:12:53Z</time>
      </trkpt>
      <trkpt lat="44.09132" lon="7.10752">
        <ele>561.58</ele>
        <time>2018-08-25T14:12:54Z</time>
      </trkpt>
      <trkpt lat="44.0911" lon="7.10763">
        <ele>559.46</ele>
        <time>2018-08-25T14:12:55Z</time>
      </trkpt>
      <trkpt lat="44.09076" lon="7.10771">
        <ele>556.32</ele>
        <time>2018-08-25T14:12:57Z</time>
      </trkpt>
      <trkpt lat="44.09041" lon="7.10762">
        <ele>554.01</ele>
        <time>2018-08-25T14:12:59Z</time>
      </trkpt>
      <trkpt lat="44.0901" lon="7.10738">
        <ele>551.07</ele>
        <time>2018-08-25T14:13:01Z</time>
      </trkpt>
      <trkpt lat="44.08979" lon="7.1072">
        <ele>549.47</ele>
        <time>2018-08-25T14:13:03Z</time>
      </trkpt>
      <trkpt lat="44.08941" lon="7.10706">
        <ele>549.54</ele>
        <time>2018-08-25T14:13:05Z</time>
      </trkpt>
      <trkpt lat="44.08864" lon="7.10751">
        <ele>543.95</ele>
        <time>2018-08-25T14:13:09Z</time>
      </trkpt>
      <trkpt lat="44.08842" lon="7.10746">
        <ele>540.87</ele>
        <time>2018-08-25T14:13:10Z</time>
      </trkpt>
      <trkpt lat="44.08821" lon="7.10741">
        <ele>539.94</ele>
        <time>2018-08-25T14:13:11Z</time>
      </trkpt>
      <trkpt lat="44.08801" lon="7.10735">
        <ele>538.97</ele>
        <time>2018-08-25T14:13:12Z</time>
      </trkpt>
      <trkpt lat="44.08783" lon="7.10729">
        <ele>536.57</ele>
        <time>2018-08-25T14:13:13Z</time>
      </trkpt>
      <trkpt lat="44.08753" lon="7.10703">
        <ele>534.03</ele>
        <time>2018-08-25T14:13:15Z</time>
      </trkpt>
      <trkpt lat="44.0874" lon="7.10685">
        <ele>532.99</ele>
        <time>2018-08-25T14:13:16Z</time>
      </trkpt>
      <trkpt lat="44.08728" lon="7.10665">
        <ele>530.58</ele>
        <time>2018-08-25T14:13:17Z</time>
      </trkpt>
      <trkpt lat="44.08715" lon="7.10646">
        <ele>530.56</ele>
        <time>2018-08-25T14:13:18Z</time>
      </trkpt>
      <trkpt lat="44.08698" lon="7.10611">
        <ele>530.55</ele>
        <time>2018-08-25T14:13:20Z</time>
      </trkpt>
      <trkpt lat="44.08671" lon="7.10597">
        <ele>529.64</ele>
        <time>2018-08-25T14:13:22Z</time>
      </trkpt>
      <trkpt lat="44.08641" lon="7.10599">
        <ele>529.56</ele>
        <time>2018-08-25T14:13:24Z</time>
      </trkpt>
      <trkpt lat="44.0861" lon="7.10601">
        <ele>530.46</ele>
        <time>2018-08-25T14:13:26Z</time>
      </trkpt>
      <trkpt lat="44.08579" lon="7.10606">
        <ele>529.84</ele>
        <time>2018-08-25T14:13:28Z</time>
      </trkpt>
      <trkpt lat="44.08561" lon="7.10615">
        <ele>528.24</ele>
        <time>2018-08-25T14:13:29Z</time>
      </trkpt>
      <trkpt lat="44.08542" lon="7.10619">
        <ele>527.05</ele>
        <time>2018-08-25T14:13:30Z</time>
      </trkpt>
      <trkpt lat="44.08522" lon="7.10622">
        <ele>526.7</ele>
        <time>2018-08-25T14:13:31Z</time>
      </trkpt>
      <trkpt lat="44.08489" lon="7.10621">
        <ele>524.74</ele>
        <time>2018-08-25T14:13:33Z</time>
      </trkpt>
      <trkpt lat="44.0846" lon="7.10617">
        <ele>519.53</ele>
        <time>2018-08-25T14:13:35Z</time>
      </trkpt>
      <trkpt lat="44.08443" lon="7.10598">
        <ele>517.03</ele>
        <time>2018-08-25T14:13:37Z</time>
      </trkpt>
      <trkpt lat="44.08433" lon="7.10574">
        <ele>513.58</ele>
        <time>2018-08-25T14:13:39Z</time>
      </trkpt>
      <trkpt lat="44.08422" lon="7.10546">
        <ele>508.05</ele>
        <time>2018-08-25T14:13:42Z</time>
      </trkpt>
      <trkpt lat="44.0841" lon="7.10516">
        <ele>504.77</ele>
        <time>2018-08-25T14:13:45Z</time>
      </trkpt>
      <trkpt lat="44.08399" lon="7.10492">
        <ele>502.65</ele>
        <time>2018-08-25T14:13:49Z</time>
      </trkpt>
      <trkpt lat="44.08415" lon="7.10517">
        <ele>496.12</ele>
        <time>2018-08-25T14:14:13Z</time>
      </trkpt>
      <trkpt lat="44.08425" lon="7.10549">
        <ele>497.32</ele>
        <time>2018-08-25T14:14:16Z</time>
      </trkpt>
      <trkpt lat="44.08433" lon="7.10572">
        <ele>497.32</ele>
        <time>2018-08-25T14:14:18Z</time>
      </trkpt>
      <trkpt lat="44.08438" lon="7.10599">
        <ele>496.13</ele>
        <time>2018-08-25T14:14:20Z</time>
      </trkpt>
      <trkpt lat="44.08453" lon="7.10621">
        <ele>495.81</ele>
        <time>2018-08-25T14:14:22Z</time>
      </trkpt>
      <trkpt lat="44.08467" lon="7.1064">
        <ele>495.57</ele>
        <time>2018-08-25T14:14:24Z</time>
      </trkpt>
      <trkpt lat="44.0849" lon="7.10643">
        <ele>496.46</ele>
        <time>2018-08-25T14:14:26Z</time>
      </trkpt>
      <trkpt lat="44.08515" lon="7.10638">
        <ele>499.76</ele>
        <time>2018-08-25T14:14:28Z</time>
      </trkpt>
      <trkpt lat="44.08538" lon="7.10634">
        <ele>502.09</ele>
        <time>2018-08-25T14:14:30Z</time>
      </trkpt>
      <trkpt lat="44.08567" lon="7.10628">
        <ele>503.42</ele>
        <time>2018-08-25T14:14:32Z</time>
      </trkpt>
      <trkpt lat="44.08595" lon="7.1062">
        <ele>505.15</ele>
        <time>2018-08-25T14:14:34Z</time>
      </trkpt>
      <trkpt lat="44.08617" lon="7.10611">
        <ele>506.91</ele>
        <time>2018-08-25T14:14:36Z</time>
      </trkpt>
      <trkpt lat="44.08637" lon="7.10602">
        <ele>508.19</ele>
        <time>2018-08-25T14:14:38Z</time>
      </trkpt>
      <trkpt lat="44.0866" lon="7.10599">
        <ele>512.44</ele>
        <time>2018-08-25T14:14:40Z</time>
      </trkpt>
      <trkpt lat="44.08686" lon="7.10601">
        <ele>513.45</ele>
        <time>2018-08-25T14:14:42Z</time>
      </trkpt>
      <trkpt lat="44.08707" lon="7.106">
        <ele>513.54</ele>
        <time>2018-08-25T14:14:44Z</time>
      </trkpt>
      <trkpt lat="44.08727" lon="7.10624">
        <ele>514.46</ele>
        <time>2018-08-25T14:14:46Z</time>
      </trkpt>
      <trkpt lat="44.08737" lon="7.10654">
        <ele>512.72</ele>
        <time>2018-08-25T14:14:48Z</time>
      </trkpt>
      <trkpt lat="44.08754" lon="7.10679">
        <ele>514.38</ele>
        <time>2018-08-25T14:14:50Z</time>
      </trkpt>
      <trkpt lat="44.0878" lon="7.10693">
        <ele>514.53</ele>
        <time>2018-08-25T14:14:52Z</time>
      </trkpt>
      <trkpt lat="44.08805" lon="7.10708">
        <ele>513.85</ele>
        <time>2018-08-25T14:14:54Z</time>
      </trkpt>
      <trkpt lat="44.0883" lon="7.10717">
        <ele>511.96</ele>
        <time>2018-08-25T14:14:56Z</time>
      </trkpt>
      <trkpt lat="44.08853" lon="7.10722">
        <ele>509.07</ele>
        <time>2018-08-25T14:14:58Z</time>
      </trkpt>
      <trkpt lat="44.08871" lon="7.1071">
        <ele>508.8</ele>
        <time>2018-08-25T14:15:00Z</time>
      </trkpt>
      <trkpt lat="44.08893" lon="7.1069">
        <ele>509.4</ele>
        <time>2018-08-25T14:15:03Z</time>
      </trkpt>
      <trkpt lat="44.08887" lon="7.10663">
        <ele>509.5</ele>
        <time>2018-08-25T14:15:04Z</time>
      </trkpt>
      <trkpt lat="44.0887" lon="7.10633">
        <ele>510.67</ele>
        <time>2018-08-25T14:15:07Z</time>
      </trkpt>
      <trkpt lat="44.08853" lon="7.10618">
        <ele>510.98</ele>
        <time>2018-08-25T14:15:09Z</time>
      </trkpt>
      <trkpt lat="44.08839" lon="7.10592">
        <ele>508.98</ele>
        <time>2018-08-25T14:15:11Z</time>
      </trkpt>
      <trkpt lat="44.08825" lon="7.10562">
        <ele>510.41</ele>
        <time>2018-08-25T14:15:13Z</time>
      </trkpt>
      <trkpt lat="44.08809" lon="7.1053">
        <ele>513.27</ele>
        <time>2018-08-25T14:15:15Z</time>
      </trkpt>
      <trkpt lat="44.08794" lon="7.10501">
        <ele>516.74</ele>
        <time>2018-08-25T14:15:17Z</time>
      </trkpt>
      <trkpt lat="44.08788" lon="7.1047">
        <ele>518.67</ele>
        <time>2018-08-25T14:15:19Z</time>
      </trkpt>
      <trkpt lat="44.08783" lon="7.10439">
        <ele>521.78</ele>
        <time>2018-08-25T14:15:21Z</time>
      </trkpt>
      <trkpt lat="44.08761" lon="7.10412">
        <ele>522.69</ele>
        <time>2018-08-25T14:15:23Z</time>
      </trkpt>
      <trkpt lat="44.08729" lon="7.10398">
        <ele>524.17</ele>
        <time>2018-08-25T14:15:25Z</time>
      </trkpt>
      <trkpt lat="44.08704" lon="7.10375">
        <ele>526.12</ele>
        <time>2018-08-25T14:15:27Z</time>
      </trkpt>
      <trkpt lat="44.08682" lon="7.1036">
        <ele>526.93</ele>
        <time>2018-08-25T14:15:29Z</time>
      </trkpt>
      <trkpt lat="44.08663" lon="7.10357">
        <ele>524.06</ele>
        <time>2018-08-25T14:15:31Z</time>
      </trkpt>
      <trkpt lat="44.08649" lon="7.10375">
        <ele>525.1</ele>
        <time>2018-08-25T14:15:32Z</time>
      </trkpt>
      <trkpt lat="44.08623" lon="7.10379">
        <ele>527.61</ele>
        <time>2018-08-25T14:15:34Z</time>
      </trkpt>
      <trkpt lat="44.08602" lon="7.10366">
        <ele>528.74</ele>
        <time>2018-08-25T14:15:36Z</time>
      </trkpt>
      <trkpt lat="44.08582" lon="7.10345">
        <ele>529.48</ele>
        <time>2018-08-25T14:15:38Z</time>
      </trkpt>
      <trkpt lat="44.08566" lon="7.10322">
        <ele>532.06</ele>
        <time>2018-08-25T14:15:40Z</time>
      </trkpt>
      <trkpt lat="44.08561" lon="7.10295">
        <ele>532.5</ele>
        <time>2018-08-25T14:15:42Z</time>
      </trkpt>
      <trkpt lat="44.08565" lon="7.1027">
        <ele>533.45</ele>
        <time>2018-08-25T14:15:44Z</time>
      </trkpt>
      <trkpt lat="44.08562" lon="7.10242">
        <ele>535.15</ele>
        <time>2018-08-25T14:15:46Z</time>
      </trkpt>
      <trkpt lat="44.08554" lon="7.10213">
        <ele>536.42</ele>
        <time>2018-08-25T14:15:48Z</time>
      </trkpt>
      <trkpt lat="44.08543" lon="7.10185">
        <ele>539.76</ele>
        <time>2018-08-25T14:15:50Z</time>
      </trkpt>
      <trkpt lat="44.08539" lon="7.10158">
        <ele>543.49</ele>
        <time>2018-08-25T14:15:52Z</time>
      </trkpt>
      <trkpt lat="44.08527" lon="7.1013">
        <ele>545.36</ele>
        <time>2018-08-25T14:15:54Z</time>
      </trkpt>
      <trkpt lat="44.08513" lon="7.10107">
        <ele>547.56</ele>
        <time>2018-08-25T14:15:56Z</time>
      </trkpt>
      <trkpt lat="44.08495" lon="7.10119">
        <ele>550.35</ele>
        <time>2018-08-25T14:15:57Z</time>
      </trkpt>
      <trkpt lat="44.08475" lon="7.10122">
        <ele>552.84</ele>
        <time>2018-08-25T14:15:59Z</time>
      </trkpt>
      <trkpt lat="44.08512" lon="7.10109">
        <ele>554.96</ele>
        <time>2018-08-25T14:16:06Z</time>
      </trkpt>
      <trkpt lat="44.08537" lon="7.10112">
        <ele>554.59</ele>
        <time>2018-08-25T14:16:08Z</time>
      </trkpt>
      <trkpt lat="44.08557" lon="7.10135">
        <ele>556.65</ele>
        <time>2018-08-25T14:16:10Z</time>
      </trkpt>
      <trkpt lat="44.08575" lon="7.10169">
        <ele>557.47</ele>
        <time>2018-08-25T14:16:12Z</time>
      </trkpt>
      <trkpt lat="44.08588" lon="7.10206">
        <ele>559.43</ele>
        <time>2018-08-25T14:16:14Z</time>
      </trkpt>
      <trkpt lat="44.086" lon="7.10241">
        <ele>563.88</ele>
        <time>2018-08-25T14:16:16Z</time>
      </trkpt>
      <trkpt lat="44.0861" lon="7.10271">
        <ele>567.01</ele>
        <time>2018-08-25T14:16:18Z</time>
      </trkpt>
      <trkpt lat="44.08621" lon="7.10299">
        <ele>568.41</ele>
        <time>2018-08-25T14:16:20Z</time>
      </trkpt>
      <trkpt lat="44.08637" lon="7.10321">
        <ele>572.88</ele>
        <time>2018-08-25T14:16:22Z</time>
      </trkpt>
      <trkpt lat="44.08669" lon="7.10311">
        <ele>572.83</ele>
        <time>2018-08-25T14:16:25Z</time>
      </trkpt>
      <trkpt lat="44.08689" lon="7.10296">
        <ele>573.48</ele>
        <time>2018-08-25T14:16:27Z</time>
      </trkpt>
      <trkpt lat="44.08714" lon="7.10282">
        <ele>576.06</ele>
        <time>2018-08-25T14:16:29Z</time>
      </trkpt>
      <trkpt lat="44.08743" lon="7.10276">
        <ele>577.9</ele>
        <time>2018-08-25T14:16:31Z</time>
      </trkpt>
      <trkpt lat="44.08767" lon="7.10277">
        <ele>582.83</ele>
        <time>2018-08-25T14:16:33Z</time>
      </trkpt>
      <trkpt lat="44.0879" lon="7.10288">
        <ele>584.18</ele>
        <time>2018-08-25T14:16:35Z</time>
      </trkpt>
      <trkpt lat="44.08812" lon="7.10298">
        <ele>585.92</ele>
        <time>2018-08-25T14:16:37Z</time>
      </trkpt>
      <trkpt lat="44.08835" lon="7.10301">
        <ele>585.79</ele>
        <time>2018-08-25T14:16:39Z</time>
      </trkpt>
      <trkpt lat="44.0885" lon="7.10316">
        <ele>586.27</ele>
        <time>2018-08-25T14:16:41Z</time>
      </trkpt>
      <trkpt lat="44.08871" lon="7.10328">
        <ele>587.51</ele>
        <time>2018-08-25T14:16:44Z</time>
      </trkpt>
      <trkpt lat="44.08848" lon="7.10286">
        <ele>590.24</ele>
        <time>2018-08-25T14:16:49Z</time>
      </trkpt>
      <trkpt lat="44.08828" lon="7.10283">
        <ele>593.96</ele>
        <time>2018-08-25T14:16:50Z</time>
      </trkpt>
      <trkpt lat="44.08808" lon="7.10265">
        <ele>596.8</ele>
        <time>2018-08-25T14:16:52Z</time>
      </trkpt>
      <trkpt lat="44.08787" lon="7.10236">
        <ele>601.61</ele>
        <time>2018-08-25T14:16:54Z</time>
      </trkpt>
      <trkpt lat="44.08764" lon="7.10223">
        <ele>604.77</ele>
        <time>2018-08-25T14:16:56Z</time>
      </trkpt>
      <trkpt lat="44.08738" lon="7.10228">
        <ele>608.21</ele>
        <time>2018-08-25T14:16:58Z</time>
      </trkpt>
      <trkpt lat="44.08711" lon="7.10235">
        <ele>611.95</ele>
        <time>2018-08-25T14:17:00Z</time>
      </trkpt>
      <trkpt lat="44.08685" lon="7.10234">
        <ele>614.31</ele>
        <time>2018-08-25T14:17:02Z</time>
      </trkpt>
      <trkpt lat="44.08661" lon="7.10219">
        <ele>615.23</ele>
        <time>2018-08-25T14:17:04Z</time>
      </trkpt>
      <trkpt lat="44.08646" lon="7.10197">
        <ele>616.22</ele>
        <time>2018-08-25T14:17:06Z</time>
      </trkpt>
      <trkpt lat="44.08638" lon="7.10168">
        <ele>619.04</ele>
        <time>2018-08-25T14:17:08Z</time>
      </trkpt>
      <trkpt lat="44.08632" lon="7.10132">
        <ele>621.11</ele>
        <time>2018-08-25T14:17:10Z</time>
      </trkpt>
      <trkpt lat="44.08627" lon="7.101">
        <ele>622.42</ele>
        <time>2018-08-25T14:17:12Z</time>
      </trkpt>
      <trkpt lat="44.08618" lon="7.10067">
        <ele>624.15</ele>
        <time>2018-08-25T14:17:14Z</time>
      </trkpt>
      <trkpt lat="44.086" lon="7.10042">
        <ele>626.33</ele>
        <time>2018-08-25T14:17:16Z</time>
      </trkpt>
      <trkpt lat="44.08583" lon="7.10009">
        <ele>624.5</ele>
        <time>2018-08-25T14:17:18Z</time>
      </trkpt>
      <trkpt lat="44.0856" lon="7.09984">
        <ele>623.42</ele>
        <time>2018-08-25T14:17:20Z</time>
      </trkpt>
      <trkpt lat="44.08537" lon="7.09968">
        <ele>624.45</ele>
        <time>2018-08-25T14:17:22Z</time>
      </trkpt>
      <trkpt lat="44.08517" lon="7.09946">
        <ele>625.03</ele>
        <time>2018-08-25T14:17:24Z</time>
      </trkpt>
      <trkpt lat="44.08496" lon="7.09919">
        <ele>624.59</ele>
        <time>2018-08-25T14:17:26Z</time>
      </trkpt>
      <trkpt lat="44.08467" lon="7.099">
        <ele>626.86</ele>
        <time>2018-08-25T14:17:28Z</time>
      </trkpt>
      <trkpt lat="44.08443" lon="7.09879">
        <ele>628.89</ele>
        <time>2018-08-25T14:17:30Z</time>
      </trkpt>
      <trkpt lat="44.08416" lon="7.09865">
        <ele>630.89</ele>
        <time>2018-08-25T14:17:32Z</time>
      </trkpt>
      <trkpt lat="44.08389" lon="7.09861">
        <ele>634.22</ele>
        <time>2018-08-25T14:17:34Z</time>
      </trkpt>
      <trkpt lat="44.0837" lon="7.0986">
        <ele>637.53</ele>
        <time>2018-08-25T14:17:36Z</time>
      </trkpt>
      <trkpt lat="44.08365" lon="7.09827">
        <ele>641.8</ele>
        <time>2018-08-25T14:17:39Z</time>
      </trkpt>
      <trkpt lat="44.08371" lon="7.09801">
        <ele>642.48</ele>
        <time>2018-08-25T14:17:41Z</time>
      </trkpt>
      <trkpt lat="44.08393" lon="7.09788">
        <ele>641.63</ele>
        <time>2018-08-25T14:17:43Z</time>
      </trkpt>
      <trkpt lat="44.08415" lon="7.09773">
        <ele>642.47</ele>
        <time>2018-08-25T14:17:45Z</time>
      </trkpt>
      <trkpt lat="44.08431" lon="7.09741">
        <ele>644.43</ele>
        <time>2018-08-25T14:17:47Z</time>
      </trkpt>
      <trkpt lat="44.08448" lon="7.09706">
        <ele>648.67</ele>
        <time>2018-08-25T14:17:49Z</time>
      </trkpt>
      <trkpt lat="44.08463" lon="7.09671">
        <ele>652.9</ele>
        <time>2018-08-25T14:17:51Z</time>
      </trkpt>
      <trkpt lat="44.08481" lon="7.09644">
        <ele>654.4</ele>
        <time>2018-08-25T14:17:53Z</time>
      </trkpt>
      <trkpt lat="44.08507" lon="7.09628">
        <ele>655.44</ele>
        <time>2018-08-25T14:17:55Z</time>
      </trkpt>
      <trkpt lat="44.08533" lon="7.09604">
        <ele>655.54</ele>
        <time>2018-08-25T14:17:57Z</time>
      </trkpt>
      <trkpt lat="44.08552" lon="7.09584">
        <ele>655.55</ele>
        <time>2018-08-25T14:17:58Z</time>
      </trkpt>
      <trkpt lat="44.08568" lon="7.09563">
        <ele>655.55</ele>
        <time>2018-08-25T14:17:59Z</time>
      </trkpt>
      <trkpt lat="44.08583" lon="7.09541">
        <ele>656.95</ele>
        <time>2018-08-25T14:18:00Z</time>
      </trkpt>
      <trkpt lat="44.08599" lon="7.09518">
        <ele>658.77</ele>
        <time>2018-08-25T14:18:01Z</time>
      </trkpt>
      <trkpt lat="44.08613" lon="7.09494">
        <ele>660.71</ele>
        <time>2018-08-25T14:18:02Z</time>
      </trkpt>
      <trkpt lat="44.08625" lon="7.09469">
        <ele>662</ele>
        <time>2018-08-25T14:18:03Z</time>
      </trkpt>
      <trkpt lat="44.08635" lon="7.09443">
        <ele>663.08</ele>
        <time>2018-08-25T14:18:04Z</time>
      </trkpt>
      <trkpt lat="44.08643" lon="7.09419">
        <ele>664.11</ele>
        <time>2018-08-25T14:18:05Z</time>
      </trkpt>
      <trkpt lat="44.08659" lon="7.09381">
        <ele>665.91</ele>
        <time>2018-08-25T14:18:07Z</time>
      </trkpt>
      <trkpt lat="44.08666" lon="7.09346">
        <ele>669.5</ele>
        <time>2018-08-25T14:18:09Z</time>
      </trkpt>
      <trkpt lat="44.08656" lon="7.09312">
        <ele>673.88</ele>
        <time>2018-08-25T14:18:11Z</time>
      </trkpt>
      <trkpt lat="44.08646" lon="7.09285">
        <ele>674.49</ele>
        <time>2018-08-25T14:18:13Z</time>
      </trkpt>
      <trkpt lat="44.08642" lon="7.09257">
        <ele>674.54</ele>
        <time>2018-08-25T14:18:15Z</time>
      </trkpt>
      <trkpt lat="44.08651" lon="7.09218">
        <ele>678.96</ele>
        <time>2018-08-25T14:18:17Z</time>
      </trkpt>
      <trkpt lat="44.08659" lon="7.09184">
        <ele>682.92</ele>
        <time>2018-08-25T14:18:19Z</time>
      </trkpt>
      <trkpt lat="44.08658" lon="7.09147">
        <ele>687.62</ele>
        <time>2018-08-25T14:18:21Z</time>
      </trkpt>
      <trkpt lat="44.08653" lon="7.09112">
        <ele>692.8</ele>
        <time>2018-08-25T14:18:23Z</time>
      </trkpt>
      <trkpt lat="44.08646" lon="7.09079">
        <ele>695.58</ele>
        <time>2018-08-25T14:18:25Z</time>
      </trkpt>
      <trkpt lat="44.08638" lon="7.09055">
        <ele>697.86</ele>
        <time>2018-08-25T14:18:27Z</time>
      </trkpt>
      <trkpt lat="44.08628" lon="7.09031">
        <ele>702.41</ele>
        <time>2018-08-25T14:18:29Z</time>
      </trkpt>
      <trkpt lat="44.08556" lon="7.08957">
        <ele>704.85</ele>
        <time>2018-08-25T14:18:37Z</time>
      </trkpt>
      <trkpt lat="44.08535" lon="7.08939">
        <ele>706.39</ele>
        <time>2018-08-25T14:18:39Z</time>
      </trkpt>
      <trkpt lat="44.08524" lon="7.08917">
        <ele>709.96</ele>
        <time>2018-08-25T14:18:41Z</time>
      </trkpt>
      <trkpt lat="44.08525" lon="7.0889">
        <ele>716.45</ele>
        <time>2018-08-25T14:18:43Z</time>
      </trkpt>
      <trkpt lat="44.08532" lon="7.08853">
        <ele>719.76</ele>
        <time>2018-08-25T14:18:45Z</time>
      </trkpt>
      <trkpt lat="44.08536" lon="7.08806">
        <ele>724.4</ele>
        <time>2018-08-25T14:18:47Z</time>
      </trkpt>
      <trkpt lat="44.08542" lon="7.08759">
        <ele>727.26</ele>
        <time>2018-08-25T14:18:49Z</time>
      </trkpt>
      <trkpt lat="44.0854" lon="7.08714">
        <ele>729.13</ele>
        <time>2018-08-25T14:18:51Z</time>
      </trkpt>
      <trkpt lat="44.08528" lon="7.08669">
        <ele>732.03</ele>
        <time>2018-08-25T14:18:53Z</time>
      </trkpt>
      <trkpt lat="44.08523" lon="7.08626">
        <ele>734.32</ele>
        <time>2018-08-25T14:18:55Z</time>
      </trkpt>
      <trkpt lat="44.08521" lon="7.08596">
        <ele>735.88</ele>
        <time>2018-08-25T14:18:56Z</time>
      </trkpt>
      <trkpt lat="44.08511" lon="7.0855">
        <ele>740.41</ele>
        <time>2018-08-25T14:18:58Z</time>
      </trkpt>
      <trkpt lat="44.08509" lon="7.08504">
        <ele>747.4</ele>
        <time>2018-08-25T14:19:00Z</time>
      </trkpt>
      <trkpt lat="44.08522" lon="7.08473">
        <ele>750.05</ele>
        <time>2018-08-25T14:19:02Z</time>
      </trkpt>
      <trkpt lat="44.08541" lon="7.08452">
        <ele>752.6</ele>
        <time>2018-08-25T14:19:04Z</time>
      </trkpt>
      <trkpt lat="44.08569" lon="7.08431">
        <ele>753.46</ele>
        <time>2018-08-25T14:19:06Z</time>
      </trkpt>
      <trkpt lat="44.08597" lon="7.08416">
        <ele>755.36</ele>
        <time>2018-08-25T14:19:08Z</time>
      </trkpt>
      <trkpt lat="44.08619" lon="7.08391">
        <ele>756.23</ele>
        <time>2018-08-25T14:19:10Z</time>
      </trkpt>
      <trkpt lat="44.08639" lon="7.08362">
        <ele>756.52</ele>
        <time>2018-08-25T14:19:12Z</time>
      </trkpt>
      <trkpt lat="44.08662" lon="7.0833">
        <ele>757.46</ele>
        <time>2018-08-25T14:19:14Z</time>
      </trkpt>
      <trkpt lat="44.08684" lon="7.08301">
        <ele>759.85</ele>
        <time>2018-08-25T14:19:16Z</time>
      </trkpt>
      <trkpt lat="44.08703" lon="7.08273">
        <ele>761.19</ele>
        <time>2018-08-25T14:19:18Z</time>
      </trkpt>
      <trkpt lat="44.0871" lon="7.08244">
        <ele>764.25</ele>
        <time>2018-08-25T14:19:20Z</time>
      </trkpt>
      <trkpt lat="44.08721" lon="7.08217">
        <ele>766.34</ele>
        <time>2018-08-25T14:19:22Z</time>
      </trkpt>
      <trkpt lat="44.08743" lon="7.08191">
        <ele>768.35</ele>
        <time>2018-08-25T14:19:24Z</time>
      </trkpt>
      <trkpt lat="44.08767" lon="7.08149">
        <ele>768.95</ele>
        <time>2018-08-25T14:19:26Z</time>
      </trkpt>
      <trkpt lat="44.08774" lon="7.08125">
        <ele>768.67</ele>
        <time>2018-08-25T14:19:27Z</time>
      </trkpt>
      <trkpt lat="44.08792" lon="7.08081">
        <ele>769.96</ele>
        <time>2018-08-25T14:19:29Z</time>
      </trkpt>
      <trkpt lat="44.08805" lon="7.08039">
        <ele>771.4</ele>
        <time>2018-08-25T14:19:31Z</time>
      </trkpt>
      <trkpt lat="44.08812" lon="7.07995">
        <ele>772.66</ele>
        <time>2018-08-25T14:19:33Z</time>
      </trkpt>
      <trkpt lat="44.08816" lon="7.07953">
        <ele>772.56</ele>
        <time>2018-08-25T14:19:35Z</time>
      </trkpt>
      <trkpt lat="44.0883" lon="7.07924">
        <ele>778.08</ele>
        <time>2018-08-25T14:19:37Z</time>
      </trkpt>
      <trkpt lat="44.08842" lon="7.07891">
        <ele>784.74</ele>
        <time>2018-08-25T14:19:39Z</time>
      </trkpt>
      <trkpt lat="44.08857" lon="7.07865">
        <ele>788.9</ele>
        <time>2018-08-25T14:19:41Z</time>
      </trkpt>
      <trkpt lat="44.08876" lon="7.07836">
        <ele>790.4</ele>
        <time>2018-08-25T14:19:43Z</time>
      </trkpt>
      <trkpt lat="44.08893" lon="7.07801">
        <ele>792.35</ele>
        <time>2018-08-25T14:19:45Z</time>
      </trkpt>
      <trkpt lat="44.08904" lon="7.07779">
        <ele>793.89</ele>
        <time>2018-08-25T14:19:46Z</time>
      </trkpt>
      <trkpt lat="44.08914" lon="7.07758">
        <ele>795.75</ele>
        <time>2018-08-25T14:19:47Z</time>
      </trkpt>
      <trkpt lat="44.08924" lon="7.07736">
        <ele>796.31</ele>
        <time>2018-08-25T14:19:48Z</time>
      </trkpt>
      <trkpt lat="44.08944" lon="7.07699">
        <ele>796.32</ele>
        <time>2018-08-25T14:19:50Z</time>
      </trkpt>
      <trkpt lat="44.08962" lon="7.07665">
        <ele>798.14</ele>
        <time>2018-08-25T14:19:52Z</time>
      </trkpt>
      <trkpt lat="44.08979" lon="7.07638">
        <ele>799.42</ele>
        <time>2018-08-25T14:19:54Z</time>
      </trkpt>
      <trkpt lat="44.0898" lon="7.07611">
        <ele>800.91</ele>
        <time>2018-08-25T14:19:55Z</time>
      </trkpt>
      <trkpt lat="44.08987" lon="7.07568">
        <ele>801.28</ele>
        <time>2018-08-25T14:19:57Z</time>
      </trkpt>
      <trkpt lat="44.0898" lon="7.07525">
        <ele>803.13</ele>
        <time>2018-08-25T14:19:59Z</time>
      </trkpt>
      <trkpt lat="44.08985" lon="7.07496">
        <ele>803.51</ele>
        <time>2018-08-25T14:20:01Z</time>
      </trkpt>
      <trkpt lat="44.09005" lon="7.07479">
        <ele>805.15</ele>
        <time>2018-08-25T14:20:03Z</time>
      </trkpt>
      <trkpt lat="44.09015" lon="7.07451">
        <ele>808.03</ele>
        <time>2018-08-25T14:20:05Z</time>
      </trkpt>
      <trkpt lat="44.0902" lon="7.07412">
        <ele>809.2</ele>
        <time>2018-08-25T14:20:07Z</time>
      </trkpt>
      <trkpt lat="44.09005" lon="7.07378">
        <ele>812.74</ele>
        <time>2018-08-25T14:20:09Z</time>
      </trkpt>
      <trkpt lat="44.08983" lon="7.07367">
        <ele>816.8</ele>
        <time>2018-08-25T14:20:10Z</time>
      </trkpt>
      <trkpt lat="44.08965" lon="7.07334">
        <ele>820.49</ele>
        <time>2018-08-25T14:20:12Z</time>
      </trkpt>
      <trkpt lat="44.08951" lon="7.07298">
        <ele>824.67</ele>
        <time>2018-08-25T14:20:14Z</time>
      </trkpt>
      <trkpt lat="44.08936" lon="7.07269">
        <ele>827.99</ele>
        <time>2018-08-25T14:20:16Z</time>
      </trkpt>
      <trkpt lat="44.08928" lon="7.07245">
        <ele>828.5</ele>
        <time>2018-08-25T14:20:18Z</time>
      </trkpt>
      <trkpt lat="44.0893" lon="7.07207">
        <ele>833.65</ele>
        <time>2018-08-25T14:20:21Z</time>
      </trkpt>
      <trkpt lat="44.08933" lon="7.07171">
        <ele>835.38</ele>
        <time>2018-08-25T14:20:23Z</time>
      </trkpt>
      <trkpt lat="44.08936" lon="7.07136">
        <ele>835.53</ele>
        <time>2018-08-25T14:20:25Z</time>
      </trkpt>
      <trkpt lat="44.08935" lon="7.07098">
        <ele>836.95</ele>
        <time>2018-08-25T14:20:27Z</time>
      </trkpt>
      <trkpt lat="44.08939" lon="7.07063">
        <ele>840.01</ele>
        <time>2018-08-25T14:20:29Z</time>
      </trkpt>
      <trkpt lat="44.08954" lon="7.07026">
        <ele>840.22</ele>
        <time>2018-08-25T14:20:31Z</time>
      </trkpt>
      <trkpt lat="44.08961" lon="7.07003">
        <ele>842.55</ele>
        <time>2018-08-25T14:20:32Z</time>
      </trkpt>
      <trkpt lat="44.08968" lon="7.06977">
        <ele>843.95</ele>
        <time>2018-08-25T14:20:33Z</time>
      </trkpt>
      <trkpt lat="44.08976" lon="7.06954">
        <ele>844.37</ele>
        <time>2018-08-25T14:20:34Z</time>
      </trkpt>
      <trkpt lat="44.0899" lon="7.06908">
        <ele>846.14</ele>
        <time>2018-08-25T14:20:36Z</time>
      </trkpt>
      <trkpt lat="44.08999" lon="7.06876">
        <ele>850.15</ele>
        <time>2018-08-25T14:20:38Z</time>
      </trkpt>
      <trkpt lat="44.0901" lon="7.06846">
        <ele>851.21</ele>
        <time>2018-08-25T14:20:40Z</time>
      </trkpt>
      <trkpt lat="44.09029" lon="7.06824">
        <ele>854.04</ele>
        <time>2018-08-25T14:20:42Z</time>
      </trkpt>
      <trkpt lat="44.09036" lon="7.06795">
        <ele>856.32</ele>
        <time>2018-08-25T14:20:44Z</time>
      </trkpt>
      <trkpt lat="44.0903" lon="7.06759">
        <ele>858.35</ele>
        <time>2018-08-25T14:20:46Z</time>
      </trkpt>
      <trkpt lat="44.09025" lon="7.06721">
        <ele>861.96</ele>
        <time>2018-08-25T14:20:48Z</time>
      </trkpt>
      <trkpt lat="44.09029" lon="7.06684">
        <ele>864.11</ele>
        <time>2018-08-25T14:20:50Z</time>
      </trkpt>
      <trkpt lat="44.09033" lon="7.0659">
        <ele>866.12</ele>
        <time>2018-08-25T14:20:55Z</time>
      </trkpt>
      <trkpt lat="44.09026" lon="7.06551">
        <ele>872.04</ele>
        <time>2018-08-25T14:20:57Z</time>
      </trkpt>
      <trkpt lat="44.09031" lon="7.06517">
        <ele>881.46</ele>
        <time>2018-08-25T14:20:59Z</time>
      </trkpt>
      <trkpt lat="44.09047" lon="7.06482">
        <ele>886.37</ele>
        <time>2018-08-25T14:21:01Z</time>
      </trkpt>
      <trkpt lat="44.09059" lon="7.06439">
        <ele>889.96</ele>
        <time>2018-08-25T14:21:03Z</time>
      </trkpt>
      <trkpt lat="44.09067" lon="7.06393">
        <ele>891.2</ele>
        <time>2018-08-25T14:21:05Z</time>
      </trkpt>
      <trkpt lat="44.09075" lon="7.06348">
        <ele>891.52</ele>
        <time>2018-08-25T14:21:07Z</time>
      </trkpt>
      <trkpt lat="44.09088" lon="7.06316">
        <ele>892.95</ele>
        <time>2018-08-25T14:21:09Z</time>
      </trkpt>
      <trkpt lat="44.09112" lon="7.06286">
        <ele>895.8</ele>
        <time>2018-08-25T14:21:11Z</time>
      </trkpt>
      <trkpt lat="44.09133" lon="7.06251">
        <ele>900.61</ele>
        <time>2018-08-25T14:21:13Z</time>
      </trkpt>
      <trkpt lat="44.09162" lon="7.06221">
        <ele>905.59</ele>
        <time>2018-08-25T14:21:15Z</time>
      </trkpt>
      <trkpt lat="44.09181" lon="7.06201">
        <ele>907.66</ele>
        <time>2018-08-25T14:21:16Z</time>
      </trkpt>
      <trkpt lat="44.09198" lon="7.0618">
        <ele>908.98</ele>
        <time>2018-08-25T14:21:17Z</time>
      </trkpt>
      <trkpt lat="44.09214" lon="7.06159">
        <ele>910.78</ele>
        <time>2018-08-25T14:21:18Z</time>
      </trkpt>
      <trkpt lat="44.0923" lon="7.0614">
        <ele>911.32</ele>
        <time>2018-08-25T14:21:19Z</time>
      </trkpt>
      <trkpt lat="44.09246" lon="7.06118">
        <ele>912.18</ele>
        <time>2018-08-25T14:21:20Z</time>
      </trkpt>
      <trkpt lat="44.0926" lon="7.06091">
        <ele>913.14</ele>
        <time>2018-08-25T14:21:21Z</time>
      </trkpt>
      <trkpt lat="44.09276" lon="7.06071">
        <ele>912.72</ele>
        <time>2018-08-25T14:21:22Z</time>
      </trkpt>
      <trkpt lat="44.09294" lon="7.06054">
        <ele>912.6</ele>
        <time>2018-08-25T14:21:23Z</time>
      </trkpt>
      <trkpt lat="44.09311" lon="7.06035">
        <ele>913.96</ele>
        <time>2018-08-25T14:21:24Z</time>
      </trkpt>
      <trkpt lat="44.09328" lon="7.06015">
        <ele>914.37</ele>
        <time>2018-08-25T14:21:25Z</time>
      </trkpt>
      <trkpt lat="44.09346" lon="7.05995">
        <ele>915.2</ele>
        <time>2018-08-25T14:21:26Z</time>
      </trkpt>
      <trkpt lat="44.09359" lon="7.05966">
        <ele>917.54</ele>
        <time>2018-08-25T14:21:27Z</time>
      </trkpt>
      <trkpt lat="44.09373" lon="7.05942">
        <ele>918.25</ele>
        <time>2018-08-25T14:21:28Z</time>
      </trkpt>
      <trkpt lat="44.09386" lon="7.0592">
        <ele>919.16</ele>
        <time>2018-08-25T14:21:29Z</time>
      </trkpt>
      <trkpt lat="44.09396" lon="7.05891">
        <ele>920.13</ele>
        <time>2018-08-25T14:21:30Z</time>
      </trkpt>
      <trkpt lat="44.09404" lon="7.05855">
        <ele>921</ele>
        <time>2018-08-25T14:21:32Z</time>
      </trkpt>
      <trkpt lat="44.09417" lon="7.05836">
        <ele>922.78</ele>
        <time>2018-08-25T14:21:33Z</time>
      </trkpt>
      <trkpt lat="44.09433" lon="7.0582">
        <ele>924.02</ele>
        <time>2018-08-25T14:21:34Z</time>
      </trkpt>
      <trkpt lat="44.09447" lon="7.05803">
        <ele>925.09</ele>
        <time>2018-08-25T14:21:35Z</time>
      </trkpt>
      <trkpt lat="44.09466" lon="7.05771">
        <ele>927.12</ele>
        <time>2018-08-25T14:21:37Z</time>
      </trkpt>
      <trkpt lat="44.09475" lon="7.05734">
        <ele>928.21</ele>
        <time>2018-08-25T14:21:39Z</time>
      </trkpt>
      <trkpt lat="44.0949" lon="7.05709">
        <ele>931.04</ele>
        <time>2018-08-25T14:21:41Z</time>
      </trkpt>
      <trkpt lat="44.09507" lon="7.057">
        <ele>932.79</ele>
        <time>2018-08-25T14:21:42Z</time>
      </trkpt>
      <trkpt lat="44.09531" lon="7.05697">
        <ele>935.3</ele>
        <time>2018-08-25T14:21:44Z</time>
      </trkpt>
      <trkpt lat="44.09557" lon="7.0569">
        <ele>937.84</ele>
        <time>2018-08-25T14:21:46Z</time>
      </trkpt>
      <trkpt lat="44.09583" lon="7.05658">
        <ele>941.91</ele>
        <time>2018-08-25T14:21:48Z</time>
      </trkpt>
      <trkpt lat="44.09605" lon="7.05647">
        <ele>945.71</ele>
        <time>2018-08-25T14:21:50Z</time>
      </trkpt>
      <trkpt lat="44.09637" lon="7.05652">
        <ele>948.99</ele>
        <time>2018-08-25T14:21:52Z</time>
      </trkpt>
      <trkpt lat="44.09664" lon="7.05643">
        <ele>952.72</ele>
        <time>2018-08-25T14:21:54Z</time>
      </trkpt>
      <trkpt lat="44.09681" lon="7.05625">
        <ele>954.17</ele>
        <time>2018-08-25T14:21:56Z</time>
      </trkpt>
      <trkpt lat="44.09685" lon="7.05595">
        <ele>955.42</ele>
        <time>2018-08-25T14:21:58Z</time>
      </trkpt>
      <trkpt lat="44.09666" lon="7.05579">
        <ele>956.24</ele>
        <time>2018-08-25T14:22:00Z</time>
      </trkpt>
      <trkpt lat="44.09645" lon="7.05575">
        <ele>957.15</ele>
        <time>2018-08-25T14:22:01Z</time>
      </trkpt>
      <trkpt lat="44.09621" lon="7.05554">
        <ele>960.45</ele>
        <time>2018-08-25T14:22:03Z</time>
      </trkpt>
      <trkpt lat="44.09591" lon="7.05545">
        <ele>961.94</ele>
        <time>2018-08-25T14:22:05Z</time>
      </trkpt>
      <trkpt lat="44.0956" lon="7.05541">
        <ele>963.89</ele>
        <time>2018-08-25T14:22:07Z</time>
      </trkpt>
      <trkpt lat="44.09525" lon="7.05557">
        <ele>966.1</ele>
        <time>2018-08-25T14:22:09Z</time>
      </trkpt>
      <trkpt lat="44.0949" lon="7.05564">
        <ele>969.73</ele>
        <time>2018-08-25T14:22:11Z</time>
      </trkpt>
      <trkpt lat="44.09472" lon="7.05572">
        <ele>971</ele>
        <time>2018-08-25T14:22:12Z</time>
      </trkpt>
      <trkpt lat="44.09452" lon="7.05587">
        <ele>973.48</ele>
        <time>2018-08-25T14:22:13Z</time>
      </trkpt>
      <trkpt lat="44.09434" lon="7.05602">
        <ele>975.63</ele>
        <time>2018-08-25T14:22:14Z</time>
      </trkpt>
      <trkpt lat="44.09412" lon="7.05622">
        <ele>977.67</ele>
        <time>2018-08-25T14:22:15Z</time>
      </trkpt>
      <trkpt lat="44.09391" lon="7.05644">
        <ele>979.69</ele>
        <time>2018-08-25T14:22:16Z</time>
      </trkpt>
      <trkpt lat="44.0937" lon="7.05664">
        <ele>983.09</ele>
        <time>2018-08-25T14:22:17Z</time>
      </trkpt>
      <trkpt lat="44.09352" lon="7.05684">
        <ele>986.21</ele>
        <time>2018-08-25T14:22:18Z</time>
      </trkpt>
      <trkpt lat="44.09324" lon="7.0571">
        <ele>992.26</ele>
        <time>2018-08-25T14:22:20Z</time>
      </trkpt>
      <trkpt lat="44.09294" lon="7.05724">
        <ele>997.84</ele>
        <time>2018-08-25T14:22:22Z</time>
      </trkpt>
      <trkpt lat="44.09264" lon="7.05732">
        <ele>1000.3</ele>
        <time>2018-08-25T14:22:24Z</time>
      </trkpt>
      <trkpt lat="44.09244" lon="7.05741">
        <ele>1003.27</ele>
        <time>2018-08-25T14:22:25Z</time>
      </trkpt>
      <trkpt lat="44.09231" lon="7.05759">
        <ele>1009.07</ele>
        <time>2018-08-25T14:22:26Z</time>
      </trkpt>
      <trkpt lat="44.09212" lon="7.05775">
        <ele>1013.14</ele>
        <time>2018-08-25T14:22:28Z</time>
      </trkpt>
      <trkpt lat="44.09194" lon="7.05765">
        <ele>1014.21</ele>
        <time>2018-08-25T14:22:30Z</time>
      </trkpt>
      <trkpt lat="44.09175" lon="7.05753">
        <ele>1016.62</ele>
        <time>2018-08-25T14:22:32Z</time>
      </trkpt>
      <trkpt lat="44.09166" lon="7.05781">
        <ele>1019.37</ele>
        <time>2018-08-25T14:22:33Z</time>
      </trkpt>
      <trkpt lat="44.09139" lon="7.05813">
        <ele>1021.84</ele>
        <time>2018-08-25T14:22:35Z</time>
      </trkpt>
      <trkpt lat="44.09124" lon="7.05833">
        <ele>1023.04</ele>
        <time>2018-08-25T14:22:36Z</time>
      </trkpt>
      <trkpt lat="44.09112" lon="7.05859">
        <ele>1025.49</ele>
        <time>2018-08-25T14:22:37Z</time>
      </trkpt>
      <trkpt lat="44.09103" lon="7.05881">
        <ele>1027.63</ele>
        <time>2018-08-25T14:22:38Z</time>
      </trkpt>
      <trkpt lat="44.09093" lon="7.05903">
        <ele>1028.27</ele>
        <time>2018-08-25T14:22:39Z</time>
      </trkpt>
      <trkpt lat="44.09079" lon="7.0592">
        <ele>1029.01</ele>
        <time>2018-08-25T14:22:41Z</time>
      </trkpt>
      <trkpt lat="44.0906" lon="7.0593">
        <ele>1031.32</ele>
        <time>2018-08-25T14:22:43Z</time>
      </trkpt>
      <trkpt lat="44.09037" lon="7.05919">
        <ele>1034.75</ele>
        <time>2018-08-25T14:22:45Z</time>
      </trkpt>
      <trkpt lat="44.09013" lon="7.05921">
        <ele>1036.18</ele>
        <time>2018-08-25T14:22:47Z</time>
      </trkpt>
      <trkpt lat="44.0899" lon="7.05942">
        <ele>1036.3</ele>
        <time>2018-08-25T14:22:49Z</time>
      </trkpt>
      <trkpt lat="44.08987" lon="7.05978">
        <ele>1039.05</ele>
        <time>2018-08-25T14:22:51Z</time>
      </trkpt>
      <trkpt lat="44.08962" lon="7.05995">
        <ele>1039.29</ele>
        <time>2018-08-25T14:22:53Z</time>
      </trkpt>
      <trkpt lat="44.08939" lon="7.06016">
        <ele>1038.83</ele>
        <time>2018-08-25T14:22:55Z</time>
      </trkpt>
      <trkpt lat="44.08914" lon="7.0604">
        <ele>1040.18</ele>
        <time>2018-08-25T14:22:57Z</time>
      </trkpt>
      <trkpt lat="44.08893" lon="7.06074">
        <ele>1043.04</ele>
        <time>2018-08-25T14:22:59Z</time>
      </trkpt>
      <trkpt lat="44.08875" lon="7.06112">
        <ele>1044.41</ele>
        <time>2018-08-25T14:23:01Z</time>
      </trkpt>
      <trkpt lat="44.08857" lon="7.06136">
        <ele>1047.76</ele>
        <time>2018-08-25T14:23:03Z</time>
      </trkpt>
      <trkpt lat="44.08842" lon="7.06152">
        <ele>1052.61</ele>
        <time>2018-08-25T14:23:05Z</time>
      </trkpt>
      <trkpt lat="44.08828" lon="7.06126">
        <ele>1053.46</ele>
        <time>2018-08-25T14:23:08Z</time>
      </trkpt>
      <trkpt lat="44.08817" lon="7.06101">
        <ele>1054.22</ele>
        <time>2018-08-25T14:23:09Z</time>
      </trkpt>
      <trkpt lat="44.08806" lon="7.0606">
        <ele>1055.85</ele>
        <time>2018-08-25T14:23:10Z</time>
      </trkpt>
      <trkpt lat="44.0879" lon="7.06018">
        <ele>1057.74</ele>
        <time>2018-08-25T14:23:11Z</time>
      </trkpt>
      <trkpt lat="44.08776" lon="7.05989">
        <ele>1059.71</ele>
        <time>2018-08-25T14:23:12Z</time>
      </trkpt>
      <trkpt lat="44.08761" lon="7.05964">
        <ele>1061.7</ele>
        <time>2018-08-25T14:23:13Z</time>
      </trkpt>
      <trkpt lat="44.08741" lon="7.05944">
        <ele>1065.79</ele>
        <time>2018-08-25T14:23:14Z</time>
      </trkpt>
      <trkpt lat="44.08723" lon="7.05926">
        <ele>1068.42</ele>
        <time>2018-08-25T14:23:15Z</time>
      </trkpt>
      <trkpt lat="44.08698" lon="7.05916">
        <ele>1072.01</ele>
        <time>2018-08-25T14:23:16Z</time>
      </trkpt>
      <trkpt lat="44.08677" lon="7.05904">
        <ele>1076.59</ele>
        <time>2018-08-25T14:23:17Z</time>
      </trkpt>
      <trkpt lat="44.08659" lon="7.0589">
        <ele>1079.36</ele>
        <time>2018-08-25T14:23:18Z</time>
      </trkpt>
      <trkpt lat="44.0864" lon="7.05875">
        <ele>1081.59</ele>
        <time>2018-08-25T14:23:19Z</time>
      </trkpt>
      <trkpt lat="44.08623" lon="7.05856">
        <ele>1081.56</ele>
        <time>2018-08-25T14:23:20Z</time>
      </trkpt>
      <trkpt lat="44.08604" lon="7.05835">
        <ele>1081.55</ele>
        <time>2018-08-25T14:23:21Z</time>
      </trkpt>
      <trkpt lat="44.08599" lon="7.05808">
        <ele>1083.65</ele>
        <time>2018-08-25T14:23:22Z</time>
      </trkpt>
      <trkpt lat="44.08589" lon="7.05785">
        <ele>1083.58</ele>
        <time>2018-08-25T14:23:23Z</time>
      </trkpt>
      <trkpt lat="44.08568" lon="7.05771">
        <ele>1086.36</ele>
        <time>2018-08-25T14:23:24Z</time>
      </trkpt>
      <trkpt lat="44.0855" lon="7.05755">
        <ele>1088.59</ele>
        <time>2018-08-25T14:23:25Z</time>
      </trkpt>
      <trkpt lat="44.08533" lon="7.05745">
        <ele>1090.66</ele>
        <time>2018-08-25T14:23:26Z</time>
      </trkpt>
      <trkpt lat="44.08517" lon="7.05733">
        <ele>1091.98</ele>
        <time>2018-08-25T14:23:27Z</time>
      </trkpt>
      <trkpt lat="44.08502" lon="7.05719">
        <ele>1094.48</ele>
        <time>2018-08-25T14:23:28Z</time>
      </trkpt>
      <trkpt lat="44.0847" lon="7.05699">
        <ele>1097.27</ele>
        <time>2018-08-25T14:23:30Z</time>
      </trkpt>
      <trkpt lat="44.08436" lon="7.05691">
        <ele>1098.43</ele>
        <time>2018-08-25T14:23:32Z</time>
      </trkpt>
      <trkpt lat="44.0841" lon="7.05705">
        <ele>1100.36</ele>
        <time>2018-08-25T14:23:34Z</time>
      </trkpt>
      <trkpt lat="44.08385" lon="7.05703">
        <ele>1100.53</ele>
        <time>2018-08-25T14:23:36Z</time>
      </trkpt>
      <trkpt lat="44.08404" lon="7.05697">
        <ele>1101.67</ele>
        <time>2018-08-25T14:23:40Z</time>
      </trkpt>
      <trkpt lat="44.0843" lon="7.05688">
        <ele>1101.58</ele>
        <time>2018-08-25T14:23:41Z</time>
      </trkpt>
      <trkpt lat="44.0847" lon="7.0569">
        <ele>1102.26</ele>
        <time>2018-08-25T14:23:42Z</time>
      </trkpt>
      <trkpt lat="44.08493" lon="7.05698">
        <ele>1105.26</ele>
        <time>2018-08-25T14:23:43Z</time>
      </trkpt>
      <trkpt lat="44.08521" lon="7.0571">
        <ele>1108.95</ele>
        <time>2018-08-25T14:23:45Z</time>
      </trkpt>
      <trkpt lat="44.08552" lon="7.05703">
        <ele>1111.1</ele>
        <time>2018-08-25T14:23:47Z</time>
      </trkpt>
      <trkpt lat="44.08576" lon="7.05683">
        <ele>1111.72</ele>
        <time>2018-08-25T14:23:49Z</time>
      </trkpt>
      <trkpt lat="44.08608" lon="7.05683">
        <ele>1112.26</ele>
        <time>2018-08-25T14:23:51Z</time>
      </trkpt>
      <trkpt lat="44.08632" lon="7.05709">
        <ele>1116.44</ele>
        <time>2018-08-25T14:23:53Z</time>
      </trkpt>
      <trkpt lat="44.08656" lon="7.05726">
        <ele>1119.55</ele>
        <time>2018-08-25T14:23:55Z</time>
      </trkpt>
      <trkpt lat="44.08676" lon="7.05764">
        <ele>1124.87</ele>
        <time>2018-08-25T14:23:57Z</time>
      </trkpt>
      <trkpt lat="44.08697" lon="7.05799">
        <ele>1129.62</ele>
        <time>2018-08-25T14:23:59Z</time>
      </trkpt>
      <trkpt lat="44.08716" lon="7.0582">
        <ele>1132.07</ele>
        <time>2018-08-25T14:24:01Z</time>
      </trkpt>
      <trkpt lat="44.08738" lon="7.05829">
        <ele>1134.33</ele>
        <time>2018-08-25T14:24:03Z</time>
      </trkpt>
      <trkpt lat="44.08775" lon="7.05813">
        <ele>1138.94</ele>
        <time>2018-08-25T14:24:05Z</time>
      </trkpt>
      <trkpt lat="44.08811" lon="7.05816">
        <ele>1142.01</ele>
        <time>2018-08-25T14:24:07Z</time>
      </trkpt>
      <trkpt lat="44.08845" lon="7.05822">
        <ele>1146.63</ele>
        <time>2018-08-25T14:24:09Z</time>
      </trkpt>
      <trkpt lat="44.0887" lon="7.0584">
        <ele>1151.18</ele>
        <time>2018-08-25T14:24:11Z</time>
      </trkpt>
      <trkpt lat="44.08886" lon="7.05864">
        <ele>1155.64</ele>
        <time>2018-08-25T14:24:13Z</time>
      </trkpt>
      <trkpt lat="44.08904" lon="7.05873">
        <ele>1157.17</ele>
        <time>2018-08-25T14:24:15Z</time>
      </trkpt>
      <trkpt lat="44.08926" lon="7.05872">
        <ele>1156.81</ele>
        <time>2018-08-25T14:24:17Z</time>
      </trkpt>
      <trkpt lat="44.08953" lon="7.05843">
        <ele>1157.27</ele>
        <time>2018-08-25T14:24:19Z</time>
      </trkpt>
      <trkpt lat="44.08972" lon="7.05793">
        <ele>1159.57</ele>
        <time>2018-08-25T14:24:20Z</time>
      </trkpt>
      <trkpt lat="44.08989" lon="7.05771">
        <ele>1162.35</ele>
        <time>2018-08-25T14:24:21Z</time>
      </trkpt>
      <trkpt lat="44.09005" lon="7.05757">
        <ele>1163.89</ele>
        <time>2018-08-25T14:24:22Z</time>
      </trkpt>
      <trkpt lat="44.09032" lon="7.05739">
        <ele>1165.89</ele>
        <time>2018-08-25T14:24:24Z</time>
      </trkpt>
      <trkpt lat="44.0904" lon="7.05702">
        <ele>1168.31</ele>
        <time>2018-08-25T14:24:26Z</time>
      </trkpt>
      <trkpt lat="44.09043" lon="7.05653">
        <ele>1169.44</ele>
        <time>2018-08-25T14:24:28Z</time>
      </trkpt>
      <trkpt lat="44.0904" lon="7.05622">
        <ele>1169.51</ele>
        <time>2018-08-25T14:24:29Z</time>
      </trkpt>
      <trkpt lat="44.09039" lon="7.05586">
        <ele>1171.64</ele>
        <time>2018-08-25T14:24:30Z</time>
      </trkpt>
      <trkpt lat="44.09038" lon="7.05552">
        <ele>1172.97</ele>
        <time>2018-08-25T14:24:31Z</time>
      </trkpt>
      <trkpt lat="44.09039" lon="7.05513">
        <ele>1177.58</ele>
        <time>2018-08-25T14:24:32Z</time>
      </trkpt>
      <trkpt lat="44.09042" lon="7.05478">
        <ele>1180.36</ele>
        <time>2018-08-25T14:24:33Z</time>
      </trkpt>
      <trkpt lat="44.09044" lon="7.05445">
        <ele>1182.59</ele>
        <time>2018-08-25T14:24:34Z</time>
      </trkpt>
      <trkpt lat="44.09046" lon="7.05414">
        <ele>1186.06</ele>
        <time>2018-08-25T14:24:35Z</time>
      </trkpt>
      <trkpt lat="44.09048" lon="7.05385">
        <ele>1189.2</ele>
        <time>2018-08-25T14:24:36Z</time>
      </trkpt>
      <trkpt lat="44.09051" lon="7.05358">
        <ele>1190.84</ele>
        <time>2018-08-25T14:24:37Z</time>
      </trkpt>
      <trkpt lat="44.09053" lon="7.05329">
        <ele>1192.74</ele>
        <time>2018-08-25T14:24:38Z</time>
      </trkpt>
      <trkpt lat="44.09054" lon="7.05302">
        <ele>1194.7</ele>
        <time>2018-08-25T14:24:39Z</time>
      </trkpt>
      <trkpt lat="44.09055" lon="7.05276">
        <ele>1197.4</ele>
        <time>2018-08-25T14:24:40Z</time>
      </trkpt>
      <trkpt lat="44.09057" lon="7.05251">
        <ele>1198.9</ele>
        <time>2018-08-25T14:24:41Z</time>
      </trkpt>
      <trkpt lat="44.09064" lon="7.05206">
        <ele>1202.01</ele>
        <time>2018-08-25T14:24:43Z</time>
      </trkpt>
      <trkpt lat="44.09067" lon="7.05169">
        <ele>1204.11</ele>
        <time>2018-08-25T14:24:45Z</time>
      </trkpt>
      <trkpt lat="44.09053" lon="7.05132">
        <ele>1207.73</ele>
        <time>2018-08-25T14:24:47Z</time>
      </trkpt>
      <trkpt lat="44.09041" lon="7.05101">
        <ele>1210.99</ele>
        <time>2018-08-25T14:24:49Z</time>
      </trkpt>
      <trkpt lat="44.09032" lon="7.05076">
        <ele>1211.5</ele>
        <time>2018-08-25T14:24:51Z</time>
      </trkpt>
      <trkpt lat="44.09085" lon="7.05071">
        <ele>1213.46</ele>
        <time>2018-08-25T14:24:55Z</time>
      </trkpt>
      <trkpt lat="44.09102" lon="7.05083">
        <ele>1214.22</ele>
        <time>2018-08-25T14:24:56Z</time>
      </trkpt>
      <trkpt lat="44.09115" lon="7.05103">
        <ele>1216.55</ele>
        <time>2018-08-25T14:24:57Z</time>
      </trkpt>
      <trkpt lat="44.09143" lon="7.05129">
        <ele>1219.98</ele>
        <time>2018-08-25T14:24:59Z</time>
      </trkpt>
      <trkpt lat="44.0916" lon="7.05139">
        <ele>1222.48</ele>
        <time>2018-08-25T14:25:00Z</time>
      </trkpt>
      <trkpt lat="44.09192" lon="7.05161">
        <ele>1224.15</ele>
        <time>2018-08-25T14:25:02Z</time>
      </trkpt>
      <trkpt lat="44.09215" lon="7.05189">
        <ele>1227.03</ele>
        <time>2018-08-25T14:25:04Z</time>
      </trkpt>
      <trkpt lat="44.09208" lon="7.05214">
        <ele>1228.79</ele>
        <time>2018-08-25T14:25:05Z</time>
      </trkpt>
      <trkpt lat="44.09226" lon="7.05246">
        <ele>1233.4</ele>
        <time>2018-08-25T14:25:07Z</time>
      </trkpt>
      <trkpt lat="44.09248" lon="7.05271">
        <ele>1233.53</ele>
        <time>2018-08-25T14:25:09Z</time>
      </trkpt>
      <trkpt lat="44.09268" lon="7.05292">
        <ele>1232.64</ele>
        <time>2018-08-25T14:25:11Z</time>
      </trkpt>
      <trkpt lat="44.09281" lon="7.0531">
        <ele>1235.08</ele>
        <time>2018-08-25T14:25:13Z</time>
      </trkpt>
      <trkpt lat="44.09299" lon="7.05319">
        <ele>1237.63</ele>
        <time>2018-08-25T14:25:16Z</time>
      </trkpt>
      <trkpt lat="44.09283" lon="7.05296">
        <ele>1236.86</ele>
        <time>2018-08-25T14:25:18Z</time>
      </trkpt>
      <trkpt lat="44.09263" lon="7.05265">
        <ele>1237.49</ele>
        <time>2018-08-25T14:25:20Z</time>
      </trkpt>
      <trkpt lat="44.09248" lon="7.0524">
        <ele>1237.53</ele>
        <time>2018-08-25T14:25:21Z</time>
      </trkpt>
      <trkpt lat="44.0923" lon="7.05203">
        <ele>1236.64</ele>
        <time>2018-08-25T14:25:23Z</time>
      </trkpt>
      <trkpt lat="44.09221" lon="7.05155">
        <ele>1236.56</ele>
        <time>2018-08-25T14:25:25Z</time>
      </trkpt>
      <trkpt lat="44.09205" lon="7.05115">
        <ele>1238.16</ele>
        <time>2018-08-25T14:25:27Z</time>
      </trkpt>
      <trkpt lat="44.09183" lon="7.05081">
        <ele>1239.21</ele>
        <time>2018-08-25T14:25:29Z</time>
      </trkpt>
      <trkpt lat="44.09164" lon="7.05073">
        <ele>1241.55</ele>
        <time>2018-08-25T14:25:30Z</time>
      </trkpt>
      <trkpt lat="44.09149" lon="7.05044">
        <ele>1245.89</ele>
        <time>2018-08-25T14:25:32Z</time>
      </trkpt>
      <trkpt lat="44.09131" lon="7.05007">
        <ele>1249.71</ele>
        <time>2018-08-25T14:25:34Z</time>
      </trkpt>
      <trkpt lat="44.09114" lon="7.0496">
        <ele>1254.39</ele>
        <time>2018-08-25T14:25:36Z</time>
      </trkpt>
      <trkpt lat="44.09106" lon="7.04934">
        <ele>1256.6</ele>
        <time>2018-08-25T14:25:37Z</time>
      </trkpt>
      <trkpt lat="44.091" lon="7.04905">
        <ele>1259.36</ele>
        <time>2018-08-25T14:25:38Z</time>
      </trkpt>
      <trkpt lat="44.09094" lon="7.04876">
        <ele>1261.59</ele>
        <time>2018-08-25T14:25:39Z</time>
      </trkpt>
      <trkpt lat="44.09089" lon="7.04848">
        <ele>1265.06</ele>
        <time>2018-08-25T14:25:40Z</time>
      </trkpt>
      <trkpt lat="44.09084" lon="7.04821">
        <ele>1268.2</ele>
        <time>2018-08-25T14:25:41Z</time>
      </trkpt>
      <trkpt lat="44.09078" lon="7.04771">
        <ele>1273.56</ele>
        <time>2018-08-25T14:25:43Z</time>
      </trkpt>
      <trkpt lat="44.09079" lon="7.04743">
        <ele>1276.35</ele>
        <time>2018-08-25T14:25:44Z</time>
      </trkpt>
      <trkpt lat="44.0908" lon="7.04714">
        <ele>1277.89</ele>
        <time>2018-08-25T14:25:45Z</time>
      </trkpt>
      <trkpt lat="44.0908" lon="7.04683">
        <ele>1280.45</ele>
        <time>2018-08-25T14:25:46Z</time>
      </trkpt>
      <trkpt lat="44.0908" lon="7.04654">
        <ele>1282.62</ele>
        <time>2018-08-25T14:25:47Z</time>
      </trkpt>
      <trkpt lat="44.09081" lon="7.04628">
        <ele>1284.67</ele>
        <time>2018-08-25T14:25:48Z</time>
      </trkpt>
      <trkpt lat="44.09082" lon="7.04585">
        <ele>1288.9</ele>
        <time>2018-08-25T14:25:50Z</time>
      </trkpt>
      <trkpt lat="44.09085" lon="7.04551">
        <ele>1289.8</ele>
        <time>2018-08-25T14:25:53Z</time>
      </trkpt>
      <trkpt lat="44.09096" lon="7.0458">
        <ele>1293.06</ele>
        <time>2018-08-25T14:25:57Z</time>
      </trkpt>
      <trkpt lat="44.09091" lon="7.04605">
        <ele>1294.8</ele>
        <time>2018-08-25T14:25:58Z</time>
      </trkpt>
      <trkpt lat="44.09099" lon="7.04652">
        <ele>1298.7</ele>
        <time>2018-08-25T14:26:00Z</time>
      </trkpt>
      <trkpt lat="44.09106" lon="7.0468">
        <ele>1301.39</ele>
        <time>2018-08-25T14:26:01Z</time>
      </trkpt>
      <trkpt lat="44.09113" lon="7.04707">
        <ele>1302.9</ele>
        <time>2018-08-25T14:26:02Z</time>
      </trkpt>
      <trkpt lat="44.09118" lon="7.04734">
        <ele>1305.45</ele>
        <time>2018-08-25T14:26:03Z</time>
      </trkpt>
      <trkpt lat="44.09125" lon="7.04759">
        <ele>1306.92</ele>
        <time>2018-08-25T14:26:04Z</time>
      </trkpt>
      <trkpt lat="44.09133" lon="7.04781">
        <ele>1308.06</ele>
        <time>2018-08-25T14:26:05Z</time>
      </trkpt>
      <trkpt lat="44.09147" lon="7.04824">
        <ele>1312.42</ele>
        <time>2018-08-25T14:26:07Z</time>
      </trkpt>
      <trkpt lat="44.09158" lon="7.04858">
        <ele>1315.27</ele>
        <time>2018-08-25T14:26:09Z</time>
      </trkpt>
      <trkpt lat="44.09164" lon="7.04883">
        <ele>1317.13</ele>
        <time>2018-08-25T14:26:11Z</time>
      </trkpt>
      <trkpt lat="44.09173" lon="7.04907">
        <ele>1319.42</ele>
        <time>2018-08-25T14:26:14Z</time>
      </trkpt>
      <trkpt lat="44.09173" lon="7.04871">
        <ele>1320.97</ele>
        <time>2018-08-25T14:26:19Z</time>
      </trkpt>
      <trkpt lat="44.09164" lon="7.04832">
        <ele>1322.41</ele>
        <time>2018-08-25T14:26:21Z</time>
      </trkpt>
      <trkpt lat="44.09161" lon="7.04807">
        <ele>1322.51</ele>
        <time>2018-08-25T14:26:22Z</time>
      </trkpt>
      <trkpt lat="44.09159" lon="7.04779">
        <ele>1322.54</ele>
        <time>2018-08-25T14:26:23Z</time>
      </trkpt>
      <trkpt lat="44.09156" lon="7.04752">
        <ele>1322.54</ele>
        <time>2018-08-25T14:26:24Z</time>
      </trkpt>
      <trkpt lat="44.09157" lon="7.04718">
        <ele>1320.45</ele>
        <time>2018-08-25T14:26:25Z</time>
      </trkpt>
      <trkpt lat="44.09157" lon="7.04686">
        <ele>1321.22</ele>
        <time>2018-08-25T14:26:26Z</time>
      </trkpt>
      <trkpt lat="44.09159" lon="7.04653">
        <ele>1322.15</ele>
        <time>2018-08-25T14:26:27Z</time>
      </trkpt>
      <trkpt lat="44.09161" lon="7.04618">
        <ele>1323.13</ele>
        <time>2018-08-25T14:26:28Z</time>
      </trkpt>
      <trkpt lat="44.09163" lon="7.04581">
        <ele>1324.82</ele>
        <time>2018-08-25T14:26:29Z</time>
      </trkpt>
      <trkpt lat="44.09165" lon="7.04543">
        <ele>1325.33</ele>
        <time>2018-08-25T14:26:30Z</time>
      </trkpt>
      <trkpt lat="44.09166" lon="7.04505">
        <ele>1326.18</ele>
        <time>2018-08-25T14:26:31Z</time>
      </trkpt>
      <trkpt lat="44.09168" lon="7.04474">
        <ele>1327.84</ele>
        <time>2018-08-25T14:26:32Z</time>
      </trkpt>
      <trkpt lat="44.09168" lon="7.0444">
        <ele>1328.34</ele>
        <time>2018-08-25T14:26:33Z</time>
      </trkpt>
      <trkpt lat="44.09171" lon="7.04405">
        <ele>1329.18</ele>
        <time>2018-08-25T14:26:34Z</time>
      </trkpt>
      <trkpt lat="44.09176" lon="7.0437">
        <ele>1330.14</ele>
        <time>2018-08-25T14:26:35Z</time>
      </trkpt>
      <trkpt lat="44.09185" lon="7.04335">
        <ele>1331.83</ele>
        <time>2018-08-25T14:26:36Z</time>
      </trkpt>
      <trkpt lat="44.09194" lon="7.04301">
        <ele>1333.03</ele>
        <time>2018-08-25T14:26:37Z</time>
      </trkpt>
      <trkpt lat="44.092" lon="7.04266">
        <ele>1332.69</ele>
        <time>2018-08-25T14:26:38Z</time>
      </trkpt>
      <trkpt lat="44.09205" lon="7.04238">
        <ele>1332.59</ele>
        <time>2018-08-25T14:26:39Z</time>
      </trkpt>
      <trkpt lat="44.09202" lon="7.04211">
        <ele>1334.66</ele>
        <time>2018-08-25T14:26:40Z</time>
      </trkpt>
      <trkpt lat="44.09202" lon="7.04185">
        <ele>1335.28</ele>
        <time>2018-08-25T14:26:41Z</time>
      </trkpt>
      <trkpt lat="44.09208" lon="7.04157">
        <ele>1336.17</ele>
        <time>2018-08-25T14:26:42Z</time>
      </trkpt>
      <trkpt lat="44.0921" lon="7.04126">
        <ele>1337.13</ele>
        <time>2018-08-25T14:26:43Z</time>
      </trkpt>
      <trkpt lat="44.09212" lon="7.04096">
        <ele>1336.72</ele>
        <time>2018-08-25T14:26:44Z</time>
      </trkpt>
      <trkpt lat="44.09214" lon="7.04065">
        <ele>1336.6</ele>
        <time>2018-08-25T14:26:45Z</time>
      </trkpt>
      <trkpt lat="44.09216" lon="7.04038">
        <ele>1337.96</ele>
        <time>2018-08-25T14:26:46Z</time>
      </trkpt>
      <trkpt lat="44.0922" lon="7.04011">
        <ele>1339.07</ele>
        <time>2018-08-25T14:26:47Z</time>
      </trkpt>
      <trkpt lat="44.09223" lon="7.03984">
        <ele>1340.11</ele>
        <time>2018-08-25T14:26:48Z</time>
      </trkpt>
      <trkpt lat="44.09225" lon="7.03956">
        <ele>1341.12</ele>
        <time>2018-08-25T14:26:49Z</time>
      </trkpt>
      <trkpt lat="44.09228" lon="7.03908">
        <ele>1343.33</ele>
        <time>2018-08-25T14:26:51Z</time>
      </trkpt>
      <trkpt lat="44.09223" lon="7.03877">
        <ele>1344.44</ele>
        <time>2018-08-25T14:26:53Z</time>
      </trkpt>
      <trkpt lat="44.09181" lon="7.03976">
        <ele>1353.36</ele>
        <time>2018-08-25T14:26:55Z</time>
      </trkpt>
      <trkpt lat="44.09169" lon="7.04008">
        <ele>1358.39</ele>
        <time>2018-08-25T14:26:56Z</time>
      </trkpt>
      <trkpt lat="44.09155" lon="7.04041">
        <ele>1362</ele>
        <time>2018-08-25T14:26:57Z</time>
      </trkpt>
      <trkpt lat="44.0914" lon="7.04075">
        <ele>1363.78</ele>
        <time>2018-08-25T14:26:58Z</time>
      </trkpt>
      <trkpt lat="44.09125" lon="7.04109">
        <ele>1365.02</ele>
        <time>2018-08-25T14:26:59Z</time>
      </trkpt>
      <trkpt lat="44.0911" lon="7.04138">
        <ele>1367.49</ele>
        <time>2018-08-25T14:27:00Z</time>
      </trkpt>
      <trkpt lat="44.09096" lon="7.04168">
        <ele>1368.93</ele>
        <time>2018-08-25T14:27:01Z</time>
      </trkpt>
      <trkpt lat="44.09084" lon="7.04195">
        <ele>1370.06</ele>
        <time>2018-08-25T14:27:02Z</time>
      </trkpt>
      <trkpt lat="44.09061" lon="7.04228">
        <ele>1374.42</ele>
        <time>2018-08-25T14:27:04Z</time>
      </trkpt>
      <trkpt lat="44.09044" lon="7.0424">
        <ele>1375.21</ele>
        <time>2018-08-25T14:27:05Z</time>
      </trkpt>
      <trkpt lat="44.09029" lon="7.04255">
        <ele>1376.85</ele>
        <time>2018-08-25T14:27:06Z</time>
      </trkpt>
      <trkpt lat="44.09013" lon="7.04279">
        <ele>1380.84</ele>
        <time>2018-08-25T14:27:07Z</time>
      </trkpt>
      <trkpt lat="44.09" lon="7.043">
        <ele>1384.13</ele>
        <time>2018-08-25T14:27:08Z</time>
      </trkpt>
      <trkpt lat="44.0898" lon="7.04331">
        <ele>1387.94</ele>
        <time>2018-08-25T14:27:10Z</time>
      </trkpt>
      <trkpt lat="44.08955" lon="7.0434">
        <ele>1390.31</ele>
        <time>2018-08-25T14:27:12Z</time>
      </trkpt>
      <trkpt lat="44.08916" lon="7.0432">
        <ele>1391.23</ele>
        <time>2018-08-25T14:27:14Z</time>
      </trkpt>
      <trkpt lat="44.08898" lon="7.04309">
        <ele>1390.75</ele>
        <time>2018-08-25T14:27:15Z</time>
      </trkpt>
      <trkpt lat="44.08881" lon="7.04296">
        <ele>1390.61</ele>
        <time>2018-08-25T14:27:16Z</time>
      </trkpt>
      <trkpt lat="44.08862" lon="7.04277">
        <ele>1391.97</ele>
        <time>2018-08-25T14:27:17Z</time>
      </trkpt>
      <trkpt lat="44.08845" lon="7.04264">
        <ele>1392.37</ele>
        <time>2018-08-25T14:27:18Z</time>
      </trkpt>
      <trkpt lat="44.08844" lon="7.04239">
        <ele>1392.5</ele>
        <time>2018-08-25T14:27:19Z</time>
      </trkpt>
      <trkpt lat="44.08824" lon="7.04215">
        <ele>1393.24</ele>
        <time>2018-08-25T14:27:21Z</time>
      </trkpt>
      <trkpt lat="44.08805" lon="7.04219">
        <ele>1393.73</ele>
        <time>2018-08-25T14:27:23Z</time>
      </trkpt>
      <trkpt lat="44.08776" lon="7.04245">
        <ele>1393.56</ele>
        <time>2018-08-25T14:27:25Z</time>
      </trkpt>
      <trkpt lat="44.08786" lon="7.04319">
        <ele>1396.35</ele>
        <time>2018-08-25T14:27:26Z</time>
      </trkpt>
      <trkpt lat="44.08781" lon="7.04345">
        <ele>1399.99</ele>
        <time>2018-08-25T14:27:27Z</time>
      </trkpt>
      <trkpt lat="44.08776" lon="7.04382">
        <ele>1406.24</ele>
        <time>2018-08-25T14:27:29Z</time>
      </trkpt>
      <trkpt lat="44.08765" lon="7.04404">
        <ele>1410.16</ele>
        <time>2018-08-25T14:27:31Z</time>
      </trkpt>
      <trkpt lat="44.08759" lon="7.04373">
        <ele>1411.34</ele>
        <time>2018-08-25T14:27:35Z</time>
      </trkpt>
      <trkpt lat="44.08764" lon="7.04341">
        <ele>1411.49</ele>
        <time>2018-08-25T14:27:36Z</time>
      </trkpt>
      <trkpt lat="44.08773" lon="7.04312">
        <ele>1412.93</ele>
        <time>2018-08-25T14:27:37Z</time>
      </trkpt>
      <trkpt lat="44.08783" lon="7.04281">
        <ele>1413.36</ele>
        <time>2018-08-25T14:27:38Z</time>
      </trkpt>
      <trkpt lat="44.08792" lon="7.04232">
        <ele>1415.59</ele>
        <time>2018-08-25T14:27:39Z</time>
      </trkpt>
      <trkpt lat="44.08803" lon="7.04193">
        <ele>1416.96</ele>
        <time>2018-08-25T14:27:40Z</time>
      </trkpt>
      <trkpt lat="44.08811" lon="7.04156">
        <ele>1418.07</ele>
        <time>2018-08-25T14:27:41Z</time>
      </trkpt>
      <trkpt lat="44.08819" lon="7.04121">
        <ele>1420.51</ele>
        <time>2018-08-25T14:27:42Z</time>
      </trkpt>
      <trkpt lat="44.08825" lon="7.04087">
        <ele>1421.94</ele>
        <time>2018-08-25T14:27:43Z</time>
      </trkpt>
      <trkpt lat="44.08833" lon="7.04059">
        <ele>1423.76</ele>
        <time>2018-08-25T14:27:44Z</time>
      </trkpt>
      <trkpt lat="44.08841" lon="7.04032">
        <ele>1425.71</ele>
        <time>2018-08-25T14:27:45Z</time>
      </trkpt>
      <trkpt lat="44.08848" lon="7.04006">
        <ele>1427.7</ele>
        <time>2018-08-25T14:27:46Z</time>
      </trkpt>
      <trkpt lat="44.0886" lon="7.03958">
        <ele>1429.87</ele>
        <time>2018-08-25T14:27:48Z</time>
      </trkpt>
      <trkpt lat="44.08863" lon="7.03928">
        <ele>1431.05</ele>
        <time>2018-08-25T14:27:49Z</time>
      </trkpt>
      <trkpt lat="44.08863" lon="7.039">
        <ele>1434.2</ele>
        <time>2018-08-25T14:27:50Z</time>
      </trkpt>
      <trkpt lat="44.08866" lon="7.03875">
        <ele>1436.54</ele>
        <time>2018-08-25T14:27:51Z</time>
      </trkpt>
      <trkpt lat="44.08876" lon="7.03831">
        <ele>1441.38</ele>
        <time>2018-08-25T14:27:53Z</time>
      </trkpt>
      <trkpt lat="44.0888" lon="7.03805">
        <ele>1442.44</ele>
        <time>2018-08-25T14:27:55Z</time>
      </trkpt>
      <trkpt lat="44.08897" lon="7.03844">
        <ele>1446.74</ele>
        <time>2018-08-25T14:27:58Z</time>
      </trkpt>
      <trkpt lat="44.08901" lon="7.03879">
        <ele>1450</ele>
        <time>2018-08-25T14:28:00Z</time>
      </trkpt>
      <trkpt lat="44.08916" lon="7.03905">
        <ele>1451.9</ele>
        <time>2018-08-25T14:28:02Z</time>
      </trkpt>
      <trkpt lat="44.08942" lon="7.03913">
        <ele>1455.71</ele>
        <time>2018-08-25T14:28:04Z</time>
      </trkpt>
      <trkpt lat="44.08972" lon="7.03916">
        <ele>1458.08</ele>
        <time>2018-08-25T14:28:06Z</time>
      </trkpt>
      <trkpt lat="44.08994" lon="7.03903">
        <ele>1460.12</ele>
        <time>2018-08-25T14:28:08Z</time>
      </trkpt>
      <trkpt lat="44.09015" lon="7.03877">
        <ele>1460.51</ele>
        <time>2018-08-25T14:28:10Z</time>
      </trkpt>
      <trkpt lat="44.09028" lon="7.03848">
        <ele>1461.94</ele>
        <time>2018-08-25T14:28:11Z</time>
      </trkpt>
      <trkpt lat="44.09042" lon="7.03827">
        <ele>1463.76</ele>
        <time>2018-08-25T14:28:12Z</time>
      </trkpt>
      <trkpt lat="44.09056" lon="7.03809">
        <ele>1465.01</ele>
        <time>2018-08-25T14:28:13Z</time>
      </trkpt>
      <trkpt lat="44.09068" lon="7.03788">
        <ele>1466.79</ele>
        <time>2018-08-25T14:28:14Z</time>
      </trkpt>
      <trkpt lat="44.09081" lon="7.03766">
        <ele>1467.32</ele>
        <time>2018-08-25T14:28:15Z</time>
      </trkpt>
      <trkpt lat="44.09094" lon="7.03741">
        <ele>1468.88</ele>
        <time>2018-08-25T14:28:16Z</time>
      </trkpt>
      <trkpt lat="44.09108" lon="7.03719">
        <ele>1471.45</ele>
        <time>2018-08-25T14:28:17Z</time>
      </trkpt>
      <trkpt lat="44.09123" lon="7.03699">
        <ele>1473.62</ele>
        <time>2018-08-25T14:28:18Z</time>
      </trkpt>
      <trkpt lat="44.09137" lon="7.03681">
        <ele>1475.67</ele>
        <time>2018-08-25T14:28:19Z</time>
      </trkpt>
      <trkpt lat="44.09152" lon="7.03664">
        <ele>1476.28</ele>
        <time>2018-08-25T14:28:20Z</time>
      </trkpt>
      <trkpt lat="44.09181" lon="7.03658">
        <ele>1480.65</ele>
        <time>2018-08-25T14:28:22Z</time>
      </trkpt>
      <trkpt lat="44.0921" lon="7.03637">
        <ele>1484.69</ele>
        <time>2018-08-25T14:28:24Z</time>
      </trkpt>
      <trkpt lat="44.09222" lon="7.03618">
        <ele>1485.99</ele>
        <time>2018-08-25T14:28:25Z</time>
      </trkpt>
      <trkpt lat="44.09236" lon="7.036">
        <ele>1487.78</ele>
        <time>2018-08-25T14:28:26Z</time>
      </trkpt>
      <trkpt lat="44.09249" lon="7.03583">
        <ele>1489.02</ele>
        <time>2018-08-25T14:28:27Z</time>
      </trkpt>
      <trkpt lat="44.09268" lon="7.03574">
        <ele>1489.39</ele>
        <time>2018-08-25T14:28:28Z</time>
      </trkpt>
      <trkpt lat="44.09287" lon="7.03559">
        <ele>1492.3</ele>
        <time>2018-08-25T14:28:29Z</time>
      </trkpt>
      <trkpt lat="44.09303" lon="7.03546">
        <ele>1494.57</ele>
        <time>2018-08-25T14:28:30Z</time>
      </trkpt>
      <trkpt lat="44.09319" lon="7.03533">
        <ele>1495.96</ele>
        <time>2018-08-25T14:28:31Z</time>
      </trkpt>
      <trkpt lat="44.09339" lon="7.03504">
        <ele>1498.8</ele>
        <time>2018-08-25T14:28:33Z</time>
      </trkpt>
      <trkpt lat="44.09341" lon="7.03475">
        <ele>1500.23</ele>
        <time>2018-08-25T14:28:36Z</time>
      </trkpt>
      <trkpt lat="44.09316" lon="7.03498">
        <ele>1502.16</ele>
        <time>2018-08-25T14:28:40Z</time>
      </trkpt>
      <trkpt lat="44.09297" lon="7.0351">
        <ele>1503.83</ele>
        <time>2018-08-25T14:28:41Z</time>
      </trkpt>
      <trkpt lat="44.09281" lon="7.03521">
        <ele>1505.03</ele>
        <time>2018-08-25T14:28:42Z</time>
      </trkpt>
      <trkpt lat="44.09245" lon="7.03531">
        <ele>1506.2</ele>
        <time>2018-08-25T14:28:44Z</time>
      </trkpt>
      <trkpt lat="44.09219" lon="7.03539">
        <ele>1507.14</ele>
        <time>2018-08-25T14:28:45Z</time>
      </trkpt>
      <trkpt lat="44.09198" lon="7.03545">
        <ele>1506.73</ele>
        <time>2018-08-25T14:28:46Z</time>
      </trkpt>
      <trkpt lat="44.09177" lon="7.03549">
        <ele>1507.3</ele>
        <time>2018-08-25T14:28:47Z</time>
      </trkpt>
      <trkpt lat="44.09158" lon="7.03553">
        <ele>1508.17</ele>
        <time>2018-08-25T14:28:48Z</time>
      </trkpt>
      <trkpt lat="44.09139" lon="7.03556">
        <ele>1508.44</ele>
        <time>2018-08-25T14:28:49Z</time>
      </trkpt>
      <trkpt lat="44.09148" lon="7.03534">
        <ele>1510.61</ele>
        <time>2018-08-25T14:28:50Z</time>
      </trkpt>
      <trkpt lat="44.09137" lon="7.03513">
        <ele>1511.46</ele>
        <time>2018-08-25T14:28:52Z</time>
      </trkpt>
      <trkpt lat="44.09153" lon="7.03474">
        <ele>1511.75</ele>
        <time>2018-08-25T14:28:54Z</time>
      </trkpt>
      <trkpt lat="44.09159" lon="7.03448">
        <ele>1512.31</ele>
        <time>2018-08-25T14:28:55Z</time>
      </trkpt>
      <trkpt lat="44.09164" lon="7.03412">
        <ele>1515.26</ele>
        <time>2018-08-25T14:28:57Z</time>
      </trkpt>
      <trkpt lat="44.09134" lon="7.03388">
        <ele>1517.34</ele>
        <time>2018-08-25T14:28:59Z</time>
      </trkpt>
      <trkpt lat="44.09091" lon="7.03394">
        <ele>1520.99</ele>
        <time>2018-08-25T14:29:00Z</time>
      </trkpt>
      <trkpt lat="44.09072" lon="7.0339">
        <ele>1524.18</ele>
        <time>2018-08-25T14:29:01Z</time>
      </trkpt>
      <trkpt lat="44.09048" lon="7.03381">
        <ele>1529.76</ele>
        <time>2018-08-25T14:29:03Z</time>
      </trkpt>
      <trkpt lat="44.0908" lon="7.03348">
        <ele>1531.61</ele>
        <time>2018-08-25T14:29:08Z</time>
      </trkpt>
      <trkpt lat="44.09098" lon="7.03329">
        <ele>1533.67</ele>
        <time>2018-08-25T14:29:09Z</time>
      </trkpt>
      <trkpt lat="44.09117" lon="7.03308">
        <ele>1534.98</ele>
        <time>2018-08-25T14:29:10Z</time>
      </trkpt>
      <trkpt lat="44.09136" lon="7.03283">
        <ele>1537.48</ele>
        <time>2018-08-25T14:29:11Z</time>
      </trkpt>
      <trkpt lat="44.09158" lon="7.03255">
        <ele>1540.33</ele>
        <time>2018-08-25T14:29:12Z</time>
      </trkpt>
      <trkpt lat="44.09179" lon="7.0323">
        <ele>1543.28</ele>
        <time>2018-08-25T14:29:13Z</time>
      </trkpt>
      <trkpt lat="44.09196" lon="7.03207">
        <ele>1544.87</ele>
        <time>2018-08-25T14:29:14Z</time>
      </trkpt>
      <trkpt lat="44.09215" lon="7.03183">
        <ele>1546.04</ele>
        <time>2018-08-25T14:29:15Z</time>
      </trkpt>
      <trkpt lat="44.09232" lon="7.03169">
        <ele>1547.1</ele>
        <time>2018-08-25T14:29:16Z</time>
      </trkpt>
      <trkpt lat="44.09255" lon="7.03132">
        <ele>1550.03</ele>
        <time>2018-08-25T14:29:18Z</time>
      </trkpt>
      <trkpt lat="44.0927" lon="7.03106">
        <ele>1551.09</ele>
        <time>2018-08-25T14:29:19Z</time>
      </trkpt>
      <trkpt lat="44.09283" lon="7.03077">
        <ele>1551.41</ele>
        <time>2018-08-25T14:29:20Z</time>
      </trkpt>
      <trkpt lat="44.09287" lon="7.03039">
        <ele>1554.31</ele>
        <time>2018-08-25T14:29:21Z</time>
      </trkpt>
      <trkpt lat="44.09293" lon="7.03009">
        <ele>1557.28</ele>
        <time>2018-08-25T14:29:22Z</time>
      </trkpt>
      <trkpt lat="44.09297" lon="7.0298">
        <ele>1560.27</ele>
        <time>2018-08-25T14:29:23Z</time>
      </trkpt>
      <trkpt lat="44.09303" lon="7.0295">
        <ele>1561.86</ele>
        <time>2018-08-25T14:29:24Z</time>
      </trkpt>
      <trkpt lat="44.09303" lon="7.02916">
        <ele>1563.04</ele>
        <time>2018-08-25T14:29:25Z</time>
      </trkpt>
      <trkpt lat="44.09303" lon="7.02883">
        <ele>1564.1</ele>
        <time>2018-08-25T14:29:26Z</time>
      </trkpt>
      <trkpt lat="44.09295" lon="7.0286">
        <ele>1565.81</ele>
        <time>2018-08-25T14:29:27Z</time>
      </trkpt>
      <trkpt lat="44.09295" lon="7.02828">
        <ele>1568.43</ele>
        <time>2018-08-25T14:29:28Z</time>
      </trkpt>
      <trkpt lat="44.09301" lon="7.02793">
        <ele>1573.41</ele>
        <time>2018-08-25T14:29:29Z</time>
      </trkpt>
      <trkpt lat="44.09306" lon="7.0276">
        <ele>1577.01</ele>
        <time>2018-08-25T14:29:30Z</time>
      </trkpt>
      <trkpt lat="44.09311" lon="7.02729">
        <ele>1580.89</ele>
        <time>2018-08-25T14:29:31Z</time>
      </trkpt>
      <trkpt lat="44.09313" lon="7.02693">
        <ele>1584.85</ele>
        <time>2018-08-25T14:29:32Z</time>
      </trkpt>
      <trkpt lat="44.09312" lon="7.02662">
        <ele>1588.14</ele>
        <time>2018-08-25T14:29:33Z</time>
      </trkpt>
      <trkpt lat="44.09311" lon="7.02636">
        <ele>1590.53</ele>
        <time>2018-08-25T14:29:34Z</time>
      </trkpt>
      <trkpt lat="44.09316" lon="7.02601">
        <ele>1593.07</ele>
        <time>2018-08-25T14:29:36Z</time>
      </trkpt>
      <trkpt lat="44.09335" lon="7.02583">
        <ele>1592.69</ele>
        <time>2018-08-25T14:29:39Z</time>
      </trkpt>
      <trkpt lat="44.09377" lon="7.02617">
        <ele>1592.56</ele>
        <time>2018-08-25T14:29:41Z</time>
      </trkpt>
      <trkpt lat="44.09414" lon="7.02631">
        <ele>1594.16</ele>
        <time>2018-08-25T14:29:43Z</time>
      </trkpt>
      <trkpt lat="44.09435" lon="7.0263">
        <ele>1595.13</ele>
        <time>2018-08-25T14:29:44Z</time>
      </trkpt>
      <trkpt lat="44.09453" lon="7.02628">
        <ele>1596.12</ele>
        <time>2018-08-25T14:29:45Z</time>
      </trkpt>
      <trkpt lat="44.09472" lon="7.0262">
        <ele>1597.82</ele>
        <time>2018-08-25T14:29:46Z</time>
      </trkpt>
      <trkpt lat="44.09489" lon="7.02607">
        <ele>1598.33</ele>
        <time>2018-08-25T14:29:47Z</time>
      </trkpt>
      <trkpt lat="44.09507" lon="7.02583">
        <ele>1599.18</ele>
        <time>2018-08-25T14:29:48Z</time>
      </trkpt>
      <trkpt lat="44.09527" lon="7.02537">
        <ele>1600.14</ele>
        <time>2018-08-25T14:29:49Z</time>
      </trkpt>
      <trkpt lat="44.09545" lon="7.0251">
        <ele>1601.83</ele>
        <time>2018-08-25T14:29:50Z</time>
      </trkpt>
      <trkpt lat="44.09556" lon="7.02488">
        <ele>1604.43</ele>
        <time>2018-08-25T14:29:51Z</time>
      </trkpt>
      <trkpt lat="44.0957" lon="7.02469">
        <ele>1606.61</ele>
        <time>2018-08-25T14:29:52Z</time>
      </trkpt>
      <trkpt lat="44.096" lon="7.02446">
        <ele>1609.98</ele>
        <time>2018-08-25T14:29:54Z</time>
      </trkpt>
      <trkpt lat="44.09627" lon="7.02421">
        <ele>1616.24</ele>
        <time>2018-08-25T14:29:56Z</time>
      </trkpt>
      <trkpt lat="44.09644" lon="7.02401">
        <ele>1617.85</ele>
        <time>2018-08-25T14:29:57Z</time>
      </trkpt>
      <trkpt lat="44.09663" lon="7.02383">
        <ele>1619.74</ele>
        <time>2018-08-25T14:29:58Z</time>
      </trkpt>
      <trkpt lat="44.09679" lon="7.02365">
        <ele>1621.01</ele>
        <time>2018-08-25T14:29:59Z</time>
      </trkpt>
      <trkpt lat="44.09696" lon="7.02324">
        <ele>1623.81</ele>
        <time>2018-08-25T14:30:01Z</time>
      </trkpt>
      <trkpt lat="44.09708" lon="7.02293">
        <ele>1626.79</ele>
        <time>2018-08-25T14:30:03Z</time>
      </trkpt>
      <trkpt lat="44.0973" lon="7.02283">
        <ele>1630.7</ele>
        <time>2018-08-25T14:30:05Z</time>
      </trkpt>
      <trkpt lat="44.09762" lon="7.02283">
        <ele>1633.99</ele>
        <time>2018-08-25T14:30:07Z</time>
      </trkpt>
      <trkpt lat="44.0979" lon="7.02268">
        <ele>1636.11</ele>
        <time>2018-08-25T14:30:09Z</time>
      </trkpt>
      <trkpt lat="44.09815" lon="7.02267">
        <ele>1640.43</ele>
        <time>2018-08-25T14:30:11Z</time>
      </trkpt>
      <trkpt lat="44.09837" lon="7.02284">
        <ele>1643.76</ele>
        <time>2018-08-25T14:30:13Z</time>
      </trkpt>
      <trkpt lat="44.09866" lon="7.02304">
        <ele>1647.7</ele>
        <time>2018-08-25T14:30:15Z</time>
      </trkpt>
      <trkpt lat="44.09888" lon="7.02303">
        <ele>1648.29</ele>
        <time>2018-08-25T14:30:16Z</time>
      </trkpt>
      <trkpt lat="44.09915" lon="7.02328">
        <ele>1651.96</ele>
        <time>2018-08-25T14:30:18Z</time>
      </trkpt>
      <trkpt lat="44.09938" lon="7.02342">
        <ele>1655.71</ele>
        <time>2018-08-25T14:30:20Z</time>
      </trkpt>
      <trkpt lat="44.09964" lon="7.02336">
        <ele>1657.38</ele>
        <time>2018-08-25T14:30:22Z</time>
      </trkpt>
      <trkpt lat="44.09986" lon="7.02328">
        <ele>1659.6</ele>
        <time>2018-08-25T14:30:23Z</time>
      </trkpt>
      <trkpt lat="44.10007" lon="7.0232">
        <ele>1661.37</ele>
        <time>2018-08-25T14:30:25Z</time>
      </trkpt>
      <trkpt lat="44.10025" lon="7.02314">
        <ele>1669.55</ele>
        <time>2018-08-25T14:30:52Z</time>
      </trkpt>
      <trkpt lat="44.10045" lon="7.02292">
        <ele>1678.37</ele>
        <time>2018-08-25T14:35:05Z</time>
      </trkpt>
      <trkpt lat="44.10071" lon="7.02276">
        <ele>1674.35</ele>
        <time>2018-08-25T14:35:08Z</time>
      </trkpt>
      <trkpt lat="44.10093" lon="7.02266">
        <ele>1672.22</ele>
        <time>2018-08-25T14:35:10Z</time>
      </trkpt>
      <trkpt lat="44.10116" lon="7.0225">
        <ele>1670.91</ele>
        <time>2018-08-25T14:35:12Z</time>
      </trkpt>
      <trkpt lat="44.10132" lon="7.02225">
        <ele>1668.27</ele>
        <time>2018-08-25T14:35:14Z</time>
      </trkpt>
      <trkpt lat="44.1015" lon="7.02203">
        <ele>1665.3</ele>
        <time>2018-08-25T14:35:16Z</time>
      </trkpt>
      <trkpt lat="44.10172" lon="7.02188">
        <ele>1663.92</ele>
        <time>2018-08-25T14:35:18Z</time>
      </trkpt>
      <trkpt lat="44.102" lon="7.02183">
        <ele>1661.06</ele>
        <time>2018-08-25T14:35:20Z</time>
      </trkpt>
      <trkpt lat="44.10229" lon="7.02172">
        <ele>1657.16</ele>
        <time>2018-08-25T14:35:22Z</time>
      </trkpt>
      <trkpt lat="44.10254" lon="7.02155">
        <ele>1655.69</ele>
        <time>2018-08-25T14:35:24Z</time>
      </trkpt>
      <trkpt lat="44.10273" lon="7.02134">
        <ele>1654.65</ele>
        <time>2018-08-25T14:35:26Z</time>
      </trkpt>
      <trkpt lat="44.10284" lon="7.02111">
        <ele>1653.65</ele>
        <time>2018-08-25T14:35:28Z</time>
      </trkpt>
      <trkpt lat="44.10267" lon="7.02089">
        <ele>1651.46</ele>
        <time>2018-08-25T14:35:30Z</time>
      </trkpt>
      <trkpt lat="44.10235" lon="7.02089">
        <ele>1652.22</ele>
        <time>2018-08-25T14:35:31Z</time>
      </trkpt>
      <trkpt lat="44.10212" lon="7.02089">
        <ele>1649.51</ele>
        <time>2018-08-25T14:35:33Z</time>
      </trkpt>
      <trkpt lat="44.10193" lon="7.02089">
        <ele>1646.11</ele>
        <time>2018-08-25T14:35:35Z</time>
      </trkpt>
      <trkpt lat="44.10174" lon="7.02083">
        <ele>1643.78</ele>
        <time>2018-08-25T14:35:37Z</time>
      </trkpt>
      <trkpt lat="44.10154" lon="7.02069">
        <ele>1640.35</ele>
        <time>2018-08-25T14:35:39Z</time>
      </trkpt>
      <trkpt lat="44.10134" lon="7.02043">
        <ele>1638.01</ele>
        <time>2018-08-25T14:35:41Z</time>
      </trkpt>
      <trkpt lat="44.10119" lon="7.02011">
        <ele>1634.44</ele>
        <time>2018-08-25T14:35:43Z</time>
      </trkpt>
      <trkpt lat="44.10098" lon="7.01969">
        <ele>1634.54</ele>
        <time>2018-08-25T14:35:45Z</time>
      </trkpt>
      <trkpt lat="44.10087" lon="7.01949">
        <ele>1633.85</ele>
        <time>2018-08-25T14:35:46Z</time>
      </trkpt>
      <trkpt lat="44.10074" lon="7.01928">
        <ele>1633.64</ele>
        <time>2018-08-25T14:35:47Z</time>
      </trkpt>
      <trkpt lat="44.10059" lon="7.01909">
        <ele>1633.57</ele>
        <time>2018-08-25T14:35:48Z</time>
      </trkpt>
      <trkpt lat="44.10044" lon="7.0189">
        <ele>1632.86</ele>
        <time>2018-08-25T14:35:49Z</time>
      </trkpt>
      <trkpt lat="44.10027" lon="7.01872">
        <ele>1631.94</ele>
        <time>2018-08-25T14:35:50Z</time>
      </trkpt>
      <trkpt lat="44.10007" lon="7.01856">
        <ele>1630.97</ele>
        <time>2018-08-25T14:35:51Z</time>
      </trkpt>
      <trkpt lat="44.09987" lon="7.01848">
        <ele>1629.97</ele>
        <time>2018-08-25T14:35:52Z</time>
      </trkpt>
      <trkpt lat="44.09969" lon="7.01837">
        <ele>1628.98</ele>
        <time>2018-08-25T14:35:53Z</time>
      </trkpt>
      <trkpt lat="44.09955" lon="7.01817">
        <ele>1628.68</ele>
        <time>2018-08-25T14:35:54Z</time>
      </trkpt>
      <trkpt lat="44.09939" lon="7.018">
        <ele>1628.59</ele>
        <time>2018-08-25T14:35:55Z</time>
      </trkpt>
      <trkpt lat="44.09921" lon="7.01789">
        <ele>1628.56</ele>
        <time>2018-08-25T14:35:56Z</time>
      </trkpt>
      <trkpt lat="44.09903" lon="7.01778">
        <ele>1627.15</ele>
        <time>2018-08-25T14:35:57Z</time>
      </trkpt>
      <trkpt lat="44.09885" lon="7.01765">
        <ele>1626.73</ele>
        <time>2018-08-25T14:35:58Z</time>
      </trkpt>
      <trkpt lat="44.09868" lon="7.01749">
        <ele>1626.6</ele>
        <time>2018-08-25T14:35:59Z</time>
      </trkpt>
      <trkpt lat="44.09851" lon="7.01731">
        <ele>1626.56</ele>
        <time>2018-08-25T14:36:00Z</time>
      </trkpt>
      <trkpt lat="44.09835" lon="7.01712">
        <ele>1625.85</ele>
        <time>2018-08-25T14:36:01Z</time>
      </trkpt>
      <trkpt lat="44.09819" lon="7.01694">
        <ele>1624.94</ele>
        <time>2018-08-25T14:36:02Z</time>
      </trkpt>
      <trkpt lat="44.09805" lon="7.01677">
        <ele>1624.67</ele>
        <time>2018-08-25T14:36:03Z</time>
      </trkpt>
      <trkpt lat="44.09785" lon="7.01636">
        <ele>1622.74</ele>
        <time>2018-08-25T14:36:05Z</time>
      </trkpt>
      <trkpt lat="44.09778" lon="7.01609">
        <ele>1622.61</ele>
        <time>2018-08-25T14:36:06Z</time>
      </trkpt>
      <trkpt lat="44.09771" lon="7.01581">
        <ele>1622.57</ele>
        <time>2018-08-25T14:36:07Z</time>
      </trkpt>
      <trkpt lat="44.09763" lon="7.01551">
        <ele>1623.25</ele>
        <time>2018-08-25T14:36:08Z</time>
      </trkpt>
      <trkpt lat="44.09756" lon="7.01522">
        <ele>1624.16</ele>
        <time>2018-08-25T14:36:09Z</time>
      </trkpt>
      <trkpt lat="44.0975" lon="7.01492">
        <ele>1623.73</ele>
        <time>2018-08-25T14:36:10Z</time>
      </trkpt>
      <trkpt lat="44.09745" lon="7.01462">
        <ele>1622.9</ele>
        <time>2018-08-25T14:36:11Z</time>
      </trkpt>
      <trkpt lat="44.0974" lon="7.01431">
        <ele>1623.35</ele>
        <time>2018-08-25T14:36:12Z</time>
      </trkpt>
      <trkpt lat="44.09737" lon="7.01402">
        <ele>1623.49</ele>
        <time>2018-08-25T14:36:13Z</time>
      </trkpt>
      <trkpt lat="44.09732" lon="7.01371">
        <ele>1623.53</ele>
        <time>2018-08-25T14:36:14Z</time>
      </trkpt>
      <trkpt lat="44.09727" lon="7.01342">
        <ele>1624.24</ele>
        <time>2018-08-25T14:36:15Z</time>
      </trkpt>
      <trkpt lat="44.09719" lon="7.01315">
        <ele>1623.76</ele>
        <time>2018-08-25T14:36:16Z</time>
      </trkpt>
      <trkpt lat="44.09709" lon="7.01289">
        <ele>1622.91</ele>
        <time>2018-08-25T14:36:17Z</time>
      </trkpt>
      <trkpt lat="44.09699" lon="7.01263">
        <ele>1622.66</ele>
        <time>2018-08-25T14:36:18Z</time>
      </trkpt>
      <trkpt lat="44.09689" lon="7.01237">
        <ele>1621.88</ele>
        <time>2018-08-25T14:36:19Z</time>
      </trkpt>
      <trkpt lat="44.0968" lon="7.01213">
        <ele>1620.95</ele>
        <time>2018-08-25T14:36:20Z</time>
      </trkpt>
      <trkpt lat="44.0967" lon="7.01186">
        <ele>1620.67</ele>
        <time>2018-08-25T14:36:21Z</time>
      </trkpt>
      <trkpt lat="44.0966" lon="7.01158">
        <ele>1619.88</ele>
        <time>2018-08-25T14:36:22Z</time>
      </trkpt>
      <trkpt lat="44.0965" lon="7.01131">
        <ele>1618.95</ele>
        <time>2018-08-25T14:36:23Z</time>
      </trkpt>
      <trkpt lat="44.09639" lon="7.01105">
        <ele>1618.67</ele>
        <time>2018-08-25T14:36:24Z</time>
      </trkpt>
      <trkpt lat="44.09628" lon="7.01078">
        <ele>1618.58</ele>
        <time>2018-08-25T14:36:25Z</time>
      </trkpt>
      <trkpt lat="44.09617" lon="7.01052">
        <ele>1616.46</ele>
        <time>2018-08-25T14:36:26Z</time>
      </trkpt>
      <trkpt lat="44.09606" lon="7.01025">
        <ele>1616.52</ele>
        <time>2018-08-25T14:36:27Z</time>
      </trkpt>
      <trkpt lat="44.09597" lon="7.00995">
        <ele>1615.84</ele>
        <time>2018-08-25T14:36:28Z</time>
      </trkpt>
      <trkpt lat="44.09589" lon="7.00965">
        <ele>1615.64</ele>
        <time>2018-08-25T14:36:29Z</time>
      </trkpt>
      <trkpt lat="44.09581" lon="7.00937">
        <ele>1614.87</ele>
        <time>2018-08-25T14:36:30Z</time>
      </trkpt>
      <trkpt lat="44.09572" lon="7.00909">
        <ele>1615.35</ele>
        <time>2018-08-25T14:36:31Z</time>
      </trkpt>
      <trkpt lat="44.09559" lon="7.00884">
        <ele>1615.49</ele>
        <time>2018-08-25T14:36:32Z</time>
      </trkpt>
      <trkpt lat="44.09544" lon="7.0086">
        <ele>1616.23</ele>
        <time>2018-08-25T14:36:33Z</time>
      </trkpt>
      <trkpt lat="44.09529" lon="7.00835">
        <ele>1617.15</ele>
        <time>2018-08-25T14:36:34Z</time>
      </trkpt>
      <trkpt lat="44.09516" lon="7.0081">
        <ele>1617.43</ele>
        <time>2018-08-25T14:36:35Z</time>
      </trkpt>
      <trkpt lat="44.09505" lon="7.00783">
        <ele>1617.51</ele>
        <time>2018-08-25T14:36:36Z</time>
      </trkpt>
      <trkpt lat="44.09496" lon="7.00756">
        <ele>1616.84</ele>
        <time>2018-08-25T14:36:37Z</time>
      </trkpt>
      <trkpt lat="44.09485" lon="7.00731">
        <ele>1615.93</ele>
        <time>2018-08-25T14:36:38Z</time>
      </trkpt>
      <trkpt lat="44.0947" lon="7.00707">
        <ele>1614.96</ele>
        <time>2018-08-25T14:36:39Z</time>
      </trkpt>
      <trkpt lat="44.09454" lon="7.00683">
        <ele>1614.67</ele>
        <time>2018-08-25T14:36:40Z</time>
      </trkpt>
      <trkpt lat="44.09438" lon="7.0066">
        <ele>1614.59</ele>
        <time>2018-08-25T14:36:41Z</time>
      </trkpt>
      <trkpt lat="44.09422" lon="7.00636">
        <ele>1614.56</ele>
        <time>2018-08-25T14:36:42Z</time>
      </trkpt>
      <trkpt lat="44.09407" lon="7.0061">
        <ele>1614.55</ele>
        <time>2018-08-25T14:36:43Z</time>
      </trkpt>
      <trkpt lat="44.09391" lon="7.00583">
        <ele>1614.55</ele>
        <time>2018-08-25T14:36:44Z</time>
      </trkpt>
      <trkpt lat="44.09379" lon="7.00559">
        <ele>1611.05</ele>
        <time>2018-08-25T14:36:45Z</time>
      </trkpt>
      <trkpt lat="44.09367" lon="7.00532">
        <ele>1610</ele>
        <time>2018-08-25T14:36:46Z</time>
      </trkpt>
      <trkpt lat="44.09354" lon="7.00505">
        <ele>1610.38</ele>
        <time>2018-08-25T14:36:47Z</time>
      </trkpt>
      <trkpt lat="44.09345" lon="7.00476">
        <ele>1609.8</ele>
        <time>2018-08-25T14:36:48Z</time>
      </trkpt>
      <trkpt lat="44.09335" lon="7.00448">
        <ele>1610.32</ele>
        <time>2018-08-25T14:36:49Z</time>
      </trkpt>
      <trkpt lat="44.09327" lon="7.00421">
        <ele>1610.48</ele>
        <time>2018-08-25T14:36:50Z</time>
      </trkpt>
      <trkpt lat="44.09319" lon="7.00398">
        <ele>1609.13</ele>
        <time>2018-08-25T14:36:51Z</time>
      </trkpt>
      <trkpt lat="44.09293" lon="7.00364">
        <ele>1609.3</ele>
        <time>2018-08-25T14:36:53Z</time>
      </trkpt>
      <trkpt lat="44.09279" lon="7.00346">
        <ele>1608.77</ele>
        <time>2018-08-25T14:36:54Z</time>
      </trkpt>
      <trkpt lat="44.09266" lon="7.00327">
        <ele>1608.62</ele>
        <time>2018-08-25T14:36:55Z</time>
      </trkpt>
      <trkpt lat="44.09252" lon="7.00308">
        <ele>1609.27</ele>
        <time>2018-08-25T14:36:56Z</time>
      </trkpt>
      <trkpt lat="44.0924" lon="7.00286">
        <ele>1610.16</ele>
        <time>2018-08-25T14:36:57Z</time>
      </trkpt>
      <trkpt lat="44.09226" lon="7.00249">
        <ele>1609.39</ele>
        <time>2018-08-25T14:36:59Z</time>
      </trkpt>
      <trkpt lat="44.0922" lon="7.00221">
        <ele>1608.62</ele>
        <time>2018-08-25T14:37:01Z</time>
      </trkpt>
      <trkpt lat="44.09239" lon="7.00196">
        <ele>1604.7</ele>
        <time>2018-08-25T14:37:03Z</time>
      </trkpt>
      <trkpt lat="44.09262" lon="7.00172">
        <ele>1600.64</ele>
        <time>2018-08-25T14:37:05Z</time>
      </trkpt>
      <trkpt lat="44.0929" lon="7.00148">
        <ele>1598.04</ele>
        <time>2018-08-25T14:37:07Z</time>
      </trkpt>
      <trkpt lat="44.09307" lon="7.00135">
        <ele>1597.69</ele>
        <time>2018-08-25T14:37:08Z</time>
      </trkpt>
      <trkpt lat="44.09324" lon="7.00123">
        <ele>1598.29</ele>
        <time>2018-08-25T14:37:09Z</time>
      </trkpt>
      <trkpt lat="44.09342" lon="7.00111">
        <ele>1598.47</ele>
        <time>2018-08-25T14:37:10Z</time>
      </trkpt>
      <trkpt lat="44.09376" lon="7.00098">
        <ele>1597.63</ele>
        <time>2018-08-25T14:37:12Z</time>
      </trkpt>
      <trkpt lat="44.09412" lon="7.00092">
        <ele>1596.86</ele>
        <time>2018-08-25T14:37:14Z</time>
      </trkpt>
      <trkpt lat="44.09431" lon="7.00101">
        <ele>1596.64</ele>
        <time>2018-08-25T14:37:15Z</time>
      </trkpt>
      <trkpt lat="44.09449" lon="7.00104">
        <ele>1597.28</ele>
        <time>2018-08-25T14:37:16Z</time>
      </trkpt>
      <trkpt lat="44.0947" lon="7.00107">
        <ele>1597.47</ele>
        <time>2018-08-25T14:37:17Z</time>
      </trkpt>
      <trkpt lat="44.09491" lon="7.00102">
        <ele>1595.42</ele>
        <time>2018-08-25T14:37:18Z</time>
      </trkpt>
      <trkpt lat="44.09513" lon="7.00101">
        <ele>1595.51</ele>
        <time>2018-08-25T14:37:19Z</time>
      </trkpt>
      <trkpt lat="44.09532" lon="7.001">
        <ele>1594.84</ele>
        <time>2018-08-25T14:37:20Z</time>
      </trkpt>
      <trkpt lat="44.09551" lon="7.00098">
        <ele>1595.33</ele>
        <time>2018-08-25T14:37:21Z</time>
      </trkpt>
      <trkpt lat="44.09567" lon="7.00114">
        <ele>1594.08</ele>
        <time>2018-08-25T14:37:22Z</time>
      </trkpt>
      <trkpt lat="44.09586" lon="7.00122">
        <ele>1593.01</ele>
        <time>2018-08-25T14:37:23Z</time>
      </trkpt>
      <trkpt lat="44.09603" lon="7.00138">
        <ele>1591.99</ele>
        <time>2018-08-25T14:37:24Z</time>
      </trkpt>
      <trkpt lat="44.09624" lon="7.00146">
        <ele>1590.98</ele>
        <time>2018-08-25T14:37:25Z</time>
      </trkpt>
      <trkpt lat="44.09646" lon="7.00154">
        <ele>1589.98</ele>
        <time>2018-08-25T14:37:26Z</time>
      </trkpt>
      <trkpt lat="44.09668" lon="7.00161">
        <ele>1589.68</ele>
        <time>2018-08-25T14:37:27Z</time>
      </trkpt>
      <trkpt lat="44.09694" lon="7.00163">
        <ele>1587.49</ele>
        <time>2018-08-25T14:37:28Z</time>
      </trkpt>
      <trkpt lat="44.09716" lon="7.00178">
        <ele>1584.73</ele>
        <time>2018-08-25T14:37:29Z</time>
      </trkpt>
      <trkpt lat="44.09739" lon="7.00193">
        <ele>1583.2</ele>
        <time>2018-08-25T14:37:30Z</time>
      </trkpt>
      <trkpt lat="44.09757" lon="7.00212">
        <ele>1582.04</ele>
        <time>2018-08-25T14:37:31Z</time>
      </trkpt>
      <trkpt lat="44.09778" lon="7.00232">
        <ele>1579.6</ele>
        <time>2018-08-25T14:37:32Z</time>
      </trkpt>
      <trkpt lat="44.09799" lon="7.00249">
        <ele>1578.86</ele>
        <time>2018-08-25T14:37:33Z</time>
      </trkpt>
      <trkpt lat="44.0982" lon="7.00267">
        <ele>1579.34</ele>
        <time>2018-08-25T14:37:34Z</time>
      </trkpt>
      <trkpt lat="44.09842" lon="7.00284">
        <ele>1579.49</ele>
        <time>2018-08-25T14:37:35Z</time>
      </trkpt>
      <trkpt lat="44.09863" lon="7.00302">
        <ele>1578.83</ele>
        <time>2018-08-25T14:37:36Z</time>
      </trkpt>
      <trkpt lat="44.09884" lon="7.00321">
        <ele>1579.33</ele>
        <time>2018-08-25T14:37:37Z</time>
      </trkpt>
      <trkpt lat="44.09905" lon="7.00346">
        <ele>1577.38</ele>
        <time>2018-08-25T14:37:38Z</time>
      </trkpt>
      <trkpt lat="44.09925" lon="7.0037">
        <ele>1576.8</ele>
        <time>2018-08-25T14:37:39Z</time>
      </trkpt>
      <trkpt lat="44.09947" lon="7.00394">
        <ele>1575.92</ele>
        <time>2018-08-25T14:37:40Z</time>
      </trkpt>
      <trkpt lat="44.09966" lon="7.0042">
        <ele>1575.66</ele>
        <time>2018-08-25T14:37:41Z</time>
      </trkpt>
      <trkpt lat="44.09987" lon="7.00445">
        <ele>1575.58</ele>
        <time>2018-08-25T14:37:42Z</time>
      </trkpt>
      <trkpt lat="44.10014" lon="7.0047">
        <ele>1574.86</ele>
        <time>2018-08-25T14:37:43Z</time>
      </trkpt>
      <trkpt lat="44.10039" lon="7.00497">
        <ele>1573.24</ele>
        <time>2018-08-25T14:37:44Z</time>
      </trkpt>
      <trkpt lat="44.10063" lon="7.00517">
        <ele>1572.76</ele>
        <time>2018-08-25T14:37:45Z</time>
      </trkpt>
      <trkpt lat="44.10085" lon="7.00537">
        <ele>1571.21</ele>
        <time>2018-08-25T14:37:46Z</time>
      </trkpt>
      <trkpt lat="44.10109" lon="7.00554">
        <ele>1570.05</ele>
        <time>2018-08-25T14:37:47Z</time>
      </trkpt>
      <trkpt lat="44.10133" lon="7.00569">
        <ele>1570.4</ele>
        <time>2018-08-25T14:37:48Z</time>
      </trkpt>
      <trkpt lat="44.10154" lon="7.00583">
        <ele>1569.8</ele>
        <time>2018-08-25T14:37:49Z</time>
      </trkpt>
      <trkpt lat="44.10175" lon="7.00597">
        <ele>1569.62</ele>
        <time>2018-08-25T14:37:50Z</time>
      </trkpt>
      <trkpt lat="44.10203" lon="7.00603">
        <ele>1571.16</ele>
        <time>2018-08-25T14:37:52Z</time>
      </trkpt>
      <trkpt lat="44.10212" lon="7.00579">
        <ele>1569.41</ele>
        <time>2018-08-25T14:37:54Z</time>
      </trkpt>
      <trkpt lat="44.10202" lon="7.00544">
        <ele>1567.72</ele>
        <time>2018-08-25T14:37:56Z</time>
      </trkpt>
      <trkpt lat="44.10187" lon="7.00532">
        <ele>1568.3</ele>
        <time>2018-08-25T14:37:57Z</time>
      </trkpt>
      <trkpt lat="44.10147" lon="7.00499">
        <ele>1571.27</ele>
        <time>2018-08-25T14:37:58Z</time>
      </trkpt>
      <trkpt lat="44.10132" lon="7.00478">
        <ele>1572.87</ele>
        <time>2018-08-25T14:37:59Z</time>
      </trkpt>
      <trkpt lat="44.1012" lon="7.00455">
        <ele>1574.04</ele>
        <time>2018-08-25T14:38:00Z</time>
      </trkpt>
      <trkpt lat="44.10109" lon="7.00429">
        <ele>1574.4</ele>
        <time>2018-08-25T14:38:01Z</time>
      </trkpt>
      <trkpt lat="44.10099" lon="7.00403">
        <ele>1575.9</ele>
        <time>2018-08-25T14:38:02Z</time>
      </trkpt>
      <trkpt lat="44.10089" lon="7.00375">
        <ele>1576.35</ele>
        <time>2018-08-25T14:38:03Z</time>
      </trkpt>
      <trkpt lat="44.10079" lon="7.00347">
        <ele>1577.19</ele>
        <time>2018-08-25T14:38:04Z</time>
      </trkpt>
      <trkpt lat="44.10071" lon="7.00316">
        <ele>1577.44</ele>
        <time>2018-08-25T14:38:05Z</time>
      </trkpt>
      <trkpt lat="44.10063" lon="7.00284">
        <ele>1577.52</ele>
        <time>2018-08-25T14:38:06Z</time>
      </trkpt>
      <trkpt lat="44.10056" lon="7.00251">
        <ele>1576.84</ele>
        <time>2018-08-25T14:38:07Z</time>
      </trkpt>
      <trkpt lat="44.10047" lon="7.00217">
        <ele>1577.34</ele>
        <time>2018-08-25T14:38:08Z</time>
      </trkpt>
      <trkpt lat="44.10037" lon="7.00183">
        <ele>1578.18</ele>
        <time>2018-08-25T14:38:09Z</time>
      </trkpt>
      <trkpt lat="44.10028" lon="7.00152">
        <ele>1579.84</ele>
        <time>2018-08-25T14:38:10Z</time>
      </trkpt>
      <trkpt lat="44.10019" lon="7.0012">
        <ele>1581.74</ele>
        <time>2018-08-25T14:38:11Z</time>
      </trkpt>
      <trkpt lat="44.10009" lon="7.0009">
        <ele>1582.3</ele>
        <time>2018-08-25T14:38:12Z</time>
      </trkpt>
      <trkpt lat="44.09997" lon="7.00065">
        <ele>1583.17</ele>
        <time>2018-08-25T14:38:13Z</time>
      </trkpt>
      <trkpt lat="44.09984" lon="7.00037">
        <ele>1584.14</ele>
        <time>2018-08-25T14:38:14Z</time>
      </trkpt>
      <trkpt lat="44.09969" lon="7.0001">
        <ele>1585.12</ele>
        <time>2018-08-25T14:38:15Z</time>
      </trkpt>
      <trkpt lat="44.09954" lon="6.99984">
        <ele>1585.42</ele>
        <time>2018-08-25T14:38:16Z</time>
      </trkpt>
      <trkpt lat="44.09939" lon="6.99962">
        <ele>1585.51</ele>
        <time>2018-08-25T14:38:17Z</time>
      </trkpt>
      <trkpt lat="44.09928" lon="6.9994">
        <ele>1583.44</ele>
        <time>2018-08-25T14:38:18Z</time>
      </trkpt>
      <trkpt lat="44.09917" lon="6.99914">
        <ele>1582.81</ele>
        <time>2018-08-25T14:38:19Z</time>
      </trkpt>
      <trkpt lat="44.09907" lon="6.99886">
        <ele>1581.93</ele>
        <time>2018-08-25T14:38:20Z</time>
      </trkpt>
      <trkpt lat="44.09889" lon="6.99859">
        <ele>1581.66</ele>
        <time>2018-08-25T14:38:21Z</time>
      </trkpt>
      <trkpt lat="44.09872" lon="6.99833">
        <ele>1580.88</ele>
        <time>2018-08-25T14:38:22Z</time>
      </trkpt>
      <trkpt lat="44.09854" lon="6.99808">
        <ele>1579.25</ele>
        <time>2018-08-25T14:38:23Z</time>
      </trkpt>
      <trkpt lat="44.09833" lon="6.99784">
        <ele>1578.76</ele>
        <time>2018-08-25T14:38:24Z</time>
      </trkpt>
      <trkpt lat="44.09813" lon="6.99763">
        <ele>1577.91</ele>
        <time>2018-08-25T14:38:25Z</time>
      </trkpt>
      <trkpt lat="44.09795" lon="6.99747">
        <ele>1576.26</ele>
        <time>2018-08-25T14:38:26Z</time>
      </trkpt>
      <trkpt lat="44.09778" lon="6.99732">
        <ele>1575.06</ele>
        <time>2018-08-25T14:38:27Z</time>
      </trkpt>
      <trkpt lat="44.09756" lon="6.99705">
        <ele>1571.16</ele>
        <time>2018-08-25T14:38:29Z</time>
      </trkpt>
      <trkpt lat="44.09748" lon="6.99671">
        <ele>1564.86</ele>
        <time>2018-08-25T14:38:31Z</time>
      </trkpt>
      <trkpt lat="44.09758" lon="6.99639">
        <ele>1555.71</ele>
        <time>2018-08-25T14:38:34Z</time>
      </trkpt>
      <trkpt lat="44.0978" lon="6.99618">
        <ele>1553.5</ele>
        <time>2018-08-25T14:38:35Z</time>
      </trkpt>
      <trkpt lat="44.09802" lon="6.99608">
        <ele>1550.03</ele>
        <time>2018-08-25T14:38:36Z</time>
      </trkpt>
      <trkpt lat="44.0982" lon="6.99593">
        <ele>1547.59</ele>
        <time>2018-08-25T14:38:37Z</time>
      </trkpt>
      <trkpt lat="44.09838" lon="6.99576">
        <ele>1546.86</ele>
        <time>2018-08-25T14:38:38Z</time>
      </trkpt>
      <trkpt lat="44.09866" lon="6.99541">
        <ele>1542.66</ele>
        <time>2018-08-25T14:38:40Z</time>
      </trkpt>
      <trkpt lat="44.0988" lon="6.99524">
        <ele>1541.18</ele>
        <time>2018-08-25T14:38:41Z</time>
      </trkpt>
      <trkpt lat="44.09905" lon="6.9951">
        <ele>1540.81</ele>
        <time>2018-08-25T14:38:43Z</time>
      </trkpt>
      <trkpt lat="44.09952" lon="6.99541">
        <ele>1537.77</ele>
        <time>2018-08-25T14:38:45Z</time>
      </trkpt>
      <trkpt lat="44.09976" lon="6.99551">
        <ele>1534.12</ele>
        <time>2018-08-25T14:38:46Z</time>
      </trkpt>
      <trkpt lat="44.09998" lon="6.99559">
        <ele>1532.32</ele>
        <time>2018-08-25T14:38:47Z</time>
      </trkpt>
      <trkpt lat="44.10019" lon="6.99567">
        <ele>1531.08</ele>
        <time>2018-08-25T14:38:48Z</time>
      </trkpt>
      <trkpt lat="44.10038" lon="6.99573">
        <ele>1530.71</ele>
        <time>2018-08-25T14:38:49Z</time>
      </trkpt>
      <trkpt lat="44.10055" lon="6.99587">
        <ele>1529.9</ele>
        <time>2018-08-25T14:38:50Z</time>
      </trkpt>
      <trkpt lat="44.10072" lon="6.99597">
        <ele>1528.95</ele>
        <time>2018-08-25T14:38:51Z</time>
      </trkpt>
      <trkpt lat="44.101" lon="6.99616">
        <ele>1523.82</ele>
        <time>2018-08-25T14:38:53Z</time>
      </trkpt>
      <trkpt lat="44.1013" lon="6.9963">
        <ele>1523.78</ele>
        <time>2018-08-25T14:38:55Z</time>
      </trkpt>
      <trkpt lat="44.10164" lon="6.99635">
        <ele>1522.66</ele>
        <time>2018-08-25T14:38:57Z</time>
      </trkpt>
      <trkpt lat="44.10195" lon="6.99635">
        <ele>1521.16</ele>
        <time>2018-08-25T14:38:59Z</time>
      </trkpt>
      <trkpt lat="44.10228" lon="6.9963">
        <ele>1519.9</ele>
        <time>2018-08-25T14:39:01Z</time>
      </trkpt>
      <trkpt lat="44.10254" lon="6.99617">
        <ele>1516.15</ele>
        <time>2018-08-25T14:39:03Z</time>
      </trkpt>
      <trkpt lat="44.10257" lon="6.99585">
        <ele>1511.59</ele>
        <time>2018-08-25T14:39:06Z</time>
      </trkpt>
      <trkpt lat="44.10239" lon="6.99557">
        <ele>1507.42</ele>
        <time>2018-08-25T14:39:08Z</time>
      </trkpt>
      <trkpt lat="44.10217" lon="6.99523">
        <ele>1506.63</ele>
        <time>2018-08-25T14:39:10Z</time>
      </trkpt>
      <trkpt lat="44.102" lon="6.99485">
        <ele>1503.34</ele>
        <time>2018-08-25T14:39:12Z</time>
      </trkpt>
      <trkpt lat="44.10189" lon="6.9945">
        <ele>1499.61</ele>
        <time>2018-08-25T14:39:14Z</time>
      </trkpt>
      <trkpt lat="44.10193" lon="6.99408">
        <ele>1497.45</ele>
        <time>2018-08-25T14:39:16Z</time>
      </trkpt>
      <trkpt lat="44.10196" lon="6.99382">
        <ele>1494.02</ele>
        <time>2018-08-25T14:39:17Z</time>
      </trkpt>
      <trkpt lat="44.10192" lon="6.99338">
        <ele>1488.55</ele>
        <time>2018-08-25T14:39:19Z</time>
      </trkpt>
      <trkpt lat="44.10175" lon="6.99308">
        <ele>1487.43</ele>
        <time>2018-08-25T14:39:21Z</time>
      </trkpt>
      <trkpt lat="44.10153" lon="6.99296">
        <ele>1483.41</ele>
        <time>2018-08-25T14:39:23Z</time>
      </trkpt>
      <trkpt lat="44.1013" lon="6.99323">
        <ele>1483.33</ele>
        <time>2018-08-25T14:39:25Z</time>
      </trkpt>
      <trkpt lat="44.10104" lon="6.99335">
        <ele>1483.74</ele>
        <time>2018-08-25T14:39:27Z</time>
      </trkpt>
      <trkpt lat="44.10082" lon="6.99328">
        <ele>1482.17</ele>
        <time>2018-08-25T14:39:29Z</time>
      </trkpt>
      <trkpt lat="44.10072" lon="6.99308">
        <ele>1481.73</ele>
        <time>2018-08-25T14:39:30Z</time>
      </trkpt>
      <trkpt lat="44.10077" lon="6.99271">
        <ele>1480.86</ele>
        <time>2018-08-25T14:39:32Z</time>
      </trkpt>
      <trkpt lat="44.10097" lon="6.99246">
        <ele>1480.58</ele>
        <time>2018-08-25T14:39:34Z</time>
      </trkpt>
      <trkpt lat="44.10125" lon="6.99221">
        <ele>1480.76</ele>
        <time>2018-08-25T14:39:36Z</time>
      </trkpt>
      <trkpt lat="44.10142" lon="6.99206">
        <ele>1478.51</ele>
        <time>2018-08-25T14:39:37Z</time>
      </trkpt>
      <trkpt lat="44.10169" lon="6.99179">
        <ele>1477.63</ele>
        <time>2018-08-25T14:39:39Z</time>
      </trkpt>
      <trkpt lat="44.10185" lon="6.99161">
        <ele>1476.87</ele>
        <time>2018-08-25T14:39:40Z</time>
      </trkpt>
      <trkpt lat="44.102" lon="6.99142">
        <ele>1476.65</ele>
        <time>2018-08-25T14:39:41Z</time>
      </trkpt>
      <trkpt lat="44.10212" lon="6.99122">
        <ele>1475.88</ele>
        <time>2018-08-25T14:39:42Z</time>
      </trkpt>
      <trkpt lat="44.10224" lon="6.99102">
        <ele>1474.25</ele>
        <time>2018-08-25T14:39:43Z</time>
      </trkpt>
      <trkpt lat="44.10235" lon="6.99081">
        <ele>1473.06</ele>
        <time>2018-08-25T14:39:44Z</time>
      </trkpt>
      <trkpt lat="44.10248" lon="6.99059">
        <ele>1471.3</ele>
        <time>2018-08-25T14:39:45Z</time>
      </trkpt>
      <trkpt lat="44.10261" lon="6.99037">
        <ele>1470.07</ele>
        <time>2018-08-25T14:39:46Z</time>
      </trkpt>
      <trkpt lat="44.10273" lon="6.99016">
        <ele>1467.61</ele>
        <time>2018-08-25T14:39:47Z</time>
      </trkpt>
      <trkpt lat="44.10284" lon="6.98996">
        <ele>1466.87</ele>
        <time>2018-08-25T14:39:48Z</time>
      </trkpt>
      <trkpt lat="44.10294" lon="6.98975">
        <ele>1465.94</ele>
        <time>2018-08-25T14:39:49Z</time>
      </trkpt>
      <trkpt lat="44.10305" lon="6.98955">
        <ele>1462.17</ele>
        <time>2018-08-25T14:39:50Z</time>
      </trkpt>
      <trkpt lat="44.10323" lon="6.98913">
        <ele>1459.08</ele>
        <time>2018-08-25T14:39:52Z</time>
      </trkpt>
      <trkpt lat="44.1034" lon="6.98872">
        <ele>1455.17</ele>
        <time>2018-08-25T14:39:54Z</time>
      </trkpt>
      <trkpt lat="44.10358" lon="6.98833">
        <ele>1453.69</ele>
        <time>2018-08-25T14:39:56Z</time>
      </trkpt>
      <trkpt lat="44.10368" lon="6.98807">
        <ele>1453.56</ele>
        <time>2018-08-25T14:39:58Z</time>
      </trkpt>
      <trkpt lat="44.10385" lon="6.98789">
        <ele>1452.15</ele>
        <time>2018-08-25T14:40:00Z</time>
      </trkpt>
      <trkpt lat="44.10405" lon="6.98778">
        <ele>1448.59</ele>
        <time>2018-08-25T14:40:02Z</time>
      </trkpt>
      <trkpt lat="44.10427" lon="6.98771">
        <ele>1446.73</ele>
        <time>2018-08-25T14:40:04Z</time>
      </trkpt>
      <trkpt lat="44.10446" lon="6.98771">
        <ele>1444.25</ele>
        <time>2018-08-25T14:40:06Z</time>
      </trkpt>
      <trkpt lat="44.10465" lon="6.9877">
        <ele>1444.52</ele>
        <time>2018-08-25T14:40:08Z</time>
      </trkpt>
      <trkpt lat="44.10488" lon="6.98759">
        <ele>1443.36</ele>
        <time>2018-08-25T14:40:11Z</time>
      </trkpt>
      <trkpt lat="44.10499" lon="6.98726">
        <ele>1443.61</ele>
        <time>2018-08-25T14:40:14Z</time>
      </trkpt>
      <trkpt lat="44.10498" lon="6.98696">
        <ele>1442.85</ele>
        <time>2018-08-25T14:40:16Z</time>
      </trkpt>
      <trkpt lat="44.10486" lon="6.98673">
        <ele>1444.19</ele>
        <time>2018-08-25T14:40:18Z</time>
      </trkpt>
      <trkpt lat="44.10466" lon="6.98659">
        <ele>1443.61</ele>
        <time>2018-08-25T14:40:20Z</time>
      </trkpt>
      <trkpt lat="44.10439" lon="6.98649">
        <ele>1443.34</ele>
        <time>2018-08-25T14:40:22Z</time>
      </trkpt>
      <trkpt lat="44.10407" lon="6.98642">
        <ele>1440.8</ele>
        <time>2018-08-25T14:40:24Z</time>
      </trkpt>
      <trkpt lat="44.10372" lon="6.98637">
        <ele>1436.86</ele>
        <time>2018-08-25T14:40:26Z</time>
      </trkpt>
      <trkpt lat="44.10353" lon="6.98635">
        <ele>1434.54</ele>
        <time>2018-08-25T14:40:27Z</time>
      </trkpt>
      <trkpt lat="44.10333" lon="6.98636">
        <ele>1431.05</ele>
        <time>2018-08-25T14:40:28Z</time>
      </trkpt>
      <trkpt lat="44.10314" lon="6.98636">
        <ele>1430</ele>
        <time>2018-08-25T14:40:29Z</time>
      </trkpt>
      <trkpt lat="44.10293" lon="6.98638">
        <ele>1428.28</ele>
        <time>2018-08-25T14:40:30Z</time>
      </trkpt>
      <trkpt lat="44.10273" lon="6.9864">
        <ele>1425.67</ele>
        <time>2018-08-25T14:40:31Z</time>
      </trkpt>
      <trkpt lat="44.10251" lon="6.98643">
        <ele>1424.18</ele>
        <time>2018-08-25T14:40:32Z</time>
      </trkpt>
      <trkpt lat="44.10229" lon="6.98648">
        <ele>1423.04</ele>
        <time>2018-08-25T14:40:33Z</time>
      </trkpt>
      <trkpt lat="44.10207" lon="6.98654">
        <ele>1422.7</ele>
        <time>2018-08-25T14:40:34Z</time>
      </trkpt>
      <trkpt lat="44.10186" lon="6.98661">
        <ele>1421.19</ele>
        <time>2018-08-25T14:40:35Z</time>
      </trkpt>
      <trkpt lat="44.10164" lon="6.98669">
        <ele>1419.34</ele>
        <time>2018-08-25T14:40:36Z</time>
      </trkpt>
      <trkpt lat="44.10143" lon="6.98678">
        <ele>1418.79</ele>
        <time>2018-08-25T14:40:37Z</time>
      </trkpt>
      <trkpt lat="44.10121" lon="6.98689">
        <ele>1417.22</ele>
        <time>2018-08-25T14:40:38Z</time>
      </trkpt>
      <trkpt lat="44.10099" lon="6.98701">
        <ele>1415.35</ele>
        <time>2018-08-25T14:40:39Z</time>
      </trkpt>
      <trkpt lat="44.10079" lon="6.98711">
        <ele>1414.79</ele>
        <time>2018-08-25T14:40:40Z</time>
      </trkpt>
      <trkpt lat="44.1006" lon="6.98721">
        <ele>1413.92</ele>
        <time>2018-08-25T14:40:41Z</time>
      </trkpt>
      <trkpt lat="44.10027" lon="6.98732">
        <ele>1414.28</ele>
        <time>2018-08-25T14:40:43Z</time>
      </trkpt>
      <trkpt lat="44.09995" lon="6.98731">
        <ele>1415.43</ele>
        <time>2018-08-25T14:40:45Z</time>
      </trkpt>
      <trkpt lat="44.09964" lon="6.98723">
        <ele>1414.42</ele>
        <time>2018-08-25T14:40:47Z</time>
      </trkpt>
      <trkpt lat="44.0993" lon="6.98717">
        <ele>1417.06</ele>
        <time>2018-08-25T14:40:49Z</time>
      </trkpt>
      <trkpt lat="44.09896" lon="6.98716">
        <ele>1418.9</ele>
        <time>2018-08-25T14:40:51Z</time>
      </trkpt>
      <trkpt lat="44.09863" lon="6.98717">
        <ele>1420.89</ele>
        <time>2018-08-25T14:40:53Z</time>
      </trkpt>
      <trkpt lat="44.0983" lon="6.98716">
        <ele>1422.19</ele>
        <time>2018-08-25T14:40:55Z</time>
      </trkpt>
      <trkpt lat="44.09796" lon="6.98714">
        <ele>1423.92</ele>
        <time>2018-08-25T14:40:57Z</time>
      </trkpt>
      <trkpt lat="44.09766" lon="6.98706">
        <ele>1425.89</ele>
        <time>2018-08-25T14:40:59Z</time>
      </trkpt>
      <trkpt lat="44.09737" lon="6.98695">
        <ele>1427.4</ele>
        <time>2018-08-25T14:41:01Z</time>
      </trkpt>
      <trkpt lat="44.09711" lon="6.98688">
        <ele>1430.75</ele>
        <time>2018-08-25T14:41:03Z</time>
      </trkpt>
      <trkpt lat="44.09688" lon="6.98681">
        <ele>1434</ele>
        <time>2018-08-25T14:41:05Z</time>
      </trkpt>
      <trkpt lat="44.0967" lon="6.9867">
        <ele>1434.5</ele>
        <time>2018-08-25T14:41:07Z</time>
      </trkpt>
      <trkpt lat="44.09651" lon="6.98656">
        <ele>1435.24</ele>
        <time>2018-08-25T14:41:09Z</time>
      </trkpt>
      <trkpt lat="44.09631" lon="6.98642">
        <ele>1436.43</ele>
        <time>2018-08-25T14:41:11Z</time>
      </trkpt>
      <trkpt lat="44.09619" lon="6.9862">
        <ele>1440.2</ele>
        <time>2018-08-25T14:41:15Z</time>
      </trkpt>
      <trkpt lat="44.09638" lon="6.98598">
        <ele>1441.16</ele>
        <time>2018-08-25T14:41:19Z</time>
      </trkpt>
      <trkpt lat="44.0966" lon="6.98579">
        <ele>1443.42</ele>
        <time>2018-08-25T14:41:22Z</time>
      </trkpt>
      <trkpt lat="44.09672" lon="6.98557">
        <ele>1444.45</ele>
        <time>2018-08-25T14:41:24Z</time>
      </trkpt>
      <trkpt lat="44.09673" lon="6.98528">
        <ele>1445.24</ele>
        <time>2018-08-25T14:41:26Z</time>
      </trkpt>
      <trkpt lat="44.09669" lon="6.985">
        <ele>1445.52</ele>
        <time>2018-08-25T14:41:28Z</time>
      </trkpt>
      <trkpt lat="44.09663" lon="6.98468">
        <ele>1448.07</ele>
        <time>2018-08-25T14:41:30Z</time>
      </trkpt>
      <trkpt lat="44.09663" lon="6.98435">
        <ele>1448.5</ele>
        <time>2018-08-25T14:41:32Z</time>
      </trkpt>
      <trkpt lat="44.09665" lon="6.98396">
        <ele>1448.54</ele>
        <time>2018-08-25T14:41:34Z</time>
      </trkpt>
      <trkpt lat="44.09674" lon="6.98358">
        <ele>1451.07</ele>
        <time>2018-08-25T14:41:36Z</time>
      </trkpt>
      <trkpt lat="44.09681" lon="6.98323">
        <ele>1456.54</ele>
        <time>2018-08-25T14:41:38Z</time>
      </trkpt>
      <trkpt lat="44.09685" lon="6.98291">
        <ele>1458.37</ele>
        <time>2018-08-25T14:41:40Z</time>
      </trkpt>
      <trkpt lat="44.09686" lon="6.9826">
        <ele>1458.61</ele>
        <time>2018-08-25T14:41:43Z</time>
      </trkpt>
      <trkpt lat="44.09685" lon="6.98234">
        <ele>1461.07</ele>
        <time>2018-08-25T14:41:45Z</time>
      </trkpt>
      <trkpt lat="44.09685" lon="6.98198">
        <ele>1462.21</ele>
        <time>2018-08-25T14:41:47Z</time>
      </trkpt>
      <trkpt lat="44.09672" lon="6.98169">
        <ele>1462.31</ele>
        <time>2018-08-25T14:41:49Z</time>
      </trkpt>
      <trkpt lat="44.0965" lon="6.98148">
        <ele>1459.73</ele>
        <time>2018-08-25T14:41:51Z</time>
      </trkpt>
      <trkpt lat="44.09633" lon="6.98121">
        <ele>1459.35</ele>
        <time>2018-08-25T14:41:53Z</time>
      </trkpt>
      <trkpt lat="44.0962" lon="6.98082">
        <ele>1461.14</ele>
        <time>2018-08-25T14:41:55Z</time>
      </trkpt>
      <trkpt lat="44.09616" lon="6.98038">
        <ele>1460.81</ele>
        <time>2018-08-25T14:41:57Z</time>
      </trkpt>
      <trkpt lat="44.09616" lon="6.97991">
        <ele>1462.18</ele>
        <time>2018-08-25T14:41:59Z</time>
      </trkpt>
      <trkpt lat="44.09621" lon="6.97941">
        <ele>1462.72</ele>
        <time>2018-08-25T14:42:01Z</time>
      </trkpt>
      <trkpt lat="44.09613" lon="6.97895">
        <ele>1465.08</ele>
        <time>2018-08-25T14:42:03Z</time>
      </trkpt>
      <trkpt lat="44.09594" lon="6.97855">
        <ele>1466.21</ele>
        <time>2018-08-25T14:42:05Z</time>
      </trkpt>
      <trkpt lat="44.09582" lon="6.97834">
        <ele>1468.55</ele>
        <time>2018-08-25T14:42:06Z</time>
      </trkpt>
      <trkpt lat="44.09562" lon="6.97795">
        <ele>1471.77</ele>
        <time>2018-08-25T14:42:08Z</time>
      </trkpt>
      <trkpt lat="44.0954" lon="6.97755">
        <ele>1476.4</ele>
        <time>2018-08-25T14:42:10Z</time>
      </trkpt>
      <trkpt lat="44.09522" lon="6.97713">
        <ele>1479.75</ele>
        <time>2018-08-25T14:42:12Z</time>
      </trkpt>
      <trkpt lat="44.09515" lon="6.9769">
        <ele>1480.31</ele>
        <time>2018-08-25T14:42:13Z</time>
      </trkpt>
      <trkpt lat="44.09506" lon="6.97646">
        <ele>1482.14</ele>
        <time>2018-08-25T14:42:15Z</time>
      </trkpt>
      <trkpt lat="44.09489" lon="6.97605">
        <ele>1483.21</ele>
        <time>2018-08-25T14:42:17Z</time>
      </trkpt>
      <trkpt lat="44.09474" lon="6.97567">
        <ele>1485.13</ele>
        <time>2018-08-25T14:42:19Z</time>
      </trkpt>
      <trkpt lat="44.09465" lon="6.97524">
        <ele>1489.43</ele>
        <time>2018-08-25T14:42:21Z</time>
      </trkpt>
      <trkpt lat="44.09459" lon="6.97477">
        <ele>1493.88</ele>
        <time>2018-08-25T14:42:23Z</time>
      </trkpt>
      <trkpt lat="44.09455" lon="6.97434">
        <ele>1495.89</ele>
        <time>2018-08-25T14:42:25Z</time>
      </trkpt>
      <trkpt lat="44.09456" lon="6.97396">
        <ele>1498.1</ele>
        <time>2018-08-25T14:42:27Z</time>
      </trkpt>
      <trkpt lat="44.09435" lon="6.97374">
        <ele>1501.67</ele>
        <time>2018-08-25T14:42:30Z</time>
      </trkpt>
      <trkpt lat="44.09405" lon="6.97385">
        <ele>1508.7</ele>
        <time>2018-08-25T14:42:32Z</time>
      </trkpt>
      <trkpt lat="44.09376" lon="6.97395">
        <ele>1511.29</ele>
        <time>2018-08-25T14:42:34Z</time>
      </trkpt>
      <trkpt lat="44.09351" lon="6.9739">
        <ele>1512.22</ele>
        <time>2018-08-25T14:42:36Z</time>
      </trkpt>
      <trkpt lat="44.09329" lon="6.97365">
        <ele>1514.13</ele>
        <time>2018-08-25T14:42:38Z</time>
      </trkpt>
      <trkpt lat="44.09308" lon="6.97334">
        <ele>1515.91</ele>
        <time>2018-08-25T14:42:40Z</time>
      </trkpt>
      <trkpt lat="44.09285" lon="6.97304">
        <ele>1517.4</ele>
        <time>2018-08-25T14:42:42Z</time>
      </trkpt>
      <trkpt lat="44.09259" lon="6.97284">
        <ele>1520.54</ele>
        <time>2018-08-25T14:42:44Z</time>
      </trkpt>
      <trkpt lat="44.09232" lon="6.97268">
        <ele>1524.68</ele>
        <time>2018-08-25T14:42:46Z</time>
      </trkpt>
      <trkpt lat="44.09205" lon="6.97253">
        <ele>1527.78</ele>
        <time>2018-08-25T14:42:48Z</time>
      </trkpt>
      <trkpt lat="44.09183" lon="6.97233">
        <ele>1531.91</ele>
        <time>2018-08-25T14:42:50Z</time>
      </trkpt>
      <trkpt lat="44.09162" lon="6.97206">
        <ele>1535.01</ele>
        <time>2018-08-25T14:42:52Z</time>
      </trkpt>
      <trkpt lat="44.09142" lon="6.9718">
        <ele>1536.41</ele>
        <time>2018-08-25T14:42:54Z</time>
      </trkpt>
      <trkpt lat="44.09124" lon="6.97157">
        <ele>1539.06</ele>
        <time>2018-08-25T14:42:56Z</time>
      </trkpt>
      <trkpt lat="44.09111" lon="6.97132">
        <ele>1540.2</ele>
        <time>2018-08-25T14:42:58Z</time>
      </trkpt>
      <trkpt lat="44.09101" lon="6.97104">
        <ele>1542.13</ele>
        <time>2018-08-25T14:43:00Z</time>
      </trkpt>
      <trkpt lat="44.09092" lon="6.97077">
        <ele>1544.12</ele>
        <time>2018-08-25T14:43:02Z</time>
      </trkpt>
      <trkpt lat="44.09086" lon="6.97048">
        <ele>1545.42</ele>
        <time>2018-08-25T14:43:04Z</time>
      </trkpt>
      <trkpt lat="44.09085" lon="6.9702">
        <ele>1546.45</ele>
        <time>2018-08-25T14:43:06Z</time>
      </trkpt>
      <trkpt lat="44.09086" lon="6.96995">
        <ele>1547.94</ele>
        <time>2018-08-25T14:43:08Z</time>
      </trkpt>
      <trkpt lat="44.0909" lon="6.96967">
        <ele>1548.7</ele>
        <time>2018-08-25T14:43:10Z</time>
      </trkpt>
      <trkpt lat="44.09094" lon="6.96938">
        <ele>1549.47</ele>
        <time>2018-08-25T14:43:12Z</time>
      </trkpt>
      <trkpt lat="44.091" lon="6.96906">
        <ele>1547.93</ele>
        <time>2018-08-25T14:43:14Z</time>
      </trkpt>
      <trkpt lat="44.09103" lon="6.96878">
        <ele>1547.37</ele>
        <time>2018-08-25T14:43:16Z</time>
      </trkpt>
      <trkpt lat="44.09102" lon="6.96844">
        <ele>1546.62</ele>
        <time>2018-08-25T14:43:18Z</time>
      </trkpt>
      <trkpt lat="44.09096" lon="6.96811">
        <ele>1547.25</ele>
        <time>2018-08-25T14:43:20Z</time>
      </trkpt>
      <trkpt lat="44.09091" lon="6.9678">
        <ele>1548.43</ele>
        <time>2018-08-25T14:43:22Z</time>
      </trkpt>
      <trkpt lat="44.09085" lon="6.9675">
        <ele>1547.84</ele>
        <time>2018-08-25T14:43:24Z</time>
      </trkpt>
      <trkpt lat="44.09077" lon="6.96724">
        <ele>1549.38</ele>
        <time>2018-08-25T14:43:27Z</time>
      </trkpt>
      <trkpt lat="44.09068" lon="6.96699">
        <ele>1551.38</ele>
        <time>2018-08-25T14:43:32Z</time>
      </trkpt>
      <trkpt lat="44.09073" lon="6.96725">
        <ele>1554.88</ele>
        <time>2018-08-25T14:45:34Z</time>
      </trkpt>
      <trkpt lat="44.09102" lon="6.96708">
        <ele>1541.73</ele>
        <time>2018-08-25T14:46:24Z</time>
      </trkpt>
      <trkpt lat="44.09078" lon="6.96727">
        <ele>1547.2</ele>
        <time>2018-08-25T14:46:25Z</time>
      </trkpt>
      <trkpt lat="44.09062" lon="6.9674">
        <ele>1549.9</ele>
        <time>2018-08-25T14:48:57Z</time>
      </trkpt>
      <trkpt lat="44.09049" lon="6.96722">
        <ele>1546.34</ele>
        <time>2018-08-25T14:49:25Z</time>
      </trkpt>
      <trkpt lat="44.09067" lon="6.96729">
        <ele>1547.55</ele>
        <time>2018-08-25T14:58:29Z</time>
      </trkpt>
      <trkpt lat="44.09051" lon="6.96742">
        <ele>1552.48</ele>
        <time>2018-08-25T14:59:43Z</time>
      </trkpt>
      <trkpt lat="44.09068" lon="6.96732">
        <ele>1543.56</ele>
        <time>2018-08-25T15:00:41Z</time>
      </trkpt>
      <trkpt lat="44.09062" lon="6.967">
        <ele>1549.23</ele>
        <time>2018-08-25T15:01:31Z</time>
      </trkpt>
      <trkpt lat="44.09052" lon="6.96679">
        <ele>1548.61</ele>
        <time>2018-08-25T15:01:33Z</time>
      </trkpt>
      <trkpt lat="44.09043" lon="6.96657">
        <ele>1548.76</ele>
        <time>2018-08-25T15:01:35Z</time>
      </trkpt>
      <trkpt lat="44.09033" lon="6.96627">
        <ele>1549.27</ele>
        <time>2018-08-25T15:01:37Z</time>
      </trkpt>
      <trkpt lat="44.09022" lon="6.96602">
        <ele>1549.52</ele>
        <time>2018-08-25T15:01:39Z</time>
      </trkpt>
      <trkpt lat="44.09009" lon="6.96571">
        <ele>1549.34</ele>
        <time>2018-08-25T15:01:41Z</time>
      </trkpt>
      <trkpt lat="44.08996" lon="6.96537">
        <ele>1550.65</ele>
        <time>2018-08-25T15:01:43Z</time>
      </trkpt>
      <trkpt lat="44.08986" lon="6.965">
        <ele>1550.56</ele>
        <time>2018-08-25T15:01:45Z</time>
      </trkpt>
      <trkpt lat="44.08971" lon="6.96471">
        <ele>1550.55</ele>
        <time>2018-08-25T15:01:47Z</time>
      </trkpt>
      <trkpt lat="44.08957" lon="6.96441">
        <ele>1551.46</ele>
        <time>2018-08-25T15:01:49Z</time>
      </trkpt>
      <trkpt lat="44.08934" lon="6.96426">
        <ele>1553.15</ele>
        <time>2018-08-25T15:01:51Z</time>
      </trkpt>
      <trkpt lat="44.08911" lon="6.96416">
        <ele>1551.9</ele>
        <time>2018-08-25T15:01:53Z</time>
      </trkpt>
      <trkpt lat="44.08882" lon="6.96411">
        <ele>1550.67</ele>
        <time>2018-08-25T15:01:55Z</time>
      </trkpt>
      <trkpt lat="44.08856" lon="6.9641">
        <ele>1551.47</ele>
        <time>2018-08-25T15:01:57Z</time>
      </trkpt>
      <trkpt lat="44.08835" lon="6.96398">
        <ele>1552.45</ele>
        <time>2018-08-25T15:01:59Z</time>
      </trkpt>
      <trkpt lat="44.08816" lon="6.96372">
        <ele>1553.24</ele>
        <time>2018-08-25T15:02:01Z</time>
      </trkpt>
      <trkpt lat="44.08794" lon="6.96347">
        <ele>1553.52</ele>
        <time>2018-08-25T15:02:03Z</time>
      </trkpt>
      <trkpt lat="44.08768" lon="6.96334">
        <ele>1554.25</ele>
        <time>2018-08-25T15:02:05Z</time>
      </trkpt>
      <trkpt lat="44.08743" lon="6.96337">
        <ele>1552.91</ele>
        <time>2018-08-25T15:02:07Z</time>
      </trkpt>
      <trkpt lat="44.08723" lon="6.9635">
        <ele>1553.07</ele>
        <time>2018-08-25T15:02:09Z</time>
      </trkpt>
      <trkpt lat="44.08698" lon="6.96356">
        <ele>1552.81</ele>
        <time>2018-08-25T15:02:11Z</time>
      </trkpt>
      <trkpt lat="44.08674" lon="6.96341">
        <ele>1552.78</ele>
        <time>2018-08-25T15:02:13Z</time>
      </trkpt>
      <trkpt lat="44.08651" lon="6.96319">
        <ele>1551.66</ele>
        <time>2018-08-25T15:02:15Z</time>
      </trkpt>
      <trkpt lat="44.08633" lon="6.96283">
        <ele>1547.64</ele>
        <time>2018-08-25T15:02:17Z</time>
      </trkpt>
      <trkpt lat="44.08619" lon="6.96248">
        <ele>1545.25</ele>
        <time>2018-08-25T15:02:19Z</time>
      </trkpt>
      <trkpt lat="44.08626" lon="6.96207">
        <ele>1544.4</ele>
        <time>2018-08-25T15:02:21Z</time>
      </trkpt>
      <trkpt lat="44.08629" lon="6.96161">
        <ele>1544.53</ele>
        <time>2018-08-25T15:02:23Z</time>
      </trkpt>
      <trkpt lat="44.08625" lon="6.9612">
        <ele>1544.55</ele>
        <time>2018-08-25T15:02:25Z</time>
      </trkpt>
      <trkpt lat="44.0862" lon="6.96094">
        <ele>1545.25</ele>
        <time>2018-08-25T15:02:26Z</time>
      </trkpt>
      <trkpt lat="44.08616" lon="6.96067">
        <ele>1545.46</ele>
        <time>2018-08-25T15:02:27Z</time>
      </trkpt>
      <trkpt lat="44.08606" lon="6.96013">
        <ele>1543.44</ele>
        <time>2018-08-25T15:02:29Z</time>
      </trkpt>
      <trkpt lat="44.08597" lon="6.95978">
        <ele>1540.81</ele>
        <time>2018-08-25T15:02:31Z</time>
      </trkpt>
      <trkpt lat="44.08587" lon="6.95935">
        <ele>1537.84</ele>
        <time>2018-08-25T15:02:33Z</time>
      </trkpt>
      <trkpt lat="44.08585" lon="6.95909">
        <ele>1536.94</ele>
        <time>2018-08-25T15:02:34Z</time>
      </trkpt>
      <trkpt lat="44.08587" lon="6.95863">
        <ele>1535.88</ele>
        <time>2018-08-25T15:02:36Z</time>
      </trkpt>
      <trkpt lat="44.08588" lon="6.95837">
        <ele>1534.95</ele>
        <time>2018-08-25T15:02:37Z</time>
      </trkpt>
      <trkpt lat="44.08588" lon="6.95789">
        <ele>1534.79</ele>
        <time>2018-08-25T15:02:39Z</time>
      </trkpt>
      <trkpt lat="44.08586" lon="6.95744">
        <ele>1533.87</ele>
        <time>2018-08-25T15:02:41Z</time>
      </trkpt>
      <trkpt lat="44.08582" lon="6.957">
        <ele>1534.49</ele>
        <time>2018-08-25T15:02:43Z</time>
      </trkpt>
      <trkpt lat="44.0858" lon="6.9566">
        <ele>1534.54</ele>
        <time>2018-08-25T15:02:45Z</time>
      </trkpt>
      <trkpt lat="44.08587" lon="6.95627">
        <ele>1534.34</ele>
        <time>2018-08-25T15:02:47Z</time>
      </trkpt>
      <trkpt lat="44.08605" lon="6.95589">
        <ele>1535.23</ele>
        <time>2018-08-25T15:02:49Z</time>
      </trkpt>
      <trkpt lat="44.08618" lon="6.9557">
        <ele>1535.45</ele>
        <time>2018-08-25T15:02:50Z</time>
      </trkpt>
      <trkpt lat="44.08631" lon="6.95545">
        <ele>1536.22</ele>
        <time>2018-08-25T15:02:51Z</time>
      </trkpt>
      <trkpt lat="44.08646" lon="6.9553">
        <ele>1536.45</ele>
        <time>2018-08-25T15:02:52Z</time>
      </trkpt>
      <trkpt lat="44.08666" lon="6.95509">
        <ele>1535.82</ele>
        <time>2018-08-25T15:02:53Z</time>
      </trkpt>
      <trkpt lat="44.08681" lon="6.95485">
        <ele>1534.93</ele>
        <time>2018-08-25T15:02:54Z</time>
      </trkpt>
      <trkpt lat="44.08697" lon="6.95469">
        <ele>1534.66</ele>
        <time>2018-08-25T15:02:55Z</time>
      </trkpt>
      <trkpt lat="44.08713" lon="6.95453">
        <ele>1534.58</ele>
        <time>2018-08-25T15:02:56Z</time>
      </trkpt>
      <trkpt lat="44.08732" lon="6.95433">
        <ele>1535.96</ele>
        <time>2018-08-25T15:02:57Z</time>
      </trkpt>
      <trkpt lat="44.08751" lon="6.95416">
        <ele>1536.37</ele>
        <time>2018-08-25T15:02:58Z</time>
      </trkpt>
      <trkpt lat="44.08771" lon="6.95398">
        <ele>1537.19</ele>
        <time>2018-08-25T15:02:59Z</time>
      </trkpt>
      <trkpt lat="44.0879" lon="6.95379">
        <ele>1538.14</ele>
        <time>2018-08-25T15:03:00Z</time>
      </trkpt>
      <trkpt lat="44.08813" lon="6.95355">
        <ele>1538.43</ele>
        <time>2018-08-25T15:03:01Z</time>
      </trkpt>
      <trkpt lat="44.08824" lon="6.95332">
        <ele>1539.21</ele>
        <time>2018-08-25T15:03:02Z</time>
      </trkpt>
      <trkpt lat="44.08837" lon="6.95309">
        <ele>1540.15</ele>
        <time>2018-08-25T15:03:03Z</time>
      </trkpt>
      <trkpt lat="44.08848" lon="6.95287">
        <ele>1540.43</ele>
        <time>2018-08-25T15:03:04Z</time>
      </trkpt>
      <trkpt lat="44.08861" lon="6.95267">
        <ele>1540.51</ele>
        <time>2018-08-25T15:03:05Z</time>
      </trkpt>
      <trkpt lat="44.08889" lon="6.95251">
        <ele>1539.63</ele>
        <time>2018-08-25T15:03:07Z</time>
      </trkpt>
      <trkpt lat="44.08913" lon="6.95227">
        <ele>1539.77</ele>
        <time>2018-08-25T15:03:09Z</time>
      </trkpt>
      <trkpt lat="44.08945" lon="6.95227">
        <ele>1539.57</ele>
        <time>2018-08-25T15:03:11Z</time>
      </trkpt>
      <trkpt lat="44.08959" lon="6.95245">
        <ele>1538.15</ele>
        <time>2018-08-25T15:03:12Z</time>
      </trkpt>
      <trkpt lat="44.08979" lon="6.95229">
        <ele>1536.65</ele>
        <time>2018-08-25T15:03:15Z</time>
      </trkpt>
      <trkpt lat="44.08966" lon="6.95201">
        <ele>1536.55</ele>
        <time>2018-08-25T15:03:18Z</time>
      </trkpt>
      <trkpt lat="44.08935" lon="6.95179">
        <ele>1539.56</ele>
        <time>2018-08-25T15:03:20Z</time>
      </trkpt>
      <trkpt lat="44.08917" lon="6.9517">
        <ele>1540.95</ele>
        <time>2018-08-25T15:03:21Z</time>
      </trkpt>
      <trkpt lat="44.08891" lon="6.9517">
        <ele>1541.37</ele>
        <time>2018-08-25T15:03:22Z</time>
      </trkpt>
      <trkpt lat="44.08865" lon="6.95148">
        <ele>1546.15</ele>
        <time>2018-08-25T15:03:24Z</time>
      </trkpt>
      <trkpt lat="44.08851" lon="6.9512">
        <ele>1550.15</ele>
        <time>2018-08-25T15:03:26Z</time>
      </trkpt>
      <trkpt lat="44.08852" lon="6.95077">
        <ele>1552.82</ele>
        <time>2018-08-25T15:03:28Z</time>
      </trkpt>
      <trkpt lat="44.0886" lon="6.9505">
        <ele>1554.03</ele>
        <time>2018-08-25T15:03:29Z</time>
      </trkpt>
      <trkpt lat="44.08866" lon="6.95023">
        <ele>1554.39</ele>
        <time>2018-08-25T15:03:30Z</time>
      </trkpt>
      <trkpt lat="44.08872" lon="6.94995">
        <ele>1554.5</ele>
        <time>2018-08-25T15:03:31Z</time>
      </trkpt>
      <trkpt lat="44.08878" lon="6.9497">
        <ele>1553.13</ele>
        <time>2018-08-25T15:03:32Z</time>
      </trkpt>
      <trkpt lat="44.089" lon="6.94934">
        <ele>1555.12</ele>
        <time>2018-08-25T15:03:34Z</time>
      </trkpt>
      <trkpt lat="44.08927" lon="6.94902">
        <ele>1558.94</ele>
        <time>2018-08-25T15:03:36Z</time>
      </trkpt>
      <trkpt lat="44.08943" lon="6.94885">
        <ele>1560.77</ele>
        <time>2018-08-25T15:03:37Z</time>
      </trkpt>
      <trkpt lat="44.08958" lon="6.94865">
        <ele>1562.71</ele>
        <time>2018-08-25T15:03:38Z</time>
      </trkpt>
      <trkpt lat="44.08973" lon="6.9485">
        <ele>1563.3</ele>
        <time>2018-08-25T15:03:39Z</time>
      </trkpt>
      <trkpt lat="44.08991" lon="6.94835">
        <ele>1564.17</ele>
        <time>2018-08-25T15:03:40Z</time>
      </trkpt>
      <trkpt lat="44.0902" lon="6.94818">
        <ele>1563.81</ele>
        <time>2018-08-25T15:03:42Z</time>
      </trkpt>
      <trkpt lat="44.0903" lon="6.9479">
        <ele>1564.33</ele>
        <time>2018-08-25T15:03:43Z</time>
      </trkpt>
      <trkpt lat="44.09015" lon="6.94764">
        <ele>1566.09</ele>
        <time>2018-08-25T15:03:46Z</time>
      </trkpt>
      <trkpt lat="44.0898" lon="6.94768">
        <ele>1567.42</ele>
        <time>2018-08-25T15:03:48Z</time>
      </trkpt>
      <trkpt lat="44.08942" lon="6.94798">
        <ele>1568.21</ele>
        <time>2018-08-25T15:03:49Z</time>
      </trkpt>
      <trkpt lat="44.0892" lon="6.94802">
        <ele>1567.05</ele>
        <time>2018-08-25T15:03:50Z</time>
      </trkpt>
      <trkpt lat="44.08884" lon="6.94793">
        <ele>1564.77</ele>
        <time>2018-08-25T15:03:52Z</time>
      </trkpt>
      <trkpt lat="44.08853" lon="6.94789">
        <ele>1566.88</ele>
        <time>2018-08-25T15:03:54Z</time>
      </trkpt>
      <trkpt lat="44.08827" lon="6.9477">
        <ele>1569.8</ele>
        <time>2018-08-25T15:03:56Z</time>
      </trkpt>
      <trkpt lat="44.08822" lon="6.94725">
        <ele>1573.91</ele>
        <time>2018-08-25T15:03:58Z</time>
      </trkpt>
      <trkpt lat="44.08817" lon="6.94695">
        <ele>1573.66</ele>
        <time>2018-08-25T15:03:59Z</time>
      </trkpt>
      <trkpt lat="44.08795" lon="6.94652">
        <ele>1575.87</ele>
        <time>2018-08-25T15:04:01Z</time>
      </trkpt>
      <trkpt lat="44.08782" lon="6.94629">
        <ele>1577.04</ele>
        <time>2018-08-25T15:04:02Z</time>
      </trkpt>
      <trkpt lat="44.08768" lon="6.94606">
        <ele>1578.8</ele>
        <time>2018-08-25T15:04:03Z</time>
      </trkpt>
      <trkpt lat="44.08756" lon="6.94576">
        <ele>1579.32</ele>
        <time>2018-08-25T15:04:04Z</time>
      </trkpt>
      <trkpt lat="44.08741" lon="6.94549">
        <ele>1580.88</ele>
        <time>2018-08-25T15:04:05Z</time>
      </trkpt>
      <trkpt lat="44.08736" lon="6.94514">
        <ele>1581.35</ele>
        <time>2018-08-25T15:04:06Z</time>
      </trkpt>
      <trkpt lat="44.08723" lon="6.9449">
        <ele>1581.49</ele>
        <time>2018-08-25T15:04:07Z</time>
      </trkpt>
      <trkpt lat="44.08712" lon="6.94465">
        <ele>1582.93</ele>
        <time>2018-08-25T15:04:08Z</time>
      </trkpt>
      <trkpt lat="44.08701" lon="6.94439">
        <ele>1583.36</ele>
        <time>2018-08-25T15:04:09Z</time>
      </trkpt>
      <trkpt lat="44.08693" lon="6.94415">
        <ele>1584.19</ele>
        <time>2018-08-25T15:04:10Z</time>
      </trkpt>
      <trkpt lat="44.08684" lon="6.94386">
        <ele>1585.84</ele>
        <time>2018-08-25T15:04:11Z</time>
      </trkpt>
      <trkpt lat="44.08671" lon="6.94361">
        <ele>1587.04</ele>
        <time>2018-08-25T15:04:12Z</time>
      </trkpt>
      <trkpt lat="44.0867" lon="6.94335">
        <ele>1588.09</ele>
        <time>2018-08-25T15:04:13Z</time>
      </trkpt>
      <trkpt lat="44.08684" lon="6.94308">
        <ele>1589.11</ele>
        <time>2018-08-25T15:04:14Z</time>
      </trkpt>
      <trkpt lat="44.08686" lon="6.94256">
        <ele>1591.33</ele>
        <time>2018-08-25T15:04:16Z</time>
      </trkpt>
      <trkpt lat="44.08702" lon="6.94235">
        <ele>1592.88</ele>
        <time>2018-08-25T15:04:17Z</time>
      </trkpt>
      <trkpt lat="44.08709" lon="6.9421">
        <ele>1594.05</ele>
        <time>2018-08-25T15:04:18Z</time>
      </trkpt>
      <trkpt lat="44.08726" lon="6.94194">
        <ele>1595.8</ele>
        <time>2018-08-25T15:04:19Z</time>
      </trkpt>
      <trkpt lat="44.08746" lon="6.94177">
        <ele>1597.02</ele>
        <time>2018-08-25T15:04:20Z</time>
      </trkpt>
      <trkpt lat="44.08775" lon="6.94148">
        <ele>1601.63</ele>
        <time>2018-08-25T15:04:22Z</time>
      </trkpt>
      <trkpt lat="44.08803" lon="6.9412">
        <ele>1604.08</ele>
        <time>2018-08-25T15:04:24Z</time>
      </trkpt>
      <trkpt lat="44.08828" lon="6.94092">
        <ele>1607.03</ele>
        <time>2018-08-25T15:04:26Z</time>
      </trkpt>
      <trkpt lat="44.08858" lon="6.94071">
        <ele>1608.2</ele>
        <time>2018-08-25T15:04:28Z</time>
      </trkpt>
      <trkpt lat="44.08881" lon="6.94053">
        <ele>1609.22</ele>
        <time>2018-08-25T15:04:30Z</time>
      </trkpt>
      <trkpt lat="44.08897" lon="6.9402">
        <ele>1611.09</ele>
        <time>2018-08-25T15:04:33Z</time>
      </trkpt>
      <trkpt lat="44.08911" lon="6.93995">
        <ele>1614.73</ele>
        <time>2018-08-25T15:04:35Z</time>
      </trkpt>
      <trkpt lat="44.08927" lon="6.93972">
        <ele>1617.78</ele>
        <time>2018-08-25T15:04:37Z</time>
      </trkpt>
      <trkpt lat="44.08941" lon="6.93943">
        <ele>1621</ele>
        <time>2018-08-25T15:04:39Z</time>
      </trkpt>
      <trkpt lat="44.08952" lon="6.93916">
        <ele>1623.81</ele>
        <time>2018-08-25T15:04:41Z</time>
      </trkpt>
      <trkpt lat="44.08963" lon="6.93889">
        <ele>1626.09</ele>
        <time>2018-08-25T15:04:43Z</time>
      </trkpt>
      <trkpt lat="44.08975" lon="6.93857">
        <ele>1628.15</ele>
        <time>2018-08-25T15:04:46Z</time>
      </trkpt>
      <trkpt lat="44.08985" lon="6.93835">
        <ele>1628.51</ele>
        <time>2018-08-25T15:04:48Z</time>
      </trkpt>
      <trkpt lat="44.08995" lon="6.93812">
        <ele>1630.15</ele>
        <time>2018-08-25T15:04:50Z</time>
      </trkpt>
      <trkpt lat="44.09006" lon="6.9379">
        <ele>1632.12</ele>
        <time>2018-08-25T15:04:52Z</time>
      </trkpt>
      <trkpt lat="44.09018" lon="6.93768">
        <ele>1633.21</ele>
        <time>2018-08-25T15:04:54Z</time>
      </trkpt>
      <trkpt lat="44.09031" lon="6.93748">
        <ele>1634.22</ele>
        <time>2018-08-25T15:04:56Z</time>
      </trkpt>
      <trkpt lat="44.0905" lon="6.93722">
        <ele>1637.12</ele>
        <time>2018-08-25T15:04:59Z</time>
      </trkpt>
      <trkpt lat="44.09065" lon="6.93703">
        <ele>1637.72</ele>
        <time>2018-08-25T15:05:01Z</time>
      </trkpt>
      <trkpt lat="44.0908" lon="6.93684">
        <ele>1638.68</ele>
        <time>2018-08-25T15:05:03Z</time>
      </trkpt>
      <trkpt lat="44.09094" lon="6.93663">
        <ele>1638.77</ele>
        <time>2018-08-25T15:05:05Z</time>
      </trkpt>
      <trkpt lat="44.09108" lon="6.93642">
        <ele>1640.39</ele>
        <time>2018-08-25T15:05:07Z</time>
      </trkpt>
      <trkpt lat="44.09121" lon="6.9362">
        <ele>1641.44</ele>
        <time>2018-08-25T15:05:09Z</time>
      </trkpt>
      <trkpt lat="44.09135" lon="6.936">
        <ele>1642.94</ele>
        <time>2018-08-25T15:05:11Z</time>
      </trkpt>
      <trkpt lat="44.09147" lon="6.93579">
        <ele>1644.19</ele>
        <time>2018-08-25T15:05:13Z</time>
      </trkpt>
      <trkpt lat="44.09161" lon="6.9356">
        <ele>1646.13</ele>
        <time>2018-08-25T15:05:15Z</time>
      </trkpt>
      <trkpt lat="44.09172" lon="6.93536">
        <ele>1648.33</ele>
        <time>2018-08-25T15:05:17Z</time>
      </trkpt>
      <trkpt lat="44.09191" lon="6.93524">
        <ele>1649.93</ele>
        <time>2018-08-25T15:05:19Z</time>
      </trkpt>
      <trkpt lat="44.09211" lon="6.93508">
        <ele>1651.19</ele>
        <time>2018-08-25T15:05:21Z</time>
      </trkpt>
      <trkpt lat="44.09231" lon="6.93493">
        <ele>1651.52</ele>
        <time>2018-08-25T15:05:23Z</time>
      </trkpt>
      <trkpt lat="44.09255" lon="6.93493">
        <ele>1652.04</ele>
        <time>2018-08-25T15:05:25Z</time>
      </trkpt>
      <trkpt lat="44.09277" lon="6.93483">
        <ele>1652.5</ele>
        <time>2018-08-25T15:05:27Z</time>
      </trkpt>
      <trkpt lat="44.09296" lon="6.93476">
        <ele>1654.85</ele>
        <time>2018-08-25T15:05:29Z</time>
      </trkpt>
      <trkpt lat="44.09313" lon="6.93455">
        <ele>1655.49</ele>
        <time>2018-08-25T15:05:31Z</time>
      </trkpt>
      <trkpt lat="44.09325" lon="6.93427">
        <ele>1657.36</ele>
        <time>2018-08-25T15:05:33Z</time>
      </trkpt>
      <trkpt lat="44.09337" lon="6.934">
        <ele>1657.53</ele>
        <time>2018-08-25T15:05:35Z</time>
      </trkpt>
      <trkpt lat="44.09352" lon="6.93376">
        <ele>1657.34</ele>
        <time>2018-08-25T15:05:37Z</time>
      </trkpt>
      <trkpt lat="44.09368" lon="6.93352">
        <ele>1657.32</ele>
        <time>2018-08-25T15:05:39Z</time>
      </trkpt>
      <trkpt lat="44.09381" lon="6.93329">
        <ele>1660.05</ele>
        <time>2018-08-25T15:05:41Z</time>
      </trkpt>
      <trkpt lat="44.09395" lon="6.93308">
        <ele>1662.11</ele>
        <time>2018-08-25T15:05:43Z</time>
      </trkpt>
      <trkpt lat="44.09408" lon="6.93288">
        <ele>1663.21</ele>
        <time>2018-08-25T15:05:45Z</time>
      </trkpt>
      <trkpt lat="44.09421" lon="6.93266">
        <ele>1664.92</ele>
        <time>2018-08-25T15:05:47Z</time>
      </trkpt>
      <trkpt lat="44.09435" lon="6.93238">
        <ele>1667.14</ele>
        <time>2018-08-25T15:05:50Z</time>
      </trkpt>
      <trkpt lat="44.09447" lon="6.93214">
        <ele>1669.21</ele>
        <time>2018-08-25T15:05:53Z</time>
      </trkpt>
      <trkpt lat="44.09459" lon="6.93189">
        <ele>1670.45</ele>
        <time>2018-08-25T15:05:56Z</time>
      </trkpt>
      <trkpt lat="44.09476" lon="6.93163">
        <ele>1671.52</ele>
        <time>2018-08-25T15:05:59Z</time>
      </trkpt>
      <trkpt lat="44.0949" lon="6.93142">
        <ele>1673.22</ele>
        <time>2018-08-25T15:06:02Z</time>
      </trkpt>
      <trkpt lat="44.09503" lon="6.93121">
        <ele>1676.33</ele>
        <time>2018-08-25T15:06:05Z</time>
      </trkpt>
      <trkpt lat="44.09522" lon="6.93108">
        <ele>1679.05</ele>
        <time>2018-08-25T15:06:11Z</time>
      </trkpt>
      <trkpt lat="44.09541" lon="6.93099">
        <ele>1680.32</ele>
        <time>2018-08-25T15:06:16Z</time>
      </trkpt>
      <trkpt lat="44.0956" lon="6.93102">
        <ele>1680.75</ele>
        <time>2018-08-25T15:06:19Z</time>
      </trkpt>
      <trkpt lat="44.09578" lon="6.93104">
        <ele>1679.64</ele>
        <time>2018-08-25T15:06:22Z</time>
      </trkpt>
      <trkpt lat="44.09601" lon="6.93109">
        <ele>1681.43</ele>
        <time>2018-08-25T15:06:25Z</time>
      </trkpt>
      <trkpt lat="44.09617" lon="6.93098">
        <ele>1683.01</ele>
        <time>2018-08-25T15:06:28Z</time>
      </trkpt>
      <trkpt lat="44.09635" lon="6.93071">
        <ele>1685.63</ele>
        <time>2018-08-25T15:06:31Z</time>
      </trkpt>
      <trkpt lat="44.09653" lon="6.93048">
        <ele>1683.95</ele>
        <time>2018-08-25T15:06:33Z</time>
      </trkpt>
      <trkpt lat="44.09669" lon="6.93024">
        <ele>1683.58</ele>
        <time>2018-08-25T15:06:35Z</time>
      </trkpt>
      <trkpt lat="44.09682" lon="6.93002">
        <ele>1683.55</ele>
        <time>2018-08-25T15:06:37Z</time>
      </trkpt>
      <trkpt lat="44.09687" lon="6.9297">
        <ele>1683.76</ele>
        <time>2018-08-25T15:06:40Z</time>
      </trkpt>
      <trkpt lat="44.0969" lon="6.9294">
        <ele>1683.34</ele>
        <time>2018-08-25T15:06:43Z</time>
      </trkpt>
      <trkpt lat="44.09661" lon="6.92926">
        <ele>1679.16</ele>
        <time>2018-08-25T15:06:48Z</time>
      </trkpt>
      <trkpt lat="44.09641" lon="6.92921">
        <ele>1677.69</ele>
        <time>2018-08-25T15:06:50Z</time>
      </trkpt>
      <trkpt lat="44.09621" lon="6.92921">
        <ele>1678.47</ele>
        <time>2018-08-25T15:06:52Z</time>
      </trkpt>
      <trkpt lat="44.09601" lon="6.92916">
        <ele>1676.02</ele>
        <time>2018-08-25T15:06:54Z</time>
      </trkpt>
      <trkpt lat="44.09579" lon="6.92914">
        <ele>1674.59</ele>
        <time>2018-08-25T15:06:57Z</time>
      </trkpt>
      <trkpt lat="44.0956" lon="6.92913">
        <ele>1675.52</ele>
        <time>2018-08-25T15:07:00Z</time>
      </trkpt>
      <trkpt lat="44.09539" lon="6.92906">
        <ele>1676.55</ele>
        <time>2018-08-25T15:07:05Z</time>
      </trkpt>
      <trkpt lat="44.09526" lon="6.92886">
        <ele>1675.89</ele>
        <time>2018-08-25T15:07:20Z</time>
      </trkpt>
      <trkpt lat="44.09521" lon="6.92859">
        <ele>1675.36</ele>
        <time>2018-08-25T15:07:31Z</time>
      </trkpt>
      <trkpt lat="44.0952" lon="6.92885">
        <ele>1673.87</ele>
        <time>2018-08-25T15:07:46Z</time>
      </trkpt>
      <trkpt lat="44.09525" lon="6.92912">
        <ele>1673.84</ele>
        <time>2018-08-25T15:07:50Z</time>
      </trkpt>
      <trkpt lat="44.09528" lon="6.92939">
        <ele>1676.76</ele>
        <time>2018-08-25T15:08:03Z</time>
      </trkpt>
      <trkpt lat="44.09528" lon="6.92965">
        <ele>1679.94</ele>
        <time>2018-08-25T15:08:08Z</time>
      </trkpt>
      <trkpt lat="44.09526" lon="6.92993">
        <ele>1680.93</ele>
        <time>2018-08-25T15:08:14Z</time>
      </trkpt>
      <trkpt lat="44.09523" lon="6.93019">
        <ele>1678.84</ele>
        <time>2018-08-25T15:08:21Z</time>
      </trkpt>
      <trkpt lat="44.0954" lon="6.9303">
        <ele>1677.47</ele>
        <time>2018-08-25T15:08:31Z</time>
      </trkpt>
      <trkpt lat="44.09559" lon="6.93031">
        <ele>1676.57</ele>
        <time>2018-08-25T15:08:36Z</time>
      </trkpt>
      <trkpt lat="44.09578" lon="6.93025">
        <ele>1679.79</ele>
        <time>2018-08-25T15:08:43Z</time>
      </trkpt>
      <trkpt lat="44.09577" lon="6.92998">
        <ele>1678.33</ele>
        <time>2018-08-25T15:08:50Z</time>
      </trkpt>
      <trkpt lat="44.09578" lon="6.92973">
        <ele>1685.11</ele>
        <time>2018-08-25T15:09:07Z</time>
      </trkpt>
      <trkpt lat="44.0957" lon="6.92949">
        <ele>1705.4</ele>
        <time>2018-08-25T15:10:09Z</time>
      </trkpt>
      <trkpt lat="44.09578" lon="6.92974">
        <ele>1691.55</ele>
        <time>2018-08-25T15:12:10Z</time>
      </trkpt>
      <trkpt lat="44.09578" lon="6.93001">
        <ele>1682.82</ele>
        <time>2018-08-25T15:12:14Z</time>
      </trkpt>
      <trkpt lat="44.09576" lon="6.93026">
        <ele>1679.78</ele>
        <time>2018-08-25T15:12:20Z</time>
      </trkpt>
      <trkpt lat="44.09557" lon="6.93036">
        <ele>1675.2</ele>
        <time>2018-08-25T15:12:25Z</time>
      </trkpt>
      <trkpt lat="44.09538" lon="6.93031">
        <ele>1673.58</ele>
        <time>2018-08-25T15:12:29Z</time>
      </trkpt>
      <trkpt lat="44.09519" lon="6.93038">
        <ele>1675.45</ele>
        <time>2018-08-25T15:12:34Z</time>
      </trkpt>
      <trkpt lat="44.0951" lon="6.93063">
        <ele>1673.5</ele>
        <time>2018-08-25T15:12:40Z</time>
      </trkpt>
      <trkpt lat="44.09508" lon="6.93096">
        <ele>1671.66</ele>
        <time>2018-08-25T15:12:43Z</time>
      </trkpt>
      <trkpt lat="44.09494" lon="6.9313">
        <ele>1674.2</ele>
        <time>2018-08-25T15:12:46Z</time>
      </trkpt>
      <trkpt lat="44.09482" lon="6.93155">
        <ele>1675.22</ele>
        <time>2018-08-25T15:12:48Z</time>
      </trkpt>
      <trkpt lat="44.09466" lon="6.93179">
        <ele>1674.82</ele>
        <time>2018-08-25T15:12:50Z</time>
      </trkpt>
      <trkpt lat="44.09446" lon="6.93203">
        <ele>1673.66</ele>
        <time>2018-08-25T15:12:52Z</time>
      </trkpt>
      <trkpt lat="44.09426" lon="6.93233">
        <ele>1673.56</ele>
        <time>2018-08-25T15:12:54Z</time>
      </trkpt>
      <trkpt lat="44.09409" lon="6.93266">
        <ele>1674.46</ele>
        <time>2018-08-25T15:12:56Z</time>
      </trkpt>
      <trkpt lat="44.09398" lon="6.9329">
        <ele>1675.24</ele>
        <time>2018-08-25T15:12:58Z</time>
      </trkpt>
      <trkpt lat="44.09383" lon="6.93312">
        <ele>1675.31</ele>
        <time>2018-08-25T15:13:00Z</time>
      </trkpt>
      <trkpt lat="44.09365" lon="6.93343">
        <ele>1676.02</ele>
        <time>2018-08-25T15:13:02Z</time>
      </trkpt>
      <trkpt lat="44.09348" lon="6.9338">
        <ele>1673.49</ele>
        <time>2018-08-25T15:13:04Z</time>
      </trkpt>
      <trkpt lat="44.0933" lon="6.9341">
        <ele>1671.93</ele>
        <time>2018-08-25T15:13:06Z</time>
      </trkpt>
      <trkpt lat="44.09312" lon="6.93441">
        <ele>1669.27</ele>
        <time>2018-08-25T15:13:08Z</time>
      </trkpt>
      <trkpt lat="44.09298" lon="6.93471">
        <ele>1667.21</ele>
        <time>2018-08-25T15:13:10Z</time>
      </trkpt>
      <trkpt lat="44.09278" lon="6.9349">
        <ele>1664.09</ele>
        <time>2018-08-25T15:13:12Z</time>
      </trkpt>
      <trkpt lat="44.09259" lon="6.93502">
        <ele>1663.11</ele>
        <time>2018-08-25T15:13:14Z</time>
      </trkpt>
      <trkpt lat="44.09237" lon="6.93515">
        <ele>1660.29</ele>
        <time>2018-08-25T15:13:16Z</time>
      </trkpt>
      <trkpt lat="44.09213" lon="6.93519">
        <ele>1655.95</ele>
        <time>2018-08-25T15:13:19Z</time>
      </trkpt>
      <trkpt lat="44.09181" lon="6.93528">
        <ele>1655.56</ele>
        <time>2018-08-25T15:13:22Z</time>
      </trkpt>
      <trkpt lat="44.09165" lon="6.93552">
        <ele>1655.76</ele>
        <time>2018-08-25T15:13:24Z</time>
      </trkpt>
      <trkpt lat="44.09149" lon="6.93576">
        <ele>1655.09</ele>
        <time>2018-08-25T15:13:28Z</time>
      </trkpt>
      <trkpt lat="44.09136" lon="6.93597">
        <ele>1655.6</ele>
        <time>2018-08-25T15:13:31Z</time>
      </trkpt>
      <trkpt lat="44.09117" lon="6.93625">
        <ele>1652.76</ele>
        <time>2018-08-25T15:13:34Z</time>
      </trkpt>
      <trkpt lat="44.09104" lon="6.93653">
        <ele>1653.48</ele>
        <time>2018-08-25T15:13:36Z</time>
      </trkpt>
      <trkpt lat="44.09084" lon="6.93674">
        <ele>1652.63</ele>
        <time>2018-08-25T15:13:38Z</time>
      </trkpt>
      <trkpt lat="44.09066" lon="6.93703">
        <ele>1650.95</ele>
        <time>2018-08-25T15:13:40Z</time>
      </trkpt>
      <trkpt lat="44.09048" lon="6.93732">
        <ele>1648.97</ele>
        <time>2018-08-25T15:13:42Z</time>
      </trkpt>
      <trkpt lat="44.09029" lon="6.93759">
        <ele>1648.38</ele>
        <time>2018-08-25T15:13:44Z</time>
      </trkpt>
      <trkpt lat="44.09011" lon="6.93781">
        <ele>1648.25</ele>
        <time>2018-08-25T15:13:46Z</time>
      </trkpt>
      <trkpt lat="44.08994" lon="6.93806">
        <ele>1646.21</ele>
        <time>2018-08-25T15:13:48Z</time>
      </trkpt>
      <trkpt lat="44.08984" lon="6.93832">
        <ele>1645.61</ele>
        <time>2018-08-25T15:13:50Z</time>
      </trkpt>
      <trkpt lat="44.08971" lon="6.93852">
        <ele>1643.94</ele>
        <time>2018-08-25T15:13:52Z</time>
      </trkpt>
      <trkpt lat="44.08958" lon="6.93879">
        <ele>1642.86</ele>
        <time>2018-08-25T15:13:55Z</time>
      </trkpt>
      <trkpt lat="44.08952" lon="6.93911">
        <ele>1643</ele>
        <time>2018-08-25T15:13:57Z</time>
      </trkpt>
      <trkpt lat="44.08943" lon="6.93946">
        <ele>1640.49</ele>
        <time>2018-08-25T15:13:59Z</time>
      </trkpt>
      <trkpt lat="44.08939" lon="6.9397">
        <ele>1638.43</ele>
        <time>2018-08-25T15:14:00Z</time>
      </trkpt>
      <trkpt lat="44.08925" lon="6.93987">
        <ele>1636.41</ele>
        <time>2018-08-25T15:14:01Z</time>
      </trkpt>
      <trkpt lat="44.08907" lon="6.93997">
        <ele>1633.71</ele>
        <time>2018-08-25T15:14:02Z</time>
      </trkpt>
      <trkpt lat="44.08885" lon="6.94021">
        <ele>1631.74</ele>
        <time>2018-08-25T15:14:04Z</time>
      </trkpt>
      <trkpt lat="44.08867" lon="6.94041">
        <ele>1629.05</ele>
        <time>2018-08-25T15:14:06Z</time>
      </trkpt>
      <trkpt lat="44.08854" lon="6.9406">
        <ele>1626.07</ele>
        <time>2018-08-25T15:14:08Z</time>
      </trkpt>
      <trkpt lat="44.08832" lon="6.94091">
        <ele>1626.09</ele>
        <time>2018-08-25T15:14:10Z</time>
      </trkpt>
      <trkpt lat="44.08802" lon="6.94119">
        <ele>1623.29</ele>
        <time>2018-08-25T15:14:12Z</time>
      </trkpt>
      <trkpt lat="44.08785" lon="6.94131">
        <ele>1622.77</ele>
        <time>2018-08-25T15:14:13Z</time>
      </trkpt>
      <trkpt lat="44.08769" lon="6.94146">
        <ele>1622.61</ele>
        <time>2018-08-25T15:14:14Z</time>
      </trkpt>
      <trkpt lat="44.08751" lon="6.9417">
        <ele>1621.87</ele>
        <time>2018-08-25T15:14:15Z</time>
      </trkpt>
      <trkpt lat="44.08735" lon="6.94197">
        <ele>1620.24</ele>
        <time>2018-08-25T15:14:16Z</time>
      </trkpt>
      <trkpt lat="44.08721" lon="6.9422">
        <ele>1620.46</ele>
        <time>2018-08-25T15:14:17Z</time>
      </trkpt>
      <trkpt lat="44.08707" lon="6.94243">
        <ele>1620.52</ele>
        <time>2018-08-25T15:14:18Z</time>
      </trkpt>
      <trkpt lat="44.08695" lon="6.94269">
        <ele>1619.84</ele>
        <time>2018-08-25T15:14:19Z</time>
      </trkpt>
      <trkpt lat="44.08681" lon="6.94295">
        <ele>1619.64</ele>
        <time>2018-08-25T15:14:20Z</time>
      </trkpt>
      <trkpt lat="44.08666" lon="6.94322">
        <ele>1618.17</ele>
        <time>2018-08-25T15:14:21Z</time>
      </trkpt>
      <trkpt lat="44.08655" lon="6.94349">
        <ele>1616.34</ele>
        <time>2018-08-25T15:14:22Z</time>
      </trkpt>
      <trkpt lat="44.08649" lon="6.94375">
        <ele>1615.78</ele>
        <time>2018-08-25T15:14:23Z</time>
      </trkpt>
      <trkpt lat="44.08658" lon="6.94429">
        <ele>1615.57</ele>
        <time>2018-08-25T15:14:25Z</time>
      </trkpt>
      <trkpt lat="44.08671" lon="6.9446">
        <ele>1614.85</ele>
        <time>2018-08-25T15:14:26Z</time>
      </trkpt>
      <trkpt lat="44.0869" lon="6.94493">
        <ele>1615.34</ele>
        <time>2018-08-25T15:14:27Z</time>
      </trkpt>
      <trkpt lat="44.08703" lon="6.94528">
        <ele>1614.79</ele>
        <time>2018-08-25T15:14:28Z</time>
      </trkpt>
      <trkpt lat="44.08724" lon="6.94565">
        <ele>1615.32</ele>
        <time>2018-08-25T15:14:29Z</time>
      </trkpt>
      <trkpt lat="44.08747" lon="6.94595">
        <ele>1614.78</ele>
        <time>2018-08-25T15:14:30Z</time>
      </trkpt>
      <trkpt lat="44.08765" lon="6.94624">
        <ele>1616.02</ele>
        <time>2018-08-25T15:14:31Z</time>
      </trkpt>
      <trkpt lat="44.08779" lon="6.94651">
        <ele>1614.99</ele>
        <time>2018-08-25T15:14:32Z</time>
      </trkpt>
      <trkpt lat="44.08797" lon="6.94677">
        <ele>1614.68</ele>
        <time>2018-08-25T15:14:33Z</time>
      </trkpt>
      <trkpt lat="44.08811" lon="6.94702">
        <ele>1614.59</ele>
        <time>2018-08-25T15:14:34Z</time>
      </trkpt>
      <trkpt lat="44.08825" lon="6.94731">
        <ele>1611.06</ele>
        <time>2018-08-25T15:14:35Z</time>
      </trkpt>
      <trkpt lat="44.08839" lon="6.94759">
        <ele>1609.3</ele>
        <time>2018-08-25T15:14:36Z</time>
      </trkpt>
      <trkpt lat="44.08845" lon="6.94798">
        <ele>1604.28</ele>
        <time>2018-08-25T15:14:38Z</time>
      </trkpt>
      <trkpt lat="44.08863" lon="6.94827">
        <ele>1602.7</ele>
        <time>2018-08-25T15:14:40Z</time>
      </trkpt>
      <trkpt lat="44.08894" lon="6.94838">
        <ele>1599.83</ele>
        <time>2018-08-25T15:14:42Z</time>
      </trkpt>
      <trkpt lat="44.08918" lon="6.94835">
        <ele>1597.53</ele>
        <time>2018-08-25T15:14:43Z</time>
      </trkpt>
      <trkpt lat="44.08938" lon="6.94831">
        <ele>1594.74</ele>
        <time>2018-08-25T15:14:44Z</time>
      </trkpt>
      <trkpt lat="44.08959" lon="6.94818">
        <ele>1592.51</ele>
        <time>2018-08-25T15:14:45Z</time>
      </trkpt>
      <trkpt lat="44.08976" lon="6.94814">
        <ele>1591.14</ele>
        <time>2018-08-25T15:14:46Z</time>
      </trkpt>
      <trkpt lat="44.09005" lon="6.94805">
        <ele>1588.78</ele>
        <time>2018-08-25T15:14:48Z</time>
      </trkpt>
      <trkpt lat="44.08997" lon="6.94849">
        <ele>1583.87</ele>
        <time>2018-08-25T15:14:51Z</time>
      </trkpt>
      <trkpt lat="44.08974" lon="6.94865">
        <ele>1580.36</ele>
        <time>2018-08-25T15:14:53Z</time>
      </trkpt>
      <trkpt lat="44.08948" lon="6.94874">
        <ele>1579.09</ele>
        <time>2018-08-25T15:14:54Z</time>
      </trkpt>
      <trkpt lat="44.08925" lon="6.94905">
        <ele>1579.41</ele>
        <time>2018-08-25T15:14:55Z</time>
      </trkpt>
      <trkpt lat="44.08906" lon="6.94923">
        <ele>1579.51</ele>
        <time>2018-08-25T15:14:56Z</time>
      </trkpt>
      <trkpt lat="44.0889" lon="6.94943">
        <ele>1578.84</ele>
        <time>2018-08-25T15:14:57Z</time>
      </trkpt>
      <trkpt lat="44.08874" lon="6.94963">
        <ele>1577.93</ele>
        <time>2018-08-25T15:14:58Z</time>
      </trkpt>
      <trkpt lat="44.0886" lon="6.94984">
        <ele>1575.56</ele>
        <time>2018-08-25T15:14:59Z</time>
      </trkpt>
      <trkpt lat="44.08848" lon="6.95008">
        <ele>1572.75</ele>
        <time>2018-08-25T15:15:00Z</time>
      </trkpt>
      <trkpt lat="44.08836" lon="6.9503">
        <ele>1571.91</ele>
        <time>2018-08-25T15:15:01Z</time>
      </trkpt>
      <trkpt lat="44.08834" lon="6.95059">
        <ele>1571.66</ele>
        <time>2018-08-25T15:15:02Z</time>
      </trkpt>
      <trkpt lat="44.08843" lon="6.95093">
        <ele>1570.88</ele>
        <time>2018-08-25T15:15:03Z</time>
      </trkpt>
      <trkpt lat="44.08847" lon="6.95119">
        <ele>1566.45</ele>
        <time>2018-08-25T15:15:04Z</time>
      </trkpt>
      <trkpt lat="44.08856" lon="6.95158">
        <ele>1561.29</ele>
        <time>2018-08-25T15:15:06Z</time>
      </trkpt>
      <trkpt lat="44.08874" lon="6.95171">
        <ele>1561.1</ele>
        <time>2018-08-25T15:15:08Z</time>
      </trkpt>
      <trkpt lat="44.08894" lon="6.95182">
        <ele>1562</ele>
        <time>2018-08-25T15:15:10Z</time>
      </trkpt>
      <trkpt lat="44.0892" lon="6.95191">
        <ele>1562.71</ele>
        <time>2018-08-25T15:15:12Z</time>
      </trkpt>
      <trkpt lat="44.08944" lon="6.95209">
        <ele>1560.04</ele>
        <time>2018-08-25T15:15:14Z</time>
      </trkpt>
      <trkpt lat="44.08962" lon="6.9522">
        <ele>1556.86</ele>
        <time>2018-08-25T15:15:16Z</time>
      </trkpt>
      <trkpt lat="44.08971" lon="6.95247">
        <ele>1556.13</ele>
        <time>2018-08-25T15:15:19Z</time>
      </trkpt>
      <trkpt lat="44.0895" lon="6.95261">
        <ele>1551.8</ele>
        <time>2018-08-25T15:15:22Z</time>
      </trkpt>
      <trkpt lat="44.08922" lon="6.95263">
        <ele>1549.96</ele>
        <time>2018-08-25T15:15:24Z</time>
      </trkpt>
      <trkpt lat="44.08901" lon="6.9525">
        <ele>1549.67</ele>
        <time>2018-08-25T15:15:25Z</time>
      </trkpt>
      <trkpt lat="44.08872" lon="6.95257">
        <ele>1545.64</ele>
        <time>2018-08-25T15:15:27Z</time>
      </trkpt>
      <trkpt lat="44.08843" lon="6.9528">
        <ele>1542.13</ele>
        <time>2018-08-25T15:15:29Z</time>
      </trkpt>
      <trkpt lat="44.08828" lon="6.95294">
        <ele>1541.72</ele>
        <time>2018-08-25T15:15:30Z</time>
      </trkpt>
      <trkpt lat="44.08812" lon="6.95331">
        <ele>1540.9</ele>
        <time>2018-08-25T15:15:31Z</time>
      </trkpt>
      <trkpt lat="44.08788" lon="6.9536">
        <ele>1539.95</ele>
        <time>2018-08-25T15:15:32Z</time>
      </trkpt>
      <trkpt lat="44.08769" lon="6.9539">
        <ele>1538.97</ele>
        <time>2018-08-25T15:15:33Z</time>
      </trkpt>
      <trkpt lat="44.0875" lon="6.95417">
        <ele>1538.67</ele>
        <time>2018-08-25T15:15:34Z</time>
      </trkpt>
      <trkpt lat="44.08732" lon="6.95439">
        <ele>1538.59</ele>
        <time>2018-08-25T15:15:35Z</time>
      </trkpt>
      <trkpt lat="44.08712" lon="6.9546">
        <ele>1538.56</ele>
        <time>2018-08-25T15:15:36Z</time>
      </trkpt>
      <trkpt lat="44.08695" lon="6.95489">
        <ele>1538.55</ele>
        <time>2018-08-25T15:15:37Z</time>
      </trkpt>
      <trkpt lat="44.08674" lon="6.95511">
        <ele>1538.55</ele>
        <time>2018-08-25T15:15:38Z</time>
      </trkpt>
      <trkpt lat="44.08656" lon="6.9553">
        <ele>1537.85</ele>
        <time>2018-08-25T15:15:39Z</time>
      </trkpt>
      <trkpt lat="44.08636" lon="6.95548">
        <ele>1537.64</ele>
        <time>2018-08-25T15:15:40Z</time>
      </trkpt>
      <trkpt lat="44.08618" lon="6.95564">
        <ele>1537.58</ele>
        <time>2018-08-25T15:15:41Z</time>
      </trkpt>
      <trkpt lat="44.08605" lon="6.95584">
        <ele>1535.46</ele>
        <time>2018-08-25T15:15:42Z</time>
      </trkpt>
      <trkpt lat="44.08594" lon="6.95604">
        <ele>1534.12</ele>
        <time>2018-08-25T15:15:43Z</time>
      </trkpt>
      <trkpt lat="44.08577" lon="6.95644">
        <ele>1531.5</ele>
        <time>2018-08-25T15:15:45Z</time>
      </trkpt>
      <trkpt lat="44.08564" lon="6.95679">
        <ele>1529.51</ele>
        <time>2018-08-25T15:15:47Z</time>
      </trkpt>
      <trkpt lat="44.08576" lon="6.9571">
        <ele>1529.54</ele>
        <time>2018-08-25T15:15:48Z</time>
      </trkpt>
      <trkpt lat="44.08581" lon="6.9574">
        <ele>1530.94</ele>
        <time>2018-08-25T15:15:49Z</time>
      </trkpt>
      <trkpt lat="44.08582" lon="6.95776">
        <ele>1531.37</ele>
        <time>2018-08-25T15:15:50Z</time>
      </trkpt>
      <trkpt lat="44.08582" lon="6.95807">
        <ele>1532.19</ele>
        <time>2018-08-25T15:15:51Z</time>
      </trkpt>
      <trkpt lat="44.08582" lon="6.95838">
        <ele>1533.14</ele>
        <time>2018-08-25T15:15:52Z</time>
      </trkpt>
      <trkpt lat="44.08587" lon="6.95872">
        <ele>1533.43</ele>
        <time>2018-08-25T15:15:53Z</time>
      </trkpt>
      <trkpt lat="44.08585" lon="6.959">
        <ele>1532.11</ele>
        <time>2018-08-25T15:15:54Z</time>
      </trkpt>
      <trkpt lat="44.08592" lon="6.95931">
        <ele>1531.72</ele>
        <time>2018-08-25T15:15:55Z</time>
      </trkpt>
      <trkpt lat="44.08593" lon="6.95961">
        <ele>1531.6</ele>
        <time>2018-08-25T15:15:56Z</time>
      </trkpt>
      <trkpt lat="44.08588" lon="6.95988">
        <ele>1531.56</ele>
        <time>2018-08-25T15:15:57Z</time>
      </trkpt>
      <trkpt lat="44.08593" lon="6.96019">
        <ele>1532.25</ele>
        <time>2018-08-25T15:15:58Z</time>
      </trkpt>
      <trkpt lat="44.08599" lon="6.96055">
        <ele>1533.16</ele>
        <time>2018-08-25T15:15:59Z</time>
      </trkpt>
      <trkpt lat="44.08609" lon="6.9609">
        <ele>1533.43</ele>
        <time>2018-08-25T15:16:00Z</time>
      </trkpt>
      <trkpt lat="44.08624" lon="6.9613">
        <ele>1533.51</ele>
        <time>2018-08-25T15:16:01Z</time>
      </trkpt>
      <trkpt lat="44.08627" lon="6.96162">
        <ele>1534.24</ele>
        <time>2018-08-25T15:16:02Z</time>
      </trkpt>
      <trkpt lat="44.08629" lon="6.96195">
        <ele>1535.15</ele>
        <time>2018-08-25T15:16:03Z</time>
      </trkpt>
      <trkpt lat="44.08638" lon="6.96233">
        <ele>1535.43</ele>
        <time>2018-08-25T15:16:04Z</time>
      </trkpt>
      <trkpt lat="44.08641" lon="6.96262">
        <ele>1535.51</ele>
        <time>2018-08-25T15:16:05Z</time>
      </trkpt>
      <trkpt lat="44.08644" lon="6.96293">
        <ele>1535.05</ele>
        <time>2018-08-25T15:16:07Z</time>
      </trkpt>
      <trkpt lat="44.08662" lon="6.96324">
        <ele>1532.77</ele>
        <time>2018-08-25T15:16:09Z</time>
      </trkpt>
      <trkpt lat="44.08684" lon="6.96359">
        <ele>1533.27</ele>
        <time>2018-08-25T15:16:11Z</time>
      </trkpt>
      <trkpt lat="44.08712" lon="6.96369">
        <ele>1536.04</ele>
        <time>2018-08-25T15:16:13Z</time>
      </trkpt>
      <trkpt lat="44.08737" lon="6.96382">
        <ele>1537.2</ele>
        <time>2018-08-25T15:16:15Z</time>
      </trkpt>
      <trkpt lat="44.08762" lon="6.96356">
        <ele>1537.31</ele>
        <time>2018-08-25T15:16:17Z</time>
      </trkpt>
      <trkpt lat="44.08783" lon="6.96343">
        <ele>1539.14</ele>
        <time>2018-08-25T15:16:19Z</time>
      </trkpt>
      <trkpt lat="44.08808" lon="6.96353">
        <ele>1540.42</ele>
        <time>2018-08-25T15:16:21Z</time>
      </trkpt>
      <trkpt lat="44.08832" lon="6.96393">
        <ele>1539.35</ele>
        <time>2018-08-25T15:16:23Z</time>
      </trkpt>
      <trkpt lat="44.08847" lon="6.96423">
        <ele>1539.32</ele>
        <time>2018-08-25T15:16:25Z</time>
      </trkpt>
      <trkpt lat="44.08866" lon="6.96421">
        <ele>1539.48</ele>
        <time>2018-08-25T15:16:26Z</time>
      </trkpt>
      <trkpt lat="44.08894" lon="6.96427">
        <ele>1540.45</ele>
        <time>2018-08-25T15:16:28Z</time>
      </trkpt>
      <trkpt lat="44.08919" lon="6.96429">
        <ele>1540.54</ele>
        <time>2018-08-25T15:16:30Z</time>
      </trkpt>
      <trkpt lat="44.08946" lon="6.96435">
        <ele>1542.16</ele>
        <time>2018-08-25T15:16:32Z</time>
      </trkpt>
      <trkpt lat="44.08964" lon="6.96467">
        <ele>1540.9</ele>
        <time>2018-08-25T15:16:34Z</time>
      </trkpt>
      <trkpt lat="44.0898" lon="6.96497">
        <ele>1542.19</ele>
        <time>2018-08-25T15:16:36Z</time>
      </trkpt>
      <trkpt lat="44.08992" lon="6.96534">
        <ele>1541.61</ele>
        <time>2018-08-25T15:16:38Z</time>
      </trkpt>
      <trkpt lat="44.09002" lon="6.96571">
        <ele>1542.25</ele>
        <time>2018-08-25T15:16:40Z</time>
      </trkpt>
      <trkpt lat="44.09012" lon="6.96593">
        <ele>1543.43</ele>
        <time>2018-08-25T15:16:42Z</time>
      </trkpt>
      <trkpt lat="44.09019" lon="6.96618">
        <ele>1542.84</ele>
        <time>2018-08-25T15:16:44Z</time>
      </trkpt>
      <trkpt lat="44.09031" lon="6.96637">
        <ele>1542.57</ele>
        <time>2018-08-25T15:16:49Z</time>
      </trkpt>
      <trkpt lat="44.09043" lon="6.96656">
        <ele>1545.55</ele>
        <time>2018-08-25T15:17:02Z</time>
      </trkpt>
      <trkpt lat="44.09052" lon="6.96684">
        <ele>1541.84</ele>
        <time>2018-08-25T15:17:05Z</time>
      </trkpt>
      <trkpt lat="44.0907" lon="6.96718">
        <ele>1542.27</ele>
        <time>2018-08-25T15:17:07Z</time>
      </trkpt>
      <trkpt lat="44.09052" lon="6.96724">
        <ele>1541.25</ele>
        <time>2018-08-25T15:18:42Z</time>
      </trkpt>
      <trkpt lat="44.09039" lon="6.96706">
        <ele>1545.55</ele>
        <time>2018-08-25T15:19:06Z</time>
      </trkpt>
      <trkpt lat="44.09055" lon="6.96687">
        <ele>1548.73</ele>
        <time>2018-08-25T15:19:51Z</time>
      </trkpt>
      <trkpt lat="44.09047" lon="6.96711">
        <ele>1547.96</ele>
        <time>2018-08-25T15:23:24Z</time>
      </trkpt>
      <trkpt lat="44.0905" lon="6.96736">
        <ele>1526.81</ele>
        <time>2018-08-25T19:26:07Z</time>
      </trkpt>
      <trkpt lat="44.09035" lon="6.96697">
        <ele>1511.96</ele>
        <time>2018-08-25T19:28:38Z</time>
      </trkpt>
      <trkpt lat="44.09058" lon="6.96739">
        <ele>1520.45</ele>
        <time>2018-08-25T19:31:21Z</time>
      </trkpt>
      <trkpt lat="44.09056" lon="6.96703">
        <ele>1516.72</ele>
        <time>2018-08-25T19:32:19Z</time>
      </trkpt>
      <trkpt lat="44.09052" lon="6.96731">
        <ele>1523.05</ele>
        <time>2018-08-25T19:33:32Z</time>
      </trkpt>
      <trkpt lat="44.09055" lon="6.96693">
        <ele>1460.64</ele>
        <time>2018-08-25T19:40:28Z</time>
      </trkpt>
      <trkpt lat="44.09098" lon="6.96719">
        <ele>1467.91</ele>
        <time>2018-08-25T19:41:53Z</time>
      </trkpt>
      <trkpt lat="44.09092" lon="6.9668">
        <ele>1485.86</ele>
        <time>2018-08-25T19:42:15Z</time>
      </trkpt>
      <trkpt lat="44.09081" lon="6.96711">
        <ele>1499.91</ele>
        <time>2018-08-25T19:42:18Z</time>
      </trkpt>
      <trkpt lat="44.09063" lon="6.96721">
        <ele>1514.53</ele>
        <time>2018-08-25T19:42:35Z</time>
      </trkpt>
      <trkpt lat="44.09049" lon="6.96736">
        <ele>1515.91</ele>
        <time>2018-08-25T19:42:48Z</time>
      </trkpt>
      <trkpt lat="44.09053" lon="6.96707">
        <ele>1517.76</ele>
        <time>2018-08-25T19:44:43Z</time>
      </trkpt>
      <trkpt lat="44.09075" lon="6.96706">
        <ele>1517.27</ele>
        <time>2018-08-25T19:52:39Z</time>
      </trkpt>
      <trkpt lat="44.09052" lon="6.96704">
        <ele>1525.86</ele>
        <time>2018-08-25T19:53:21Z</time>
      </trkpt>
      <trkpt lat="44.09046" lon="6.96728">
        <ele>1530.46</ele>
        <time>2018-08-25T19:59:09Z</time>
      </trkpt>
      <trkpt lat="44.09059" lon="6.96692">
        <ele>1550.15</ele>
        <time>2018-08-26T07:06:04Z</time>
      </trkpt>
      <trkpt lat="44.09071" lon="6.96711">
        <ele>1571.42</ele>
        <time>2018-08-26T07:06:53Z</time>
      </trkpt>
      <trkpt lat="44.09081" lon="6.96732">
        <ele>1555.56</ele>
        <time>2018-08-26T07:07:17Z</time>
      </trkpt>
    </trkseg>
  </trk>
</gpx>